<?xml version='1.0' encoding='UTF-8'?><gpx version="1.1" creator="JPX - https://github.com/jenetics/jpx" xmlns="http://www.topografix.com/GPX/1/1"><trk><trkseg><trkpt lat="41.09162043318254" lon="14.263368202386669"><ele>43.25</ele><time>2026-05-02T12:06:10.786Z</time></trkpt><trkpt lat="41.09135770242763" lon="14.263340123011044"><ele>43.5</ele><time>2026-05-02T12:06:11.794Z</time></trkpt><trkpt lat="41.09143096026135" lon="14.263244485495857"><ele>43.75</ele><time>2026-05-02T12:06:15.006Z</time></trkpt><trkpt lat="41.09144897963463" lon="14.26333681920916"><ele>44.0</ele><time>2026-05-02T12:06:35.001Z</time></trkpt><trkpt lat="41.09139273162464" lon="14.263283110877522"><ele>43.5</ele><time>2026-05-02T12:07:01Z</time></trkpt><trkpt lat="41.09138164999923" lon="14.26309414906916"><ele>43.0</ele><time>2026-05-02T12:07:03Z</time></trkpt><trkpt lat="41.091374882727656" lon="14.262956148061852"><ele>42.5</ele><time>2026-05-02T12:07:04Z</time></trkpt><trkpt lat="41.091372509039374" lon="14.262810265632977"><ele>42.0</ele><time>2026-05-02T12:07:05Z</time></trkpt><trkpt lat="41.091379527680566" lon="14.262633833645575"><ele>42.0</ele><time>2026-05-02T12:07:06Z</time></trkpt><trkpt lat="41.09138134743131" lon="14.262474299628431"><ele>42.0</ele><time>2026-05-02T12:07:07Z</time></trkpt><trkpt lat="41.091389919017516" lon="14.262310688432278"><ele>42.0</ele><time>2026-05-02T12:07:08Z</time></trkpt><trkpt lat="41.091387803909804" lon="14.262145054152022"><ele>42.0</ele><time>2026-05-02T12:07:09Z</time></trkpt><trkpt lat="41.091387023646504" lon="14.262023175967782"><ele>41.75</ele><time>2026-05-02T12:07:10Z</time></trkpt><trkpt lat="41.09138930741737" lon="14.261876833366149"><ele>41.5</ele><time>2026-05-02T12:07:11Z</time></trkpt><trkpt lat="41.09137766480186" lon="14.261708901795496"><ele>41.25</ele><time>2026-05-02T12:07:12Z</time></trkpt><trkpt lat="41.09137629210668" lon="14.261528188652376"><ele>41.0</ele><time>2026-05-02T12:07:13Z</time></trkpt><trkpt lat="41.09137848827054" lon="14.261352464842153"><ele>40.75</ele><time>2026-05-02T12:07:14Z</time></trkpt><trkpt lat="41.09138191792649" lon="14.261166296980868"><ele>40.5</ele><time>2026-05-02T12:07:15Z</time></trkpt><trkpt lat="41.09138224566564" lon="14.260980239859709"><ele>40.25</ele><time>2026-05-02T12:07:16Z</time></trkpt><trkpt lat="41.0913921505204" lon="14.260792318876812"><ele>40.0</ele><time>2026-05-02T12:07:17Z</time></trkpt><trkpt lat="41.09139123383358" lon="14.260604019920963"><ele>39.75</ele><time>2026-05-02T12:07:18Z</time></trkpt><trkpt lat="41.09138944508573" lon="14.260426451170316"><ele>39.5</ele><time>2026-05-02T12:07:19Z</time></trkpt><trkpt lat="41.09140390084779" lon="14.260260662209587"><ele>39.25</ele><time>2026-05-02T12:07:20Z</time></trkpt><trkpt lat="41.09140162075663" lon="14.260100022515951"><ele>39.0</ele><time>2026-05-02T12:07:21Z</time></trkpt><trkpt lat="41.09136189297771" lon="14.259982936663427"><ele>39.0</ele><time>2026-05-02T12:07:22Z</time></trkpt><trkpt lat="41.09136617045055" lon="14.25989733981826"><ele>39.0</ele><time>2026-05-02T12:07:23Z</time></trkpt><trkpt lat="41.091431965734266" lon="14.259757974236045"><ele>39.0</ele><time>2026-05-02T12:07:25Z</time></trkpt><trkpt lat="41.091564730744956" lon="14.259770218747072"><ele>39.0</ele><time>2026-05-02T12:07:27Z</time></trkpt><trkpt lat="41.09164186033741" lon="14.259564209784585"><ele>39.0</ele><time>2026-05-02T12:07:29Z</time></trkpt><trkpt lat="41.09164824645048" lon="14.259442712776133"><ele>39.0</ele><time>2026-05-02T12:07:30Z</time></trkpt><trkpt lat="41.09163912044385" lon="14.259280707276188"><ele>39.0</ele><time>2026-05-02T12:07:31Z</time></trkpt><trkpt lat="41.09165111561051" lon="14.259111653912832"><ele>39.0</ele><time>2026-05-02T12:07:32Z</time></trkpt><trkpt lat="41.09164836285887" lon="14.258917782754333"><ele>38.666666666666664</ele><time>2026-05-02T12:07:33Z</time></trkpt><trkpt lat="41.0916329278193" lon="14.258724180417481"><ele>38.33333333333333</ele><time>2026-05-02T12:07:34Z</time></trkpt><trkpt lat="41.09162184913079" lon="14.258526703463879"><ele>38.0</ele><time>2026-05-02T12:07:35Z</time></trkpt><trkpt lat="41.09157572842442" lon="14.25830294957759"><ele>38.5</ele><time>2026-05-02T12:07:36Z</time></trkpt><trkpt lat="41.091541446569536" lon="14.25810199990524"><ele>39.0</ele><time>2026-05-02T12:07:37Z</time></trkpt><trkpt lat="41.09151241405993" lon="14.25790967387935"><ele>39.5</ele><time>2026-05-02T12:07:38Z</time></trkpt><trkpt lat="41.091481167968375" lon="14.257751089955157"><ele>40.0</ele><time>2026-05-02T12:07:39Z</time></trkpt><trkpt lat="41.0914570859938" lon="14.257613158028096"><ele>40.0</ele><time>2026-05-02T12:07:40Z</time></trkpt><trkpt lat="41.09143226011686" lon="14.257489573517352"><ele>40.0</ele><time>2026-05-02T12:07:41Z</time></trkpt><trkpt lat="41.09141419972113" lon="14.257382925948841"><ele>40.0</ele><time>2026-05-02T12:07:42Z</time></trkpt><trkpt lat="41.09139750772032" lon="14.25726598465572"><ele>40.0</ele><time>2026-05-02T12:07:44Z</time></trkpt><trkpt lat="41.09149052047273" lon="14.257141756900321"><ele>40.0</ele><time>2026-05-02T12:07:49Z</time></trkpt><trkpt lat="41.09149684023467" lon="14.256950141546637"><ele>40.5</ele><time>2026-05-02T12:07:51Z</time></trkpt><trkpt lat="41.09148471567052" lon="14.25676099717788"><ele>41.0</ele><time>2026-05-02T12:07:52Z</time></trkpt><trkpt lat="41.09144893638782" lon="14.256604302679822"><ele>41.5</ele><time>2026-05-02T12:07:53Z</time></trkpt><trkpt lat="41.09147903317953" lon="14.256372230542278"><ele>42.0</ele><time>2026-05-02T12:07:54Z</time></trkpt><trkpt lat="41.09146333949582" lon="14.256143454617085"><ele>40.666666666666664</ele><time>2026-05-02T12:07:55Z</time></trkpt><trkpt lat="41.09145878462381" lon="14.255898777219823"><ele>39.33333333333333</ele><time>2026-05-02T12:07:56Z</time></trkpt><trkpt lat="41.091447987009154" lon="14.25565163239846"><ele>38.0</ele><time>2026-05-02T12:07:57Z</time></trkpt><trkpt lat="41.091435996010674" lon="14.255436755498785"><ele>38.0</ele><time>2026-05-02T12:07:58Z</time></trkpt><trkpt lat="41.09142716631128" lon="14.255233648056024"><ele>38.0</ele><time>2026-05-02T12:07:59Z</time></trkpt><trkpt lat="41.0914367567981" lon="14.255052259749817"><ele>38.0</ele><time>2026-05-02T12:08:00Z</time></trkpt><trkpt lat="41.09141664977852" lon="14.25489170282088"><ele>38.0</ele><time>2026-05-02T12:08:01Z</time></trkpt><trkpt lat="41.091426385098764" lon="14.25470915741912"><ele>38.0</ele><time>2026-05-02T12:08:02Z</time></trkpt><trkpt lat="41.09142193762172" lon="14.254558788717517"><ele>38.0</ele><time>2026-05-02T12:08:03Z</time></trkpt><trkpt lat="41.09140540939878" lon="14.25442521304715"><ele>38.0</ele><time>2026-05-02T12:08:04Z</time></trkpt><trkpt lat="41.091398629458425" lon="14.25428352488094"><ele>38.0</ele><time>2026-05-02T12:08:05Z</time></trkpt><trkpt lat="41.091420595134586" lon="14.254140953650998"><ele>38.0</ele><time>2026-05-02T12:08:06Z</time></trkpt><trkpt lat="41.09141848474667" lon="14.254019424933398"><ele>37.83333333333333</ele><time>2026-05-02T12:08:07Z</time></trkpt><trkpt lat="41.09141196934023" lon="14.253897027747787"><ele>37.666666666666664</ele><time>2026-05-02T12:08:08Z</time></trkpt><trkpt lat="41.09140780840266" lon="14.2538008854841"><ele>37.5</ele><time>2026-05-02T12:08:09Z</time></trkpt><trkpt lat="41.09140593252078" lon="14.253708348501723"><ele>37.333333333333336</ele><time>2026-05-02T12:08:10Z</time></trkpt><trkpt lat="41.0914023796262" lon="14.25358037398029"><ele>37.16666666666667</ele><time>2026-05-02T12:08:12Z</time></trkpt><trkpt lat="41.09140273280909" lon="14.25347313244997"><ele>37.0</ele><time>2026-05-02T12:08:15Z</time></trkpt><trkpt lat="41.09148422235681" lon="14.25342833086664"><ele>37.0</ele><time>2026-05-02T12:08:18Z</time></trkpt><trkpt lat="41.09155236199547" lon="14.25342442465474"><ele>37.0</ele><time>2026-05-02T12:08:19Z</time></trkpt><trkpt lat="41.09164538047406" lon="14.253417390276915"><ele>37.0</ele><time>2026-05-02T12:08:20Z</time></trkpt><trkpt lat="41.0917578880624" lon="14.253408882060414"><ele>37.0</ele><time>2026-05-02T12:08:20.999Z</time></trkpt><trkpt lat="41.091895359165676" lon="14.25338422166861"><ele>37.0</ele><time>2026-05-02T12:08:21.999Z</time></trkpt><trkpt lat="41.09206113856379" lon="14.253377879537267"><ele>37.0</ele><time>2026-05-02T12:08:22.999Z</time></trkpt><trkpt lat="41.09222194172859" lon="14.253355419905676"><ele>37.0</ele><time>2026-05-02T12:08:23.999Z</time></trkpt><trkpt lat="41.09237220420138" lon="14.25334141660314"><ele>37.0</ele><time>2026-05-02T12:08:24.999Z</time></trkpt><trkpt lat="41.092504735596776" lon="14.253335128556364"><ele>37.0</ele><time>2026-05-02T12:08:25.999Z</time></trkpt><trkpt lat="41.09262305324627" lon="14.253324647965577"><ele>36.800000000000004</ele><time>2026-05-02T12:08:26.999Z</time></trkpt><trkpt lat="41.09273376419655" lon="14.253317079033469"><ele>36.6</ele><time>2026-05-02T12:08:27.999Z</time></trkpt><trkpt lat="41.092834811433875" lon="14.253309253626352"><ele>36.400000000000006</ele><time>2026-05-02T12:08:28.999Z</time></trkpt><trkpt lat="41.09292203143112" lon="14.253280832112024"><ele>36.2</ele><time>2026-05-02T12:08:29.999Z</time></trkpt><trkpt lat="41.093018492573016" lon="14.253269068181126"><ele>36.0</ele><time>2026-05-02T12:08:30.999Z</time></trkpt><trkpt lat="41.093102554911965" lon="14.253258643183326"><ele>36.0</ele><time>2026-05-02T12:08:31.999Z</time></trkpt><trkpt lat="41.09317902371094" lon="14.25324713383127"><ele>36.0</ele><time>2026-05-02T12:08:32.999Z</time></trkpt><trkpt lat="41.093263918150804" lon="14.253233091983851"><ele>36.0</ele><time>2026-05-02T12:08:33.999Z</time></trkpt><trkpt lat="41.09334239210858" lon="14.253214799304653"><ele>36.0</ele><time>2026-05-02T12:08:34.999Z</time></trkpt><trkpt lat="41.093443268699815" lon="14.253191988132375"><ele>36.0</ele><time>2026-05-02T12:08:35.999Z</time></trkpt><trkpt lat="41.09357661046567" lon="14.253174418581683"><ele>35.333333333333336</ele><time>2026-05-02T12:08:36.999Z</time></trkpt><trkpt lat="41.09371666909293" lon="14.253207374035254"><ele>34.66666666666667</ele><time>2026-05-02T12:08:37.999Z</time></trkpt><trkpt lat="41.09387161592324" lon="14.253192378355212"><ele>34.0</ele><time>2026-05-02T12:08:38.999Z</time></trkpt><trkpt lat="41.09402684871414" lon="14.25313553560964"><ele>34.0</ele><time>2026-05-02T12:08:39.999Z</time></trkpt><trkpt lat="41.09419884690944" lon="14.25313265842408"><ele>34.0</ele><time>2026-05-02T12:08:40.999Z</time></trkpt><trkpt lat="41.094373548912564" lon="14.25311963209835"><ele>34.0</ele><time>2026-05-02T12:08:41.999Z</time></trkpt><trkpt lat="41.09454506088462" lon="14.25311615172756"><ele>34.0</ele><time>2026-05-02T12:08:42.999Z</time></trkpt><trkpt lat="41.094674737837636" lon="14.253105771223673"><ele>34.0</ele><time>2026-05-02T12:08:43.999Z</time></trkpt><trkpt lat="41.09479536987416" lon="14.253095459318335"><ele>34.0</ele><time>2026-05-02T12:08:44.999Z</time></trkpt><trkpt lat="41.094925792572276" lon="14.25307452783538"><ele>34.0</ele><time>2026-05-02T12:08:45.999Z</time></trkpt><trkpt lat="41.0950876665532" lon="14.253060569892474"><ele>34.0</ele><time>2026-05-02T12:08:46.999Z</time></trkpt><trkpt lat="41.09524904056716" lon="14.253040243488691"><ele>34.0</ele><time>2026-05-02T12:08:47.999Z</time></trkpt><trkpt lat="41.095421459882516" lon="14.253031508015512"><ele>34.0</ele><time>2026-05-02T12:08:48.999Z</time></trkpt><trkpt lat="41.09557235145089" lon="14.25301966056735"><ele>34.0</ele><time>2026-05-02T12:08:49.999Z</time></trkpt><trkpt lat="41.095710027738285" lon="14.253008848932756"><ele>34.0</ele><time>2026-05-02T12:08:51Z</time></trkpt><trkpt lat="41.09583773714758" lon="14.252999902424854"><ele>34.0</ele><time>2026-05-02T12:08:52Z</time></trkpt><trkpt lat="41.095949794939536" lon="14.252986788907734"><ele>34.0</ele><time>2026-05-02T12:08:53Z</time></trkpt><trkpt lat="41.096064183397125" lon="14.252986298739577"><ele>34.0</ele><time>2026-05-02T12:08:54Z</time></trkpt><trkpt lat="41.0961879590184" lon="14.252992300269353"><ele>34.0</ele><time>2026-05-02T12:08:55Z</time></trkpt><trkpt lat="41.09630552405223" lon="14.253004165822317"><ele>34.0</ele><time>2026-05-02T12:08:56Z</time></trkpt><trkpt lat="41.09639586457844" lon="14.253027818830583"><ele>34.0</ele><time>2026-05-02T12:08:57Z</time></trkpt><trkpt lat="41.096462640678595" lon="14.253099323356917"><ele>34.0</ele><time>2026-05-02T12:08:58Z</time></trkpt><trkpt lat="41.09653496536523" lon="14.25312933285004"><ele>34.0</ele><time>2026-05-02T12:08:59Z</time></trkpt><trkpt lat="41.09661039127505" lon="14.2531587842376"><ele>34.0</ele><time>2026-05-02T12:09:00Z</time></trkpt><trkpt lat="41.09667452116102" lon="14.253237466609361"><ele>34.0</ele><time>2026-05-02T12:09:01Z</time></trkpt><trkpt lat="41.09673422695151" lon="14.253345134740849"><ele>34.0</ele><time>2026-05-02T12:09:02Z</time></trkpt><trkpt lat="41.096780259738075" lon="14.253455542864137"><ele>34.0</ele><time>2026-05-02T12:09:03Z</time></trkpt><trkpt lat="41.09684058344057" lon="14.253535311590118"><ele>34.0</ele><time>2026-05-02T12:09:04Z</time></trkpt><trkpt lat="41.096927294649426" lon="14.253579999705035"><ele>34.0</ele><time>2026-05-02T12:09:05Z</time></trkpt><trkpt lat="41.0970095403271" lon="14.253600448723818"><ele>34.0</ele><time>2026-05-02T12:09:06Z</time></trkpt><trkpt lat="41.09708479065848" lon="14.253568072130552"><ele>34.0</ele><time>2026-05-02T12:09:07Z</time></trkpt><trkpt lat="41.097154520842516" lon="14.25350517489856"><ele>34.0</ele><time>2026-05-02T12:09:08Z</time></trkpt><trkpt lat="41.0972000315422" lon="14.253407677069266"><ele>34.0</ele><time>2026-05-02T12:09:09Z</time></trkpt><trkpt lat="41.09723094373522" lon="14.253274629093116"><ele>34.0</ele><time>2026-05-02T12:09:10Z</time></trkpt><trkpt lat="41.09724833282517" lon="14.253152847987765"><ele>34.5</ele><time>2026-05-02T12:09:11Z</time></trkpt><trkpt lat="41.09725648431809" lon="14.253042208302695"><ele>35.0</ele><time>2026-05-02T12:09:12Z</time></trkpt><trkpt lat="41.097359085474395" lon="14.252954984796737"><ele>35.5</ele><time>2026-05-02T12:09:13Z</time></trkpt><trkpt lat="41.09745077006471" lon="14.25287918109128"><ele>36.0</ele><time>2026-05-02T12:09:14Z</time></trkpt><trkpt lat="41.09758068298386" lon="14.252824981182634"><ele>36.0</ele><time>2026-05-02T12:09:15Z</time></trkpt><trkpt lat="41.09771319767177" lon="14.25279694473882"><ele>36.0</ele><time>2026-05-02T12:09:16Z</time></trkpt><trkpt lat="41.097850330246885" lon="14.252773838116402"><ele>36.0</ele><time>2026-05-02T12:09:17Z</time></trkpt><trkpt lat="41.09800444178218" lon="14.252754139854789"><ele>36.0</ele><time>2026-05-02T12:09:18Z</time></trkpt><trkpt lat="41.09818355480486" lon="14.25272150299542"><ele>35.666666666666664</ele><time>2026-05-02T12:09:19Z</time></trkpt><trkpt lat="41.09837040662103" lon="14.252694296694658"><ele>35.33333333333333</ele><time>2026-05-02T12:09:20Z</time></trkpt><trkpt lat="41.09857677430328" lon="14.252684044551115"><ele>35.0</ele><time>2026-05-02T12:09:21Z</time></trkpt><trkpt lat="41.09879191136668" lon="14.252671362447582"><ele>35.0</ele><time>2026-05-02T12:09:22Z</time></trkpt><trkpt lat="41.09901648390841" lon="14.252650801804096"><ele>35.0</ele><time>2026-05-02T12:09:23Z</time></trkpt><trkpt lat="41.099237863991426" lon="14.25262008016576"><ele>35.0</ele><time>2026-05-02T12:09:24Z</time></trkpt><trkpt lat="41.09946430414642" lon="14.252589773831389"><ele>35.0</ele><time>2026-05-02T12:09:25Z</time></trkpt><trkpt lat="41.099695710376096" lon="14.252561665295827"><ele>35.0</ele><time>2026-05-02T12:09:26Z</time></trkpt><trkpt lat="41.099929875901616" lon="14.25253778487514"><ele>34.5</ele><time>2026-05-02T12:09:27Z</time></trkpt><trkpt lat="41.10015913185364" lon="14.252514879278044"><ele>34.0</ele><time>2026-05-02T12:09:28Z</time></trkpt><trkpt lat="41.10038299732327" lon="14.252491761540686"><ele>34.0</ele><time>2026-05-02T12:09:29Z</time></trkpt><trkpt lat="41.10059971938055" lon="14.252463949384406"><ele>34.0</ele><time>2026-05-02T12:09:30Z</time></trkpt><trkpt lat="41.100823015685116" lon="14.252440646269363"><ele>34.0</ele><time>2026-05-02T12:09:31Z</time></trkpt><trkpt lat="41.10104589996273" lon="14.252415161942588"><ele>34.333333333333336</ele><time>2026-05-02T12:09:32Z</time></trkpt><trkpt lat="41.101266071025385" lon="14.252396610233747"><ele>34.666666666666664</ele><time>2026-05-02T12:09:33Z</time></trkpt><trkpt lat="41.101490519779865" lon="14.2523730951813"><ele>35.0</ele><time>2026-05-02T12:09:34Z</time></trkpt><trkpt lat="41.101715428707436" lon="14.252343891232915"><ele>35.33333333333333</ele><time>2026-05-02T12:09:35Z</time></trkpt><trkpt lat="41.101934085594806" lon="14.252315200281352"><ele>35.666666666666664</ele><time>2026-05-02T12:09:36Z</time></trkpt><trkpt lat="41.102152373008025" lon="14.252285570358207"><ele>36.0</ele><time>2026-05-02T12:09:37Z</time></trkpt><trkpt lat="41.102370701130184" lon="14.25225296621639"><ele>34.5</ele><time>2026-05-02T12:09:38Z</time></trkpt><trkpt lat="41.10259282088361" lon="14.25221584503296"><ele>33.0</ele><time>2026-05-02T12:09:39Z</time></trkpt><trkpt lat="41.10282402048574" lon="14.252196525523566"><ele>33.0</ele><time>2026-05-02T12:09:40Z</time></trkpt><trkpt lat="41.10306015283942" lon="14.25217613651301"><ele>33.0</ele><time>2026-05-02T12:09:41Z</time></trkpt><trkpt lat="41.10328759527062" lon="14.25215084047979"><ele>34.0</ele><time>2026-05-02T12:09:42Z</time></trkpt><trkpt lat="41.1035207601585" lon="14.252148408998217"><ele>35.0</ele><time>2026-05-02T12:09:43Z</time></trkpt><trkpt lat="41.10374947773537" lon="14.25212472534993"><ele>35.0</ele><time>2026-05-02T12:09:44Z</time></trkpt><trkpt lat="41.10398292303179" lon="14.252100552152296"><ele>35.0</ele><time>2026-05-02T12:09:45Z</time></trkpt><trkpt lat="41.104210713164875" lon="14.252076079179485"><ele>35.0</ele><time>2026-05-02T12:09:46Z</time></trkpt><trkpt lat="41.10443546488175" lon="14.252052905831594"><ele>35.0</ele><time>2026-05-02T12:09:47Z</time></trkpt><trkpt lat="41.1046396495119" lon="14.252031269459414"><ele>35.0</ele><time>2026-05-02T12:09:48Z</time></trkpt><trkpt lat="41.104836893610695" lon="14.25198906141883"><ele>34.666666666666664</ele><time>2026-05-02T12:09:49Z</time></trkpt><trkpt lat="41.105034268926644" lon="14.251975851300509"><ele>34.333333333333336</ele><time>2026-05-02T12:09:50Z</time></trkpt><trkpt lat="41.10521197955349" lon="14.25195909058488"><ele>34.0</ele><time>2026-05-02T12:09:51Z</time></trkpt><trkpt lat="41.10538546133652" lon="14.251940179863555"><ele>34.0</ele><time>2026-05-02T12:09:52Z</time></trkpt><trkpt lat="41.10555084843524" lon="14.2519363409811"><ele>34.0</ele><time>2026-05-02T12:09:53Z</time></trkpt><trkpt lat="41.105735056803546" lon="14.251893404985287"><ele>34.0</ele><time>2026-05-02T12:09:54Z</time></trkpt><trkpt lat="41.10590311984322" lon="14.251879336022856"><ele>34.25</ele><time>2026-05-02T12:09:55Z</time></trkpt><trkpt lat="41.10604269254153" lon="14.251869613058918"><ele>34.5</ele><time>2026-05-02T12:09:56Z</time></trkpt><trkpt lat="41.10617710560645" lon="14.251856429003032"><ele>34.75</ele><time>2026-05-02T12:09:57Z</time></trkpt><trkpt lat="41.10631251497774" lon="14.251847023615012"><ele>35.0</ele><time>2026-05-02T12:09:58Z</time></trkpt><trkpt lat="41.10645217403444" lon="14.251826065622229"><ele>35.25</ele><time>2026-05-02T12:09:59Z</time></trkpt><trkpt lat="41.106597466223704" lon="14.251809192328722"><ele>35.5</ele><time>2026-05-02T12:10:00Z</time></trkpt><trkpt lat="41.10672884129766" lon="14.251798570193936"><ele>35.75</ele><time>2026-05-02T12:10:01Z</time></trkpt><trkpt lat="41.10684412683476" lon="14.251788233457631"><ele>36.0</ele><time>2026-05-02T12:10:02Z</time></trkpt><trkpt lat="41.10695416542728" lon="14.251778326742576"><ele>36.0</ele><time>2026-05-02T12:10:03Z</time></trkpt><trkpt lat="41.10703135911801" lon="14.25177549203784"><ele>36.0</ele><time>2026-05-02T12:10:04Z</time></trkpt><trkpt lat="41.10710564312205" lon="14.251769989460934"><ele>36.0</ele><time>2026-05-02T12:10:05Z</time></trkpt><trkpt lat="41.10717278789916" lon="14.251762846589406"><ele>36.0</ele><time>2026-05-02T12:10:06Z</time></trkpt><trkpt lat="41.10723798168011" lon="14.251750385912509"><ele>36.0</ele><time>2026-05-02T12:10:07Z</time></trkpt><trkpt lat="41.10735509215666" lon="14.251731050457918"><ele>36.0</ele><time>2026-05-02T12:10:09Z</time></trkpt><trkpt lat="41.10747995323351" lon="14.251716007088717"><ele>36.2</ele><time>2026-05-02T12:10:11Z</time></trkpt><trkpt lat="41.10755043289862" lon="14.251726049161144"><ele>36.400000000000006</ele><time>2026-05-02T12:10:12Z</time></trkpt><trkpt lat="41.10762708270451" lon="14.251715854197617"><ele>36.6</ele><time>2026-05-02T12:10:13Z</time></trkpt><trkpt lat="41.10774686887696" lon="14.251703142229879"><ele>36.800000000000004</ele><time>2026-05-02T12:10:14Z</time></trkpt><trkpt lat="41.10788580198194" lon="14.251686733451093"><ele>37.0</ele><time>2026-05-02T12:10:15Z</time></trkpt><trkpt lat="41.108038327454665" lon="14.251678297371503"><ele>37.0</ele><time>2026-05-02T12:10:16Z</time></trkpt><trkpt lat="41.108203124439115" lon="14.251660315356967"><ele>37.0</ele><time>2026-05-02T12:10:17Z</time></trkpt><trkpt lat="41.10837536900015" lon="14.25164122156654"><ele>37.0</ele><time>2026-05-02T12:10:18Z</time></trkpt><trkpt lat="41.10856518470555" lon="14.251591704748511"><ele>37.333333333333336</ele><time>2026-05-02T12:10:19Z</time></trkpt><trkpt lat="41.10873584489373" lon="14.251572262433728"><ele>37.666666666666664</ele><time>2026-05-02T12:10:20Z</time></trkpt><trkpt lat="41.10888838637103" lon="14.251557860310287"><ele>38.0</ele><time>2026-05-02T12:10:21Z</time></trkpt><trkpt lat="41.10902375645318" lon="14.25154529815502"><ele>38.0</ele><time>2026-05-02T12:10:22Z</time></trkpt><trkpt lat="41.10916155952401" lon="14.251558556047513"><ele>38.0</ele><time>2026-05-02T12:10:23Z</time></trkpt><trkpt lat="41.10930268996373" lon="14.251524013712036"><ele>38.0</ele><time>2026-05-02T12:10:24Z</time></trkpt><trkpt lat="41.10943605783515" lon="14.251530698226635"><ele>38.0</ele><time>2026-05-02T12:10:25Z</time></trkpt><trkpt lat="41.109591305997" lon="14.251513908811809"><ele>38.0</ele><time>2026-05-02T12:10:26Z</time></trkpt><trkpt lat="41.10975397976376" lon="14.251495517824345"><ele>38.0</ele><time>2026-05-02T12:10:26.999Z</time></trkpt><trkpt lat="41.109927448074075" lon="14.251471029396049"><ele>38.0</ele><time>2026-05-02T12:10:27.999Z</time></trkpt><trkpt lat="41.11009231614991" lon="14.251451079714778"><ele>37.666666666666664</ele><time>2026-05-02T12:10:28.999Z</time></trkpt><trkpt lat="41.1102623792359" lon="14.251435146614401"><ele>37.333333333333336</ele><time>2026-05-02T12:10:29.999Z</time></trkpt><trkpt lat="41.11044729572988" lon="14.251418005849105"><ele>37.0</ele><time>2026-05-02T12:10:30.999Z</time></trkpt><trkpt lat="41.110628382497055" lon="14.251383319929737"><ele>37.333333333333336</ele><time>2026-05-02T12:10:31.999Z</time></trkpt><trkpt lat="41.11081467941272" lon="14.251383155902836"><ele>37.666666666666664</ele><time>2026-05-02T12:10:32.999Z</time></trkpt><trkpt lat="41.111003635965616" lon="14.251373333380322"><ele>38.0</ele><time>2026-05-02T12:10:33.999Z</time></trkpt><trkpt lat="41.11118656819091" lon="14.251355845214265"><ele>38.0</ele><time>2026-05-02T12:10:34.999Z</time></trkpt><trkpt lat="41.11136620953929" lon="14.2513356446409"><ele>38.0</ele><time>2026-05-02T12:10:35.999Z</time></trkpt><trkpt lat="41.11153210532246" lon="14.251315942771859"><ele>38.0</ele><time>2026-05-02T12:10:36.999Z</time></trkpt><trkpt lat="41.11167859830112" lon="14.251298138350753"><ele>38.75</ele><time>2026-05-02T12:10:37.999Z</time></trkpt><trkpt lat="41.11181057223898" lon="14.251291542265356"><ele>39.5</ele><time>2026-05-02T12:10:38.999Z</time></trkpt><trkpt lat="41.111930504152134" lon="14.251278478840872"><ele>40.25</ele><time>2026-05-02T12:10:39.999Z</time></trkpt><trkpt lat="41.11203709666234" lon="14.251265671724244"><ele>41.0</ele><time>2026-05-02T12:10:40.999Z</time></trkpt><trkpt lat="41.11214089068192" lon="14.251262541888915"><ele>41.0</ele><time>2026-05-02T12:10:41.999Z</time></trkpt><trkpt lat="41.112272429356516" lon="14.25124862506673"><ele>41.0</ele><time>2026-05-02T12:10:42.999Z</time></trkpt><trkpt lat="41.11241676491823" lon="14.251230751420954"><ele>41.0</ele><time>2026-05-02T12:10:43.999Z</time></trkpt><trkpt lat="41.11257997750873" lon="14.251215082644782"><ele>41.0</ele><time>2026-05-02T12:10:45Z</time></trkpt><trkpt lat="41.11274790963229" lon="14.251192750371047"><ele>41.33333333333333</ele><time>2026-05-02T12:10:46Z</time></trkpt><trkpt lat="41.11291812462866" lon="14.251170898761451"><ele>41.666666666666664</ele><time>2026-05-02T12:10:47Z</time></trkpt><trkpt lat="41.11310611698056" lon="14.251151525747504"><ele>42.0</ele><time>2026-05-02T12:10:48Z</time></trkpt><trkpt lat="41.113298117752336" lon="14.25112471484551"><ele>42.333333333333336</ele><time>2026-05-02T12:10:49Z</time></trkpt><trkpt lat="41.113494769110005" lon="14.251098446437611"><ele>42.66666666666667</ele><time>2026-05-02T12:10:50Z</time></trkpt><trkpt lat="41.113696147716816" lon="14.251070816574638"><ele>43.0</ele><time>2026-05-02T12:10:51Z</time></trkpt><trkpt lat="41.11389884257666" lon="14.251045935775847"><ele>43.333333333333336</ele><time>2026-05-02T12:10:52Z</time></trkpt><trkpt lat="41.11409635959457" lon="14.251015253031515"><ele>43.666666666666664</ele><time>2026-05-02T12:10:53Z</time></trkpt><trkpt lat="41.11429376019833" lon="14.250998220490134"><ele>44.0</ele><time>2026-05-02T12:10:54Z</time></trkpt><trkpt lat="41.11449044225561" lon="14.250990926172456"><ele>44.0</ele><time>2026-05-02T12:10:55Z</time></trkpt><trkpt lat="41.11468858139495" lon="14.250971940012505"><ele>44.0</ele><time>2026-05-02T12:10:56Z</time></trkpt><trkpt lat="41.11489469953362" lon="14.250938747767583"><ele>44.0</ele><time>2026-05-02T12:10:57Z</time></trkpt><trkpt lat="41.11507942885269" lon="14.250912444264593"><ele>44.0</ele><time>2026-05-02T12:10:58Z</time></trkpt><trkpt lat="41.115253649125094" lon="14.250894055175564"><ele>44.0</ele><time>2026-05-02T12:10:59Z</time></trkpt><trkpt lat="41.115420186712214" lon="14.25087457585692"><ele>44.0</ele><time>2026-05-02T12:11:00Z</time></trkpt><trkpt lat="41.115570709588326" lon="14.250853271265825"><ele>44.0</ele><time>2026-05-02T12:11:01Z</time></trkpt><trkpt lat="41.11570392569371" lon="14.250835352002142"><ele>44.0</ele><time>2026-05-02T12:11:02Z</time></trkpt><trkpt lat="41.1158075653911" lon="14.250821311019955"><ele>44.0</ele><time>2026-05-02T12:11:03Z</time></trkpt><trkpt lat="41.11592573398804" lon="14.250805880803362"><ele>44.0</ele><time>2026-05-02T12:11:04Z</time></trkpt><trkpt lat="41.116057622655106" lon="14.250789884603433"><ele>43.666666666666664</ele><time>2026-05-02T12:11:05Z</time></trkpt><trkpt lat="41.1162223126322" lon="14.250767317205117"><ele>43.333333333333336</ele><time>2026-05-02T12:11:06Z</time></trkpt><trkpt lat="41.11639854096617" lon="14.250749476625469"><ele>43.0</ele><time>2026-05-02T12:11:07Z</time></trkpt><trkpt lat="41.11657920435749" lon="14.250729841448443"><ele>42.333333333333336</ele><time>2026-05-02T12:11:08Z</time></trkpt><trkpt lat="41.11676814969351" lon="14.25070110685923"><ele>41.666666666666664</ele><time>2026-05-02T12:11:09Z</time></trkpt><trkpt lat="41.11697862947446" lon="14.250682025722014"><ele>41.0</ele><time>2026-05-02T12:11:10Z</time></trkpt><trkpt lat="41.11718876062307" lon="14.250665449428835"><ele>41.0</ele><time>2026-05-02T12:11:11Z</time></trkpt><trkpt lat="41.11738621840241" lon="14.250644524718446"><ele>41.0</ele><time>2026-05-02T12:11:12Z</time></trkpt><trkpt lat="41.11755933173179" lon="14.250622234815062"><ele>41.0</ele><time>2026-05-02T12:11:13Z</time></trkpt><trkpt lat="41.117740073891405" lon="14.250594210581555"><ele>41.33333333333333</ele><time>2026-05-02T12:11:14Z</time></trkpt><trkpt lat="41.117909206835115" lon="14.25056552931277"><ele>41.666666666666664</ele><time>2026-05-02T12:11:15Z</time></trkpt><trkpt lat="41.118076051321836" lon="14.250544539572546"><ele>42.0</ele><time>2026-05-02T12:11:16Z</time></trkpt><trkpt lat="41.11824767117276" lon="14.250521338200723"><ele>42.5</ele><time>2026-05-02T12:11:17Z</time></trkpt><trkpt lat="41.11839726456212" lon="14.250507595025418"><ele>43.0</ele><time>2026-05-02T12:11:18Z</time></trkpt><trkpt lat="41.11853873797482" lon="14.250492214915987"><ele>43.5</ele><time>2026-05-02T12:11:19Z</time></trkpt><trkpt lat="41.11868000119412" lon="14.250511804922027"><ele>44.0</ele><time>2026-05-02T12:11:20Z</time></trkpt><trkpt lat="41.11881240993015" lon="14.250530090568652"><ele>44.0</ele><time>2026-05-02T12:11:21Z</time></trkpt><trkpt lat="41.11893049638668" lon="14.250548550153063"><ele>44.0</ele><time>2026-05-02T12:11:22Z</time></trkpt><trkpt lat="41.11902470551266" lon="14.250566438928304"><ele>44.0</ele><time>2026-05-02T12:11:23Z</time></trkpt><trkpt lat="41.11911799298216" lon="14.25057608446823"><ele>44.0</ele><time>2026-05-02T12:11:24Z</time></trkpt><trkpt lat="41.119205231235924" lon="14.250581976467858"><ele>44.0</ele><time>2026-05-02T12:11:25Z</time></trkpt><trkpt lat="41.11928729197511" lon="14.250593744315838"><ele>44.5</ele><time>2026-05-02T12:11:26Z</time></trkpt><trkpt lat="41.11937694156523" lon="14.250614336425736"><ele>45.0</ele><time>2026-05-02T12:11:27Z</time></trkpt><trkpt lat="41.1194691450843" lon="14.250629937926348"><ele>45.5</ele><time>2026-05-02T12:11:28Z</time></trkpt><trkpt lat="41.1195419374951" lon="14.25064076092185"><ele>46.0</ele><time>2026-05-02T12:11:29Z</time></trkpt><trkpt lat="41.11962213935147" lon="14.25064773235852"><ele>46.5</ele><time>2026-05-02T12:11:30Z</time></trkpt><trkpt lat="41.1197142797655" lon="14.250664586581781"><ele>47.0</ele><time>2026-05-02T12:11:31Z</time></trkpt><trkpt lat="41.11978891073185" lon="14.25067359108164"><ele>47.0</ele><time>2026-05-02T12:11:32Z</time></trkpt><trkpt lat="41.119875032761264" lon="14.250684522807301"><ele>47.0</ele><time>2026-05-02T12:11:33Z</time></trkpt><trkpt lat="41.11996743878226" lon="14.250694498561222"><ele>47.0</ele><time>2026-05-02T12:11:34Z</time></trkpt><trkpt lat="41.120052362420445" lon="14.250701733303128"><ele>47.0</ele><time>2026-05-02T12:11:35Z</time></trkpt><trkpt lat="41.1201391588061" lon="14.250717971705873"><ele>47.0</ele><time>2026-05-02T12:11:36Z</time></trkpt><trkpt lat="41.120219273806455" lon="14.250721815495346"><ele>47.0</ele><time>2026-05-02T12:11:37Z</time></trkpt><trkpt lat="41.120296970948225" lon="14.250748403162296"><ele>47.0</ele><time>2026-05-02T12:11:38Z</time></trkpt><trkpt lat="41.12038269759635" lon="14.250760048147697"><ele>47.0</ele><time>2026-05-02T12:11:39Z</time></trkpt><trkpt lat="41.12046047010791" lon="14.250770612674334"><ele>47.0</ele><time>2026-05-02T12:11:40Z</time></trkpt><trkpt lat="41.12053754377544" lon="14.25076056106091"><ele>47.0</ele><time>2026-05-02T12:11:41Z</time></trkpt><trkpt lat="41.12061709884244" lon="14.250782160740481"><ele>47.0</ele><time>2026-05-02T12:11:42Z</time></trkpt><trkpt lat="41.12068250028784" lon="14.25079827862009"><ele>47.0</ele><time>2026-05-02T12:11:43Z</time></trkpt><trkpt lat="41.12075607223335" lon="14.250814688738778"><ele>47.0</ele><time>2026-05-02T12:11:44Z</time></trkpt><trkpt lat="41.12082636980829" lon="14.250826847208758"><ele>47.0</ele><time>2026-05-02T12:11:45Z</time></trkpt><trkpt lat="41.12092872655522" lon="14.250840673531817"><ele>47.0</ele><time>2026-05-02T12:11:46Z</time></trkpt><trkpt lat="41.1210275401192" lon="14.25085370009476"><ele>47.0</ele><time>2026-05-02T12:11:47Z</time></trkpt><trkpt lat="41.12111670691062" lon="14.250873722800275"><ele>47.0</ele><time>2026-05-02T12:11:48Z</time></trkpt><trkpt lat="41.12120646782601" lon="14.250890416086607"><ele>47.0</ele><time>2026-05-02T12:11:49Z</time></trkpt><trkpt lat="41.1212998317097" lon="14.250905183792915"><ele>47.0</ele><time>2026-05-02T12:11:50Z</time></trkpt><trkpt lat="41.121383342178675" lon="14.250912058715759"><ele>47.0</ele><time>2026-05-02T12:11:51Z</time></trkpt><trkpt lat="41.121454844811375" lon="14.25091234569329"><ele>47.0</ele><time>2026-05-02T12:11:52Z</time></trkpt><trkpt lat="41.12152853881181" lon="14.250908877050387"><ele>47.0</ele><time>2026-05-02T12:11:53Z</time></trkpt><trkpt lat="41.12161980119399" lon="14.250922350268842"><ele>47.0</ele><time>2026-05-02T12:11:54Z</time></trkpt><trkpt lat="41.12169854825788" lon="14.250931721203235"><ele>47.2</ele><time>2026-05-02T12:11:55Z</time></trkpt><trkpt lat="41.121797865382135" lon="14.2509489470969"><ele>47.400000000000006</ele><time>2026-05-02T12:11:56Z</time></trkpt><trkpt lat="41.1218968496193" lon="14.250956642600677"><ele>47.599999999999994</ele><time>2026-05-02T12:11:57Z</time></trkpt><trkpt lat="41.12200422701959" lon="14.25097172836275"><ele>47.8</ele><time>2026-05-02T12:11:58Z</time></trkpt><trkpt lat="41.1220980889356" lon="14.25098673367386"><ele>48.0</ele><time>2026-05-02T12:11:59Z</time></trkpt><trkpt lat="41.122199456166555" lon="14.251006425945908"><ele>47.99999999999999</ele><time>2026-05-02T12:12:00Z</time></trkpt><trkpt lat="41.12228208591144" lon="14.251022337696952"><ele>48.0</ele><time>2026-05-02T12:12:01Z</time></trkpt><trkpt lat="41.122349971707315" lon="14.251026700230332"><ele>48.0</ele><time>2026-05-02T12:12:02.001Z</time></trkpt><trkpt lat="41.12242247324626" lon="14.251037392342749"><ele>48.0</ele><time>2026-05-02T12:12:03.001Z</time></trkpt><trkpt lat="41.122493187905796" lon="14.251044843381646"><ele>48.0</ele><time>2026-05-02T12:12:04.001Z</time></trkpt><trkpt lat="41.12256430717023" lon="14.251060518597635"><ele>47.99999999999999</ele><time>2026-05-02T12:12:05.001Z</time></trkpt><trkpt lat="41.12263320956645" lon="14.251074845909953"><ele>48.0</ele><time>2026-05-02T12:12:06.001Z</time></trkpt><trkpt lat="41.12270865097087" lon="14.251084273764919"><ele>48.0</ele><time>2026-05-02T12:12:07.001Z</time></trkpt><trkpt lat="41.122789114319666" lon="14.25108746982133"><ele>48.0</ele><time>2026-05-02T12:12:08.001Z</time></trkpt><trkpt lat="41.12288084665532" lon="14.251102606636433"><ele>48.0</ele><time>2026-05-02T12:12:09.001Z</time></trkpt><trkpt lat="41.12296972571084" lon="14.251108095516857"><ele>48.0</ele><time>2026-05-02T12:12:10.001Z</time></trkpt><trkpt lat="41.123056610515704" lon="14.25111972141735"><ele>48.0</ele><time>2026-05-02T12:12:11.001Z</time></trkpt><trkpt lat="41.12314435171167" lon="14.25112734871522"><ele>48.0</ele><time>2026-05-02T12:12:12.001Z</time></trkpt><trkpt lat="41.12326112791922" lon="14.251136146710456"><ele>48.2</ele><time>2026-05-02T12:12:13.001Z</time></trkpt><trkpt lat="41.12334307399816" lon="14.251147339090878"><ele>48.4</ele><time>2026-05-02T12:12:14.001Z</time></trkpt><trkpt lat="41.12344813458043" lon="14.251170233173896"><ele>48.6</ele><time>2026-05-02T12:12:15.001Z</time></trkpt><trkpt lat="41.123535695282655" lon="14.251185031869449"><ele>48.800000000000004</ele><time>2026-05-02T12:12:16.001Z</time></trkpt><trkpt lat="41.12364035611689" lon="14.251185268797094"><ele>49.0</ele><time>2026-05-02T12:12:17.001Z</time></trkpt><trkpt lat="41.12372822765554" lon="14.251206102504543"><ele>49.0</ele><time>2026-05-02T12:12:18.001Z</time></trkpt><trkpt lat="41.12379622986859" lon="14.251201382393019"><ele>49.0</ele><time>2026-05-02T12:12:19.001Z</time></trkpt><trkpt lat="41.1238811205122" lon="14.251238075198847"><ele>49.0</ele><time>2026-05-02T12:12:20.001Z</time></trkpt><trkpt lat="41.12398526246565" lon="14.251243401233706"><ele>49.0</ele><time>2026-05-02T12:12:21.001Z</time></trkpt><trkpt lat="41.124095220932" lon="14.251249821306233"><ele>49.0</ele><time>2026-05-02T12:12:22.001Z</time></trkpt><trkpt lat="41.12419323889016" lon="14.251273673743004"><ele>48.800000000000004</ele><time>2026-05-02T12:12:23.001Z</time></trkpt><trkpt lat="41.1242949941068" lon="14.251278099916215"><ele>48.6</ele><time>2026-05-02T12:12:24.001Z</time></trkpt><trkpt lat="41.12439619884118" lon="14.251284287595308"><ele>48.4</ele><time>2026-05-02T12:12:25.001Z</time></trkpt><trkpt lat="41.12450831096994" lon="14.251294684241376"><ele>48.2</ele><time>2026-05-02T12:12:26.001Z</time></trkpt><trkpt lat="41.124621260362034" lon="14.251308996970977"><ele>48.0</ele><time>2026-05-02T12:12:27.001Z</time></trkpt><trkpt lat="41.12474591676514" lon="14.251318115279021"><ele>48.0</ele><time>2026-05-02T12:12:28.001Z</time></trkpt><trkpt lat="41.12487238902109" lon="14.251327470251171"><ele>48.0</ele><time>2026-05-02T12:12:29.001Z</time></trkpt><trkpt lat="41.125006432247396" lon="14.251372106397914"><ele>48.0</ele><time>2026-05-02T12:12:30.001Z</time></trkpt><trkpt lat="41.12511770875302" lon="14.251406529959585"><ele>48.0</ele><time>2026-05-02T12:12:31.001Z</time></trkpt><trkpt lat="41.12522781930539" lon="14.251451330499954"><ele>48.5</ele><time>2026-05-02T12:12:32.001Z</time></trkpt><trkpt lat="41.12533512059148" lon="14.251509822238251"><ele>49.0</ele><time>2026-05-02T12:12:33Z</time></trkpt><trkpt lat="41.12544620129911" lon="14.251566971609822"><ele>49.5</ele><time>2026-05-02T12:12:34Z</time></trkpt><trkpt lat="41.125569709518984" lon="14.251626397794725"><ele>50.0</ele><time>2026-05-02T12:12:35Z</time></trkpt><trkpt lat="41.125705421011084" lon="14.25169366802534"><ele>49.75</ele><time>2026-05-02T12:12:36Z</time></trkpt><trkpt lat="41.12582638003145" lon="14.251756652439822"><ele>49.5</ele><time>2026-05-02T12:12:37Z</time></trkpt><trkpt lat="41.12594749914258" lon="14.251816276800424"><ele>49.25</ele><time>2026-05-02T12:12:38Z</time></trkpt><trkpt lat="41.12609826252532" lon="14.251880908040967"><ele>49.0</ele><time>2026-05-02T12:12:39Z</time></trkpt><trkpt lat="41.12622865342063" lon="14.251955472194298"><ele>49.0</ele><time>2026-05-02T12:12:40Z</time></trkpt><trkpt lat="41.12634146973868" lon="14.252040917287932"><ele>49.0</ele><time>2026-05-02T12:12:41Z</time></trkpt><trkpt lat="41.126467033102216" lon="14.252126236672485"><ele>49.0</ele><time>2026-05-02T12:12:42Z</time></trkpt><trkpt lat="41.126581077492844" lon="14.25222443311016"><ele>49.0</ele><time>2026-05-02T12:12:43Z</time></trkpt><trkpt lat="41.1266986288686" lon="14.252339621323332"><ele>48.33333333333333</ele><time>2026-05-02T12:12:44Z</time></trkpt><trkpt lat="41.12681925886586" lon="14.252454699194029"><ele>47.666666666666664</ele><time>2026-05-02T12:12:45Z</time></trkpt><trkpt lat="41.12694232572875" lon="14.25259807235825"><ele>47.0</ele><time>2026-05-02T12:12:46Z</time></trkpt><trkpt lat="41.12709958405839" lon="14.252733284864682"><ele>47.0</ele><time>2026-05-02T12:12:47Z</time></trkpt><trkpt lat="41.12725261499699" lon="14.25291884304286"><ele>47.0</ele><time>2026-05-02T12:12:48Z</time></trkpt><trkpt lat="41.12740459810977" lon="14.253116800686696"><ele>47.0</ele><time>2026-05-02T12:12:49Z</time></trkpt><trkpt lat="41.12753532148978" lon="14.253304683675031"><ele>46.0</ele><time>2026-05-02T12:12:50Z</time></trkpt><trkpt lat="41.127634760021884" lon="14.253444306013046"><ele>45.0</ele><time>2026-05-02T12:12:51Z</time></trkpt><trkpt lat="41.12772893617047" lon="14.2535791368537"><ele>44.0</ele><time>2026-05-02T12:12:52Z</time></trkpt><trkpt lat="41.1278253642727" lon="14.253717527406874"><ele>43.0</ele><time>2026-05-02T12:12:53Z</time></trkpt><trkpt lat="41.12794643053976" lon="14.253871948029655"><ele>42.66666666666667</ele><time>2026-05-02T12:12:54Z</time></trkpt><trkpt lat="41.128048167794844" lon="14.254029977643656"><ele>42.333333333333336</ele><time>2026-05-02T12:12:55Z</time></trkpt><trkpt lat="41.12814226417252" lon="14.254187674240388"><ele>42.0</ele><time>2026-05-02T12:12:56Z</time></trkpt><trkpt lat="41.128234998330846" lon="14.254348791898957"><ele>42.0</ele><time>2026-05-02T12:12:57Z</time></trkpt><trkpt lat="41.12833715215126" lon="14.254503849615748"><ele>42.0</ele><time>2026-05-02T12:12:58Z</time></trkpt><trkpt lat="41.12843727447599" lon="14.254671061796138"><ele>42.0</ele><time>2026-05-02T12:12:59Z</time></trkpt><trkpt lat="41.12852505597721" lon="14.254846322589337"><ele>42.333333333333336</ele><time>2026-05-02T12:13:00Z</time></trkpt><trkpt lat="41.12861961194387" lon="14.255026443078602"><ele>42.66666666666667</ele><time>2026-05-02T12:13:01Z</time></trkpt><trkpt lat="41.12869849991578" lon="14.25520035468295"><ele>43.0</ele><time>2026-05-02T12:13:02Z</time></trkpt><trkpt lat="41.128783592680996" lon="14.255381439467945"><ele>43.0</ele><time>2026-05-02T12:13:03Z</time></trkpt><trkpt lat="41.128857189412436" lon="14.255560025041653"><ele>43.0</ele><time>2026-05-02T12:13:04Z</time></trkpt><trkpt lat="41.1289360586296" lon="14.255740583319591"><ele>43.0</ele><time>2026-05-02T12:13:05Z</time></trkpt><trkpt lat="41.129009997915354" lon="14.25593177787295"><ele>42.0</ele><time>2026-05-02T12:13:06Z</time></trkpt><trkpt lat="41.1290734517527" lon="14.256136177666713"><ele>41.0</ele><time>2026-05-02T12:13:07Z</time></trkpt><trkpt lat="41.12912863247103" lon="14.256327985069863"><ele>40.0</ele><time>2026-05-02T12:13:08Z</time></trkpt><trkpt lat="41.12917904329887" lon="14.256517989241491"><ele>39.66666666666667</ele><time>2026-05-02T12:13:09Z</time></trkpt><trkpt lat="41.129221850354945" lon="14.256732367308572"><ele>39.333333333333336</ele><time>2026-05-02T12:13:10Z</time></trkpt><trkpt lat="41.129267759476605" lon="14.25695923377721"><ele>39.0</ele><time>2026-05-02T12:13:11Z</time></trkpt><trkpt lat="41.12932342498616" lon="14.257194699299077"><ele>39.0</ele><time>2026-05-02T12:13:12Z</time></trkpt><trkpt lat="41.12937453982222" lon="14.257449155554106"><ele>39.0</ele><time>2026-05-02T12:13:13Z</time></trkpt><trkpt lat="41.129420064200694" lon="14.25769818158901"><ele>39.0</ele><time>2026-05-02T12:13:14Z</time></trkpt><trkpt lat="41.129460738873064" lon="14.257934384217247"><ele>38.666666666666664</ele><time>2026-05-02T12:13:15Z</time></trkpt><trkpt lat="41.12949931707363" lon="14.258149878349752"><ele>38.33333333333333</ele><time>2026-05-02T12:13:16Z</time></trkpt><trkpt lat="41.12953255873936" lon="14.258355985594347"><ele>38.0</ele><time>2026-05-02T12:13:17Z</time></trkpt><trkpt lat="41.12957216589293" lon="14.25855334423618"><ele>38.0</ele><time>2026-05-02T12:13:18Z</time></trkpt><trkpt lat="41.129598238158174" lon="14.258737593519964"><ele>38.0</ele><time>2026-05-02T12:13:19Z</time></trkpt><trkpt lat="41.12963270948277" lon="14.258908985855088"><ele>38.0</ele><time>2026-05-02T12:13:20Z</time></trkpt><trkpt lat="41.129661167983315" lon="14.259064818798436"><ele>38.0</ele><time>2026-05-02T12:13:21Z</time></trkpt><trkpt lat="41.12968469075052" lon="14.259190941450877"><ele>38.0</ele><time>2026-05-02T12:13:22Z</time></trkpt><trkpt lat="41.129704496946104" lon="14.259317591064185"><ele>38.0</ele><time>2026-05-02T12:13:23Z</time></trkpt><trkpt lat="41.12972855879785" lon="14.259443892395128"><ele>38.0</ele><time>2026-05-02T12:13:24Z</time></trkpt><trkpt lat="41.12975148324799" lon="14.259558089998306"><ele>38.0</ele><time>2026-05-02T12:13:25Z</time></trkpt><trkpt lat="41.129777117329056" lon="14.259665812734296"><ele>38.0</ele><time>2026-05-02T12:13:26Z</time></trkpt><trkpt lat="41.129776112209974" lon="14.259783983922881"><ele>38.4</ele><time>2026-05-02T12:13:27Z</time></trkpt><trkpt lat="41.12980501880013" lon="14.259898778045585"><ele>38.8</ele><time>2026-05-02T12:13:28Z</time></trkpt><trkpt lat="41.12980014690252" lon="14.260022567503851"><ele>39.2</ele><time>2026-05-02T12:13:29Z</time></trkpt><trkpt lat="41.129810681163065" lon="14.260152883571868"><ele>39.6</ele><time>2026-05-02T12:13:30Z</time></trkpt><trkpt lat="41.12982278804822" lon="14.260305711155638"><ele>40.0</ele><time>2026-05-02T12:13:31Z</time></trkpt><trkpt lat="41.12983470479333" lon="14.260462825084337"><ele>40.75</ele><time>2026-05-02T12:13:32Z</time></trkpt><trkpt lat="41.129861742820786" lon="14.260635359095827"><ele>41.5</ele><time>2026-05-02T12:13:33Z</time></trkpt><trkpt lat="41.129856877029866" lon="14.260822611594664"><ele>42.25</ele><time>2026-05-02T12:13:34Z</time></trkpt><trkpt lat="41.12986497369868" lon="14.26101369490191"><ele>43.0</ele><time>2026-05-02T12:13:35Z</time></trkpt><trkpt lat="41.12988143170357" lon="14.261220315249888"><ele>40.0</ele><time>2026-05-02T12:13:36Z</time></trkpt><trkpt lat="41.12989986049352" lon="14.261426887812684"><ele>37.0</ele><time>2026-05-02T12:13:37Z</time></trkpt><trkpt lat="41.12991465971647" lon="14.261634886710397"><ele>34.0</ele><time>2026-05-02T12:13:38Z</time></trkpt><trkpt lat="41.12992658607472" lon="14.26184649070503"><ele>33.75</ele><time>2026-05-02T12:13:39Z</time></trkpt><trkpt lat="41.12995119827537" lon="14.262032910445276"><ele>33.5</ele><time>2026-05-02T12:13:40Z</time></trkpt><trkpt lat="41.129995461936524" lon="14.26221563232517"><ele>33.25</ele><time>2026-05-02T12:13:41Z</time></trkpt><trkpt lat="41.13006161124485" lon="14.262384737508903"><ele>33.0</ele><time>2026-05-02T12:13:42Z</time></trkpt><trkpt lat="41.130139444531" lon="14.262548520267263"><ele>33.0</ele><time>2026-05-02T12:13:43Z</time></trkpt><trkpt lat="41.13022515051681" lon="14.262719075635058"><ele>33.0</ele><time>2026-05-02T12:13:44Z</time></trkpt><trkpt lat="41.13030994674325" lon="14.262877140362464"><ele>33.0</ele><time>2026-05-02T12:13:45.001Z</time></trkpt><trkpt lat="41.13040004430695" lon="14.26304747183152"><ele>33.0</ele><time>2026-05-02T12:13:46.001Z</time></trkpt><trkpt lat="41.13049207811738" lon="14.263214474060987"><ele>33.0</ele><time>2026-05-02T12:13:47.001Z</time></trkpt><trkpt lat="41.1305676197482" lon="14.263372952919733"><ele>33.0</ele><time>2026-05-02T12:13:48.001Z</time></trkpt><trkpt lat="41.130643813232744" lon="14.263512222502381"><ele>33.0</ele><time>2026-05-02T12:13:49.001Z</time></trkpt><trkpt lat="41.13071532137812" lon="14.263665228713537"><ele>31.75</ele><time>2026-05-02T12:13:50.001Z</time></trkpt><trkpt lat="41.13077782151578" lon="14.263821723154292"><ele>30.5</ele><time>2026-05-02T12:13:51.001Z</time></trkpt><trkpt lat="41.1308262152046" lon="14.264008005101608"><ele>29.25</ele><time>2026-05-02T12:13:52.001Z</time></trkpt><trkpt lat="41.13086018221105" lon="14.264207885310057"><ele>28.0</ele><time>2026-05-02T12:13:53.001Z</time></trkpt><trkpt lat="41.13087668180138" lon="14.26442292243169"><ele>28.0</ele><time>2026-05-02T12:13:54.001Z</time></trkpt><trkpt lat="41.13088569727589" lon="14.264665448200596"><ele>28.0</ele><time>2026-05-02T12:13:55.001Z</time></trkpt><trkpt lat="41.130887853703335" lon="14.264924599378531"><ele>28.0</ele><time>2026-05-02T12:13:56.001Z</time></trkpt><trkpt lat="41.1308805093459" lon="14.265192048925872"><ele>28.666666666666668</ele><time>2026-05-02T12:13:57.001Z</time></trkpt><trkpt lat="41.13086651664574" lon="14.265465341936167"><ele>29.333333333333336</ele><time>2026-05-02T12:13:58.001Z</time></trkpt><trkpt lat="41.13085608994491" lon="14.265738181894564"><ele>30.0</ele><time>2026-05-02T12:13:59.001Z</time></trkpt><trkpt lat="41.13085180491695" lon="14.266002721807501"><ele>30.333333333333336</ele><time>2026-05-02T12:14:00.001Z</time></trkpt><trkpt lat="41.130854297201026" lon="14.266271045227077"><ele>30.666666666666668</ele><time>2026-05-02T12:14:01.001Z</time></trkpt><trkpt lat="41.13086933314903" lon="14.266531106480771"><ele>31.0</ele><time>2026-05-02T12:14:02.001Z</time></trkpt><trkpt lat="41.130892051301615" lon="14.266780542023756"><ele>31.0</ele><time>2026-05-02T12:14:03.001Z</time></trkpt><trkpt lat="41.130922078328936" lon="14.26703016850437"><ele>31.0</ele><time>2026-05-02T12:14:04.001Z</time></trkpt><trkpt lat="41.13095180730082" lon="14.26727363906516"><ele>31.0</ele><time>2026-05-02T12:14:05.001Z</time></trkpt><trkpt lat="41.13098143944411" lon="14.267511232056123"><ele>31.0</ele><time>2026-05-02T12:14:06.001Z</time></trkpt><trkpt lat="41.131012659698996" lon="14.267741300031371"><ele>31.0</ele><time>2026-05-02T12:14:07.001Z</time></trkpt><trkpt lat="41.131040972243724" lon="14.267966872546847"><ele>31.0</ele><time>2026-05-02T12:14:08.001Z</time></trkpt><trkpt lat="41.131067038116974" lon="14.268191080266824"><ele>32.0</ele><time>2026-05-02T12:14:09.001Z</time></trkpt><trkpt lat="41.131091138728884" lon="14.26840337807598"><ele>33.0</ele><time>2026-05-02T12:14:10.001Z</time></trkpt><trkpt lat="41.13111499724579" lon="14.268591532882443"><ele>34.0</ele><time>2026-05-02T12:14:11.001Z</time></trkpt><trkpt lat="41.1311381818599" lon="14.268743836065978"><ele>35.0</ele><time>2026-05-02T12:14:12.001Z</time></trkpt><trkpt lat="41.131155811558166" lon="14.268866471673853"><ele>35.83333333333333</ele><time>2026-05-02T12:14:13.001Z</time></trkpt><trkpt lat="41.13117007302364" lon="14.268954148036586"><ele>36.666666666666664</ele><time>2026-05-02T12:14:14.001Z</time></trkpt><trkpt lat="41.131238691061476" lon="14.269045828487457"><ele>37.5</ele><time>2026-05-02T12:14:16.001Z</time></trkpt><trkpt lat="41.13117931833088" lon="14.269122204589126"><ele>38.333333333333336</ele><time>2026-05-02T12:14:19.001Z</time></trkpt><trkpt lat="41.13127803064176" lon="14.269122655548053"><ele>39.16666666666667</ele><time>2026-05-02T12:14:21.001Z</time></trkpt><trkpt lat="41.131181335861726" lon="14.269138751022503"><ele>40.0</ele><time>2026-05-02T12:14:25.001Z</time></trkpt><trkpt lat="41.13127576299881" lon="14.26916217981841"><ele>40.0</ele><time>2026-05-02T12:14:38.001Z</time></trkpt><trkpt lat="41.13118949204629" lon="14.26920564286118"><ele>40.0</ele><time>2026-05-02T12:15:18Z</time></trkpt><trkpt lat="41.13126094411658" lon="14.269196186697659"><ele>40.0</ele><time>2026-05-02T12:16:07.001Z</time></trkpt><trkpt lat="41.13118364782374" lon="14.269240895997065"><ele>40.0</ele><time>2026-05-02T12:16:09.001Z</time></trkpt><trkpt lat="41.13126784939296" lon="14.269181009518057"><ele>40.0</ele><time>2026-05-02T12:16:22.001Z</time></trkpt><trkpt lat="41.1311934978456" lon="14.269243270488609"><ele>40.0</ele><time>2026-05-02T12:17:16Z</time></trkpt><trkpt lat="41.1312817538956" lon="14.269231257654486"><ele>40.0</ele><time>2026-05-02T12:17:18Z</time></trkpt><trkpt lat="41.131194137903904" lon="14.269248649834152"><ele>40.0</ele><time>2026-05-02T12:17:23Z</time></trkpt><trkpt lat="41.131214663700696" lon="14.269417154101085"><ele>40.0</ele><time>2026-05-02T12:19:25Z</time></trkpt><trkpt lat="41.13124350161101" lon="14.269575700028568"><ele>40.0</ele><time>2026-05-02T12:19:27Z</time></trkpt><trkpt lat="41.131244636902586" lon="14.26967289272848"><ele>40.0</ele><time>2026-05-02T12:19:28Z</time></trkpt><trkpt lat="41.13127074944253" lon="14.269830510974517"><ele>40.0</ele><time>2026-05-02T12:19:30Z</time></trkpt><trkpt lat="41.13128946328765" lon="14.269928955892736"><ele>40.0</ele><time>2026-05-02T12:19:31Z</time></trkpt><trkpt lat="41.131302267358706" lon="14.270036607079014"><ele>40.0</ele><time>2026-05-02T12:19:32Z</time></trkpt><trkpt lat="41.1313129254943" lon="14.27014595895884"><ele>40.0</ele><time>2026-05-02T12:19:33Z</time></trkpt><trkpt lat="41.131327754726954" lon="14.270267528624055"><ele>40.0</ele><time>2026-05-02T12:19:34Z</time></trkpt><trkpt lat="41.1313433524002" lon="14.27039264947165"><ele>40.0</ele><time>2026-05-02T12:19:35Z</time></trkpt><trkpt lat="41.13135577453898" lon="14.27053259277659"><ele>40.4</ele><time>2026-05-02T12:19:36Z</time></trkpt><trkpt lat="41.13137550430738" lon="14.27066517093957"><ele>40.8</ele><time>2026-05-02T12:19:37Z</time></trkpt><trkpt lat="41.13139873137971" lon="14.270796043800646"><ele>41.2</ele><time>2026-05-02T12:19:38Z</time></trkpt><trkpt lat="41.13140494267459" lon="14.270926568078323"><ele>41.6</ele><time>2026-05-02T12:19:39Z</time></trkpt><trkpt lat="41.13142537513546" lon="14.27105224123836"><ele>42.0</ele><time>2026-05-02T12:19:40Z</time></trkpt><trkpt lat="41.13145074630138" lon="14.271178285462922"><ele>42.0</ele><time>2026-05-02T12:19:41Z</time></trkpt><trkpt lat="41.1314556035295" lon="14.271310257797536"><ele>42.0</ele><time>2026-05-02T12:19:42Z</time></trkpt><trkpt lat="41.131484179513194" lon="14.271433888800024"><ele>42.0</ele><time>2026-05-02T12:19:43Z</time></trkpt><trkpt lat="41.13151042264376" lon="14.271557533859692"><ele>42.0</ele><time>2026-05-02T12:19:44Z</time></trkpt><trkpt lat="41.13153904339987" lon="14.271693628944409"><ele>42.0</ele><time>2026-05-02T12:19:45Z</time></trkpt><trkpt lat="41.13157909873685" lon="14.271838353079483"><ele>39.25</ele><time>2026-05-02T12:19:46Z</time></trkpt><trkpt lat="41.13161274859725" lon="14.271994492810213"><ele>36.5</ele><time>2026-05-02T12:19:47Z</time></trkpt><trkpt lat="41.1316482253662" lon="14.272158833708401"><ele>33.75</ele><time>2026-05-02T12:19:48Z</time></trkpt><trkpt lat="41.13167664687547" lon="14.272329230715991"><ele>31.0</ele><time>2026-05-02T12:19:49Z</time></trkpt><trkpt lat="41.13169723023667" lon="14.27250835563349"><ele>31.0</ele><time>2026-05-02T12:19:50Z</time></trkpt><trkpt lat="41.13170735631694" lon="14.272686620624492"><ele>31.0</ele><time>2026-05-02T12:19:51Z</time></trkpt><trkpt lat="41.13170648381712" lon="14.272863684157741"><ele>31.0</ele><time>2026-05-02T12:19:52.001Z</time></trkpt><trkpt lat="41.13169912231916" lon="14.27303862320115"><ele>31.0</ele><time>2026-05-02T12:19:53.001Z</time></trkpt><trkpt lat="41.131695234568824" lon="14.273209901697708"><ele>31.0</ele><time>2026-05-02T12:19:54.001Z</time></trkpt><trkpt lat="41.13169239063291" lon="14.273407234293542"><ele>31.0</ele><time>2026-05-02T12:19:55.001Z</time></trkpt><trkpt lat="41.13169433810861" lon="14.27360988128704"><ele>31.0</ele><time>2026-05-02T12:19:56.001Z</time></trkpt><trkpt lat="41.131690711992306" lon="14.273808611741144"><ele>31.0</ele><time>2026-05-02T12:19:57.001Z</time></trkpt><trkpt lat="41.131685497553406" lon="14.274002370938216"><ele>31.0</ele><time>2026-05-02T12:19:58.001Z</time></trkpt><trkpt lat="41.13167956039203" lon="14.274199272891718"><ele>31.0</ele><time>2026-05-02T12:19:59.001Z</time></trkpt><trkpt lat="41.131677743357535" lon="14.274390417026185"><ele>31.0</ele><time>2026-05-02T12:20:00.001Z</time></trkpt><trkpt lat="41.13167595486216" lon="14.274585842144917"><ele>31.0</ele><time>2026-05-02T12:20:01.001Z</time></trkpt><trkpt lat="41.1316717179226" lon="14.274771012177187"><ele>31.0</ele><time>2026-05-02T12:20:02.001Z</time></trkpt><trkpt lat="41.13166795181799" lon="14.274957713967106"><ele>31.0</ele><time>2026-05-02T12:20:03.001Z</time></trkpt><trkpt lat="41.13166422155025" lon="14.275145621421455"><ele>31.0</ele><time>2026-05-02T12:20:04.001Z</time></trkpt><trkpt lat="41.13165700036964" lon="14.2753333328623"><ele>31.0</ele><time>2026-05-02T12:20:05.001Z</time></trkpt><trkpt lat="41.13164940200068" lon="14.275522894263906"><ele>31.0</ele><time>2026-05-02T12:20:06.001Z</time></trkpt><trkpt lat="41.13164129363752" lon="14.275722486453569"><ele>31.0</ele><time>2026-05-02T12:20:07.001Z</time></trkpt><trkpt lat="41.13164650991345" lon="14.275928545233123"><ele>31.0</ele><time>2026-05-02T12:20:08.001Z</time></trkpt><trkpt lat="41.131647690033354" lon="14.276135606955386"><ele>31.0</ele><time>2026-05-02T12:20:09.001Z</time></trkpt><trkpt lat="41.13164722454" lon="14.276345074803277"><ele>31.0</ele><time>2026-05-02T12:20:10.001Z</time></trkpt><trkpt lat="41.13164836785223" lon="14.276556930375271"><ele>31.0</ele><time>2026-05-02T12:20:11.001Z</time></trkpt><trkpt lat="41.13164780081799" lon="14.27676414504656"><ele>31.0</ele><time>2026-05-02T12:20:12.001Z</time></trkpt><trkpt lat="41.131639446066174" lon="14.276974658531953"><ele>31.0</ele><time>2026-05-02T12:20:13.001Z</time></trkpt><trkpt lat="41.13161395015613" lon="14.277182447789544"><ele>31.0</ele><time>2026-05-02T12:20:14.001Z</time></trkpt><trkpt lat="41.131569353147235" lon="14.277373086926687"><ele>36.0</ele><time>2026-05-02T12:20:15.001Z</time></trkpt><trkpt lat="41.13150196588166" lon="14.277567131112729"><ele>41.0</ele><time>2026-05-02T12:20:16.001Z</time></trkpt><trkpt lat="41.13141757590947" lon="14.277745867774735"><ele>46.0</ele><time>2026-05-02T12:20:17.001Z</time></trkpt><trkpt lat="41.13132901226778" lon="14.277898570896337"><ele>46.0</ele><time>2026-05-02T12:20:18.001Z</time></trkpt><trkpt lat="41.13125381449131" lon="14.278036618841499"><ele>46.0</ele><time>2026-05-02T12:20:19.001Z</time></trkpt><trkpt lat="41.13120281055156" lon="14.278181237607885"><ele>46.0</ele><time>2026-05-02T12:20:20.001Z</time></trkpt><trkpt lat="41.13117368456372" lon="14.27831775478567"><ele>46.0</ele><time>2026-05-02T12:20:21.001Z</time></trkpt><trkpt lat="41.13117484405269" lon="14.278452497049559"><ele>45.5</ele><time>2026-05-02T12:20:22.001Z</time></trkpt><trkpt lat="41.13119368384011" lon="14.278607313502828"><ele>45.0</ele><time>2026-05-02T12:20:23.001Z</time></trkpt><trkpt lat="41.131244101660386" lon="14.278757566915141"><ele>44.5</ele><time>2026-05-02T12:20:24.001Z</time></trkpt><trkpt lat="41.13131481552669" lon="14.278889817181092"><ele>44.0</ele><time>2026-05-02T12:20:25.001Z</time></trkpt><trkpt lat="41.131390777591314" lon="14.278990447063823"><ele>43.25</ele><time>2026-05-02T12:20:26.001Z</time></trkpt><trkpt lat="41.13147590195465" lon="14.279074482774563"><ele>42.5</ele><time>2026-05-02T12:20:27.001Z</time></trkpt><trkpt lat="41.131546596764686" lon="14.279185302198076"><ele>41.75</ele><time>2026-05-02T12:20:28.001Z</time></trkpt><trkpt lat="41.13159503304597" lon="14.279345058097565"><ele>41.0</ele><time>2026-05-02T12:20:29.001Z</time></trkpt><trkpt lat="41.131610495067314" lon="14.279521225744695"><ele>38.33333333333333</ele><time>2026-05-02T12:20:30.001Z</time></trkpt><trkpt lat="41.131584375271366" lon="14.279712604462933"><ele>35.666666666666664</ele><time>2026-05-02T12:20:31.001Z</time></trkpt><trkpt lat="41.1315882753493" lon="14.279922988848451"><ele>33.0</ele><time>2026-05-02T12:20:32.001Z</time></trkpt><trkpt lat="41.13157866685725" lon="14.28014142289706"><ele>33.0</ele><time>2026-05-02T12:20:33.001Z</time></trkpt><trkpt lat="41.13156335867289" lon="14.28037699622993"><ele>33.0</ele><time>2026-05-02T12:20:34.001Z</time></trkpt><trkpt lat="41.131559101029794" lon="14.280603494972334"><ele>33.0</ele><time>2026-05-02T12:20:35.001Z</time></trkpt><trkpt lat="41.131554332832955" lon="14.28083554249565"><ele>34.666666666666664</ele><time>2026-05-02T12:20:36.001Z</time></trkpt><trkpt lat="41.13155285446738" lon="14.281061823654424"><ele>36.33333333333333</ele><time>2026-05-02T12:20:37.001Z</time></trkpt><trkpt lat="41.131549497249864" lon="14.28129487645878"><ele>38.0</ele><time>2026-05-02T12:20:38.001Z</time></trkpt><trkpt lat="41.131548867211194" lon="14.281520940672474"><ele>38.0</ele><time>2026-05-02T12:20:39.001Z</time></trkpt><trkpt lat="41.13154433914462" lon="14.281752197753821"><ele>38.0</ele><time>2026-05-02T12:20:40.001Z</time></trkpt><trkpt lat="41.13153875931912" lon="14.281979510226668"><ele>38.0</ele><time>2026-05-02T12:20:41.001Z</time></trkpt><trkpt lat="41.13152528981513" lon="14.282208782798433"><ele>38.33333333333333</ele><time>2026-05-02T12:20:42.001Z</time></trkpt><trkpt lat="41.13149499331154" lon="14.282441539650334"><ele>38.666666666666664</ele><time>2026-05-02T12:20:43.001Z</time></trkpt><trkpt lat="41.1314595477871" lon="14.282662171752902"><ele>39.0</ele><time>2026-05-02T12:20:44.001Z</time></trkpt><trkpt lat="41.1314103687054" lon="14.282883199958151"><ele>38.666666666666664</ele><time>2026-05-02T12:20:45.001Z</time></trkpt><trkpt lat="41.131355480014825" lon="14.283107701628598"><ele>38.33333333333333</ele><time>2026-05-02T12:20:46.001Z</time></trkpt><trkpt lat="41.13128761848345" lon="14.283322220217942"><ele>38.0</ele><time>2026-05-02T12:20:47.001Z</time></trkpt><trkpt lat="41.13120528549296" lon="14.283546074730769"><ele>38.0</ele><time>2026-05-02T12:20:48.001Z</time></trkpt><trkpt lat="41.13112367113711" lon="14.283773533879247"><ele>38.0</ele><time>2026-05-02T12:20:49.001Z</time></trkpt><trkpt lat="41.13103714451915" lon="14.283994615343634"><ele>38.0</ele><time>2026-05-02T12:20:50.001Z</time></trkpt><trkpt lat="41.13094994930815" lon="14.284219667637847"><ele>38.0</ele><time>2026-05-02T12:20:51.001Z</time></trkpt><trkpt lat="41.13086581704548" lon="14.28445237561667"><ele>38.0</ele><time>2026-05-02T12:20:52.001Z</time></trkpt><trkpt lat="41.130778627322606" lon="14.284685734780828"><ele>38.0</ele><time>2026-05-02T12:20:53.001Z</time></trkpt><trkpt lat="41.13069560121807" lon="14.284915019910084"><ele>44.33333333333333</ele><time>2026-05-02T12:20:54.001Z</time></trkpt><trkpt lat="41.13061633702731" lon="14.28513607717194"><ele>50.666666666666664</ele><time>2026-05-02T12:20:55.001Z</time></trkpt><trkpt lat="41.13052985116488" lon="14.285363335443302"><ele>57.0</ele><time>2026-05-02T12:20:56.001Z</time></trkpt><trkpt lat="41.13043867611018" lon="14.285593017255419"><ele>53.666666666666664</ele><time>2026-05-02T12:20:57Z</time></trkpt><trkpt lat="41.13034571451231" lon="14.285827299164392"><ele>50.33333333333333</ele><time>2026-05-02T12:20:58Z</time></trkpt><trkpt lat="41.13025600579914" lon="14.286061949858269"><ele>47.0</ele><time>2026-05-02T12:20:59Z</time></trkpt><trkpt lat="41.13016260550523" lon="14.286308030184735"><ele>45.33333333333333</ele><time>2026-05-02T12:21:00Z</time></trkpt><trkpt lat="41.13007337370277" lon="14.286550436382605"><ele>43.666666666666664</ele><time>2026-05-02T12:21:01Z</time></trkpt><trkpt lat="41.129982992431735" lon="14.286802093045747"><ele>42.0</ele><time>2026-05-02T12:21:02Z</time></trkpt><trkpt lat="41.12989667419822" lon="14.28705010614896"><ele>43.333333333333336</ele><time>2026-05-02T12:21:03Z</time></trkpt><trkpt lat="41.12980728909578" lon="14.287296101580093"><ele>44.66666666666667</ele><time>2026-05-02T12:21:04Z</time></trkpt><trkpt lat="41.12971227239118" lon="14.287537241919091"><ele>46.0</ele><time>2026-05-02T12:21:05Z</time></trkpt><trkpt lat="41.12962160494662" lon="14.287781434148316"><ele>46.0</ele><time>2026-05-02T12:21:06Z</time></trkpt><trkpt lat="41.129530936595444" lon="14.288028713167334"><ele>46.0</ele><time>2026-05-02T12:21:07Z</time></trkpt><trkpt lat="41.1294335015043" lon="14.288284667014764"><ele>46.0</ele><time>2026-05-02T12:21:08Z</time></trkpt><trkpt lat="41.1293417443169" lon="14.288532387323153"><ele>45.333333333333336</ele><time>2026-05-02T12:21:09Z</time></trkpt><trkpt lat="41.129238907854514" lon="14.288788143553608"><ele>44.666666666666664</ele><time>2026-05-02T12:21:10Z</time></trkpt><trkpt lat="41.129141313620295" lon="14.289042705247049"><ele>44.0</ele><time>2026-05-02T12:21:11Z</time></trkpt><trkpt lat="41.129040103778976" lon="14.289296801357239"><ele>43.0</ele><time>2026-05-02T12:21:12Z</time></trkpt><trkpt lat="41.128942086550424" lon="14.28956046293471"><ele>42.0</ele><time>2026-05-02T12:21:13Z</time></trkpt><trkpt lat="41.128848621087194" lon="14.289836862287029"><ele>41.666666666666664</ele><time>2026-05-02T12:21:14Z</time></trkpt><trkpt lat="41.128754572041" lon="14.29009828318728"><ele>41.33333333333333</ele><time>2026-05-02T12:21:15Z</time></trkpt><trkpt lat="41.12866044676071" lon="14.290354455944398"><ele>41.0</ele><time>2026-05-02T12:21:16Z</time></trkpt><trkpt lat="41.128569594460295" lon="14.290604016371672"><ele>41.0</ele><time>2026-05-02T12:21:17Z</time></trkpt><trkpt lat="41.128467383344166" lon="14.290856463386886"><ele>41.0</ele><time>2026-05-02T12:21:18Z</time></trkpt><trkpt lat="41.12836705116523" lon="14.291095459705211"><ele>41.0</ele><time>2026-05-02T12:21:19Z</time></trkpt><trkpt lat="41.128283429905196" lon="14.291305075673415"><ele>42.666666666666664</ele><time>2026-05-02T12:21:20Z</time></trkpt><trkpt lat="41.128203714308896" lon="14.291516939097084"><ele>44.333333333333336</ele><time>2026-05-02T12:21:21Z</time></trkpt><trkpt lat="41.12813329417066" lon="14.291710686529681"><ele>46.0</ele><time>2026-05-02T12:21:22Z</time></trkpt><trkpt lat="41.12806240882216" lon="14.291896400038876"><ele>46.0</ele><time>2026-05-02T12:21:23Z</time></trkpt><trkpt lat="41.128003011628515" lon="14.292068531270514"><ele>46.0</ele><time>2026-05-02T12:21:24Z</time></trkpt><trkpt lat="41.12794425914939" lon="14.292231269885503"><ele>46.0</ele><time>2026-05-02T12:21:25Z</time></trkpt><trkpt lat="41.1278826807594" lon="14.29237650046915"><ele>46.0</ele><time>2026-05-02T12:21:26Z</time></trkpt><trkpt lat="41.12782418209574" lon="14.292491094501411"><ele>46.0</ele><time>2026-05-02T12:21:27Z</time></trkpt><trkpt lat="41.12776327931687" lon="14.292583510097915"><ele>46.0</ele><time>2026-05-02T12:21:28Z</time></trkpt><trkpt lat="41.12770822716349" lon="14.292645212583452"><ele>46.0</ele><time>2026-05-02T12:21:29Z</time></trkpt><trkpt lat="41.127665505051766" lon="14.29271204943249"><ele>46.0</ele><time>2026-05-02T12:21:30Z</time></trkpt><trkpt lat="41.12761241889088" lon="14.292875046562406"><ele>46.0</ele><time>2026-05-02T12:21:32Z</time></trkpt><trkpt lat="41.12766706490178" lon="14.292996010393408"><ele>45.75</ele><time>2026-05-02T12:21:33Z</time></trkpt><trkpt lat="41.12773765883841" lon="14.293127487456346"><ele>45.5</ele><time>2026-05-02T12:21:34Z</time></trkpt><trkpt lat="41.1278296011801" lon="14.293283274031596"><ele>45.25</ele><time>2026-05-02T12:21:35Z</time></trkpt><trkpt lat="41.12791437958976" lon="14.293449754816937"><ele>45.0</ele><time>2026-05-02T12:21:36Z</time></trkpt><trkpt lat="41.127984697498455" lon="14.29365406750803"><ele>45.0</ele><time>2026-05-02T12:21:37Z</time></trkpt><trkpt lat="41.128070350661034" lon="14.29384788390253"><ele>45.0</ele><time>2026-05-02T12:21:38Z</time></trkpt><trkpt lat="41.128159158699994" lon="14.294048867504438"><ele>45.0</ele><time>2026-05-02T12:21:39Z</time></trkpt><trkpt lat="41.12825642115034" lon="14.29426844547647"><ele>43.0</ele><time>2026-05-02T12:21:40Z</time></trkpt><trkpt lat="41.12836999842496" lon="14.294484004637384"><ele>41.0</ele><time>2026-05-02T12:21:41Z</time></trkpt><trkpt lat="41.12845857913015" lon="14.294724620231689"><ele>39.0</ele><time>2026-05-02T12:21:42Z</time></trkpt><trkpt lat="41.12856398848978" lon="14.29496257206689"><ele>38.333333333333336</ele><time>2026-05-02T12:21:43Z</time></trkpt><trkpt lat="41.12866891878794" lon="14.295199442117019"><ele>37.66666666666667</ele><time>2026-05-02T12:21:44Z</time></trkpt><trkpt lat="41.12877893579153" lon="14.295447795018498"><ele>37.0</ele><time>2026-05-02T12:21:45Z</time></trkpt><trkpt lat="41.12889254639007" lon="14.295704729424934"><ele>37.0</ele><time>2026-05-02T12:21:46Z</time></trkpt><trkpt lat="41.12900680629121" lon="14.295963963465454"><ele>37.0</ele><time>2026-05-02T12:21:47Z</time></trkpt><trkpt lat="41.12912507600841" lon="14.296232643306787"><ele>37.0</ele><time>2026-05-02T12:21:48Z</time></trkpt><trkpt lat="41.12924306791809" lon="14.296500653591828"><ele>37.0</ele><time>2026-05-02T12:21:49Z</time></trkpt><trkpt lat="41.129364773330785" lon="14.296774442427827"><ele>37.0</ele><time>2026-05-02T12:21:50Z</time></trkpt><trkpt lat="41.12948463374563" lon="14.297044080676313"><ele>37.0</ele><time>2026-05-02T12:21:51Z</time></trkpt><trkpt lat="41.12961065216041" lon="14.297329131460572"><ele>37.5</ele><time>2026-05-02T12:21:52.001Z</time></trkpt><trkpt lat="41.129747048137645" lon="14.297600809176375"><ele>38.0</ele><time>2026-05-02T12:21:53.001Z</time></trkpt><trkpt lat="41.129870946715805" lon="14.297884217381755"><ele>38.0</ele><time>2026-05-02T12:21:54.001Z</time></trkpt><trkpt lat="41.12999802043346" lon="14.298173116151155"><ele>38.0</ele><time>2026-05-02T12:21:55.001Z</time></trkpt><trkpt lat="41.13012977474858" lon="14.298460048674958"><ele>38.0</ele><time>2026-05-02T12:21:56.001Z</time></trkpt><trkpt lat="41.13025256811651" lon="14.298753866720254"><ele>38.0</ele><time>2026-05-02T12:21:57.001Z</time></trkpt><trkpt lat="41.1303779388337" lon="14.299044689033344"><ele>39.0</ele><time>2026-05-02T12:21:58.001Z</time></trkpt><trkpt lat="41.13050873813461" lon="14.299330978475998"><ele>40.0</ele><time>2026-05-02T12:21:59.001Z</time></trkpt><trkpt lat="41.130637557406786" lon="14.29962433412149"><ele>37.0</ele><time>2026-05-02T12:22:00.001Z</time></trkpt><trkpt lat="41.13076889203167" lon="14.299913888190677"><ele>34.0</ele><time>2026-05-02T12:22:01.001Z</time></trkpt><trkpt lat="41.13088820605649" lon="14.300212907796235"><ele>34.0</ele><time>2026-05-02T12:22:02.001Z</time></trkpt><trkpt lat="41.13101949120644" lon="14.300508240994022"><ele>34.0</ele><time>2026-05-02T12:22:03.001Z</time></trkpt><trkpt lat="41.131147385991895" lon="14.300798028758747"><ele>35.5</ele><time>2026-05-02T12:22:04.001Z</time></trkpt><trkpt lat="41.1312772602689" lon="14.301092743986107"><ele>37.0</ele><time>2026-05-02T12:22:05.001Z</time></trkpt><trkpt lat="41.13140538365753" lon="14.301383486064271"><ele>37.0</ele><time>2026-05-02T12:22:06.001Z</time></trkpt><trkpt lat="41.13153427228036" lon="14.301675964603639"><ele>37.0</ele><time>2026-05-02T12:22:07.001Z</time></trkpt><trkpt lat="41.13166132082343" lon="14.301964267612515"><ele>37.0</ele><time>2026-05-02T12:22:08.001Z</time></trkpt><trkpt lat="41.1317876650542" lon="14.302250972348029"><ele>37.0</ele><time>2026-05-02T12:22:09.001Z</time></trkpt><trkpt lat="41.13191331771729" lon="14.30253610774715"><ele>37.0</ele><time>2026-05-02T12:22:10.001Z</time></trkpt><trkpt lat="41.13204104346216" lon="14.302800568339697"><ele>37.0</ele><time>2026-05-02T12:22:11.001Z</time></trkpt><trkpt lat="41.13215035201305" lon="14.30309014163995"><ele>36.0</ele><time>2026-05-02T12:22:12.001Z</time></trkpt><trkpt lat="41.13224148256675" lon="14.30338468244668"><ele>35.0</ele><time>2026-05-02T12:22:13.001Z</time></trkpt><trkpt lat="41.13231576570985" lon="14.303700013508687"><ele>35.0</ele><time>2026-05-02T12:22:14.001Z</time></trkpt><trkpt lat="41.13236949188257" lon="14.30400208831796"><ele>35.0</ele><time>2026-05-02T12:22:15.001Z</time></trkpt><trkpt lat="41.132411764619505" lon="14.304306371973727"><ele>35.0</ele><time>2026-05-02T12:22:16.001Z</time></trkpt><trkpt lat="41.13244052474672" lon="14.304618866528346"><ele>35.0</ele><time>2026-05-02T12:22:17.001Z</time></trkpt><trkpt lat="41.13245520260491" lon="14.30492808651888"><ele>35.0</ele><time>2026-05-02T12:22:18.001Z</time></trkpt><trkpt lat="41.13245244657035" lon="14.305237913907476"><ele>35.0</ele><time>2026-05-02T12:22:19.001Z</time></trkpt><trkpt lat="41.132437008842395" lon="14.305542899210415"><ele>35.0</ele><time>2026-05-02T12:22:20.001Z</time></trkpt><trkpt lat="41.132406924078886" lon="14.305842232230516"><ele>35.0</ele><time>2026-05-02T12:22:21.001Z</time></trkpt><trkpt lat="41.132353114301665" lon="14.306139042807041"><ele>35.0</ele><time>2026-05-02T12:22:22.001Z</time></trkpt><trkpt lat="41.13231104151134" lon="14.306430397779922"><ele>35.0</ele><time>2026-05-02T12:22:23.001Z</time></trkpt><trkpt lat="41.13228695067186" lon="14.306724498015901"><ele>35.0</ele><time>2026-05-02T12:22:24.001Z</time></trkpt><trkpt lat="41.13227210392619" lon="14.307022044143162"><ele>35.0</ele><time>2026-05-02T12:22:25.001Z</time></trkpt><trkpt lat="41.13227327488386" lon="14.30730157919317"><ele>35.0</ele><time>2026-05-02T12:22:26.001Z</time></trkpt><trkpt lat="41.13228375020516" lon="14.307559352947033"><ele>35.0</ele><time>2026-05-02T12:22:27.001Z</time></trkpt><trkpt lat="41.132292935559065" lon="14.307803963387649"><ele>35.0</ele><time>2026-05-02T12:22:28.001Z</time></trkpt><trkpt lat="41.13229777894695" lon="14.30804041102143"><ele>35.0</ele><time>2026-05-02T12:22:29.001Z</time></trkpt><trkpt lat="41.13230595640425" lon="14.30827312869753"><ele>35.0</ele><time>2026-05-02T12:22:30.001Z</time></trkpt><trkpt lat="41.132312093899024" lon="14.308512173957107"><ele>35.33333333333333</ele><time>2026-05-02T12:22:31.001Z</time></trkpt><trkpt lat="41.13232234271375" lon="14.30873793833335"><ele>35.666666666666664</ele><time>2026-05-02T12:22:32.001Z</time></trkpt><trkpt lat="41.132326546269496" lon="14.308954674748467"><ele>36.0</ele><time>2026-05-02T12:22:33.001Z</time></trkpt><trkpt lat="41.132330275394516" lon="14.309176976776893"><ele>36.0</ele><time>2026-05-02T12:22:34.001Z</time></trkpt><trkpt lat="41.132334550521776" lon="14.30940476250071"><ele>36.0</ele><time>2026-05-02T12:22:35.001Z</time></trkpt><trkpt lat="41.13234514251835" lon="14.309643384759475"><ele>36.0</ele><time>2026-05-02T12:22:36.001Z</time></trkpt><trkpt lat="41.13236614369552" lon="14.309876681797679"><ele>35.666666666666664</ele><time>2026-05-02T12:22:37.001Z</time></trkpt><trkpt lat="41.132410970841164" lon="14.310099993798994"><ele>35.33333333333333</ele><time>2026-05-02T12:22:38.001Z</time></trkpt><trkpt lat="41.13247852474981" lon="14.31030767229276"><ele>35.0</ele><time>2026-05-02T12:22:39.001Z</time></trkpt><trkpt lat="41.13257477448449" lon="14.310516072863715"><ele>35.33333333333333</ele><time>2026-05-02T12:22:40.001Z</time></trkpt><trkpt lat="41.13270354795112" lon="14.310711041285263"><ele>35.666666666666664</ele><time>2026-05-02T12:22:41.001Z</time></trkpt><trkpt lat="41.13285665748631" lon="14.310887488532103"><ele>36.0</ele><time>2026-05-02T12:22:42.001Z</time></trkpt><trkpt lat="41.133021388828" lon="14.311061744382066"><ele>36.0</ele><time>2026-05-02T12:22:43.001Z</time></trkpt><trkpt lat="41.133191240546395" lon="14.31125609878477"><ele>36.0</ele><time>2026-05-02T12:22:44.001Z</time></trkpt><trkpt lat="41.13336487205792" lon="14.311463011763378"><ele>36.0</ele><time>2026-05-02T12:22:45.001Z</time></trkpt><trkpt lat="41.133539939901915" lon="14.311675830260429"><ele>36.0</ele><time>2026-05-02T12:22:46.001Z</time></trkpt><trkpt lat="41.13371282492409" lon="14.311888231185137"><ele>36.0</ele><time>2026-05-02T12:22:47.001Z</time></trkpt><trkpt lat="41.13389251122536" lon="14.31211193259199"><ele>36.0</ele><time>2026-05-02T12:22:48.001Z</time></trkpt><trkpt lat="41.134066916381336" lon="14.312331649191723"><ele>34.5</ele><time>2026-05-02T12:22:49.001Z</time></trkpt><trkpt lat="41.13424765363613" lon="14.312555722081642"><ele>33.0</ele><time>2026-05-02T12:22:50.001Z</time></trkpt><trkpt lat="41.134427337093975" lon="14.312776832976994"><ele>33.0</ele><time>2026-05-02T12:22:51.001Z</time></trkpt><trkpt lat="41.13460641591079" lon="14.312991838895778"><ele>33.0</ele><time>2026-05-02T12:22:52.001Z</time></trkpt><trkpt lat="41.13478074187385" lon="14.313206294693783"><ele>32.0</ele><time>2026-05-02T12:22:53.001Z</time></trkpt><trkpt lat="41.13495581302897" lon="14.313410795759635"><ele>31.0</ele><time>2026-05-02T12:22:54.001Z</time></trkpt><trkpt lat="41.13512453866802" lon="14.313615608511785"><ele>31.0</ele><time>2026-05-02T12:22:55.001Z</time></trkpt><trkpt lat="41.13528924605595" lon="14.313817988012005"><ele>31.0</ele><time>2026-05-02T12:22:56.001Z</time></trkpt><trkpt lat="41.13545298081139" lon="14.314017601068159"><ele>31.0</ele><time>2026-05-02T12:22:57.001Z</time></trkpt><trkpt lat="41.13562434483897" lon="14.314215688045213"><ele>31.0</ele><time>2026-05-02T12:22:58.001Z</time></trkpt><trkpt lat="41.135781491089205" lon="14.314406269015796"><ele>31.0</ele><time>2026-05-02T12:22:59.001Z</time></trkpt><trkpt lat="41.13593906818676" lon="14.314596746032423"><ele>31.0</ele><time>2026-05-02T12:23:00.001Z</time></trkpt><trkpt lat="41.136097632996176" lon="14.314791655487815"><ele>31.333333333333336</ele><time>2026-05-02T12:23:01.001Z</time></trkpt><trkpt lat="41.13625238723304" lon="14.314985389861995"><ele>31.666666666666664</ele><time>2026-05-02T12:23:02.001Z</time></trkpt><trkpt lat="41.136411301133585" lon="14.315172069690979"><ele>32.0</ele><time>2026-05-02T12:23:03Z</time></trkpt><trkpt lat="41.13657395017414" lon="14.315360166302153"><ele>32.0</ele><time>2026-05-02T12:23:04Z</time></trkpt><trkpt lat="41.13673600933237" lon="14.315555160922726"><ele>32.0</ele><time>2026-05-02T12:23:05Z</time></trkpt><trkpt lat="41.13688639050898" lon="14.31573301207513"><ele>32.0</ele><time>2026-05-02T12:23:06Z</time></trkpt><trkpt lat="41.13703282646972" lon="14.315909786663992"><ele>32.0</ele><time>2026-05-02T12:23:07Z</time></trkpt><trkpt lat="41.137172807312716" lon="14.31608158995482"><ele>32.0</ele><time>2026-05-02T12:23:08Z</time></trkpt><trkpt lat="41.137311656400925" lon="14.31625134663804"><ele>32.0</ele><time>2026-05-02T12:23:09Z</time></trkpt><trkpt lat="41.137465270726295" lon="14.316423184005808"><ele>32.0</ele><time>2026-05-02T12:23:10Z</time></trkpt><trkpt lat="41.13761173212992" lon="14.316601583941829"><ele>32.0</ele><time>2026-05-02T12:23:11Z</time></trkpt><trkpt lat="41.137755451454424" lon="14.316786416006"><ele>32.0</ele><time>2026-05-02T12:23:12Z</time></trkpt><trkpt lat="41.13789799535384" lon="14.316965321705862"><ele>32.0</ele><time>2026-05-02T12:23:13Z</time></trkpt><trkpt lat="41.13804436565282" lon="14.317145212568288"><ele>32.0</ele><time>2026-05-02T12:23:14Z</time></trkpt><trkpt lat="41.1381890142122" lon="14.317327161400941"><ele>32.0</ele><time>2026-05-02T12:23:15Z</time></trkpt><trkpt lat="41.13832362292585" lon="14.317514531559675"><ele>33.0</ele><time>2026-05-02T12:23:16Z</time></trkpt><trkpt lat="41.13846124012318" lon="14.317703370274158"><ele>34.0</ele><time>2026-05-02T12:23:17Z</time></trkpt><trkpt lat="41.13858854441529" lon="14.317900325772621"><ele>35.0</ele><time>2026-05-02T12:23:18Z</time></trkpt><trkpt lat="41.138706571171674" lon="14.31810394213243"><ele>35.33333333333333</ele><time>2026-05-02T12:23:19Z</time></trkpt><trkpt lat="41.138823176406326" lon="14.318303889441268"><ele>35.666666666666664</ele><time>2026-05-02T12:23:20Z</time></trkpt><trkpt lat="41.138944390771925" lon="14.318513033768008"><ele>36.0</ele><time>2026-05-02T12:23:21Z</time></trkpt><trkpt lat="41.13905256079323" lon="14.318706785846363"><ele>36.0</ele><time>2026-05-02T12:23:22Z</time></trkpt><trkpt lat="41.139148133451066" lon="14.318881910454103"><ele>36.0</ele><time>2026-05-02T12:23:23Z</time></trkpt><trkpt lat="41.139232559087155" lon="14.319028962014773"><ele>36.0</ele><time>2026-05-02T12:23:24Z</time></trkpt><trkpt lat="41.139337614884504" lon="14.31914773814144"><ele>36.0</ele><time>2026-05-02T12:23:25Z</time></trkpt><trkpt lat="41.13944670658208" lon="14.319245097122659"><ele>34.75</ele><time>2026-05-02T12:23:26Z</time></trkpt><trkpt lat="41.139579227099524" lon="14.31926150477061"><ele>33.5</ele><time>2026-05-02T12:23:27Z</time></trkpt><trkpt lat="41.139722309920224" lon="14.319278931069402"><ele>32.25</ele><time>2026-05-02T12:23:28Z</time></trkpt><trkpt lat="41.139870471427415" lon="14.319258553147636"><ele>31.0</ele><time>2026-05-02T12:23:29Z</time></trkpt><trkpt lat="41.14003315541885" lon="14.31923343049442"><ele>31.0</ele><time>2026-05-02T12:23:30Z</time></trkpt><trkpt lat="41.14020918496484" lon="14.319208576799012"><ele>31.0</ele><time>2026-05-02T12:23:31Z</time></trkpt><trkpt lat="41.14038756412015" lon="14.319174228439485"><ele>31.0</ele><time>2026-05-02T12:23:32Z</time></trkpt><trkpt lat="41.14057792460118" lon="14.31915173400653"><ele>31.333333333333336</ele><time>2026-05-02T12:23:33Z</time></trkpt><trkpt lat="41.140771466953126" lon="14.319130975818076"><ele>31.666666666666664</ele><time>2026-05-02T12:23:34Z</time></trkpt><trkpt lat="41.14095690936211" lon="14.319114055616083"><ele>32.0</ele><time>2026-05-02T12:23:35Z</time></trkpt><trkpt lat="41.141142047244514" lon="14.319128338650444"><ele>32.0</ele><time>2026-05-02T12:23:36Z</time></trkpt><trkpt lat="41.14132160010525" lon="14.31919298731837"><ele>32.0</ele><time>2026-05-02T12:23:37Z</time></trkpt><trkpt lat="41.14151895043738" lon="14.319254400871621"><ele>32.0</ele><time>2026-05-02T12:23:38Z</time></trkpt><trkpt lat="41.14172208373625" lon="14.319314395390949"><ele>32.33333333333333</ele><time>2026-05-02T12:23:39Z</time></trkpt><trkpt lat="41.141924535205156" lon="14.319373981776623"><ele>32.666666666666664</ele><time>2026-05-02T12:23:40Z</time></trkpt><trkpt lat="41.14213590879532" lon="14.31943583837071"><ele>33.0</ele><time>2026-05-02T12:23:41Z</time></trkpt><trkpt lat="41.14233285746546" lon="14.319493473646437"><ele>33.0</ele><time>2026-05-02T12:23:42Z</time></trkpt><trkpt lat="41.14253408851766" lon="14.31953154392762"><ele>33.0</ele><time>2026-05-02T12:23:43Z</time></trkpt><trkpt lat="41.14272957416658" lon="14.31959264267973"><ele>33.0</ele><time>2026-05-02T12:23:44Z</time></trkpt><trkpt lat="41.14293507083959" lon="14.319652653811854"><ele>32.5</ele><time>2026-05-02T12:23:45Z</time></trkpt><trkpt lat="41.1431497891287" lon="14.319734381950399"><ele>32.0</ele><time>2026-05-02T12:23:46Z</time></trkpt><trkpt lat="41.14337829656161" lon="14.31980023219506"><ele>32.0</ele><time>2026-05-02T12:23:47Z</time></trkpt><trkpt lat="41.14361706509751" lon="14.319867776510195"><ele>32.0</ele><time>2026-05-02T12:23:48Z</time></trkpt><trkpt lat="41.14385486468656" lon="14.31993679182085"><ele>32.0</ele><time>2026-05-02T12:23:49Z</time></trkpt><trkpt lat="41.1441014803583" lon="14.320009481340557"><ele>32.0</ele><time>2026-05-02T12:23:50Z</time></trkpt><trkpt lat="41.1443550860628" lon="14.32006236931316"><ele>32.0</ele><time>2026-05-02T12:23:51Z</time></trkpt><trkpt lat="41.1446011216803" lon="14.320146145187277"><ele>32.0</ele><time>2026-05-02T12:23:52Z</time></trkpt><trkpt lat="41.14485158089547" lon="14.320226372404694"><ele>31.5</ele><time>2026-05-02T12:23:53Z</time></trkpt><trkpt lat="41.14510604935156" lon="14.320300206660505"><ele>31.0</ele><time>2026-05-02T12:23:54Z</time></trkpt><trkpt lat="41.14536308601773" lon="14.320374181702991"><ele>31.0</ele><time>2026-05-02T12:23:55Z</time></trkpt><trkpt lat="41.145618187363986" lon="14.320446950782609"><ele>31.0</ele><time>2026-05-02T12:23:56Z</time></trkpt><trkpt lat="41.145872439791304" lon="14.320520954963156"><ele>31.0</ele><time>2026-05-02T12:23:57.001Z</time></trkpt><trkpt lat="41.14612274277734" lon="14.320590984161194"><ele>31.0</ele><time>2026-05-02T12:23:58.001Z</time></trkpt><trkpt lat="41.14637967710692" lon="14.320671646438313"><ele>30.5</ele><time>2026-05-02T12:23:59.001Z</time></trkpt><trkpt lat="41.14662904319187" lon="14.320744600830855"><ele>30.0</ele><time>2026-05-02T12:24:00.001Z</time></trkpt><trkpt lat="41.14687197200621" lon="14.320814362767933"><ele>30.0</ele><time>2026-05-02T12:24:01.001Z</time></trkpt><trkpt lat="41.1471235614885" lon="14.32088742857898"><ele>30.0</ele><time>2026-05-02T12:24:02.001Z</time></trkpt><trkpt lat="41.14737242561549" lon="14.320960563723565"><ele>31.5</ele><time>2026-05-02T12:24:03.001Z</time></trkpt><trkpt lat="41.14762403932559" lon="14.321029899006495"><ele>33.0</ele><time>2026-05-02T12:24:04.001Z</time></trkpt><trkpt lat="41.14787351446818" lon="14.321104204588039"><ele>33.0</ele><time>2026-05-02T12:24:05.001Z</time></trkpt><trkpt lat="41.148120465287974" lon="14.321177565195862"><ele>33.0</ele><time>2026-05-02T12:24:06.001Z</time></trkpt><trkpt lat="41.14836759985163" lon="14.32124790108604"><ele>32.5</ele><time>2026-05-02T12:24:07.001Z</time></trkpt><trkpt lat="41.148613926115196" lon="14.321321845055543"><ele>32.0</ele><time>2026-05-02T12:24:08.001Z</time></trkpt><trkpt lat="41.14885319828738" lon="14.321390980548347"><ele>31.0</ele><time>2026-05-02T12:24:09.001Z</time></trkpt><trkpt lat="41.149093545902815" lon="14.321459269126944"><ele>30.0</ele><time>2026-05-02T12:24:10.001Z</time></trkpt><trkpt lat="41.14933621740359" lon="14.321529194427395"><ele>30.0</ele><time>2026-05-02T12:24:11.001Z</time></trkpt><trkpt lat="41.14958125608361" lon="14.32160038141877"><ele>30.0</ele><time>2026-05-02T12:24:12.001Z</time></trkpt><trkpt lat="41.149831782983696" lon="14.321679823444793"><ele>30.5</ele><time>2026-05-02T12:24:13.001Z</time></trkpt><trkpt lat="41.15008050822703" lon="14.321750243721986"><ele>31.0</ele><time>2026-05-02T12:24:14.001Z</time></trkpt><trkpt lat="41.15032816497495" lon="14.321820315786457"><ele>31.0</ele><time>2026-05-02T12:24:15.001Z</time></trkpt><trkpt lat="41.15057635132437" lon="14.321892753088127"><ele>31.0</ele><time>2026-05-02T12:24:16.001Z</time></trkpt><trkpt lat="41.150817426691475" lon="14.321960189606342"><ele>32.0</ele><time>2026-05-02T12:24:17.001Z</time></trkpt><trkpt lat="41.15105449924407" lon="14.322025613348915"><ele>33.0</ele><time>2026-05-02T12:24:18.001Z</time></trkpt><trkpt lat="41.15128122375265" lon="14.322099135372895"><ele>33.0</ele><time>2026-05-02T12:24:19.001Z</time></trkpt><trkpt lat="41.15149507579546" lon="14.322164084786044"><ele>33.0</ele><time>2026-05-02T12:24:20.001Z</time></trkpt><trkpt lat="41.15169339137525" lon="14.322228979029045"><ele>33.0</ele><time>2026-05-02T12:24:21.001Z</time></trkpt><trkpt lat="41.15189184389799" lon="14.322303462482322"><ele>36.333333333333336</ele><time>2026-05-02T12:24:22.001Z</time></trkpt><trkpt lat="41.15206417828561" lon="14.32239084964434"><ele>39.66666666666667</ele><time>2026-05-02T12:24:23.001Z</time></trkpt><trkpt lat="41.15223133880325" lon="14.322505754912891"><ele>43.0</ele><time>2026-05-02T12:24:24.001Z</time></trkpt><trkpt lat="41.15236361417764" lon="14.322674142938382"><ele>41.66666666666667</ele><time>2026-05-02T12:24:25.001Z</time></trkpt><trkpt lat="41.15252916290011" lon="14.322832875723728"><ele>40.333333333333336</ele><time>2026-05-02T12:24:26.001Z</time></trkpt><trkpt lat="41.15268527731881" lon="14.323019396313246"><ele>39.0</ele><time>2026-05-02T12:24:27.001Z</time></trkpt><trkpt lat="41.152835800216295" lon="14.323199028949414"><ele>40.0</ele><time>2026-05-02T12:24:28.001Z</time></trkpt><trkpt lat="41.152995904216056" lon="14.323381289281025"><ele>41.0</ele><time>2026-05-02T12:24:29.001Z</time></trkpt><trkpt lat="41.15314262413693" lon="14.323568138426362"><ele>42.0</ele><time>2026-05-02T12:24:30.001Z</time></trkpt><trkpt lat="41.15329044634724" lon="14.323739461221018"><ele>48.0</ele><time>2026-05-02T12:24:31.001Z</time></trkpt><trkpt lat="41.15343385743903" lon="14.323905671408077"><ele>54.0</ele><time>2026-05-02T12:24:32.001Z</time></trkpt><trkpt lat="41.15357236029716" lon="14.324067482343528"><ele>60.0</ele><time>2026-05-02T12:24:33.001Z</time></trkpt><trkpt lat="41.153703376551476" lon="14.324228033337588"><ele>60.0</ele><time>2026-05-02T12:24:34.001Z</time></trkpt><trkpt lat="41.15383908791943" lon="14.324411145868059"><ele>60.0</ele><time>2026-05-02T12:24:35.001Z</time></trkpt><trkpt lat="41.153985935088336" lon="14.324586782094968"><ele>60.0</ele><time>2026-05-02T12:24:36.001Z</time></trkpt><trkpt lat="41.15410709103921" lon="14.324787570681154"><ele>58.0</ele><time>2026-05-02T12:24:37.001Z</time></trkpt><trkpt lat="41.154232990947115" lon="14.324995784972614"><ele>56.0</ele><time>2026-05-02T12:24:38.001Z</time></trkpt><trkpt lat="41.15434577050763" lon="14.325209826996838"><ele>54.0</ele><time>2026-05-02T12:24:39.001Z</time></trkpt><trkpt lat="41.1544545561279" lon="14.325439224660549"><ele>57.66666666666667</ele><time>2026-05-02T12:24:40.001Z</time></trkpt><trkpt lat="41.154554905294916" lon="14.325651254922066"><ele>61.333333333333336</ele><time>2026-05-02T12:24:41.001Z</time></trkpt><trkpt lat="41.15465581591057" lon="14.325853966470719"><ele>65.0</ele><time>2026-05-02T12:24:42.001Z</time></trkpt><trkpt lat="41.15474368315728" lon="14.32605951052687"><ele>65.0</ele><time>2026-05-02T12:24:43.001Z</time></trkpt><trkpt lat="41.15484203880988" lon="14.326272101612924"><ele>65.0</ele><time>2026-05-02T12:24:44.001Z</time></trkpt><trkpt lat="41.154935450524086" lon="14.326491663138576"><ele>65.0</ele><time>2026-05-02T12:24:45.001Z</time></trkpt><trkpt lat="41.15502651435596" lon="14.326710645531888"><ele>60.66666666666667</ele><time>2026-05-02T12:24:46.001Z</time></trkpt><trkpt lat="41.1550993399821" lon="14.326923223563476"><ele>56.33333333333333</ele><time>2026-05-02T12:24:47.001Z</time></trkpt><trkpt lat="41.15517729407458" lon="14.327118051608135"><ele>52.0</ele><time>2026-05-02T12:24:48.001Z</time></trkpt><trkpt lat="41.15530191097253" lon="14.327301856619936"><ele>52.0</ele><time>2026-05-02T12:24:49.001Z</time></trkpt><trkpt lat="41.1554154799188" lon="14.327471672220705"><ele>52.0</ele><time>2026-05-02T12:24:50.001Z</time></trkpt><trkpt lat="41.155561348013386" lon="14.327631228314857"><ele>52.0</ele><time>2026-05-02T12:24:51.001Z</time></trkpt><trkpt lat="41.15572170963142" lon="14.327793567727904"><ele>49.0</ele><time>2026-05-02T12:24:52.001Z</time></trkpt><trkpt lat="41.15589935047236" lon="14.327945928927567"><ele>46.0</ele><time>2026-05-02T12:24:53.001Z</time></trkpt><trkpt lat="41.15605626238992" lon="14.32810629318667"><ele>43.0</ele><time>2026-05-02T12:24:54.001Z</time></trkpt><trkpt lat="41.15621690906557" lon="14.328263393511337"><ele>43.0</ele><time>2026-05-02T12:24:55.001Z</time></trkpt><trkpt lat="41.15637231030604" lon="14.328414375141927"><ele>43.0</ele><time>2026-05-02T12:24:56.001Z</time></trkpt><trkpt lat="41.15652154907005" lon="14.328564849772425"><ele>43.0</ele><time>2026-05-02T12:24:57.001Z</time></trkpt><trkpt lat="41.156666287584244" lon="14.32870384441129"><ele>42.0</ele><time>2026-05-02T12:24:58.001Z</time></trkpt><trkpt lat="41.15680160466271" lon="14.328839796923532"><ele>41.0</ele><time>2026-05-02T12:24:59.001Z</time></trkpt><trkpt lat="41.15694508035125" lon="14.328971565031003"><ele>40.0</ele><time>2026-05-02T12:25:00.001Z</time></trkpt><trkpt lat="41.15708433699226" lon="14.329103645111253"><ele>40.0</ele><time>2026-05-02T12:25:01.001Z</time></trkpt><trkpt lat="41.157223194990365" lon="14.329238518253664"><ele>40.0</ele><time>2026-05-02T12:25:02.001Z</time></trkpt><trkpt lat="41.15736038790952" lon="14.329377524266201"><ele>40.0</ele><time>2026-05-02T12:25:03.001Z</time></trkpt><trkpt lat="41.15750743984192" lon="14.329511613903367"><ele>40.0</ele><time>2026-05-02T12:25:04.001Z</time></trkpt><trkpt lat="41.1576493638055" lon="14.3296450092733"><ele>40.0</ele><time>2026-05-02T12:25:05.001Z</time></trkpt><trkpt lat="41.15779084133316" lon="14.329784662543306"><ele>40.0</ele><time>2026-05-02T12:25:06.001Z</time></trkpt><trkpt lat="41.157931400509185" lon="14.32993017497979"><ele>39.66666666666667</ele><time>2026-05-02T12:25:07.002Z</time></trkpt><trkpt lat="41.158072183752594" lon="14.330070901764287"><ele>39.333333333333336</ele><time>2026-05-02T12:25:08.002Z</time></trkpt><trkpt lat="41.15822435302442" lon="14.33020703483169"><ele>39.0</ele><time>2026-05-02T12:25:09Z</time></trkpt><trkpt lat="41.15836348374296" lon="14.33034767546918"><ele>39.0</ele><time>2026-05-02T12:25:10Z</time></trkpt><trkpt lat="41.15850819478093" lon="14.330485212671801"><ele>39.0</ele><time>2026-05-02T12:25:11Z</time></trkpt><trkpt lat="41.15863599502983" lon="14.330611395859915"><ele>39.0</ele><time>2026-05-02T12:25:12Z</time></trkpt><trkpt lat="41.158754891353" lon="14.330732227663006"><ele>39.25</ele><time>2026-05-02T12:25:13Z</time></trkpt><trkpt lat="41.15886900469763" lon="14.330836963452384"><ele>39.5</ele><time>2026-05-02T12:25:14Z</time></trkpt><trkpt lat="41.15897025107049" lon="14.330938843432262"><ele>39.75</ele><time>2026-05-02T12:25:15Z</time></trkpt><trkpt lat="41.15907228874395" lon="14.331036881472416"><ele>40.0</ele><time>2026-05-02T12:25:16Z</time></trkpt><trkpt lat="41.15917084692862" lon="14.331131599074089"><ele>40.25</ele><time>2026-05-02T12:25:17Z</time></trkpt><trkpt lat="41.15925835571899" lon="14.331225586011328"><ele>40.5</ele><time>2026-05-02T12:25:18Z</time></trkpt><trkpt lat="41.15934674822933" lon="14.331311510980061"><ele>40.75</ele><time>2026-05-02T12:25:19Z</time></trkpt><trkpt lat="41.15944383052967" lon="14.331400910248194"><ele>41.0</ele><time>2026-05-02T12:25:20Z</time></trkpt><trkpt lat="41.15955006862756" lon="14.331493076367144"><ele>41.25</ele><time>2026-05-02T12:25:21Z</time></trkpt><trkpt lat="41.15966209058885" lon="14.331608308151523"><ele>41.5</ele><time>2026-05-02T12:25:22Z</time></trkpt><trkpt lat="41.15977439142215" lon="14.331729411464282"><ele>41.75</ele><time>2026-05-02T12:25:23Z</time></trkpt><trkpt lat="41.15990438805908" lon="14.331852502262262"><ele>42.0</ele><time>2026-05-02T12:25:24Z</time></trkpt><trkpt lat="41.16003438311202" lon="14.331986870895802"><ele>42.333333333333336</ele><time>2026-05-02T12:25:25Z</time></trkpt><trkpt lat="41.160171396539475" lon="14.332119421944705"><ele>42.66666666666667</ele><time>2026-05-02T12:25:26Z</time></trkpt><trkpt lat="41.160307478312895" lon="14.332252625077453"><ele>43.0</ele><time>2026-05-02T12:25:27Z</time></trkpt><trkpt lat="41.16043809672163" lon="14.332379510465504"><ele>43.66666666666667</ele><time>2026-05-02T12:25:28Z</time></trkpt><trkpt lat="41.160583155578635" lon="14.332509634205634"><ele>44.333333333333336</ele><time>2026-05-02T12:25:29Z</time></trkpt><trkpt lat="41.16072513598583" lon="14.33265157629446"><ele>45.0</ele><time>2026-05-02T12:25:30Z</time></trkpt><trkpt lat="41.16086981285341" lon="14.33278989151733"><ele>45.0</ele><time>2026-05-02T12:25:31Z</time></trkpt><trkpt lat="41.16100926603186" lon="14.332920464610975"><ele>45.0</ele><time>2026-05-02T12:25:32Z</time></trkpt><trkpt lat="41.16114408208701" lon="14.333046121899756"><ele>45.0</ele><time>2026-05-02T12:25:33Z</time></trkpt><trkpt lat="41.161281955380645" lon="14.333172823493179"><ele>45.0</ele><time>2026-05-02T12:25:34Z</time></trkpt><trkpt lat="41.161412262245" lon="14.333300059366463"><ele>45.0</ele><time>2026-05-02T12:25:35Z</time></trkpt><trkpt lat="41.161529398244106" lon="14.333437766903"><ele>45.0</ele><time>2026-05-02T12:25:36Z</time></trkpt><trkpt lat="41.16165513027441" lon="14.333563243398764"><ele>45.0</ele><time>2026-05-02T12:25:37Z</time></trkpt><trkpt lat="41.16178930375556" lon="14.333689563290772"><ele>45.0</ele><time>2026-05-02T12:25:38Z</time></trkpt><trkpt lat="41.161916242434664" lon="14.333817206768085"><ele>45.0</ele><time>2026-05-02T12:25:39Z</time></trkpt><trkpt lat="41.1620485898912" lon="14.333949646658038"><ele>45.0</ele><time>2026-05-02T12:25:40Z</time></trkpt><trkpt lat="41.162193337641696" lon="14.334078999770503"><ele>45.0</ele><time>2026-05-02T12:25:41Z</time></trkpt><trkpt lat="41.16233326783044" lon="14.334208678927789"><ele>45.0</ele><time>2026-05-02T12:25:42Z</time></trkpt><trkpt lat="41.16246531602504" lon="14.33434038580857"><ele>45.0</ele><time>2026-05-02T12:25:43Z</time></trkpt><trkpt lat="41.1625964698633" lon="14.334467460705028"><ele>45.0</ele><time>2026-05-02T12:25:44Z</time></trkpt><trkpt lat="41.16272757158361" lon="14.334591861762554"><ele>45.0</ele><time>2026-05-02T12:25:45Z</time></trkpt><trkpt lat="41.16285234683908" lon="14.334712850600933"><ele>44.666666666666664</ele><time>2026-05-02T12:25:46Z</time></trkpt><trkpt lat="41.162971860219145" lon="14.334835326341839"><ele>44.33333333333333</ele><time>2026-05-02T12:25:47Z</time></trkpt><trkpt lat="41.16309621754188" lon="14.334955679920093"><ele>44.0</ele><time>2026-05-02T12:25:48Z</time></trkpt><trkpt lat="41.16321434495013" lon="14.335073254329718"><ele>45.0</ele><time>2026-05-02T12:25:49Z</time></trkpt><trkpt lat="41.16333563789357" lon="14.335195246688121"><ele>46.0</ele><time>2026-05-02T12:25:50Z</time></trkpt><trkpt lat="41.163462241717305" lon="14.335311660009635"><ele>47.0</ele><time>2026-05-02T12:25:51Z</time></trkpt><trkpt lat="41.16358216665007" lon="14.33542524349002"><ele>47.0</ele><time>2026-05-02T12:25:52Z</time></trkpt><trkpt lat="41.163700818384726" lon="14.335538728114898"><ele>47.0</ele><time>2026-05-02T12:25:53Z</time></trkpt><trkpt lat="41.16382048113268" lon="14.335645165583959"><ele>47.0</ele><time>2026-05-02T12:25:54Z</time></trkpt><trkpt lat="41.163929371639085" lon="14.335747133514229"><ele>47.0</ele><time>2026-05-02T12:25:55Z</time></trkpt><trkpt lat="41.164026925143894" lon="14.335841897563409"><ele>47.5</ele><time>2026-05-02T12:25:56.001Z</time></trkpt><trkpt lat="41.164104723114285" lon="14.335956771073965"><ele>48.0</ele><time>2026-05-02T12:25:57.001Z</time></trkpt><trkpt lat="41.16419509785374" lon="14.336045112452002"><ele>48.5</ele><time>2026-05-02T12:25:58.001Z</time></trkpt><trkpt lat="41.16429063692386" lon="14.336139122952254"><ele>49.0</ele><time>2026-05-02T12:25:59.001Z</time></trkpt><trkpt lat="41.1643871421689" lon="14.336229811682715"><ele>49.0</ele><time>2026-05-02T12:26:00.001Z</time></trkpt><trkpt lat="41.164475854910684" lon="14.336319495149569"><ele>49.0</ele><time>2026-05-02T12:26:01.001Z</time></trkpt><trkpt lat="41.164561329770244" lon="14.336406421209599"><ele>49.0</ele><time>2026-05-02T12:26:02.001Z</time></trkpt><trkpt lat="41.16464510274809" lon="14.336478644369675"><ele>49.0</ele><time>2026-05-02T12:26:03.001Z</time></trkpt><trkpt lat="41.16471651614283" lon="14.33654356644474"><ele>49.0</ele><time>2026-05-02T12:26:04.001Z</time></trkpt><trkpt lat="41.164782183150386" lon="14.33660243587108"><ele>49.33333333333333</ele><time>2026-05-02T12:26:05.001Z</time></trkpt><trkpt lat="41.164838833409256" lon="14.336655689564935"><ele>49.666666666666664</ele><time>2026-05-02T12:26:06.001Z</time></trkpt><trkpt lat="41.164889262091435" lon="14.336722869040921"><ele>50.0</ele><time>2026-05-02T12:26:07.001Z</time></trkpt><trkpt lat="41.164939392752856" lon="14.336777076176368"><ele>50.33333333333333</ele><time>2026-05-02T12:26:08.001Z</time></trkpt><trkpt lat="41.165018944200774" lon="14.336880403756611"><ele>50.666666666666664</ele><time>2026-05-02T12:26:10.001Z</time></trkpt><trkpt lat="41.16506496017805" lon="14.336939467131737"><ele>51.0</ele><time>2026-05-02T12:26:12.001Z</time></trkpt><trkpt lat="41.165126333590905" lon="14.337001899776041"><ele>51.5</ele><time>2026-05-02T12:26:14.001Z</time></trkpt><trkpt lat="41.16518574314456" lon="14.337112017047557"><ele>52.0</ele><time>2026-05-02T12:26:16.001Z</time></trkpt><trkpt lat="41.16526330205093" lon="14.337132910909157"><ele>52.5</ele><time>2026-05-02T12:26:17.001Z</time></trkpt><trkpt lat="41.165330786386065" lon="14.337198856316821"><ele>53.0</ele><time>2026-05-02T12:26:18.001Z</time></trkpt><trkpt lat="41.16538024263688" lon="14.33727487020676"><ele>53.5</ele><time>2026-05-02T12:26:19.001Z</time></trkpt><trkpt lat="41.16542659829537" lon="14.337371849745074"><ele>54.0</ele><time>2026-05-02T12:26:20.001Z</time></trkpt><trkpt lat="41.16545928707138" lon="14.337489235417337"><ele>54.0</ele><time>2026-05-02T12:26:21.001Z</time></trkpt><trkpt lat="41.16551393354383" lon="14.337624117892949"><ele>54.0</ele><time>2026-05-02T12:26:22.001Z</time></trkpt><trkpt lat="41.16558036512487" lon="14.337780915611495"><ele>54.0</ele><time>2026-05-02T12:26:23.001Z</time></trkpt><trkpt lat="41.16565438114809" lon="14.337954446727228"><ele>54.0</ele><time>2026-05-02T12:26:24.001Z</time></trkpt><trkpt lat="41.16575174263542" lon="14.338138392692594"><ele>54.66666666666667</ele><time>2026-05-02T12:26:25.001Z</time></trkpt><trkpt lat="41.165825476786935" lon="14.338346767810785"><ele>55.333333333333336</ele><time>2026-05-02T12:26:26.001Z</time></trkpt><trkpt lat="41.16590746046233" lon="14.338537216835324"><ele>56.0</ele><time>2026-05-02T12:26:27.001Z</time></trkpt><trkpt lat="41.16599189350991" lon="14.33872245090361"><ele>55.66666666666667</ele><time>2026-05-02T12:26:28.001Z</time></trkpt><trkpt lat="41.16608019761567" lon="14.338910245737477"><ele>55.33333333333333</ele><time>2026-05-02T12:26:29.001Z</time></trkpt><trkpt lat="41.166165696717734" lon="14.339141131592022"><ele>55.0</ele><time>2026-05-02T12:26:30.001Z</time></trkpt><trkpt lat="41.16627118928777" lon="14.339383932237077"><ele>55.0</ele><time>2026-05-02T12:26:31.001Z</time></trkpt><trkpt lat="41.16639392628723" lon="14.339629696220927"><ele>55.0</ele><time>2026-05-02T12:26:32.001Z</time></trkpt><trkpt lat="41.16651117750428" lon="14.339893062719804"><ele>55.5</ele><time>2026-05-02T12:26:33.001Z</time></trkpt><trkpt lat="41.166623473140504" lon="14.340197211263451"><ele>56.0</ele><time>2026-05-02T12:26:34.001Z</time></trkpt><trkpt lat="41.16675984428731" lon="14.340512611803135"><ele>54.5</ele><time>2026-05-02T12:26:35.001Z</time></trkpt><trkpt lat="41.1669165989276" lon="14.34083013047727"><ele>53.0</ele><time>2026-05-02T12:26:36.001Z</time></trkpt><trkpt lat="41.16705792594267" lon="14.341180861563851"><ele>52.5</ele><time>2026-05-02T12:26:37.001Z</time></trkpt><trkpt lat="41.16719682280996" lon="14.341528107444987"><ele>52.0</ele><time>2026-05-02T12:26:38.001Z</time></trkpt><trkpt lat="41.167344558398376" lon="14.341866922790246"><ele>53.0</ele><time>2026-05-02T12:26:39.001Z</time></trkpt><trkpt lat="41.16749107903551" lon="14.34220334600877"><ele>54.0</ele><time>2026-05-02T12:26:40.001Z</time></trkpt><trkpt lat="41.16762772028122" lon="14.342522797199834"><ele>54.0</ele><time>2026-05-02T12:26:41.001Z</time></trkpt><trkpt lat="41.16775764171439" lon="14.342830908293635"><ele>54.0</ele><time>2026-05-02T12:26:42.001Z</time></trkpt><trkpt lat="41.167888366377774" lon="14.343132920589216"><ele>55.0</ele><time>2026-05-02T12:26:43.001Z</time></trkpt><trkpt lat="41.16802663153952" lon="14.343421597254334"><ele>56.0</ele><time>2026-05-02T12:26:44.001Z</time></trkpt><trkpt lat="41.16817395125004" lon="14.343700165863565"><ele>57.5</ele><time>2026-05-02T12:26:45.001Z</time></trkpt><trkpt lat="41.168341491020314" lon="14.343962790687232"><ele>59.0</ele><time>2026-05-02T12:26:46.001Z</time></trkpt><trkpt lat="41.168502438674665" lon="14.344229785920456"><ele>59.0</ele><time>2026-05-02T12:26:47.001Z</time></trkpt><trkpt lat="41.168658511073886" lon="14.344502230823904"><ele>59.0</ele><time>2026-05-02T12:26:48.001Z</time></trkpt><trkpt lat="41.168793389755486" lon="14.344772939602896"><ele>59.66666666666667</ele><time>2026-05-02T12:26:49.001Z</time></trkpt><trkpt lat="41.1689115690971" lon="14.345022113385692"><ele>60.33333333333333</ele><time>2026-05-02T12:26:50.001Z</time></trkpt><trkpt lat="41.16904193090449" lon="14.34525534604752"><ele>61.0</ele><time>2026-05-02T12:26:51.001Z</time></trkpt><trkpt lat="41.1691867275289" lon="14.345480306280601"><ele>63.0</ele><time>2026-05-02T12:26:52.001Z</time></trkpt><trkpt lat="41.169357256986295" lon="14.34569618756392"><ele>65.0</ele><time>2026-05-02T12:26:53.001Z</time></trkpt><trkpt lat="41.1695394148905" lon="14.3458963295536"><ele>65.0</ele><time>2026-05-02T12:26:54.001Z</time></trkpt><trkpt lat="41.16972728530697" lon="14.346108740173943"><ele>65.0</ele><time>2026-05-02T12:26:55.001Z</time></trkpt><trkpt lat="41.169913241102385" lon="14.346327364817993"><ele>65.5</ele><time>2026-05-02T12:26:56.001Z</time></trkpt><trkpt lat="41.17009334894179" lon="14.346568700081848"><ele>66.0</ele><time>2026-05-02T12:26:57.001Z</time></trkpt><trkpt lat="41.17026780383395" lon="14.346817349590797"><ele>66.0</ele><time>2026-05-02T12:26:58.001Z</time></trkpt><trkpt lat="41.17043786462214" lon="14.34707863720066"><ele>66.0</ele><time>2026-05-02T12:26:59.001Z</time></trkpt><trkpt lat="41.17061238372211" lon="14.347352442224114"><ele>69.0</ele><time>2026-05-02T12:27:00.001Z</time></trkpt><trkpt lat="41.170787585148766" lon="14.347625708834926"><ele>72.0</ele><time>2026-05-02T12:27:01.001Z</time></trkpt><trkpt lat="41.17096739461433" lon="14.347902594726934"><ele>73.5</ele><time>2026-05-02T12:27:02.001Z</time></trkpt><trkpt lat="41.1711405797208" lon="14.34817515069871"><ele>75.0</ele><time>2026-05-02T12:27:03.001Z</time></trkpt><trkpt lat="41.17130744254832" lon="14.348423247366053"><ele>75.0</ele><time>2026-05-02T12:27:04.001Z</time></trkpt><trkpt lat="41.17146514175994" lon="14.348650621965607"><ele>75.0</ele><time>2026-05-02T12:27:05.001Z</time></trkpt><trkpt lat="41.17160221783253" lon="14.34886499871911"><ele>75.0</ele><time>2026-05-02T12:27:06.001Z</time></trkpt><trkpt lat="41.17173319829423" lon="14.349070175118985"><ele>77.66666666666667</ele><time>2026-05-02T12:27:07.002Z</time></trkpt><trkpt lat="41.171861244893144" lon="14.349267522300385"><ele>80.33333333333334</ele><time>2026-05-02T12:27:08.002Z</time></trkpt><trkpt lat="41.171997035047035" lon="14.349442510270677"><ele>83.0</ele><time>2026-05-02T12:27:09.002Z</time></trkpt><trkpt lat="41.172142465250815" lon="14.34961641238216"><ele>85.66666666666667</ele><time>2026-05-02T12:27:10.002Z</time></trkpt><trkpt lat="41.172308727036906" lon="14.349729644189583"><ele>88.33333333333333</ele><time>2026-05-02T12:27:11.002Z</time></trkpt><trkpt lat="41.1724871105509" lon="14.349812022036831"><ele>91.0</ele><time>2026-05-02T12:27:12.002Z</time></trkpt><trkpt lat="41.17266774264982" lon="14.349891810016311"><ele>91.0</ele><time>2026-05-02T12:27:13.002Z</time></trkpt><trkpt lat="41.172832245101894" lon="14.350006110541594"><ele>91.0</ele><time>2026-05-02T12:27:14.002Z</time></trkpt><trkpt lat="41.17298134063749" lon="14.350162029570923"><ele>91.0</ele><time>2026-05-02T12:27:15Z</time></trkpt><trkpt lat="41.17313959364238" lon="14.350329650053727"><ele>90.66666666666666</ele><time>2026-05-02T12:27:16Z</time></trkpt><trkpt lat="41.17328229888671" lon="14.350474494571042"><ele>90.33333333333333</ele><time>2026-05-02T12:27:17Z</time></trkpt><trkpt lat="41.17342621955108" lon="14.35061767687878"><ele>90.0</ele><time>2026-05-02T12:27:18Z</time></trkpt><trkpt lat="41.1735548386015" lon="14.350742296933788"><ele>94.66666666666666</ele><time>2026-05-02T12:27:19Z</time></trkpt><trkpt lat="41.173667428237735" lon="14.350924646572688"><ele>99.33333333333333</ele><time>2026-05-02T12:27:20Z</time></trkpt><trkpt lat="41.17376001195354" lon="14.351122239086882"><ele>104.0</ele><time>2026-05-02T12:27:21Z</time></trkpt><trkpt lat="41.1738607708659" lon="14.351319806635003"><ele>106.66666666666666</ele><time>2026-05-02T12:27:22Z</time></trkpt><trkpt lat="41.173969060241554" lon="14.351525376634433"><ele>109.33333333333334</ele><time>2026-05-02T12:27:23Z</time></trkpt><trkpt lat="41.1741043766154" lon="14.351708309698816"><ele>112.0</ele><time>2026-05-02T12:27:24Z</time></trkpt><trkpt lat="41.174240123113584" lon="14.351841762619271"><ele>112.0</ele><time>2026-05-02T12:27:25Z</time></trkpt><trkpt lat="41.17436250491607" lon="14.351947597749023"><ele>112.0</ele><time>2026-05-02T12:27:26Z</time></trkpt><trkpt lat="41.1744664799668" lon="14.35203081712376"><ele>112.0</ele><time>2026-05-02T12:27:27Z</time></trkpt><trkpt lat="41.17455466673535" lon="14.352118587465625"><ele>112.0</ele><time>2026-05-02T12:27:28Z</time></trkpt><trkpt lat="41.1745973272797" lon="14.352213248038309"><ele>115.5</ele><time>2026-05-02T12:27:29Z</time></trkpt><trkpt lat="41.174630950325984" lon="14.352345401717757"><ele>119.0</ele><time>2026-05-02T12:27:30Z</time></trkpt><trkpt lat="41.174616038533884" lon="14.352529094306243"><ele>122.5</ele><time>2026-05-02T12:27:31Z</time></trkpt><trkpt lat="41.174600644229024" lon="14.35272640408529"><ele>126.0</ele><time>2026-05-02T12:27:32Z</time></trkpt><trkpt lat="41.17461860948085" lon="14.352908878266454"><ele>125.0</ele><time>2026-05-02T12:27:33Z</time></trkpt><trkpt lat="41.17464144338996" lon="14.353072885218031"><ele>124.0</ele><time>2026-05-02T12:27:34Z</time></trkpt><trkpt lat="41.174746089126586" lon="14.353217297952883"><ele>123.0</ele><time>2026-05-02T12:27:35Z</time></trkpt><trkpt lat="41.17486023607047" lon="14.35337346064154"><ele>122.0</ele><time>2026-05-02T12:27:36Z</time></trkpt><trkpt lat="41.17497608404198" lon="14.353554890619918"><ele>120.0</ele><time>2026-05-02T12:27:37Z</time></trkpt><trkpt lat="41.17510110663486" lon="14.353726832955264"><ele>118.0</ele><time>2026-05-02T12:27:38Z</time></trkpt><trkpt lat="41.17521849199759" lon="14.353899543895468"><ele>116.0</ele><time>2026-05-02T12:27:39Z</time></trkpt><trkpt lat="41.17531402749629" lon="14.354059961893869"><ele>116.0</ele><time>2026-05-02T12:27:40Z</time></trkpt><trkpt lat="41.175373395345275" lon="14.354211743788216"><ele>116.0</ele><time>2026-05-02T12:27:41Z</time></trkpt><trkpt lat="41.1754050223815" lon="14.354348445099772"><ele>116.0</ele><time>2026-05-02T12:27:42Z</time></trkpt><trkpt lat="41.17536077908716" lon="14.354501073294825"><ele>116.0</ele><time>2026-05-02T12:27:43Z</time></trkpt><trkpt lat="41.175327786082036" lon="14.35468111046625"><ele>116.0</ele><time>2026-05-02T12:27:44Z</time></trkpt><trkpt lat="41.17528931692821" lon="14.35486041453262"><ele>116.0</ele><time>2026-05-02T12:27:45Z</time></trkpt><trkpt lat="41.175288283547594" lon="14.355023442652957"><ele>116.0</ele><time>2026-05-02T12:27:46Z</time></trkpt><trkpt lat="41.17530544747168" lon="14.355166430659958"><ele>116.0</ele><time>2026-05-02T12:27:47Z</time></trkpt><trkpt lat="41.17538055053284" lon="14.355301607029741"><ele>116.0</ele><time>2026-05-02T12:27:48Z</time></trkpt><trkpt lat="41.17550587864833" lon="14.355406943075161"><ele>116.0</ele><time>2026-05-02T12:27:49Z</time></trkpt><trkpt lat="41.175645897386865" lon="14.35549362973897"><ele>116.0</ele><time>2026-05-02T12:27:50Z</time></trkpt><trkpt lat="41.17578740246253" lon="14.355596808271693"><ele>120.0</ele><time>2026-05-02T12:27:51Z</time></trkpt><trkpt lat="41.17594544144586" lon="14.35568710823532"><ele>124.0</ele><time>2026-05-02T12:27:52Z</time></trkpt><trkpt lat="41.176108563741394" lon="14.355763372698815"><ele>128.0</ele><time>2026-05-02T12:27:53Z</time></trkpt><trkpt lat="41.17626409054641" lon="14.355870689863837"><ele>128.0</ele><time>2026-05-02T12:27:54Z</time></trkpt><trkpt lat="41.17641496613748" lon="14.356014421302026"><ele>128.0</ele><time>2026-05-02T12:27:55Z</time></trkpt><trkpt lat="41.17654072611581" lon="14.35619013158515"><ele>128.0</ele><time>2026-05-02T12:27:56Z</time></trkpt><trkpt lat="41.176666136324094" lon="14.35636279011575"><ele>131.33333333333331</ele><time>2026-05-02T12:27:57.001Z</time></trkpt><trkpt lat="41.176832994055935" lon="14.35651595014032"><ele>134.66666666666666</ele><time>2026-05-02T12:27:58Z</time></trkpt><trkpt lat="41.177012889375305" lon="14.356645135358823"><ele>138.0</ele><time>2026-05-02T12:27:59Z</time></trkpt><trkpt lat="41.17718185021076" lon="14.356773933801913"><ele>138.0</ele><time>2026-05-02T12:28:00Z</time></trkpt><trkpt lat="41.177336901074085" lon="14.356899026440342"><ele>138.0</ele><time>2026-05-02T12:28:01Z</time></trkpt><trkpt lat="41.17747894372771" lon="14.357024463868354"><ele>138.0</ele><time>2026-05-02T12:28:02.001Z</time></trkpt><trkpt lat="41.17760490435251" lon="14.35713749764081"><ele>141.4</ele><time>2026-05-02T12:28:03.001Z</time></trkpt><trkpt lat="41.17770908429078" lon="14.357239225947723"><ele>144.8</ele><time>2026-05-02T12:28:04.001Z</time></trkpt><trkpt lat="41.177791194923806" lon="14.357342693801773"><ele>148.2</ele><time>2026-05-02T12:28:05.001Z</time></trkpt><trkpt lat="41.17784923731681" lon="14.357445560676613"><ele>151.6</ele><time>2026-05-02T12:28:06.001Z</time></trkpt><trkpt lat="41.177856524176974" lon="14.357552329598573"><ele>155.0</ele><time>2026-05-02T12:28:07.001Z</time></trkpt><trkpt lat="41.17783631295381" lon="14.35764375722124"><ele>155.0</ele><time>2026-05-02T12:28:08.001Z</time></trkpt><trkpt lat="41.1777775688663" lon="14.357723684362586"><ele>155.0</ele><time>2026-05-02T12:28:09.001Z</time></trkpt><trkpt lat="41.17767161108857" lon="14.357749158358702"><ele>155.0</ele><time>2026-05-02T12:28:10.001Z</time></trkpt><trkpt lat="41.1775418663231" lon="14.357791601683795"><ele>155.0</ele><time>2026-05-02T12:28:11.001Z</time></trkpt><trkpt lat="41.177392753916656" lon="14.357865284669263"><ele>157.66666666666666</ele><time>2026-05-02T12:28:12.001Z</time></trkpt><trkpt lat="41.17722811418008" lon="14.357921601068691"><ele>160.33333333333334</ele><time>2026-05-02T12:28:13.001Z</time></trkpt><trkpt lat="41.17706956996201" lon="14.358026440036149"><ele>163.0</ele><time>2026-05-02T12:28:14.001Z</time></trkpt><trkpt lat="41.17692114596348" lon="14.358161511521688"><ele>163.0</ele><time>2026-05-02T12:28:15.001Z</time></trkpt><trkpt lat="41.17680276496462" lon="14.358301860512176"><ele>163.0</ele><time>2026-05-02T12:28:16.001Z</time></trkpt><trkpt lat="41.17670495688395" lon="14.358432670089314"><ele>163.0</ele><time>2026-05-02T12:28:17.001Z</time></trkpt><trkpt lat="41.176622267066165" lon="14.358518335344355"><ele>163.0</ele><time>2026-05-02T12:28:18.001Z</time></trkpt><trkpt lat="41.176553992688234" lon="14.358617407963457"><ele>163.0</ele><time>2026-05-02T12:28:19.001Z</time></trkpt><trkpt lat="41.17653760793512" lon="14.35872843589815"><ele>163.0</ele><time>2026-05-02T12:28:20.001Z</time></trkpt><trkpt lat="41.17656414184225" lon="14.358826155815153"><ele>163.0</ele><time>2026-05-02T12:28:21.001Z</time></trkpt><trkpt lat="41.176610942696" lon="14.358924248523795"><ele>163.0</ele><time>2026-05-02T12:28:22.001Z</time></trkpt><trkpt lat="41.17669338002894" lon="14.358994692992344"><ele>163.0</ele><time>2026-05-02T12:28:23.001Z</time></trkpt><trkpt lat="41.17680763319702" lon="14.359072497148286"><ele>164.0</ele><time>2026-05-02T12:28:24.001Z</time></trkpt><trkpt lat="41.17693106597363" lon="14.359163006735306"><ele>165.0</ele><time>2026-05-02T12:28:25.001Z</time></trkpt><trkpt lat="41.17706367850071" lon="14.359213961786784"><ele>166.0</ele><time>2026-05-02T12:28:26.001Z</time></trkpt><trkpt lat="41.177184893968025" lon="14.359321741767637"><ele>167.0</ele><time>2026-05-02T12:28:27.001Z</time></trkpt><trkpt lat="41.17731349996187" lon="14.359383396340402"><ele>171.25</ele><time>2026-05-02T12:28:28.001Z</time></trkpt><trkpt lat="41.17745049060948" lon="14.359448720518348"><ele>175.5</ele><time>2026-05-02T12:28:29.001Z</time></trkpt><trkpt lat="41.17757981897609" lon="14.359516609744835"><ele>179.75</ele><time>2026-05-02T12:28:30.001Z</time></trkpt><trkpt lat="41.17771426028015" lon="14.359581881762962"><ele>184.0</ele><time>2026-05-02T12:28:31.001Z</time></trkpt><trkpt lat="41.17785354879941" lon="14.359657833928871"><ele>181.25</ele><time>2026-05-02T12:28:32.001Z</time></trkpt><trkpt lat="41.177964153923426" lon="14.35975454272262"><ele>178.5</ele><time>2026-05-02T12:28:33.001Z</time></trkpt><trkpt lat="41.1780529073174" lon="14.359876787280626"><ele>175.75</ele><time>2026-05-02T12:28:34.001Z</time></trkpt><trkpt lat="41.17811525874488" lon="14.360022692266407"><ele>173.0</ele><time>2026-05-02T12:28:35.001Z</time></trkpt><trkpt lat="41.17815228687108" lon="14.36019005099323"><ele>173.0</ele><time>2026-05-02T12:28:36.001Z</time></trkpt><trkpt lat="41.17817436307266" lon="14.360371237825968"><ele>173.0</ele><time>2026-05-02T12:28:37.001Z</time></trkpt><trkpt lat="41.17820601225571" lon="14.360555373006367"><ele>173.0</ele><time>2026-05-02T12:28:38.001Z</time></trkpt><trkpt lat="41.178243356124355" lon="14.36074326581126"><ele>173.0</ele><time>2026-05-02T12:28:39.001Z</time></trkpt><trkpt lat="41.178286232017506" lon="14.360927116255223"><ele>177.5</ele><time>2026-05-02T12:28:40.001Z</time></trkpt><trkpt lat="41.178325907389926" lon="14.361106881523071"><ele>182.0</ele><time>2026-05-02T12:28:41.001Z</time></trkpt><trkpt lat="41.178365927493786" lon="14.36128042268929"><ele>186.5</ele><time>2026-05-02T12:28:42.001Z</time></trkpt><trkpt lat="41.17840896430972" lon="14.361444476922195"><ele>191.0</ele><time>2026-05-02T12:28:43.001Z</time></trkpt><trkpt lat="41.17846256141515" lon="14.361579552488417"><ele>191.0</ele><time>2026-05-02T12:28:44.001Z</time></trkpt><trkpt lat="41.178515879867845" lon="14.361723111271754"><ele>191.0</ele><time>2026-05-02T12:28:45.001Z</time></trkpt><trkpt lat="41.178574334905825" lon="14.36186374231728"><ele>191.0</ele><time>2026-05-02T12:28:46.001Z</time></trkpt><trkpt lat="41.17862687894934" lon="14.36199683717432"><ele>191.0</ele><time>2026-05-02T12:28:47.001Z</time></trkpt><trkpt lat="41.17867143605507" lon="14.362136024339947"><ele>189.8</ele><time>2026-05-02T12:28:48.001Z</time></trkpt><trkpt lat="41.17871733646058" lon="14.362275767517161"><ele>188.60000000000002</ele><time>2026-05-02T12:28:49.001Z</time></trkpt><trkpt lat="41.1787495220925" lon="14.362416431824752"><ele>187.4</ele><time>2026-05-02T12:28:50.001Z</time></trkpt><trkpt lat="41.17875326585393" lon="14.362562402566057"><ele>186.2</ele><time>2026-05-02T12:28:51.001Z</time></trkpt><trkpt lat="41.17873435309347" lon="14.362709262611956"><ele>185.0</ele><time>2026-05-02T12:28:52.001Z</time></trkpt><trkpt lat="41.178703833749346" lon="14.36286490768744"><ele>185.0</ele><time>2026-05-02T12:28:53.001Z</time></trkpt><trkpt lat="41.178675682981805" lon="14.363009793845219"><ele>185.0</ele><time>2026-05-02T12:28:54.001Z</time></trkpt><trkpt lat="41.17864839047743" lon="14.363157529663127"><ele>185.0</ele><time>2026-05-02T12:28:55.001Z</time></trkpt><trkpt lat="41.178627920715094" lon="14.363296729523759"><ele>185.0</ele><time>2026-05-02T12:28:56.001Z</time></trkpt><trkpt lat="41.178605319549575" lon="14.363428360940283"><ele>185.0</ele><time>2026-05-02T12:28:57.001Z</time></trkpt><trkpt lat="41.17858309206928" lon="14.363541718426685"><ele>185.83333333333331</ele><time>2026-05-02T12:28:58.001Z</time></trkpt><trkpt lat="41.17856487760567" lon="14.363658860019084"><ele>186.66666666666666</ele><time>2026-05-02T12:28:59.001Z</time></trkpt><trkpt lat="41.17852593514386" lon="14.363763462135397"><ele>187.5</ele><time>2026-05-02T12:29:00.001Z</time></trkpt><trkpt lat="41.17850130682967" lon="14.363865431048932"><ele>188.33333333333334</ele><time>2026-05-02T12:29:01.001Z</time></trkpt><trkpt lat="41.178476516301245" lon="14.363978830008355"><ele>189.16666666666669</ele><time>2026-05-02T12:29:02.001Z</time></trkpt><trkpt lat="41.1784524843531" lon="14.364089581995215"><ele>190.0</ele><time>2026-05-02T12:29:03.001Z</time></trkpt><trkpt lat="41.17842249978972" lon="14.364198515081338"><ele>190.5</ele><time>2026-05-02T12:29:04.001Z</time></trkpt><trkpt lat="41.17838385566917" lon="14.364305940638005"><ele>191.0</ele><time>2026-05-02T12:29:05.001Z</time></trkpt><trkpt lat="41.17835130005847" lon="14.364407670795886"><ele>191.5</ele><time>2026-05-02T12:29:06.001Z</time></trkpt><trkpt lat="41.178323212750556" lon="14.364505181914279"><ele>192.0</ele><time>2026-05-02T12:29:07.001Z</time></trkpt><trkpt lat="41.17830494126656" lon="14.364599589046708"><ele>192.49999999999997</ele><time>2026-05-02T12:29:08.001Z</time></trkpt><trkpt lat="41.17830768712135" lon="14.364692462626477"><ele>193.0</ele><time>2026-05-02T12:29:09.001Z</time></trkpt><trkpt lat="41.178329812532425" lon="14.364795141342782"><ele>194.60000000000002</ele><time>2026-05-02T12:29:10.001Z</time></trkpt><trkpt lat="41.178354764973946" lon="14.364901624597818"><ele>196.20000000000002</ele><time>2026-05-02T12:29:11.001Z</time></trkpt><trkpt lat="41.17838003092372" lon="14.365014501029327"><ele>197.8</ele><time>2026-05-02T12:29:12.001Z</time></trkpt><trkpt lat="41.178419450121815" lon="14.365122322558264"><ele>199.4</ele><time>2026-05-02T12:29:13.001Z</time></trkpt><trkpt lat="41.17846222949408" lon="14.365251538354167"><ele>201.0</ele><time>2026-05-02T12:29:14.001Z</time></trkpt><trkpt lat="41.178497121592905" lon="14.365377588819348"><ele>201.0</ele><time>2026-05-02T12:29:15.001Z</time></trkpt><trkpt lat="41.17851884664832" lon="14.365505087153029"><ele>201.0</ele><time>2026-05-02T12:29:16.001Z</time></trkpt><trkpt lat="41.17853156082574" lon="14.365630243356183"><ele>201.0</ele><time>2026-05-02T12:29:17.002Z</time></trkpt><trkpt lat="41.17853077961186" lon="14.365756579053754"><ele>201.0</ele><time>2026-05-02T12:29:18.002Z</time></trkpt><trkpt lat="41.178517771150425" lon="14.365882301641836"><ele>201.0</ele><time>2026-05-02T12:29:19.002Z</time></trkpt><trkpt lat="41.178491808853686" lon="14.366002582971891"><ele>202.4</ele><time>2026-05-02T12:29:20.002Z</time></trkpt><trkpt lat="41.17846826612162" lon="14.366117362595165"><ele>203.8</ele><time>2026-05-02T12:29:21Z</time></trkpt><trkpt lat="41.178449029795175" lon="14.366230204622331"><ele>205.20000000000002</ele><time>2026-05-02T12:29:22Z</time></trkpt><trkpt lat="41.17842878614571" lon="14.366346536111308"><ele>206.60000000000002</ele><time>2026-05-02T12:29:23Z</time></trkpt><trkpt lat="41.178408506137266" lon="14.36648134804704"><ele>208.0</ele><time>2026-05-02T12:29:24Z</time></trkpt><trkpt lat="41.17839060754822" lon="14.36662137786322"><ele>208.0</ele><time>2026-05-02T12:29:25Z</time></trkpt><trkpt lat="41.178366337645215" lon="14.366765781669002"><ele>208.0</ele><time>2026-05-02T12:29:26Z</time></trkpt><trkpt lat="41.17834577483884" lon="14.366912675473774"><ele>208.0</ele><time>2026-05-02T12:29:27Z</time></trkpt><trkpt lat="41.17832073147865" lon="14.367054632926369"><ele>208.0</ele><time>2026-05-02T12:29:28Z</time></trkpt><trkpt lat="41.1782981455611" lon="14.367203205491464"><ele>208.0</ele><time>2026-05-02T12:29:29Z</time></trkpt><trkpt lat="41.17828198404944" lon="14.367357403231775"><ele>208.0</ele><time>2026-05-02T12:29:30Z</time></trkpt><trkpt lat="41.178263795082884" lon="14.367507879535884"><ele>208.0</ele><time>2026-05-02T12:29:31Z</time></trkpt><trkpt lat="41.178241353946184" lon="14.36765522595744"><ele>208.0</ele><time>2026-05-02T12:29:32Z</time></trkpt><trkpt lat="41.17822003112298" lon="14.367811438919901"><ele>208.0</ele><time>2026-05-02T12:29:33Z</time></trkpt><trkpt lat="41.17819864490353" lon="14.367973745892098"><ele>210.5</ele><time>2026-05-02T12:29:34Z</time></trkpt><trkpt lat="41.17817425987518" lon="14.368131215298698"><ele>213.0</ele><time>2026-05-02T12:29:35Z</time></trkpt><trkpt lat="41.178151313734325" lon="14.36828694070742"><ele>215.5</ele><time>2026-05-02T12:29:36Z</time></trkpt><trkpt lat="41.17813448050099" lon="14.368447258685118"><ele>218.0</ele><time>2026-05-02T12:29:37Z</time></trkpt><trkpt lat="41.17812698029058" lon="14.368607290180535"><ele>218.0</ele><time>2026-05-02T12:29:38Z</time></trkpt><trkpt lat="41.178121499164895" lon="14.36876763746301"><ele>218.0</ele><time>2026-05-02T12:29:39Z</time></trkpt><trkpt lat="41.17811502269477" lon="14.368919849242669"><ele>218.0</ele><time>2026-05-02T12:29:40Z</time></trkpt><trkpt lat="41.17810762106748" lon="14.369048431090116"><ele>218.0</ele><time>2026-05-02T12:29:41Z</time></trkpt><trkpt lat="41.17810096249925" lon="14.369176731916834"><ele>218.0</ele><time>2026-05-02T12:29:42Z</time></trkpt><trkpt lat="41.17809927085153" lon="14.369298264104707"><ele>218.00000000000003</ele><time>2026-05-02T12:29:43Z</time></trkpt><trkpt lat="41.178096576959945" lon="14.369414784823583"><ele>218.0</ele><time>2026-05-02T12:29:44Z</time></trkpt><trkpt lat="41.178107437014646" lon="14.369515338196594"><ele>218.0</ele><time>2026-05-02T12:29:45Z</time></trkpt><trkpt lat="41.17813955825504" lon="14.36960837695822"><ele>218.0</ele><time>2026-05-02T12:29:46Z</time></trkpt><trkpt lat="41.178197775679344" lon="14.369679715783608"><ele>218.00000000000003</ele><time>2026-05-02T12:29:47Z</time></trkpt><trkpt lat="41.1782974714081" lon="14.36974008193568"><ele>218.0</ele><time>2026-05-02T12:29:48Z</time></trkpt><trkpt lat="41.17839866829466" lon="14.369829809704456"><ele>218.0</ele><time>2026-05-02T12:29:49Z</time></trkpt><trkpt lat="41.17851719716348" lon="14.369937170385244"><ele>218.0</ele><time>2026-05-02T12:29:50Z</time></trkpt><trkpt lat="41.17862640499129" lon="14.370031079149577"><ele>218.0</ele><time>2026-05-02T12:29:51Z</time></trkpt><trkpt lat="41.178731482146055" lon="14.370145797337557"><ele>218.0</ele><time>2026-05-02T12:29:52Z</time></trkpt><trkpt lat="41.17881812743571" lon="14.370245693675828"><ele>218.0</ele><time>2026-05-02T12:29:53Z</time></trkpt><trkpt lat="41.17889697963046" lon="14.370358608211063"><ele>218.0</ele><time>2026-05-02T12:29:54Z</time></trkpt><trkpt lat="41.178971961743436" lon="14.370499690627016"><ele>218.0</ele><time>2026-05-02T12:29:55Z</time></trkpt><trkpt lat="41.17903520848148" lon="14.370667371767892"><ele>218.0</ele><time>2026-05-02T12:29:56Z</time></trkpt><trkpt lat="41.179093643863844" lon="14.370849839659051"><ele>217.66666666666669</ele><time>2026-05-02T12:29:57Z</time></trkpt><trkpt lat="41.17914499963731" lon="14.371054876554318"><ele>217.33333333333331</ele><time>2026-05-02T12:29:58Z</time></trkpt><trkpt lat="41.17917682310022" lon="14.371281125841309"><ele>217.0</ele><time>2026-05-02T12:29:59Z</time></trkpt><trkpt lat="41.17919906166094" lon="14.371512459282"><ele>217.0</ele><time>2026-05-02T12:30:00Z</time></trkpt><trkpt lat="41.179224111365926" lon="14.371751781561745"><ele>217.0</ele><time>2026-05-02T12:30:01Z</time></trkpt><trkpt lat="41.17926465895014" lon="14.37199996717096"><ele>217.0</ele><time>2026-05-02T12:30:02Z</time></trkpt><trkpt lat="41.17932224821211" lon="14.372240622066036"><ele>217.0</ele><time>2026-05-02T12:30:03Z</time></trkpt><trkpt lat="41.1793904047618" lon="14.372476971546932"><ele>217.0</ele><time>2026-05-02T12:30:04Z</time></trkpt><trkpt lat="41.17947237493392" lon="14.372695099092882"><ele>217.0</ele><time>2026-05-02T12:30:05Z</time></trkpt><trkpt lat="41.17956592178318" lon="14.372905484650074"><ele>216.66666666666666</ele><time>2026-05-02T12:30:06Z</time></trkpt><trkpt lat="41.179674592492695" lon="14.373108767105427"><ele>216.33333333333331</ele><time>2026-05-02T12:30:07.001Z</time></trkpt><trkpt lat="41.17980508184709" lon="14.373272527133194"><ele>216.0</ele><time>2026-05-02T12:30:08.001Z</time></trkpt><trkpt lat="41.17997317681462" lon="14.373410750468208"><ele>217.0</ele><time>2026-05-02T12:30:09.001Z</time></trkpt><trkpt lat="41.18012847447861" lon="14.373535128908706"><ele>218.0</ele><time>2026-05-02T12:30:10.001Z</time></trkpt><trkpt lat="41.18029551158341" lon="14.37367080239529"><ele>219.0</ele><time>2026-05-02T12:30:11.001Z</time></trkpt><trkpt lat="41.18044814203564" lon="14.373777085988113"><ele>218.75</ele><time>2026-05-02T12:30:12.001Z</time></trkpt><trkpt lat="41.18056044993388" lon="14.373890028708797"><ele>218.5</ele><time>2026-05-02T12:30:13.001Z</time></trkpt><trkpt lat="41.18065802819507" lon="14.374000140147814"><ele>218.25</ele><time>2026-05-02T12:30:14.001Z</time></trkpt><trkpt lat="41.18071462547411" lon="14.374103376879082"><ele>218.0</ele><time>2026-05-02T12:30:15.001Z</time></trkpt><trkpt lat="41.18079813760866" lon="14.374200875352038"><ele>219.0</ele><time>2026-05-02T12:30:16.001Z</time></trkpt><trkpt lat="41.18087877504606" lon="14.374262878498143"><ele>220.0</ele><time>2026-05-02T12:30:17.001Z</time></trkpt><trkpt lat="41.18094370496336" lon="14.374319278740808"><ele>221.0</ele><time>2026-05-02T12:30:18.001Z</time></trkpt><trkpt lat="41.18101869465355" lon="14.374366923795305"><ele>222.0</ele><time>2026-05-02T12:30:19.001Z</time></trkpt><trkpt lat="41.18112049674136" lon="14.374406864422491"><ele>223.0</ele><time>2026-05-02T12:30:20.001Z</time></trkpt><trkpt lat="41.181234443269986" lon="14.374425432945662"><ele>223.0</ele><time>2026-05-02T12:30:21.001Z</time></trkpt><trkpt lat="41.181372524317155" lon="14.37441838439421"><ele>223.0</ele><time>2026-05-02T12:30:22.001Z</time></trkpt><trkpt lat="41.181533047757306" lon="14.374414844369664"><ele>223.0</ele><time>2026-05-02T12:30:23.001Z</time></trkpt><trkpt lat="41.18171123241004" lon="14.374412378491712"><ele>225.0</ele><time>2026-05-02T12:30:24.001Z</time></trkpt><trkpt lat="41.181914747857036" lon="14.374445443919946"><ele>227.0</ele><time>2026-05-02T12:30:25.001Z</time></trkpt><trkpt lat="41.18209843605883" lon="14.374498874197661"><ele>229.0</ele><time>2026-05-02T12:30:26.001Z</time></trkpt><trkpt lat="41.18230715323461" lon="14.374553163844542"><ele>228.66666666666666</ele><time>2026-05-02T12:30:27.001Z</time></trkpt><trkpt lat="41.182501241001574" lon="14.374582169957383"><ele>228.33333333333331</ele><time>2026-05-02T12:30:28.001Z</time></trkpt><trkpt lat="41.18268293723375" lon="14.374607374198057"><ele>228.0</ele><time>2026-05-02T12:30:29.001Z</time></trkpt><trkpt lat="41.1828533760652" lon="14.37459541788993"><ele>228.0</ele><time>2026-05-02T12:30:30.001Z</time></trkpt><trkpt lat="41.18304508790157" lon="14.374551066107239"><ele>228.0</ele><time>2026-05-02T12:30:31.001Z</time></trkpt><trkpt lat="41.18322418492919" lon="14.374491524126821"><ele>228.0</ele><time>2026-05-02T12:30:32.001Z</time></trkpt><trkpt lat="41.18338274467916" lon="14.374438397866983"><ele>226.5</ele><time>2026-05-02T12:30:33.001Z</time></trkpt><trkpt lat="41.183532863338606" lon="14.374382916791461"><ele>225.0</ele><time>2026-05-02T12:30:34.001Z</time></trkpt><trkpt lat="41.18366829202273" lon="14.37433232530773"><ele>223.5</ele><time>2026-05-02T12:30:35.001Z</time></trkpt><trkpt lat="41.18377096212815" lon="14.37429546694026"><ele>222.0</ele><time>2026-05-02T12:30:36.001Z</time></trkpt><trkpt lat="41.18386205547552" lon="14.374265769226708"><ele>222.0</ele><time>2026-05-02T12:30:37.001Z</time></trkpt><trkpt lat="41.18393718808462" lon="14.37422951519115"><ele>222.0</ele><time>2026-05-02T12:30:38.001Z</time></trkpt><trkpt lat="41.18400600337356" lon="14.374277150452535"><ele>222.0</ele><time>2026-05-02T12:30:39.001Z</time></trkpt><trkpt lat="41.1840498651543" lon="14.374363795285701"><ele>222.0</ele><time>2026-05-02T12:30:40.001Z</time></trkpt><trkpt lat="41.18407478329032" lon="14.37449623071135"><ele>222.0</ele><time>2026-05-02T12:30:41.001Z</time></trkpt><trkpt lat="41.184056154820574" lon="14.374669392109977"><ele>224.0</ele><time>2026-05-02T12:30:42.001Z</time></trkpt><trkpt lat="41.18401593377197" lon="14.37487674058687"><ele>226.0</ele><time>2026-05-02T12:30:43.001Z</time></trkpt><trkpt lat="41.183969173441255" lon="14.375109328634007"><ele>228.0</ele><time>2026-05-02T12:30:44.001Z</time></trkpt><trkpt lat="41.183914596428075" lon="14.375360736012322"><ele>228.0</ele><time>2026-05-02T12:30:45.001Z</time></trkpt><trkpt lat="41.183867801371385" lon="14.375623329236124"><ele>228.0</ele><time>2026-05-02T12:30:46.001Z</time></trkpt><trkpt lat="41.183828660895564" lon="14.375875696825384"><ele>228.0</ele><time>2026-05-02T12:30:47.001Z</time></trkpt><trkpt lat="41.18378825099046" lon="14.376126751354683"><ele>226.33333333333331</ele><time>2026-05-02T12:30:48.001Z</time></trkpt><trkpt lat="41.18375638825839" lon="14.376395928960678"><ele>224.66666666666666</ele><time>2026-05-02T12:30:49.001Z</time></trkpt><trkpt lat="41.18375108756791" lon="14.37665134917932"><ele>223.0</ele><time>2026-05-02T12:30:50.001Z</time></trkpt><trkpt lat="41.18376972716171" lon="14.376891489467782"><ele>223.0</ele><time>2026-05-02T12:30:51.001Z</time></trkpt><trkpt lat="41.18379413548169" lon="14.377118041970428"><ele>223.0</ele><time>2026-05-02T12:30:52.001Z</time></trkpt><trkpt lat="41.18383299687799" lon="14.377335151790065"><ele>223.0</ele><time>2026-05-02T12:30:53.001Z</time></trkpt><trkpt lat="41.18389071208663" lon="14.377554370914941"><ele>223.0</ele><time>2026-05-02T12:30:54.001Z</time></trkpt><trkpt lat="41.183975756504694" lon="14.377776184454175"><ele>223.0</ele><time>2026-05-02T12:30:55.001Z</time></trkpt><trkpt lat="41.18406558652856" lon="14.378014285434906"><ele>223.0</ele><time>2026-05-02T12:30:56.001Z</time></trkpt><trkpt lat="41.18414693143255" lon="14.378234236489448"><ele>216.66666666666666</ele><time>2026-05-02T12:30:57.001Z</time></trkpt><trkpt lat="41.18422518122763" lon="14.378443957079478"><ele>210.33333333333331</ele><time>2026-05-02T12:30:58.001Z</time></trkpt><trkpt lat="41.18430377239328" lon="14.37865018701663"><ele>204.0</ele><time>2026-05-02T12:30:59.001Z</time></trkpt><trkpt lat="41.184381720515916" lon="14.378863686648039"><ele>204.0</ele><time>2026-05-02T12:31:00.001Z</time></trkpt><trkpt lat="41.18445302096739" lon="14.3790663841425"><ele>204.0</ele><time>2026-05-02T12:31:01.001Z</time></trkpt><trkpt lat="41.18451072992894" lon="14.379265590279935"><ele>204.0</ele><time>2026-05-02T12:31:02.001Z</time></trkpt><trkpt lat="41.184580000195474" lon="14.379455626886992"><ele>204.0</ele><time>2026-05-02T12:31:03.001Z</time></trkpt><trkpt lat="41.18464163324017" lon="14.379624684865615"><ele>204.0</ele><time>2026-05-02T12:31:04.001Z</time></trkpt><trkpt lat="41.18470144003603" lon="14.379788607258742"><ele>204.0</ele><time>2026-05-02T12:31:05.001Z</time></trkpt><trkpt lat="41.18474889142924" lon="14.379940229683406"><ele>204.0</ele><time>2026-05-02T12:31:06.001Z</time></trkpt><trkpt lat="41.18480067721645" lon="14.380073444117468"><ele>204.2</ele><time>2026-05-02T12:31:07.001Z</time></trkpt><trkpt lat="41.184819895798086" lon="14.380212581238418"><ele>204.39999999999998</ele><time>2026-05-02T12:31:08.001Z</time></trkpt><trkpt lat="41.18481277047622" lon="14.380344433711878"><ele>204.6</ele><time>2026-05-02T12:31:09.001Z</time></trkpt><trkpt lat="41.184774877861095" lon="14.380456253277377"><ele>204.8</ele><time>2026-05-02T12:31:10.001Z</time></trkpt><trkpt lat="41.18469697077505" lon="14.380524170902422"><ele>205.0</ele><time>2026-05-02T12:31:11.001Z</time></trkpt><trkpt lat="41.18459430429413" lon="14.380555400666546"><ele>203.0</ele><time>2026-05-02T12:31:12.001Z</time></trkpt><trkpt lat="41.18446976661888" lon="14.38057494645949"><ele>201.0</ele><time>2026-05-02T12:31:13.001Z</time></trkpt><trkpt lat="41.184340783202366" lon="14.380600757760561"><ele>199.0</ele><time>2026-05-02T12:31:14.001Z</time></trkpt><trkpt lat="41.18423262962875" lon="14.380635458825168"><ele>197.0</ele><time>2026-05-02T12:31:15.001Z</time></trkpt><trkpt lat="41.184143398522785" lon="14.380676599791503"><ele>197.00000000000003</ele><time>2026-05-02T12:31:16.001Z</time></trkpt><trkpt lat="41.18406585611349" lon="14.380735822411404"><ele>197.0</ele><time>2026-05-02T12:31:17.001Z</time></trkpt><trkpt lat="41.184021291319546" lon="14.380824173806001"><ele>197.0</ele><time>2026-05-02T12:31:18.001Z</time></trkpt><trkpt lat="41.18401075244941" lon="14.380907407599572"><ele>197.0</ele><time>2026-05-02T12:31:19.002Z</time></trkpt><trkpt lat="41.18408401570323" lon="14.381027166080084"><ele>197.00000000000003</ele><time>2026-05-02T12:31:21.002Z</time></trkpt><trkpt lat="41.18416558111798" lon="14.381038542858903"><ele>197.0</ele><time>2026-05-02T12:31:22.002Z</time></trkpt><trkpt lat="41.18428613840478" lon="14.38103540010295"><ele>197.0</ele><time>2026-05-02T12:31:23.002Z</time></trkpt><trkpt lat="41.18440564570696" lon="14.38105574981522"><ele>197.0</ele><time>2026-05-02T12:31:24.002Z</time></trkpt><trkpt lat="41.18454912317718" lon="14.381108209117285"><ele>197.0</ele><time>2026-05-02T12:31:25.002Z</time></trkpt><trkpt lat="41.184697300787946" lon="14.381176031307822"><ele>197.0</ele><time>2026-05-02T12:31:26.002Z</time></trkpt><trkpt lat="41.18482775513798" lon="14.381246229539515"><ele>192.66666666666669</ele><time>2026-05-02T12:31:27Z</time></trkpt><trkpt lat="41.184953171865345" lon="14.3813264095724"><ele>188.33333333333334</ele><time>2026-05-02T12:31:28Z</time></trkpt><trkpt lat="41.18508071015621" lon="14.381440635918228"><ele>184.0</ele><time>2026-05-02T12:31:29Z</time></trkpt><trkpt lat="41.185203764852986" lon="14.381594283122197"><ele>184.0</ele><time>2026-05-02T12:31:30Z</time></trkpt><trkpt lat="41.185316596062506" lon="14.381739793430018"><ele>184.0</ele><time>2026-05-02T12:31:31Z</time></trkpt><trkpt lat="41.1854384769822" lon="14.381870345360324"><ele>184.0</ele><time>2026-05-02T12:31:32Z</time></trkpt><trkpt lat="41.185554311153815" lon="14.381979549191573"><ele>178.33333333333334</ele><time>2026-05-02T12:31:33Z</time></trkpt><trkpt lat="41.18570035528108" lon="14.382042768065084"><ele>172.66666666666666</ele><time>2026-05-02T12:31:34Z</time></trkpt><trkpt lat="41.18587563556713" lon="14.3820917535011"><ele>167.0</ele><time>2026-05-02T12:31:35Z</time></trkpt><trkpt lat="41.18607304294977" lon="14.382160103120775"><ele>167.5</ele><time>2026-05-02T12:31:36Z</time></trkpt><trkpt lat="41.18625063551601" lon="14.382209538112553"><ele>168.0</ele><time>2026-05-02T12:31:37Z</time></trkpt><trkpt lat="41.18639412039101" lon="14.382251860074772"><ele>168.5</ele><time>2026-05-02T12:31:38Z</time></trkpt><trkpt lat="41.18649917799041" lon="14.382288191957109"><ele>169.0</ele><time>2026-05-02T12:31:39Z</time></trkpt><trkpt lat="41.186593586956405" lon="14.382333438963096"><ele>169.0</ele><time>2026-05-02T12:31:40Z</time></trkpt><trkpt lat="41.1866718446057" lon="14.382436033059749"><ele>169.0</ele><time>2026-05-02T12:31:41Z</time></trkpt><trkpt lat="41.18673285946602" lon="14.382571622418547"><ele>169.0</ele><time>2026-05-02T12:31:42Z</time></trkpt><trkpt lat="41.18677531772094" lon="14.382746698297966"><ele>169.0</ele><time>2026-05-02T12:31:43Z</time></trkpt><trkpt lat="41.18679451425949" lon="14.382950892449264"><ele>170.6</ele><time>2026-05-02T12:31:44Z</time></trkpt><trkpt lat="41.18679199914985" lon="14.383107830942752"><ele>172.2</ele><time>2026-05-02T12:31:45Z</time></trkpt><trkpt lat="41.18682613007606" lon="14.383238080017893"><ele>173.79999999999998</ele><time>2026-05-02T12:31:46Z</time></trkpt><trkpt lat="41.18689069286815" lon="14.383322380168647"><ele>175.39999999999998</ele><time>2026-05-02T12:31:47Z</time></trkpt><trkpt lat="41.18697338915332" lon="14.383368174285321"><ele>177.0</ele><time>2026-05-02T12:31:48Z</time></trkpt><trkpt lat="41.18707237742361" lon="14.38336045215845"><ele>177.0</ele><time>2026-05-02T12:31:49Z</time></trkpt><trkpt lat="41.1871824036701" lon="14.38330539926767"><ele>177.0</ele><time>2026-05-02T12:31:50Z</time></trkpt><trkpt lat="41.18730900497603" lon="14.383242257252817"><ele>177.0</ele><time>2026-05-02T12:31:51Z</time></trkpt><trkpt lat="41.18744812180989" lon="14.383193357936065"><ele>177.0</ele><time>2026-05-02T12:31:52Z</time></trkpt><trkpt lat="41.18757919468254" lon="14.383154164219807"><ele>176.25</ele><time>2026-05-02T12:31:53Z</time></trkpt><trkpt lat="41.187716378702746" lon="14.383136045107543"><ele>175.5</ele><time>2026-05-02T12:31:54Z</time></trkpt><trkpt lat="41.18786541595964" lon="14.383146264458025"><ele>174.75</ele><time>2026-05-02T12:31:55Z</time></trkpt><trkpt lat="41.188025138305235" lon="14.38318513954547"><ele>174.0</ele><time>2026-05-02T12:31:56Z</time></trkpt><trkpt lat="41.18818972986984" lon="14.383248537201789"><ele>172.66666666666666</ele><time>2026-05-02T12:31:57Z</time></trkpt><trkpt lat="41.18836230972959" lon="14.38333181344801"><ele>171.33333333333331</ele><time>2026-05-02T12:31:58Z</time></trkpt><trkpt lat="41.1885364372142" lon="14.383419943810493"><ele>170.0</ele><time>2026-05-02T12:31:59Z</time></trkpt><trkpt lat="41.188726954473516" lon="14.383515962418066"><ele>170.0</ele><time>2026-05-02T12:32:00Z</time></trkpt><trkpt lat="41.1889138630566" lon="14.383613373470524"><ele>170.0</ele><time>2026-05-02T12:32:01Z</time></trkpt><trkpt lat="41.18909034480324" lon="14.383702492572812"><ele>170.0</ele><time>2026-05-02T12:32:02Z</time></trkpt><trkpt lat="41.189264531643325" lon="14.383789671331101"><ele>170.66666666666666</ele><time>2026-05-02T12:32:03Z</time></trkpt><trkpt lat="41.189436980265796" lon="14.383882682230018"><ele>171.33333333333334</ele><time>2026-05-02T12:32:04Z</time></trkpt><trkpt lat="41.18960914940066" lon="14.383989066337515"><ele>172.0</ele><time>2026-05-02T12:32:05Z</time></trkpt><trkpt lat="41.1897810254008" lon="14.384105145412992"><ele>168.66666666666669</ele><time>2026-05-02T12:32:06Z</time></trkpt><trkpt lat="41.189952915314905" lon="14.384229109630436"><ele>165.33333333333334</ele><time>2026-05-02T12:32:07Z</time></trkpt><trkpt lat="41.19011993146054" lon="14.384349077067908"><ele>162.0</ele><time>2026-05-02T12:32:08Z</time></trkpt><trkpt lat="41.19027532709244" lon="14.384460632472383"><ele>162.0</ele><time>2026-05-02T12:32:09Z</time></trkpt><trkpt lat="41.190428215474135" lon="14.384571737123954"><ele>162.0</ele><time>2026-05-02T12:32:10Z</time></trkpt><trkpt lat="41.190568738916895" lon="14.384684498603834"><ele>162.0</ele><time>2026-05-02T12:32:11Z</time></trkpt><trkpt lat="41.19070327064936" lon="14.384818748396802"><ele>160.33333333333334</ele><time>2026-05-02T12:32:12Z</time></trkpt><trkpt lat="41.190827450987705" lon="14.38497534747742"><ele>158.66666666666669</ele><time>2026-05-02T12:32:13Z</time></trkpt><trkpt lat="41.19095859762545" lon="14.385124186895919"><ele>157.0</ele><time>2026-05-02T12:32:14Z</time></trkpt><trkpt lat="41.19110265508716" lon="14.385261540680983"><ele>157.0</ele><time>2026-05-02T12:32:15Z</time></trkpt><trkpt lat="41.19125543751376" lon="14.385384331551831"><ele>157.0</ele><time>2026-05-02T12:32:16.001Z</time></trkpt><trkpt lat="41.191425055306844" lon="14.38548885723969"><ele>157.0</ele><time>2026-05-02T12:32:17.001Z</time></trkpt><trkpt lat="41.19157508215465" lon="14.385619700081639"><ele>155.66666666666669</ele><time>2026-05-02T12:32:18.001Z</time></trkpt><trkpt lat="41.191731300867346" lon="14.385732237056535"><ele>154.33333333333334</ele><time>2026-05-02T12:32:19.001Z</time></trkpt><trkpt lat="41.19186873456563" lon="14.385833102871587"><ele>153.0</ele><time>2026-05-02T12:32:20.001Z</time></trkpt><trkpt lat="41.19199529160125" lon="14.385907694981926"><ele>153.0</ele><time>2026-05-02T12:32:21.001Z</time></trkpt><trkpt lat="41.19210487026528" lon="14.386006941912736"><ele>153.0</ele><time>2026-05-02T12:32:22.001Z</time></trkpt><trkpt lat="41.192198811155144" lon="14.386121207780292"><ele>153.0</ele><time>2026-05-02T12:32:23.001Z</time></trkpt><trkpt lat="41.19226445470611" lon="14.386270095264344"><ele>153.0</ele><time>2026-05-02T12:32:24.001Z</time></trkpt><trkpt lat="41.19233758462556" lon="14.386434652267798"><ele>151.66666666666666</ele><time>2026-05-02T12:32:25.001Z</time></trkpt><trkpt lat="41.19240824844312" lon="14.386618371860731"><ele>150.33333333333331</ele><time>2026-05-02T12:32:26.001Z</time></trkpt><trkpt lat="41.19248315094455" lon="14.386815925774942"><ele>149.0</ele><time>2026-05-02T12:32:27.001Z</time></trkpt><trkpt lat="41.1925587801596" lon="14.387022774783544"><ele>148.33333333333331</ele><time>2026-05-02T12:32:28.001Z</time></trkpt><trkpt lat="41.192632178435076" lon="14.387237967212812"><ele>147.66666666666666</ele><time>2026-05-02T12:32:29.001Z</time></trkpt><trkpt lat="41.19271711842648" lon="14.38745171596514"><ele>147.0</ele><time>2026-05-02T12:32:30.001Z</time></trkpt><trkpt lat="41.19276128956085" lon="14.387687750490985"><ele>147.0</ele><time>2026-05-02T12:32:31.001Z</time></trkpt><trkpt lat="41.19282209043774" lon="14.387922152456014"><ele>147.0</ele><time>2026-05-02T12:32:32.001Z</time></trkpt><trkpt lat="41.19288414780851" lon="14.38816139799227"><ele>147.0</ele><time>2026-05-02T12:32:33.001Z</time></trkpt><trkpt lat="41.192943943007954" lon="14.388403721912274"><ele>145.0</ele><time>2026-05-02T12:32:34.001Z</time></trkpt><trkpt lat="41.193002252307856" lon="14.388642261885"><ele>143.0</ele><time>2026-05-02T12:32:35.001Z</time></trkpt><trkpt lat="41.19306885612192" lon="14.388880204909045"><ele>141.0</ele><time>2026-05-02T12:32:36.001Z</time></trkpt><trkpt lat="41.19315314039549" lon="14.389115544741397"><ele>140.33333333333334</ele><time>2026-05-02T12:32:37.001Z</time></trkpt><trkpt lat="41.19325654275048" lon="14.389342155772521"><ele>139.66666666666669</ele><time>2026-05-02T12:32:38.001Z</time></trkpt><trkpt lat="41.19336648361125" lon="14.389556205907523"><ele>139.0</ele><time>2026-05-02T12:32:39.001Z</time></trkpt><trkpt lat="41.193478365923376" lon="14.389757640318958"><ele>138.0</ele><time>2026-05-02T12:32:40.001Z</time></trkpt><trkpt lat="41.193586012202836" lon="14.389949150908308"><ele>137.0</ele><time>2026-05-02T12:32:41.001Z</time></trkpt><trkpt lat="41.19368437916879" lon="14.390122153999831"><ele>136.0</ele><time>2026-05-02T12:32:42.001Z</time></trkpt><trkpt lat="41.19376546427833" lon="14.3902768690211"><ele>136.0</ele><time>2026-05-02T12:32:43.001Z</time></trkpt><trkpt lat="41.19383065631374" lon="14.390431330928415"><ele>136.0</ele><time>2026-05-02T12:32:44.001Z</time></trkpt><trkpt lat="41.19387298524725" lon="14.390601808824128"><ele>136.0</ele><time>2026-05-02T12:32:45.001Z</time></trkpt><trkpt lat="41.19388579041033" lon="14.390801448437923"><ele>136.0</ele><time>2026-05-02T12:32:46.001Z</time></trkpt><trkpt lat="41.19390168000976" lon="14.391026488793317"><ele>134.0</ele><time>2026-05-02T12:32:47.001Z</time></trkpt><trkpt lat="41.19390060501681" lon="14.391246660378373"><ele>132.0</ele><time>2026-05-02T12:32:48.001Z</time></trkpt><trkpt lat="41.19391309983737" lon="14.391483368756054"><ele>130.0</ele><time>2026-05-02T12:32:49.001Z</time></trkpt><trkpt lat="41.19393733550021" lon="14.391717565824647"><ele>129.66666666666669</ele><time>2026-05-02T12:32:50.001Z</time></trkpt><trkpt lat="41.19396560260806" lon="14.391941396247763"><ele>129.33333333333334</ele><time>2026-05-02T12:32:51.001Z</time></trkpt><trkpt lat="41.19401341729318" lon="14.392138419721451"><ele>129.0</ele><time>2026-05-02T12:32:52.001Z</time></trkpt><trkpt lat="41.19405614436746" lon="14.392336563594545"><ele>129.0</ele><time>2026-05-02T12:32:53.001Z</time></trkpt><trkpt lat="41.19409893019049" lon="14.392503390081007"><ele>129.0</ele><time>2026-05-02T12:32:54.001Z</time></trkpt><trkpt lat="41.19414179344506" lon="14.39265658156729"><ele>129.0</ele><time>2026-05-02T12:32:55.001Z</time></trkpt><trkpt lat="41.194200481749505" lon="14.392800132580057"><ele>129.0</ele><time>2026-05-02T12:32:56.001Z</time></trkpt><trkpt lat="41.19427068329175" lon="14.392919353014399"><ele>127.25</ele><time>2026-05-02T12:32:57.001Z</time></trkpt><trkpt lat="41.19435938385249" lon="14.393017543919433"><ele>125.5</ele><time>2026-05-02T12:32:58.001Z</time></trkpt><trkpt lat="41.194464559901725" lon="14.393076720146746"><ele>123.75</ele><time>2026-05-02T12:32:59.001Z</time></trkpt><trkpt lat="41.194596972859394" lon="14.39309509766174"><ele>122.0</ele><time>2026-05-02T12:33:00.001Z</time></trkpt><trkpt lat="41.19474557389926" lon="14.393114825063927"><ele>122.25</ele><time>2026-05-02T12:33:01.001Z</time></trkpt><trkpt lat="41.194886859591705" lon="14.393128851884939"><ele>122.5</ele><time>2026-05-02T12:33:02.001Z</time></trkpt><trkpt lat="41.19503246094551" lon="14.393166303414521"><ele>122.75</ele><time>2026-05-02T12:33:03.001Z</time></trkpt><trkpt lat="41.19517501251274" lon="14.393258399481134"><ele>123.0</ele><time>2026-05-02T12:33:04.001Z</time></trkpt><trkpt lat="41.19532554706906" lon="14.393393767246232"><ele>123.0</ele><time>2026-05-02T12:33:05.001Z</time></trkpt><trkpt lat="41.19546069062537" lon="14.39353666111386"><ele>123.0</ele><time>2026-05-02T12:33:06.001Z</time></trkpt><trkpt lat="41.19560748544067" lon="14.393697256895717"><ele>123.0</ele><time>2026-05-02T12:33:07.001Z</time></trkpt><trkpt lat="41.19576117262982" lon="14.393859847243233"><ele>121.0</ele><time>2026-05-02T12:33:08.001Z</time></trkpt><trkpt lat="41.19593642611675" lon="14.39402091990547"><ele>119.0</ele><time>2026-05-02T12:33:09.001Z</time></trkpt><trkpt lat="41.196119746772624" lon="14.39418638298163"><ele>117.0</ele><time>2026-05-02T12:33:10.001Z</time></trkpt><trkpt lat="41.19629414686287" lon="14.394358412751174"><ele>117.0</ele><time>2026-05-02T12:33:11.001Z</time></trkpt><trkpt lat="41.19647785560871" lon="14.394540080372495"><ele>117.0</ele><time>2026-05-02T12:33:12.001Z</time></trkpt><trkpt lat="41.19666496153837" lon="14.394720538916195"><ele>115.5</ele><time>2026-05-02T12:33:13.001Z</time></trkpt><trkpt lat="41.19686118352746" lon="14.39490905513796"><ele>114.0</ele><time>2026-05-02T12:33:14.001Z</time></trkpt><trkpt lat="41.1970456180464" lon="14.395091808329717"><ele>114.0</ele><time>2026-05-02T12:33:15.001Z</time></trkpt><trkpt lat="41.19723744072956" lon="14.39530374359258"><ele>114.0</ele><time>2026-05-02T12:33:16.001Z</time></trkpt><trkpt lat="41.19741164694014" lon="14.395482203127193"><ele>111.33333333333334</ele><time>2026-05-02T12:33:17.001Z</time></trkpt><trkpt lat="41.19757789771165" lon="14.395651661037697"><ele>108.66666666666667</ele><time>2026-05-02T12:33:18.001Z</time></trkpt><trkpt lat="41.197749597572255" lon="14.395829570178295"><ele>106.0</ele><time>2026-05-02T12:33:19.001Z</time></trkpt><trkpt lat="41.19788791636438" lon="14.39597666800453"><ele>106.0</ele><time>2026-05-02T12:33:20.001Z</time></trkpt><trkpt lat="41.19803210165439" lon="14.396103388509525"><ele>106.0</ele><time>2026-05-02T12:33:21.001Z</time></trkpt><trkpt lat="41.19819050841248" lon="14.396226731126772"><ele>106.0</ele><time>2026-05-02T12:33:22.001Z</time></trkpt><trkpt lat="41.198358584616344" lon="14.396316568174448"><ele>105.0</ele><time>2026-05-02T12:33:23.001Z</time></trkpt><trkpt lat="41.19854870444897" lon="14.396394727658503"><ele>104.0</ele><time>2026-05-02T12:33:24.001Z</time></trkpt><trkpt lat="41.198741071091035" lon="14.396453929214037"><ele>103.0</ele><time>2026-05-02T12:33:25.001Z</time></trkpt><trkpt lat="41.19892558064003" lon="14.396486285033948"><ele>103.33333333333334</ele><time>2026-05-02T12:33:26.001Z</time></trkpt><trkpt lat="41.199079972923734" lon="14.396535254106583"><ele>103.66666666666666</ele><time>2026-05-02T12:33:27.001Z</time></trkpt><trkpt lat="41.199231055627415" lon="14.396616839346391"><ele>104.0</ele><time>2026-05-02T12:33:28.001Z</time></trkpt><trkpt lat="41.199391160214205" lon="14.396680532868157"><ele>104.0</ele><time>2026-05-02T12:33:29.002Z</time></trkpt><trkpt lat="41.199544044826446" lon="14.396774568814495"><ele>104.0</ele><time>2026-05-02T12:33:30.002Z</time></trkpt><trkpt lat="41.19968629974681" lon="14.396883763317447"><ele>104.0</ele><time>2026-05-02T12:33:31.002Z</time></trkpt><trkpt lat="41.199831319958214" lon="14.397025040701784"><ele>102.0</ele><time>2026-05-02T12:33:32.002Z</time></trkpt><trkpt lat="41.199998032893006" lon="14.397191264315879"><ele>100.0</ele><time>2026-05-02T12:33:33Z</time></trkpt><trkpt lat="41.20016351835406" lon="14.397352989071413"><ele>98.0</ele><time>2026-05-02T12:33:34Z</time></trkpt><trkpt lat="41.20033592251333" lon="14.39752230745251"><ele>98.0</ele><time>2026-05-02T12:33:35Z</time></trkpt><trkpt lat="41.200511476756304" lon="14.397693323988314"><ele>98.0</ele><time>2026-05-02T12:33:36Z</time></trkpt><trkpt lat="41.20069041175725" lon="14.397870631002705"><ele>98.0</ele><time>2026-05-02T12:33:37Z</time></trkpt><trkpt lat="41.200872955857186" lon="14.398046507624832"><ele>94.5</ele><time>2026-05-02T12:33:38Z</time></trkpt><trkpt lat="41.20105858815522" lon="14.39822494223009"><ele>91.0</ele><time>2026-05-02T12:33:39Z</time></trkpt><trkpt lat="41.20124104470557" lon="14.39840226423086"><ele>91.0</ele><time>2026-05-02T12:33:40Z</time></trkpt><trkpt lat="41.20142208705934" lon="14.398576502145827"><ele>91.0</ele><time>2026-05-02T12:33:41Z</time></trkpt><trkpt lat="41.20160219442999" lon="14.398750206912164"><ele>91.0</ele><time>2026-05-02T12:33:42Z</time></trkpt><trkpt lat="41.20178632149492" lon="14.398929230325951"><ele>90.0</ele><time>2026-05-02T12:33:43Z</time></trkpt><trkpt lat="41.201965922081506" lon="14.3991128993503"><ele>89.0</ele><time>2026-05-02T12:33:44Z</time></trkpt><trkpt lat="41.202140407256664" lon="14.399294717342368"><ele>88.0</ele><time>2026-05-02T12:33:45Z</time></trkpt><trkpt lat="41.20230962234557" lon="14.399483772778963"><ele>87.33333333333333</ele><time>2026-05-02T12:33:46Z</time></trkpt><trkpt lat="41.20246107851317" lon="14.399685334567701"><ele>86.66666666666667</ele><time>2026-05-02T12:33:47Z</time></trkpt><trkpt lat="41.202599955116895" lon="14.399896187737733"><ele>86.0</ele><time>2026-05-02T12:33:48Z</time></trkpt><trkpt lat="41.2027372783253" lon="14.40009485061193"><ele>86.0</ele><time>2026-05-02T12:33:49Z</time></trkpt><trkpt lat="41.20287910961144" lon="14.400295331243155"><ele>86.0</ele><time>2026-05-02T12:33:50Z</time></trkpt><trkpt lat="41.20301459367478" lon="14.40049651648123"><ele>86.0</ele><time>2026-05-02T12:33:51Z</time></trkpt><trkpt lat="41.203154734237884" lon="14.40069501647862"><ele>86.66666666666667</ele><time>2026-05-02T12:33:52Z</time></trkpt><trkpt lat="41.203287326507365" lon="14.400874402663401"><ele>87.33333333333333</ele><time>2026-05-02T12:33:53Z</time></trkpt><trkpt lat="41.203404226170214" lon="14.401046066727725"><ele>88.0</ele><time>2026-05-02T12:33:54Z</time></trkpt><trkpt lat="41.20352522560731" lon="14.401214901893198"><ele>88.66666666666666</ele><time>2026-05-02T12:33:55Z</time></trkpt><trkpt lat="41.203644172285735" lon="14.401379471566898"><ele>89.33333333333333</ele><time>2026-05-02T12:33:56Z</time></trkpt><trkpt lat="41.203769849288186" lon="14.401550141191636"><ele>90.0</ele><time>2026-05-02T12:33:57Z</time></trkpt><trkpt lat="41.20388574450104" lon="14.401713645370224"><ele>90.0</ele><time>2026-05-02T12:33:58Z</time></trkpt><trkpt lat="41.203995466947276" lon="14.401867150078013"><ele>90.0</ele><time>2026-05-02T12:33:59Z</time></trkpt><trkpt lat="41.204087244229285" lon="14.402030573742776"><ele>90.0</ele><time>2026-05-02T12:34:00Z</time></trkpt><trkpt lat="41.20420027070448" lon="14.402193757003014"><ele>89.33333333333333</ele><time>2026-05-02T12:34:01Z</time></trkpt><trkpt lat="41.20431402815968" lon="14.402357660313807"><ele>88.66666666666666</ele><time>2026-05-02T12:34:02Z</time></trkpt><trkpt lat="41.20443093041157" lon="14.402525980659881"><ele>88.0</ele><time>2026-05-02T12:34:03Z</time></trkpt><trkpt lat="41.204548537463324" lon="14.4026953157722"><ele>88.0</ele><time>2026-05-02T12:34:04Z</time></trkpt><trkpt lat="41.204672798765074" lon="14.402874232037712"><ele>88.0</ele><time>2026-05-02T12:34:05Z</time></trkpt><trkpt lat="41.20479935709207" lon="14.403056456506137"><ele>88.0</ele><time>2026-05-02T12:34:06Z</time></trkpt><trkpt lat="41.20491786691812" lon="14.403229753973966"><ele>87.33333333333333</ele><time>2026-05-02T12:34:07Z</time></trkpt><trkpt lat="41.205039203719934" lon="14.4034075886317"><ele>86.66666666666667</ele><time>2026-05-02T12:34:08Z</time></trkpt><trkpt lat="41.205160581330155" lon="14.403591597862892"><ele>86.0</ele><time>2026-05-02T12:34:09Z</time></trkpt><trkpt lat="41.20528487367708" lon="14.403771297086804"><ele>86.66666666666667</ele><time>2026-05-02T12:34:10Z</time></trkpt><trkpt lat="41.20540110971066" lon="14.40396911464043"><ele>87.33333333333333</ele><time>2026-05-02T12:34:11Z</time></trkpt><trkpt lat="41.20551117346912" lon="14.404168459703442"><ele>88.0</ele><time>2026-05-02T12:34:12Z</time></trkpt><trkpt lat="41.20562198743097" lon="14.404362476487988"><ele>87.66666666666666</ele><time>2026-05-02T12:34:13Z</time></trkpt><trkpt lat="41.20572721079608" lon="14.404552287956879"><ele>87.33333333333333</ele><time>2026-05-02T12:34:14Z</time></trkpt><trkpt lat="41.20583383325644" lon="14.404747411342491"><ele>87.0</ele><time>2026-05-02T12:34:15Z</time></trkpt><trkpt lat="41.20594107060677" lon="14.404941718013747"><ele>87.0</ele><time>2026-05-02T12:34:16Z</time></trkpt><trkpt lat="41.20604669250158" lon="14.405121088904954"><ele>87.0</ele><time>2026-05-02T12:34:17Z</time></trkpt><trkpt lat="41.20613793211893" lon="14.40530901438774"><ele>87.0</ele><time>2026-05-02T12:34:18Z</time></trkpt><trkpt lat="41.20622654657212" lon="14.405509447457696"><ele>88.33333333333333</ele><time>2026-05-02T12:34:19Z</time></trkpt><trkpt lat="41.20631101220458" lon="14.405720189452285"><ele>89.66666666666666</ele><time>2026-05-02T12:34:20.001Z</time></trkpt><trkpt lat="41.20638811215397" lon="14.405932591054738"><ele>91.0</ele><time>2026-05-02T12:34:21.001Z</time></trkpt><trkpt lat="41.206464463533756" lon="14.406154614257886"><ele>88.0</ele><time>2026-05-02T12:34:22.001Z</time></trkpt><trkpt lat="41.20653625128679" lon="14.406378997674397"><ele>85.0</ele><time>2026-05-02T12:34:23.001Z</time></trkpt><trkpt lat="41.20659996383932" lon="14.406593993497555"><ele>82.0</ele><time>2026-05-02T12:34:24.001Z</time></trkpt><trkpt lat="41.20666353039186" lon="14.406790775773992"><ele>82.0</ele><time>2026-05-02T12:34:25.001Z</time></trkpt><trkpt lat="41.20672059463009" lon="14.40695715710316"><ele>82.0</ele><time>2026-05-02T12:34:26.001Z</time></trkpt><trkpt lat="41.20677580503594" lon="14.407131304206422"><ele>82.0</ele><time>2026-05-02T12:34:27.001Z</time></trkpt><trkpt lat="41.20686615029048" lon="14.407259534143533"><ele>82.0</ele><time>2026-05-02T12:34:28.001Z</time></trkpt><trkpt lat="41.206974393807734" lon="14.407366030100247"><ele>82.0</ele><time>2026-05-02T12:34:29.001Z</time></trkpt><trkpt lat="41.20710401414824" lon="14.407459982596798"><ele>82.0</ele><time>2026-05-02T12:34:30.001Z</time></trkpt><trkpt lat="41.20724798820666" lon="14.407540026036651"><ele>82.0</ele><time>2026-05-02T12:34:31.001Z</time></trkpt><trkpt lat="41.207398653723956" lon="14.40760651763723"><ele>82.0</ele><time>2026-05-02T12:34:32.001Z</time></trkpt><trkpt lat="41.20756801788015" lon="14.407654716305183"><ele>82.0</ele><time>2026-05-02T12:34:33.001Z</time></trkpt><trkpt lat="41.20773850038172" lon="14.407699845644531"><ele>82.0</ele><time>2026-05-02T12:34:34.001Z</time></trkpt><trkpt lat="41.20789410638495" lon="14.407756232254181"><ele>82.0</ele><time>2026-05-02T12:34:35.001Z</time></trkpt><trkpt lat="41.208045250251246" lon="14.407782508487378"><ele>82.0</ele><time>2026-05-02T12:34:36.001Z</time></trkpt><trkpt lat="41.20818168340235" lon="14.407825944791778"><ele>82.0</ele><time>2026-05-02T12:34:37.001Z</time></trkpt><trkpt lat="41.20831514593798" lon="14.407891945976699"><ele>82.0</ele><time>2026-05-02T12:34:38.001Z</time></trkpt><trkpt lat="41.208445648223886" lon="14.407980098207284"><ele>80.25</ele><time>2026-05-02T12:34:39.001Z</time></trkpt><trkpt lat="41.20855937955253" lon="14.408085054591481"><ele>78.5</ele><time>2026-05-02T12:34:40.001Z</time></trkpt><trkpt lat="41.20866142775721" lon="14.40818886237532"><ele>76.75</ele><time>2026-05-02T12:34:41.001Z</time></trkpt><trkpt lat="41.208756674205816" lon="14.40828992185959"><ele>75.0</ele><time>2026-05-02T12:34:42.001Z</time></trkpt><trkpt lat="41.20884585906386" lon="14.408386799534387"><ele>75.0</ele><time>2026-05-02T12:34:43.001Z</time></trkpt><trkpt lat="41.2089379073107" lon="14.408483688320757"><ele>75.0</ele><time>2026-05-02T12:34:44.001Z</time></trkpt><trkpt lat="41.209032846704105" lon="14.408563746884283"><ele>75.0</ele><time>2026-05-02T12:34:45.001Z</time></trkpt><trkpt lat="41.20913030420797" lon="14.408612908372996"><ele>75.0</ele><time>2026-05-02T12:34:46.001Z</time></trkpt><trkpt lat="41.209243608588444" lon="14.40864058597817"><ele>75.0</ele><time>2026-05-02T12:34:47.001Z</time></trkpt><trkpt lat="41.209358385075" lon="14.408640266930776"><ele>74.2</ele><time>2026-05-02T12:34:48.001Z</time></trkpt><trkpt lat="41.20946964259801" lon="14.408631875746678"><ele>73.4</ele><time>2026-05-02T12:34:49.001Z</time></trkpt><trkpt lat="41.20957144953662" lon="14.408630909260983"><ele>72.6</ele><time>2026-05-02T12:34:50.001Z</time></trkpt><trkpt lat="41.20966028088528" lon="14.408632991655235"><ele>71.8</ele><time>2026-05-02T12:34:51.001Z</time></trkpt><trkpt lat="41.20973810665786" lon="14.40863963874481"><ele>71.0</ele><time>2026-05-02T12:34:52.001Z</time></trkpt><trkpt lat="41.2098155264715" lon="14.408644164656698"><ele>71.0</ele><time>2026-05-02T12:34:53.001Z</time></trkpt><trkpt lat="41.20988463736009" lon="14.408639507102853"><ele>71.0</ele><time>2026-05-02T12:34:54.001Z</time></trkpt><trkpt lat="41.20995898184491" lon="14.408639438885183"><ele>71.0</ele><time>2026-05-02T12:34:55.001Z</time></trkpt><trkpt lat="41.210023421078624" lon="14.408640082783432"><ele>71.0</ele><time>2026-05-02T12:34:56.001Z</time></trkpt><trkpt lat="41.210091715314334" lon="14.40863812325386"><ele>71.0</ele><time>2026-05-02T12:34:57.001Z</time></trkpt><trkpt lat="41.21022363153263" lon="14.408637146881548"><ele>71.0</ele><time>2026-05-02T12:34:59.001Z</time></trkpt><trkpt lat="41.21028800561496" lon="14.408663116091317"><ele>71.0</ele><time>2026-05-02T12:35:00.001Z</time></trkpt><trkpt lat="41.21035249063571" lon="14.408678091958881"><ele>71.0</ele><time>2026-05-02T12:35:01.001Z</time></trkpt><trkpt lat="41.21043059855388" lon="14.408712063411489"><ele>71.0</ele><time>2026-05-02T12:35:02.001Z</time></trkpt><trkpt lat="41.21050210300892" lon="14.40878109510713"><ele>71.0</ele><time>2026-05-02T12:35:03.001Z</time></trkpt><trkpt lat="41.21055618236305" lon="14.408864902967514"><ele>71.0</ele><time>2026-05-02T12:35:04.001Z</time></trkpt><trkpt lat="41.210611560397716" lon="14.408967267206204"><ele>71.0</ele><time>2026-05-02T12:35:05.001Z</time></trkpt><trkpt lat="41.210661205148114" lon="14.409076582510474"><ele>70.8</ele><time>2026-05-02T12:35:06.001Z</time></trkpt><trkpt lat="41.21070154751721" lon="14.40919497621039"><ele>70.6</ele><time>2026-05-02T12:35:07.001Z</time></trkpt><trkpt lat="41.21075329690339" lon="14.409307964223359"><ele>70.4</ele><time>2026-05-02T12:35:08.001Z</time></trkpt><trkpt lat="41.210792251539495" lon="14.409437767172683"><ele>70.2</ele><time>2026-05-02T12:35:09.001Z</time></trkpt><trkpt lat="41.21082094348869" lon="14.409570382602082"><ele>70.0</ele><time>2026-05-02T12:35:10.001Z</time></trkpt><trkpt lat="41.21084794608846" lon="14.409704032804047"><ele>70.0</ele><time>2026-05-02T12:35:11.001Z</time></trkpt><trkpt lat="41.21086797070152" lon="14.409848248469974"><ele>70.0</ele><time>2026-05-02T12:35:12.001Z</time></trkpt><trkpt lat="41.21088191995594" lon="14.409995756028191"><ele>70.0</ele><time>2026-05-02T12:35:13.001Z</time></trkpt><trkpt lat="41.21090381931731" lon="14.410148953756106"><ele>70.0</ele><time>2026-05-02T12:35:14.001Z</time></trkpt><trkpt lat="41.21092171975159" lon="14.410302473867768"><ele>70.0</ele><time>2026-05-02T12:35:15.001Z</time></trkpt><trkpt lat="41.21093769321149" lon="14.410454685563243"><ele>70.0</ele><time>2026-05-02T12:35:16.001Z</time></trkpt><trkpt lat="41.21096391636636" lon="14.410608539962498"><ele>70.0</ele><time>2026-05-02T12:35:17.001Z</time></trkpt><trkpt lat="41.21100970027727" lon="14.410748801191515"><ele>70.0</ele><time>2026-05-02T12:35:18.001Z</time></trkpt><trkpt lat="41.21108580834276" lon="14.410871279701704"><ele>69.0</ele><time>2026-05-02T12:35:19.001Z</time></trkpt><trkpt lat="41.211189699895904" lon="14.41098199749221"><ele>68.0</ele><time>2026-05-02T12:35:20.001Z</time></trkpt><trkpt lat="41.21129879624616" lon="14.411067053980304"><ele>67.0</ele><time>2026-05-02T12:35:21.001Z</time></trkpt><trkpt lat="41.211425516708246" lon="14.41113549532107"><ele>66.0</ele><time>2026-05-02T12:35:22.001Z</time></trkpt><trkpt lat="41.211553549705634" lon="14.41121472052524"><ele>65.5</ele><time>2026-05-02T12:35:23.001Z</time></trkpt><trkpt lat="41.21166837907775" lon="14.41130149044034"><ele>65.0</ele><time>2026-05-02T12:35:24.001Z</time></trkpt><trkpt lat="41.21177925559322" lon="14.411396026590579"><ele>64.5</ele><time>2026-05-02T12:35:25.001Z</time></trkpt><trkpt lat="41.21188232464518" lon="14.411485474340461"><ele>64.0</ele><time>2026-05-02T12:35:26.001Z</time></trkpt><trkpt lat="41.211973403429276" lon="14.411571781134068"><ele>65.60000000000001</ele><time>2026-05-02T12:35:27.001Z</time></trkpt><trkpt lat="41.21203819697236" lon="14.411646154741115"><ele>67.2</ele><time>2026-05-02T12:35:28.001Z</time></trkpt><trkpt lat="41.212086707637894" lon="14.4117776698959"><ele>68.80000000000001</ele><time>2026-05-02T12:35:29.001Z</time></trkpt><trkpt lat="41.21210122884879" lon="14.411911835903515"><ele>70.4</ele><time>2026-05-02T12:35:30.001Z</time></trkpt><trkpt lat="41.21209418727633" lon="14.41206730081051"><ele>72.0</ele><time>2026-05-02T12:35:31.001Z</time></trkpt><trkpt lat="41.21207594148034" lon="14.412231893564165"><ele>74.0</ele><time>2026-05-02T12:35:32.001Z</time></trkpt><trkpt lat="41.212058783441975" lon="14.412413546965805"><ele>76.0</ele><time>2026-05-02T12:35:33.002Z</time></trkpt><trkpt lat="41.21204156180813" lon="14.412598774286636"><ele>78.0</ele><time>2026-05-02T12:35:34.002Z</time></trkpt><trkpt lat="41.21203203402122" lon="14.412773435331351"><ele>80.0</ele><time>2026-05-02T12:35:35.002Z</time></trkpt><trkpt lat="41.21200808921065" lon="14.412974674181545"><ele>81.33333333333334</ele><time>2026-05-02T12:35:36.002Z</time></trkpt><trkpt lat="41.21198953569293" lon="14.413173102528583"><ele>82.66666666666667</ele><time>2026-05-02T12:35:37.002Z</time></trkpt><trkpt lat="41.21197528423198" lon="14.413372903590274"><ele>84.0</ele><time>2026-05-02T12:35:38.002Z</time></trkpt><trkpt lat="41.21194962242555" lon="14.41356910572032"><ele>84.0</ele><time>2026-05-02T12:35:39Z</time></trkpt><trkpt lat="41.211930386220004" lon="14.413768490200937"><ele>84.0</ele><time>2026-05-02T12:35:40Z</time></trkpt><trkpt lat="41.21191248348749" lon="14.413945560374819"><ele>84.0</ele><time>2026-05-02T12:35:41Z</time></trkpt><trkpt lat="41.211899497151435" lon="14.414118692485118"><ele>84.0</ele><time>2026-05-02T12:35:42Z</time></trkpt><trkpt lat="41.21188835890504" lon="14.414284789921005"><ele>83.75</ele><time>2026-05-02T12:35:43Z</time></trkpt><trkpt lat="41.21186759662275" lon="14.414464086743711"><ele>83.5</ele><time>2026-05-02T12:35:44Z</time></trkpt><trkpt lat="41.21184515969315" lon="14.414644067350668"><ele>83.25</ele><time>2026-05-02T12:35:45Z</time></trkpt><trkpt lat="41.21180323786452" lon="14.414839522402602"><ele>83.0</ele><time>2026-05-02T12:35:46Z</time></trkpt><trkpt lat="41.211750920161066" lon="14.415037647961515"><ele>82.33333333333334</ele><time>2026-05-02T12:35:47Z</time></trkpt><trkpt lat="41.21168661726573" lon="14.415244092753461"><ele>81.66666666666667</ele><time>2026-05-02T12:35:48Z</time></trkpt><trkpt lat="41.211607903710174" lon="14.415439835874453"><ele>81.0</ele><time>2026-05-02T12:35:49Z</time></trkpt><trkpt lat="41.21152839563808" lon="14.415631311629255"><ele>78.66666666666667</ele><time>2026-05-02T12:35:50Z</time></trkpt><trkpt lat="41.211452665637424" lon="14.415825425133045"><ele>76.33333333333334</ele><time>2026-05-02T12:35:51Z</time></trkpt><trkpt lat="41.21137774804465" lon="14.416017507722037"><ele>74.0</ele><time>2026-05-02T12:35:52Z</time></trkpt><trkpt lat="41.21130807834731" lon="14.416196955070783"><ele>72.0</ele><time>2026-05-02T12:35:53Z</time></trkpt><trkpt lat="41.21124432696709" lon="14.41636818313998"><ele>70.0</ele><time>2026-05-02T12:35:54Z</time></trkpt><trkpt lat="41.21119097901607" lon="14.416554367896136"><ele>68.0</ele><time>2026-05-02T12:35:55Z</time></trkpt><trkpt lat="41.21115045609498" lon="14.41676623238485"><ele>68.0</ele><time>2026-05-02T12:35:56Z</time></trkpt><trkpt lat="41.211124468632406" lon="14.417006432884353"><ele>68.0</ele><time>2026-05-02T12:35:57Z</time></trkpt><trkpt lat="41.211122550363775" lon="14.417260918525413"><ele>68.0</ele><time>2026-05-02T12:35:58Z</time></trkpt><trkpt lat="41.211114575146496" lon="14.417542996618137"><ele>66.66666666666667</ele><time>2026-05-02T12:35:59Z</time></trkpt><trkpt lat="41.21110077552741" lon="14.417830584176354"><ele>65.33333333333333</ele><time>2026-05-02T12:36:00Z</time></trkpt><trkpt lat="41.2110924447105" lon="14.41807009587351"><ele>64.0</ele><time>2026-05-02T12:36:01Z</time></trkpt><trkpt lat="41.21108071811641" lon="14.41829453550812"><ele>63.25</ele><time>2026-05-02T12:36:02Z</time></trkpt><trkpt lat="41.21107804455447" lon="14.418507207517326"><ele>62.5</ele><time>2026-05-02T12:36:03Z</time></trkpt><trkpt lat="41.21107628183433" lon="14.418687825936983"><ele>61.75</ele><time>2026-05-02T12:36:04Z</time></trkpt><trkpt lat="41.21108781848043" lon="14.418863501039128"><ele>61.0</ele><time>2026-05-02T12:36:05Z</time></trkpt><trkpt lat="41.21113216734588" lon="14.419044609462349"><ele>60.0</ele><time>2026-05-02T12:36:06Z</time></trkpt><trkpt lat="41.211209738963966" lon="14.419274656342383"><ele>59.0</ele><time>2026-05-02T12:36:07Z</time></trkpt><trkpt lat="41.21129211251648" lon="14.419486379864379"><ele>58.0</ele><time>2026-05-02T12:36:08Z</time></trkpt><trkpt lat="41.21140494832944" lon="14.419690576271273"><ele>59.33333333333333</ele><time>2026-05-02T12:36:09Z</time></trkpt><trkpt lat="41.21153899762371" lon="14.419890772208888"><ele>60.66666666666667</ele><time>2026-05-02T12:36:10Z</time></trkpt><trkpt lat="41.21167961013651" lon="14.420097912043888"><ele>62.0</ele><time>2026-05-02T12:36:11Z</time></trkpt><trkpt lat="41.211819426217446" lon="14.420272047043072"><ele>62.0</ele><time>2026-05-02T12:36:12Z</time></trkpt><trkpt lat="41.2119463070928" lon="14.420428380307213"><ele>62.0</ele><time>2026-05-02T12:36:13Z</time></trkpt><trkpt lat="41.212049547332064" lon="14.420580020960093"><ele>62.0</ele><time>2026-05-02T12:36:14Z</time></trkpt><trkpt lat="41.21214041641127" lon="14.420730635903714"><ele>60.5</ele><time>2026-05-02T12:36:15Z</time></trkpt><trkpt lat="41.212203114951976" lon="14.42088479300767"><ele>59.0</ele><time>2026-05-02T12:36:16Z</time></trkpt><trkpt lat="41.21223331339413" lon="14.421037114743424"><ele>57.5</ele><time>2026-05-02T12:36:17Z</time></trkpt><trkpt lat="41.21225399626281" lon="14.42124306693373"><ele>56.0</ele><time>2026-05-02T12:36:18Z</time></trkpt><trkpt lat="41.21227697869584" lon="14.421463822575515"><ele>55.66666666666667</ele><time>2026-05-02T12:36:19Z</time></trkpt><trkpt lat="41.21230319101347" lon="14.42170284955462"><ele>55.33333333333333</ele><time>2026-05-02T12:36:20Z</time></trkpt><trkpt lat="41.21233492375308" lon="14.421944589710657"><ele>55.0</ele><time>2026-05-02T12:36:21Z</time></trkpt><trkpt lat="41.212362906436816" lon="14.422183460338383"><ele>58.33333333333333</ele><time>2026-05-02T12:36:22Z</time></trkpt><trkpt lat="41.212389646158236" lon="14.422434001486453"><ele>61.66666666666667</ele><time>2026-05-02T12:36:23Z</time></trkpt><trkpt lat="41.21244696369845" lon="14.422692541215797"><ele>65.0</ele><time>2026-05-02T12:36:24Z</time></trkpt><trkpt lat="41.21251127639118" lon="14.42296766791893"><ele>62.333333333333336</ele><time>2026-05-02T12:36:25Z</time></trkpt><trkpt lat="41.21258061134999" lon="14.423257491329238"><ele>59.66666666666667</ele><time>2026-05-02T12:36:26Z</time></trkpt><trkpt lat="41.212647488953884" lon="14.423536975821621"><ele>57.0</ele><time>2026-05-02T12:36:27Z</time></trkpt><trkpt lat="41.21270986930621" lon="14.42379680656695"><ele>55.33333333333333</ele><time>2026-05-02T12:36:28Z</time></trkpt><trkpt lat="41.2127686413005" lon="14.424041607209068"><ele>53.666666666666664</ele><time>2026-05-02T12:36:29Z</time></trkpt><trkpt lat="41.21282120715491" lon="14.424262436534057"><ele>52.0</ele><time>2026-05-02T12:36:30Z</time></trkpt><trkpt lat="41.21288491701529" lon="14.424461307861678"><ele>51.5</ele><time>2026-05-02T12:36:31Z</time></trkpt><trkpt lat="41.2129217598568" lon="14.424646242135324"><ele>51.0</ele><time>2026-05-02T12:36:32Z</time></trkpt><trkpt lat="41.21294360726484" lon="14.42482069125979"><ele>50.5</ele><time>2026-05-02T12:36:33.001Z</time></trkpt><trkpt lat="41.21293397788517" lon="14.425016747479207"><ele>50.0</ele><time>2026-05-02T12:36:34.001Z</time></trkpt><trkpt lat="41.21287481896231" lon="14.425209747216169"><ele>50.0</ele><time>2026-05-02T12:36:35.001Z</time></trkpt><trkpt lat="41.21281624000561" lon="14.425420450734855"><ele>50.0</ele><time>2026-05-02T12:36:36.001Z</time></trkpt><trkpt lat="41.21272621818486" lon="14.425633079561909"><ele>50.0</ele><time>2026-05-02T12:36:37.001Z</time></trkpt><trkpt lat="41.21264387547006" lon="14.425864664793828"><ele>50.333333333333336</ele><time>2026-05-02T12:36:38.001Z</time></trkpt><trkpt lat="41.2125720625622" lon="14.426085999401531"><ele>50.66666666666667</ele><time>2026-05-02T12:36:39.001Z</time></trkpt><trkpt lat="41.21252455396078" lon="14.426282074808658"><ele>51.0</ele><time>2026-05-02T12:36:40.001Z</time></trkpt><trkpt lat="41.2125040824736" lon="14.426468427020612"><ele>51.33333333333333</ele><time>2026-05-02T12:36:41.001Z</time></trkpt><trkpt lat="41.21252205283519" lon="14.426654820053473"><ele>51.666666666666664</ele><time>2026-05-02T12:36:42.001Z</time></trkpt><trkpt lat="41.21256716585454" lon="14.42685550920213"><ele>52.0</ele><time>2026-05-02T12:36:43.001Z</time></trkpt><trkpt lat="41.21260109710174" lon="14.427084714214901"><ele>53.33333333333333</ele><time>2026-05-02T12:36:44.001Z</time></trkpt><trkpt lat="41.21265189104043" lon="14.427300426935503"><ele>54.66666666666667</ele><time>2026-05-02T12:36:45.001Z</time></trkpt><trkpt lat="41.21265894225762" lon="14.4274953352648"><ele>56.0</ele><time>2026-05-02T12:36:46.001Z</time></trkpt><trkpt lat="41.212642584355244" lon="14.427675570534687"><ele>56.0</ele><time>2026-05-02T12:36:47.001Z</time></trkpt><trkpt lat="41.2125987513791" lon="14.427867741909537"><ele>56.0</ele><time>2026-05-02T12:36:48.001Z</time></trkpt><trkpt lat="41.21253118883419" lon="14.42806858701306"><ele>56.0</ele><time>2026-05-02T12:36:49.001Z</time></trkpt><trkpt lat="41.21248855317788" lon="14.42828582664892"><ele>56.0</ele><time>2026-05-02T12:36:50.001Z</time></trkpt><trkpt lat="41.212480820878355" lon="14.428514798556293"><ele>56.0</ele><time>2026-05-02T12:36:51.001Z</time></trkpt><trkpt lat="41.21249062370586" lon="14.428747381447725"><ele>56.0</ele><time>2026-05-02T12:36:52.001Z</time></trkpt><trkpt lat="41.21249211652622" lon="14.428986228266334"><ele>56.0</ele><time>2026-05-02T12:36:53.001Z</time></trkpt><trkpt lat="41.21248214659901" lon="14.42922055775215"><ele>56.0</ele><time>2026-05-02T12:36:54.001Z</time></trkpt><trkpt lat="41.21246903858045" lon="14.42947119653375"><ele>56.0</ele><time>2026-05-02T12:36:55.001Z</time></trkpt><trkpt lat="41.21245503837746" lon="14.429729791716788"><ele>55.66666666666667</ele><time>2026-05-02T12:36:56.001Z</time></trkpt><trkpt lat="41.21243775335439" lon="14.429992256977677"><ele>55.33333333333333</ele><time>2026-05-02T12:36:57.001Z</time></trkpt><trkpt lat="41.212417373854905" lon="14.430220904436021"><ele>55.0</ele><time>2026-05-02T12:36:58.001Z</time></trkpt><trkpt lat="41.212396137933816" lon="14.430435092365393"><ele>55.0</ele><time>2026-05-02T12:36:59.001Z</time></trkpt><trkpt lat="41.21237778621888" lon="14.430656264662982"><ele>55.0</ele><time>2026-05-02T12:37:00.001Z</time></trkpt><trkpt lat="41.2123723497588" lon="14.430863396730931"><ele>55.0</ele><time>2026-05-02T12:37:01.001Z</time></trkpt><trkpt lat="41.21238996601009" lon="14.431085601442367"><ele>55.0</ele><time>2026-05-02T12:37:02.001Z</time></trkpt><trkpt lat="41.21243475009638" lon="14.431297581848636"><ele>55.0</ele><time>2026-05-02T12:37:03.001Z</time></trkpt><trkpt lat="41.21248322345066" lon="14.431473457158729"><ele>55.0</ele><time>2026-05-02T12:37:04.001Z</time></trkpt><trkpt lat="41.21251904988151" lon="14.431635271757074"><ele>55.0</ele><time>2026-05-02T12:37:05.001Z</time></trkpt><trkpt lat="41.21251904911967" lon="14.431816535905316"><ele>55.0</ele><time>2026-05-02T12:37:06.001Z</time></trkpt><trkpt lat="41.212493687589195" lon="14.432008532091128"><ele>55.0</ele><time>2026-05-02T12:37:07.001Z</time></trkpt><trkpt lat="41.21245418219718" lon="14.432175256314968"><ele>55.0</ele><time>2026-05-02T12:37:08.001Z</time></trkpt><trkpt lat="41.21240379671022" lon="14.432330054311414"><ele>55.0</ele><time>2026-05-02T12:37:09.001Z</time></trkpt><trkpt lat="41.212326291676526" lon="14.432471426245664"><ele>58.666666666666664</ele><time>2026-05-02T12:37:10.001Z</time></trkpt><trkpt lat="41.2122165942225" lon="14.432608513636152"><ele>62.33333333333333</ele><time>2026-05-02T12:37:11.001Z</time></trkpt><trkpt lat="41.212108145337496" lon="14.43275736367054"><ele>66.0</ele><time>2026-05-02T12:37:12.001Z</time></trkpt><trkpt lat="41.21200436874789" lon="14.43292490616665"><ele>64.5</ele><time>2026-05-02T12:37:13.001Z</time></trkpt><trkpt lat="41.21191168014982" lon="14.433085056653523"><ele>63.0</ele><time>2026-05-02T12:37:14.001Z</time></trkpt><trkpt lat="41.21183725578206" lon="14.433224151341678"><ele>61.5</ele><time>2026-05-02T12:37:15.001Z</time></trkpt><trkpt lat="41.211779656654805" lon="14.433353719783385"><ele>60.0</ele><time>2026-05-02T12:37:16.001Z</time></trkpt><trkpt lat="41.21175160464155" lon="14.433486097881948"><ele>60.0</ele><time>2026-05-02T12:37:17.001Z</time></trkpt><trkpt lat="41.21176553782292" lon="14.433617420937036"><ele>60.0</ele><time>2026-05-02T12:37:18.001Z</time></trkpt><trkpt lat="41.21181113466869" lon="14.433749982218583"><ele>60.0</ele><time>2026-05-02T12:37:19.001Z</time></trkpt><trkpt lat="41.21187585466933" lon="14.433871317842314"><ele>60.0</ele><time>2026-05-02T12:37:20.001Z</time></trkpt><trkpt lat="41.21193016269188" lon="14.433975202019612"><ele>60.0</ele><time>2026-05-02T12:37:21.001Z</time></trkpt><trkpt lat="41.21196093022555" lon="14.434066335020615"><ele>60.0</ele><time>2026-05-02T12:37:22.001Z</time></trkpt><trkpt lat="41.21195400760905" lon="14.434198292606494"><ele>60.0</ele><time>2026-05-02T12:37:23.001Z</time></trkpt><trkpt lat="41.211917474368015" lon="14.43432444685861"><ele>60.0</ele><time>2026-05-02T12:37:24.001Z</time></trkpt><trkpt lat="41.21184716144079" lon="14.434447472094888"><ele>60.0</ele><time>2026-05-02T12:37:25.001Z</time></trkpt><trkpt lat="41.211757180210526" lon="14.434554596735897"><ele>60.0</ele><time>2026-05-02T12:37:26.001Z</time></trkpt><trkpt lat="41.2116500161173" lon="14.434653103706866"><ele>61.33333333333333</ele><time>2026-05-02T12:37:27.001Z</time></trkpt><trkpt lat="41.211518578222474" lon="14.4347462230326"><ele>62.666666666666664</ele><time>2026-05-02T12:37:28.001Z</time></trkpt><trkpt lat="41.21136756037572" lon="14.434859352775756"><ele>64.0</ele><time>2026-05-02T12:37:29.001Z</time></trkpt><trkpt lat="41.21121743610311" lon="14.43495419207145"><ele>64.0</ele><time>2026-05-02T12:37:30.001Z</time></trkpt><trkpt lat="41.21106673642714" lon="14.435049484158428"><ele>64.0</ele><time>2026-05-02T12:37:31.001Z</time></trkpt><trkpt lat="41.210912161283986" lon="14.435143037082426"><ele>64.0</ele><time>2026-05-02T12:37:32.001Z</time></trkpt><trkpt lat="41.21075115301867" lon="14.435248231030181"><ele>61.33333333333333</ele><time>2026-05-02T12:37:33.001Z</time></trkpt><trkpt lat="41.21060154898112" lon="14.435347468284268"><ele>58.66666666666667</ele><time>2026-05-02T12:37:34.001Z</time></trkpt><trkpt lat="41.210450193424215" lon="14.435432498863964"><ele>56.0</ele><time>2026-05-02T12:37:35.001Z</time></trkpt><trkpt lat="41.21030685796322" lon="14.435498116540993"><ele>56.0</ele><time>2026-05-02T12:37:36.001Z</time></trkpt><trkpt lat="41.210167796186276" lon="14.435552292247941"><ele>56.0</ele><time>2026-05-02T12:37:37.001Z</time></trkpt><trkpt lat="41.21001643429146" lon="14.435657303080022"><ele>56.0</ele><time>2026-05-02T12:37:38.001Z</time></trkpt><trkpt lat="41.20984913696424" lon="14.435816533298441"><ele>60.0</ele><time>2026-05-02T12:37:39.001Z</time></trkpt><trkpt lat="41.20972011167596" lon="14.435958117905782"><ele>64.0</ele><time>2026-05-02T12:37:40.001Z</time></trkpt><trkpt lat="41.20960532851378" lon="14.43609380041235"><ele>68.0</ele><time>2026-05-02T12:37:41.001Z</time></trkpt><trkpt lat="41.20948500366745" lon="14.436228221619585"><ele>63.66666666666667</ele><time>2026-05-02T12:37:42.002Z</time></trkpt><trkpt lat="41.209359748208136" lon="14.436359432491109"><ele>59.33333333333333</ele><time>2026-05-02T12:37:43.002Z</time></trkpt><trkpt lat="41.209264175811526" lon="14.436537882745917"><ele>55.0</ele><time>2026-05-02T12:37:44.002Z</time></trkpt><trkpt lat="41.20920925527096" lon="14.436738629583987"><ele>55.0</ele><time>2026-05-02T12:37:45Z</time></trkpt><trkpt lat="41.209135738886204" lon="14.43693020212448"><ele>55.0</ele><time>2026-05-02T12:37:46Z</time></trkpt><trkpt lat="41.20906019541111" lon="14.437097073596018"><ele>55.0</ele><time>2026-05-02T12:37:47Z</time></trkpt><trkpt lat="41.20903663953922" lon="14.437287089029224"><ele>54.25</ele><time>2026-05-02T12:37:48Z</time></trkpt><trkpt lat="41.20899597030866" lon="14.437453898209865"><ele>53.5</ele><time>2026-05-02T12:37:49Z</time></trkpt><trkpt lat="41.208965684306996" lon="14.437601922293283"><ele>52.75</ele><time>2026-05-02T12:37:50Z</time></trkpt><trkpt lat="41.20892089058399" lon="14.43774959248998"><ele>52.0</ele><time>2026-05-02T12:37:51Z</time></trkpt><trkpt lat="41.20883918223159" lon="14.437886737569281"><ele>52.666666666666664</ele><time>2026-05-02T12:37:52Z</time></trkpt><trkpt lat="41.20872512355505" lon="14.438030693834538"><ele>53.33333333333333</ele><time>2026-05-02T12:37:53Z</time></trkpt><trkpt lat="41.20859024268736" lon="14.438165915712979"><ele>54.0</ele><time>2026-05-02T12:37:54Z</time></trkpt><trkpt lat="41.20844571516811" lon="14.438294133199394"><ele>54.0</ele><time>2026-05-02T12:37:55Z</time></trkpt><trkpt lat="41.20829684686236" lon="14.438417910814017"><ele>54.0</ele><time>2026-05-02T12:37:56Z</time></trkpt><trkpt lat="41.20817669137352" lon="14.438548427620823"><ele>54.0</ele><time>2026-05-02T12:37:57Z</time></trkpt><trkpt lat="41.2080768453733" lon="14.438626970403776"><ele>54.0</ele><time>2026-05-02T12:37:58Z</time></trkpt><trkpt lat="41.207987516519445" lon="14.438757157827538"><ele>54.0</ele><time>2026-05-02T12:37:59Z</time></trkpt><trkpt lat="41.20793229205061" lon="14.438898250096228"><ele>54.0</ele><time>2026-05-02T12:38:00Z</time></trkpt><trkpt lat="41.20792023835694" lon="14.439077785873588"><ele>54.0</ele><time>2026-05-02T12:38:01Z</time></trkpt><trkpt lat="41.207908940960166" lon="14.439249760564197"><ele>54.0</ele><time>2026-05-02T12:38:02Z</time></trkpt><trkpt lat="41.207895715083396" lon="14.439399259055277"><ele>54.0</ele><time>2026-05-02T12:38:03Z</time></trkpt><trkpt lat="41.20785760649469" lon="14.439527762774505"><ele>54.00000000000001</ele><time>2026-05-02T12:38:04Z</time></trkpt><trkpt lat="41.20779850209572" lon="14.439639305590156"><ele>54.00000000000001</ele><time>2026-05-02T12:38:05Z</time></trkpt><trkpt lat="41.20769902309394" lon="14.439716070755395"><ele>54.0</ele><time>2026-05-02T12:38:06Z</time></trkpt><trkpt lat="41.20760006896634" lon="14.43978245364592"><ele>54.0</ele><time>2026-05-02T12:38:07Z</time></trkpt><trkpt lat="41.20747188508351" lon="14.439809641774763"><ele>53.25</ele><time>2026-05-02T12:38:08Z</time></trkpt><trkpt lat="41.2073313349898" lon="14.43979712284177"><ele>52.5</ele><time>2026-05-02T12:38:09Z</time></trkpt><trkpt lat="41.207193314706196" lon="14.439748815369782"><ele>51.75</ele><time>2026-05-02T12:38:10Z</time></trkpt><trkpt lat="41.20704403040363" lon="14.439689769979417"><ele>51.0</ele><time>2026-05-02T12:38:11Z</time></trkpt><trkpt lat="41.20689784695997" lon="14.4395939529346"><ele>51.0</ele><time>2026-05-02T12:38:12Z</time></trkpt><trkpt lat="41.20675388464953" lon="14.43949041927724"><ele>51.0</ele><time>2026-05-02T12:38:13Z</time></trkpt><trkpt lat="41.20660514608239" lon="14.439408632841609"><ele>51.0</ele><time>2026-05-02T12:38:14Z</time></trkpt><trkpt lat="41.20644331103263" lon="14.439359856583348"><ele>51.66666666666667</ele><time>2026-05-02T12:38:15Z</time></trkpt><trkpt lat="41.20628065511474" lon="14.439342514220398"><ele>52.333333333333336</ele><time>2026-05-02T12:38:16Z</time></trkpt><trkpt lat="41.2061153788683" lon="14.439359410699218"><ele>53.0</ele><time>2026-05-02T12:38:17Z</time></trkpt><trkpt lat="41.205947035867034" lon="14.439421737109539"><ele>53.0</ele><time>2026-05-02T12:38:18Z</time></trkpt><trkpt lat="41.20577759041064" lon="14.439509007866985"><ele>53.0</ele><time>2026-05-02T12:38:19Z</time></trkpt><trkpt lat="41.20559450026658" lon="14.439606331014968"><ele>53.0</ele><time>2026-05-02T12:38:20Z</time></trkpt><trkpt lat="41.20541252236249" lon="14.439697634323414"><ele>51.66666666666667</ele><time>2026-05-02T12:38:21Z</time></trkpt><trkpt lat="41.20523227160386" lon="14.43979071504152"><ele>50.33333333333333</ele><time>2026-05-02T12:38:22Z</time></trkpt><trkpt lat="41.20504284946452" lon="14.439885865126259"><ele>49.0</ele><time>2026-05-02T12:38:23Z</time></trkpt><trkpt lat="41.20485008584103" lon="14.439983113560835"><ele>49.0</ele><time>2026-05-02T12:38:24Z</time></trkpt><trkpt lat="41.20464215371458" lon="14.440089459941966"><ele>49.0</ele><time>2026-05-02T12:38:25Z</time></trkpt><trkpt lat="41.20443536050977" lon="14.44019518472136"><ele>49.0</ele><time>2026-05-02T12:38:26Z</time></trkpt><trkpt lat="41.20422182881988" lon="14.440303528682193"><ele>49.0</ele><time>2026-05-02T12:38:27Z</time></trkpt><trkpt lat="41.20402001642229" lon="14.4404106640195"><ele>49.0</ele><time>2026-05-02T12:38:28Z</time></trkpt><trkpt lat="41.20382277808706" lon="14.440512219014265"><ele>49.0</ele><time>2026-05-02T12:38:29Z</time></trkpt><trkpt lat="41.203627881352006" lon="14.440621516723752"><ele>48.666666666666664</ele><time>2026-05-02T12:38:30Z</time></trkpt><trkpt lat="41.20343700827191" lon="14.440725669550845"><ele>48.33333333333333</ele><time>2026-05-02T12:38:31Z</time></trkpt><trkpt lat="41.20324943263348" lon="14.440826916484832"><ele>48.0</ele><time>2026-05-02T12:38:32Z</time></trkpt><trkpt lat="41.20305538883831" lon="14.440921579657212"><ele>48.0</ele><time>2026-05-02T12:38:33Z</time></trkpt><trkpt lat="41.20286028127149" lon="14.441024501219008"><ele>48.0</ele><time>2026-05-02T12:38:34Z</time></trkpt><trkpt lat="41.20265410827533" lon="14.441110986508066"><ele>48.0</ele><time>2026-05-02T12:38:35Z</time></trkpt><trkpt lat="41.20245899081643" lon="14.441216255066362"><ele>47.333333333333336</ele><time>2026-05-02T12:38:36Z</time></trkpt><trkpt lat="41.20226643787749" lon="14.441315505536611"><ele>46.66666666666667</ele><time>2026-05-02T12:38:37Z</time></trkpt><trkpt lat="41.20208303423656" lon="14.44141511731077"><ele>46.0</ele><time>2026-05-02T12:38:38.001Z</time></trkpt><trkpt lat="41.201897431901834" lon="14.441513103275975"><ele>46.0</ele><time>2026-05-02T12:38:39.001Z</time></trkpt><trkpt lat="41.20171215536445" lon="14.441604963731832"><ele>46.0</ele><time>2026-05-02T12:38:40.001Z</time></trkpt><trkpt lat="41.20152614124087" lon="14.4416965141797"><ele>46.0</ele><time>2026-05-02T12:38:41.001Z</time></trkpt><trkpt lat="41.20134271128437" lon="14.441793198553365"><ele>46.66666666666667</ele><time>2026-05-02T12:38:42.001Z</time></trkpt><trkpt lat="41.20116104712137" lon="14.441891642816028"><ele>47.333333333333336</ele><time>2026-05-02T12:38:43.001Z</time></trkpt><trkpt lat="41.20098942653866" lon="14.44197013698376"><ele>48.0</ele><time>2026-05-02T12:38:44.001Z</time></trkpt><trkpt lat="41.20083721907531" lon="14.442049847819101"><ele>48.0</ele><time>2026-05-02T12:38:45.001Z</time></trkpt><trkpt lat="41.20068471518873" lon="14.442124470266327"><ele>48.0</ele><time>2026-05-02T12:38:46.001Z</time></trkpt><trkpt lat="41.2005435954668" lon="14.4421986138218"><ele>48.0</ele><time>2026-05-02T12:38:47.001Z</time></trkpt><trkpt lat="41.200405010567096" lon="14.442319605184736"><ele>49.66666666666667</ele><time>2026-05-02T12:38:48.001Z</time></trkpt><trkpt lat="41.20027251607766" lon="14.442432686138991"><ele>51.333333333333336</ele><time>2026-05-02T12:38:49.001Z</time></trkpt><trkpt lat="41.200141551811086" lon="14.442571444088353"><ele>53.0</ele><time>2026-05-02T12:38:50.001Z</time></trkpt><trkpt lat="41.20001382767361" lon="14.442705772865043"><ele>53.0</ele><time>2026-05-02T12:38:51.001Z</time></trkpt><trkpt lat="41.1998733339152" lon="14.442821610572372"><ele>53.0</ele><time>2026-05-02T12:38:52.001Z</time></trkpt><trkpt lat="41.1997423884556" lon="14.442961814496769"><ele>53.0</ele><time>2026-05-02T12:38:53.001Z</time></trkpt><trkpt lat="41.1996051696067" lon="14.443106191280162"><ele>52.0</ele><time>2026-05-02T12:38:54.001Z</time></trkpt><trkpt lat="41.19946175505694" lon="14.443242925859032"><ele>51.0</ele><time>2026-05-02T12:38:55.001Z</time></trkpt><trkpt lat="41.199314796476905" lon="14.44336894166205"><ele>50.0</ele><time>2026-05-02T12:38:56.001Z</time></trkpt><trkpt lat="41.19916434610321" lon="14.443494521866969"><ele>50.0</ele><time>2026-05-02T12:38:57.001Z</time></trkpt><trkpt lat="41.1990217782207" lon="14.443624147734644"><ele>50.0</ele><time>2026-05-02T12:38:58.001Z</time></trkpt><trkpt lat="41.19887676553678" lon="14.443765507725535"><ele>50.0</ele><time>2026-05-02T12:38:59.001Z</time></trkpt><trkpt lat="41.198746095628984" lon="14.443921882379536"><ele>49.0</ele><time>2026-05-02T12:39:00.001Z</time></trkpt><trkpt lat="41.19861774085973" lon="14.444083544401211"><ele>48.0</ele><time>2026-05-02T12:39:01.001Z</time></trkpt><trkpt lat="41.19848789975204" lon="14.444239744253942"><ele>47.0</ele><time>2026-05-02T12:39:02.001Z</time></trkpt><trkpt lat="41.19835382387042" lon="14.444388002840956"><ele>47.0</ele><time>2026-05-02T12:39:03.001Z</time></trkpt><trkpt lat="41.198209308947106" lon="14.444531640869387"><ele>47.0</ele><time>2026-05-02T12:39:04.001Z</time></trkpt><trkpt lat="41.1980529479862" lon="14.444643413960707"><ele>47.0</ele><time>2026-05-02T12:39:05.001Z</time></trkpt><trkpt lat="41.19788950845067" lon="14.444742901502684"><ele>47.666666666666664</ele><time>2026-05-02T12:39:06.001Z</time></trkpt><trkpt lat="41.19773800594065" lon="14.44484864540306"><ele>48.33333333333333</ele><time>2026-05-02T12:39:07.001Z</time></trkpt><trkpt lat="41.197595956642026" lon="14.444962448016804"><ele>49.0</ele><time>2026-05-02T12:39:08.001Z</time></trkpt><trkpt lat="41.197456049353015" lon="14.445099622216278"><ele>49.0</ele><time>2026-05-02T12:39:09.001Z</time></trkpt><trkpt lat="41.19732828242869" lon="14.44524898283864"><ele>49.0</ele><time>2026-05-02T12:39:10.001Z</time></trkpt><trkpt lat="41.197200154550025" lon="14.445413902918425"><ele>49.0</ele><time>2026-05-02T12:39:11.001Z</time></trkpt><trkpt lat="41.19708457706929" lon="14.445600731805975"><ele>49.0</ele><time>2026-05-02T12:39:12.001Z</time></trkpt><trkpt lat="41.19699232908832" lon="14.445800694053519"><ele>49.0</ele><time>2026-05-02T12:39:13.001Z</time></trkpt><trkpt lat="41.19690556618137" lon="14.446015014575542"><ele>49.0</ele><time>2026-05-02T12:39:14.001Z</time></trkpt><trkpt lat="41.196803288191326" lon="14.446213313122989"><ele>48.33333333333333</ele><time>2026-05-02T12:39:15.001Z</time></trkpt><trkpt lat="41.19670568609608" lon="14.446413985188693"><ele>47.666666666666664</ele><time>2026-05-02T12:39:16.001Z</time></trkpt><trkpt lat="41.196613203966855" lon="14.446622303717893"><ele>47.0</ele><time>2026-05-02T12:39:17.001Z</time></trkpt><trkpt lat="41.196519552336696" lon="14.446818607638015"><ele>50.33333333333333</ele><time>2026-05-02T12:39:18.001Z</time></trkpt><trkpt lat="41.196431327765" lon="14.447013042752427"><ele>53.666666666666664</ele><time>2026-05-02T12:39:19.001Z</time></trkpt><trkpt lat="41.19633158349644" lon="14.447184342958803"><ele>57.0</ele><time>2026-05-02T12:39:20.001Z</time></trkpt><trkpt lat="41.19622668508798" lon="14.447343876634651"><ele>57.0</ele><time>2026-05-02T12:39:21.001Z</time></trkpt><trkpt lat="41.19611570434804" lon="14.44749828848879"><ele>57.0</ele><time>2026-05-02T12:39:22.001Z</time></trkpt><trkpt lat="41.196017331654765" lon="14.447648765773826"><ele>57.0</ele><time>2026-05-02T12:39:23.001Z</time></trkpt><trkpt lat="41.195924806664564" lon="14.44780198179618"><ele>57.0</ele><time>2026-05-02T12:39:24.001Z</time></trkpt><trkpt lat="41.195832554377574" lon="14.447949034293499"><ele>57.0</ele><time>2026-05-02T12:39:25.001Z</time></trkpt><trkpt lat="41.19573505480743" lon="14.448091306557192"><ele>57.0</ele><time>2026-05-02T12:39:26.001Z</time></trkpt><trkpt lat="41.19566088317336" lon="14.448210832139498"><ele>57.0</ele><time>2026-05-02T12:39:27.001Z</time></trkpt><trkpt lat="41.1955866107916" lon="14.448325475764983"><ele>57.166666666666664</ele><time>2026-05-02T12:39:28.001Z</time></trkpt><trkpt lat="41.19551725623304" lon="14.448422073190434"><ele>57.33333333333333</ele><time>2026-05-02T12:39:29.001Z</time></trkpt><trkpt lat="41.19545148543277" lon="14.448502461375025"><ele>57.5</ele><time>2026-05-02T12:39:30.001Z</time></trkpt><trkpt lat="41.19539361787535" lon="14.448574825894799"><ele>57.666666666666664</ele><time>2026-05-02T12:39:31.001Z</time></trkpt><trkpt lat="41.19535244148773" lon="14.44863836176851"><ele>57.83333333333333</ele><time>2026-05-02T12:39:32.001Z</time></trkpt><trkpt lat="41.19533651424191" lon="14.448735039607374"><ele>58.0</ele><time>2026-05-02T12:39:34.001Z</time></trkpt><trkpt lat="41.19533170130827" lon="14.448855232478529"><ele>56.599999999999994</ele><time>2026-05-02T12:39:36.001Z</time></trkpt><trkpt lat="41.195388669056456" lon="14.448989701407443"><ele>55.199999999999996</ele><time>2026-05-02T12:39:38.001Z</time></trkpt><trkpt lat="41.19543120564683" lon="14.449079403862674"><ele>53.8</ele><time>2026-05-02T12:39:39.001Z</time></trkpt><trkpt lat="41.19548488292898" lon="14.44915845629756"><ele>52.4</ele><time>2026-05-02T12:39:40.001Z</time></trkpt><trkpt lat="41.19553198250943" lon="14.44927229333216"><ele>51.0</ele><time>2026-05-02T12:39:41.001Z</time></trkpt><trkpt lat="41.19559161503972" lon="14.449373093834755"><ele>51.0</ele><time>2026-05-02T12:39:42.001Z</time></trkpt><trkpt lat="41.19564840526608" lon="14.44946908980148"><ele>51.0</ele><time>2026-05-02T12:39:43.001Z</time></trkpt><trkpt lat="41.19572037257674" lon="14.449590730386372"><ele>51.0</ele><time>2026-05-02T12:39:44.002Z</time></trkpt><trkpt lat="41.19576823380213" lon="14.449671452172977"><ele>51.0</ele><time>2026-05-02T12:39:45.002Z</time></trkpt><trkpt lat="41.19581747621972" lon="14.449754503476782"><ele>51.0</ele><time>2026-05-02T12:39:46.002Z</time></trkpt><trkpt lat="41.19586386283283" lon="14.449832738186156"><ele>51.0</ele><time>2026-05-02T12:39:47.002Z</time></trkpt><trkpt lat="41.195910053326386" lon="14.449910642172672"><ele>49.42857142857143</ele><time>2026-05-02T12:39:48.002Z</time></trkpt><trkpt lat="41.19595499000359" lon="14.449986431485165"><ele>47.85714285714286</ele><time>2026-05-02T12:39:49.002Z</time></trkpt><trkpt lat="41.19599639217644" lon="14.450056259570166"><ele>46.285714285714285</ele><time>2026-05-02T12:39:50.002Z</time></trkpt><trkpt lat="41.19604031938906" lon="14.450130346353287"><ele>44.714285714285715</ele><time>2026-05-02T12:39:51Z</time></trkpt><trkpt lat="41.19608641541338" lon="14.450208090984454"><ele>43.142857142857146</ele><time>2026-05-02T12:39:52Z</time></trkpt><trkpt lat="41.19613599974292" lon="14.450291718942772"><ele>41.57142857142857</ele><time>2026-05-02T12:39:53Z</time></trkpt><trkpt lat="41.196182092875645" lon="14.450369458721006"><ele>40.0</ele><time>2026-05-02T12:39:54Z</time></trkpt><trkpt lat="41.196224349652155" lon="14.450440728156744"><ele>40.0</ele><time>2026-05-02T12:39:55Z</time></trkpt><trkpt lat="41.1962676925316" lon="14.450513829387445"><ele>40.0</ele><time>2026-05-02T12:39:56Z</time></trkpt><trkpt lat="41.19631224899523" lon="14.450588977424726"><ele>40.0</ele><time>2026-05-02T12:39:57Z</time></trkpt><trkpt lat="41.196359028223924" lon="14.450667874333517"><ele>40.0</ele><time>2026-05-02T12:39:58Z</time></trkpt><trkpt lat="41.19640616874307" lon="14.450747392012191"><ele>40.0</ele><time>2026-05-02T12:39:59Z</time></trkpt><trkpt lat="41.196452536314844" lon="14.45082583759868"><ele>40.0</ele><time>2026-05-02T12:40:00Z</time></trkpt><trkpt lat="41.196493988705114" lon="14.450895967493715"><ele>40.0</ele><time>2026-05-02T12:40:01Z</time></trkpt><trkpt lat="41.19655106145982" lon="14.450992524229829"><ele>40.0</ele><time>2026-05-02T12:40:02Z</time></trkpt><trkpt lat="41.19660354103059" lon="14.451081310162827"><ele>40.0</ele><time>2026-05-02T12:40:03Z</time></trkpt><trkpt lat="41.196648992930974" lon="14.451156280064975"><ele>40.0</ele><time>2026-05-02T12:40:04Z</time></trkpt><trkpt lat="41.19669728456647" lon="14.451246169079875"><ele>40.0</ele><time>2026-05-02T12:40:05Z</time></trkpt><trkpt lat="41.19674571640054" lon="14.451336207147873"><ele>40.0</ele><time>2026-05-02T12:40:06Z</time></trkpt><trkpt lat="41.196794720425046" lon="14.451425825059859"><ele>40.0</ele><time>2026-05-02T12:40:07Z</time></trkpt><trkpt lat="41.19685451440618" lon="14.451509740983012"><ele>40.4</ele><time>2026-05-02T12:40:08Z</time></trkpt><trkpt lat="41.19691006388524" lon="14.451602036302008"><ele>40.8</ele><time>2026-05-02T12:40:09Z</time></trkpt><trkpt lat="41.19696368804641" lon="14.4516837801026"><ele>41.2</ele><time>2026-05-02T12:40:10Z</time></trkpt><trkpt lat="41.197017969406886" lon="14.451783734342898"><ele>41.6</ele><time>2026-05-02T12:40:11Z</time></trkpt><trkpt lat="41.19707734023559" lon="14.451878804935081"><ele>42.0</ele><time>2026-05-02T12:40:12Z</time></trkpt><trkpt lat="41.197141222042696" lon="14.451977522413808"><ele>42.0</ele><time>2026-05-02T12:40:13Z</time></trkpt><trkpt lat="41.19720080086086" lon="14.452077358217418"><ele>42.0</ele><time>2026-05-02T12:40:14Z</time></trkpt><trkpt lat="41.197260923820004" lon="14.452180957938143"><ele>42.0</ele><time>2026-05-02T12:40:15Z</time></trkpt><trkpt lat="41.197324899785364" lon="14.452284194217984"><ele>42.0</ele><time>2026-05-02T12:40:16Z</time></trkpt><trkpt lat="41.197375172571085" lon="14.452390043970306"><ele>42.0</ele><time>2026-05-02T12:40:17Z</time></trkpt><trkpt lat="41.197464630276656" lon="14.452530637999736"><ele>41.5</ele><time>2026-05-02T12:40:18Z</time></trkpt><trkpt lat="41.19754335372762" lon="14.452656561326734"><ele>41.0</ele><time>2026-05-02T12:40:19Z</time></trkpt><trkpt lat="41.19762260481157" lon="14.45278962211068"><ele>40.5</ele><time>2026-05-02T12:40:20Z</time></trkpt><trkpt lat="41.197708698219834" lon="14.452924760247676"><ele>40.0</ele><time>2026-05-02T12:40:21Z</time></trkpt><trkpt lat="41.19776805374583" lon="14.4530743587591"><ele>39.5</ele><time>2026-05-02T12:40:22Z</time></trkpt><trkpt lat="41.19784692523671" lon="14.453213870166714"><ele>39.0</ele><time>2026-05-02T12:40:23Z</time></trkpt><trkpt lat="41.197934444983126" lon="14.453360458700454"><ele>38.5</ele><time>2026-05-02T12:40:24Z</time></trkpt><trkpt lat="41.19802252943012" lon="14.453508623674368"><ele>38.0</ele><time>2026-05-02T12:40:25Z</time></trkpt><trkpt lat="41.19811939301882" lon="14.453656040245235"><ele>38.5</ele><time>2026-05-02T12:40:26Z</time></trkpt><trkpt lat="41.19821516001545" lon="14.453804648198282"><ele>39.0</ele><time>2026-05-02T12:40:27Z</time></trkpt><trkpt lat="41.19830514566809" lon="14.453964347606226"><ele>39.5</ele><time>2026-05-02T12:40:28Z</time></trkpt><trkpt lat="41.19839054395289" lon="14.454112224714526"><ele>40.0</ele><time>2026-05-02T12:40:29Z</time></trkpt><trkpt lat="41.198478262844084" lon="14.454252194336508"><ele>40.0</ele><time>2026-05-02T12:40:30Z</time></trkpt><trkpt lat="41.198560452478844" lon="14.454386917439162"><ele>40.0</ele><time>2026-05-02T12:40:31Z</time></trkpt><trkpt lat="41.19863043660662" lon="14.45452075675681"><ele>40.0</ele><time>2026-05-02T12:40:32Z</time></trkpt><trkpt lat="41.198710818061976" lon="14.454652027706373"><ele>40.0</ele><time>2026-05-02T12:40:33Z</time></trkpt><trkpt lat="41.198792958882095" lon="14.45477965230964"><ele>40.0</ele><time>2026-05-02T12:40:34Z</time></trkpt><trkpt lat="41.198869995320685" lon="14.454906006905828"><ele>40.0</ele><time>2026-05-02T12:40:35Z</time></trkpt><trkpt lat="41.1989476540475" lon="14.45503009009543"><ele>40.0</ele><time>2026-05-02T12:40:36Z</time></trkpt><trkpt lat="41.19900568401231" lon="14.455162919633503"><ele>40.0</ele><time>2026-05-02T12:40:37.001Z</time></trkpt><trkpt lat="41.199077626098486" lon="14.455277522201309"><ele>40.0</ele><time>2026-05-02T12:40:38.001Z</time></trkpt><trkpt lat="41.19917181766549" lon="14.455398817639209"><ele>40.0</ele><time>2026-05-02T12:40:39.001Z</time></trkpt><trkpt lat="41.19924596146271" lon="14.455523285862439"><ele>40.0</ele><time>2026-05-02T12:40:40.001Z</time></trkpt><trkpt lat="41.19931491513173" lon="14.455648256014031"><ele>40.0</ele><time>2026-05-02T12:40:41.001Z</time></trkpt><trkpt lat="41.199379288702" lon="14.455768758347235"><ele>40.0</ele><time>2026-05-02T12:40:42.001Z</time></trkpt><trkpt lat="41.19945685094641" lon="14.455899442808208"><ele>40.0</ele><time>2026-05-02T12:40:43.001Z</time></trkpt><trkpt lat="41.19953944873147" lon="14.456036315848033"><ele>40.0</ele><time>2026-05-02T12:40:44.001Z</time></trkpt><trkpt lat="41.199626352593334" lon="14.456174417056713"><ele>40.0</ele><time>2026-05-02T12:40:45.001Z</time></trkpt><trkpt lat="41.1997047702967" lon="14.456314139601522"><ele>40.0</ele><time>2026-05-02T12:40:46.001Z</time></trkpt><trkpt lat="41.199793831949236" lon="14.456465560020906"><ele>40.0</ele><time>2026-05-02T12:40:47.001Z</time></trkpt><trkpt lat="41.19988423954693" lon="14.456612935557148"><ele>40.0</ele><time>2026-05-02T12:40:48.001Z</time></trkpt><trkpt lat="41.199973325456256" lon="14.456767844960565"><ele>40.0</ele><time>2026-05-02T12:40:49.001Z</time></trkpt><trkpt lat="41.200069822078525" lon="14.45692583656449"><ele>40.25</ele><time>2026-05-02T12:40:50.001Z</time></trkpt><trkpt lat="41.20015929694019" lon="14.45707818179206"><ele>40.5</ele><time>2026-05-02T12:40:51.001Z</time></trkpt><trkpt lat="41.200244114635304" lon="14.457208996592225"><ele>40.75</ele><time>2026-05-02T12:40:52.001Z</time></trkpt><trkpt lat="41.20033220968157" lon="14.4573593895143"><ele>41.0</ele><time>2026-05-02T12:40:53.001Z</time></trkpt><trkpt lat="41.200398914815736" lon="14.457513222013302"><ele>41.0</ele><time>2026-05-02T12:40:54.001Z</time></trkpt><trkpt lat="41.20048011952592" lon="14.457657323089718"><ele>41.0</ele><time>2026-05-02T12:40:55.001Z</time></trkpt><trkpt lat="41.20057130359691" lon="14.457797742628713"><ele>41.0</ele><time>2026-05-02T12:40:56.001Z</time></trkpt><trkpt lat="41.200658144414234" lon="14.45793253702999"><ele>41.0</ele><time>2026-05-02T12:40:57.001Z</time></trkpt><trkpt lat="41.20074760017513" lon="14.45807138744054"><ele>41.75</ele><time>2026-05-02T12:40:58.001Z</time></trkpt><trkpt lat="41.20082632458955" lon="14.458211144218497"><ele>42.5</ele><time>2026-05-02T12:40:59.001Z</time></trkpt><trkpt lat="41.20090369991795" lon="14.458341925099635"><ele>43.25</ele><time>2026-05-02T12:41:00.001Z</time></trkpt><trkpt lat="41.20098490201743" lon="14.458482923159801"><ele>44.0</ele><time>2026-05-02T12:41:01.001Z</time></trkpt><trkpt lat="41.201061068194996" lon="14.458617650106817"><ele>44.0</ele><time>2026-05-02T12:41:02.001Z</time></trkpt><trkpt lat="41.20113578920609" lon="14.458752981424823"><ele>44.0</ele><time>2026-05-02T12:41:03.001Z</time></trkpt><trkpt lat="41.201211463666446" lon="14.458887704708776"><ele>44.0</ele><time>2026-05-02T12:41:04.001Z</time></trkpt><trkpt lat="41.20128608437807" lon="14.459027277962857"><ele>44.0</ele><time>2026-05-02T12:41:05.001Z</time></trkpt><trkpt lat="41.2013618565593" lon="14.459160800073365"><ele>45.0</ele><time>2026-05-02T12:41:06.001Z</time></trkpt><trkpt lat="41.20143879150115" lon="14.459294559368642"><ele>46.0</ele><time>2026-05-02T12:41:07.001Z</time></trkpt><trkpt lat="41.20151471448501" lon="14.459422645621567"><ele>47.0</ele><time>2026-05-02T12:41:08.001Z</time></trkpt><trkpt lat="41.201589311899845" lon="14.459552454865587"><ele>48.0</ele><time>2026-05-02T12:41:09.001Z</time></trkpt><trkpt lat="41.20166419952671" lon="14.459678900427853"><ele>49.75</ele><time>2026-05-02T12:41:10.001Z</time></trkpt><trkpt lat="41.20175668642798" lon="14.4597743306992"><ele>51.5</ele><time>2026-05-02T12:41:11.001Z</time></trkpt><trkpt lat="41.20181745102671" lon="14.459913043580082"><ele>53.25</ele><time>2026-05-02T12:41:12.001Z</time></trkpt><trkpt lat="41.20188219762293" lon="14.460024054919078"><ele>55.0</ele><time>2026-05-02T12:41:13.001Z</time></trkpt><trkpt lat="41.201941665297596" lon="14.460141356086313"><ele>55.0</ele><time>2026-05-02T12:41:14.001Z</time></trkpt><trkpt lat="41.202000455191715" lon="14.460260636377749"><ele>55.0</ele><time>2026-05-02T12:41:15.001Z</time></trkpt><trkpt lat="41.202050923544306" lon="14.460364789680094"><ele>55.0</ele><time>2026-05-02T12:41:16.001Z</time></trkpt><trkpt lat="41.20209957637111" lon="14.460465436876994"><ele>55.0</ele><time>2026-05-02T12:41:17.001Z</time></trkpt><trkpt lat="41.202125182917996" lon="14.460578102684437"><ele>55.0</ele><time>2026-05-02T12:41:18.001Z</time></trkpt><trkpt lat="41.202144044413586" lon="14.460698757909231"><ele>55.8</ele><time>2026-05-02T12:41:19.001Z</time></trkpt><trkpt lat="41.20217890212536" lon="14.460822536309134"><ele>56.6</ele><time>2026-05-02T12:41:20.001Z</time></trkpt><trkpt lat="41.202203057336426" lon="14.460952357379222"><ele>57.400000000000006</ele><time>2026-05-02T12:41:21.001Z</time></trkpt><trkpt lat="41.20223779272929" lon="14.461080455907384"><ele>58.2</ele><time>2026-05-02T12:41:22.001Z</time></trkpt><trkpt lat="41.202245354840485" lon="14.461207959227512"><ele>59.0</ele><time>2026-05-02T12:41:23.001Z</time></trkpt><trkpt lat="41.20228502003873" lon="14.461317458254728"><ele>59.16666666666667</ele><time>2026-05-02T12:41:24.001Z</time></trkpt><trkpt lat="41.20232226320954" lon="14.461442012996974"><ele>59.333333333333336</ele><time>2026-05-02T12:41:25.001Z</time></trkpt><trkpt lat="41.2023496754608" lon="14.461534647197597"><ele>59.5</ele><time>2026-05-02T12:41:26.001Z</time></trkpt><trkpt lat="41.20237216755487" lon="14.461623103529144"><ele>59.66666666666667</ele><time>2026-05-02T12:41:27.001Z</time></trkpt><trkpt lat="41.20239576745168" lon="14.46170238145874"><ele>59.833333333333336</ele><time>2026-05-02T12:41:28.001Z</time></trkpt><trkpt lat="41.20240214522667" lon="14.461797236312254"><ele>60.0</ele><time>2026-05-02T12:41:29.001Z</time></trkpt><trkpt lat="41.20244116510754" lon="14.461951617643988"><ele>60.166666666666664</ele><time>2026-05-02T12:41:31.001Z</time></trkpt><trkpt lat="41.20242780463591" lon="14.462047351040438"><ele>60.33333333333333</ele><time>2026-05-02T12:41:33.001Z</time></trkpt><trkpt lat="41.20239864033024" lon="14.46213554258723"><ele>60.5</ele><time>2026-05-02T12:41:35.001Z</time></trkpt><trkpt lat="41.20232570562909" lon="14.462189042725722"><ele>60.666666666666664</ele><time>2026-05-02T12:41:37.001Z</time></trkpt><trkpt lat="41.20224294219167" lon="14.462255973208578"><ele>60.83333333333333</ele><time>2026-05-02T12:41:39.001Z</time></trkpt><trkpt lat="41.20218342922626" lon="14.462311181874947"><ele>61.0</ele><time>2026-05-02T12:41:40.001Z</time></trkpt><trkpt lat="41.20210646169391" lon="14.462363438368714"><ele>61.0</ele><time>2026-05-02T12:41:41.001Z</time></trkpt><trkpt lat="41.20201838067813" lon="14.462437246890131"><ele>60.99999999999999</ele><time>2026-05-02T12:41:42.001Z</time></trkpt><trkpt lat="41.20193358810721" lon="14.462512044743637"><ele>60.99999999999999</ele><time>2026-05-02T12:41:43.002Z</time></trkpt><trkpt lat="41.20182257508926" lon="14.46259726178524"><ele>61.0</ele><time>2026-05-02T12:41:44.002Z</time></trkpt><trkpt lat="41.201729850358866" lon="14.462685376252965"><ele>61.0</ele><time>2026-05-02T12:41:45.002Z</time></trkpt><trkpt lat="41.20163365675645" lon="14.46275900024419"><ele>61.0</ele><time>2026-05-02T12:41:46.002Z</time></trkpt><trkpt lat="41.201530857139" lon="14.462818072100212"><ele>60.99999999999999</ele><time>2026-05-02T12:41:47.002Z</time></trkpt><trkpt lat="41.201430440785046" lon="14.46288990867834"><ele>60.99999999999999</ele><time>2026-05-02T12:41:48.002Z</time></trkpt><trkpt lat="41.20133061547306" lon="14.462954778906248"><ele>61.0</ele><time>2026-05-02T12:41:49.002Z</time></trkpt><trkpt lat="41.2012323009731" lon="14.463023590544177"><ele>61.0</ele><time>2026-05-02T12:41:50.002Z</time></trkpt><trkpt lat="41.20113288424749" lon="14.463097108538717"><ele>59.75</ele><time>2026-05-02T12:41:51.002Z</time></trkpt><trkpt lat="41.20103076007437" lon="14.463181419570688"><ele>58.5</ele><time>2026-05-02T12:41:52.002Z</time></trkpt><trkpt lat="41.200934103726084" lon="14.463252546499225"><ele>57.25</ele><time>2026-05-02T12:41:53.002Z</time></trkpt><trkpt lat="41.20083631419668" lon="14.463327751571697"><ele>56.0</ele><time>2026-05-02T12:41:54.002Z</time></trkpt><trkpt lat="41.20074101333404" lon="14.463406600221337"><ele>55.8</ele><time>2026-05-02T12:41:55.002Z</time></trkpt><trkpt lat="41.200644234127964" lon="14.463483585164255"><ele>55.599999999999994</ele><time>2026-05-02T12:41:56.002Z</time></trkpt><trkpt lat="41.200556684809314" lon="14.463539793177473"><ele>55.4</ele><time>2026-05-02T12:41:57Z</time></trkpt><trkpt lat="41.20046543596863" lon="14.463611858566635"><ele>55.2</ele><time>2026-05-02T12:41:58Z</time></trkpt><trkpt lat="41.200374948094236" lon="14.463683134678384"><ele>55.0</ele><time>2026-05-02T12:41:59Z</time></trkpt><trkpt lat="41.20028858644498" lon="14.463746122600911"><ele>54.8</ele><time>2026-05-02T12:42:00Z</time></trkpt><trkpt lat="41.20020988727133" lon="14.463811431922535"><ele>54.6</ele><time>2026-05-02T12:42:01Z</time></trkpt><trkpt lat="41.200132847696246" lon="14.463876821018152"><ele>54.400000000000006</ele><time>2026-05-02T12:42:02Z</time></trkpt><trkpt lat="41.200057906489455" lon="14.463942740101656"><ele>54.2</ele><time>2026-05-02T12:42:03Z</time></trkpt><trkpt lat="41.199977463176204" lon="14.464006105346126"><ele>54.0</ele><time>2026-05-02T12:42:04Z</time></trkpt><trkpt lat="41.199888201653906" lon="14.464063136417648"><ele>53.400000000000006</ele><time>2026-05-02T12:42:05Z</time></trkpt><trkpt lat="41.19979720734943" lon="14.46412731196198"><ele>52.800000000000004</ele><time>2026-05-02T12:42:06Z</time></trkpt><trkpt lat="41.19970617821753" lon="14.464199370273594"><ele>52.2</ele><time>2026-05-02T12:42:07Z</time></trkpt><trkpt lat="41.19961754944958" lon="14.464270386659202"><ele>51.599999999999994</ele><time>2026-05-02T12:42:08Z</time></trkpt><trkpt lat="41.19952679707889" lon="14.46434988068006"><ele>51.0</ele><time>2026-05-02T12:42:09Z</time></trkpt><trkpt lat="41.19944733007261" lon="14.464401210305676"><ele>51.0</ele><time>2026-05-02T12:42:10Z</time></trkpt><trkpt lat="41.19935029752316" lon="14.46447448147222"><ele>51.0</ele><time>2026-05-02T12:42:11Z</time></trkpt><trkpt lat="41.19925777994603" lon="14.464557983052982"><ele>51.0</ele><time>2026-05-02T12:42:12Z</time></trkpt><trkpt lat="41.199171958150096" lon="14.464645888361328"><ele>51.0</ele><time>2026-05-02T12:42:13Z</time></trkpt><trkpt lat="41.19908611431346" lon="14.464730556880397"><ele>51.0</ele><time>2026-05-02T12:42:14Z</time></trkpt><trkpt lat="41.19899891264801" lon="14.464816578837443"><ele>50.5</ele><time>2026-05-02T12:42:15Z</time></trkpt><trkpt lat="41.198910578411244" lon="14.464903586028804"><ele>50.0</ele><time>2026-05-02T12:42:16Z</time></trkpt><trkpt lat="41.19881874084629" lon="14.46498274474358"><ele>49.5</ele><time>2026-05-02T12:42:17Z</time></trkpt><trkpt lat="41.19872221275222" lon="14.465068958881096"><ele>49.0</ele><time>2026-05-02T12:42:18Z</time></trkpt><trkpt lat="41.19862492292889" lon="14.465153130196114"><ele>49.0</ele><time>2026-05-02T12:42:19Z</time></trkpt><trkpt lat="41.19852827666511" lon="14.465241382220983"><ele>49.0</ele><time>2026-05-02T12:42:20Z</time></trkpt><trkpt lat="41.19842332576788" lon="14.465347667118557"><ele>49.0</ele><time>2026-05-02T12:42:21Z</time></trkpt><trkpt lat="41.1983287675896" lon="14.465435679644852"><ele>49.0</ele><time>2026-05-02T12:42:22Z</time></trkpt><trkpt lat="41.198229871593156" lon="14.465514574432135"><ele>49.0</ele><time>2026-05-02T12:42:23Z</time></trkpt><trkpt lat="41.19813540957701" lon="14.465605330379205"><ele>49.0</ele><time>2026-05-02T12:42:24Z</time></trkpt><trkpt lat="41.198038479933075" lon="14.465693093796997"><ele>49.0</ele><time>2026-05-02T12:42:25Z</time></trkpt><trkpt lat="41.197945138867624" lon="14.465783420762552"><ele>49.0</ele><time>2026-05-02T12:42:26Z</time></trkpt><trkpt lat="41.19784311254663" lon="14.465863698109208"><ele>49.0</ele><time>2026-05-02T12:42:27Z</time></trkpt><trkpt lat="41.197746453272906" lon="14.465954552261115"><ele>49.0</ele><time>2026-05-02T12:42:28Z</time></trkpt><trkpt lat="41.19764763231966" lon="14.466044277509074"><ele>49.0</ele><time>2026-05-02T12:42:29Z</time></trkpt><trkpt lat="41.19755316638861" lon="14.466131518855558"><ele>49.0</ele><time>2026-05-02T12:42:30Z</time></trkpt><trkpt lat="41.19745468764281" lon="14.46622531500933"><ele>49.0</ele><time>2026-05-02T12:42:31Z</time></trkpt><trkpt lat="41.1973559542727" lon="14.466320055733721"><ele>49.0</ele><time>2026-05-02T12:42:32Z</time></trkpt><trkpt lat="41.1972422803225" lon="14.46639987340148"><ele>49.0</ele><time>2026-05-02T12:42:33Z</time></trkpt><trkpt lat="41.197140399921615" lon="14.466490884735823"><ele>49.0</ele><time>2026-05-02T12:42:34Z</time></trkpt><trkpt lat="41.19703654059125" lon="14.466596273536991"><ele>48.75</ele><time>2026-05-02T12:42:35Z</time></trkpt><trkpt lat="41.19692873840734" lon="14.466698642397137"><ele>48.5</ele><time>2026-05-02T12:42:36Z</time></trkpt><trkpt lat="41.196810207254515" lon="14.46679310390903"><ele>48.25</ele><time>2026-05-02T12:42:37Z</time></trkpt><trkpt lat="41.19669953936241" lon="14.466878982622957"><ele>48.0</ele><time>2026-05-02T12:42:38Z</time></trkpt><trkpt lat="41.19659210382981" lon="14.466979345759471"><ele>47.75</ele><time>2026-05-02T12:42:39Z</time></trkpt><trkpt lat="41.196481266313576" lon="14.46707160032598"><ele>47.5</ele><time>2026-05-02T12:42:40.001Z</time></trkpt><trkpt lat="41.196376071336886" lon="14.467174253109699"><ele>47.25</ele><time>2026-05-02T12:42:41.001Z</time></trkpt><trkpt lat="41.19626706452858" lon="14.467266927411906"><ele>47.0</ele><time>2026-05-02T12:42:42.001Z</time></trkpt><trkpt lat="41.19615606782037" lon="14.467366860895613"><ele>47.0</ele><time>2026-05-02T12:42:43.001Z</time></trkpt><trkpt lat="41.19604738275397" lon="14.467465669377763"><ele>47.0</ele><time>2026-05-02T12:42:44.001Z</time></trkpt><trkpt lat="41.195935542342276" lon="14.467569285010223"><ele>47.0</ele><time>2026-05-02T12:42:45.001Z</time></trkpt><trkpt lat="41.19582362029754" lon="14.467657342072565"><ele>47.0</ele><time>2026-05-02T12:42:46.001Z</time></trkpt><trkpt lat="41.19570983388902" lon="14.467763087710564"><ele>46.75</ele><time>2026-05-02T12:42:47.001Z</time></trkpt><trkpt lat="41.19560347927137" lon="14.467868130219864"><ele>46.5</ele><time>2026-05-02T12:42:48.001Z</time></trkpt><trkpt lat="41.19547837552305" lon="14.467981309378969"><ele>46.25</ele><time>2026-05-02T12:42:49.001Z</time></trkpt><trkpt lat="41.195351514479164" lon="14.468080235522104"><ele>46.0</ele><time>2026-05-02T12:42:50.001Z</time></trkpt><trkpt lat="41.19522431039544" lon="14.468182959345308"><ele>46.0</ele><time>2026-05-02T12:42:51.001Z</time></trkpt><trkpt lat="41.19509626385968" lon="14.468256551705888"><ele>46.0</ele><time>2026-05-02T12:42:52.001Z</time></trkpt><trkpt lat="41.19495207228276" lon="14.468375137779116"><ele>46.0</ele><time>2026-05-02T12:42:53.001Z</time></trkpt><trkpt lat="41.19480418313856" lon="14.468481598594991"><ele>46.333333333333336</ele><time>2026-05-02T12:42:54.001Z</time></trkpt><trkpt lat="41.19465397761374" lon="14.468580988755297"><ele>46.666666666666664</ele><time>2026-05-02T12:42:55.001Z</time></trkpt><trkpt lat="41.19449490249445" lon="14.468674357836758"><ele>47.0</ele><time>2026-05-02T12:42:56.001Z</time></trkpt><trkpt lat="41.19433933548792" lon="14.4687596248045"><ele>47.0</ele><time>2026-05-02T12:42:57.001Z</time></trkpt><trkpt lat="41.19418264374312" lon="14.46885678635755"><ele>47.0</ele><time>2026-05-02T12:42:58.001Z</time></trkpt><trkpt lat="41.194027289868956" lon="14.468962023466954"><ele>47.0</ele><time>2026-05-02T12:42:59.001Z</time></trkpt><trkpt lat="41.19387732092047" lon="14.469060502178788"><ele>47.33333333333333</ele><time>2026-05-02T12:43:00.001Z</time></trkpt><trkpt lat="41.19373244795368" lon="14.469167284968249"><ele>47.666666666666664</ele><time>2026-05-02T12:43:01.001Z</time></trkpt><trkpt lat="41.19359034531976" lon="14.469292229579317"><ele>48.0</ele><time>2026-05-02T12:43:02.001Z</time></trkpt><trkpt lat="41.19344625994246" lon="14.469408584888438"><ele>48.0</ele><time>2026-05-02T12:43:03.001Z</time></trkpt><trkpt lat="41.19330185863546" lon="14.469536831732558"><ele>48.0</ele><time>2026-05-02T12:43:04.001Z</time></trkpt><trkpt lat="41.19316803673201" lon="14.469648753230834"><ele>48.0</ele><time>2026-05-02T12:43:05.001Z</time></trkpt><trkpt lat="41.193042123881874" lon="14.46975078997214"><ele>48.0</ele><time>2026-05-02T12:43:06.001Z</time></trkpt><trkpt lat="41.19292436607006" lon="14.469845872270566"><ele>48.0</ele><time>2026-05-02T12:43:07.001Z</time></trkpt><trkpt lat="41.19282297662305" lon="14.46992553058361"><ele>48.0</ele><time>2026-05-02T12:43:08.001Z</time></trkpt><trkpt lat="41.192722893423806" lon="14.47000937249281"><ele>48.0</ele><time>2026-05-02T12:43:09.001Z</time></trkpt><trkpt lat="41.192626110343426" lon="14.47008864256199"><ele>48.0</ele><time>2026-05-02T12:43:10.001Z</time></trkpt><trkpt lat="41.19253083494797" lon="14.47017171837098"><ele>48.0</ele><time>2026-05-02T12:43:11.001Z</time></trkpt><trkpt lat="41.19243243585427" lon="14.470265506251591"><ele>48.0</ele><time>2026-05-02T12:43:12.001Z</time></trkpt><trkpt lat="41.19233339901829" lon="14.470361188859826"><ele>48.0</ele><time>2026-05-02T12:43:13.001Z</time></trkpt><trkpt lat="41.19223251114782" lon="14.470466214026635"><ele>47.75</ele><time>2026-05-02T12:43:14.001Z</time></trkpt><trkpt lat="41.19213426146655" lon="14.470585034681573"><ele>47.5</ele><time>2026-05-02T12:43:15.001Z</time></trkpt><trkpt lat="41.192033203802865" lon="14.470706579750928"><ele>47.25</ele><time>2026-05-02T12:43:16.001Z</time></trkpt><trkpt lat="41.19193345286824" lon="14.470835129746737"><ele>47.0</ele><time>2026-05-02T12:43:17.001Z</time></trkpt><trkpt lat="41.19183118899462" lon="14.4709647801917"><ele>47.0</ele><time>2026-05-02T12:43:18.001Z</time></trkpt><trkpt lat="41.19171865788211" lon="14.471095028056892"><ele>47.0</ele><time>2026-05-02T12:43:19.001Z</time></trkpt><trkpt lat="41.19160745538905" lon="14.47122727552491"><ele>47.0</ele><time>2026-05-02T12:43:20.001Z</time></trkpt><trkpt lat="41.19149811359435" lon="14.47135630070788"><ele>47.0</ele><time>2026-05-02T12:43:21.001Z</time></trkpt><trkpt lat="41.191384738722" lon="14.471489761032613"><ele>45.666666666666664</ele><time>2026-05-02T12:43:22.001Z</time></trkpt><trkpt lat="41.1912708435377" lon="14.471626678263362"><ele>44.333333333333336</ele><time>2026-05-02T12:43:23.001Z</time></trkpt><trkpt lat="41.19115716479988" lon="14.471775242600305"><ele>43.0</ele><time>2026-05-02T12:43:24.001Z</time></trkpt><trkpt lat="41.19104317722728" lon="14.47191220079264"><ele>43.0</ele><time>2026-05-02T12:43:25.001Z</time></trkpt><trkpt lat="41.190934445494996" lon="14.472042664330738"><ele>43.0</ele><time>2026-05-02T12:43:26.001Z</time></trkpt><trkpt lat="41.19082758889279" lon="14.472176616344884"><ele>43.0</ele><time>2026-05-02T12:43:27.001Z</time></trkpt><trkpt lat="41.19072087908195" lon="14.47230434913433"><ele>43.0</ele><time>2026-05-02T12:43:28.001Z</time></trkpt><trkpt lat="41.190620778870134" lon="14.472425504331815"><ele>42.5</ele><time>2026-05-02T12:43:29.001Z</time></trkpt><trkpt lat="41.19051926615036" lon="14.472547112547723"><ele>42.0</ele><time>2026-05-02T12:43:30.001Z</time></trkpt><trkpt lat="41.19041409078476" lon="14.472664888216528"><ele>41.5</ele><time>2026-05-02T12:43:31.001Z</time></trkpt><trkpt lat="41.19029289444359" lon="14.47277052412878"><ele>41.0</ele><time>2026-05-02T12:43:32.001Z</time></trkpt><trkpt lat="41.19016781431203" lon="14.472851481186687"><ele>41.0</ele><time>2026-05-02T12:43:33.001Z</time></trkpt><trkpt lat="41.190039918918416" lon="14.472919763527802"><ele>41.0</ele><time>2026-05-02T12:43:34.001Z</time></trkpt><trkpt lat="41.189904826035296" lon="14.472978974987518"><ele>41.0</ele><time>2026-05-02T12:43:35.001Z</time></trkpt><trkpt lat="41.189767298148496" lon="14.473032744921978"><ele>41.0</ele><time>2026-05-02T12:43:36.001Z</time></trkpt><trkpt lat="41.18962683663166" lon="14.473098730454847"><ele>40.5</ele><time>2026-05-02T12:43:37.001Z</time></trkpt><trkpt lat="41.18948875834574" lon="14.473165140264618"><ele>40.0</ele><time>2026-05-02T12:43:38.001Z</time></trkpt><trkpt lat="41.18935075792913" lon="14.473221035188434"><ele>39.5</ele><time>2026-05-02T12:43:39.001Z</time></trkpt><trkpt lat="41.189214810953395" lon="14.473275318293547"><ele>39.0</ele><time>2026-05-02T12:43:40.001Z</time></trkpt><trkpt lat="41.18907374776038" lon="14.473328196102193"><ele>39.0</ele><time>2026-05-02T12:43:41.001Z</time></trkpt><trkpt lat="41.18893028745594" lon="14.4733890685293"><ele>39.0</ele><time>2026-05-02T12:43:42.001Z</time></trkpt><trkpt lat="41.18878736044632" lon="14.473447899415907"><ele>39.0</ele><time>2026-05-02T12:43:43.001Z</time></trkpt><trkpt lat="41.18864356978242" lon="14.473499856086107"><ele>39.0</ele><time>2026-05-02T12:43:44.001Z</time></trkpt><trkpt lat="41.188505430259546" lon="14.473564047674593"><ele>39.0</ele><time>2026-05-02T12:43:45.001Z</time></trkpt><trkpt lat="41.18836554689464" lon="14.473625043134742"><ele>39.0</ele><time>2026-05-02T12:43:46.001Z</time></trkpt><trkpt lat="41.188226995388455" lon="14.473687966619954"><ele>39.0</ele><time>2026-05-02T12:43:47.001Z</time></trkpt><trkpt lat="41.18808837242268" lon="14.47375126139364"><ele>39.0</ele><time>2026-05-02T12:43:48.001Z</time></trkpt><trkpt lat="41.18795398236575" lon="14.47381764408176"><ele>39.5</ele><time>2026-05-02T12:43:49.001Z</time></trkpt><trkpt lat="41.18781706316963" lon="14.473877781687598"><ele>40.0</ele><time>2026-05-02T12:43:50.002Z</time></trkpt><trkpt lat="41.18767588579799" lon="14.473915897387057"><ele>40.5</ele><time>2026-05-02T12:43:51.002Z</time></trkpt><trkpt lat="41.18753635619859" lon="14.47397318428504"><ele>41.0</ele><time>2026-05-02T12:43:52.002Z</time></trkpt><trkpt lat="41.187390598318395" lon="14.474037374387303"><ele>41.0</ele><time>2026-05-02T12:43:53.002Z</time></trkpt><trkpt lat="41.18725311536775" lon="14.47411929768411"><ele>41.0</ele><time>2026-05-02T12:43:54.002Z</time></trkpt><trkpt lat="41.187113988438306" lon="14.474171856000147"><ele>41.0</ele><time>2026-05-02T12:43:55.002Z</time></trkpt><trkpt lat="41.18697491419484" lon="14.47423426722554"><ele>41.0</ele><time>2026-05-02T12:43:56.002Z</time></trkpt><trkpt lat="41.186830188794154" lon="14.4742728759864"><ele>41.0</ele><time>2026-05-02T12:43:57.015Z</time></trkpt><trkpt lat="41.18669225204008" lon="14.474328726228054"><ele>41.0</ele><time>2026-05-02T12:43:58.018Z</time></trkpt><trkpt lat="41.18655771807901" lon="14.474383252866794"><ele>41.0</ele><time>2026-05-02T12:43:59.002Z</time></trkpt><trkpt lat="41.18642030175137" lon="14.474439760527986"><ele>41.0</ele><time>2026-05-02T12:44:00.002Z</time></trkpt><trkpt lat="41.18627110904777" lon="14.474508375111373"><ele>41.666666666666664</ele><time>2026-05-02T12:44:01.002Z</time></trkpt><trkpt lat="41.186120922984585" lon="14.47457520459075"><ele>42.333333333333336</ele><time>2026-05-02T12:44:02.002Z</time></trkpt><trkpt lat="41.185972463741756" lon="14.474624861437015"><ele>43.0</ele><time>2026-05-02T12:44:03.002Z</time></trkpt><trkpt lat="41.18583543393024" lon="14.474700636100284"><ele>43.0</ele><time>2026-05-02T12:44:04.002Z</time></trkpt><trkpt lat="41.185700278557725" lon="14.474752913776877"><ele>43.0</ele><time>2026-05-02T12:44:05Z</time></trkpt><trkpt lat="41.18554928159992" lon="14.474814084470232"><ele>43.0</ele><time>2026-05-02T12:44:06Z</time></trkpt><trkpt lat="41.185416011970744" lon="14.474869821581109"><ele>43.0</ele><time>2026-05-02T12:44:07Z</time></trkpt><trkpt lat="41.185278618516826" lon="14.474924230338596"><ele>42.5</ele><time>2026-05-02T12:44:08Z</time></trkpt><trkpt lat="41.18513962989816" lon="14.474970647883119"><ele>42.0</ele><time>2026-05-02T12:44:09Z</time></trkpt><trkpt lat="41.1850110988957" lon="14.475020473730861"><ele>41.5</ele><time>2026-05-02T12:44:10Z</time></trkpt><trkpt lat="41.184870090885056" lon="14.47507671189065"><ele>41.0</ele><time>2026-05-02T12:44:11Z</time></trkpt><trkpt lat="41.18472837219138" lon="14.475134394705773"><ele>40.33333333333333</ele><time>2026-05-02T12:44:12Z</time></trkpt><trkpt lat="41.18457766052924" lon="14.475184829844666"><ele>39.666666666666664</ele><time>2026-05-02T12:44:13Z</time></trkpt><trkpt lat="41.18443249024328" lon="14.47524262321059"><ele>39.0</ele><time>2026-05-02T12:44:14Z</time></trkpt><trkpt lat="41.18428916955353" lon="14.475303174826358"><ele>39.0</ele><time>2026-05-02T12:44:15Z</time></trkpt><trkpt lat="41.18414435056248" lon="14.475357671534741"><ele>39.0</ele><time>2026-05-02T12:44:16Z</time></trkpt><trkpt lat="41.18399885651653" lon="14.475411009760979"><ele>39.0</ele><time>2026-05-02T12:44:17Z</time></trkpt><trkpt lat="41.18386579761565" lon="14.47547309624908"><ele>39.0</ele><time>2026-05-02T12:44:18Z</time></trkpt><trkpt lat="41.183721975211796" lon="14.475533730003793"><ele>39.5</ele><time>2026-05-02T12:44:19Z</time></trkpt><trkpt lat="41.18358024824625" lon="14.475593604805338"><ele>40.0</ele><time>2026-05-02T12:44:20Z</time></trkpt><trkpt lat="41.18345238220299" lon="14.475652569298422"><ele>40.5</ele><time>2026-05-02T12:44:21Z</time></trkpt><trkpt lat="41.18333147109828" lon="14.47570145821051"><ele>41.0</ele><time>2026-05-02T12:44:22Z</time></trkpt><trkpt lat="41.18320644505218" lon="14.475739241054102"><ele>43.0</ele><time>2026-05-02T12:44:23Z</time></trkpt><trkpt lat="41.183134747815124" lon="14.475786572496864"><ele>45.0</ele><time>2026-05-02T12:44:24Z</time></trkpt><trkpt lat="41.18306564562908" lon="14.47580387191265"><ele>47.0</ele><time>2026-05-02T12:44:25Z</time></trkpt><trkpt lat="41.182964725172816" lon="14.47572738812816"><ele>49.0</ele><time>2026-05-02T12:44:27Z</time></trkpt><trkpt lat="41.18292230407747" lon="14.475632812788229"><ele>51.0</ele><time>2026-05-02T12:44:28Z</time></trkpt><trkpt lat="41.18287975578221" lon="14.475511203905667"><ele>50.199999999999996</ele><time>2026-05-02T12:44:29Z</time></trkpt><trkpt lat="41.18282219525167" lon="14.475403919618854"><ele>49.4</ele><time>2026-05-02T12:44:30Z</time></trkpt><trkpt lat="41.1827478723408" lon="14.475302502931905"><ele>48.6</ele><time>2026-05-02T12:44:31Z</time></trkpt><trkpt lat="41.18266246749582" lon="14.4751895918287"><ele>47.8</ele><time>2026-05-02T12:44:32Z</time></trkpt><trkpt lat="41.18256052137145" lon="14.47513284798615"><ele>47.0</ele><time>2026-05-02T12:44:33Z</time></trkpt><trkpt lat="41.18244600851282" lon="14.475098893744265"><ele>48.25</ele><time>2026-05-02T12:44:34Z</time></trkpt><trkpt lat="41.182328397606184" lon="14.475102106873218"><ele>49.5</ele><time>2026-05-02T12:44:35Z</time></trkpt><trkpt lat="41.18221127011605" lon="14.475131043222763"><ele>50.75</ele><time>2026-05-02T12:44:36Z</time></trkpt><trkpt lat="41.182090296596705" lon="14.475174053361563"><ele>52.0</ele><time>2026-05-02T12:44:37Z</time></trkpt><trkpt lat="41.18197030480343" lon="14.47523129189054"><ele>52.0</ele><time>2026-05-02T12:44:38Z</time></trkpt><trkpt lat="41.181849070567026" lon="14.475282923941426"><ele>52.0</ele><time>2026-05-02T12:44:39Z</time></trkpt><trkpt lat="41.181711946461995" lon="14.475334661038735"><ele>52.0</ele><time>2026-05-02T12:44:40Z</time></trkpt><trkpt lat="41.18158578165894" lon="14.475387383354212"><ele>52.0</ele><time>2026-05-02T12:44:41Z</time></trkpt><trkpt lat="41.181455907094204" lon="14.47543585437081"><ele>51.5</ele><time>2026-05-02T12:44:42Z</time></trkpt><trkpt lat="41.181331223551844" lon="14.475488918280787"><ele>51.0</ele><time>2026-05-02T12:44:43Z</time></trkpt><trkpt lat="41.18121433428263" lon="14.475534758676037"><ele>50.5</ele><time>2026-05-02T12:44:44Z</time></trkpt><trkpt lat="41.181099620931896" lon="14.475578669670288"><ele>50.0</ele><time>2026-05-02T12:44:45Z</time></trkpt><trkpt lat="41.180964223219874" lon="14.475614647625381"><ele>50.0</ele><time>2026-05-02T12:44:46.001Z</time></trkpt><trkpt lat="41.180834118640995" lon="14.475630044668325"><ele>50.0</ele><time>2026-05-02T12:44:47.001Z</time></trkpt><trkpt lat="41.1807068340819" lon="14.475623128254256"><ele>50.0</ele><time>2026-05-02T12:44:48.001Z</time></trkpt><trkpt lat="41.180580971578806" lon="14.475597859684612"><ele>50.0</ele><time>2026-05-02T12:44:49.001Z</time></trkpt><trkpt lat="41.180460518672874" lon="14.47558616877062"><ele>49.8</ele><time>2026-05-02T12:44:50.001Z</time></trkpt><trkpt lat="41.180343966402916" lon="14.475577663417395"><ele>49.6</ele><time>2026-05-02T12:44:51.001Z</time></trkpt><trkpt lat="41.18023426401854" lon="14.475583745359467"><ele>49.400000000000006</ele><time>2026-05-02T12:44:52.001Z</time></trkpt><trkpt lat="41.18013310726332" lon="14.47558621965635"><ele>49.2</ele><time>2026-05-02T12:44:53.001Z</time></trkpt><trkpt lat="41.180033644109486" lon="14.475607019368336"><ele>49.0</ele><time>2026-05-02T12:44:54.001Z</time></trkpt><trkpt lat="41.179942051545" lon="14.475653773118074"><ele>48.99999999999999</ele><time>2026-05-02T12:44:55.001Z</time></trkpt><trkpt lat="41.179859980036696" lon="14.475718328897567"><ele>49.0</ele><time>2026-05-02T12:44:56.001Z</time></trkpt><trkpt lat="41.179794600945726" lon="14.475793384178715"><ele>49.0</ele><time>2026-05-02T12:44:57.001Z</time></trkpt><trkpt lat="41.17973573352241" lon="14.475849711047472"><ele>49.0</ele><time>2026-05-02T12:44:58.001Z</time></trkpt><trkpt lat="41.17966725463812" lon="14.475922205841423"><ele>48.99999999999999</ele><time>2026-05-02T12:44:59.001Z</time></trkpt><trkpt lat="41.1795945753928" lon="14.475994289566927"><ele>49.0</ele><time>2026-05-02T12:45:00.001Z</time></trkpt><trkpt lat="41.179512415137786" lon="14.47607059616567"><ele>49.5</ele><time>2026-05-02T12:45:01.001Z</time></trkpt><trkpt lat="41.179428016719875" lon="14.476145064590282"><ele>50.0</ele><time>2026-05-02T12:45:02.001Z</time></trkpt><trkpt lat="41.17932802051449" lon="14.476219511419485"><ele>50.5</ele><time>2026-05-02T12:45:03.001Z</time></trkpt><trkpt lat="41.17921963252378" lon="14.476294927593349"><ele>51.0</ele><time>2026-05-02T12:45:04.001Z</time></trkpt><trkpt lat="41.17910489884572" lon="14.476354819152332"><ele>51.75</ele><time>2026-05-02T12:45:05.001Z</time></trkpt><trkpt lat="41.17897079708675" lon="14.476407777777117"><ele>52.5</ele><time>2026-05-02T12:45:06.001Z</time></trkpt><trkpt lat="41.178848902889044" lon="14.476448376685912"><ele>53.25</ele><time>2026-05-02T12:45:07.001Z</time></trkpt><trkpt lat="41.17872683990539" lon="14.476499723392273"><ele>54.0</ele><time>2026-05-02T12:45:08.001Z</time></trkpt><trkpt lat="41.17860324317307" lon="14.47654869767009"><ele>54.0</ele><time>2026-05-02T12:45:09.001Z</time></trkpt><trkpt lat="41.178488808024795" lon="14.476594418872224"><ele>54.00000000000001</ele><time>2026-05-02T12:45:10.001Z</time></trkpt><trkpt lat="41.17838880952921" lon="14.476631503306148"><ele>54.00000000000001</ele><time>2026-05-02T12:45:11.001Z</time></trkpt><trkpt lat="41.178301985323344" lon="14.476669859002836"><ele>54.0</ele><time>2026-05-02T12:45:12.001Z</time></trkpt><trkpt lat="41.178228460567915" lon="14.476695595507444"><ele>54.0</ele><time>2026-05-02T12:45:13.001Z</time></trkpt><trkpt lat="41.17816201812188" lon="14.476710059859005"><ele>54.333333333333336</ele><time>2026-05-02T12:45:14.001Z</time></trkpt><trkpt lat="41.178092679010746" lon="14.47673221052094"><ele>54.66666666666667</ele><time>2026-05-02T12:45:15.001Z</time></trkpt><trkpt lat="41.17801614147351" lon="14.476758436060111"><ele>55.0</ele><time>2026-05-02T12:45:16.001Z</time></trkpt><trkpt lat="41.17793643687959" lon="14.476787223696032"><ele>55.333333333333336</ele><time>2026-05-02T12:45:17.001Z</time></trkpt><trkpt lat="41.177854946687965" lon="14.476821817249984"><ele>55.66666666666667</ele><time>2026-05-02T12:45:18.001Z</time></trkpt><trkpt lat="41.17777354461044" lon="14.476855151940498"><ele>56.0</ele><time>2026-05-02T12:45:19.001Z</time></trkpt><trkpt lat="41.17768202880677" lon="14.476905855546097"><ele>56.00000000000001</ele><time>2026-05-02T12:45:20.001Z</time></trkpt><trkpt lat="41.17758882998516" lon="14.476906660307595"><ele>56.0</ele><time>2026-05-02T12:45:21.001Z</time></trkpt><trkpt lat="41.1774984836299" lon="14.476928232810495"><ele>56.0</ele><time>2026-05-02T12:45:22.001Z</time></trkpt><trkpt lat="41.17742314712803" lon="14.476937827181702"><ele>56.0</ele><time>2026-05-02T12:45:23.001Z</time></trkpt><trkpt lat="41.177352663737366" lon="14.476943337564913"><ele>56.00000000000001</ele><time>2026-05-02T12:45:24.001Z</time></trkpt><trkpt lat="41.17727928694965" lon="14.476933891722863"><ele>56.0</ele><time>2026-05-02T12:45:25.001Z</time></trkpt><trkpt lat="41.1771862376236" lon="14.476918619622806"><ele>55.8</ele><time>2026-05-02T12:45:27.001Z</time></trkpt><trkpt lat="41.1771456286098" lon="14.477031386296193"><ele>55.599999999999994</ele><time>2026-05-02T12:45:30.001Z</time></trkpt><trkpt lat="41.177219649782934" lon="14.477104427579823"><ele>55.4</ele><time>2026-05-02T12:45:31.001Z</time></trkpt><trkpt lat="41.17727637933616" lon="14.477159659921691"><ele>55.2</ele><time>2026-05-02T12:45:32.001Z</time></trkpt><trkpt lat="41.17738494495571" lon="14.477263578366228"><ele>55.0</ele><time>2026-05-02T12:45:34.001Z</time></trkpt><trkpt lat="41.17746525556996" lon="14.477314814168652"><ele>55.6</ele><time>2026-05-02T12:45:35.001Z</time></trkpt><trkpt lat="41.17753506595102" lon="14.477389556302906"><ele>56.2</ele><time>2026-05-02T12:45:36.001Z</time></trkpt><trkpt lat="41.17761083733525" lon="14.477469186551044"><ele>56.8</ele><time>2026-05-02T12:45:37.001Z</time></trkpt><trkpt lat="41.177685684732836" lon="14.477548086419747"><ele>57.4</ele><time>2026-05-02T12:45:38.001Z</time></trkpt><trkpt lat="41.17775423456153" lon="14.477645325728707"><ele>58.0</ele><time>2026-05-02T12:45:39.001Z</time></trkpt><trkpt lat="41.177817909921295" lon="14.477734164158106"><ele>58.0</ele><time>2026-05-02T12:45:40.001Z</time></trkpt><trkpt lat="41.177879472205575" lon="14.477834519220847"><ele>58.0</ele><time>2026-05-02T12:45:41.001Z</time></trkpt><trkpt lat="41.17793194437276" lon="14.477950594052157"><ele>58.0</ele><time>2026-05-02T12:45:42.001Z</time></trkpt><trkpt lat="41.17801725106795" lon="14.478059629538901"><ele>58.0</ele><time>2026-05-02T12:45:43.001Z</time></trkpt><trkpt lat="41.178080174822746" lon="14.478154106100709"><ele>58.0</ele><time>2026-05-02T12:45:44.001Z</time></trkpt><trkpt lat="41.17813978128417" lon="14.47827825367566"><ele>57.75</ele><time>2026-05-02T12:45:45.001Z</time></trkpt><trkpt lat="41.17819828081915" lon="14.478417137135486"><ele>57.5</ele><time>2026-05-02T12:45:46.001Z</time></trkpt><trkpt lat="41.17825578261066" lon="14.478565999796572"><ele>57.25</ele><time>2026-05-02T12:45:47.001Z</time></trkpt><trkpt lat="41.17831985328314" lon="14.478708856076201"><ele>57.0</ele><time>2026-05-02T12:45:48.001Z</time></trkpt><trkpt lat="41.178394948517884" lon="14.478844217525014"><ele>57.75</ele><time>2026-05-02T12:45:49.001Z</time></trkpt><trkpt lat="41.17845893447014" lon="14.478968412054176"><ele>58.5</ele><time>2026-05-02T12:45:50.001Z</time></trkpt><trkpt lat="41.17852994193034" lon="14.479101859771495"><ele>59.25</ele><time>2026-05-02T12:45:51.001Z</time></trkpt><trkpt lat="41.17860779484845" lon="14.479241550950253"><ele>60.0</ele><time>2026-05-02T12:45:52.001Z</time></trkpt><trkpt lat="41.17868413133265" lon="14.479384519207168"><ele>60.0</ele><time>2026-05-02T12:45:53.001Z</time></trkpt><trkpt lat="41.17876069093217" lon="14.47952849717122"><ele>60.0</ele><time>2026-05-02T12:45:54.001Z</time></trkpt><trkpt lat="41.17883465960652" lon="14.479675358399996"><ele>60.0</ele><time>2026-05-02T12:45:55.001Z</time></trkpt><trkpt lat="41.17891048521939" lon="14.479820290046218"><ele>60.0</ele><time>2026-05-02T12:45:56.002Z</time></trkpt><trkpt lat="41.17898787934338" lon="14.479966263262007"><ele>60.0</ele><time>2026-05-02T12:45:57.002Z</time></trkpt><trkpt lat="41.1790649598736" lon="14.480109269680375"><ele>60.0</ele><time>2026-05-02T12:45:58.002Z</time></trkpt><trkpt lat="41.17914356418942" lon="14.480258829982072"><ele>60.0</ele><time>2026-05-02T12:45:59.002Z</time></trkpt><trkpt lat="41.17923649346051" lon="14.480386299816205"><ele>60.0</ele><time>2026-05-02T12:46:00.002Z</time></trkpt><trkpt lat="41.17934090309439" lon="14.480498356358767"><ele>60.0</ele><time>2026-05-02T12:46:01.002Z</time></trkpt><trkpt lat="41.1794534503449" lon="14.480606637653722"><ele>60.0</ele><time>2026-05-02T12:46:02.002Z</time></trkpt><trkpt lat="41.17956301119464" lon="14.48071695905519"><ele>60.0</ele><time>2026-05-02T12:46:03.002Z</time></trkpt><trkpt lat="41.17966805947169" lon="14.480827739512538"><ele>60.0</ele><time>2026-05-02T12:46:04.002Z</time></trkpt><trkpt lat="41.17977262760968" lon="14.480940838595767"><ele>59.5</ele><time>2026-05-02T12:46:05.002Z</time></trkpt><trkpt lat="41.179871105103985" lon="14.481058260089192"><ele>59.0</ele><time>2026-05-02T12:46:06.002Z</time></trkpt><trkpt lat="41.179981127263986" lon="14.481184634741346"><ele>58.5</ele><time>2026-05-02T12:46:07.002Z</time></trkpt><trkpt lat="41.18007770905433" lon="14.48131400355956"><ele>58.0</ele><time>2026-05-02T12:46:08.002Z</time></trkpt><trkpt lat="41.18016101879963" lon="14.481457296694675"><ele>58.0</ele><time>2026-05-02T12:46:09.002Z</time></trkpt><trkpt lat="41.18023146840936" lon="14.481614110667687"><ele>58.0</ele><time>2026-05-02T12:46:10.002Z</time></trkpt><trkpt lat="41.18029671171821" lon="14.481771667584095"><ele>58.0</ele><time>2026-05-02T12:46:11Z</time></trkpt><trkpt lat="41.18034436631962" lon="14.481942711149207"><ele>58.0</ele><time>2026-05-02T12:46:12Z</time></trkpt><trkpt lat="41.18039034654086" lon="14.482119031931637"><ele>58.0</ele><time>2026-05-02T12:46:13Z</time></trkpt><trkpt lat="41.18043558376997" lon="14.482293504150208"><ele>58.0</ele><time>2026-05-02T12:46:14Z</time></trkpt><trkpt lat="41.180483068814674" lon="14.482469115685687"><ele>58.0</ele><time>2026-05-02T12:46:15Z</time></trkpt><trkpt lat="41.18053179842094" lon="14.482652180120462"><ele>58.0</ele><time>2026-05-02T12:46:16Z</time></trkpt><trkpt lat="41.18058350620711" lon="14.482830992198883"><ele>58.0</ele><time>2026-05-02T12:46:17Z</time></trkpt><trkpt lat="41.18063126075394" lon="14.483006970432413"><ele>58.0</ele><time>2026-05-02T12:46:18Z</time></trkpt><trkpt lat="41.18068422937533" lon="14.483189201399645"><ele>58.0</ele><time>2026-05-02T12:46:19Z</time></trkpt><trkpt lat="41.180731817946565" lon="14.483360463530149"><ele>58.0</ele><time>2026-05-02T12:46:20Z</time></trkpt><trkpt lat="41.180781803352964" lon="14.483543543702215"><ele>58.0</ele><time>2026-05-02T12:46:21Z</time></trkpt><trkpt lat="41.18082702285557" lon="14.483721319855798"><ele>58.0</ele><time>2026-05-02T12:46:22Z</time></trkpt><trkpt lat="41.18088301281978" lon="14.48389724869963"><ele>58.0</ele><time>2026-05-02T12:46:23Z</time></trkpt><trkpt lat="41.18095373702947" lon="14.484059018471926"><ele>58.0</ele><time>2026-05-02T12:46:24Z</time></trkpt><trkpt lat="41.18104509706393" lon="14.484219799711662"><ele>58.0</ele><time>2026-05-02T12:46:25Z</time></trkpt><trkpt lat="41.18113868771513" lon="14.484363345766088"><ele>58.0</ele><time>2026-05-02T12:46:26Z</time></trkpt><trkpt lat="41.18123957585347" lon="14.4845028066516"><ele>58.0</ele><time>2026-05-02T12:46:27Z</time></trkpt><trkpt lat="41.1813455263175" lon="14.484652711259209"><ele>58.0</ele><time>2026-05-02T12:46:28Z</time></trkpt><trkpt lat="41.18145182412256" lon="14.484809151827506"><ele>58.0</ele><time>2026-05-02T12:46:29Z</time></trkpt><trkpt lat="41.1815886594155" lon="14.48497766662474"><ele>58.0</ele><time>2026-05-02T12:46:30Z</time></trkpt><trkpt lat="41.18169621666627" lon="14.485140954921881"><ele>58.0</ele><time>2026-05-02T12:46:31Z</time></trkpt><trkpt lat="41.18180421301584" lon="14.485304158137318"><ele>59.0</ele><time>2026-05-02T12:46:32Z</time></trkpt><trkpt lat="41.1819168626955" lon="14.485468743136103"><ele>60.0</ele><time>2026-05-02T12:46:33Z</time></trkpt><trkpt lat="41.182030677299544" lon="14.485633252559593"><ele>61.0</ele><time>2026-05-02T12:46:34Z</time></trkpt><trkpt lat="41.18214735299773" lon="14.485800088366675"><ele>61.0</ele><time>2026-05-02T12:46:35Z</time></trkpt><trkpt lat="41.18225872300063" lon="14.485963878716134"><ele>61.0</ele><time>2026-05-02T12:46:36Z</time></trkpt><trkpt lat="41.18236762044221" lon="14.486115063713262"><ele>61.0</ele><time>2026-05-02T12:46:37Z</time></trkpt><trkpt lat="41.18247413422867" lon="14.486261531712236"><ele>61.33333333333333</ele><time>2026-05-02T12:46:38Z</time></trkpt><trkpt lat="41.18257244212003" lon="14.48641146200572"><ele>61.66666666666667</ele><time>2026-05-02T12:46:39Z</time></trkpt><trkpt lat="41.18267905042163" lon="14.486548593559158"><ele>62.0</ele><time>2026-05-02T12:46:40Z</time></trkpt><trkpt lat="41.18280415625452" lon="14.48667657214519"><ele>62.0</ele><time>2026-05-02T12:46:41Z</time></trkpt><trkpt lat="41.18295339767489" lon="14.486802441977977"><ele>62.0</ele><time>2026-05-02T12:46:42Z</time></trkpt><trkpt lat="41.18311021528329" lon="14.486917611267925"><ele>62.0</ele><time>2026-05-02T12:46:43Z</time></trkpt><trkpt lat="41.18327145937113" lon="14.487038049405006"><ele>62.0</ele><time>2026-05-02T12:46:44Z</time></trkpt><trkpt lat="41.18344716437105" lon="14.487161410544514"><ele>62.0</ele><time>2026-05-02T12:46:45Z</time></trkpt><trkpt lat="41.183624636263374" lon="14.48729292782937"><ele>62.0</ele><time>2026-05-02T12:46:46Z</time></trkpt><trkpt lat="41.183808561018026" lon="14.487425018212809"><ele>62.0</ele><time>2026-05-02T12:46:47Z</time></trkpt><trkpt lat="41.183984409248474" lon="14.487549290845987"><ele>62.0</ele><time>2026-05-02T12:46:48Z</time></trkpt><trkpt lat="41.18415916844704" lon="14.487674402842055"><ele>62.0</ele><time>2026-05-02T12:46:49Z</time></trkpt><trkpt lat="41.18432822204033" lon="14.487796343142405"><ele>61.333333333333336</ele><time>2026-05-02T12:46:50Z</time></trkpt><trkpt lat="41.18450245835916" lon="14.487913255732542"><ele>60.66666666666667</ele><time>2026-05-02T12:46:51Z</time></trkpt><trkpt lat="41.184674799908" lon="14.488034895388939"><ele>60.0</ele><time>2026-05-02T12:46:52Z</time></trkpt><trkpt lat="41.18484226818615" lon="14.488159867999233"><ele>61.0</ele><time>2026-05-02T12:46:53Z</time></trkpt><trkpt lat="41.18501117556588" lon="14.488282432875032"><ele>62.0</ele><time>2026-05-02T12:46:54Z</time></trkpt><trkpt lat="41.18517647566776" lon="14.488405276534865"><ele>63.0</ele><time>2026-05-02T12:46:55Z</time></trkpt><trkpt lat="41.18534666106687" lon="14.488530383861184"><ele>63.0</ele><time>2026-05-02T12:46:56Z</time></trkpt><trkpt lat="41.18552161370453" lon="14.488652802560846"><ele>63.0</ele><time>2026-05-02T12:46:57Z</time></trkpt><trkpt lat="41.185692435506326" lon="14.488766862862652"><ele>63.0</ele><time>2026-05-02T12:46:58Z</time></trkpt><trkpt lat="41.18586269250366" lon="14.488880274233882"><ele>63.66666666666667</ele><time>2026-05-02T12:46:59Z</time></trkpt><trkpt lat="41.18603401383279" lon="14.489006234211917"><ele>64.33333333333334</ele><time>2026-05-02T12:47:00Z</time></trkpt><trkpt lat="41.18619155797449" lon="14.4891490588683"><ele>65.0</ele><time>2026-05-02T12:47:01Z</time></trkpt><trkpt lat="41.1863405156547" lon="14.48930408534805"><ele>65.0</ele><time>2026-05-02T12:47:02Z</time></trkpt><trkpt lat="41.18646784065964" lon="14.48947174230087"><ele>65.0</ele><time>2026-05-02T12:47:03Z</time></trkpt><trkpt lat="41.18657877671648" lon="14.489648014971737"><ele>65.0</ele><time>2026-05-02T12:47:04.001Z</time></trkpt><trkpt lat="41.186670196682904" lon="14.489837223256284"><ele>64.0</ele><time>2026-05-02T12:47:05.001Z</time></trkpt><trkpt lat="41.18674674368672" lon="14.490027659731991"><ele>63.0</ele><time>2026-05-02T12:47:06.001Z</time></trkpt><trkpt lat="41.18680483218817" lon="14.490245502906587"><ele>62.0</ele><time>2026-05-02T12:47:07.001Z</time></trkpt><trkpt lat="41.18686602738855" lon="14.490474105470183"><ele>62.0</ele><time>2026-05-02T12:47:08.001Z</time></trkpt><trkpt lat="41.18690818451983" lon="14.490708682301209"><ele>62.0</ele><time>2026-05-02T12:47:09.001Z</time></trkpt><trkpt lat="41.18694901614677" lon="14.490946152424602"><ele>62.0</ele><time>2026-05-02T12:47:10.001Z</time></trkpt><trkpt lat="41.18698441719484" lon="14.491187398552942"><ele>62.0</ele><time>2026-05-02T12:47:11.001Z</time></trkpt><trkpt lat="41.187018494541036" lon="14.49143284203779"><ele>62.0</ele><time>2026-05-02T12:47:12.001Z</time></trkpt><trkpt lat="41.187042707350045" lon="14.49168093057931"><ele>62.0</ele><time>2026-05-02T12:47:13.001Z</time></trkpt><trkpt lat="41.187066169229325" lon="14.491925601092387"><ele>62.66666666666667</ele><time>2026-05-02T12:47:14.001Z</time></trkpt><trkpt lat="41.18708361789606" lon="14.492166579948751"><ele>63.33333333333333</ele><time>2026-05-02T12:47:15.001Z</time></trkpt><trkpt lat="41.187108610419685" lon="14.492408620461326"><ele>64.0</ele><time>2026-05-02T12:47:16.001Z</time></trkpt><trkpt lat="41.18714003608238" lon="14.49265012137726"><ele>64.0</ele><time>2026-05-02T12:47:17.001Z</time></trkpt><trkpt lat="41.187169588217294" lon="14.492891640970052"><ele>64.0</ele><time>2026-05-02T12:47:18.001Z</time></trkpt><trkpt lat="41.18718844464704" lon="14.493147889900348"><ele>64.0</ele><time>2026-05-02T12:47:19.001Z</time></trkpt><trkpt lat="41.18721259273335" lon="14.493388254515278"><ele>63.666666666666664</ele><time>2026-05-02T12:47:20.001Z</time></trkpt><trkpt lat="41.18722841738725" lon="14.493637919995908"><ele>63.33333333333333</ele><time>2026-05-02T12:47:21.001Z</time></trkpt><trkpt lat="41.18724524205387" lon="14.493879846453783"><ele>63.0</ele><time>2026-05-02T12:47:22.001Z</time></trkpt><trkpt lat="41.18724788154369" lon="14.494120714566508"><ele>63.0</ele><time>2026-05-02T12:47:23.001Z</time></trkpt><trkpt lat="41.18724659983558" lon="14.49435071935004"><ele>63.0</ele><time>2026-05-02T12:47:24.001Z</time></trkpt><trkpt lat="41.18722794818574" lon="14.494564823660545"><ele>63.0</ele><time>2026-05-02T12:47:25.001Z</time></trkpt><trkpt lat="41.187204021149114" lon="14.494762732559003"><ele>62.75</ele><time>2026-05-02T12:47:26.001Z</time></trkpt><trkpt lat="41.187194424447284" lon="14.49496250788353"><ele>62.5</ele><time>2026-05-02T12:47:27.001Z</time></trkpt><trkpt lat="41.18721068140316" lon="14.49515008144807"><ele>62.25</ele><time>2026-05-02T12:47:28.001Z</time></trkpt><trkpt lat="41.1872563608405" lon="14.49532234794943"><ele>62.0</ele><time>2026-05-02T12:47:29.001Z</time></trkpt><trkpt lat="41.1873283583595" lon="14.495489493263229"><ele>58.333333333333336</ele><time>2026-05-02T12:47:30.001Z</time></trkpt><trkpt lat="41.187419070546156" lon="14.495667635224324"><ele>54.66666666666667</ele><time>2026-05-02T12:47:31.001Z</time></trkpt><trkpt lat="41.18749202995522" lon="14.495852618425268"><ele>51.0</ele><time>2026-05-02T12:47:32.001Z</time></trkpt><trkpt lat="41.18754973621843" lon="14.496054388753699"><ele>52.66666666666667</ele><time>2026-05-02T12:47:33.001Z</time></trkpt><trkpt lat="41.18759458595985" lon="14.496278918369946"><ele>54.333333333333336</ele><time>2026-05-02T12:47:34.001Z</time></trkpt><trkpt lat="41.187635067073515" lon="14.49652045776944"><ele>56.0</ele><time>2026-05-02T12:47:35.001Z</time></trkpt><trkpt lat="41.187678782028605" lon="14.496760186911677"><ele>56.0</ele><time>2026-05-02T12:47:36.001Z</time></trkpt><trkpt lat="41.187726078569014" lon="14.496990604316839"><ele>56.0</ele><time>2026-05-02T12:47:37.001Z</time></trkpt><trkpt lat="41.187771840497234" lon="14.49722055392391"><ele>56.0</ele><time>2026-05-02T12:47:38.001Z</time></trkpt><trkpt lat="41.18779804308375" lon="14.49744937156685"><ele>57.333333333333336</ele><time>2026-05-02T12:47:39.001Z</time></trkpt><trkpt lat="41.187817458396545" lon="14.497681405738872"><ele>58.66666666666667</ele><time>2026-05-02T12:47:40.001Z</time></trkpt><trkpt lat="41.18782234966049" lon="14.497927109641129"><ele>60.0</ele><time>2026-05-02T12:47:41.001Z</time></trkpt><trkpt lat="41.187847202657444" lon="14.498147337316258"><ele>62.33333333333333</ele><time>2026-05-02T12:47:42.001Z</time></trkpt><trkpt lat="41.18788619439194" lon="14.498363432684377"><ele>64.66666666666666</ele><time>2026-05-02T12:47:43.001Z</time></trkpt><trkpt lat="41.187916442427614" lon="14.49858421987192"><ele>67.0</ele><time>2026-05-02T12:47:44.001Z</time></trkpt><trkpt lat="41.18793505576498" lon="14.498798410359166"><ele>68.66666666666666</ele><time>2026-05-02T12:47:45.001Z</time></trkpt><trkpt lat="41.187967056718165" lon="14.49901320121576"><ele>70.33333333333333</ele><time>2026-05-02T12:47:46.001Z</time></trkpt><trkpt lat="41.18800763059357" lon="14.499236792266055"><ele>72.0</ele><time>2026-05-02T12:47:47.001Z</time></trkpt><trkpt lat="41.18806372136683" lon="14.499458103844256"><ele>73.33333333333333</ele><time>2026-05-02T12:47:48.001Z</time></trkpt><trkpt lat="41.188123465455156" lon="14.499676796125755"><ele>74.66666666666666</ele><time>2026-05-02T12:47:49.001Z</time></trkpt><trkpt lat="41.18817864659855" lon="14.499900845051274"><ele>76.0</ele><time>2026-05-02T12:47:50.001Z</time></trkpt><trkpt lat="41.18822507542474" lon="14.50011182032297"><ele>71.66666666666666</ele><time>2026-05-02T12:47:51.001Z</time></trkpt><trkpt lat="41.18827336965427" lon="14.50032609023001"><ele>67.33333333333333</ele><time>2026-05-02T12:47:52.001Z</time></trkpt><trkpt lat="41.188352189897465" lon="14.500539823469374"><ele>63.0</ele><time>2026-05-02T12:47:53.001Z</time></trkpt><trkpt lat="41.1884413887392" lon="14.500744133808249"><ele>63.0</ele><time>2026-05-02T12:47:54.001Z</time></trkpt><trkpt lat="41.18853685141789" lon="14.500922497990336"><ele>63.0</ele><time>2026-05-02T12:47:55.001Z</time></trkpt><trkpt lat="41.1886340787822" lon="14.501102994714687"><ele>63.0</ele><time>2026-05-02T12:47:56.001Z</time></trkpt><trkpt lat="41.188718273674986" lon="14.501259845960272"><ele>64.33333333333333</ele><time>2026-05-02T12:47:57.001Z</time></trkpt><trkpt lat="41.18879632365966" lon="14.501449451217983"><ele>65.66666666666666</ele><time>2026-05-02T12:47:58.001Z</time></trkpt><trkpt lat="41.18885629886471" lon="14.501676362351404"><ele>67.0</ele><time>2026-05-02T12:47:59.001Z</time></trkpt><trkpt lat="41.18889106898473" lon="14.501917808060156"><ele>67.0</ele><time>2026-05-02T12:48:00.001Z</time></trkpt><trkpt lat="41.18893836862162" lon="14.502168711734008"><ele>67.0</ele><time>2026-05-02T12:48:01.001Z</time></trkpt><trkpt lat="41.188981782416896" lon="14.502402631028191"><ele>67.0</ele><time>2026-05-02T12:48:02.001Z</time></trkpt><trkpt lat="41.18901891327104" lon="14.502662813793739"><ele>62.33333333333333</ele><time>2026-05-02T12:48:03.001Z</time></trkpt><trkpt lat="41.18905709840658" lon="14.502919001769817"><ele>57.66666666666667</ele><time>2026-05-02T12:48:04.001Z</time></trkpt><trkpt lat="41.18910683865188" lon="14.503176716682617"><ele>53.0</ele><time>2026-05-02T12:48:05.001Z</time></trkpt><trkpt lat="41.18916321358251" lon="14.503428850694732"><ele>53.0</ele><time>2026-05-02T12:48:06.001Z</time></trkpt><trkpt lat="41.18921719716248" lon="14.503698865842203"><ele>53.0</ele><time>2026-05-02T12:48:07.001Z</time></trkpt><trkpt lat="41.18926276612125" lon="14.503960403654972"><ele>53.0</ele><time>2026-05-02T12:48:08.001Z</time></trkpt><trkpt lat="41.189316884421025" lon="14.504212453289513"><ele>54.333333333333336</ele><time>2026-05-02T12:48:09.001Z</time></trkpt><trkpt lat="41.18937909810729" lon="14.50446423346902"><ele>55.66666666666667</ele><time>2026-05-02T12:48:10.001Z</time></trkpt><trkpt lat="41.18944476761467" lon="14.504710232241765"><ele>57.0</ele><time>2026-05-02T12:48:11.001Z</time></trkpt><trkpt lat="41.189525285424246" lon="14.504948839584364"><ele>57.66666666666667</ele><time>2026-05-02T12:48:12.001Z</time></trkpt><trkpt lat="41.18961000954208" lon="14.505179649442558"><ele>58.333333333333336</ele><time>2026-05-02T12:48:13.002Z</time></trkpt><trkpt lat="41.18972144821838" lon="14.505386900772749"><ele>59.0</ele><time>2026-05-02T12:48:14.002Z</time></trkpt><trkpt lat="41.1898205034178" lon="14.505576159613993"><ele>59.66666666666667</ele><time>2026-05-02T12:48:15.002Z</time></trkpt><trkpt lat="41.189920145717224" lon="14.505793392542536"><ele>60.33333333333333</ele><time>2026-05-02T12:48:16.002Z</time></trkpt><trkpt lat="41.18999108731123" lon="14.5060240241056"><ele>61.0</ele><time>2026-05-02T12:48:17Z</time></trkpt><trkpt lat="41.190066201300134" lon="14.506253697789367"><ele>61.0</ele><time>2026-05-02T12:48:18Z</time></trkpt><trkpt lat="41.19013704143804" lon="14.506487422664872"><ele>61.0</ele><time>2026-05-02T12:48:19Z</time></trkpt><trkpt lat="41.19018782662613" lon="14.506717891199745"><ele>61.0</ele><time>2026-05-02T12:48:20Z</time></trkpt><trkpt lat="41.19023751197491" lon="14.506955262909573"><ele>63.33333333333333</ele><time>2026-05-02T12:48:21Z</time></trkpt><trkpt lat="41.190294049257226" lon="14.50719476159412"><ele>65.66666666666667</ele><time>2026-05-02T12:48:22Z</time></trkpt><trkpt lat="41.19035792478133" lon="14.507429831533528"><ele>68.0</ele><time>2026-05-02T12:48:23Z</time></trkpt><trkpt lat="41.19041391606819" lon="14.50766704601818"><ele>68.0</ele><time>2026-05-02T12:48:24Z</time></trkpt><trkpt lat="41.19047026275273" lon="14.507904277642874"><ele>68.0</ele><time>2026-05-02T12:48:25Z</time></trkpt><trkpt lat="41.19052679970939" lon="14.508145446995064"><ele>68.0</ele><time>2026-05-02T12:48:26Z</time></trkpt><trkpt lat="41.19058680511176" lon="14.508386308620098"><ele>68.66666666666667</ele><time>2026-05-02T12:48:27Z</time></trkpt><trkpt lat="41.19064076514002" lon="14.508639648573276"><ele>69.33333333333333</ele><time>2026-05-02T12:48:28Z</time></trkpt><trkpt lat="41.190699763647174" lon="14.508880835456866"><ele>70.0</ele><time>2026-05-02T12:48:29Z</time></trkpt><trkpt lat="41.19075539845768" lon="14.509129487647636"><ele>70.0</ele><time>2026-05-02T12:48:30Z</time></trkpt><trkpt lat="41.19080193819115" lon="14.5093702805442"><ele>70.0</ele><time>2026-05-02T12:48:31Z</time></trkpt><trkpt lat="41.19085328292758" lon="14.509615571352791"><ele>70.0</ele><time>2026-05-02T12:48:32Z</time></trkpt><trkpt lat="41.19090456734802" lon="14.509862801691073"><ele>71.33333333333333</ele><time>2026-05-02T12:48:33Z</time></trkpt><trkpt lat="41.190954554041525" lon="14.510111952173006"><ele>72.66666666666667</ele><time>2026-05-02T12:48:34Z</time></trkpt><trkpt lat="41.19101084700206" lon="14.51035709107804"><ele>74.0</ele><time>2026-05-02T12:48:35Z</time></trkpt><trkpt lat="41.191068005299826" lon="14.510597236103314"><ele>75.66666666666667</ele><time>2026-05-02T12:48:36Z</time></trkpt><trkpt lat="41.1911202478634" lon="14.510839309593857"><ele>77.33333333333333</ele><time>2026-05-02T12:48:37Z</time></trkpt><trkpt lat="41.19116857943985" lon="14.511068334707964"><ele>79.0</ele><time>2026-05-02T12:48:38Z</time></trkpt><trkpt lat="41.19120772086326" lon="14.511265447853138"><ele>79.5</ele><time>2026-05-02T12:48:39Z</time></trkpt><trkpt lat="41.191245288094656" lon="14.511451401921313"><ele>80.0</ele><time>2026-05-02T12:48:40Z</time></trkpt><trkpt lat="41.191284358984134" lon="14.511620979774271"><ele>80.5</ele><time>2026-05-02T12:48:41Z</time></trkpt><trkpt lat="41.19132548064117" lon="14.511801147305372"><ele>81.0</ele><time>2026-05-02T12:48:42Z</time></trkpt><trkpt lat="41.191367151250965" lon="14.511992402346333"><ele>83.66666666666667</ele><time>2026-05-02T12:48:43Z</time></trkpt><trkpt lat="41.191390804162815" lon="14.512184917088259"><ele>86.33333333333334</ele><time>2026-05-02T12:48:44Z</time></trkpt><trkpt lat="41.19139782465963" lon="14.51238459301789"><ele>89.0</ele><time>2026-05-02T12:48:45Z</time></trkpt><trkpt lat="41.19139871673434" lon="14.51258940164367"><ele>89.0</ele><time>2026-05-02T12:48:46Z</time></trkpt><trkpt lat="41.19139806023395" lon="14.512786979358538"><ele>89.0</ele><time>2026-05-02T12:48:47Z</time></trkpt><trkpt lat="41.19139314473498" lon="14.512995969411257"><ele>89.0</ele><time>2026-05-02T12:48:48Z</time></trkpt><trkpt lat="41.19138229594418" lon="14.513205669960316"><ele>89.66666666666667</ele><time>2026-05-02T12:48:49Z</time></trkpt><trkpt lat="41.191348993942434" lon="14.513407931549816"><ele>90.33333333333333</ele><time>2026-05-02T12:48:50Z</time></trkpt><trkpt lat="41.19131935461054" lon="14.51361437700051"><ele>91.0</ele><time>2026-05-02T12:48:51Z</time></trkpt><trkpt lat="41.19129025194404" lon="14.51382258874035"><ele>91.0</ele><time>2026-05-02T12:48:52Z</time></trkpt><trkpt lat="41.19126239197754" lon="14.514033066651102"><ele>91.0</ele><time>2026-05-02T12:48:53Z</time></trkpt><trkpt lat="41.191231847327174" lon="14.514245670819351"><ele>91.0</ele><time>2026-05-02T12:48:54Z</time></trkpt><trkpt lat="41.19119892141139" lon="14.51446332513783"><ele>89.66666666666666</ele><time>2026-05-02T12:48:55Z</time></trkpt><trkpt lat="41.19116572711125" lon="14.514678951027227"><ele>88.33333333333333</ele><time>2026-05-02T12:48:56Z</time></trkpt><trkpt lat="41.19114809602872" lon="14.514905057272763"><ele>87.0</ele><time>2026-05-02T12:48:57Z</time></trkpt><trkpt lat="41.19110962144473" lon="14.515131002711763"><ele>87.0</ele><time>2026-05-02T12:48:58Z</time></trkpt><trkpt lat="41.191078256846225" lon="14.515338498390289"><ele>87.0</ele><time>2026-05-02T12:48:59Z</time></trkpt><trkpt lat="41.19104891604819" lon="14.515547133436105"><ele>87.0</ele><time>2026-05-02T12:49:00Z</time></trkpt><trkpt lat="41.19102055971086" lon="14.515748649863474"><ele>86.0</ele><time>2026-05-02T12:49:01Z</time></trkpt><trkpt lat="41.19099482441538" lon="14.515946895100276"><ele>85.0</ele><time>2026-05-02T12:49:02Z</time></trkpt><trkpt lat="41.190971473661975" lon="14.516139073859502"><ele>84.0</ele><time>2026-05-02T12:49:03Z</time></trkpt><trkpt lat="41.19094178615301" lon="14.516341569786142"><ele>83.5</ele><time>2026-05-02T12:49:04Z</time></trkpt><trkpt lat="41.190921301375425" lon="14.516524936667514"><ele>83.0</ele><time>2026-05-02T12:49:05Z</time></trkpt><trkpt lat="41.19091152285448" lon="14.516717878020772"><ele>82.5</ele><time>2026-05-02T12:49:06Z</time></trkpt><trkpt lat="41.19091730830578" lon="14.516910798296216"><ele>82.0</ele><time>2026-05-02T12:49:07Z</time></trkpt><trkpt lat="41.190944444872486" lon="14.51711992753943"><ele>80.0</ele><time>2026-05-02T12:49:08Z</time></trkpt><trkpt lat="41.190980215775674" lon="14.517328201173452"><ele>78.0</ele><time>2026-05-02T12:49:09Z</time></trkpt><trkpt lat="41.19103149604902" lon="14.517528670865655"><ele>76.0</ele><time>2026-05-02T12:49:10Z</time></trkpt><trkpt lat="41.19109558653181" lon="14.517757681097365"><ele>75.66666666666666</ele><time>2026-05-02T12:49:11Z</time></trkpt><trkpt lat="41.19116280915789" lon="14.517994474160528"><ele>75.33333333333333</ele><time>2026-05-02T12:49:12Z</time></trkpt><trkpt lat="41.19123509733165" lon="14.518232462142171"><ele>75.0</ele><time>2026-05-02T12:49:13.001Z</time></trkpt><trkpt lat="41.19130075606434" lon="14.518470450714485"><ele>75.0</ele><time>2026-05-02T12:49:14.001Z</time></trkpt><trkpt lat="41.1913779229834" lon="14.518715404146812"><ele>75.0</ele><time>2026-05-02T12:49:15.001Z</time></trkpt><trkpt lat="41.191448070162394" lon="14.518969742534676"><ele>75.0</ele><time>2026-05-02T12:49:16.001Z</time></trkpt><trkpt lat="41.19150664377157" lon="14.519211381956685"><ele>75.0</ele><time>2026-05-02T12:49:17.001Z</time></trkpt><trkpt lat="41.19157630550756" lon="14.519453039656568"><ele>75.0</ele><time>2026-05-02T12:49:18.001Z</time></trkpt><trkpt lat="41.191657528746546" lon="14.51969913080465"><ele>75.0</ele><time>2026-05-02T12:49:19.001Z</time></trkpt><trkpt lat="41.19173843742785" lon="14.519954551106906"><ele>75.0</ele><time>2026-05-02T12:49:20.001Z</time></trkpt><trkpt lat="41.191814713167176" lon="14.5202071353882"><ele>75.0</ele><time>2026-05-02T12:49:21.001Z</time></trkpt><trkpt lat="41.19189739472825" lon="14.520453014164602"><ele>75.0</ele><time>2026-05-02T12:49:22.001Z</time></trkpt><trkpt lat="41.19197209891524" lon="14.520714514276152"><ele>76.66666666666667</ele><time>2026-05-02T12:49:23.001Z</time></trkpt><trkpt lat="41.192056820007664" lon="14.520967747924288"><ele>78.33333333333334</ele><time>2026-05-02T12:49:24.001Z</time></trkpt><trkpt lat="41.19213351352789" lon="14.521215889479846"><ele>80.0</ele><time>2026-05-02T12:49:25.001Z</time></trkpt><trkpt lat="41.19221443635806" lon="14.521476005407168"><ele>80.33333333333334</ele><time>2026-05-02T12:49:26.001Z</time></trkpt><trkpt lat="41.19230855553854" lon="14.521738459397987"><ele>80.66666666666667</ele><time>2026-05-02T12:49:27.001Z</time></trkpt><trkpt lat="41.19239661316377" lon="14.521987824686537"><ele>81.0</ele><time>2026-05-02T12:49:28.001Z</time></trkpt><trkpt lat="41.19246555033668" lon="14.522240524398462"><ele>81.0</ele><time>2026-05-02T12:49:29.001Z</time></trkpt><trkpt lat="41.19254073799154" lon="14.522490246752357"><ele>81.0</ele><time>2026-05-02T12:49:30.001Z</time></trkpt><trkpt lat="41.19261931650469" lon="14.522755251915369"><ele>81.0</ele><time>2026-05-02T12:49:31.001Z</time></trkpt><trkpt lat="41.192695889872255" lon="14.522999258240949"><ele>81.66666666666667</ele><time>2026-05-02T12:49:32.001Z</time></trkpt><trkpt lat="41.192763166209716" lon="14.523233477421957"><ele>82.33333333333334</ele><time>2026-05-02T12:49:33.001Z</time></trkpt><trkpt lat="41.19283093955207" lon="14.523467270838754"><ele>83.0</ele><time>2026-05-02T12:49:34.001Z</time></trkpt><trkpt lat="41.1929071932817" lon="14.52369374057977"><ele>84.0</ele><time>2026-05-02T12:49:35.001Z</time></trkpt><trkpt lat="41.19297361425895" lon="14.523937144211294"><ele>85.0</ele><time>2026-05-02T12:49:36.001Z</time></trkpt><trkpt lat="41.19305918909616" lon="14.524163619082417"><ele>86.0</ele><time>2026-05-02T12:49:37.001Z</time></trkpt><trkpt lat="41.19312490526072" lon="14.52439624111997"><ele>88.0</ele><time>2026-05-02T12:49:38.001Z</time></trkpt><trkpt lat="41.19320532954404" lon="14.524615310943325"><ele>90.0</ele><time>2026-05-02T12:49:39.001Z</time></trkpt><trkpt lat="41.19328005575344" lon="14.524838656486954"><ele>92.0</ele><time>2026-05-02T12:49:40.001Z</time></trkpt><trkpt lat="41.193352788897705" lon="14.525064810788779"><ele>92.0</ele><time>2026-05-02T12:49:41.001Z</time></trkpt><trkpt lat="41.19342114586048" lon="14.525287588402533"><ele>92.0</ele><time>2026-05-02T12:49:42.001Z</time></trkpt><trkpt lat="41.1934935561619" lon="14.525517264753525"><ele>92.0</ele><time>2026-05-02T12:49:43.001Z</time></trkpt><trkpt lat="41.19356076959741" lon="14.525742365922083"><ele>93.0</ele><time>2026-05-02T12:49:44.001Z</time></trkpt><trkpt lat="41.19362554983316" lon="14.525972877055553"><ele>94.0</ele><time>2026-05-02T12:49:45.001Z</time></trkpt><trkpt lat="41.193695446330715" lon="14.526208444741874"><ele>95.0</ele><time>2026-05-02T12:49:46.001Z</time></trkpt><trkpt lat="41.19376438369008" lon="14.52644075859954"><ele>96.0</ele><time>2026-05-02T12:49:47.001Z</time></trkpt><trkpt lat="41.19383423214009" lon="14.526678503993873"><ele>97.0</ele><time>2026-05-02T12:49:48.001Z</time></trkpt><trkpt lat="41.19390617828283" lon="14.526915337383668"><ele>98.0</ele><time>2026-05-02T12:49:49.001Z</time></trkpt><trkpt lat="41.1939677822033" lon="14.52714951461837"><ele>97.33333333333333</ele><time>2026-05-02T12:49:50.001Z</time></trkpt><trkpt lat="41.19403717639188" lon="14.527391505676738"><ele>96.66666666666666</ele><time>2026-05-02T12:49:51.001Z</time></trkpt><trkpt lat="41.19410329968484" lon="14.527613526226112"><ele>96.0</ele><time>2026-05-02T12:49:52.001Z</time></trkpt><trkpt lat="41.194157333264265" lon="14.527839428133168"><ele>97.33333333333334</ele><time>2026-05-02T12:49:53.001Z</time></trkpt><trkpt lat="41.19421539537071" lon="14.528075690584169"><ele>98.66666666666667</ele><time>2026-05-02T12:49:54.001Z</time></trkpt><trkpt lat="41.19427055269464" lon="14.52829855679463"><ele>100.0</ele><time>2026-05-02T12:49:55.001Z</time></trkpt><trkpt lat="41.19429680386972" lon="14.52848559823635"><ele>100.0</ele><time>2026-05-02T12:49:56.001Z</time></trkpt><trkpt lat="41.19428320968814" lon="14.528667940929854"><ele>100.0</ele><time>2026-05-02T12:49:57.001Z</time></trkpt><trkpt lat="41.19427045518202" lon="14.528858699870721"><ele>100.0</ele><time>2026-05-02T12:49:58.001Z</time></trkpt><trkpt lat="41.194224668264155" lon="14.529047864355295"><ele>100.0</ele><time>2026-05-02T12:49:59.001Z</time></trkpt><trkpt lat="41.19416181532337" lon="14.529237497292291"><ele>101.66666666666667</ele><time>2026-05-02T12:50:00.001Z</time></trkpt><trkpt lat="41.19410227868038" lon="14.529441414883566"><ele>103.33333333333334</ele><time>2026-05-02T12:50:01.001Z</time></trkpt><trkpt lat="41.19404430406375" lon="14.529638748949399"><ele>105.0</ele><time>2026-05-02T12:50:02.001Z</time></trkpt><trkpt lat="41.193993957363475" lon="14.529827248090584"><ele>106.66666666666666</ele><time>2026-05-02T12:50:03.001Z</time></trkpt><trkpt lat="41.193953170093955" lon="14.530019692060177"><ele>108.33333333333333</ele><time>2026-05-02T12:50:04.001Z</time></trkpt><trkpt lat="41.19391716840046" lon="14.530217217894934"><ele>110.0</ele><time>2026-05-02T12:50:05.001Z</time></trkpt><trkpt lat="41.193891251874966" lon="14.530420447665955"><ele>111.33333333333333</ele><time>2026-05-02T12:50:06.001Z</time></trkpt><trkpt lat="41.19388319654775" lon="14.530630138957083"><ele>112.66666666666666</ele><time>2026-05-02T12:50:07.001Z</time></trkpt><trkpt lat="41.193887440404424" lon="14.530847896467971"><ele>114.0</ele><time>2026-05-02T12:50:08.001Z</time></trkpt><trkpt lat="41.193896993081424" lon="14.531059407655581"><ele>115.66666666666666</ele><time>2026-05-02T12:50:09.001Z</time></trkpt><trkpt lat="41.193915819375555" lon="14.531283887998681"><ele>117.33333333333333</ele><time>2026-05-02T12:50:10.001Z</time></trkpt><trkpt lat="41.19394059274849" lon="14.531511819196087"><ele>119.0</ele><time>2026-05-02T12:50:11.001Z</time></trkpt><trkpt lat="41.19396587547834" lon="14.531729170724466"><ele>118.0</ele><time>2026-05-02T12:50:12.001Z</time></trkpt><trkpt lat="41.194012854511804" lon="14.5319481549197"><ele>117.0</ele><time>2026-05-02T12:50:13.001Z</time></trkpt><trkpt lat="41.194066806486546" lon="14.532167515567812"><ele>116.0</ele><time>2026-05-02T12:50:14.001Z</time></trkpt><trkpt lat="41.19412777933169" lon="14.532392891988989"><ele>116.0</ele><time>2026-05-02T12:50:15.002Z</time></trkpt><trkpt lat="41.19418508564028" lon="14.532618704987144"><ele>116.0</ele><time>2026-05-02T12:50:16.002Z</time></trkpt><trkpt lat="41.19424401757911" lon="14.532854380792323"><ele>116.0</ele><time>2026-05-02T12:50:17.002Z</time></trkpt><trkpt lat="41.19427913967427" lon="14.533077222584087"><ele>117.33333333333333</ele><time>2026-05-02T12:50:18.002Z</time></trkpt><trkpt lat="41.19433078968428" lon="14.533340948733107"><ele>118.66666666666666</ele><time>2026-05-02T12:50:19.002Z</time></trkpt><trkpt lat="41.19439766416705" lon="14.533548569285474"><ele>120.0</ele><time>2026-05-02T12:50:20.002Z</time></trkpt><trkpt lat="41.1944818703873" lon="14.53373898438864"><ele>121.66666666666666</ele><time>2026-05-02T12:50:21.002Z</time></trkpt><trkpt lat="41.19457626761741" lon="14.533934451598071"><ele>123.33333333333333</ele><time>2026-05-02T12:50:22.002Z</time></trkpt><trkpt lat="41.19467606079431" lon="14.534123650732669"><ele>125.0</ele><time>2026-05-02T12:50:23Z</time></trkpt><trkpt lat="41.1947755517189" lon="14.534304665033607"><ele>124.5</ele><time>2026-05-02T12:50:24Z</time></trkpt><trkpt lat="41.194869905849565" lon="14.534449777587602"><ele>124.0</ele><time>2026-05-02T12:50:25Z</time></trkpt><trkpt lat="41.19494220645463" lon="14.534611750684538"><ele>123.5</ele><time>2026-05-02T12:50:26Z</time></trkpt><trkpt lat="41.19500803995582" lon="14.534790229906823"><ele>123.0</ele><time>2026-05-02T12:50:27Z</time></trkpt><trkpt lat="41.195053951127406" lon="14.534963793846162"><ele>124.0</ele><time>2026-05-02T12:50:28Z</time></trkpt><trkpt lat="41.19509301594926" lon="14.535127717902245"><ele>125.0</ele><time>2026-05-02T12:50:29Z</time></trkpt><trkpt lat="41.19513778070642" lon="14.535259434071559"><ele>126.0</ele><time>2026-05-02T12:50:30Z</time></trkpt><trkpt lat="41.195195863619695" lon="14.535407357045381"><ele>127.0</ele><time>2026-05-02T12:50:31Z</time></trkpt><trkpt lat="41.19525912119135" lon="14.535568268406525"><ele>127.5</ele><time>2026-05-02T12:50:32Z</time></trkpt><trkpt lat="41.19534092263209" lon="14.53573159366386"><ele>128.0</ele><time>2026-05-02T12:50:33Z</time></trkpt><trkpt lat="41.195420341188544" lon="14.535903180746448"><ele>128.5</ele><time>2026-05-02T12:50:34Z</time></trkpt><trkpt lat="41.19549194844208" lon="14.536060751215553"><ele>129.0</ele><time>2026-05-02T12:50:35Z</time></trkpt><trkpt lat="41.19555364786291" lon="14.536207690890235"><ele>129.5</ele><time>2026-05-02T12:50:36Z</time></trkpt><trkpt lat="41.1956133298776" lon="14.536341834515053"><ele>130.0</ele><time>2026-05-02T12:50:37Z</time></trkpt><trkpt lat="41.19566927116029" lon="14.536477875686082"><ele>130.5</ele><time>2026-05-02T12:50:38Z</time></trkpt><trkpt lat="41.195728758665254" lon="14.536611957951193"><ele>131.0</ele><time>2026-05-02T12:50:39Z</time></trkpt><trkpt lat="41.19580036076537" lon="14.536737327341056"><ele>131.0</ele><time>2026-05-02T12:50:40Z</time></trkpt><trkpt lat="41.195854725792195" lon="14.536870904680258"><ele>131.0</ele><time>2026-05-02T12:50:41Z</time></trkpt><trkpt lat="41.195913082022116" lon="14.537014576121"><ele>131.0</ele><time>2026-05-02T12:50:42Z</time></trkpt><trkpt lat="41.19596773718553" lon="14.537167823379711"><ele>131.0</ele><time>2026-05-02T12:50:43Z</time></trkpt><trkpt lat="41.1960123959228" lon="14.537328198554313"><ele>131.5</ele><time>2026-05-02T12:50:44Z</time></trkpt><trkpt lat="41.196066738399445" lon="14.537493978956"><ele>132.0</ele><time>2026-05-02T12:50:45Z</time></trkpt><trkpt lat="41.196105033216035" lon="14.537673457048388"><ele>132.5</ele><time>2026-05-02T12:50:46Z</time></trkpt><trkpt lat="41.19613742925289" lon="14.537861121346493"><ele>133.0</ele><time>2026-05-02T12:50:47Z</time></trkpt><trkpt lat="41.19617813398147" lon="14.538050587597533"><ele>133.0</ele><time>2026-05-02T12:50:48Z</time></trkpt><trkpt lat="41.19620742090127" lon="14.538245060752"><ele>133.0</ele><time>2026-05-02T12:50:49Z</time></trkpt><trkpt lat="41.19623605020486" lon="14.538453183615914"><ele>133.0</ele><time>2026-05-02T12:50:50Z</time></trkpt><trkpt lat="41.19627259983132" lon="14.538659327373718"><ele>133.33333333333334</ele><time>2026-05-02T12:50:51Z</time></trkpt><trkpt lat="41.19630668445496" lon="14.53887079615765"><ele>133.66666666666666</ele><time>2026-05-02T12:50:52Z</time></trkpt><trkpt lat="41.1963393707251" lon="14.539083142672684"><ele>134.0</ele><time>2026-05-02T12:50:53Z</time></trkpt><trkpt lat="41.196377476227646" lon="14.539289634662262"><ele>134.0</ele><time>2026-05-02T12:50:54Z</time></trkpt><trkpt lat="41.19642555663419" lon="14.539502027265844"><ele>134.0</ele><time>2026-05-02T12:50:55Z</time></trkpt><trkpt lat="41.19644761492305" lon="14.53971437704318"><ele>134.0</ele><time>2026-05-02T12:50:56Z</time></trkpt><trkpt lat="41.19649655227763" lon="14.539935559293642"><ele>132.33333333333331</ele><time>2026-05-02T12:50:57Z</time></trkpt><trkpt lat="41.196541681626385" lon="14.540151608150095"><ele>130.66666666666666</ele><time>2026-05-02T12:50:58Z</time></trkpt><trkpt lat="41.19659243834849" lon="14.540364098468583"><ele>129.0</ele><time>2026-05-02T12:50:59Z</time></trkpt><trkpt lat="41.19664389772932" lon="14.540584700407372"><ele>129.0</ele><time>2026-05-02T12:51:00Z</time></trkpt><trkpt lat="41.19669245858987" lon="14.540803033098054"><ele>129.0</ele><time>2026-05-02T12:51:01Z</time></trkpt><trkpt lat="41.19674370711606" lon="14.541020942421655"><ele>129.0</ele><time>2026-05-02T12:51:02Z</time></trkpt><trkpt lat="41.19679528475198" lon="14.54124470091102"><ele>129.33333333333334</ele><time>2026-05-02T12:51:03Z</time></trkpt><trkpt lat="41.19684073937236" lon="14.541453722722277"><ele>129.66666666666669</ele><time>2026-05-02T12:51:04Z</time></trkpt><trkpt lat="41.196889076432576" lon="14.541660946150918"><ele>130.0</ele><time>2026-05-02T12:51:05Z</time></trkpt><trkpt lat="41.19693537973419" lon="14.541861099839123"><ele>130.33333333333334</ele><time>2026-05-02T12:51:06Z</time></trkpt><trkpt lat="41.196983027758876" lon="14.542066977526268"><ele>130.66666666666666</ele><time>2026-05-02T12:51:07Z</time></trkpt><trkpt lat="41.19701449191626" lon="14.542248002513288"><ele>131.0</ele><time>2026-05-02T12:51:08Z</time></trkpt><trkpt lat="41.197063906213" lon="14.542450779925952"><ele>131.0</ele><time>2026-05-02T12:51:09Z</time></trkpt><trkpt lat="41.19710946522409" lon="14.542662284744956"><ele>131.0</ele><time>2026-05-02T12:51:10Z</time></trkpt><trkpt lat="41.19715502956889" lon="14.542867669584531"><ele>131.0</ele><time>2026-05-02T12:51:11Z</time></trkpt><trkpt lat="41.19720078449387" lon="14.54306911619444"><ele>132.0</ele><time>2026-05-02T12:51:12.001Z</time></trkpt><trkpt lat="41.19724515585366" lon="14.54327373912671"><ele>133.0</ele><time>2026-05-02T12:51:13.001Z</time></trkpt><trkpt lat="41.19727946531595" lon="14.543476890876525"><ele>134.0</ele><time>2026-05-02T12:51:14.001Z</time></trkpt><trkpt lat="41.19730522043738" lon="14.5436830192602"><ele>135.33333333333331</ele><time>2026-05-02T12:51:15.001Z</time></trkpt><trkpt lat="41.19732909368402" lon="14.543891231624126"><ele>136.66666666666666</ele><time>2026-05-02T12:51:16.001Z</time></trkpt><trkpt lat="41.19734289348467" lon="14.544095019942645"><ele>138.0</ele><time>2026-05-02T12:51:17.001Z</time></trkpt><trkpt lat="41.19736350201975" lon="14.544295986733616"><ele>138.0</ele><time>2026-05-02T12:51:18.001Z</time></trkpt><trkpt lat="41.19738484622111" lon="14.544488529884038"><ele>138.0</ele><time>2026-05-02T12:51:19.001Z</time></trkpt><trkpt lat="41.19739965913836" lon="14.54467148545294"><ele>138.0</ele><time>2026-05-02T12:51:20.001Z</time></trkpt><trkpt lat="41.19740629034851" lon="14.544835652303517"><ele>138.0</ele><time>2026-05-02T12:51:21.001Z</time></trkpt><trkpt lat="41.1974121506767" lon="14.544998020616722"><ele>137.8</ele><time>2026-05-02T12:51:22.001Z</time></trkpt><trkpt lat="41.197419791758115" lon="14.545142194611733"><ele>137.60000000000002</ele><time>2026-05-02T12:51:23.001Z</time></trkpt><trkpt lat="41.197429784926555" lon="14.545287626684667"><ele>137.39999999999998</ele><time>2026-05-02T12:51:24.001Z</time></trkpt><trkpt lat="41.19744529948643" lon="14.545437933282859"><ele>137.2</ele><time>2026-05-02T12:51:25.001Z</time></trkpt><trkpt lat="41.19745641592643" lon="14.545557286627329"><ele>137.0</ele><time>2026-05-02T12:51:26.001Z</time></trkpt><trkpt lat="41.1974669216961" lon="14.545682029498895"><ele>137.0</ele><time>2026-05-02T12:51:27.001Z</time></trkpt><trkpt lat="41.19749065422551" lon="14.545814924194424"><ele>137.0</ele><time>2026-05-02T12:51:28.001Z</time></trkpt><trkpt lat="41.19750879883117" lon="14.545912746387899"><ele>137.0</ele><time>2026-05-02T12:51:29.001Z</time></trkpt><trkpt lat="41.19752255805981" lon="14.546002709572386"><ele>137.0</ele><time>2026-05-02T12:51:30.001Z</time></trkpt><trkpt lat="41.19754706507294" lon="14.546148031739902"><ele>137.0</ele><time>2026-05-02T12:51:32.001Z</time></trkpt><trkpt lat="41.19756179451854" lon="14.54623210840241"><ele>137.0</ele><time>2026-05-02T12:51:34.001Z</time></trkpt><trkpt lat="41.19760236800303" lon="14.546404828683471"><ele>136.33333333333331</ele><time>2026-05-02T12:51:51.001Z</time></trkpt><trkpt lat="41.19761371929841" lon="14.546488096530316"><ele>135.66666666666666</ele><time>2026-05-02T12:51:52.001Z</time></trkpt><trkpt lat="41.197599954168474" lon="14.546582708230448"><ele>135.0</ele><time>2026-05-02T12:51:53.001Z</time></trkpt><trkpt lat="41.19756700419287" lon="14.546684240483012"><ele>134.33333333333334</ele><time>2026-05-02T12:51:54.001Z</time></trkpt><trkpt lat="41.19752148504349" lon="14.546784313328011"><ele>133.66666666666669</ele><time>2026-05-02T12:51:55.001Z</time></trkpt><trkpt lat="41.19746579517697" lon="14.546885793958586"><ele>133.0</ele><time>2026-05-02T12:51:56.001Z</time></trkpt><trkpt lat="41.19741023399727" lon="14.546987880680962"><ele>132.20000000000002</ele><time>2026-05-02T12:51:57.001Z</time></trkpt><trkpt lat="41.197357865114036" lon="14.547074981920748"><ele>131.4</ele><time>2026-05-02T12:51:58.001Z</time></trkpt><trkpt lat="41.19730809519839" lon="14.54717086543103"><ele>130.60000000000002</ele><time>2026-05-02T12:51:59.001Z</time></trkpt><trkpt lat="41.19725316657802" lon="14.547264219457398"><ele>129.8</ele><time>2026-05-02T12:52:00.001Z</time></trkpt><trkpt lat="41.19719739066481" lon="14.547370241739904"><ele>129.0</ele><time>2026-05-02T12:52:01.001Z</time></trkpt><trkpt lat="41.19714626410821" lon="14.547479434918065"><ele>130.16666666666666</ele><time>2026-05-02T12:52:02.001Z</time></trkpt><trkpt lat="41.19709265935836" lon="14.54758770372525"><ele>131.33333333333334</ele><time>2026-05-02T12:52:03.001Z</time></trkpt><trkpt lat="41.19704105508792" lon="14.547691829805267"><ele>132.5</ele><time>2026-05-02T12:52:04.001Z</time></trkpt><trkpt lat="41.19699495331468" lon="14.547784898509494"><ele>133.66666666666669</ele><time>2026-05-02T12:52:05.001Z</time></trkpt><trkpt lat="41.19695778985357" lon="14.547869454209764"><ele>134.83333333333334</ele><time>2026-05-02T12:52:06.001Z</time></trkpt><trkpt lat="41.19691321339631" lon="14.54794752736233"><ele>136.0</ele><time>2026-05-02T12:52:07.001Z</time></trkpt><trkpt lat="41.19685425858076" lon="14.54799149891146"><ele>135.99999999999997</ele><time>2026-05-02T12:52:08.001Z</time></trkpt><trkpt lat="41.196784268092564" lon="14.548032799134742"><ele>136.0</ele><time>2026-05-02T12:52:09.001Z</time></trkpt><trkpt lat="41.19672145656248" lon="14.548071677565979"><ele>136.0</ele><time>2026-05-02T12:52:10.001Z</time></trkpt><trkpt lat="41.19666295776157" lon="14.548121253780305"><ele>136.0</ele><time>2026-05-02T12:52:11.001Z</time></trkpt><trkpt lat="41.19660338777158" lon="14.548169494707368"><ele>136.0</ele><time>2026-05-02T12:52:12.001Z</time></trkpt><trkpt lat="41.19653756952025" lon="14.548213502009581"><ele>135.99999999999997</ele><time>2026-05-02T12:52:13.001Z</time></trkpt><trkpt lat="41.19646369368148" lon="14.548252301980812"><ele>136.0</ele><time>2026-05-02T12:52:14.001Z</time></trkpt><trkpt lat="41.196378850595245" lon="14.5482773954266"><ele>137.0</ele><time>2026-05-02T12:52:15.002Z</time></trkpt><trkpt lat="41.196296441282534" lon="14.548305416741393"><ele>138.0</ele><time>2026-05-02T12:52:16.002Z</time></trkpt><trkpt lat="41.196209148562765" lon="14.548338987094825"><ele>139.0</ele><time>2026-05-02T12:52:17.002Z</time></trkpt><trkpt lat="41.19612162807765" lon="14.548375082313525"><ele>140.0</ele><time>2026-05-02T12:52:18.002Z</time></trkpt><trkpt lat="41.19603602810648" lon="14.548414467321994"><ele>141.0</ele><time>2026-05-02T12:52:19.002Z</time></trkpt><trkpt lat="41.19594869031084" lon="14.54843328840084"><ele>142.0</ele><time>2026-05-02T12:52:20.002Z</time></trkpt><trkpt lat="41.1958552023245" lon="14.548460110805442"><ele>142.0</ele><time>2026-05-02T12:52:21.002Z</time></trkpt><trkpt lat="41.1957700093685" lon="14.548483804372504"><ele>142.0</ele><time>2026-05-02T12:52:22.002Z</time></trkpt><trkpt lat="41.19566298321875" lon="14.548506084888649"><ele>142.0</ele><time>2026-05-02T12:52:23.002Z</time></trkpt><trkpt lat="41.19555897311262" lon="14.548517021113053"><ele>142.0</ele><time>2026-05-02T12:52:24.002Z</time></trkpt><trkpt lat="41.19546436343078" lon="14.548556193652388"><ele>142.0</ele><time>2026-05-02T12:52:25.002Z</time></trkpt><trkpt lat="41.195376854482895" lon="14.548605597856282"><ele>143.2</ele><time>2026-05-02T12:52:26.002Z</time></trkpt><trkpt lat="41.195272386601864" lon="14.54865438962389"><ele>144.39999999999998</ele><time>2026-05-02T12:52:27.002Z</time></trkpt><trkpt lat="41.19517616331377" lon="14.548726795335112"><ele>145.60000000000002</ele><time>2026-05-02T12:52:28.002Z</time></trkpt><trkpt lat="41.1950870970275" lon="14.548788065289271"><ele>146.8</ele><time>2026-05-02T12:52:29Z</time></trkpt><trkpt lat="41.19501003026159" lon="14.548841377989081"><ele>148.0</ele><time>2026-05-02T12:52:30Z</time></trkpt><trkpt lat="41.19494287037851" lon="14.548884876281926"><ele>148.0</ele><time>2026-05-02T12:52:31Z</time></trkpt><trkpt lat="41.19487875334337" lon="14.54892261824566"><ele>148.0</ele><time>2026-05-02T12:52:32Z</time></trkpt><trkpt lat="41.1948077619134" lon="14.548959172116705"><ele>148.0</ele><time>2026-05-02T12:52:33Z</time></trkpt><trkpt lat="41.19473641195637" lon="14.549005867509049"><ele>148.0</ele><time>2026-05-02T12:52:34Z</time></trkpt><trkpt lat="41.19467170392313" lon="14.549029303550572"><ele>148.0</ele><time>2026-05-02T12:52:35Z</time></trkpt><trkpt lat="41.19459919480243" lon="14.549050560607295"><ele>148.0</ele><time>2026-05-02T12:52:36Z</time></trkpt><trkpt lat="41.19453963830244" lon="14.549087166862888"><ele>148.0</ele><time>2026-05-02T12:52:37Z</time></trkpt><trkpt lat="41.19446172801282" lon="14.549150042063935"><ele>149.66666666666669</ele><time>2026-05-02T12:52:39Z</time></trkpt><trkpt lat="41.19445096693096" lon="14.549276608841861"><ele>151.33333333333334</ele><time>2026-05-02T12:52:42Z</time></trkpt><trkpt lat="41.19448108962945" lon="14.549434001679304"><ele>153.0</ele><time>2026-05-02T12:52:44Z</time></trkpt><trkpt lat="41.194502996812496" lon="14.549513669286352"><ele>154.66666666666666</ele><time>2026-05-02T12:52:45Z</time></trkpt><trkpt lat="41.19451704433707" lon="14.549612099363047"><ele>156.33333333333331</ele><time>2026-05-02T12:52:46Z</time></trkpt><trkpt lat="41.19454026594742" lon="14.549720649171546"><ele>158.0</ele><time>2026-05-02T12:52:47Z</time></trkpt><trkpt lat="41.194549399662556" lon="14.549840505901532"><ele>158.20000000000002</ele><time>2026-05-02T12:52:48Z</time></trkpt><trkpt lat="41.19456342354251" lon="14.549964000282086"><ele>158.4</ele><time>2026-05-02T12:52:49Z</time></trkpt><trkpt lat="41.19460127536142" lon="14.550086921924466"><ele>158.60000000000002</ele><time>2026-05-02T12:52:50Z</time></trkpt><trkpt lat="41.194619188616564" lon="14.55022848414071"><ele>158.8</ele><time>2026-05-02T12:52:51Z</time></trkpt><trkpt lat="41.194667251499396" lon="14.550388484828037"><ele>159.0</ele><time>2026-05-02T12:52:52Z</time></trkpt><trkpt lat="41.194695792230185" lon="14.550527371037475"><ele>159.0</ele><time>2026-05-02T12:52:53Z</time></trkpt><trkpt lat="41.19473518919107" lon="14.550650942724834"><ele>159.0</ele><time>2026-05-02T12:52:54Z</time></trkpt><trkpt lat="41.19475751963194" lon="14.550779304087143"><ele>159.0</ele><time>2026-05-02T12:52:55Z</time></trkpt><trkpt lat="41.19478745212956" lon="14.550906795694761"><ele>159.0</ele><time>2026-05-02T12:52:56Z</time></trkpt><trkpt lat="41.19481084214721" lon="14.551049625374766"><ele>159.0</ele><time>2026-05-02T12:52:57Z</time></trkpt><trkpt lat="41.19481758096096" lon="14.551192613521613"><ele>157.2</ele><time>2026-05-02T12:52:58Z</time></trkpt><trkpt lat="41.19485281381821" lon="14.55133679375014"><ele>155.4</ele><time>2026-05-02T12:52:59Z</time></trkpt><trkpt lat="41.19486346963516" lon="14.551496890864188"><ele>153.6</ele><time>2026-05-02T12:53:00Z</time></trkpt><trkpt lat="41.19491888100899" lon="14.551623428537242"><ele>151.8</ele><time>2026-05-02T12:53:01Z</time></trkpt><trkpt lat="41.1949752013004" lon="14.551715882439296"><ele>150.0</ele><time>2026-05-02T12:53:02Z</time></trkpt><trkpt lat="41.19499525286171" lon="14.551943648557494"><ele>149.6</ele><time>2026-05-02T12:53:03Z</time></trkpt><trkpt lat="41.19497828014277" lon="14.552062420181013"><ele>149.2</ele><time>2026-05-02T12:53:04Z</time></trkpt><trkpt lat="41.19494690288385" lon="14.552202689204693"><ele>148.8</ele><time>2026-05-02T12:53:05Z</time></trkpt><trkpt lat="41.19496194615188" lon="14.552359668171682"><ele>148.4</ele><time>2026-05-02T12:53:06Z</time></trkpt><trkpt lat="41.19497726297196" lon="14.552525929548594"><ele>148.0</ele><time>2026-05-02T12:53:07Z</time></trkpt><trkpt lat="41.194998680923526" lon="14.552696305212859"><ele>148.75</ele><time>2026-05-02T12:53:08Z</time></trkpt><trkpt lat="41.195017359994054" lon="14.552876062040058"><ele>149.5</ele><time>2026-05-02T12:53:09Z</time></trkpt><trkpt lat="41.19503415779173" lon="14.553053311559726"><ele>150.25</ele><time>2026-05-02T12:53:10Z</time></trkpt><trkpt lat="41.195053236789" lon="14.553233614365363"><ele>151.0</ele><time>2026-05-02T12:53:11Z</time></trkpt><trkpt lat="41.19507197918315" lon="14.553416520047662"><ele>151.0</ele><time>2026-05-02T12:53:12Z</time></trkpt><trkpt lat="41.19508905135427" lon="14.553606581005958"><ele>151.0</ele><time>2026-05-02T12:53:13Z</time></trkpt><trkpt lat="41.19510413186702" lon="14.553789236785601"><ele>151.0</ele><time>2026-05-02T12:53:14Z</time></trkpt><trkpt lat="41.1951175657506" lon="14.553978956158684"><ele>151.0</ele><time>2026-05-02T12:53:15Z</time></trkpt><trkpt lat="41.19513898832451" lon="14.554171588475326"><ele>151.5</ele><time>2026-05-02T12:53:16.001Z</time></trkpt><trkpt lat="41.19516445157488" lon="14.554361919117643"><ele>152.0</ele><time>2026-05-02T12:53:17.001Z</time></trkpt><trkpt lat="41.19518717402134" lon="14.554542007371744"><ele>152.5</ele><time>2026-05-02T12:53:18.001Z</time></trkpt><trkpt lat="41.19520477755455" lon="14.554707179010123"><ele>153.0</ele><time>2026-05-02T12:53:19.001Z</time></trkpt><trkpt lat="41.19521866917025" lon="14.55488777210755"><ele>153.75</ele><time>2026-05-02T12:53:20.001Z</time></trkpt><trkpt lat="41.19525000322398" lon="14.555050896685524"><ele>154.5</ele><time>2026-05-02T12:53:21.001Z</time></trkpt><trkpt lat="41.19526852123367" lon="14.555232671461367"><ele>155.25</ele><time>2026-05-02T12:53:22.001Z</time></trkpt><trkpt lat="41.19528429845495" lon="14.555412261914668"><ele>156.0</ele><time>2026-05-02T12:53:23.001Z</time></trkpt><trkpt lat="41.195305858941225" lon="14.555597999285316"><ele>156.25</ele><time>2026-05-02T12:53:24.001Z</time></trkpt><trkpt lat="41.19532730343395" lon="14.555787007446396"><ele>156.5</ele><time>2026-05-02T12:53:25.001Z</time></trkpt><trkpt lat="41.195360172298514" lon="14.555980803236142"><ele>156.75</ele><time>2026-05-02T12:53:26.001Z</time></trkpt><trkpt lat="41.195408244059024" lon="14.556163754145542"><ele>157.0</ele><time>2026-05-02T12:53:27.001Z</time></trkpt><trkpt lat="41.19545773235259" lon="14.556346967728645"><ele>157.25</ele><time>2026-05-02T12:53:28.001Z</time></trkpt><trkpt lat="41.19550653304237" lon="14.55651834217941"><ele>157.5</ele><time>2026-05-02T12:53:29.001Z</time></trkpt><trkpt lat="41.19555556691295" lon="14.556711265143294"><ele>157.75</ele><time>2026-05-02T12:53:30.001Z</time></trkpt><trkpt lat="41.19560653712427" lon="14.556889170010994"><ele>158.0</ele><time>2026-05-02T12:53:31.001Z</time></trkpt><trkpt lat="41.19567186537088" lon="14.557073349326846"><ele>155.25</ele><time>2026-05-02T12:53:32.001Z</time></trkpt><trkpt lat="41.19572754587087" lon="14.55725503262168"><ele>152.5</ele><time>2026-05-02T12:53:33.001Z</time></trkpt><trkpt lat="41.1957714402098" lon="14.557444582973513"><ele>149.75</ele><time>2026-05-02T12:53:34.001Z</time></trkpt><trkpt lat="41.19581996203962" lon="14.557611897578338"><ele>147.0</ele><time>2026-05-02T12:53:35.001Z</time></trkpt><trkpt lat="41.19586371556934" lon="14.557768418034218"><ele>148.0</ele><time>2026-05-02T12:53:36.001Z</time></trkpt><trkpt lat="41.19591047981199" lon="14.557906997607247"><ele>149.0</ele><time>2026-05-02T12:53:37.001Z</time></trkpt><trkpt lat="41.195942575885766" lon="14.55803991321746"><ele>150.0</ele><time>2026-05-02T12:53:38.001Z</time></trkpt><trkpt lat="41.19597998788051" lon="14.558166670192234"><ele>151.0</ele><time>2026-05-02T12:53:39.001Z</time></trkpt><trkpt lat="41.19601221130319" lon="14.55828662798797"><ele>152.0</ele><time>2026-05-02T12:53:40.001Z</time></trkpt><trkpt lat="41.19604069853837" lon="14.558399699629994"><ele>152.0</ele><time>2026-05-02T12:53:41.001Z</time></trkpt><trkpt lat="41.19606532847891" lon="14.558510293422998"><ele>152.0</ele><time>2026-05-02T12:53:42.001Z</time></trkpt><trkpt lat="41.19608527435199" lon="14.55860762791034"><ele>152.0</ele><time>2026-05-02T12:53:43.001Z</time></trkpt><trkpt lat="41.19610089765786" lon="14.55870696678057"><ele>152.0</ele><time>2026-05-02T12:53:44.001Z</time></trkpt><trkpt lat="41.19610422043567" lon="14.558791678650758"><ele>152.0</ele><time>2026-05-02T12:53:45.001Z</time></trkpt><trkpt lat="41.1960942560555" lon="14.558944943892607"><ele>152.0</ele><time>2026-05-02T12:53:47.001Z</time></trkpt><trkpt lat="41.19605816558368" lon="14.559066808916185"><ele>151.5</ele><time>2026-05-02T12:53:49.001Z</time></trkpt><trkpt lat="41.195860901650256" lon="14.5589848281204"><ele>151.0</ele><time>2026-05-02T12:53:54.001Z</time></trkpt><trkpt lat="41.195834037199134" lon="14.558891564854278"><ele>150.5</ele><time>2026-05-02T12:53:55.001Z</time></trkpt><trkpt lat="41.1957272084337" lon="14.55877203939141"><ele>150.0</ele><time>2026-05-02T12:53:57.001Z</time></trkpt><trkpt lat="41.195662494236466" lon="14.558696036096897"><ele>152.2</ele><time>2026-05-02T12:53:58.001Z</time></trkpt><trkpt lat="41.19559845871537" lon="14.558618016473321"><ele>154.4</ele><time>2026-05-02T12:53:59.001Z</time></trkpt><trkpt lat="41.19552165896673" lon="14.558546119128572"><ele>156.60000000000002</ele><time>2026-05-02T12:54:00.001Z</time></trkpt><trkpt lat="41.19544627100327" lon="14.558449533026627"><ele>158.8</ele><time>2026-05-02T12:54:01.001Z</time></trkpt><trkpt lat="41.19536719078746" lon="14.558357996876088"><ele>161.0</ele><time>2026-05-02T12:54:02.001Z</time></trkpt><trkpt lat="41.195284823057264" lon="14.558269923452405"><ele>161.0</ele><time>2026-05-02T12:54:03.001Z</time></trkpt><trkpt lat="41.19520624433124" lon="14.558180652480846"><ele>161.0</ele><time>2026-05-02T12:54:04.001Z</time></trkpt><trkpt lat="41.19514634449457" lon="14.558107737675687"><ele>161.0</ele><time>2026-05-02T12:54:05.001Z</time></trkpt><trkpt lat="41.1950882351074" lon="14.55804691056843"><ele>161.0</ele><time>2026-05-02T12:54:06.001Z</time></trkpt><trkpt lat="41.195029883715144" lon="14.558002524959088"><ele>161.0</ele><time>2026-05-02T12:54:07.001Z</time></trkpt><trkpt lat="41.19497544797019" lon="14.557897149761423"><ele>161.0</ele><time>2026-05-02T12:54:09.001Z</time></trkpt><trkpt lat="41.19490720542385" lon="14.55800728126941"><ele>161.0</ele><time>2026-05-02T12:54:14.001Z</time></trkpt><trkpt lat="41.19491953366781" lon="14.558165865175784"><ele>161.0</ele><time>2026-05-02T12:54:16.001Z</time></trkpt><trkpt lat="41.19492342684063" lon="14.558254785742148"><ele>161.0</ele><time>2026-05-02T12:54:17.001Z</time></trkpt><trkpt lat="41.19492284485706" lon="14.558345022426783"><ele>161.0</ele><time>2026-05-02T12:54:18.001Z</time></trkpt><trkpt lat="41.19491838129736" lon="14.558438785439161"><ele>161.0</ele><time>2026-05-02T12:54:19.001Z</time></trkpt><trkpt lat="41.19492168729189" lon="14.558545738649899"><ele>161.0</ele><time>2026-05-02T12:54:20.001Z</time></trkpt><trkpt lat="41.19488724418477" lon="14.558648722743087"><ele>161.0</ele><time>2026-05-02T12:54:21.002Z</time></trkpt><trkpt lat="41.19486887194691" lon="14.558759202524994"><ele>161.0</ele><time>2026-05-02T12:54:22.002Z</time></trkpt><trkpt lat="41.19486413515662" lon="14.558861952982411"><ele>161.0</ele><time>2026-05-02T12:54:23.002Z</time></trkpt><trkpt lat="41.19486581042364" lon="14.558964058887424"><ele>161.0</ele><time>2026-05-02T12:54:24.002Z</time></trkpt><trkpt lat="41.19486970988694" lon="14.559061800543603"><ele>161.0</ele><time>2026-05-02T12:54:25.002Z</time></trkpt><trkpt lat="41.19486021754472" lon="14.559176368038704"><ele>161.0</ele><time>2026-05-02T12:54:26.002Z</time></trkpt><trkpt lat="41.194854480360185" lon="14.55931338209091"><ele>161.0</ele><time>2026-05-02T12:54:27.002Z</time></trkpt><trkpt lat="41.19484924664829" lon="14.559448099134553"><ele>161.0</ele><time>2026-05-02T12:54:28.002Z</time></trkpt><trkpt lat="41.194843012087546" lon="14.559578333283628"><ele>161.0</ele><time>2026-05-02T12:54:29.002Z</time></trkpt><trkpt lat="41.1948495026156" lon="14.55971456114897"><ele>161.0</ele><time>2026-05-02T12:54:30.002Z</time></trkpt><trkpt lat="41.19486222351388" lon="14.559827015991992"><ele>161.0</ele><time>2026-05-02T12:54:31.002Z</time></trkpt><trkpt lat="41.19488483860865" lon="14.559957618804225"><ele>161.60000000000002</ele><time>2026-05-02T12:54:32.002Z</time></trkpt><trkpt lat="41.19491081671853" lon="14.560087701857439"><ele>162.2</ele><time>2026-05-02T12:54:33.002Z</time></trkpt><trkpt lat="41.19491267094074" lon="14.560218008236092"><ele>162.8</ele><time>2026-05-02T12:54:34.002Z</time></trkpt><trkpt lat="41.194907246403616" lon="14.56034804488085"><ele>163.39999999999998</ele><time>2026-05-02T12:54:35Z</time></trkpt><trkpt lat="41.19489646596376" lon="14.560476714162231"><ele>164.0</ele><time>2026-05-02T12:54:36Z</time></trkpt><trkpt lat="41.19487724797682" lon="14.560593247320188"><ele>164.5</ele><time>2026-05-02T12:54:37Z</time></trkpt><trkpt lat="41.19486913955228" lon="14.560716552964566"><ele>165.0</ele><time>2026-05-02T12:54:38Z</time></trkpt><trkpt lat="41.194861353901715" lon="14.560812025143747"><ele>165.5</ele><time>2026-05-02T12:54:39Z</time></trkpt><trkpt lat="41.19484718409119" lon="14.56092476248354"><ele>166.0</ele><time>2026-05-02T12:54:41Z</time></trkpt><trkpt lat="41.19481128497726" lon="14.56100843518393"><ele>166.5</ele><time>2026-05-02T12:54:48Z</time></trkpt><trkpt lat="41.19471824579248" lon="14.560976111482578"><ele>167.0</ele><time>2026-05-02T12:54:50Z</time></trkpt><trkpt lat="41.19459982246901" lon="14.56096873964756"><ele>169.39999999999998</ele><time>2026-05-02T12:54:52Z</time></trkpt><trkpt lat="41.19448258718697" lon="14.560931818307203"><ele>171.79999999999998</ele><time>2026-05-02T12:54:54Z</time></trkpt><trkpt lat="41.19436977704065" lon="14.560960599565503"><ele>174.2</ele><time>2026-05-02T12:54:56Z</time></trkpt><trkpt lat="41.19433347215159" lon="14.56103276028668"><ele>176.6</ele><time>2026-05-02T12:54:57Z</time></trkpt><trkpt lat="41.19427533392635" lon="14.561095457353858"><ele>179.0</ele><time>2026-05-02T12:54:58Z</time></trkpt><trkpt lat="41.19421587361107" lon="14.561189304743802"><ele>179.79999999999998</ele><time>2026-05-02T12:54:59Z</time></trkpt><trkpt lat="41.19417023680182" lon="14.561296601466688"><ele>180.6</ele><time>2026-05-02T12:55:00Z</time></trkpt><trkpt lat="41.19411000766388" lon="14.561382358169165"><ele>181.4</ele><time>2026-05-02T12:55:01Z</time></trkpt><trkpt lat="41.194056380539514" lon="14.5615074989235"><ele>182.2</ele><time>2026-05-02T12:55:02Z</time></trkpt><trkpt lat="41.1940149528356" lon="14.561638499748575"><ele>183.0</ele><time>2026-05-02T12:55:03Z</time></trkpt><trkpt lat="41.19397347068583" lon="14.561791456084517"><ele>187.25</ele><time>2026-05-02T12:55:04Z</time></trkpt><trkpt lat="41.193938767432805" lon="14.561939496280743"><ele>191.5</ele><time>2026-05-02T12:55:05Z</time></trkpt><trkpt lat="41.19389562559391" lon="14.562095851847241"><ele>195.75</ele><time>2026-05-02T12:55:06Z</time></trkpt><trkpt lat="41.19383766915283" lon="14.562232814615749"><ele>200.0</ele><time>2026-05-02T12:55:07Z</time></trkpt><trkpt lat="41.1937984883806" lon="14.56233946899136"><ele>200.0</ele><time>2026-05-02T12:55:08Z</time></trkpt><trkpt lat="41.19376267208543" lon="14.562447631437227"><ele>200.0</ele><time>2026-05-02T12:55:09Z</time></trkpt><trkpt lat="41.193767947091004" lon="14.562572687591086"><ele>200.0</ele><time>2026-05-02T12:55:10Z</time></trkpt><trkpt lat="41.193787246742154" lon="14.562703049440291"><ele>200.0</ele><time>2026-05-02T12:55:11Z</time></trkpt><trkpt lat="41.19381692141614" lon="14.562883409810587"><ele>200.0</ele><time>2026-05-02T12:55:12Z</time></trkpt><trkpt lat="41.19385424920924" lon="14.563072499396483"><ele>201.0</ele><time>2026-05-02T12:55:13Z</time></trkpt><trkpt lat="41.193896007742296" lon="14.563280441407139"><ele>202.0</ele><time>2026-05-02T12:55:14Z</time></trkpt><trkpt lat="41.19392882858648" lon="14.563443877007868"><ele>203.0</ele><time>2026-05-02T12:55:15Z</time></trkpt><trkpt lat="41.19395073880171" lon="14.563561291502502"><ele>204.0</ele><time>2026-05-02T12:55:16Z</time></trkpt><trkpt lat="41.193958943083274" lon="14.563649729768901"><ele>205.0</ele><time>2026-05-02T12:55:17Z</time></trkpt><trkpt lat="41.193940557210915" lon="14.563746724668377"><ele>206.6</ele><time>2026-05-02T12:55:18.001Z</time></trkpt><trkpt lat="41.19391808906475" lon="14.56383979281523"><ele>208.2</ele><time>2026-05-02T12:55:19.001Z</time></trkpt><trkpt lat="41.193859970390214" lon="14.563927445419143"><ele>209.8</ele><time>2026-05-02T12:55:20.001Z</time></trkpt><trkpt lat="41.193782011142034" lon="14.564024052871137"><ele>211.4</ele><time>2026-05-02T12:55:21.001Z</time></trkpt><trkpt lat="41.19369923540156" lon="14.564119076438512"><ele>213.0</ele><time>2026-05-02T12:55:22.001Z</time></trkpt><trkpt lat="41.193610673884656" lon="14.564212340753143"><ele>213.0</ele><time>2026-05-02T12:55:23.001Z</time></trkpt><trkpt lat="41.19354210906183" lon="14.564301264105142"><ele>213.0</ele><time>2026-05-02T12:55:24.001Z</time></trkpt><trkpt lat="41.19350627934874" lon="14.564374095858703"><ele>213.0</ele><time>2026-05-02T12:55:25.001Z</time></trkpt><trkpt lat="41.1934615505504" lon="14.564453059697586"><ele>213.0</ele><time>2026-05-02T12:55:26.001Z</time></trkpt><trkpt lat="41.19343523611124" lon="14.564566988541447"><ele>213.0</ele><time>2026-05-02T12:55:27.001Z</time></trkpt><trkpt lat="41.19343204150638" lon="14.56468603941189"><ele>213.0</ele><time>2026-05-02T12:55:28.001Z</time></trkpt><trkpt lat="41.19345258073179" lon="14.564823199985215"><ele>214.66666666666666</ele><time>2026-05-02T12:55:29.001Z</time></trkpt><trkpt lat="41.1934910285156" lon="14.564944103783967"><ele>216.33333333333331</ele><time>2026-05-02T12:55:30.001Z</time></trkpt><trkpt lat="41.193524982010274" lon="14.56503190523919"><ele>218.0</ele><time>2026-05-02T12:55:31.001Z</time></trkpt><trkpt lat="41.19356577860101" lon="14.565134121261512"><ele>219.66666666666666</ele><time>2026-05-02T12:55:32.001Z</time></trkpt><trkpt lat="41.19360095309141" lon="14.565225853262927"><ele>221.33333333333331</ele><time>2026-05-02T12:55:33.001Z</time></trkpt><trkpt lat="41.193640500999194" lon="14.565327587658487"><ele>223.0</ele><time>2026-05-02T12:55:34.001Z</time></trkpt><trkpt lat="41.19367176186175" lon="14.565408004138659"><ele>223.60000000000002</ele><time>2026-05-02T12:55:35.001Z</time></trkpt><trkpt lat="41.193718309248744" lon="14.565527744262354"><ele>224.20000000000002</ele><time>2026-05-02T12:55:36.001Z</time></trkpt><trkpt lat="41.19375233363927" lon="14.565640067026726"><ele>224.8</ele><time>2026-05-02T12:55:37.001Z</time></trkpt><trkpt lat="41.19377460959913" lon="14.565750448505677"><ele>225.4</ele><time>2026-05-02T12:55:38.001Z</time></trkpt><trkpt lat="41.19379853127166" lon="14.565882488039053"><ele>226.0</ele><time>2026-05-02T12:55:39.001Z</time></trkpt><trkpt lat="41.19381621039234" lon="14.566023097150417"><ele>226.0</ele><time>2026-05-02T12:55:40.001Z</time></trkpt><trkpt lat="41.19384467504428" lon="14.56615594518295"><ele>226.00000000000003</ele><time>2026-05-02T12:55:41.001Z</time></trkpt><trkpt lat="41.193848048140886" lon="14.566280679160398"><ele>226.00000000000003</ele><time>2026-05-02T12:55:42.001Z</time></trkpt><trkpt lat="41.193855823273125" lon="14.56642019319694"><ele>226.0</ele><time>2026-05-02T12:55:43.001Z</time></trkpt><trkpt lat="41.193847029211" lon="14.566546757727126"><ele>226.0</ele><time>2026-05-02T12:55:44.001Z</time></trkpt><trkpt lat="41.19386608672053" lon="14.566669222117216"><ele>228.20000000000002</ele><time>2026-05-02T12:55:45.001Z</time></trkpt><trkpt lat="41.19388890475585" lon="14.566805312008809"><ele>230.40000000000003</ele><time>2026-05-02T12:55:46.001Z</time></trkpt><trkpt lat="41.193896605464246" lon="14.566928480379408"><ele>232.6</ele><time>2026-05-02T12:55:47.001Z</time></trkpt><trkpt lat="41.193921948465594" lon="14.567039418661935"><ele>234.8</ele><time>2026-05-02T12:55:48.001Z</time></trkpt><trkpt lat="41.19394106344538" lon="14.56714338085034"><ele>237.0</ele><time>2026-05-02T12:55:49.001Z</time></trkpt><trkpt lat="41.193974083841695" lon="14.567270075346562"><ele>231.5</ele><time>2026-05-02T12:55:50.001Z</time></trkpt><trkpt lat="41.19403570005882" lon="14.567395518324576"><ele>226.0</ele><time>2026-05-02T12:55:51.001Z</time></trkpt><trkpt lat="41.19407574694834" lon="14.567530519144883"><ele>220.5</ele><time>2026-05-02T12:55:52.001Z</time></trkpt><trkpt lat="41.194121140077144" lon="14.567678875562045"><ele>215.0</ele><time>2026-05-02T12:55:53.001Z</time></trkpt><trkpt lat="41.19416593588602" lon="14.567825279766978"><ele>216.5</ele><time>2026-05-02T12:55:54.001Z</time></trkpt><trkpt lat="41.194206301395596" lon="14.567969249693766"><ele>218.0</ele><time>2026-05-02T12:55:55.001Z</time></trkpt><trkpt lat="41.19422480909587" lon="14.568121828833636"><ele>219.5</ele><time>2026-05-02T12:55:56.001Z</time></trkpt><trkpt lat="41.194260471676444" lon="14.56828835295264"><ele>221.0</ele><time>2026-05-02T12:55:57.001Z</time></trkpt><trkpt lat="41.1942735697368" lon="14.56844067193883"><ele>221.0</ele><time>2026-05-02T12:55:58.001Z</time></trkpt><trkpt lat="41.19427443742957" lon="14.56857135283132"><ele>221.0</ele><time>2026-05-02T12:55:59.001Z</time></trkpt><trkpt lat="41.194317585526115" lon="14.568702326713836"><ele>221.0</ele><time>2026-05-02T12:56:00.001Z</time></trkpt><trkpt lat="41.19439125537817" lon="14.568828197132271"><ele>221.0</ele><time>2026-05-02T12:56:01.001Z</time></trkpt><trkpt lat="41.19448296615483" lon="14.568962546037575"><ele>224.5</ele><time>2026-05-02T12:56:02.001Z</time></trkpt><trkpt lat="41.19455804780952" lon="14.5691256013901"><ele>228.0</ele><time>2026-05-02T12:56:03.001Z</time></trkpt><trkpt lat="41.19463122740114" lon="14.569292524122657"><ele>231.5</ele><time>2026-05-02T12:56:04.001Z</time></trkpt><trkpt lat="41.19470792364187" lon="14.569464896964558"><ele>235.0</ele><time>2026-05-02T12:56:05.001Z</time></trkpt><trkpt lat="41.19477945909899" lon="14.569625725674141"><ele>234.0</ele><time>2026-05-02T12:56:06.001Z</time></trkpt><trkpt lat="41.1948238123205" lon="14.56980568873993"><ele>233.0</ele><time>2026-05-02T12:56:07.001Z</time></trkpt><trkpt lat="41.19489951907832" lon="14.569962421216877"><ele>232.0</ele><time>2026-05-02T12:56:08.001Z</time></trkpt><trkpt lat="41.19493361593693" lon="14.570149747106937"><ele>231.0</ele><time>2026-05-02T12:56:09.001Z</time></trkpt><trkpt lat="41.19496739214975" lon="14.570336116072653"><ele>235.25</ele><time>2026-05-02T12:56:10.001Z</time></trkpt><trkpt lat="41.19498678463352" lon="14.570533217529062"><ele>239.5</ele><time>2026-05-02T12:56:11.001Z</time></trkpt><trkpt lat="41.194995659724626" lon="14.570713669237687"><ele>243.75</ele><time>2026-05-02T12:56:12.001Z</time></trkpt><trkpt lat="41.19499953620364" lon="14.570857226691823"><ele>248.0</ele><time>2026-05-02T12:56:13.001Z</time></trkpt><trkpt lat="41.19502378126694" lon="14.570984945549018"><ele>248.0</ele><time>2026-05-02T12:56:14.001Z</time></trkpt><trkpt lat="41.19506387224384" lon="14.57111264261783"><ele>248.0</ele><time>2026-05-02T12:56:15.001Z</time></trkpt><trkpt lat="41.1951221911384" lon="14.571243940891442"><ele>248.0</ele><time>2026-05-02T12:56:16.001Z</time></trkpt><trkpt lat="41.19520146913077" lon="14.571384942136728"><ele>248.0</ele><time>2026-05-02T12:56:17.001Z</time></trkpt><trkpt lat="41.195301360355195" lon="14.571503024672497"><ele>252.25</ele><time>2026-05-02T12:56:18.001Z</time></trkpt><trkpt lat="41.19538772918795" lon="14.571619713454707"><ele>256.5</ele><time>2026-05-02T12:56:19.001Z</time></trkpt><trkpt lat="41.19547241333006" lon="14.571732103332998"><ele>260.75</ele><time>2026-05-02T12:56:20.001Z</time></trkpt><trkpt lat="41.19553891479392" lon="14.571873019374504"><ele>265.0</ele><time>2026-05-02T12:56:21.001Z</time></trkpt><trkpt lat="41.19560542496823" lon="14.572031390159546"><ele>264.2</ele><time>2026-05-02T12:56:22.001Z</time></trkpt><trkpt lat="41.195654674842004" lon="14.5721822175114"><ele>263.4</ele><time>2026-05-02T12:56:23.002Z</time></trkpt><trkpt lat="41.19569611474284" lon="14.572307686800826"><ele>262.6</ele><time>2026-05-02T12:56:24.002Z</time></trkpt><trkpt lat="41.19573068860018" lon="14.572431156598986"><ele>261.8</ele><time>2026-05-02T12:56:25.002Z</time></trkpt><trkpt lat="41.19575570686063" lon="14.572559698952492"><ele>261.0</ele><time>2026-05-02T12:56:26.002Z</time></trkpt><trkpt lat="41.19576380759521" lon="14.572694032716782"><ele>261.0</ele><time>2026-05-02T12:56:27.002Z</time></trkpt><trkpt lat="41.195744990876214" lon="14.572840671734582"><ele>261.0</ele><time>2026-05-02T12:56:28.002Z</time></trkpt><trkpt lat="41.19574325580448" lon="14.572994596937628"><ele>261.0</ele><time>2026-05-02T12:56:29.002Z</time></trkpt><trkpt lat="41.19575575575711" lon="14.573153537337118"><ele>261.0</ele><time>2026-05-02T12:56:30.002Z</time></trkpt><trkpt lat="41.19577908015874" lon="14.57328293572276"><ele>261.0</ele><time>2026-05-02T12:56:31.002Z</time></trkpt><trkpt lat="41.19579460848441" lon="14.57339722306787"><ele>261.5</ele><time>2026-05-02T12:56:32.002Z</time></trkpt><trkpt lat="41.19581994351185" lon="14.573513894805847"><ele>262.0</ele><time>2026-05-02T12:56:33.002Z</time></trkpt><trkpt lat="41.1958434908775" lon="14.573646732754675"><ele>262.5</ele><time>2026-05-02T12:56:34.002Z</time></trkpt><trkpt lat="41.19585850631349" lon="14.573759856869119"><ele>263.0</ele><time>2026-05-02T12:56:35.002Z</time></trkpt><trkpt lat="41.195860442681116" lon="14.573862887797008"><ele>263.5</ele><time>2026-05-02T12:56:36.002Z</time></trkpt><trkpt lat="41.195844956232655" lon="14.573978376416292"><ele>264.0</ele><time>2026-05-02T12:56:37.002Z</time></trkpt><trkpt lat="41.195823211964736" lon="14.57410907404115"><ele>264.0</ele><time>2026-05-02T12:56:38.002Z</time></trkpt><trkpt lat="41.19580116900917" lon="14.574241566959598"><ele>264.0</ele><time>2026-05-02T12:56:39.002Z</time></trkpt><trkpt lat="41.195792750414114" lon="14.574384679729821"><ele>264.0</ele><time>2026-05-02T12:56:40.002Z</time></trkpt><trkpt lat="41.19577995099382" lon="14.574533713664431"><ele>264.0</ele><time>2026-05-02T12:56:41Z</time></trkpt><trkpt lat="41.195772424859115" lon="14.57467960941458"><ele>264.0</ele><time>2026-05-02T12:56:42Z</time></trkpt><trkpt lat="41.19577528171742" lon="14.574800040582536"><ele>264.0</ele><time>2026-05-02T12:56:43Z</time></trkpt><trkpt lat="41.195797187066624" lon="14.574915857254707"><ele>264.0</ele><time>2026-05-02T12:56:44Z</time></trkpt><trkpt lat="41.19582510142179" lon="14.575033085802858"><ele>264.0</ele><time>2026-05-02T12:56:45Z</time></trkpt><trkpt lat="41.19586313978618" lon="14.575139538207031"><ele>264.0</ele><time>2026-05-02T12:56:46Z</time></trkpt><trkpt lat="41.195904358204686" lon="14.575232332632275"><ele>264.0</ele><time>2026-05-02T12:56:47Z</time></trkpt><trkpt lat="41.1959762319429" lon="14.575317437256153"><ele>264.0</ele><time>2026-05-02T12:56:48Z</time></trkpt><trkpt lat="41.196041035513154" lon="14.575387759428777"><ele>265.4</ele><time>2026-05-02T12:56:49Z</time></trkpt><trkpt lat="41.196105980015666" lon="14.575439276768895"><ele>266.79999999999995</ele><time>2026-05-02T12:56:50Z</time></trkpt><trkpt lat="41.19617557878336" lon="14.575490105775668"><ele>268.20000000000005</ele><time>2026-05-02T12:56:51Z</time></trkpt><trkpt lat="41.196251589792176" lon="14.575567453914346"><ele>269.6</ele><time>2026-05-02T12:56:52Z</time></trkpt><trkpt lat="41.19636546362401" lon="14.57561842295322"><ele>271.0</ele><time>2026-05-02T12:56:53Z</time></trkpt><trkpt lat="41.19643954616023" lon="14.57567322955985"><ele>268.6</ele><time>2026-05-02T12:56:54Z</time></trkpt><trkpt lat="41.1965340698491" lon="14.575802844510875"><ele>266.20000000000005</ele><time>2026-05-02T12:56:56Z</time></trkpt><trkpt lat="41.196579648646654" lon="14.575902987120353"><ele>263.79999999999995</ele><time>2026-05-02T12:56:57Z</time></trkpt><trkpt lat="41.19661377564944" lon="14.57600280461958"><ele>261.4</ele><time>2026-05-02T12:56:58Z</time></trkpt><trkpt lat="41.196635731133156" lon="14.576111526485972"><ele>259.0</ele><time>2026-05-02T12:56:59Z</time></trkpt><trkpt lat="41.19667454039333" lon="14.57622657210379"><ele>259.0</ele><time>2026-05-02T12:57:00Z</time></trkpt><trkpt lat="41.19671542452326" lon="14.576347755003306"><ele>259.0</ele><time>2026-05-02T12:57:01Z</time></trkpt><trkpt lat="41.19672897273352" lon="14.576487753519935"><ele>259.0</ele><time>2026-05-02T12:57:02Z</time></trkpt><trkpt lat="41.196753806491834" lon="14.576625165251972"><ele>259.0</ele><time>2026-05-02T12:57:03Z</time></trkpt><trkpt lat="41.19678108387495" lon="14.576761179009106"><ele>259.0</ele><time>2026-05-02T12:57:04Z</time></trkpt><trkpt lat="41.19680817498564" lon="14.576906301243481"><ele>260.75</ele><time>2026-05-02T12:57:05Z</time></trkpt><trkpt lat="41.19683574139404" lon="14.577056491124695"><ele>262.5</ele><time>2026-05-02T12:57:06Z</time></trkpt><trkpt lat="41.19685655457748" lon="14.577212502807381"><ele>264.25</ele><time>2026-05-02T12:57:07Z</time></trkpt><trkpt lat="41.19687396191028" lon="14.577371368872143"><ele>266.0</ele><time>2026-05-02T12:57:08Z</time></trkpt><trkpt lat="41.19688080259743" lon="14.57751584650407"><ele>266.0</ele><time>2026-05-02T12:57:09Z</time></trkpt><trkpt lat="41.19688226429523" lon="14.577652607703762"><ele>266.0</ele><time>2026-05-02T12:57:10Z</time></trkpt><trkpt lat="41.196883816020524" lon="14.577793967052159"><ele>266.0</ele><time>2026-05-02T12:57:11Z</time></trkpt><trkpt lat="41.19687089673506" lon="14.57792403294264"><ele>266.0</ele><time>2026-05-02T12:57:12Z</time></trkpt><trkpt lat="41.19685836111049" lon="14.57805007301293"><ele>266.0</ele><time>2026-05-02T12:57:13Z</time></trkpt><trkpt lat="41.196857265428946" lon="14.578198931870395"><ele>266.0</ele><time>2026-05-02T12:57:14Z</time></trkpt><trkpt lat="41.1968624760371" lon="14.57834818129724"><ele>266.0</ele><time>2026-05-02T12:57:15Z</time></trkpt><trkpt lat="41.19685490939031" lon="14.578495113871233"><ele>266.0</ele><time>2026-05-02T12:57:16Z</time></trkpt><trkpt lat="41.196836477724645" lon="14.578640836473154"><ele>266.0</ele><time>2026-05-02T12:57:17Z</time></trkpt><trkpt lat="41.196806725535616" lon="14.578785072618698"><ele>266.0</ele><time>2026-05-02T12:57:18.001Z</time></trkpt><trkpt lat="41.19676786025183" lon="14.578920809747627"><ele>266.0</ele><time>2026-05-02T12:57:19Z</time></trkpt><trkpt lat="41.19672787363385" lon="14.57905944489125"><ele>266.0</ele><time>2026-05-02T12:57:20.001Z</time></trkpt><trkpt lat="41.19667948624153" lon="14.579205631651517"><ele>266.0</ele><time>2026-05-02T12:57:21.001Z</time></trkpt><trkpt lat="41.19662929249333" lon="14.579358911770834"><ele>266.0</ele><time>2026-05-02T12:57:22.001Z</time></trkpt><trkpt lat="41.19658530444932" lon="14.579500779096522"><ele>265.2</ele><time>2026-05-02T12:57:23.001Z</time></trkpt><trkpt lat="41.19654417298851" lon="14.57965131638538"><ele>264.40000000000003</ele><time>2026-05-02T12:57:24.001Z</time></trkpt><trkpt lat="41.19649824520396" lon="14.579782560895522"><ele>263.6</ele><time>2026-05-02T12:57:25.001Z</time></trkpt><trkpt lat="41.196468623466686" lon="14.57989560633854"><ele>262.8</ele><time>2026-05-02T12:57:26.001Z</time></trkpt><trkpt lat="41.19644602750013" lon="14.580028465165164"><ele>262.0</ele><time>2026-05-02T12:57:27.001Z</time></trkpt><trkpt lat="41.196424081297515" lon="14.58016636270056"><ele>265.25</ele><time>2026-05-02T12:57:28.001Z</time></trkpt><trkpt lat="41.196411198558074" lon="14.580308012630221"><ele>268.5</ele><time>2026-05-02T12:57:29.001Z</time></trkpt><trkpt lat="41.19639371533416" lon="14.580469415313402"><ele>271.75</ele><time>2026-05-02T12:57:30.001Z</time></trkpt><trkpt lat="41.19638352900242" lon="14.580637587943022"><ele>275.0</ele><time>2026-05-02T12:57:31.001Z</time></trkpt><trkpt lat="41.196376268644215" lon="14.58079988128825"><ele>275.0</ele><time>2026-05-02T12:57:32.001Z</time></trkpt><trkpt lat="41.19636580545133" lon="14.580941102525644"><ele>275.0</ele><time>2026-05-02T12:57:33.001Z</time></trkpt><trkpt lat="41.196358958602865" lon="14.581067549879535"><ele>275.0</ele><time>2026-05-02T12:57:34.001Z</time></trkpt><trkpt lat="41.19635817624376" lon="14.581180551398477"><ele>275.0</ele><time>2026-05-02T12:57:35.001Z</time></trkpt><trkpt lat="41.19636310725407" lon="14.581295463011951"><ele>275.0</ele><time>2026-05-02T12:57:36.001Z</time></trkpt><trkpt lat="41.196368452820906" lon="14.581399911251346"><ele>275.0</ele><time>2026-05-02T12:57:37.001Z</time></trkpt><trkpt lat="41.19636284499997" lon="14.58151217959521"><ele>275.0</ele><time>2026-05-02T12:57:38.001Z</time></trkpt><trkpt lat="41.196367706705836" lon="14.581616812651081"><ele>275.0</ele><time>2026-05-02T12:57:39.001Z</time></trkpt><trkpt lat="41.19637372824049" lon="14.581726941832091"><ele>275.0</ele><time>2026-05-02T12:57:40.001Z</time></trkpt><trkpt lat="41.19638748880801" lon="14.581829670831409"><ele>275.0</ele><time>2026-05-02T12:57:41.001Z</time></trkpt><trkpt lat="41.19640421368654" lon="14.58198078955622"><ele>275.0</ele><time>2026-05-02T12:57:43.001Z</time></trkpt><trkpt lat="41.19640923376739" lon="14.582132879307096"><ele>275.6666666666667</ele><time>2026-05-02T12:58:09.001Z</time></trkpt><trkpt lat="41.196375104419154" lon="14.582208543979565"><ele>276.33333333333337</ele><time>2026-05-02T12:58:10.001Z</time></trkpt><trkpt lat="41.19639366033824" lon="14.582306057357814"><ele>277.0</ele><time>2026-05-02T12:58:11.001Z</time></trkpt><trkpt lat="41.196400891111736" lon="14.582415562952416"><ele>277.6666666666667</ele><time>2026-05-02T12:58:12.001Z</time></trkpt><trkpt lat="41.196443515694924" lon="14.58253734592689"><ele>278.3333333333333</ele><time>2026-05-02T12:58:13.001Z</time></trkpt><trkpt lat="41.19651004012609" lon="14.582650174563158"><ele>279.0</ele><time>2026-05-02T12:58:14.001Z</time></trkpt><trkpt lat="41.19660001560539" lon="14.582752234801914"><ele>275.5</ele><time>2026-05-02T12:58:15.001Z</time></trkpt><trkpt lat="41.19670041900386" lon="14.582820714474103"><ele>272.0</ele><time>2026-05-02T12:58:16.001Z</time></trkpt><trkpt lat="41.196797200768906" lon="14.582874721182478"><ele>268.5</ele><time>2026-05-02T12:58:17.001Z</time></trkpt><trkpt lat="41.196908480745904" lon="14.58293724037476"><ele>265.0</ele><time>2026-05-02T12:58:18.001Z</time></trkpt><trkpt lat="41.197001771177135" lon="14.583048248767339"><ele>267.75</ele><time>2026-05-02T12:58:19.001Z</time></trkpt><trkpt lat="41.19709864248269" lon="14.583208354574941"><ele>270.5</ele><time>2026-05-02T12:58:20.001Z</time></trkpt><trkpt lat="41.19719074487976" lon="14.583353947939617"><ele>273.25</ele><time>2026-05-02T12:58:21.001Z</time></trkpt><trkpt lat="41.19728785590737" lon="14.583501530269924"><ele>276.0</ele><time>2026-05-02T12:58:22.001Z</time></trkpt><trkpt lat="41.19739883399727" lon="14.583664512517103"><ele>286.0</ele><time>2026-05-02T12:58:23.001Z</time></trkpt><trkpt lat="41.19753413534255" lon="14.583826183589798"><ele>296.0</ele><time>2026-05-02T12:58:24.001Z</time></trkpt><trkpt lat="41.1976566361125" lon="14.583948404201315"><ele>306.0</ele><time>2026-05-02T12:58:25.001Z</time></trkpt><trkpt lat="41.19779176075857" lon="14.584090660626742"><ele>306.0</ele><time>2026-05-02T12:58:26.001Z</time></trkpt><trkpt lat="41.19790597462317" lon="14.584229484618808"><ele>306.0</ele><time>2026-05-02T12:58:27.001Z</time></trkpt><trkpt lat="41.19800012371647" lon="14.584385982589353"><ele>306.0</ele><time>2026-05-02T12:58:28.002Z</time></trkpt><trkpt lat="41.19808581596043" lon="14.58457335431938"><ele>302.3333333333333</ele><time>2026-05-02T12:58:29.002Z</time></trkpt><trkpt lat="41.19815697502938" lon="14.584775947285879"><ele>298.66666666666663</ele><time>2026-05-02T12:58:30.002Z</time></trkpt><trkpt lat="41.19821544115772" lon="14.584974408017692"><ele>295.0</ele><time>2026-05-02T12:58:31.002Z</time></trkpt><trkpt lat="41.19824475992857" lon="14.585138708986536"><ele>295.0</ele><time>2026-05-02T12:58:32.002Z</time></trkpt><trkpt lat="41.198261946476336" lon="14.585313287603755"><ele>295.0</ele><time>2026-05-02T12:58:33.002Z</time></trkpt><trkpt lat="41.198240139744264" lon="14.585511460840824"><ele>295.0</ele><time>2026-05-02T12:58:34.002Z</time></trkpt><trkpt lat="41.19821859050558" lon="14.585714226236318"><ele>295.0</ele><time>2026-05-02T12:58:35.002Z</time></trkpt><trkpt lat="41.19821071492083" lon="14.58587814505779"><ele>299.0</ele><time>2026-05-02T12:58:36.002Z</time></trkpt><trkpt lat="41.198206720606954" lon="14.586014277841118"><ele>303.0</ele><time>2026-05-02T12:58:37.002Z</time></trkpt><trkpt lat="41.19822427015603" lon="14.586162047678293"><ele>307.0</ele><time>2026-05-02T12:58:38.002Z</time></trkpt><trkpt lat="41.19826545484196" lon="14.586305174465114"><ele>311.0</ele><time>2026-05-02T12:58:39.002Z</time></trkpt><trkpt lat="41.198333999822744" lon="14.586447183695947"><ele>318.0</ele><time>2026-05-02T12:58:40.002Z</time></trkpt><trkpt lat="41.19842995053292" lon="14.586595052292052"><ele>325.0</ele><time>2026-05-02T12:58:41.002Z</time></trkpt><trkpt lat="41.198524257145706" lon="14.586758049557702"><ele>332.0</ele><time>2026-05-02T12:58:42.002Z</time></trkpt><trkpt lat="41.19861329029381" lon="14.586950067391411"><ele>340.6666666666667</ele><time>2026-05-02T12:58:43.002Z</time></trkpt><trkpt lat="41.19867660403707" lon="14.587174293289864"><ele>349.3333333333333</ele><time>2026-05-02T12:58:44.002Z</time></trkpt><trkpt lat="41.198750690760114" lon="14.587410961000641"><ele>358.0</ele><time>2026-05-02T12:58:45.002Z</time></trkpt><trkpt lat="41.198826541596084" lon="14.587642596273186"><ele>365.0</ele><time>2026-05-02T12:58:46.002Z</time></trkpt><trkpt lat="41.19890073428574" lon="14.58785937582704"><ele>372.0</ele><time>2026-05-02T12:58:47Z</time></trkpt><trkpt lat="41.19895410088503" lon="14.588088976831882"><ele>379.0</ele><time>2026-05-02T12:58:48Z</time></trkpt><trkpt lat="41.19899539509761" lon="14.588326124333728"><ele>368.0</ele><time>2026-05-02T12:58:49Z</time></trkpt><trkpt lat="41.19901159053785" lon="14.588585349716814"><ele>357.0</ele><time>2026-05-02T12:58:50Z</time></trkpt><trkpt lat="41.1990419150925" lon="14.588849259646576"><ele>346.0</ele><time>2026-05-02T12:58:51Z</time></trkpt><trkpt lat="41.199095003725866" lon="14.589109557718597"><ele>346.0</ele><time>2026-05-02T12:58:52Z</time></trkpt><trkpt lat="41.199137659556165" lon="14.589368199130762"><ele>346.0</ele><time>2026-05-02T12:58:53Z</time></trkpt><trkpt lat="41.19917122179515" lon="14.589589266576672"><ele>346.0</ele><time>2026-05-02T12:58:54Z</time></trkpt><trkpt lat="41.19919970764527" lon="14.589781890237164"><ele>349.4</ele><time>2026-05-02T12:58:55Z</time></trkpt><trkpt lat="41.199231625160564" lon="14.589953962326518"><ele>352.8</ele><time>2026-05-02T12:58:56Z</time></trkpt><trkpt lat="41.19926855089117" lon="14.590098262913774"><ele>356.2</ele><time>2026-05-02T12:58:57Z</time></trkpt><trkpt lat="41.199308667789836" lon="14.590214129328439"><ele>359.59999999999997</ele><time>2026-05-02T12:58:58Z</time></trkpt><trkpt lat="41.19935741549711" lon="14.590302787344136"><ele>363.0</ele><time>2026-05-02T12:58:59Z</time></trkpt><trkpt lat="41.19939968739097" lon="14.590369754754526"><ele>365.6666666666667</ele><time>2026-05-02T12:59:00Z</time></trkpt><trkpt lat="41.199421163519524" lon="14.590518915091938"><ele>368.3333333333333</ele><time>2026-05-02T12:59:02Z</time></trkpt><trkpt lat="41.19937229665841" lon="14.59058550132598"><ele>371.0</ele><time>2026-05-02T12:59:03Z</time></trkpt><trkpt lat="41.19926736762426" lon="14.590595678128857"><ele>373.66666666666663</ele><time>2026-05-02T12:59:04Z</time></trkpt><trkpt lat="41.19920698748456" lon="14.590559979611362"><ele>376.3333333333333</ele><time>2026-05-02T12:59:05Z</time></trkpt><trkpt lat="41.199178118998255" lon="14.590467818628074"><ele>379.0</ele><time>2026-05-02T12:59:06Z</time></trkpt><trkpt lat="41.19917242458546" lon="14.590361171259955"><ele>375.0</ele><time>2026-05-02T12:59:07Z</time></trkpt><trkpt lat="41.19914028676776" lon="14.590240689311146"><ele>371.0</ele><time>2026-05-02T12:59:08Z</time></trkpt><trkpt lat="41.1990861536267" lon="14.590085369520752"><ele>367.0</ele><time>2026-05-02T12:59:09Z</time></trkpt><trkpt lat="41.19900968902936" lon="14.5899143908443"><ele>363.0</ele><time>2026-05-02T12:59:10Z</time></trkpt><trkpt lat="41.19892544646586" lon="14.589728963897725"><ele>374.66666666666663</ele><time>2026-05-02T12:59:11Z</time></trkpt><trkpt lat="41.198840302910995" lon="14.589537980229363"><ele>386.3333333333333</ele><time>2026-05-02T12:59:12Z</time></trkpt><trkpt lat="41.19873318755671" lon="14.589305073210813"><ele>398.0</ele><time>2026-05-02T12:59:13Z</time></trkpt><trkpt lat="41.198620007137784" lon="14.589057273048642"><ele>398.0</ele><time>2026-05-02T12:59:14Z</time></trkpt><trkpt lat="41.19852439892407" lon="14.588813595941616"><ele>398.0</ele><time>2026-05-02T12:59:15Z</time></trkpt><trkpt lat="41.19844191333383" lon="14.588598669779364"><ele>398.0</ele><time>2026-05-02T12:59:16Z</time></trkpt><trkpt lat="41.19835356945948" lon="14.588392568104693"><ele>399.66666666666663</ele><time>2026-05-02T12:59:17Z</time></trkpt><trkpt lat="41.19825463496013" lon="14.588191515836808"><ele>401.33333333333337</ele><time>2026-05-02T12:59:18Z</time></trkpt><trkpt lat="41.19813717885783" lon="14.587977998382634"><ele>403.0</ele><time>2026-05-02T12:59:19Z</time></trkpt><trkpt lat="41.19801538195228" lon="14.587773904036187"><ele>403.0</ele><time>2026-05-02T12:59:20Z</time></trkpt><trkpt lat="41.197887968902684" lon="14.587573532081333"><ele>403.0</ele><time>2026-05-02T12:59:21Z</time></trkpt><trkpt lat="41.19774791795621" lon="14.5873652976622"><ele>403.0</ele><time>2026-05-02T12:59:22Z</time></trkpt><trkpt lat="41.19759815707872" lon="14.587162703426454"><ele>408.6666666666667</ele><time>2026-05-02T12:59:23Z</time></trkpt><trkpt lat="41.197457425736175" lon="14.586963561311869"><ele>414.33333333333337</ele><time>2026-05-02T12:59:24Z</time></trkpt><trkpt lat="41.19734463382842" lon="14.586798163165074"><ele>420.0</ele><time>2026-05-02T12:59:25.001Z</time></trkpt><trkpt lat="41.1972390103207" lon="14.586645583250144"><ele>420.0</ele><time>2026-05-02T12:59:26.001Z</time></trkpt><trkpt lat="41.19713961371245" lon="14.586513490808205"><ele>420.0</ele><time>2026-05-02T12:59:27.001Z</time></trkpt><trkpt lat="41.197064591213696" lon="14.586384366401983"><ele>420.0</ele><time>2026-05-02T12:59:28.001Z</time></trkpt><trkpt lat="41.19701293847815" lon="14.58623785176929"><ele>420.0</ele><time>2026-05-02T12:59:29.001Z</time></trkpt><trkpt lat="41.19697960862762" lon="14.58612492004745"><ele>420.0</ele><time>2026-05-02T12:59:30.001Z</time></trkpt><trkpt lat="41.19694087382287" lon="14.58602623550172"><ele>420.0</ele><time>2026-05-02T12:59:31.001Z</time></trkpt><trkpt lat="41.19688017554431" lon="14.585975630827814"><ele>420.0</ele><time>2026-05-02T12:59:32.001Z</time></trkpt><trkpt lat="41.19680823849553" lon="14.58596368260778"><ele>420.0</ele><time>2026-05-02T12:59:33.001Z</time></trkpt><trkpt lat="41.19674587323278" lon="14.58599651981543"><ele>420.0</ele><time>2026-05-02T12:59:34.001Z</time></trkpt><trkpt lat="41.19668530937961" lon="14.586135385586196"><ele>420.0</ele><time>2026-05-02T12:59:36.001Z</time></trkpt><trkpt lat="41.196692896454095" lon="14.586241574809039"><ele>420.0</ele><time>2026-05-02T12:59:37.001Z</time></trkpt><trkpt lat="41.19677915824571" lon="14.586335794008217"><ele>420.0</ele><time>2026-05-02T12:59:38.001Z</time></trkpt><trkpt lat="41.196870919591184" lon="14.586464535133038"><ele>420.0</ele><time>2026-05-02T12:59:39.001Z</time></trkpt><trkpt lat="41.19693259480648" lon="14.586653917379518"><ele>420.0</ele><time>2026-05-02T12:59:40.001Z</time></trkpt><trkpt lat="41.197021037860274" lon="14.586888394631922"><ele>414.33333333333337</ele><time>2026-05-02T12:59:41.001Z</time></trkpt><trkpt lat="41.19712985988569" lon="14.587130233040877"><ele>408.6666666666667</ele><time>2026-05-02T12:59:42.001Z</time></trkpt><trkpt lat="41.19724843310397" lon="14.587385223634122"><ele>403.0</ele><time>2026-05-02T12:59:43.001Z</time></trkpt><trkpt lat="41.19738807250227" lon="14.587645798120784"><ele>419.0</ele><time>2026-05-02T12:59:44.001Z</time></trkpt><trkpt lat="41.19750297072421" lon="14.587913942938016"><ele>435.0</ele><time>2026-05-02T12:59:45.001Z</time></trkpt><trkpt lat="41.1976137717142" lon="14.588184432469982"><ele>435.0</ele><time>2026-05-02T12:59:46.001Z</time></trkpt><trkpt lat="41.19768504441" lon="14.588442259442298"><ele>435.0</ele><time>2026-05-02T12:59:47.001Z</time></trkpt><trkpt lat="41.19776264360505" lon="14.588709940582476"><ele>435.0</ele><time>2026-05-02T12:59:48.001Z</time></trkpt><trkpt lat="41.19783143923432" lon="14.5889922224805"><ele>445.5</ele><time>2026-05-02T12:59:49.001Z</time></trkpt><trkpt lat="41.19789456063049" lon="14.589306203580835"><ele>456.0</ele><time>2026-05-02T12:59:50.001Z</time></trkpt><trkpt lat="41.19795315817238" lon="14.589633515407332"><ele>463.5</ele><time>2026-05-02T12:59:51.001Z</time></trkpt><trkpt lat="41.198030078071255" lon="14.589955357714313"><ele>471.0</ele><time>2026-05-02T12:59:52.001Z</time></trkpt><trkpt lat="41.19810040775329" lon="14.590278822867756"><ele>476.0</ele><time>2026-05-02T12:59:53.001Z</time></trkpt><trkpt lat="41.19815994199051" lon="14.590570610003226"><ele>481.0</ele><time>2026-05-02T12:59:54.001Z</time></trkpt><trkpt lat="41.198194436798474" lon="14.590844535933732"><ele>486.0</ele><time>2026-05-02T12:59:55.001Z</time></trkpt><trkpt lat="41.198236968298" lon="14.591128209343172"><ele>470.66666666666663</ele><time>2026-05-02T12:59:56.001Z</time></trkpt><trkpt lat="41.19828018310932" lon="14.59141602947576"><ele>455.3333333333333</ele><time>2026-05-02T12:59:57.001Z</time></trkpt><trkpt lat="41.198299095711256" lon="14.591706303627523"><ele>440.0</ele><time>2026-05-02T12:59:58.001Z</time></trkpt><trkpt lat="41.198298771641404" lon="14.59199765687058"><ele>443.5</ele><time>2026-05-02T12:59:59.001Z</time></trkpt><trkpt lat="41.19827894281166" lon="14.592292354108011"><ele>447.0</ele><time>2026-05-02T13:00:00.001Z</time></trkpt><trkpt lat="41.19826226452265" lon="14.592593468394421"><ele>450.0</ele><time>2026-05-02T13:00:01.001Z</time></trkpt><trkpt lat="41.1982549369248" lon="14.592903275141534"><ele>453.0</ele><time>2026-05-02T13:00:02.001Z</time></trkpt><trkpt lat="41.19825983278287" lon="14.5932152384915"><ele>453.0</ele><time>2026-05-02T13:00:03.001Z</time></trkpt><trkpt lat="41.19828169168966" lon="14.593505142274344"><ele>453.0</ele><time>2026-05-02T13:00:04.001Z</time></trkpt><trkpt lat="41.198276880714694" lon="14.593790716049297"><ele>453.0</ele><time>2026-05-02T13:00:05.001Z</time></trkpt><trkpt lat="41.198267646590295" lon="14.594073355220623"><ele>453.66666666666663</ele><time>2026-05-02T13:00:06.001Z</time></trkpt><trkpt lat="41.19823257168669" lon="14.594359690055837"><ele>454.3333333333333</ele><time>2026-05-02T13:00:07.001Z</time></trkpt><trkpt lat="41.19820266008997" lon="14.594652596211585"><ele>455.0</ele><time>2026-05-02T13:00:08.001Z</time></trkpt><trkpt lat="41.19816918362704" lon="14.594949541539473"><ele>488.0</ele><time>2026-05-02T13:00:09.001Z</time></trkpt><trkpt lat="41.198134519316575" lon="14.595248818275778"><ele>521.0</ele><time>2026-05-02T13:00:10.001Z</time></trkpt><trkpt lat="41.19809914363514" lon="14.595547425560207"><ele>521.0</ele><time>2026-05-02T13:00:11.001Z</time></trkpt><trkpt lat="41.19806527915073" lon="14.595833276821162"><ele>521.0</ele><time>2026-05-02T13:00:12.001Z</time></trkpt><trkpt lat="41.19803400195919" lon="14.59608074672255"><ele>521.0</ele><time>2026-05-02T13:00:13.001Z</time></trkpt><trkpt lat="41.1980014015726" lon="14.596296058151092"><ele>518.0</ele><time>2026-05-02T13:00:14.001Z</time></trkpt><trkpt lat="41.197969349210005" lon="14.596500325894091"><ele>515.0</ele><time>2026-05-02T13:00:15.001Z</time></trkpt><trkpt lat="41.19796081964181" lon="14.596660050518414"><ele>512.0</ele><time>2026-05-02T13:00:16.001Z</time></trkpt><trkpt lat="41.19794238266368" lon="14.596798439875117"><ele>509.0</ele><time>2026-05-02T13:00:17.001Z</time></trkpt><trkpt lat="41.1979184813035" lon="14.596920340104479"><ele>508.99999999999994</ele><time>2026-05-02T13:00:18.001Z</time></trkpt><trkpt lat="41.19791154779753" lon="14.597023194736588"><ele>509.0</ele><time>2026-05-02T13:00:19.001Z</time></trkpt><trkpt lat="41.19784006590117" lon="14.59711030588138"><ele>509.0</ele><time>2026-05-02T13:00:21.001Z</time></trkpt><trkpt lat="41.1977394981148" lon="14.597084848745379"><ele>509.0</ele><time>2026-05-02T13:00:23.001Z</time></trkpt><trkpt lat="41.19770911101958" lon="14.596996650276608"><ele>508.99999999999994</ele><time>2026-05-02T13:00:24.001Z</time></trkpt><trkpt lat="41.19772271480806" lon="14.596892534746782"><ele>509.0</ele><time>2026-05-02T13:00:25.001Z</time></trkpt><trkpt lat="41.19776525288953" lon="14.596797632607712"><ele>509.0</ele><time>2026-05-02T13:00:26.001Z</time></trkpt><trkpt lat="41.19782774003848" lon="14.596688735393611"><ele>509.0</ele><time>2026-05-02T13:00:27.001Z</time></trkpt><trkpt lat="41.19787386892552" lon="14.59654296671309"><ele>509.0</ele><time>2026-05-02T13:00:28.001Z</time></trkpt><trkpt lat="41.19788824670792" lon="14.596355184991648"><ele>509.0</ele><time>2026-05-02T13:00:29.001Z</time></trkpt><trkpt lat="41.19788206942426" lon="14.596159153913918"><ele>513.0</ele><time>2026-05-02T13:00:30.001Z</time></trkpt><trkpt lat="41.19786278102316" lon="14.595927680877402"><ele>517.0</ele><time>2026-05-02T13:00:31.001Z</time></trkpt><trkpt lat="41.19784828699304" lon="14.59566474501451"><ele>521.0</ele><time>2026-05-02T13:00:32.001Z</time></trkpt><trkpt lat="41.19782614418793" lon="14.595397766502362"><ele>522.6666666666666</ele><time>2026-05-02T13:00:33.001Z</time></trkpt><trkpt lat="41.19780370764052" lon="14.595121722806336"><ele>524.3333333333334</ele><time>2026-05-02T13:00:34.001Z</time></trkpt><trkpt lat="41.19778591781686" lon="14.5948441228678"><ele>526.0</ele><time>2026-05-02T13:00:35.001Z</time></trkpt><trkpt lat="41.197757432534495" lon="14.59455812661475"><ele>525.0</ele><time>2026-05-02T13:00:36.002Z</time></trkpt><trkpt lat="41.19773513514551" lon="14.594300232104914"><ele>524.0</ele><time>2026-05-02T13:00:37.002Z</time></trkpt><trkpt lat="41.19770759901798" lon="14.594060749390131"><ele>523.0</ele><time>2026-05-02T13:00:38.002Z</time></trkpt><trkpt lat="41.197632939410184" lon="14.593834431977378"><ele>519.0</ele><time>2026-05-02T13:00:39.002Z</time></trkpt><trkpt lat="41.197545555083956" lon="14.59359679155993"><ele>515.0</ele><time>2026-05-02T13:00:40.002Z</time></trkpt><trkpt lat="41.19746197569813" lon="14.593357545128361"><ele>511.0</ele><time>2026-05-02T13:00:41.002Z</time></trkpt><trkpt lat="41.19741644009452" lon="14.59309552533617"><ele>508.6666666666667</ele><time>2026-05-02T13:00:42.002Z</time></trkpt><trkpt lat="41.1973555768734" lon="14.592835438789468"><ele>506.33333333333337</ele><time>2026-05-02T13:00:43.002Z</time></trkpt><trkpt lat="41.19729335955686" lon="14.592565392051595"><ele>504.0</ele><time>2026-05-02T13:00:44.002Z</time></trkpt><trkpt lat="41.19722753954164" lon="14.592292070181212"><ele>523.6666666666666</ele><time>2026-05-02T13:00:45.002Z</time></trkpt><trkpt lat="41.197161741408806" lon="14.592013736105448"><ele>543.3333333333333</ele><time>2026-05-02T13:00:46.002Z</time></trkpt><trkpt lat="41.19710535428611" lon="14.59174873119768"><ele>563.0</ele><time>2026-05-02T13:00:47.002Z</time></trkpt><trkpt lat="41.197055904493894" lon="14.591511675003247"><ele>563.0</ele><time>2026-05-02T13:00:48.002Z</time></trkpt><trkpt lat="41.19700181794816" lon="14.591288241601712"><ele>563.0</ele><time>2026-05-02T13:00:49.002Z</time></trkpt><trkpt lat="41.19691195198031" lon="14.591043055022563"><ele>563.0</ele><time>2026-05-02T13:00:50.002Z</time></trkpt><trkpt lat="41.19681736831772" lon="14.590794970678406"><ele>558.6666666666666</ele><time>2026-05-02T13:00:51.002Z</time></trkpt><trkpt lat="41.196720079274264" lon="14.590564320794766"><ele>554.3333333333334</ele><time>2026-05-02T13:00:52.002Z</time></trkpt><trkpt lat="41.19662580820619" lon="14.590350379083883"><ele>550.0</ele><time>2026-05-02T13:00:53Z</time></trkpt><trkpt lat="41.1965249061225" lon="14.590135788584815"><ele>554.75</ele><time>2026-05-02T13:00:54Z</time></trkpt><trkpt lat="41.196451015363145" lon="14.589969181527433"><ele>559.5</ele><time>2026-05-02T13:00:55Z</time></trkpt><trkpt lat="41.19637248295665" lon="14.589837674362087"><ele>564.25</ele><time>2026-05-02T13:00:56Z</time></trkpt><trkpt lat="41.19628769131256" lon="14.589679167564974"><ele>569.0</ele><time>2026-05-02T13:00:57Z</time></trkpt><trkpt lat="41.19618353783133" lon="14.589559238344252"><ele>560.0</ele><time>2026-05-02T13:00:58Z</time></trkpt><trkpt lat="41.19606726717056" lon="14.589458798128724"><ele>551.0</ele><time>2026-05-02T13:00:59Z</time></trkpt><trkpt lat="41.19596568588586" lon="14.589371934770758"><ele>542.0</ele><time>2026-05-02T13:01:00Z</time></trkpt><trkpt lat="41.19583963915637" lon="14.589321463234537"><ele>533.0</ele><time>2026-05-02T13:01:01Z</time></trkpt><trkpt lat="41.19571297292693" lon="14.58931009014258"><ele>530.25</ele><time>2026-05-02T13:01:02Z</time></trkpt><trkpt lat="41.19558889430471" lon="14.589339937407425"><ele>527.5</ele><time>2026-05-02T13:01:03Z</time></trkpt><trkpt lat="41.19546075491912" lon="14.589412777791125"><ele>524.75</ele><time>2026-05-02T13:01:04Z</time></trkpt><trkpt lat="41.19533015225402" lon="14.58950441724966"><ele>522.0</ele><time>2026-05-02T13:01:05Z</time></trkpt><trkpt lat="41.19519930743219" lon="14.589618069455874"><ele>521.6666666666666</ele><time>2026-05-02T13:01:06Z</time></trkpt><trkpt lat="41.19506214800086" lon="14.589755610998463"><ele>521.3333333333333</ele><time>2026-05-02T13:01:07Z</time></trkpt><trkpt lat="41.19493050194921" lon="14.589909908623627"><ele>521.0</ele><time>2026-05-02T13:01:08Z</time></trkpt><trkpt lat="41.19481274255902" lon="14.590076005035264"><ele>521.0</ele><time>2026-05-02T13:01:09Z</time></trkpt><trkpt lat="41.19471079476902" lon="14.590245521833767"><ele>521.0</ele><time>2026-05-02T13:01:10Z</time></trkpt><trkpt lat="41.194598065539445" lon="14.59042263001239"><ele>521.0</ele><time>2026-05-02T13:01:11Z</time></trkpt><trkpt lat="41.194482958943595" lon="14.590603222098744"><ele>533.3333333333333</ele><time>2026-05-02T13:01:12Z</time></trkpt><trkpt lat="41.19436814933235" lon="14.59078657543809"><ele>545.6666666666666</ele><time>2026-05-02T13:01:13Z</time></trkpt><trkpt lat="41.19426653840223" lon="14.590947611702902"><ele>558.0</ele><time>2026-05-02T13:01:14Z</time></trkpt><trkpt lat="41.194165301354296" lon="14.591085722822976"><ele>558.0</ele><time>2026-05-02T13:01:15Z</time></trkpt><trkpt lat="41.194063317427016" lon="14.59121372821214"><ele>558.0</ele><time>2026-05-02T13:01:16Z</time></trkpt><trkpt lat="41.19396174838645" lon="14.59134429652473"><ele>558.0</ele><time>2026-05-02T13:01:17Z</time></trkpt><trkpt lat="41.193857762794664" lon="14.591484567911484"><ele>558.0</ele><time>2026-05-02T13:01:18Z</time></trkpt><trkpt lat="41.19375162144325" lon="14.591627411820884"><ele>558.0</ele><time>2026-05-02T13:01:19Z</time></trkpt><trkpt lat="41.19364988494785" lon="14.591775065597611"><ele>558.0</ele><time>2026-05-02T13:01:20Z</time></trkpt><trkpt lat="41.19354623191676" lon="14.59193618062057"><ele>558.0</ele><time>2026-05-02T13:01:21Z</time></trkpt><trkpt lat="41.19343575485087" lon="14.59209025939219"><ele>562.3333333333334</ele><time>2026-05-02T13:01:22Z</time></trkpt><trkpt lat="41.19332932282137" lon="14.592262450082385"><ele>566.6666666666667</ele><time>2026-05-02T13:01:23Z</time></trkpt><trkpt lat="41.193227155608966" lon="14.592439412922293"><ele>571.0</ele><time>2026-05-02T13:01:24Z</time></trkpt><trkpt lat="41.19308097712619" lon="14.59254907321958"><ele>571.0</ele><time>2026-05-02T13:01:25Z</time></trkpt><trkpt lat="41.19293622644197" lon="14.59268382110233"><ele>571.0</ele><time>2026-05-02T13:01:26Z</time></trkpt><trkpt lat="41.192766144521386" lon="14.592773934855304"><ele>571.0</ele><time>2026-05-02T13:01:27Z</time></trkpt><trkpt lat="41.19259542610711" lon="14.592856431319527"><ele>572.3333333333334</ele><time>2026-05-02T13:01:28Z</time></trkpt><trkpt lat="41.19245642371118" lon="14.59294177334479"><ele>573.6666666666666</ele><time>2026-05-02T13:01:29Z</time></trkpt><trkpt lat="41.19230873717583" lon="14.593051635911776"><ele>575.0</ele><time>2026-05-02T13:01:30Z</time></trkpt><trkpt lat="41.192188103127656" lon="14.593217121372193"><ele>575.0</ele><time>2026-05-02T13:01:31Z</time></trkpt><trkpt lat="41.19206418732652" lon="14.593399195313344"><ele>575.0</ele><time>2026-05-02T13:01:32Z</time></trkpt><trkpt lat="41.19197112745073" lon="14.59359118358154"><ele>575.0</ele><time>2026-05-02T13:01:33Z</time></trkpt><trkpt lat="41.191887856880626" lon="14.593791333397533"><ele>581.6666666666666</ele><time>2026-05-02T13:01:34Z</time></trkpt><trkpt lat="41.19182603255628" lon="14.594001884572199"><ele>588.3333333333334</ele><time>2026-05-02T13:01:35Z</time></trkpt><trkpt lat="41.19180638084681" lon="14.594193698129931"><ele>595.0</ele><time>2026-05-02T13:01:36Z</time></trkpt><trkpt lat="41.1918163493365" lon="14.594404082372654"><ele>598.3333333333334</ele><time>2026-05-02T13:01:37.001Z</time></trkpt><trkpt lat="41.1918288624212" lon="14.594628767445139"><ele>601.6666666666666</ele><time>2026-05-02T13:01:38.001Z</time></trkpt><trkpt lat="41.191862766735376" lon="14.594877577188097"><ele>605.0</ele><time>2026-05-02T13:01:39.001Z</time></trkpt><trkpt lat="41.19189375327065" lon="14.595130144822914"><ele>607.0</ele><time>2026-05-02T13:01:40.001Z</time></trkpt><trkpt lat="41.19191938706349" lon="14.595387143557788"><ele>609.0</ele><time>2026-05-02T13:01:41.001Z</time></trkpt><trkpt lat="41.19194020241797" lon="14.595635988554598"><ele>611.0</ele><time>2026-05-02T13:01:42.001Z</time></trkpt><trkpt lat="41.191952242191974" lon="14.595890005510219"><ele>611.0</ele><time>2026-05-02T13:01:43.001Z</time></trkpt><trkpt lat="41.19195637269892" lon="14.596146445758562"><ele>611.0</ele><time>2026-05-02T13:01:44.001Z</time></trkpt><trkpt lat="41.191954402947424" lon="14.596385664331601"><ele>611.0</ele><time>2026-05-02T13:01:45.001Z</time></trkpt><trkpt lat="41.19194636656003" lon="14.59657631594417"><ele>613.2</ele><time>2026-05-02T13:01:46.001Z</time></trkpt><trkpt lat="41.19193507118376" lon="14.596756036719459"><ele>615.4000000000001</ele><time>2026-05-02T13:01:47.001Z</time></trkpt><trkpt lat="41.191920635588616" lon="14.596913658284349"><ele>617.6</ele><time>2026-05-02T13:01:48.001Z</time></trkpt><trkpt lat="41.19190235442567" lon="14.597041949418106"><ele>619.8000000000001</ele><time>2026-05-02T13:01:49.001Z</time></trkpt><trkpt lat="41.19187306772389" lon="14.597148235447975"><ele>622.0</ele><time>2026-05-02T13:01:50.001Z</time></trkpt><trkpt lat="41.19180502434097" lon="14.597249524683232"><ele>625.75</ele><time>2026-05-02T13:01:51.001Z</time></trkpt><trkpt lat="41.19171488910447" lon="14.597304863593907"><ele>629.5</ele><time>2026-05-02T13:01:52.001Z</time></trkpt><trkpt lat="41.191598312630866" lon="14.597320513380105"><ele>633.25</ele><time>2026-05-02T13:01:53.001Z</time></trkpt><trkpt lat="41.19145755981416" lon="14.597302736574047"><ele>637.0</ele><time>2026-05-02T13:01:54.001Z</time></trkpt><trkpt lat="41.19131344255202" lon="14.597311925253342"><ele>637.0</ele><time>2026-05-02T13:01:55.001Z</time></trkpt><trkpt lat="41.19117906321953" lon="14.597361085995054"><ele>637.0</ele><time>2026-05-02T13:01:56.001Z</time></trkpt><trkpt lat="41.1910410467994" lon="14.597457008281106"><ele>637.0</ele><time>2026-05-02T13:01:57.001Z</time></trkpt><trkpt lat="41.19090394982606" lon="14.597584348129743"><ele>637.0</ele><time>2026-05-02T13:01:58.001Z</time></trkpt><trkpt lat="41.19076800849284" lon="14.597706354064652"><ele>637.0</ele><time>2026-05-02T13:01:59.001Z</time></trkpt><trkpt lat="41.19063599724595" lon="14.597824942929906"><ele>637.0</ele><time>2026-05-02T13:02:00.001Z</time></trkpt><trkpt lat="41.19051511885529" lon="14.59796168989242"><ele>642.6666666666667</ele><time>2026-05-02T13:02:01.001Z</time></trkpt><trkpt lat="41.1904012621235" lon="14.598146770081653"><ele>648.3333333333334</ele><time>2026-05-02T13:02:02.001Z</time></trkpt><trkpt lat="41.19031351449923" lon="14.598343101686465"><ele>654.0</ele><time>2026-05-02T13:02:03.001Z</time></trkpt><trkpt lat="41.1902300564346" lon="14.598537511120238"><ele>654.6666666666666</ele><time>2026-05-02T13:02:04.001Z</time></trkpt><trkpt lat="41.19014149115602" lon="14.598727332086355"><ele>655.3333333333333</ele><time>2026-05-02T13:02:05.001Z</time></trkpt><trkpt lat="41.19003431903337" lon="14.598912071322223"><ele>656.0</ele><time>2026-05-02T13:02:06.001Z</time></trkpt><trkpt lat="41.18992888059393" lon="14.599089478899543"><ele>658.0</ele><time>2026-05-02T13:02:07.001Z</time></trkpt><trkpt lat="41.1898277052465" lon="14.59925531379656"><ele>660.0</ele><time>2026-05-02T13:02:08.001Z</time></trkpt><trkpt lat="41.1897223124425" lon="14.599392059055965"><ele>662.0</ele><time>2026-05-02T13:02:09.001Z</time></trkpt><trkpt lat="41.189629244766515" lon="14.599556635512236"><ele>662.0</ele><time>2026-05-02T13:02:10.001Z</time></trkpt><trkpt lat="41.18955397176042" lon="14.599743993187424"><ele>662.0</ele><time>2026-05-02T13:02:11.001Z</time></trkpt><trkpt lat="41.189488348020085" lon="14.599952734307177"><ele>662.0</ele><time>2026-05-02T13:02:12.001Z</time></trkpt><trkpt lat="41.18942523523106" lon="14.600167122931978"><ele>663.3333333333333</ele><time>2026-05-02T13:02:13.001Z</time></trkpt><trkpt lat="41.18937257857288" lon="14.600379348276853"><ele>664.6666666666666</ele><time>2026-05-02T13:02:14.001Z</time></trkpt><trkpt lat="41.189339524663545" lon="14.600609353548736"><ele>666.0</ele><time>2026-05-02T13:02:15.001Z</time></trkpt><trkpt lat="41.18932201871528" lon="14.600854289785216"><ele>666.0</ele><time>2026-05-02T13:02:16.001Z</time></trkpt><trkpt lat="41.18932182511279" lon="14.601111654745987"><ele>666.0</ele><time>2026-05-02T13:02:17.001Z</time></trkpt><trkpt lat="41.18932899272995" lon="14.601361224730127"><ele>666.0</ele><time>2026-05-02T13:02:18.001Z</time></trkpt><trkpt lat="41.18932649699319" lon="14.601580736860399"><ele>667.25</ele><time>2026-05-02T13:02:19.001Z</time></trkpt><trkpt lat="41.189323431823624" lon="14.601777819146342"><ele>668.5</ele><time>2026-05-02T13:02:20.001Z</time></trkpt><trkpt lat="41.18931848075324" lon="14.601956328267361"><ele>669.75</ele><time>2026-05-02T13:02:21.001Z</time></trkpt><trkpt lat="41.189315604457555" lon="14.602128984809783"><ele>671.0</ele><time>2026-05-02T13:02:22.001Z</time></trkpt><trkpt lat="41.18930046909593" lon="14.602292488983863"><ele>672.25</ele><time>2026-05-02T13:02:23.001Z</time></trkpt><trkpt lat="41.18927283985446" lon="14.60246731610828"><ele>673.5</ele><time>2026-05-02T13:02:24.001Z</time></trkpt><trkpt lat="41.18923496465036" lon="14.602648858184027"><ele>674.75</ele><time>2026-05-02T13:02:25.001Z</time></trkpt><trkpt lat="41.18918578773826" lon="14.602841219227914"><ele>676.0</ele><time>2026-05-02T13:02:26.001Z</time></trkpt><trkpt lat="41.18913607818287" lon="14.60302159506535"><ele>676.0</ele><time>2026-05-02T13:02:27.001Z</time></trkpt><trkpt lat="41.189085743839364" lon="14.603188887020902"><ele>676.0</ele><time>2026-05-02T13:02:28.001Z</time></trkpt><trkpt lat="41.18903509364991" lon="14.60335318564471"><ele>676.0</ele><time>2026-05-02T13:02:29.001Z</time></trkpt><trkpt lat="41.188971343048706" lon="14.603519186518755"><ele>676.0</ele><time>2026-05-02T13:02:30.001Z</time></trkpt><trkpt lat="41.1888971460185" lon="14.603675169191213"><ele>678.5</ele><time>2026-05-02T13:02:31.001Z</time></trkpt><trkpt lat="41.1888271281884" lon="14.60382569323988"><ele>681.0</ele><time>2026-05-02T13:02:32.001Z</time></trkpt><trkpt lat="41.188778399580784" lon="14.603997675925395"><ele>683.5</ele><time>2026-05-02T13:02:33.001Z</time></trkpt><trkpt lat="41.188748244034365" lon="14.604215610956004"><ele>686.0</ele><time>2026-05-02T13:02:34.001Z</time></trkpt><trkpt lat="41.18872755824473" lon="14.60445261378163"><ele>683.6666666666666</ele><time>2026-05-02T13:02:35.001Z</time></trkpt><trkpt lat="41.18871187314245" lon="14.604704481475279"><ele>681.3333333333334</ele><time>2026-05-02T13:02:36.001Z</time></trkpt><trkpt lat="41.18867995861544" lon="14.604966712499857"><ele>679.0</ele><time>2026-05-02T13:02:37.001Z</time></trkpt><trkpt lat="41.18861175919135" lon="14.605237006662595"><ele>677.0</ele><time>2026-05-02T13:02:38.001Z</time></trkpt><trkpt lat="41.188547954241" lon="14.605511536307933"><ele>675.0</ele><time>2026-05-02T13:02:39.001Z</time></trkpt><trkpt lat="41.18848369243457" lon="14.605788032081072"><ele>673.0</ele><time>2026-05-02T13:02:40.001Z</time></trkpt><trkpt lat="41.18842019866918" lon="14.606057731398778"><ele>671.3333333333334</ele><time>2026-05-02T13:02:41.001Z</time></trkpt><trkpt lat="41.18836099586535" lon="14.606305258596738"><ele>669.6666666666666</ele><time>2026-05-02T13:02:42.001Z</time></trkpt><trkpt lat="41.188307930434455" lon="14.606532936486394"><ele>668.0</ele><time>2026-05-02T13:02:43.001Z</time></trkpt><trkpt lat="41.18827612598294" lon="14.606750068141839"><ele>668.0</ele><time>2026-05-02T13:02:44.001Z</time></trkpt><trkpt lat="41.18821778082816" lon="14.606917990276974"><ele>668.0</ele><time>2026-05-02T13:02:45.001Z</time></trkpt><trkpt lat="41.18817149239818" lon="14.607068794285608"><ele>668.0</ele><time>2026-05-02T13:02:46.001Z</time></trkpt><trkpt lat="41.18811277321963" lon="14.607203752082151"><ele>668.0</ele><time>2026-05-02T13:02:47.001Z</time></trkpt><trkpt lat="41.18803696310007" lon="14.607324944228045"><ele>667.75</ele><time>2026-05-02T13:02:48.001Z</time></trkpt><trkpt lat="41.187946585032826" lon="14.607410304856156"><ele>667.5</ele><time>2026-05-02T13:02:49.001Z</time></trkpt><trkpt lat="41.187839677637875" lon="14.607464016162519"><ele>667.25</ele><time>2026-05-02T13:02:50.001Z</time></trkpt><trkpt lat="41.18772699723997" lon="14.607484424939182"><ele>667.0</ele><time>2026-05-02T13:02:51.002Z</time></trkpt><trkpt lat="41.18760413573283" lon="14.607475827142881"><ele>667.0</ele><time>2026-05-02T13:02:52.002Z</time></trkpt><trkpt lat="41.18748295385202" lon="14.60743522045475"><ele>667.0</ele><time>2026-05-02T13:02:53.002Z</time></trkpt><trkpt lat="41.187361781300304" lon="14.607396708246617"><ele>667.0</ele><time>2026-05-02T13:02:54.002Z</time></trkpt><trkpt lat="41.187247736602295" lon="14.607381522530572"><ele>667.0</ele><time>2026-05-02T13:02:55.002Z</time></trkpt><trkpt lat="41.18714521977411" lon="14.607411300076336"><ele>669.5</ele><time>2026-05-02T13:02:56.002Z</time></trkpt><trkpt lat="41.1870520610834" lon="14.60749047840205"><ele>672.0</ele><time>2026-05-02T13:02:57.002Z</time></trkpt><trkpt lat="41.186945579481026" lon="14.6075668132177"><ele>674.5</ele><time>2026-05-02T13:02:58.002Z</time></trkpt><trkpt lat="41.18683333446134" lon="14.60768682548998"><ele>677.0</ele><time>2026-05-02T13:02:59Z</time></trkpt><trkpt lat="41.186721102610875" lon="14.607815605037802"><ele>675.25</ele><time>2026-05-02T13:03:00Z</time></trkpt><trkpt lat="41.186605398398235" lon="14.607919512519382"><ele>673.5</ele><time>2026-05-02T13:03:01Z</time></trkpt><trkpt lat="41.18652985321642" lon="14.608080227669458"><ele>671.75</ele><time>2026-05-02T13:03:02Z</time></trkpt><trkpt lat="41.186460383568715" lon="14.608258647566393"><ele>670.0</ele><time>2026-05-02T13:03:03Z</time></trkpt><trkpt lat="41.18641233406827" lon="14.608467551899672"><ele>682.3333333333334</ele><time>2026-05-02T13:03:04Z</time></trkpt><trkpt lat="41.186379878968594" lon="14.608687519684427"><ele>694.6666666666666</ele><time>2026-05-02T13:03:05Z</time></trkpt><trkpt lat="41.18635005791913" lon="14.608910765653594"><ele>707.0</ele><time>2026-05-02T13:03:06Z</time></trkpt><trkpt lat="41.18631350239888" lon="14.609134594621286"><ele>707.0</ele><time>2026-05-02T13:03:07Z</time></trkpt><trkpt lat="41.18626545963611" lon="14.60935702980332"><ele>707.0</ele><time>2026-05-02T13:03:08Z</time></trkpt><trkpt lat="41.1862044596708" lon="14.609585445855608"><ele>707.0</ele><time>2026-05-02T13:03:09Z</time></trkpt><trkpt lat="41.186130461124556" lon="14.609814693219981"><ele>706.6666666666666</ele><time>2026-05-02T13:03:10Z</time></trkpt><trkpt lat="41.18605578747878" lon="14.610036599834093"><ele>706.3333333333334</ele><time>2026-05-02T13:03:11Z</time></trkpt><trkpt lat="41.185982662409984" lon="14.610269721012653"><ele>706.0</ele><time>2026-05-02T13:03:12Z</time></trkpt><trkpt lat="41.185907937401126" lon="14.610493264635645"><ele>706.0</ele><time>2026-05-02T13:03:13Z</time></trkpt><trkpt lat="41.185836368401446" lon="14.610734825535342"><ele>706.0</ele><time>2026-05-02T13:03:14Z</time></trkpt><trkpt lat="41.185772695319024" lon="14.610970632576889"><ele>706.0</ele><time>2026-05-02T13:03:15Z</time></trkpt><trkpt lat="41.18569759963649" lon="14.61121540973006"><ele>717.0</ele><time>2026-05-02T13:03:16Z</time></trkpt><trkpt lat="41.18563769343059" lon="14.61147134922718"><ele>728.0</ele><time>2026-05-02T13:03:17Z</time></trkpt><trkpt lat="41.1855814223435" lon="14.61172704179623"><ele>739.0</ele><time>2026-05-02T13:03:18Z</time></trkpt><trkpt lat="41.18553377651783" lon="14.6119950698383"><ele>739.0</ele><time>2026-05-02T13:03:19Z</time></trkpt><trkpt lat="41.18549923426368" lon="14.612247508609034"><ele>739.0</ele><time>2026-05-02T13:03:20Z</time></trkpt><trkpt lat="41.185467028648546" lon="14.612501582270928"><ele>739.0</ele><time>2026-05-02T13:03:21Z</time></trkpt><trkpt lat="41.185427065562344" lon="14.612746559779923"><ele>738.6666666666667</ele><time>2026-05-02T13:03:22Z</time></trkpt><trkpt lat="41.18534566806396" lon="14.612962672932124"><ele>738.3333333333334</ele><time>2026-05-02T13:03:23Z</time></trkpt><trkpt lat="41.185262815421794" lon="14.613155271893593"><ele>738.0</ele><time>2026-05-02T13:03:24Z</time></trkpt><trkpt lat="41.18521310580361" lon="14.613339357064168"><ele>738.0</ele><time>2026-05-02T13:03:25Z</time></trkpt><trkpt lat="41.18517858866293" lon="14.613549444076256"><ele>738.0</ele><time>2026-05-02T13:03:26Z</time></trkpt><trkpt lat="41.185167562993065" lon="14.613776026410752"><ele>738.0</ele><time>2026-05-02T13:03:27Z</time></trkpt><trkpt lat="41.185168152814505" lon="14.614012983105173"><ele>739.6666666666666</ele><time>2026-05-02T13:03:28Z</time></trkpt><trkpt lat="41.18517832226148" lon="14.614253911353396"><ele>741.3333333333333</ele><time>2026-05-02T13:03:29Z</time></trkpt><trkpt lat="41.18519298952981" lon="14.614493006196755"><ele>743.0</ele><time>2026-05-02T13:03:30Z</time></trkpt><trkpt lat="41.18520129712768" lon="14.614729159863321"><ele>746.6666666666666</ele><time>2026-05-02T13:03:31Z</time></trkpt><trkpt lat="41.18519809861172" lon="14.614975847896272"><ele>750.3333333333334</ele><time>2026-05-02T13:03:32Z</time></trkpt><trkpt lat="41.185185948590764" lon="14.615217283570352"><ele>754.0</ele><time>2026-05-02T13:03:33Z</time></trkpt><trkpt lat="41.185167755420046" lon="14.615432915046062"><ele>757.0</ele><time>2026-05-02T13:03:34Z</time></trkpt><trkpt lat="41.18514189715625" lon="14.615628311310223"><ele>760.0</ele><time>2026-05-02T13:03:35Z</time></trkpt><trkpt lat="41.18510844945469" lon="14.615835078327807"><ele>763.0</ele><time>2026-05-02T13:03:36Z</time></trkpt><trkpt lat="41.185038054504346" lon="14.616025607261948"><ele>759.75</ele><time>2026-05-02T13:03:37Z</time></trkpt><trkpt lat="41.18498257488092" lon="14.616212938867424"><ele>756.5</ele><time>2026-05-02T13:03:38Z</time></trkpt><trkpt lat="41.18488771328767" lon="14.616344842342636"><ele>753.25</ele><time>2026-05-02T13:03:39Z</time></trkpt><trkpt lat="41.18478599478069" lon="14.616480772145364"><ele>750.0</ele><time>2026-05-02T13:03:40Z</time></trkpt><trkpt lat="41.18467886831939" lon="14.616618518609897"><ele>762.0</ele><time>2026-05-02T13:03:41Z</time></trkpt><trkpt lat="41.184558938828516" lon="14.616748850360448"><ele>774.0</ele><time>2026-05-02T13:03:42Z</time></trkpt><trkpt lat="41.18443047893284" lon="14.616862235596491"><ele>786.0</ele><time>2026-05-02T13:03:43Z</time></trkpt><trkpt lat="41.184288577750564" lon="14.616958439213379"><ele>788.3333333333333</ele><time>2026-05-02T13:03:44Z</time></trkpt><trkpt lat="41.184143218552315" lon="14.61705927541408"><ele>790.6666666666666</ele><time>2026-05-02T13:03:45.001Z</time></trkpt><trkpt lat="41.18398643820652" lon="14.617143970662969"><ele>793.0</ele><time>2026-05-02T13:03:46.001Z</time></trkpt><trkpt lat="41.1838288289533" lon="14.617229646524002"><ele>793.0</ele><time>2026-05-02T13:03:47.001Z</time></trkpt><trkpt lat="41.18367806821099" lon="14.617306051949637"><ele>793.0</ele><time>2026-05-02T13:03:48.001Z</time></trkpt><trkpt lat="41.183549699254236" lon="14.61736847668388"><ele>793.0</ele><time>2026-05-02T13:03:49.001Z</time></trkpt><trkpt lat="41.183432778998665" lon="14.61741818160751"><ele>793.0</ele><time>2026-05-02T13:03:50.001Z</time></trkpt><trkpt lat="41.183313432615996" lon="14.617446240480145"><ele>793.0</ele><time>2026-05-02T13:03:51.001Z</time></trkpt><trkpt lat="41.18319620713107" lon="14.617445566728165"><ele>793.0</ele><time>2026-05-02T13:03:52.001Z</time></trkpt><trkpt lat="41.18309219033898" lon="14.617454825802744"><ele>793.0</ele><time>2026-05-02T13:03:53.001Z</time></trkpt><trkpt lat="41.18300659976801" lon="14.617499198466582"><ele>793.0</ele><time>2026-05-02T13:03:54.001Z</time></trkpt><trkpt lat="41.18294557666286" lon="14.617556343570138"><ele>793.0</ele><time>2026-05-02T13:03:55.001Z</time></trkpt><trkpt lat="41.18289382853607" lon="14.617638010458794"><ele>796.9999999999999</ele><time>2026-05-02T13:03:56.001Z</time></trkpt><trkpt lat="41.182862400814685" lon="14.61773731332943"><ele>801.0</ele><time>2026-05-02T13:03:57.001Z</time></trkpt><trkpt lat="41.182851934730905" lon="14.617852058124699"><ele>805.0</ele><time>2026-05-02T13:03:58.001Z</time></trkpt><trkpt lat="41.182853801856275" lon="14.617970494741424"><ele>809.0</ele><time>2026-05-02T13:03:59.001Z</time></trkpt><trkpt lat="41.18287181782329" lon="14.618090805214836"><ele>812.9999999999999</ele><time>2026-05-02T13:04:00.001Z</time></trkpt><trkpt lat="41.18289534035176" lon="14.618206347006922"><ele>817.0</ele><time>2026-05-02T13:04:01.001Z</time></trkpt><trkpt lat="41.18291620242616" lon="14.618327902570085"><ele>816.9999999999999</ele><time>2026-05-02T13:04:02.001Z</time></trkpt><trkpt lat="41.18293559523353" lon="14.61844833354142"><ele>817.0</ele><time>2026-05-02T13:04:03.013Z</time></trkpt><trkpt lat="41.182955055493615" lon="14.618569441149486"><ele>817.0</ele><time>2026-05-02T13:04:04.02Z</time></trkpt><trkpt lat="41.18297107889463" lon="14.618689930517508"><ele>817.0</ele><time>2026-05-02T13:04:05.016Z</time></trkpt><trkpt lat="41.182981295062376" lon="14.618789012482983"><ele>816.9999999999999</ele><time>2026-05-02T13:04:06.001Z</time></trkpt><trkpt lat="41.18298138241955" lon="14.6188878856114"><ele>817.0</ele><time>2026-05-02T13:04:07.001Z</time></trkpt><trkpt lat="41.18297798849705" lon="14.61898162590495"><ele>818.2</ele><time>2026-05-02T13:04:08.001Z</time></trkpt><trkpt lat="41.182973799248316" lon="14.619101100888843"><ele>819.4000000000001</ele><time>2026-05-02T13:04:10.001Z</time></trkpt><trkpt lat="41.18288132090823" lon="14.618998501515406"><ele>820.5999999999999</ele><time>2026-05-02T13:04:16.001Z</time></trkpt><trkpt lat="41.182902744617124" lon="14.618912895651862"><ele>821.8</ele><time>2026-05-02T13:04:17.001Z</time></trkpt><trkpt lat="41.18286378184081" lon="14.618762099439298"><ele>823.0</ele><time>2026-05-02T13:04:19.001Z</time></trkpt><trkpt lat="41.182831540373506" lon="14.618665226906144"><ele>821.9999999999999</ele><time>2026-05-02T13:04:20.001Z</time></trkpt><trkpt lat="41.182813669229176" lon="14.618565012987084"><ele>821.0</ele><time>2026-05-02T13:04:21.001Z</time></trkpt><trkpt lat="41.182786638721694" lon="14.618481552893453"><ele>820.0</ele><time>2026-05-02T13:04:22.001Z</time></trkpt><trkpt lat="41.182746439117494" lon="14.61840079226874"><ele>819.0</ele><time>2026-05-02T13:04:23.001Z</time></trkpt><trkpt lat="41.1826951476065" lon="14.618303176480596"><ele>817.9999999999999</ele><time>2026-05-02T13:04:24.001Z</time></trkpt><trkpt lat="41.18264526961303" lon="14.618215459249381"><ele>817.0</ele><time>2026-05-02T13:04:25.001Z</time></trkpt><trkpt lat="41.18259097531625" lon="14.618128965850566"><ele>817.0</ele><time>2026-05-02T13:04:26.001Z</time></trkpt><trkpt lat="41.1825331827429" lon="14.618040570426002"><ele>817.0</ele><time>2026-05-02T13:04:27.001Z</time></trkpt><trkpt lat="41.18248384133455" lon="14.617928161786462"><ele>817.0</ele><time>2026-05-02T13:04:28.001Z</time></trkpt><trkpt lat="41.182450945292985" lon="14.617798768837934"><ele>817.0</ele><time>2026-05-02T13:04:29.001Z</time></trkpt><trkpt lat="41.18244630089423" lon="14.617647305095213"><ele>817.0</ele><time>2026-05-02T13:04:30.001Z</time></trkpt><trkpt lat="41.182459840410274" lon="14.617502619258547"><ele>818.2</ele><time>2026-05-02T13:04:31.001Z</time></trkpt><trkpt lat="41.18248305709719" lon="14.617349474052062"><ele>819.4000000000001</ele><time>2026-05-02T13:04:32.001Z</time></trkpt><trkpt lat="41.182512040571744" lon="14.617192133812672"><ele>820.5999999999999</ele><time>2026-05-02T13:04:33.001Z</time></trkpt><trkpt lat="41.18254112949825" lon="14.61705504632406"><ele>821.8</ele><time>2026-05-02T13:04:34.001Z</time></trkpt><trkpt lat="41.18256616953682" lon="14.616944473614664"><ele>823.0</ele><time>2026-05-02T13:04:35.001Z</time></trkpt><trkpt lat="41.18259998255796" lon="14.616849520756753"><ele>825.3333333333333</ele><time>2026-05-02T13:04:36.001Z</time></trkpt><trkpt lat="41.18265933790921" lon="14.616764133798767"><ele>827.6666666666666</ele><time>2026-05-02T13:04:37.001Z</time></trkpt><trkpt lat="41.1827231792026" lon="14.616740480331748"><ele>830.0</ele><time>2026-05-02T13:04:38.001Z</time></trkpt><trkpt lat="41.182797061084564" lon="14.616751793533034"><ele>832.3333333333333</ele><time>2026-05-02T13:04:39.001Z</time></trkpt><trkpt lat="41.182894966649215" lon="14.616798491638287"><ele>834.6666666666666</ele><time>2026-05-02T13:04:40.001Z</time></trkpt><trkpt lat="41.1829816682061" lon="14.616848085138727"><ele>837.0</ele><time>2026-05-02T13:04:41.001Z</time></trkpt><trkpt lat="41.183079123124244" lon="14.616851170021285"><ele>837.0</ele><time>2026-05-02T13:04:42.001Z</time></trkpt><trkpt lat="41.183155954364096" lon="14.616806343842459"><ele>837.0</ele><time>2026-05-02T13:04:43.001Z</time></trkpt><trkpt lat="41.18321547603384" lon="14.61672653013725"><ele>837.0</ele><time>2026-05-02T13:04:44.001Z</time></trkpt><trkpt lat="41.18327678757367" lon="14.616606494914011"><ele>837.0</ele><time>2026-05-02T13:04:45.001Z</time></trkpt><trkpt lat="41.183356888719004" lon="14.61646891890092"><ele>837.0</ele><time>2026-05-02T13:04:46.001Z</time></trkpt><trkpt lat="41.183415370796446" lon="14.616309549732323"><ele>836.0</ele><time>2026-05-02T13:04:47.001Z</time></trkpt><trkpt lat="41.183475821916296" lon="14.616173001990564"><ele>835.0</ele><time>2026-05-02T13:04:48.001Z</time></trkpt><trkpt lat="41.18349626814722" lon="14.616039129035872"><ele>834.0</ele><time>2026-05-02T13:04:49.001Z</time></trkpt><trkpt lat="41.18349563378896" lon="14.615893726506108"><ele>833.0</ele><time>2026-05-02T13:04:50.001Z</time></trkpt><trkpt lat="41.1834625826359" lon="14.61574166828713"><ele>833.0</ele><time>2026-05-02T13:04:51.001Z</time></trkpt><trkpt lat="41.183411671674286" lon="14.615593886176143"><ele>833.0</ele><time>2026-05-02T13:04:52.001Z</time></trkpt><trkpt lat="41.183322073997246" lon="14.615484911103472"><ele>833.0</ele><time>2026-05-02T13:04:53.001Z</time></trkpt><trkpt lat="41.18322173768544" lon="14.61539825798325"><ele>833.0</ele><time>2026-05-02T13:04:54.001Z</time></trkpt><trkpt lat="41.183111731636814" lon="14.615349448349473"><ele>836.4</ele><time>2026-05-02T13:04:55.001Z</time></trkpt><trkpt lat="41.18299736407954" lon="14.615343957027646"><ele>839.8</ele><time>2026-05-02T13:04:56.001Z</time></trkpt><trkpt lat="41.182867792955925" lon="14.615372077504054"><ele>843.2</ele><time>2026-05-02T13:04:57.001Z</time></trkpt><trkpt lat="41.18276254179035" lon="14.615430954769353"><ele>846.6</ele><time>2026-05-02T13:04:58.001Z</time></trkpt><trkpt lat="41.18269410287932" lon="14.615492596620545"><ele>850.0</ele><time>2026-05-02T13:04:59.002Z</time></trkpt><trkpt lat="41.18261693591678" lon="14.615516762387896"><ele>850.0</ele><time>2026-05-02T13:05:00.002Z</time></trkpt><trkpt lat="41.182543659695696" lon="14.615493842442612"><ele>850.0</ele><time>2026-05-02T13:05:01.002Z</time></trkpt><trkpt lat="41.182465838025934" lon="14.615434953710487"><ele>850.0</ele><time>2026-05-02T13:05:02.002Z</time></trkpt><trkpt lat="41.18238312466018" lon="14.615349597723018"><ele>850.0</ele><time>2026-05-02T13:05:03.002Z</time></trkpt><trkpt lat="41.18229702381149" lon="14.615246799676953"><ele>850.0</ele><time>2026-05-02T13:05:04.002Z</time></trkpt><trkpt lat="41.18220616741541" lon="14.615133940542462"><ele>855.1666666666666</ele><time>2026-05-02T13:05:05Z</time></trkpt><trkpt lat="41.18211882885653" lon="14.615038874758547"><ele>860.3333333333333</ele><time>2026-05-02T13:05:06Z</time></trkpt><trkpt lat="41.18204660363325" lon="14.61496101536313"><ele>865.5</ele><time>2026-05-02T13:05:07Z</time></trkpt><trkpt lat="41.18199316087456" lon="14.614890414660415"><ele>870.6666666666667</ele><time>2026-05-02T13:05:08Z</time></trkpt><trkpt lat="41.18195594708848" lon="14.614817346604202"><ele>875.8333333333334</ele><time>2026-05-02T13:05:09Z</time></trkpt><trkpt lat="41.181934494320046" lon="14.614700862460035"><ele>881.0</ele><time>2026-05-02T13:05:10Z</time></trkpt><trkpt lat="41.18194512508808" lon="14.614564053855974"><ele>883.0</ele><time>2026-05-02T13:05:11Z</time></trkpt><trkpt lat="41.18197995696014" lon="14.614421772245999"><ele>885.0</ele><time>2026-05-02T13:05:12Z</time></trkpt><trkpt lat="41.18203583099537" lon="14.614260469937056"><ele>887.0</ele><time>2026-05-02T13:05:13Z</time></trkpt><trkpt lat="41.18206828789368" lon="14.614079944752268"><ele>889.0</ele><time>2026-05-02T13:05:14Z</time></trkpt><trkpt lat="41.182098270828455" lon="14.613903282351428"><ele>889.0</ele><time>2026-05-02T13:05:15Z</time></trkpt><trkpt lat="41.18209813195199" lon="14.613741620700544"><ele>889.0</ele><time>2026-05-02T13:05:16Z</time></trkpt><trkpt lat="41.182096655655585" lon="14.613561652584"><ele>889.0</ele><time>2026-05-02T13:05:17Z</time></trkpt><trkpt lat="41.182077427699774" lon="14.613384746823266"><ele>889.0</ele><time>2026-05-02T13:05:18Z</time></trkpt><trkpt lat="41.18201845595428" lon="14.613228494205297"><ele>889.4000000000001</ele><time>2026-05-02T13:05:19Z</time></trkpt><trkpt lat="41.18194309258718" lon="14.613081932441563"><ele>889.8000000000001</ele><time>2026-05-02T13:05:20Z</time></trkpt><trkpt lat="41.181875861119245" lon="14.612950029273964"><ele>890.1999999999999</ele><time>2026-05-02T13:05:21Z</time></trkpt><trkpt lat="41.18181795537896" lon="14.612857280572685"><ele>890.5999999999999</ele><time>2026-05-02T13:05:22Z</time></trkpt><trkpt lat="41.181784299495845" lon="14.6127723842896"><ele>891.0</ele><time>2026-05-02T13:05:23Z</time></trkpt><trkpt lat="41.18184261530254" lon="14.612562322951952"><ele>892.0</ele><time>2026-05-02T13:05:25Z</time></trkpt><trkpt lat="41.181921541140866" lon="14.612470040043377"><ele>893.0</ele><time>2026-05-02T13:05:26Z</time></trkpt><trkpt lat="41.1820078702173" lon="14.612347784359605"><ele>894.0</ele><time>2026-05-02T13:05:27Z</time></trkpt><trkpt lat="41.18208755241512" lon="14.612232753360383"><ele>895.0</ele><time>2026-05-02T13:05:28Z</time></trkpt><trkpt lat="41.18214020210585" lon="14.612092307653006"><ele>898.25</ele><time>2026-05-02T13:05:29Z</time></trkpt><trkpt lat="41.18217337321895" lon="14.611928913728892"><ele>901.5</ele><time>2026-05-02T13:05:30Z</time></trkpt><trkpt lat="41.18217171726258" lon="14.61175401497684"><ele>904.75</ele><time>2026-05-02T13:05:31Z</time></trkpt><trkpt lat="41.182140402256195" lon="14.61159518742326"><ele>908.0</ele><time>2026-05-02T13:05:32Z</time></trkpt><trkpt lat="41.182093719488634" lon="14.611431052820361"><ele>908.0</ele><time>2026-05-02T13:05:33Z</time></trkpt><trkpt lat="41.18203854536786" lon="14.611294928386178"><ele>908.0</ele><time>2026-05-02T13:05:34Z</time></trkpt><trkpt lat="41.18195790064719" lon="14.611171819397182"><ele>908.0</ele><time>2026-05-02T13:05:35Z</time></trkpt><trkpt lat="41.18189607467594" lon="14.611059929963215"><ele>908.0</ele><time>2026-05-02T13:05:36Z</time></trkpt><trkpt lat="41.181858338133694" lon="14.610876454075202"><ele>908.75</ele><time>2026-05-02T13:05:37Z</time></trkpt><trkpt lat="41.18185952101564" lon="14.61071299959992"><ele>909.5</ele><time>2026-05-02T13:05:38Z</time></trkpt><trkpt lat="41.18186447875928" lon="14.61052697135891"><ele>910.25</ele><time>2026-05-02T13:05:39Z</time></trkpt><trkpt lat="41.181901331093364" lon="14.61035001630385"><ele>911.0</ele><time>2026-05-02T13:05:40Z</time></trkpt><trkpt lat="41.18193804215176" lon="14.610192495263872"><ele>915.25</ele><time>2026-05-02T13:05:41Z</time></trkpt><trkpt lat="41.1820192540888" lon="14.61004522631632"><ele>919.5</ele><time>2026-05-02T13:05:42Z</time></trkpt><trkpt lat="41.18206902026031" lon="14.609903258499221"><ele>923.75</ele><time>2026-05-02T13:05:43Z</time></trkpt><trkpt lat="41.18212004095939" lon="14.60971979978402"><ele>928.0</ele><time>2026-05-02T13:05:44Z</time></trkpt><trkpt lat="41.18216094170794" lon="14.60950073945566"><ele>932.6666666666666</ele><time>2026-05-02T13:05:45Z</time></trkpt><trkpt lat="41.18218299182656" lon="14.609312777116303"><ele>937.3333333333333</ele><time>2026-05-02T13:05:46Z</time></trkpt><trkpt lat="41.182228570929595" lon="14.609099295318247"><ele>942.0</ele><time>2026-05-02T13:05:47Z</time></trkpt><trkpt lat="41.18227785039163" lon="14.608877079563738"><ele>946.3333333333333</ele><time>2026-05-02T13:05:48Z</time></trkpt><trkpt lat="41.18230549210344" lon="14.608653702885917"><ele>950.6666666666666</ele><time>2026-05-02T13:05:49Z</time></trkpt><trkpt lat="41.182337385629324" lon="14.608423236397286"><ele>955.0</ele><time>2026-05-02T13:05:50Z</time></trkpt><trkpt lat="41.18237421682497" lon="14.608187018411517"><ele>941.3333333333333</ele><time>2026-05-02T13:05:51Z</time></trkpt><trkpt lat="41.18241173686661" lon="14.607974057967125"><ele>927.6666666666667</ele><time>2026-05-02T13:05:52Z</time></trkpt><trkpt lat="41.1824377661524" lon="14.60777758796428"><ele>914.0</ele><time>2026-05-02T13:05:53Z</time></trkpt><trkpt lat="41.182473615543174" lon="14.607593021097738"><ele>914.0</ele><time>2026-05-02T13:05:54Z</time></trkpt><trkpt lat="41.18249078838938" lon="14.607438940945762"><ele>914.0000000000001</ele><time>2026-05-02T13:05:55Z</time></trkpt><trkpt lat="41.182483138648884" lon="14.60728821633603"><ele>914.0000000000001</ele><time>2026-05-02T13:05:56Z</time></trkpt><trkpt lat="41.18247346335004" lon="14.60714757140432"><ele>914.0</ele><time>2026-05-02T13:05:57Z</time></trkpt><trkpt lat="41.18246208605282" lon="14.607041516386934"><ele>914.0</ele><time>2026-05-02T13:05:58Z</time></trkpt><trkpt lat="41.182418332293224" lon="14.60692286269643"><ele>913.0</ele><time>2026-05-02T13:05:59Z</time></trkpt><trkpt lat="41.18235153771334" lon="14.606806748208005"><ele>912.0</ele><time>2026-05-02T13:06:00Z</time></trkpt><trkpt lat="41.182246809332" lon="14.606677431617138"><ele>911.0</ele><time>2026-05-02T13:06:01Z</time></trkpt><trkpt lat="41.18217710449605" lon="14.606519069871684"><ele>910.0</ele><time>2026-05-02T13:06:02Z</time></trkpt><trkpt lat="41.18209326792482" lon="14.606369196358688"><ele>922.25</ele><time>2026-05-02T13:06:03Z</time></trkpt><trkpt lat="41.1820117154206" lon="14.606211657681845"><ele>934.5</ele><time>2026-05-02T13:06:04Z</time></trkpt><trkpt lat="41.181933555371906" lon="14.606074439622454"><ele>946.75</ele><time>2026-05-02T13:06:05Z</time></trkpt><trkpt lat="41.18187373307762" lon="14.605942089253897"><ele>959.0</ele><time>2026-05-02T13:06:06.001Z</time></trkpt><trkpt lat="41.18184673149295" lon="14.60581417861202"><ele>959.0</ele><time>2026-05-02T13:06:07.001Z</time></trkpt><trkpt lat="41.18184666836531" lon="14.605673911478815"><ele>959.0</ele><time>2026-05-02T13:06:08.001Z</time></trkpt><trkpt lat="41.18186866395001" lon="14.605514060650252"><ele>959.0</ele><time>2026-05-02T13:06:09.001Z</time></trkpt><trkpt lat="41.18188902508152" lon="14.605341929387102"><ele>959.0</ele><time>2026-05-02T13:06:10.001Z</time></trkpt><trkpt lat="41.18187590062973" lon="14.605154546437168"><ele>959.0</ele><time>2026-05-02T13:06:11.001Z</time></trkpt><trkpt lat="41.18184490231571" lon="14.604975627765375"><ele>959.0</ele><time>2026-05-02T13:06:12.001Z</time></trkpt><trkpt lat="41.18180117071949" lon="14.604773835456772"><ele>959.0</ele><time>2026-05-02T13:06:13.001Z</time></trkpt><trkpt lat="41.181761815894696" lon="14.604591039425001"><ele>959.0</ele><time>2026-05-02T13:06:14.001Z</time></trkpt><trkpt lat="41.1817259142387" lon="14.604423684163045"><ele>956.2</ele><time>2026-05-02T13:06:15.001Z</time></trkpt><trkpt lat="41.181665544319" lon="14.604285579602339"><ele>953.4000000000001</ele><time>2026-05-02T13:06:16.001Z</time></trkpt><trkpt lat="41.181570678495824" lon="14.604141710378489"><ele>950.6</ele><time>2026-05-02T13:06:17.001Z</time></trkpt><trkpt lat="41.18150791964675" lon="14.604070394405277"><ele>947.8</ele><time>2026-05-02T13:06:18.001Z</time></trkpt><trkpt lat="41.181448763359576" lon="14.604023543252069"><ele>945.0</ele><time>2026-05-02T13:06:19.001Z</time></trkpt><trkpt lat="41.181360961889375" lon="14.604008200815315"><ele>947.8</ele><time>2026-05-02T13:06:21.001Z</time></trkpt><trkpt lat="41.18131009191961" lon="14.604113359715805"><ele>950.6</ele><time>2026-05-02T13:06:23.001Z</time></trkpt><trkpt lat="41.181346179913696" lon="14.604199487066774"><ele>953.4000000000001</ele><time>2026-05-02T13:06:24.001Z</time></trkpt><trkpt lat="41.1813944421142" lon="14.604287979959096"><ele>956.2</ele><time>2026-05-02T13:06:25.001Z</time></trkpt><trkpt lat="41.181468469837846" lon="14.604389047667345"><ele>959.0</ele><time>2026-05-02T13:06:26.001Z</time></trkpt><trkpt lat="41.18151594726249" lon="14.604509975437448"><ele>959.0</ele><time>2026-05-02T13:06:27.001Z</time></trkpt><trkpt lat="41.18153343545234" lon="14.604651371027652"><ele>959.0</ele><time>2026-05-02T13:06:28.001Z</time></trkpt><trkpt lat="41.18153559380314" lon="14.604820714824475"><ele>959.0</ele><time>2026-05-02T13:06:29.001Z</time></trkpt><trkpt lat="41.18153112736532" lon="14.604987216217792"><ele>959.0</ele><time>2026-05-02T13:06:30.001Z</time></trkpt><trkpt lat="41.18152484457371" lon="14.605165540442995"><ele>973.25</ele><time>2026-05-02T13:06:31.001Z</time></trkpt><trkpt lat="41.18150309868987" lon="14.605330960539888"><ele>987.5</ele><time>2026-05-02T13:06:32.001Z</time></trkpt><trkpt lat="41.18142908807523" lon="14.605463835752172"><ele>1001.75</ele><time>2026-05-02T13:06:33.001Z</time></trkpt><trkpt lat="41.18135529957321" lon="14.60560278971564"><ele>1016.0</ele><time>2026-05-02T13:06:34.001Z</time></trkpt><trkpt lat="41.181296629832744" lon="14.60573878192844"><ele>1016.0</ele><time>2026-05-02T13:06:35.001Z</time></trkpt><trkpt lat="41.18128673670316" lon="14.605889691841863"><ele>1016.0</ele><time>2026-05-02T13:06:36.001Z</time></trkpt><trkpt lat="41.181295718878076" lon="14.60605026436844"><ele>1016.0</ele><time>2026-05-02T13:06:37.001Z</time></trkpt><trkpt lat="41.18130953014866" lon="14.60622710719684"><ele>1016.0</ele><time>2026-05-02T13:06:38.001Z</time></trkpt><trkpt lat="41.181340961639705" lon="14.606421429048389"><ele>1018.6666666666667</ele><time>2026-05-02T13:06:39.001Z</time></trkpt><trkpt lat="41.18136545673658" lon="14.606625435421908"><ele>1021.3333333333333</ele><time>2026-05-02T13:06:40.001Z</time></trkpt><trkpt lat="41.181393196554176" lon="14.606833363732132"><ele>1024.0</ele><time>2026-05-02T13:06:41.001Z</time></trkpt><trkpt lat="41.181400236132795" lon="14.607045487686388"><ele>1024.0</ele><time>2026-05-02T13:06:42.001Z</time></trkpt><trkpt lat="41.181394430834615" lon="14.607214004436575"><ele>1024.0</ele><time>2026-05-02T13:06:43.001Z</time></trkpt><trkpt lat="41.18138360522975" lon="14.607381562527383"><ele>1024.0</ele><time>2026-05-02T13:06:44.001Z</time></trkpt><trkpt lat="41.18136183775684" lon="14.607512274430928"><ele>1024.0</ele><time>2026-05-02T13:06:45.001Z</time></trkpt><trkpt lat="41.18131850126268" lon="14.607664609213272"><ele>1024.0</ele><time>2026-05-02T13:06:46.001Z</time></trkpt><trkpt lat="41.18125214617767" lon="14.607785935941463"><ele>1024.0</ele><time>2026-05-02T13:06:47.001Z</time></trkpt><trkpt lat="41.18116881601613" lon="14.607933612762384"><ele>1024.0</ele><time>2026-05-02T13:06:48.001Z</time></trkpt><trkpt lat="41.18108785856251" lon="14.60810646649135"><ele>1024.0</ele><time>2026-05-02T13:06:49.001Z</time></trkpt><trkpt lat="41.18098735297381" lon="14.608278852140163"><ele>1017.3333333333333</ele><time>2026-05-02T13:06:50.001Z</time></trkpt><trkpt lat="41.18087332338543" lon="14.608437059190644"><ele>1010.6666666666667</ele><time>2026-05-02T13:06:51.001Z</time></trkpt><trkpt lat="41.18076814434789" lon="14.60861034786604"><ele>1004.0</ele><time>2026-05-02T13:06:52.001Z</time></trkpt><trkpt lat="41.180667301890125" lon="14.608776883891839"><ele>1017.6666666666667</ele><time>2026-05-02T13:06:53.001Z</time></trkpt><trkpt lat="41.18055596343279" lon="14.608969829434171"><ele>1031.3333333333333</ele><time>2026-05-02T13:06:54.001Z</time></trkpt><trkpt lat="41.18045604478174" lon="14.609171937570064"><ele>1045.0</ele><time>2026-05-02T13:06:55.001Z</time></trkpt><trkpt lat="41.180363241597725" lon="14.609379741577822"><ele>1039.6666666666665</ele><time>2026-05-02T13:06:56.001Z</time></trkpt><trkpt lat="41.18027979289282" lon="14.60957702377634"><ele>1034.3333333333333</ele><time>2026-05-02T13:06:57.001Z</time></trkpt><trkpt lat="41.18019860924901" lon="14.60979619306326"><ele>1029.0</ele><time>2026-05-02T13:06:58.001Z</time></trkpt><trkpt lat="41.180119094065745" lon="14.610015354654275"><ele>1029.0</ele><time>2026-05-02T13:06:59.001Z</time></trkpt><trkpt lat="41.180044609219365" lon="14.61022081633707"><ele>1029.0</ele><time>2026-05-02T13:07:00.001Z</time></trkpt><trkpt lat="41.179976528825925" lon="14.610410573445273"><ele>1029.0</ele><time>2026-05-02T13:07:01.001Z</time></trkpt><trkpt lat="41.1799262458681" lon="14.610552327199319"><ele>1029.0</ele><time>2026-05-02T13:07:02.001Z</time></trkpt><trkpt lat="41.17989330467694" lon="14.610683612993505"><ele>1026.6666666666667</ele><time>2026-05-02T13:07:03.001Z</time></trkpt><trkpt lat="41.179856888855774" lon="14.610786096846374"><ele>1024.3333333333333</ele><time>2026-05-02T13:07:04.001Z</time></trkpt><trkpt lat="41.17980278259654" lon="14.610906214403624"><ele>1022.0</ele><time>2026-05-02T13:07:06.001Z</time></trkpt><trkpt lat="41.17973747567242" lon="14.610906076059898"><ele>1019.6666666666666</ele><time>2026-05-02T13:07:08.001Z</time></trkpt><trkpt lat="41.179705925625186" lon="14.610803477460042"><ele>1017.3333333333333</ele><time>2026-05-02T13:07:10.001Z</time></trkpt><trkpt lat="41.17975781503483" lon="14.610712716071673"><ele>1015.0</ele><time>2026-05-02T13:07:11Z</time></trkpt><trkpt lat="41.179789736724295" lon="14.610595349182317"><ele>1018.5</ele><time>2026-05-02T13:07:12Z</time></trkpt><trkpt lat="41.17983061376291" lon="14.610467117397034"><ele>1022.0</ele><time>2026-05-02T13:07:13Z</time></trkpt><trkpt lat="41.17985832041443" lon="14.610311631317535"><ele>1025.5</ele><time>2026-05-02T13:07:14Z</time></trkpt><trkpt lat="41.17989887963047" lon="14.610137207785396"><ele>1029.0</ele><time>2026-05-02T13:07:15Z</time></trkpt><trkpt lat="41.17992405228888" lon="14.609942761684929"><ele>1029.0</ele><time>2026-05-02T13:07:16Z</time></trkpt><trkpt lat="41.179947331855566" lon="14.609741620480527"><ele>1029.0</ele><time>2026-05-02T13:07:17Z</time></trkpt><trkpt lat="41.179968775269494" lon="14.609527668243137"><ele>1029.0</ele><time>2026-05-02T13:07:18Z</time></trkpt><trkpt lat="41.179973791882425" lon="14.60932115114343"><ele>1033.0</ele><time>2026-05-02T13:07:19Z</time></trkpt><trkpt lat="41.18000434751626" lon="14.609121404113504"><ele>1037.0</ele><time>2026-05-02T13:07:20Z</time></trkpt><trkpt lat="41.1800327014996" lon="14.608936986733957"><ele>1041.0</ele><time>2026-05-02T13:07:21Z</time></trkpt><trkpt lat="41.18006510962939" lon="14.608751409242698"><ele>1045.0</ele><time>2026-05-02T13:07:22Z</time></trkpt><trkpt lat="41.18012187983362" lon="14.608571886959298"><ele>1050.6666666666665</ele><time>2026-05-02T13:07:23Z</time></trkpt><trkpt lat="41.18017552439018" lon="14.608370951595628"><ele>1056.3333333333333</ele><time>2026-05-02T13:07:24Z</time></trkpt><trkpt lat="41.18025032605767" lon="14.60816618854135"><ele>1062.0</ele><time>2026-05-02T13:07:25Z</time></trkpt><trkpt lat="41.18032669093578" lon="14.607987733766493"><ele>1062.0</ele><time>2026-05-02T13:07:26Z</time></trkpt><trkpt lat="41.180390341235594" lon="14.607829134568792"><ele>1062.0</ele><time>2026-05-02T13:07:27Z</time></trkpt><trkpt lat="41.18043497815638" lon="14.607695247627015"><ele>1062.0</ele><time>2026-05-02T13:07:28Z</time></trkpt><trkpt lat="41.18045406147896" lon="14.607513142814694"><ele>1062.0</ele><time>2026-05-02T13:07:29Z</time></trkpt><trkpt lat="41.18044685758541" lon="14.607319141423398"><ele>1066.0</ele><time>2026-05-02T13:07:30Z</time></trkpt><trkpt lat="41.18041800792834" lon="14.60713517334404"><ele>1070.0</ele><time>2026-05-02T13:07:31Z</time></trkpt><trkpt lat="41.18036458587053" lon="14.606965772573872"><ele>1074.0</ele><time>2026-05-02T13:07:32Z</time></trkpt><trkpt lat="41.18032543204765" lon="14.606799597345253"><ele>1078.0</ele><time>2026-05-02T13:07:33Z</time></trkpt><trkpt lat="41.1802327532793" lon="14.606664711125159"><ele>1078.0</ele><time>2026-05-02T13:07:34Z</time></trkpt><trkpt lat="41.180145905443425" lon="14.606518445627753"><ele>1078.0</ele><time>2026-05-02T13:07:35Z</time></trkpt><trkpt lat="41.18009604519414" lon="14.606384217127612"><ele>1078.0</ele><time>2026-05-02T13:07:36Z</time></trkpt><trkpt lat="41.180046569195596" lon="14.606263515183672"><ele>1078.0</ele><time>2026-05-02T13:07:37Z</time></trkpt><trkpt lat="41.18002589152463" lon="14.606099321328493"><ele>1075.75</ele><time>2026-05-02T13:07:38Z</time></trkpt><trkpt lat="41.18003547401983" lon="14.605950226092252"><ele>1073.5</ele><time>2026-05-02T13:07:39Z</time></trkpt><trkpt lat="41.18004805371108" lon="14.60579002582062"><ele>1071.25</ele><time>2026-05-02T13:07:40Z</time></trkpt><trkpt lat="41.18001947601384" lon="14.605614279809199"><ele>1069.0</ele><time>2026-05-02T13:07:41Z</time></trkpt><trkpt lat="41.17995975484475" lon="14.605439772937174"><ele>1072.0</ele><time>2026-05-02T13:07:42Z</time></trkpt><trkpt lat="41.179877654118016" lon="14.605252360632308"><ele>1075.0</ele><time>2026-05-02T13:07:43Z</time></trkpt><trkpt lat="41.17976479265053" lon="14.605101798452472"><ele>1078.0</ele><time>2026-05-02T13:07:44Z</time></trkpt><trkpt lat="41.17965496193576" lon="14.605022421016036"><ele>1081.0</ele><time>2026-05-02T13:07:45Z</time></trkpt><trkpt lat="41.17951459545224" lon="14.604938070989432"><ele>1081.0</ele><time>2026-05-02T13:07:46Z</time></trkpt><trkpt lat="41.179363391153736" lon="14.604893866235713"><ele>1081.0</ele><time>2026-05-02T13:07:47Z</time></trkpt><trkpt lat="41.17919626932556" lon="14.604865196933659"><ele>1081.0</ele><time>2026-05-02T13:07:48Z</time></trkpt><trkpt lat="41.17902686365377" lon="14.604840494649265"><ele>1084.0</ele><time>2026-05-02T13:07:49Z</time></trkpt><trkpt lat="41.17885603124239" lon="14.604811662953669"><ele>1087.0</ele><time>2026-05-02T13:07:50Z</time></trkpt><trkpt lat="41.178685627663434" lon="14.604785206954585"><ele>1090.0</ele><time>2026-05-02T13:07:51Z</time></trkpt><trkpt lat="41.17852908331044" lon="14.604770265602792"><ele>1090.0</ele><time>2026-05-02T13:07:52Z</time></trkpt><trkpt lat="41.17838106602801" lon="14.604769594649719"><ele>1090.0</ele><time>2026-05-02T13:07:53Z</time></trkpt><trkpt lat="41.17825317172751" lon="14.604811627555707"><ele>1090.0</ele><time>2026-05-02T13:07:54Z</time></trkpt><trkpt lat="41.17812610217167" lon="14.60489142732012"><ele>1090.0</ele><time>2026-05-02T13:07:55Z</time></trkpt><trkpt lat="41.17799766294664" lon="14.605005990495547"><ele>1088.3333333333333</ele><time>2026-05-02T13:07:56Z</time></trkpt><trkpt lat="41.17786470189479" lon="14.60513964327194"><ele>1086.6666666666667</ele><time>2026-05-02T13:07:57Z</time></trkpt><trkpt lat="41.17771540329685" lon="14.605265690920474"><ele>1085.0</ele><time>2026-05-02T13:07:58Z</time></trkpt><trkpt lat="41.17757512674257" lon="14.605402701152755"><ele>1091.75</ele><time>2026-05-02T13:07:59Z</time></trkpt><trkpt lat="41.17745749188364" lon="14.605540531959484"><ele>1098.5</ele><time>2026-05-02T13:08:00.001Z</time></trkpt><trkpt lat="41.17734831951374" lon="14.605639905661853"><ele>1105.25</ele><time>2026-05-02T13:08:01.001Z</time></trkpt><trkpt lat="41.17724396316219" lon="14.6057385173789"><ele>1112.0</ele><time>2026-05-02T13:08:02.001Z</time></trkpt><trkpt lat="41.177142279815406" lon="14.605829530436246"><ele>1113.75</ele><time>2026-05-02T13:08:03.001Z</time></trkpt><trkpt lat="41.17704375205313" lon="14.60592105702428"><ele>1115.5</ele><time>2026-05-02T13:08:04.001Z</time></trkpt><trkpt lat="41.17694238801815" lon="14.605979169183396"><ele>1117.25</ele><time>2026-05-02T13:08:05.001Z</time></trkpt><trkpt lat="41.176841557147014" lon="14.605980896889236"><ele>1119.0</ele><time>2026-05-02T13:08:06.001Z</time></trkpt><trkpt lat="41.17671827154155" lon="14.60595329538092"><ele>1119.0</ele><time>2026-05-02T13:08:07.001Z</time></trkpt><trkpt lat="41.17659969040982" lon="14.605879903791807"><ele>1119.0</ele><time>2026-05-02T13:08:08.001Z</time></trkpt><trkpt lat="41.176462151077516" lon="14.605832887965995"><ele>1119.0</ele><time>2026-05-02T13:08:09.001Z</time></trkpt><trkpt lat="41.176314190717136" lon="14.605767862773451"><ele>1119.0</ele><time>2026-05-02T13:08:10.001Z</time></trkpt><trkpt lat="41.17616255348541" lon="14.605709813646635"><ele>1123.0</ele><time>2026-05-02T13:08:11.001Z</time></trkpt><trkpt lat="41.17602287112926" lon="14.605654911246035"><ele>1127.0</ele><time>2026-05-02T13:08:12.001Z</time></trkpt><trkpt lat="41.17593255839532" lon="14.60555706925104"><ele>1131.0</ele><time>2026-05-02T13:08:13.001Z</time></trkpt><trkpt lat="41.175874213089564" lon="14.605451020402827"><ele>1135.0</ele><time>2026-05-02T13:08:14.001Z</time></trkpt><trkpt lat="41.175905770642956" lon="14.605345964475399"><ele>1139.0</ele><time>2026-05-02T13:08:16.001Z</time></trkpt><trkpt lat="41.17591903754824" lon="14.605254603540885"><ele>1140.25</ele><time>2026-05-02T13:08:17.001Z</time></trkpt><trkpt lat="41.17595764583361" lon="14.605129073896988"><ele>1141.5</ele><time>2026-05-02T13:08:18.001Z</time></trkpt><trkpt lat="41.17601489068254" lon="14.604990069251103"><ele>1142.75</ele><time>2026-05-02T13:08:19.001Z</time></trkpt><trkpt lat="41.17608667215825" lon="14.604827127856817"><ele>1144.0</ele><time>2026-05-02T13:08:20.001Z</time></trkpt><trkpt lat="41.17614404716956" lon="14.604697654880425"><ele>1144.0</ele><time>2026-05-02T13:08:21.001Z</time></trkpt><trkpt lat="41.17619664829353" lon="14.6045038838416"><ele>1144.0</ele><time>2026-05-02T13:08:22.001Z</time></trkpt><trkpt lat="41.17621669987387" lon="14.604288254811808"><ele>1144.0</ele><time>2026-05-02T13:08:23.001Z</time></trkpt><trkpt lat="41.17623385528434" lon="14.604074924302326"><ele>1145.5</ele><time>2026-05-02T13:08:24.001Z</time></trkpt><trkpt lat="41.17625297520139" lon="14.603858621052757"><ele>1147.0</ele><time>2026-05-02T13:08:25.001Z</time></trkpt><trkpt lat="41.176271710303965" lon="14.603665816324636"><ele>1148.5</ele><time>2026-05-02T13:08:26.001Z</time></trkpt><trkpt lat="41.1762852782814" lon="14.603527530319434"><ele>1150.0</ele><time>2026-05-02T13:08:27.001Z</time></trkpt><trkpt lat="41.17629561184673" lon="14.603404324607434"><ele>1150.0</ele><time>2026-05-02T13:08:28.001Z</time></trkpt><trkpt lat="41.17630005095062" lon="14.603297473616047"><ele>1150.0</ele><time>2026-05-02T13:08:29.001Z</time></trkpt><trkpt lat="41.176299092918065" lon="14.603190236194388"><ele>1150.0</ele><time>2026-05-02T13:08:30.001Z</time></trkpt><trkpt lat="41.176283343626764" lon="14.603079961199079"><ele>1150.0</ele><time>2026-05-02T13:08:31.001Z</time></trkpt><trkpt lat="41.17624433104759" lon="14.60300955786625"><ele>1150.0</ele><time>2026-05-02T13:08:32.001Z</time></trkpt><trkpt lat="41.176159931401955" lon="14.602952517749475"><ele>1150.0</ele><time>2026-05-02T13:08:33.001Z</time></trkpt><trkpt lat="41.176055199270095" lon="14.602962843437204"><ele>1150.0</ele><time>2026-05-02T13:08:34.001Z</time></trkpt><trkpt lat="41.175958286289294" lon="14.602985115109407"><ele>1150.0</ele><time>2026-05-02T13:08:35.001Z</time></trkpt><trkpt lat="41.17586108509317" lon="14.603009638350448"><ele>1150.0</ele><time>2026-05-02T13:08:36.001Z</time></trkpt><trkpt lat="41.17576420798104" lon="14.603034147316905"><ele>1150.0</ele><time>2026-05-02T13:08:37.001Z</time></trkpt><trkpt lat="41.17566307932804" lon="14.603059899623057"><ele>1150.0</ele><time>2026-05-02T13:08:38.001Z</time></trkpt><trkpt lat="41.17556029849198" lon="14.603086072676382"><ele>1152.6</ele><time>2026-05-02T13:08:39.001Z</time></trkpt><trkpt lat="41.175461117512775" lon="14.603108772801692"><ele>1155.2</ele><time>2026-05-02T13:08:40.001Z</time></trkpt><trkpt lat="41.17536430804559" lon="14.603130011904595"><ele>1157.8</ele><time>2026-05-02T13:08:41.001Z</time></trkpt><trkpt lat="41.17527112637865" lon="14.603154313306145"><ele>1160.4</ele><time>2026-05-02T13:08:42.001Z</time></trkpt><trkpt lat="41.17517722364725" lon="14.603192507537594"><ele>1163.0</ele><time>2026-05-02T13:08:43.001Z</time></trkpt><trkpt lat="41.17507712561329" lon="14.603192065437431"><ele>1163.0</ele><time>2026-05-02T13:08:44.001Z</time></trkpt><trkpt lat="41.17500885115242" lon="14.603158478633746"><ele>1163.0</ele><time>2026-05-02T13:08:45.001Z</time></trkpt><trkpt lat="41.17493045681795" lon="14.603118758833965"><ele>1163.0</ele><time>2026-05-02T13:08:46.001Z</time></trkpt><trkpt lat="41.17486133932002" lon="14.603057685530782"><ele>1163.0</ele><time>2026-05-02T13:08:47.001Z</time></trkpt><trkpt lat="41.17480024181261" lon="14.602980723985995"><ele>1163.0</ele><time>2026-05-02T13:08:48.001Z</time></trkpt><trkpt lat="41.174746409799624" lon="14.602897692300333"><ele>1163.0</ele><time>2026-05-02T13:08:49.001Z</time></trkpt><trkpt lat="41.17467404333926" lon="14.602830704309785"><ele>1160.5</ele><time>2026-05-02T13:08:50.001Z</time></trkpt><trkpt lat="41.17461129949917" lon="14.602747921645046"><ele>1158.0</ele><time>2026-05-02T13:08:51.001Z</time></trkpt><trkpt lat="41.17454500273622" lon="14.602642487538235"><ele>1155.5</ele><time>2026-05-02T13:08:52.001Z</time></trkpt><trkpt lat="41.17448765145101" lon="14.602583615839013"><ele>1153.0</ele><time>2026-05-02T13:08:53.001Z</time></trkpt><trkpt lat="41.174456921772034" lon="14.602509422025753"><ele>1150.5</ele><time>2026-05-02T13:08:54.001Z</time></trkpt><trkpt lat="41.1744287087124" lon="14.602375648489778"><ele>1148.0</ele><time>2026-05-02T13:08:56.001Z</time></trkpt><trkpt lat="41.17444980367298" lon="14.602232119435264"><ele>1148.0</ele><time>2026-05-02T13:08:58.001Z</time></trkpt><trkpt lat="41.17448572535237" lon="14.602079833787577"><ele>1148.0</ele><time>2026-05-02T13:09:00.001Z</time></trkpt><trkpt lat="41.17454043205741" lon="14.601949511350636"><ele>1148.0</ele><time>2026-05-02T13:09:02.001Z</time></trkpt><trkpt lat="41.17459561718225" lon="14.601822214196487"><ele>1148.0</ele><time>2026-05-02T13:09:04.001Z</time></trkpt><trkpt lat="41.17465852807358" lon="14.601701279972282"><ele>1146.5</ele><time>2026-05-02T13:09:06.001Z</time></trkpt><trkpt lat="41.174711959515825" lon="14.60159023994522"><ele>1145.0</ele><time>2026-05-02T13:09:08.001Z</time></trkpt><trkpt lat="41.174750678818" lon="14.60151090371418"><ele>1143.5</ele><time>2026-05-02T13:09:14.002Z</time></trkpt><trkpt lat="41.17479246232699" lon="14.601398043308654"><ele>1142.0</ele><time>2026-05-02T13:09:17Z</time></trkpt><trkpt lat="41.17481950633329" lon="14.60131635114174"><ele>1140.5</ele><time>2026-05-02T13:09:19Z</time></trkpt><trkpt lat="41.17483123077512" lon="14.601232193758696"><ele>1139.0</ele><time>2026-05-02T13:09:23Z</time></trkpt><trkpt lat="41.174804720990494" lon="14.601310990550221"><ele>1139.0</ele><time>2026-05-02T13:16:32.001Z</time></trkpt><trkpt lat="41.17475710007334" lon="14.601426680342605"><ele>1139.0</ele><time>2026-05-02T13:25:30Z</time></trkpt><trkpt lat="41.17470675556545" lon="14.601504341889646"><ele>1139.0</ele><time>2026-05-02T13:25:32Z</time></trkpt><trkpt lat="41.174673728292596" lon="14.601588959664332"><ele>1139.0</ele><time>2026-05-02T13:25:34Z</time></trkpt><trkpt lat="41.174639572439986" lon="14.601681118952555"><ele>1139.0</ele><time>2026-05-02T13:25:36Z</time></trkpt><trkpt lat="41.17460161952762" lon="14.601777744384908"><ele>1139.0</ele><time>2026-05-02T13:25:38Z</time></trkpt><trkpt lat="41.17456092559036" lon="14.601872905683765"><ele>1139.0</ele><time>2026-05-02T13:25:40Z</time></trkpt><trkpt lat="41.17451208115682" lon="14.601993333148698"><ele>1139.0</ele><time>2026-05-02T13:25:42Z</time></trkpt><trkpt lat="41.17445704405895" lon="14.602141236180975"><ele>1139.0</ele><time>2026-05-02T13:25:44Z</time></trkpt><trkpt lat="41.17443368882948" lon="14.602223833868953"><ele>1139.0</ele><time>2026-05-02T13:25:45Z</time></trkpt><trkpt lat="41.174418214486444" lon="14.602313165098455"><ele>1139.0</ele><time>2026-05-02T13:25:46Z</time></trkpt><trkpt lat="41.17443801566393" lon="14.602476433823579"><ele>1141.25</ele><time>2026-05-02T13:25:48Z</time></trkpt><trkpt lat="41.174295941659075" lon="14.602653894212777"><ele>1143.5</ele><time>2026-05-02T13:25:49Z</time></trkpt><trkpt lat="41.17440689320809" lon="14.60279612480968"><ele>1145.75</ele><time>2026-05-02T13:25:50Z</time></trkpt><trkpt lat="41.1744514683659" lon="14.602877082980722"><ele>1148.0</ele><time>2026-05-02T13:25:51Z</time></trkpt><trkpt lat="41.1744945083826" lon="14.602953299660232"><ele>1150.5</ele><time>2026-05-02T13:25:52Z</time></trkpt><trkpt lat="41.17453628958328" lon="14.603026699200363"><ele>1153.0</ele><time>2026-05-02T13:25:53Z</time></trkpt><trkpt lat="41.17457617496" lon="14.603096768084058"><ele>1155.5</ele><time>2026-05-02T13:25:54.001Z</time></trkpt><trkpt lat="41.174618593288834" lon="14.603171287006164"><ele>1158.0</ele><time>2026-05-02T13:25:55.001Z</time></trkpt><trkpt lat="41.17465413488056" lon="14.603242688026146"><ele>1160.5</ele><time>2026-05-02T13:25:56.001Z</time></trkpt><trkpt lat="41.1747047665003" lon="14.603343445729976"><ele>1163.0</ele><time>2026-05-02T13:25:57.001Z</time></trkpt><trkpt lat="41.17476039732754" lon="14.603447801324545"><ele>1163.0</ele><time>2026-05-02T13:25:58.001Z</time></trkpt><trkpt lat="41.17481756355556" lon="14.603542547879904"><ele>1163.0</ele><time>2026-05-02T13:25:59.001Z</time></trkpt><trkpt lat="41.17488170286872" lon="14.603616406692673"><ele>1163.0</ele><time>2026-05-02T13:26:02.001Z</time></trkpt><trkpt lat="41.17497138489095" lon="14.603652271872914"><ele>1163.0</ele><time>2026-05-02T13:26:05Z</time></trkpt><trkpt lat="41.17548416929258" lon="14.603147579874934"><ele>1163.0</ele><time>2026-05-02T13:26:07Z</time></trkpt><trkpt lat="41.17560573257311" lon="14.603127697523012"><ele>1163.0</ele><time>2026-05-02T13:26:09Z</time></trkpt><trkpt lat="41.17573868450395" lon="14.603074010024475"><ele>1163.0</ele><time>2026-05-02T13:26:11Z</time></trkpt><trkpt lat="41.17587261118977" lon="14.603042522999267"><ele>1163.0</ele><time>2026-05-02T13:26:13Z</time></trkpt><trkpt lat="41.176005814529724" lon="14.603004592261641"><ele>1160.4</ele><time>2026-05-02T13:26:15Z</time></trkpt><trkpt lat="41.1760675240247" lon="14.602985130015291"><ele>1157.8</ele><time>2026-05-02T13:26:16Z</time></trkpt><trkpt lat="41.17619685063321" lon="14.602982134609988"><ele>1155.2</ele><time>2026-05-02T13:26:18Z</time></trkpt><trkpt lat="41.17625964443529" lon="14.603120287262769"><ele>1152.6</ele><time>2026-05-02T13:26:20Z</time></trkpt><trkpt lat="41.176270152558196" lon="14.603229870394623"><ele>1150.0</ele><time>2026-05-02T13:26:21Z</time></trkpt><trkpt lat="41.17627082225721" lon="14.603357825657033"><ele>1150.0</ele><time>2026-05-02T13:26:22Z</time></trkpt><trkpt lat="41.17626050315013" lon="14.603500465176502"><ele>1150.0</ele><time>2026-05-02T13:26:23Z</time></trkpt><trkpt lat="41.17624486333598" lon="14.603648532197795"><ele>1150.0</ele><time>2026-05-02T13:26:24Z</time></trkpt><trkpt lat="41.17622578703677" lon="14.603813739746924"><ele>1150.0</ele><time>2026-05-02T13:26:25Z</time></trkpt><trkpt lat="41.17622173361369" lon="14.603972993787183"><ele>1150.25</ele><time>2026-05-02T13:26:26Z</time></trkpt><trkpt lat="41.17621567682187" lon="14.604132211626057"><ele>1150.5</ele><time>2026-05-02T13:26:27Z</time></trkpt><trkpt lat="41.176200384877454" lon="14.604276623248335"><ele>1150.75</ele><time>2026-05-02T13:26:28Z</time></trkpt><trkpt lat="41.17619013923792" lon="14.604431228963492"><ele>1151.0</ele><time>2026-05-02T13:26:29Z</time></trkpt><trkpt lat="41.176160253622875" lon="14.604576955398446"><ele>1149.25</ele><time>2026-05-02T13:26:30Z</time></trkpt><trkpt lat="41.17611855484791" lon="14.60473448432811"><ele>1147.5</ele><time>2026-05-02T13:26:31Z</time></trkpt><trkpt lat="41.176060400497825" lon="14.604892429519008"><ele>1145.75</ele><time>2026-05-02T13:26:32Z</time></trkpt><trkpt lat="41.17600359539253" lon="14.60504056979744"><ele>1144.0</ele><time>2026-05-02T13:26:33Z</time></trkpt><trkpt lat="41.175956651976215" lon="14.60515885097158"><ele>1144.0</ele><time>2026-05-02T13:26:34Z</time></trkpt><trkpt lat="41.17591015538785" lon="14.60528929052701"><ele>1144.0</ele><time>2026-05-02T13:26:35Z</time></trkpt><trkpt lat="41.175897845445405" lon="14.605398330756133"><ele>1144.0</ele><time>2026-05-02T13:26:36Z</time></trkpt><trkpt lat="41.175922380896765" lon="14.60550756541446"><ele>1144.0</ele><time>2026-05-02T13:26:37Z</time></trkpt><trkpt lat="41.17597300399587" lon="14.605621058285106"><ele>1144.0</ele><time>2026-05-02T13:26:38Z</time></trkpt><trkpt lat="41.17604416646025" lon="14.605705388694286"><ele>1143.0</ele><time>2026-05-02T13:26:39Z</time></trkpt><trkpt lat="41.176133415145266" lon="14.605741872381753"><ele>1142.0</ele><time>2026-05-02T13:26:40Z</time></trkpt><trkpt lat="41.176255178928926" lon="14.605786491572724"><ele>1141.0</ele><time>2026-05-02T13:26:41Z</time></trkpt><trkpt lat="41.1763463574452" lon="14.605816620713435"><ele>1140.0</ele><time>2026-05-02T13:26:42Z</time></trkpt><trkpt lat="41.17646176465372" lon="14.605863297469643"><ele>1139.0</ele><time>2026-05-02T13:26:43Z</time></trkpt><trkpt lat="41.176573099869174" lon="14.605914344746354"><ele>1135.0</ele><time>2026-05-02T13:26:44Z</time></trkpt><trkpt lat="41.17667527125723" lon="14.605939043664527"><ele>1131.0</ele><time>2026-05-02T13:26:45Z</time></trkpt><trkpt lat="41.17678497139486" lon="14.60601219027679"><ele>1127.0</ele><time>2026-05-02T13:26:46Z</time></trkpt><trkpt lat="41.17687658232348" lon="14.606058082424624"><ele>1123.0</ele><time>2026-05-02T13:26:47Z</time></trkpt><trkpt lat="41.17697523802226" lon="14.60604377233635"><ele>1119.0</ele><time>2026-05-02T13:26:48Z</time></trkpt><trkpt lat="41.17707353148788" lon="14.605996075204468"><ele>1119.0</ele><time>2026-05-02T13:26:49Z</time></trkpt><trkpt lat="41.17714035422368" lon="14.605901984635222"><ele>1119.0</ele><time>2026-05-02T13:26:50Z</time></trkpt><trkpt lat="41.17723833799392" lon="14.605803319920255"><ele>1119.0</ele><time>2026-05-02T13:26:51Z</time></trkpt><trkpt lat="41.177343990665186" lon="14.60569406684118"><ele>1119.0</ele><time>2026-05-02T13:26:52Z</time></trkpt><trkpt lat="41.17745372213571" lon="14.605582962540455"><ele>1117.25</ele><time>2026-05-02T13:26:53Z</time></trkpt><trkpt lat="41.17758116359617" lon="14.605457215021115"><ele>1115.5</ele><time>2026-05-02T13:26:54Z</time></trkpt><trkpt lat="41.17769726203102" lon="14.605332665408108"><ele>1113.75</ele><time>2026-05-02T13:26:55Z</time></trkpt><trkpt lat="41.177810859433045" lon="14.605227030964848"><ele>1112.0</ele><time>2026-05-02T13:26:56Z</time></trkpt><trkpt lat="41.177924259047344" lon="14.605116701717204"><ele>1106.5</ele><time>2026-05-02T13:26:57Z</time></trkpt><trkpt lat="41.17802967987459" lon="14.605014806662666"><ele>1101.0</ele><time>2026-05-02T13:26:58Z</time></trkpt><trkpt lat="41.178121793067575" lon="14.604924966430893"><ele>1095.5</ele><time>2026-05-02T13:26:59Z</time></trkpt><trkpt lat="41.17821363906359" lon="14.604850366945195"><ele>1090.0</ele><time>2026-05-02T13:27:00Z</time></trkpt><trkpt lat="41.178322043380525" lon="14.604826136933726"><ele>1090.0</ele><time>2026-05-02T13:27:01Z</time></trkpt><trkpt lat="41.17843461975808" lon="14.604782631263928"><ele>1090.0</ele><time>2026-05-02T13:27:02Z</time></trkpt><trkpt lat="41.1785611425589" lon="14.604780611506326"><ele>1090.0</ele><time>2026-05-02T13:27:03Z</time></trkpt><trkpt lat="41.1786909014233" lon="14.604816353065338"><ele>1090.0</ele><time>2026-05-02T13:27:04Z</time></trkpt><trkpt lat="41.17883802208565" lon="14.604838635180618"><ele>1090.0</ele><time>2026-05-02T13:27:05Z</time></trkpt><trkpt lat="41.178979969684704" lon="14.6048621255297"><ele>1090.0</ele><time>2026-05-02T13:27:06Z</time></trkpt><trkpt lat="41.17911187072978" lon="14.604879371587508"><ele>1090.0</ele><time>2026-05-02T13:27:07Z</time></trkpt><trkpt lat="41.17923593553212" lon="14.604897785024418"><ele>1090.0</ele><time>2026-05-02T13:27:08Z</time></trkpt><trkpt lat="41.179353105556366" lon="14.60493678474221"><ele>1087.75</ele><time>2026-05-02T13:27:09Z</time></trkpt><trkpt lat="41.179471378783965" lon="14.604970707651376"><ele>1085.5</ele><time>2026-05-02T13:27:10Z</time></trkpt><trkpt lat="41.179580345169406" lon="14.605027843370491"><ele>1083.25</ele><time>2026-05-02T13:27:11Z</time></trkpt><trkpt lat="41.179680289960515" lon="14.605106066131967"><ele>1081.0</ele><time>2026-05-02T13:27:12Z</time></trkpt><trkpt lat="41.17977266380043" lon="14.605217058147623"><ele>1078.0</ele><time>2026-05-02T13:27:13Z</time></trkpt><trkpt lat="41.17985429572783" lon="14.605351141462904"><ele>1075.0</ele><time>2026-05-02T13:27:14Z</time></trkpt><trkpt lat="41.17992058172038" lon="14.605490901103453"><ele>1072.0</ele><time>2026-05-02T13:27:15Z</time></trkpt><trkpt lat="41.179969572168474" lon="14.605637224412808"><ele>1069.0</ele><time>2026-05-02T13:27:16Z</time></trkpt><trkpt lat="41.18000450764753" lon="14.605779931084511"><ele>1069.0</ele><time>2026-05-02T13:27:17Z</time></trkpt><trkpt lat="41.18000879620486" lon="14.605928329277477"><ele>1069.0</ele><time>2026-05-02T13:27:18Z</time></trkpt><trkpt lat="41.17999874231614" lon="14.606081282324583"><ele>1069.0</ele><time>2026-05-02T13:27:19Z</time></trkpt><trkpt lat="41.18000620768394" lon="14.606233653039254"><ele>1069.0</ele><time>2026-05-02T13:27:20Z</time></trkpt><trkpt lat="41.18004138799568" lon="14.606389774425686"><ele>1071.25</ele><time>2026-05-02T13:27:21Z</time></trkpt><trkpt lat="41.180105179026306" lon="14.606530920107849"><ele>1073.5</ele><time>2026-05-02T13:27:22Z</time></trkpt><trkpt lat="41.180183605675175" lon="14.606667231172544"><ele>1075.75</ele><time>2026-05-02T13:27:23Z</time></trkpt><trkpt lat="41.1802639129528" lon="14.606784887097259"><ele>1078.0</ele><time>2026-05-02T13:27:24Z</time></trkpt><trkpt lat="41.18031776341827" lon="14.606872383578574"><ele>1078.8</ele><time>2026-05-02T13:27:25Z</time></trkpt><trkpt lat="41.18035408843524" lon="14.606998074719327"><ele>1079.6</ele><time>2026-05-02T13:27:26Z</time></trkpt><trkpt lat="41.18038192442025" lon="14.607127633980292"><ele>1080.4</ele><time>2026-05-02T13:27:27Z</time></trkpt><trkpt lat="41.18040766297061" lon="14.60728167050987"><ele>1081.2</ele><time>2026-05-02T13:27:28Z</time></trkpt><trkpt lat="41.18042229765093" lon="14.607437757812527"><ele>1082.0</ele><time>2026-05-02T13:27:29Z</time></trkpt><trkpt lat="41.18041550059164" lon="14.60758776099495"><ele>1082.0</ele><time>2026-05-02T13:27:30Z</time></trkpt><trkpt lat="41.18039187679498" lon="14.607732892187999"><ele>1082.0</ele><time>2026-05-02T13:27:31Z</time></trkpt><trkpt lat="41.18034005820254" lon="14.60786178589822"><ele>1082.0</ele><time>2026-05-02T13:27:32Z</time></trkpt><trkpt lat="41.180285247806204" lon="14.607995118972342"><ele>1082.0</ele><time>2026-05-02T13:27:33Z</time></trkpt><trkpt lat="41.1802230086351" lon="14.608140563810013"><ele>1077.0</ele><time>2026-05-02T13:27:34Z</time></trkpt><trkpt lat="41.18015982831777" lon="14.608306117303776"><ele>1072.0</ele><time>2026-05-02T13:27:35Z</time></trkpt><trkpt lat="41.180107019773374" lon="14.60848834358498"><ele>1067.0</ele><time>2026-05-02T13:27:36Z</time></trkpt><trkpt lat="41.180061277379714" lon="14.608684416326563"><ele>1062.0</ele><time>2026-05-02T13:27:37Z</time></trkpt><trkpt lat="41.180020583760395" lon="14.608894560786917"><ele>1056.3333333333333</ele><time>2026-05-02T13:27:38Z</time></trkpt><trkpt lat="41.17998558934882" lon="14.609099589470611"><ele>1050.6666666666665</ele><time>2026-05-02T13:27:39Z</time></trkpt><trkpt lat="41.179958107696415" lon="14.609309451519259"><ele>1045.0</ele><time>2026-05-02T13:27:40Z</time></trkpt><trkpt lat="41.1799386617862" lon="14.609492856661106"><ele>1041.0</ele><time>2026-05-02T13:27:41Z</time></trkpt><trkpt lat="41.17992072464654" lon="14.609671824799046"><ele>1037.0</ele><time>2026-05-02T13:27:42Z</time></trkpt><trkpt lat="41.1799195847802" lon="14.609806237220914"><ele>1033.0</ele><time>2026-05-02T13:27:43Z</time></trkpt><trkpt lat="41.179899495481834" lon="14.609957342535145"><ele>1029.0</ele><time>2026-05-02T13:27:44Z</time></trkpt><trkpt lat="41.179869045041734" lon="14.610107648946054"><ele>1037.75</ele><time>2026-05-02T13:27:45Z</time></trkpt><trkpt lat="41.179840757664174" lon="14.61026445676013"><ele>1046.5</ele><time>2026-05-02T13:27:46Z</time></trkpt><trkpt lat="41.17980523418248" lon="14.610423328185798"><ele>1055.25</ele><time>2026-05-02T13:27:47Z</time></trkpt><trkpt lat="41.17976690270512" lon="14.610565004075383"><ele>1064.0</ele><time>2026-05-02T13:27:48Z</time></trkpt><trkpt lat="41.179745271053086" lon="14.610686827174053"><ele>1064.0</ele><time>2026-05-02T13:27:49Z</time></trkpt><trkpt lat="41.17970321481728" lon="14.61079080622216"><ele>1064.0</ele><time>2026-05-02T13:27:50Z</time></trkpt><trkpt lat="41.1796838914333" lon="14.610922100242583"><ele>1064.0</ele><time>2026-05-02T13:27:52Z</time></trkpt><trkpt lat="41.17976439971328" lon="14.61096795549436"><ele>1064.0</ele><time>2026-05-02T13:27:54Z</time></trkpt><trkpt lat="41.17982818357394" lon="14.610904486035732"><ele>1064.0</ele><time>2026-05-02T13:27:55Z</time></trkpt><trkpt lat="41.17987139459431" lon="14.610801922652113"><ele>1064.0</ele><time>2026-05-02T13:27:56Z</time></trkpt><trkpt lat="41.17991990883015" lon="14.610696077261114"><ele>1055.25</ele><time>2026-05-02T13:27:57Z</time></trkpt><trkpt lat="41.17997663770875" lon="14.610560496503531"><ele>1046.5</ele><time>2026-05-02T13:27:58Z</time></trkpt><trkpt lat="41.1800429620092" lon="14.610425855704015"><ele>1037.75</ele><time>2026-05-02T13:27:59Z</time></trkpt><trkpt lat="41.18008326987955" lon="14.61024268735021"><ele>1029.0</ele><time>2026-05-02T13:28:00Z</time></trkpt><trkpt lat="41.18014972666778" lon="14.610063858350523"><ele>1029.0</ele><time>2026-05-02T13:28:01Z</time></trkpt><trkpt lat="41.180225995275" lon="14.609879514349624"><ele>1029.0</ele><time>2026-05-02T13:28:02Z</time></trkpt><trkpt lat="41.180309037146515" lon="14.609685437348901"><ele>1029.0</ele><time>2026-05-02T13:28:03Z</time></trkpt><trkpt lat="41.18037248195676" lon="14.609484089679976"><ele>1034.3333333333333</ele><time>2026-05-02T13:28:04Z</time></trkpt><trkpt lat="41.18046169343475" lon="14.609301564887902"><ele>1039.6666666666665</ele><time>2026-05-02T13:28:05Z</time></trkpt><trkpt lat="41.1805524679155" lon="14.609132829176893"><ele>1045.0</ele><time>2026-05-02T13:28:06Z</time></trkpt><trkpt lat="41.1806363869143" lon="14.608936431243945"><ele>1031.3333333333333</ele><time>2026-05-02T13:28:07Z</time></trkpt><trkpt lat="41.180742459246915" lon="14.608758514799664"><ele>1017.6666666666667</ele><time>2026-05-02T13:28:08Z</time></trkpt><trkpt lat="41.18084548683115" lon="14.608588370363488"><ele>1004.0</ele><time>2026-05-02T13:28:09Z</time></trkpt><trkpt lat="41.18093252068637" lon="14.608445669609912"><ele>1004.0</ele><time>2026-05-02T13:28:10Z</time></trkpt><trkpt lat="41.18103357479565" lon="14.608279665631596"><ele>1004.0</ele><time>2026-05-02T13:28:10.999Z</time></trkpt><trkpt lat="41.18111522282194" lon="14.608138091019482"><ele>1004.0</ele><time>2026-05-02T13:28:11.999Z</time></trkpt><trkpt lat="41.18120186423906" lon="14.607985502025814"><ele>1004.0</ele><time>2026-05-02T13:28:13Z</time></trkpt><trkpt lat="41.18128982946899" lon="14.607830427614463"><ele>1009.0</ele><time>2026-05-02T13:28:14Z</time></trkpt><trkpt lat="41.18135989887577" lon="14.607692475910367"><ele>1014.0</ele><time>2026-05-02T13:28:15Z</time></trkpt><trkpt lat="41.181429235581405" lon="14.60753942923106"><ele>1019.0</ele><time>2026-05-02T13:28:16Z</time></trkpt><trkpt lat="41.18144123718459" lon="14.607417890487882"><ele>1024.0</ele><time>2026-05-02T13:28:17Z</time></trkpt><trkpt lat="41.181450098575034" lon="14.607260816132415"><ele>1024.0</ele><time>2026-05-02T13:28:18Z</time></trkpt><trkpt lat="41.18145352618036" lon="14.607055205894888"><ele>1024.0</ele><time>2026-05-02T13:28:19Z</time></trkpt><trkpt lat="41.18144024945045" lon="14.606843692872124"><ele>1024.0</ele><time>2026-05-02T13:28:20Z</time></trkpt><trkpt lat="41.18141813635456" lon="14.606644348547734"><ele>1024.0</ele><time>2026-05-02T13:28:21Z</time></trkpt><trkpt lat="41.181395220364294" lon="14.606442806585964"><ele>1024.0</ele><time>2026-05-02T13:28:22Z</time></trkpt><trkpt lat="41.18137087243316" lon="14.606283107601913"><ele>1024.0</ele><time>2026-05-02T13:28:23Z</time></trkpt><trkpt lat="41.18134490853038" lon="14.606137829066132"><ele>1024.0</ele><time>2026-05-02T13:28:24Z</time></trkpt><trkpt lat="41.181323664064855" lon="14.606002612757145"><ele>1022.4000000000001</ele><time>2026-05-02T13:28:25Z</time></trkpt><trkpt lat="41.1813242274646" lon="14.605857388696256"><ele>1020.8000000000001</ele><time>2026-05-02T13:28:26Z</time></trkpt><trkpt lat="41.18137581629606" lon="14.605719796720635"><ele>1019.1999999999999</ele><time>2026-05-02T13:28:27Z</time></trkpt><trkpt lat="41.18142309355991" lon="14.605588987451403"><ele>1017.5999999999999</ele><time>2026-05-02T13:28:28Z</time></trkpt><trkpt lat="41.1814878794031" lon="14.605465781840516"><ele>1016.0</ele><time>2026-05-02T13:28:29Z</time></trkpt><trkpt lat="41.18154749985495" lon="14.6053294588835"><ele>1001.75</ele><time>2026-05-02T13:28:30Z</time></trkpt><trkpt lat="41.181567393240265" lon="14.605173952266282"><ele>987.5</ele><time>2026-05-02T13:28:31Z</time></trkpt><trkpt lat="41.181574670151875" lon="14.6049965258826"><ele>973.25</ele><time>2026-05-02T13:28:32Z</time></trkpt><trkpt lat="41.18158114640427" lon="14.604814174176074"><ele>959.0</ele><time>2026-05-02T13:28:33Z</time></trkpt><trkpt lat="41.18158529128047" lon="14.604662315050765"><ele>959.0</ele><time>2026-05-02T13:28:34Z</time></trkpt><trkpt lat="41.18158407151372" lon="14.604507733116264"><ele>959.0000000000001</ele><time>2026-05-02T13:28:35Z</time></trkpt><trkpt lat="41.18153746644675" lon="14.604376700112073"><ele>959.0000000000001</ele><time>2026-05-02T13:28:36Z</time></trkpt><trkpt lat="41.181494635330175" lon="14.604279470556428"><ele>959.0</ele><time>2026-05-02T13:28:37Z</time></trkpt><trkpt lat="41.18144628973177" lon="14.604216170902143"><ele>959.0</ele><time>2026-05-02T13:28:38Z</time></trkpt><trkpt lat="41.18138729367656" lon="14.60410374302851"><ele>956.6666666666667</ele><time>2026-05-02T13:28:40Z</time></trkpt><trkpt lat="41.181428663146555" lon="14.604009541654232"><ele>954.3333333333334</ele><time>2026-05-02T13:28:43Z</time></trkpt><trkpt lat="41.18146701102844" lon="14.60408111662748"><ele>952.0</ele><time>2026-05-02T13:28:44Z</time></trkpt><trkpt lat="41.18151900681752" lon="14.60414138346606"><ele>949.6666666666667</ele><time>2026-05-02T13:28:45Z</time></trkpt><trkpt lat="41.181578348365576" lon="14.604214867537374"><ele>947.3333333333334</ele><time>2026-05-02T13:28:46Z</time></trkpt><trkpt lat="41.18164699250162" lon="14.60429805413623"><ele>945.0</ele><time>2026-05-02T13:28:47Z</time></trkpt><trkpt lat="41.181698081827925" lon="14.604423777767428"><ele>948.5</ele><time>2026-05-02T13:28:48Z</time></trkpt><trkpt lat="41.181747579499145" lon="14.60457975032761"><ele>952.0</ele><time>2026-05-02T13:28:49Z</time></trkpt><trkpt lat="41.18177231068894" lon="14.604758104213497"><ele>955.5</ele><time>2026-05-02T13:28:50Z</time></trkpt><trkpt lat="41.18180106605617" lon="14.6049399026008"><ele>959.0</ele><time>2026-05-02T13:28:51Z</time></trkpt><trkpt lat="41.181830234172686" lon="14.605098666627686"><ele>959.0</ele><time>2026-05-02T13:28:52Z</time></trkpt><trkpt lat="41.181851407844626" lon="14.605258156241232"><ele>959.0</ele><time>2026-05-02T13:28:53Z</time></trkpt><trkpt lat="41.181843443570024" lon="14.605423515490399"><ele>959.0</ele><time>2026-05-02T13:28:54Z</time></trkpt><trkpt lat="41.18182077526348" lon="14.605605857584285"><ele>959.0</ele><time>2026-05-02T13:28:55Z</time></trkpt><trkpt lat="41.18180503096506" lon="14.6057566739197"><ele>959.0</ele><time>2026-05-02T13:28:56Z</time></trkpt><trkpt lat="41.18181333058411" lon="14.605911471325545"><ele>959.0</ele><time>2026-05-02T13:28:57Z</time></trkpt><trkpt lat="41.18186953280905" lon="14.60606594076916"><ele>959.0</ele><time>2026-05-02T13:28:58Z</time></trkpt><trkpt lat="41.18194925874317" lon="14.60620523195514"><ele>959.0</ele><time>2026-05-02T13:28:59Z</time></trkpt><trkpt lat="41.18203864558228" lon="14.606358511258547"><ele>960.5</ele><time>2026-05-02T13:29:00Z</time></trkpt><trkpt lat="41.18213070239689" lon="14.606516369214875"><ele>962.0</ele><time>2026-05-02T13:29:01Z</time></trkpt><trkpt lat="41.18221615062616" lon="14.606662099021083"><ele>963.5</ele><time>2026-05-02T13:29:02Z</time></trkpt><trkpt lat="41.18229261539846" lon="14.60678492734741"><ele>965.0</ele><time>2026-05-02T13:29:03Z</time></trkpt><trkpt lat="41.18236841550337" lon="14.606877652991974"><ele>952.25</ele><time>2026-05-02T13:29:04Z</time></trkpt><trkpt lat="41.182414393844695" lon="14.60699629804354"><ele>939.5</ele><time>2026-05-02T13:29:05Z</time></trkpt><trkpt lat="41.18244344997" lon="14.607132514854282"><ele>926.75</ele><time>2026-05-02T13:29:06Z</time></trkpt><trkpt lat="41.18244722431734" lon="14.60728561561554"><ele>914.0</ele><time>2026-05-02T13:29:07Z</time></trkpt><trkpt lat="41.18243062659389" lon="14.607457357539118"><ele>914.0</ele><time>2026-05-02T13:29:08Z</time></trkpt><trkpt lat="41.18240543805305" lon="14.607641117566823"><ele>914.0</ele><time>2026-05-02T13:29:09Z</time></trkpt><trkpt lat="41.18238896905847" lon="14.607840801834591"><ele>914.0</ele><time>2026-05-02T13:29:10Z</time></trkpt><trkpt lat="41.18236720093331" lon="14.608048789555198"><ele>923.3333333333334</ele><time>2026-05-02T13:29:11Z</time></trkpt><trkpt lat="41.182344063753916" lon="14.608262294863202"><ele>932.6666666666667</ele><time>2026-05-02T13:29:12Z</time></trkpt><trkpt lat="41.18230310351477" lon="14.608478297790759"><ele>942.0</ele><time>2026-05-02T13:29:13Z</time></trkpt><trkpt lat="41.18226924644375" lon="14.60869756807348"><ele>942.0</ele><time>2026-05-02T13:29:14Z</time></trkpt><trkpt lat="41.182228898379726" lon="14.608902766209189"><ele>942.0</ele><time>2026-05-02T13:29:15Z</time></trkpt><trkpt lat="41.182193359097234" lon="14.609109620666992"><ele>942.0</ele><time>2026-05-02T13:29:16Z</time></trkpt><trkpt lat="41.182160615187414" lon="14.60930962743719"><ele>938.5</ele><time>2026-05-02T13:29:17Z</time></trkpt><trkpt lat="41.18213133206467" lon="14.609506557763977"><ele>935.0</ele><time>2026-05-02T13:29:18Z</time></trkpt><trkpt lat="41.18209178733931" lon="14.60969368268927"><ele>931.5</ele><time>2026-05-02T13:29:19Z</time></trkpt><trkpt lat="41.18205098658248" lon="14.609886291347292"><ele>928.0</ele><time>2026-05-02T13:29:20Z</time></trkpt><trkpt lat="41.18199478584876" lon="14.610056327792726"><ele>928.0</ele><time>2026-05-02T13:29:21Z</time></trkpt><trkpt lat="41.18189808902588" lon="14.610193890143004"><ele>928.0</ele><time>2026-05-02T13:29:22Z</time></trkpt><trkpt lat="41.181838934014294" lon="14.610356585375166"><ele>928.0</ele><time>2026-05-02T13:29:23Z</time></trkpt><trkpt lat="41.18181240402177" lon="14.610542242571888"><ele>928.0</ele><time>2026-05-02T13:29:24Z</time></trkpt><trkpt lat="41.181798175435596" lon="14.61069545195409"><ele>923.75</ele><time>2026-05-02T13:29:25Z</time></trkpt><trkpt lat="41.181793758934745" lon="14.610839615499918"><ele>919.5</ele><time>2026-05-02T13:29:26Z</time></trkpt><trkpt lat="41.181815356063595" lon="14.61098866428148"><ele>915.25</ele><time>2026-05-02T13:29:27Z</time></trkpt><trkpt lat="41.18187439097986" lon="14.611139016503682"><ele>911.0</ele><time>2026-05-02T13:29:28Z</time></trkpt><trkpt lat="41.18195343859114" lon="14.611273374339872"><ele>910.4</ele><time>2026-05-02T13:29:29Z</time></trkpt><trkpt lat="41.18202648351334" lon="14.611401213533734"><ele>909.8</ele><time>2026-05-02T13:29:30Z</time></trkpt><trkpt lat="41.18206992322771" lon="14.61152984339595"><ele>909.1999999999999</ele><time>2026-05-02T13:29:31Z</time></trkpt><trkpt lat="41.182106030929766" lon="14.611683154918854"><ele>908.5999999999999</ele><time>2026-05-02T13:29:32Z</time></trkpt><trkpt lat="41.182124109129276" lon="14.61180782612988"><ele>908.0</ele><time>2026-05-02T13:29:33Z</time></trkpt><trkpt lat="41.18213858271986" lon="14.611952319425269"><ele>904.75</ele><time>2026-05-02T13:29:34Z</time></trkpt><trkpt lat="41.18210092286696" lon="14.61211894445569"><ele>901.5</ele><time>2026-05-02T13:29:35Z</time></trkpt><trkpt lat="41.182026246979035" lon="14.612239323497674"><ele>898.25</ele><time>2026-05-02T13:29:36Z</time></trkpt><trkpt lat="41.18194504886853" lon="14.612340805155867"><ele>895.0</ele><time>2026-05-02T13:29:37Z</time></trkpt><trkpt lat="41.181868977992686" lon="14.612432812094815"><ele>894.9999999999999</ele><time>2026-05-02T13:29:38Z</time></trkpt><trkpt lat="41.18182323288909" lon="14.61252336968698"><ele>895.0</ele><time>2026-05-02T13:29:39Z</time></trkpt><trkpt lat="41.18176324025191" lon="14.612618209373833"><ele>895.0</ele><time>2026-05-02T13:29:40Z</time></trkpt><trkpt lat="41.181750841795186" lon="14.612725481941592"><ele>895.0</ele><time>2026-05-02T13:29:41Z</time></trkpt><trkpt lat="41.1817664166331" lon="14.612833560882933"><ele>894.9999999999999</ele><time>2026-05-02T13:29:42Z</time></trkpt><trkpt lat="41.18182024120153" lon="14.61294102489974"><ele>895.0</ele><time>2026-05-02T13:29:43Z</time></trkpt><trkpt lat="41.18189451299523" lon="14.613041965547927"><ele>894.2</ele><time>2026-05-02T13:29:44Z</time></trkpt><trkpt lat="41.181958587407316" lon="14.613149654337333"><ele>893.4</ele><time>2026-05-02T13:29:45Z</time></trkpt><trkpt lat="41.18200267869173" lon="14.613262404350166"><ele>892.5999999999999</ele><time>2026-05-02T13:29:46Z</time></trkpt><trkpt lat="41.182040720141025" lon="14.613394190866003"><ele>891.8</ele><time>2026-05-02T13:29:47Z</time></trkpt><trkpt lat="41.182058883072465" lon="14.613528889760559"><ele>891.0</ele><time>2026-05-02T13:29:48Z</time></trkpt><trkpt lat="41.18206438636026" lon="14.613662544708877"><ele>890.5</ele><time>2026-05-02T13:29:49Z</time></trkpt><trkpt lat="41.182053103705904" lon="14.61382169996823"><ele>890.0</ele><time>2026-05-02T13:29:50Z</time></trkpt><trkpt lat="41.182029671351614" lon="14.613984596196609"><ele>889.5</ele><time>2026-05-02T13:29:51Z</time></trkpt><trkpt lat="41.18199171090205" lon="14.614165213022648"><ele>889.0</ele><time>2026-05-02T13:29:52Z</time></trkpt><trkpt lat="41.18195309572627" lon="14.614318121005244"><ele>889.0</ele><time>2026-05-02T13:29:53Z</time></trkpt><trkpt lat="41.181913191241996" lon="14.6144595649281"><ele>889.0000000000001</ele><time>2026-05-02T13:29:54Z</time></trkpt><trkpt lat="41.18188215902634" lon="14.614570866510832"><ele>889.0000000000001</ele><time>2026-05-02T13:29:55Z</time></trkpt><trkpt lat="41.18186703079287" lon="14.614687569103793"><ele>889.0</ele><time>2026-05-02T13:29:56Z</time></trkpt><trkpt lat="41.181885507239656" lon="14.614808663593815"><ele>889.0</ele><time>2026-05-02T13:29:57Z</time></trkpt><trkpt lat="41.18194236117728" lon="14.614929993114865"><ele>888.25</ele><time>2026-05-02T13:29:58Z</time></trkpt><trkpt lat="41.18204198891569" lon="14.615021685679318"><ele>887.5</ele><time>2026-05-02T13:29:59Z</time></trkpt><trkpt lat="41.18213857508545" lon="14.615127954809644"><ele>886.75</ele><time>2026-05-02T13:30:00Z</time></trkpt><trkpt lat="41.18224066514839" lon="14.615227881719083"><ele>886.0</ele><time>2026-05-02T13:30:01Z</time></trkpt><trkpt lat="41.18232554122155" lon="14.615349461177805"><ele>878.8</ele><time>2026-05-02T13:30:02Z</time></trkpt><trkpt lat="41.18238716671006" lon="14.615452657144502"><ele>871.5999999999999</ele><time>2026-05-02T13:30:03Z</time></trkpt><trkpt lat="41.18244823515763" lon="14.61553725962843"><ele>864.4</ele><time>2026-05-02T13:30:04Z</time></trkpt><trkpt lat="41.1825286698139" lon="14.615574916160826"><ele>857.2</ele><time>2026-05-02T13:30:05Z</time></trkpt><trkpt lat="41.18261580298817" lon="14.615577967705654"><ele>850.0</ele><time>2026-05-02T13:30:06Z</time></trkpt><trkpt lat="41.182703157236986" lon="14.615512512168758"><ele>850.0</ele><time>2026-05-02T13:30:07Z</time></trkpt><trkpt lat="41.18281938803005" lon="14.615459065802291"><ele>850.0</ele><time>2026-05-02T13:30:08Z</time></trkpt><trkpt lat="41.18292895330529" lon="14.615381563696824"><ele>850.0</ele><time>2026-05-02T13:30:09Z</time></trkpt><trkpt lat="41.18303185579626" lon="14.61539132279983"><ele>850.0</ele><time>2026-05-02T13:30:10Z</time></trkpt><trkpt lat="41.18312812438042" lon="14.615411233794438"><ele>850.0</ele><time>2026-05-02T13:30:11Z</time></trkpt><trkpt lat="41.1832265379283" lon="14.615432604640214"><ele>846.6</ele><time>2026-05-02T13:30:12Z</time></trkpt><trkpt lat="41.1833098083879" lon="14.615511304064874"><ele>843.2</ele><time>2026-05-02T13:30:13Z</time></trkpt><trkpt lat="41.183369495158466" lon="14.615619995674521"><ele>839.8</ele><time>2026-05-02T13:30:14Z</time></trkpt><trkpt lat="41.18340672632454" lon="14.615746487220962"><ele>836.4</ele><time>2026-05-02T13:30:15Z</time></trkpt><trkpt lat="41.18343182921122" lon="14.61587884153219"><ele>833.0</ele><time>2026-05-02T13:30:16Z</time></trkpt><trkpt lat="41.18343707450744" lon="14.616010186452773"><ele>829.5</ele><time>2026-05-02T13:30:16.999Z</time></trkpt><trkpt lat="41.18343610926894" lon="14.616154630765886"><ele>826.0</ele><time>2026-05-02T13:30:17.999Z</time></trkpt><trkpt lat="41.18340545160241" lon="14.616298056262357"><ele>822.5</ele><time>2026-05-02T13:30:18.999Z</time></trkpt><trkpt lat="41.183343369424314" lon="14.616438964261151"><ele>819.0</ele><time>2026-05-02T13:30:19.999Z</time></trkpt><trkpt lat="41.1832688596619" lon="14.616575595605465"><ele>819.0</ele><time>2026-05-02T13:30:20.999Z</time></trkpt><trkpt lat="41.18320830694379" lon="14.616691717737536"><ele>819.0</ele><time>2026-05-02T13:30:21.999Z</time></trkpt><trkpt lat="41.183151049301" lon="14.616774798154266"><ele>819.0</ele><time>2026-05-02T13:30:22.999Z</time></trkpt><trkpt lat="41.18308622248038" lon="14.616828981887888"><ele>819.0</ele><time>2026-05-02T13:30:23.999Z</time></trkpt><trkpt lat="41.18300009481765" lon="14.616824566681192"><ele>819.0</ele><time>2026-05-02T13:30:24.999Z</time></trkpt><trkpt lat="41.18291977315101" lon="14.616759107174508"><ele>819.0</ele><time>2026-05-02T13:30:25.999Z</time></trkpt><trkpt lat="41.18283242368522" lon="14.616727391260909"><ele>819.8000000000001</ele><time>2026-05-02T13:30:26.999Z</time></trkpt><trkpt lat="41.18274787723299" lon="14.616722387342714"><ele>820.6</ele><time>2026-05-02T13:30:27.999Z</time></trkpt><trkpt lat="41.1826624009699" lon="14.616726227434363"><ele>821.4</ele><time>2026-05-02T13:30:28.999Z</time></trkpt><trkpt lat="41.18258152860247" lon="14.616808446476172"><ele>822.2</ele><time>2026-05-02T13:30:30Z</time></trkpt><trkpt lat="41.18254734907801" lon="14.616937381521469"><ele>823.0</ele><time>2026-05-02T13:30:31Z</time></trkpt><trkpt lat="41.18251157873073" lon="14.617084025248104"><ele>823.0</ele><time>2026-05-02T13:30:32Z</time></trkpt><trkpt lat="41.182473669504226" lon="14.617250219963152"><ele>823.0</ele><time>2026-05-02T13:30:33Z</time></trkpt><trkpt lat="41.18242918882232" lon="14.617428752660548"><ele>823.0</ele><time>2026-05-02T13:30:34Z</time></trkpt><trkpt lat="41.18240941492051" lon="14.617600995357645"><ele>823.0</ele><time>2026-05-02T13:30:35Z</time></trkpt><trkpt lat="41.18242093999936" lon="14.617763038345641"><ele>821.8</ele><time>2026-05-02T13:30:36Z</time></trkpt><trkpt lat="41.18243892038679" lon="14.617889915017962"><ele>820.5999999999999</ele><time>2026-05-02T13:30:37Z</time></trkpt><trkpt lat="41.18248430437909" lon="14.61801285444523"><ele>819.4000000000001</ele><time>2026-05-02T13:30:38Z</time></trkpt><trkpt lat="41.18255668760836" lon="14.61811828317937"><ele>818.2</ele><time>2026-05-02T13:30:39Z</time></trkpt><trkpt lat="41.18261317268046" lon="14.618238032967062"><ele>817.0</ele><time>2026-05-02T13:30:40Z</time></trkpt><trkpt lat="41.18267953231497" lon="14.61834050461986"><ele>817.0</ele><time>2026-05-02T13:30:41Z</time></trkpt><trkpt lat="41.18272637407437" lon="14.618437320306466"><ele>817.0</ele><time>2026-05-02T13:30:42Z</time></trkpt><trkpt lat="41.182761369326855" lon="14.618537792433768"><ele>817.0</ele><time>2026-05-02T13:30:43Z</time></trkpt><trkpt lat="41.18280462664789" lon="14.618659165965996"><ele>817.0</ele><time>2026-05-02T13:30:44Z</time></trkpt><trkpt lat="41.182831876157906" lon="14.618786924729973"><ele>817.0</ele><time>2026-05-02T13:30:45Z</time></trkpt><trkpt lat="41.182842283427625" lon="14.618904269636747"><ele>817.1666666666666</ele><time>2026-05-02T13:30:46Z</time></trkpt><trkpt lat="41.182857017862496" lon="14.619007438052796"><ele>817.3333333333333</ele><time>2026-05-02T13:30:47Z</time></trkpt><trkpt lat="41.18287052581836" lon="14.619089527750194"><ele>817.5</ele><time>2026-05-02T13:30:48Z</time></trkpt><trkpt lat="41.182895155324985" lon="14.619227357880447"><ele>817.6666666666667</ele><time>2026-05-02T13:30:50Z</time></trkpt><trkpt lat="41.18291321412911" lon="14.619307602489071"><ele>817.8333333333334</ele><time>2026-05-02T13:30:51Z</time></trkpt><trkpt lat="41.18292438329445" lon="14.619394341543813"><ele>818.0</ele><time>2026-05-02T13:30:52Z</time></trkpt><trkpt lat="41.18293581617446" lon="14.619497865189231"><ele>818.0</ele><time>2026-05-02T13:30:53Z</time></trkpt><trkpt lat="41.18293862342969" lon="14.61962201052194"><ele>818.0</ele><time>2026-05-02T13:30:54Z</time></trkpt><trkpt lat="41.182935958274186" lon="14.619761876824327"><ele>818.0</ele><time>2026-05-02T13:30:55Z</time></trkpt><trkpt lat="41.182923727608184" lon="14.619910064239651"><ele>818.0</ele><time>2026-05-02T13:30:56Z</time></trkpt><trkpt lat="41.18290687561096" lon="14.620082828060687"><ele>818.0</ele><time>2026-05-02T13:30:57Z</time></trkpt><trkpt lat="41.182896388858914" lon="14.620271869657511"><ele>817.75</ele><time>2026-05-02T13:30:58Z</time></trkpt><trkpt lat="41.18288719832365" lon="14.620453067148201"><ele>817.5</ele><time>2026-05-02T13:30:59Z</time></trkpt><trkpt lat="41.18287763353799" lon="14.620648618400367"><ele>817.25</ele><time>2026-05-02T13:31:00Z</time></trkpt><trkpt lat="41.18286175536421" lon="14.620859196592225"><ele>817.0</ele><time>2026-05-02T13:31:01Z</time></trkpt><trkpt lat="41.18284870501282" lon="14.621056737848548"><ele>817.0</ele><time>2026-05-02T13:31:02Z</time></trkpt><trkpt lat="41.1828357065175" lon="14.621261923910938"><ele>817.0</ele><time>2026-05-02T13:31:03Z</time></trkpt><trkpt lat="41.182826966884846" lon="14.621471593493196"><ele>817.0</ele><time>2026-05-02T13:31:04Z</time></trkpt><trkpt lat="41.18281519406876" lon="14.621684602703324"><ele>817.0</ele><time>2026-05-02T13:31:05Z</time></trkpt><trkpt lat="41.18278741426688" lon="14.621898116852966"><ele>817.0</ele><time>2026-05-02T13:31:06Z</time></trkpt><trkpt lat="41.18276981280373" lon="14.622120993580817"><ele>817.0</ele><time>2026-05-02T13:31:07Z</time></trkpt><trkpt lat="41.1827494302556" lon="14.622343702354042"><ele>816.3333333333333</ele><time>2026-05-02T13:31:08Z</time></trkpt><trkpt lat="41.18272915757031" lon="14.622565210660563"><ele>815.6666666666667</ele><time>2026-05-02T13:31:09Z</time></trkpt><trkpt lat="41.18270870753234" lon="14.622788656944293"><ele>815.0</ele><time>2026-05-02T13:31:10Z</time></trkpt><trkpt lat="41.18268783398513" lon="14.623016732290573"><ele>813.0</ele><time>2026-05-02T13:31:11Z</time></trkpt><trkpt lat="41.182666278113096" lon="14.62325226317999"><ele>811.0</ele><time>2026-05-02T13:31:12Z</time></trkpt><trkpt lat="41.18264409118509" lon="14.62349468930204"><ele>809.0</ele><time>2026-05-02T13:31:13Z</time></trkpt><trkpt lat="41.182652440803196" lon="14.62373728817493"><ele>807.3333333333334</ele><time>2026-05-02T13:31:14Z</time></trkpt><trkpt lat="41.18262962418395" lon="14.623974397746261"><ele>805.6666666666667</ele><time>2026-05-02T13:31:15Z</time></trkpt><trkpt lat="41.18261084612015" lon="14.624205721606016"><ele>804.0</ele><time>2026-05-02T13:31:16Z</time></trkpt><trkpt lat="41.18259298116809" lon="14.624441679208598"><ele>802.3333333333333</ele><time>2026-05-02T13:31:17Z</time></trkpt><trkpt lat="41.18255916172" lon="14.624673450038873"><ele>800.6666666666666</ele><time>2026-05-02T13:31:18Z</time></trkpt><trkpt lat="41.182528934132456" lon="14.6249025602201"><ele>799.0</ele><time>2026-05-02T13:31:19Z</time></trkpt><trkpt lat="41.18248523322613" lon="14.625144355861853"><ele>797.3333333333333</ele><time>2026-05-02T13:31:20Z</time></trkpt><trkpt lat="41.18243468270087" lon="14.625378915341313"><ele>795.6666666666667</ele><time>2026-05-02T13:31:21Z</time></trkpt><trkpt lat="41.18236910662868" lon="14.625598611027772"><ele>794.0</ele><time>2026-05-02T13:31:22Z</time></trkpt><trkpt lat="41.18230157718977" lon="14.625819661669649"><ele>793.6666666666667</ele><time>2026-05-02T13:31:23Z</time></trkpt><trkpt lat="41.18223683129236" lon="14.626034218574008"><ele>793.3333333333333</ele><time>2026-05-02T13:31:24Z</time></trkpt><trkpt lat="41.18217222765363" lon="14.626239055060287"><ele>793.0</ele><time>2026-05-02T13:31:25Z</time></trkpt><trkpt lat="41.18210688788916" lon="14.62642478202687"><ele>793.0</ele><time>2026-05-02T13:31:26Z</time></trkpt><trkpt lat="41.18204790190759" lon="14.626592468003565"><ele>793.0</ele><time>2026-05-02T13:31:27Z</time></trkpt><trkpt lat="41.181995638609344" lon="14.626750178947098"><ele>793.0</ele><time>2026-05-02T13:31:28Z</time></trkpt><trkpt lat="41.18195695391251" lon="14.626880862314149"><ele>793.0</ele><time>2026-05-02T13:31:29Z</time></trkpt><trkpt lat="41.18193225830494" lon="14.627024333359824"><ele>791.2</ele><time>2026-05-02T13:31:30Z</time></trkpt><trkpt lat="41.181920777619844" lon="14.627163607873282"><ele>789.4</ele><time>2026-05-02T13:31:31Z</time></trkpt><trkpt lat="41.18192625862469" lon="14.627297858700308"><ele>787.6</ele><time>2026-05-02T13:31:32Z</time></trkpt><trkpt lat="41.1819403270168" lon="14.62742087228549"><ele>785.8000000000001</ele><time>2026-05-02T13:31:33Z</time></trkpt><trkpt lat="41.181954510873176" lon="14.627558166382837"><ele>784.0</ele><time>2026-05-02T13:31:34Z</time></trkpt><trkpt lat="41.181957380327454" lon="14.627699223015817"><ele>783.4000000000001</ele><time>2026-05-02T13:31:35Z</time></trkpt><trkpt lat="41.18194874708142" lon="14.627838944096762"><ele>782.8</ele><time>2026-05-02T13:31:36Z</time></trkpt><trkpt lat="41.18192568991316" lon="14.62797303313588"><ele>782.2</ele><time>2026-05-02T13:31:37Z</time></trkpt><trkpt lat="41.18189316393048" lon="14.62810831565329"><ele>781.5999999999999</ele><time>2026-05-02T13:31:38Z</time></trkpt><trkpt lat="41.18184411019353" lon="14.628247886591808"><ele>781.0</ele><time>2026-05-02T13:31:39Z</time></trkpt><trkpt lat="41.18179724708513" lon="14.628384701682355"><ele>781.0</ele><time>2026-05-02T13:31:40Z</time></trkpt><trkpt lat="41.18174198839472" lon="14.628528992332454"><ele>781.0</ele><time>2026-05-02T13:31:41Z</time></trkpt><trkpt lat="41.18168795861296" lon="14.62868977194827"><ele>781.0</ele><time>2026-05-02T13:31:42Z</time></trkpt><trkpt lat="41.18162044676197" lon="14.628859466832145"><ele>781.0</ele><time>2026-05-02T13:31:43Z</time></trkpt><trkpt lat="41.181552840145145" lon="14.629026398341765"><ele>775.0</ele><time>2026-05-02T13:31:44Z</time></trkpt><trkpt lat="41.18148897623667" lon="14.629187295504012"><ele>769.0</ele><time>2026-05-02T13:31:45Z</time></trkpt><trkpt lat="41.181427277327636" lon="14.629350797691027"><ele>763.0</ele><time>2026-05-02T13:31:46Z</time></trkpt><trkpt lat="41.18136751683567" lon="14.629513394162755"><ele>757.0</ele><time>2026-05-02T13:31:47Z</time></trkpt><trkpt lat="41.18131047219914" lon="14.62967634328414"><ele>757.0</ele><time>2026-05-02T13:31:48Z</time></trkpt><trkpt lat="41.181255515952316" lon="14.629841362603212"><ele>757.0</ele><time>2026-05-02T13:31:49Z</time></trkpt><trkpt lat="41.18119888826705" lon="14.630023512747037"><ele>757.0</ele><time>2026-05-02T13:31:50Z</time></trkpt><trkpt lat="41.181146513026015" lon="14.6302113673113"><ele>757.0</ele><time>2026-05-02T13:31:51Z</time></trkpt><trkpt lat="41.18110155005688" lon="14.630404416791144"><ele>757.0</ele><time>2026-05-02T13:31:52Z</time></trkpt><trkpt lat="41.18105285494136" lon="14.630585158889435"><ele>757.0</ele><time>2026-05-02T13:31:53Z</time></trkpt><trkpt lat="41.18099203448391" lon="14.630768942398158"><ele>757.0</ele><time>2026-05-02T13:31:54Z</time></trkpt><trkpt lat="41.18093563630104" lon="14.630945473207367"><ele>757.0</ele><time>2026-05-02T13:31:55Z</time></trkpt><trkpt lat="41.18087820781065" lon="14.631118982502462"><ele>759.0</ele><time>2026-05-02T13:31:56Z</time></trkpt><trkpt lat="41.18081921239299" lon="14.631293736277303"><ele>761.0</ele><time>2026-05-02T13:31:57Z</time></trkpt><trkpt lat="41.1807549897344" lon="14.631465554935907"><ele>763.0</ele><time>2026-05-02T13:31:58Z</time></trkpt><trkpt lat="41.18069361717512" lon="14.631640199135395"><ele>765.0</ele><time>2026-05-02T13:31:59Z</time></trkpt><trkpt lat="41.18063071250966" lon="14.631806646390903"><ele>752.0</ele><time>2026-05-02T13:32:00Z</time></trkpt><trkpt lat="41.18056722233765" lon="14.631985733422862"><ele>739.0</ele><time>2026-05-02T13:32:01Z</time></trkpt><trkpt lat="41.18050354135422" lon="14.632174030310122"><ele>726.0</ele><time>2026-05-02T13:32:02Z</time></trkpt><trkpt lat="41.18043993535137" lon="14.632375327242043"><ele>726.0</ele><time>2026-05-02T13:32:03Z</time></trkpt><trkpt lat="41.1803779105231" lon="14.632576824325913"><ele>726.0</ele><time>2026-05-02T13:32:04Z</time></trkpt><trkpt lat="41.18031684571169" lon="14.632795018737756"><ele>726.0</ele><time>2026-05-02T13:32:05Z</time></trkpt><trkpt lat="41.18025832870794" lon="14.633014250527554"><ele>728.6666666666666</ele><time>2026-05-02T13:32:06Z</time></trkpt><trkpt lat="41.18020339107846" lon="14.633235329277644"><ele>731.3333333333333</ele><time>2026-05-02T13:32:07Z</time></trkpt><trkpt lat="41.18014151013486" lon="14.63347381744382"><ele>734.0</ele><time>2026-05-02T13:32:08Z</time></trkpt><trkpt lat="41.1800970609805" lon="14.63369489074519"><ele>734.0</ele><time>2026-05-02T13:32:09Z</time></trkpt><trkpt lat="41.18005868996183" lon="14.633918313312575"><ele>734.0</ele><time>2026-05-02T13:32:10Z</time></trkpt><trkpt lat="41.180016728603235" lon="14.634134145915338"><ele>734.0</ele><time>2026-05-02T13:32:11Z</time></trkpt><trkpt lat="41.17997953324328" lon="14.634358841607101"><ele>733.3333333333333</ele><time>2026-05-02T13:32:12Z</time></trkpt><trkpt lat="41.17993995678512" lon="14.634572986446171"><ele>732.6666666666666</ele><time>2026-05-02T13:32:13Z</time></trkpt><trkpt lat="41.179904652278545" lon="14.63478589317116"><ele>732.0</ele><time>2026-05-02T13:32:14Z</time></trkpt><trkpt lat="41.179868940343916" lon="14.634988408461952"><ele>721.5</ele><time>2026-05-02T13:32:15Z</time></trkpt><trkpt lat="41.17984110376063" lon="14.635181288605017"><ele>711.0</ele><time>2026-05-02T13:32:16Z</time></trkpt><trkpt lat="41.17981039809197" lon="14.635357825885746"><ele>700.5</ele><time>2026-05-02T13:32:17Z</time></trkpt><trkpt lat="41.179792331912935" lon="14.635521581574736"><ele>690.0</ele><time>2026-05-02T13:32:18Z</time></trkpt><trkpt lat="41.17978830800705" lon="14.635678564673798"><ele>689.5</ele><time>2026-05-02T13:32:19Z</time></trkpt><trkpt lat="41.17980126893352" lon="14.635811549022202"><ele>689.0</ele><time>2026-05-02T13:32:20Z</time></trkpt><trkpt lat="41.179842207641144" lon="14.635913881756446"><ele>688.5</ele><time>2026-05-02T13:32:21Z</time></trkpt><trkpt lat="41.17988888050342" lon="14.636012963467383"><ele>688.0</ele><time>2026-05-02T13:32:22Z</time></trkpt><trkpt lat="41.17992911131152" lon="14.636087324408686"><ele>687.5</ele><time>2026-05-02T13:32:23Z</time></trkpt><trkpt lat="41.17993400080169" lon="14.636204332092689"><ele>687.0</ele><time>2026-05-02T13:32:25Z</time></trkpt><trkpt lat="41.17984087067187" lon="14.6362459584838"><ele>687.0</ele><time>2026-05-02T13:32:27Z</time></trkpt><trkpt lat="41.17978470527522" lon="14.636198589159436"><ele>687.0</ele><time>2026-05-02T13:32:28Z</time></trkpt><trkpt lat="41.17971869982181" lon="14.636099472186073"><ele>687.0</ele><time>2026-05-02T13:32:29Z</time></trkpt><trkpt lat="41.179668676843974" lon="14.635987158308247"><ele>687.0</ele><time>2026-05-02T13:32:30Z</time></trkpt><trkpt lat="41.179636545661644" lon="14.63585041337461"><ele>687.0</ele><time>2026-05-02T13:32:31Z</time></trkpt><trkpt lat="41.17959875899462" lon="14.635702913526558"><ele>687.0</ele><time>2026-05-02T13:32:32Z</time></trkpt><trkpt lat="41.179575197794584" lon="14.635525381107552"><ele>687.0</ele><time>2026-05-02T13:32:33Z</time></trkpt><trkpt lat="41.17955702004742" lon="14.63532833128645"><ele>687.0</ele><time>2026-05-02T13:32:34Z</time></trkpt><trkpt lat="41.17954294550518" lon="14.63511258635003"><ele>687.0</ele><time>2026-05-02T13:32:35Z</time></trkpt><trkpt lat="41.179515561227014" lon="14.634901381396121"><ele>686.6666666666666</ele><time>2026-05-02T13:32:36Z</time></trkpt><trkpt lat="41.17950249667994" lon="14.634669819279981"><ele>686.3333333333333</ele><time>2026-05-02T13:32:37Z</time></trkpt><trkpt lat="41.17949298554122" lon="14.634433085132695"><ele>686.0</ele><time>2026-05-02T13:32:38Z</time></trkpt><trkpt lat="41.179478912350625" lon="14.634213256061914"><ele>686.0</ele><time>2026-05-02T13:32:39Z</time></trkpt><trkpt lat="41.179477382691125" lon="14.634005262479581"><ele>686.0</ele><time>2026-05-02T13:32:40Z</time></trkpt><trkpt lat="41.17947196937172" lon="14.63381049107081"><ele>686.0</ele><time>2026-05-02T13:32:41Z</time></trkpt><trkpt lat="41.17946617242823" lon="14.633612779537453"><ele>685.0</ele><time>2026-05-02T13:32:42Z</time></trkpt><trkpt lat="41.179461650630486" lon="14.633410568419013"><ele>684.0</ele><time>2026-05-02T13:32:43Z</time></trkpt><trkpt lat="41.17946340778531" lon="14.633223127893862"><ele>683.0</ele><time>2026-05-02T13:32:44Z</time></trkpt><trkpt lat="41.179468682318536" lon="14.633030299094418"><ele>682.0</ele><time>2026-05-02T13:32:45Z</time></trkpt><trkpt lat="41.17947898355223" lon="14.632876209731851"><ele>680.8</ele><time>2026-05-02T13:32:46Z</time></trkpt><trkpt lat="41.17949464176521" lon="14.632735362252024"><ele>679.6</ele><time>2026-05-02T13:32:47Z</time></trkpt><trkpt lat="41.17951270305151" lon="14.632603615730009"><ele>678.4</ele><time>2026-05-02T13:32:48Z</time></trkpt><trkpt lat="41.1795432642092" lon="14.632481789136227"><ele>677.1999999999999</ele><time>2026-05-02T13:32:49Z</time></trkpt><trkpt lat="41.179580624801225" lon="14.632380134865855"><ele>676.0</ele><time>2026-05-02T13:32:50Z</time></trkpt><trkpt lat="41.179609993735085" lon="14.632291641614994"><ele>676.0</ele><time>2026-05-02T13:32:51Z</time></trkpt><trkpt lat="41.17962262797783" lon="14.63215356961434"><ele>676.0</ele><time>2026-05-02T13:32:53Z</time></trkpt><trkpt lat="41.179533508296" lon="14.632075583463992"><ele>676.0</ele><time>2026-05-02T13:32:55Z</time></trkpt><trkpt lat="41.17946463518502" lon="14.632131824510406"><ele>676.0</ele><time>2026-05-02T13:32:56Z</time></trkpt><trkpt lat="41.17941671198314" lon="14.632231398615106"><ele>676.0</ele><time>2026-05-02T13:32:57Z</time></trkpt><trkpt lat="41.17937593017022" lon="14.63236046029315"><ele>676.0</ele><time>2026-05-02T13:32:58Z</time></trkpt><trkpt lat="41.17932706464851" lon="14.632519394186989"><ele>676.0</ele><time>2026-05-02T13:32:59Z</time></trkpt><trkpt lat="41.17926036038396" lon="14.632690840291923"><ele>676.0</ele><time>2026-05-02T13:33:00Z</time></trkpt><trkpt lat="41.179215050079804" lon="14.632878068948331"><ele>676.0</ele><time>2026-05-02T13:33:01Z</time></trkpt><trkpt lat="41.17915710318775" lon="14.633089060409825"><ele>678.0</ele><time>2026-05-02T13:33:02Z</time></trkpt><trkpt lat="41.179105225647874" lon="14.633302891615914"><ele>680.0</ele><time>2026-05-02T13:33:03Z</time></trkpt><trkpt lat="41.179054316413776" lon="14.6335056200644"><ele>682.0</ele><time>2026-05-02T13:33:04Z</time></trkpt><trkpt lat="41.17900089921091" lon="14.63371516773909"><ele>665.3333333333334</ele><time>2026-05-02T13:33:05Z</time></trkpt><trkpt lat="41.178949986278994" lon="14.633932271885731"><ele>648.6666666666666</ele><time>2026-05-02T13:33:06Z</time></trkpt><trkpt lat="41.178914013309466" lon="14.634143743629556"><ele>632.0</ele><time>2026-05-02T13:33:07Z</time></trkpt><trkpt lat="41.17888101368832" lon="14.634357254199164"><ele>633.0</ele><time>2026-05-02T13:33:08Z</time></trkpt><trkpt lat="41.17884329861273" lon="14.63457813849782"><ele>634.0</ele><time>2026-05-02T13:33:09Z</time></trkpt><trkpt lat="41.17880407485197" lon="14.634796006270788"><ele>635.0</ele><time>2026-05-02T13:33:10Z</time></trkpt><trkpt lat="41.178768262099325" lon="14.635018932137628"><ele>635.0</ele><time>2026-05-02T13:33:11Z</time></trkpt><trkpt lat="41.17873165628119" lon="14.635236317419329"><ele>635.0</ele><time>2026-05-02T13:33:12Z</time></trkpt><trkpt lat="41.178701622000844" lon="14.635441652846014"><ele>635.0</ele><time>2026-05-02T13:33:13Z</time></trkpt><trkpt lat="41.17865883292769" lon="14.63565036273859"><ele>634.3333333333333</ele><time>2026-05-02T13:33:14Z</time></trkpt><trkpt lat="41.17863234726104" lon="14.635863218725675"><ele>633.6666666666666</ele><time>2026-05-02T13:33:15Z</time></trkpt><trkpt lat="41.17863051653876" lon="14.636074743375024"><ele>633.0</ele><time>2026-05-02T13:33:16Z</time></trkpt><trkpt lat="41.178614629937194" lon="14.636298034774157"><ele>631.3333333333334</ele><time>2026-05-02T13:33:17Z</time></trkpt><trkpt lat="41.17860376164597" lon="14.636517369845944"><ele>629.6666666666667</ele><time>2026-05-02T13:33:18Z</time></trkpt><trkpt lat="41.17859863783841" lon="14.636744693021077"><ele>628.0</ele><time>2026-05-02T13:33:19Z</time></trkpt><trkpt lat="41.178597058624746" lon="14.636957338388989"><ele>625.75</ele><time>2026-05-02T13:33:20Z</time></trkpt><trkpt lat="41.178601798726916" lon="14.637169841261361"><ele>623.5</ele><time>2026-05-02T13:33:21Z</time></trkpt><trkpt lat="41.17862480676192" lon="14.63733630523439"><ele>621.25</ele><time>2026-05-02T13:33:22Z</time></trkpt><trkpt lat="41.17865262929933" lon="14.637505456577518"><ele>619.0</ele><time>2026-05-02T13:33:23Z</time></trkpt><trkpt lat="41.178673130787125" lon="14.637643459461831"><ele>619.0</ele><time>2026-05-02T13:33:24Z</time></trkpt><trkpt lat="41.178710894990125" lon="14.637782771188391"><ele>619.0</ele><time>2026-05-02T13:33:25Z</time></trkpt><trkpt lat="41.17875400011448" lon="14.637894634598588"><ele>619.0</ele><time>2026-05-02T13:33:26Z</time></trkpt><trkpt lat="41.178803806704956" lon="14.638003478870898"><ele>619.0</ele><time>2026-05-02T13:33:27Z</time></trkpt><trkpt lat="41.17885898472044" lon="14.63806950858811"><ele>619.0</ele><time>2026-05-02T13:33:28Z</time></trkpt><trkpt lat="41.17892987651974" lon="14.63817138747752"><ele>615.4</ele><time>2026-05-02T13:33:30Z</time></trkpt><trkpt lat="41.178863619098315" lon="14.638288675355119"><ele>611.8</ele><time>2026-05-02T13:33:32Z</time></trkpt><trkpt lat="41.178796424151" lon="14.638277822756"><ele>608.2</ele><time>2026-05-02T13:33:33Z</time></trkpt><trkpt lat="41.178731818208554" lon="14.638175259758475"><ele>604.6</ele><time>2026-05-02T13:33:34Z</time></trkpt><trkpt lat="41.17864728285166" lon="14.638068756719523"><ele>601.0</ele><time>2026-05-02T13:33:35Z</time></trkpt><trkpt lat="41.17855376517069" lon="14.637917209050407"><ele>607.0</ele><time>2026-05-02T13:33:36Z</time></trkpt><trkpt lat="41.17846275029811" lon="14.637752323464968"><ele>613.0</ele><time>2026-05-02T13:33:37Z</time></trkpt><trkpt lat="41.1783648013498" lon="14.637568423754066"><ele>619.0</ele><time>2026-05-02T13:33:38Z</time></trkpt><trkpt lat="41.17828309033353" lon="14.637374298015496"><ele>619.0</ele><time>2026-05-02T13:33:39Z</time></trkpt><trkpt lat="41.178215762589" lon="14.637185301268211"><ele>619.0</ele><time>2026-05-02T13:33:40Z</time></trkpt><trkpt lat="41.17816856271972" lon="14.636991576056177"><ele>619.0</ele><time>2026-05-02T13:33:41Z</time></trkpt><trkpt lat="41.178141834024785" lon="14.63679074385591"><ele>606.6666666666667</ele><time>2026-05-02T13:33:42Z</time></trkpt><trkpt lat="41.178116207909156" lon="14.63658393890085"><ele>594.3333333333334</ele><time>2026-05-02T13:33:43Z</time></trkpt><trkpt lat="41.17808746145126" lon="14.636371567845366"><ele>582.0</ele><time>2026-05-02T13:33:44Z</time></trkpt><trkpt lat="41.178071645088394" lon="14.636144053233885"><ele>584.0</ele><time>2026-05-02T13:33:45Z</time></trkpt><trkpt lat="41.17806225658617" lon="14.635923654284051"><ele>586.0</ele><time>2026-05-02T13:33:46Z</time></trkpt><trkpt lat="41.17805720784455" lon="14.635722732396585"><ele>588.0</ele><time>2026-05-02T13:33:47Z</time></trkpt><trkpt lat="41.17806030997141" lon="14.635518854992233"><ele>588.0</ele><time>2026-05-02T13:33:48Z</time></trkpt><trkpt lat="41.1780667636815" lon="14.63534338366412"><ele>588.0</ele><time>2026-05-02T13:33:49Z</time></trkpt><trkpt lat="41.1780769445813" lon="14.635172789173666"><ele>588.0</ele><time>2026-05-02T13:33:50Z</time></trkpt><trkpt lat="41.178092480305125" lon="14.635025870569935"><ele>588.0</ele><time>2026-05-02T13:33:51Z</time></trkpt><trkpt lat="41.17809871157234" lon="14.634886595868952"><ele>588.3333333333334</ele><time>2026-05-02T13:33:52Z</time></trkpt><trkpt lat="41.178111085960886" lon="14.634750226267688"><ele>588.6666666666666</ele><time>2026-05-02T13:33:53Z</time></trkpt><trkpt lat="41.178113029651655" lon="14.634625538291163"><ele>589.0</ele><time>2026-05-02T13:33:54Z</time></trkpt><trkpt lat="41.1781229263717" lon="14.634509275297885"><ele>589.3333333333333</ele><time>2026-05-02T13:33:55Z</time></trkpt><trkpt lat="41.178136245815374" lon="14.634412340165797"><ele>589.6666666666666</ele><time>2026-05-02T13:33:56Z</time></trkpt><trkpt lat="41.17814109155924" lon="14.634318987469506"><ele>590.0</ele><time>2026-05-02T13:33:57Z</time></trkpt><trkpt lat="41.17811446244043" lon="14.63423795968444"><ele>590.0</ele><time>2026-05-02T13:33:58Z</time></trkpt><trkpt lat="41.178023310652506" lon="14.634146713294259"><ele>590.0</ele><time>2026-05-02T13:34:00Z</time></trkpt><trkpt lat="41.17793723522365" lon="14.634220923842195"><ele>590.0</ele><time>2026-05-02T13:34:01Z</time></trkpt><trkpt lat="41.17789680523613" lon="14.634319407313411"><ele>590.0</ele><time>2026-05-02T13:34:02Z</time></trkpt><trkpt lat="41.17787148190046" lon="14.634441912562027"><ele>590.0</ele><time>2026-05-02T13:34:03Z</time></trkpt><trkpt lat="41.17786529450593" lon="14.63457763488814"><ele>590.0</ele><time>2026-05-02T13:34:04Z</time></trkpt><trkpt lat="41.177848304138664" lon="14.634726412763278"><ele>590.0</ele><time>2026-05-02T13:34:05Z</time></trkpt><trkpt lat="41.1778382743927" lon="14.634896838656754"><ele>590.0</ele><time>2026-05-02T13:34:06Z</time></trkpt><trkpt lat="41.17782157222221" lon="14.635068158382117"><ele>590.0</ele><time>2026-05-02T13:34:07Z</time></trkpt><trkpt lat="41.17778693374543" lon="14.635255027664158"><ele>589.3333333333333</ele><time>2026-05-02T13:34:08Z</time></trkpt><trkpt lat="41.17776765624114" lon="14.63545431882203"><ele>588.6666666666666</ele><time>2026-05-02T13:34:09Z</time></trkpt><trkpt lat="41.17774316509915" lon="14.635669768933017"><ele>588.0</ele><time>2026-05-02T13:34:10Z</time></trkpt><trkpt lat="41.17771586848899" lon="14.635878718409256"><ele>588.0</ele><time>2026-05-02T13:34:11Z</time></trkpt><trkpt lat="41.177694071665464" lon="14.636082732381778"><ele>588.0</ele><time>2026-05-02T13:34:12Z</time></trkpt><trkpt lat="41.17767153749192" lon="14.636279530977069"><ele>588.0</ele><time>2026-05-02T13:34:13Z</time></trkpt><trkpt lat="41.17765241500769" lon="14.636486791197694"><ele>586.0</ele><time>2026-05-02T13:34:14Z</time></trkpt><trkpt lat="41.17763417114749" lon="14.636690974893478"><ele>584.0</ele><time>2026-05-02T13:34:15.001Z</time></trkpt><trkpt lat="41.17762321253253" lon="14.636893924286309"><ele>582.0</ele><time>2026-05-02T13:34:16.001Z</time></trkpt><trkpt lat="41.177622737253714" lon="14.637092792437542"><ele>580.0</ele><time>2026-05-02T13:34:17.001Z</time></trkpt><trkpt lat="41.177623053355276" lon="14.637296183419046"><ele>578.0</ele><time>2026-05-02T13:34:18.001Z</time></trkpt><trkpt lat="41.17762130496466" lon="14.637489150546799"><ele>576.0</ele><time>2026-05-02T13:34:19.001Z</time></trkpt><trkpt lat="41.177622791614" lon="14.637678165536052"><ele>574.0</ele><time>2026-05-02T13:34:20.001Z</time></trkpt><trkpt lat="41.1776257756732" lon="14.637861344782165"><ele>572.0</ele><time>2026-05-02T13:34:21.001Z</time></trkpt><trkpt lat="41.17763490987374" lon="14.638035709259453"><ele>570.0</ele><time>2026-05-02T13:34:22.001Z</time></trkpt><trkpt lat="41.17764957986143" lon="14.638202325994325"><ele>568.0</ele><time>2026-05-02T13:34:23.001Z</time></trkpt><trkpt lat="41.17767153911916" lon="14.63837488406929"><ele>566.0</ele><time>2026-05-02T13:34:24.001Z</time></trkpt><trkpt lat="41.17768151026521" lon="14.638536539353984"><ele>564.4</ele><time>2026-05-02T13:34:25.001Z</time></trkpt><trkpt lat="41.17768733272533" lon="14.638690500582294"><ele>562.8</ele><time>2026-05-02T13:34:26.001Z</time></trkpt><trkpt lat="41.177688179746184" lon="14.638808819055624"><ele>561.1999999999999</ele><time>2026-05-02T13:34:27.001Z</time></trkpt><trkpt lat="41.17768326488055" lon="14.638896517426517"><ele>559.6</ele><time>2026-05-02T13:34:28.001Z</time></trkpt><trkpt lat="41.1776015573186" lon="14.639001945976469"><ele>558.0</ele><time>2026-05-02T13:34:30Z</time></trkpt><trkpt lat="41.177487581797976" lon="14.638942601176845"><ele>558.0</ele><time>2026-05-02T13:34:32Z</time></trkpt><trkpt lat="41.177464799214334" lon="14.638846962855537"><ele>558.0</ele><time>2026-05-02T13:34:33Z</time></trkpt><trkpt lat="41.1774528825799" lon="14.63872652969642"><ele>558.0</ele><time>2026-05-02T13:34:34Z</time></trkpt><trkpt lat="41.17744113044163" lon="14.638587755175898"><ele>558.0</ele><time>2026-05-02T13:34:35Z</time></trkpt><trkpt lat="41.17742266257474" lon="14.638429924301844"><ele>558.0</ele><time>2026-05-02T13:34:36Z</time></trkpt><trkpt lat="41.17739491283189" lon="14.638254110253266"><ele>559.6</ele><time>2026-05-02T13:34:37Z</time></trkpt><trkpt lat="41.17735783430015" lon="14.638098652346129"><ele>561.1999999999999</ele><time>2026-05-02T13:34:38Z</time></trkpt><trkpt lat="41.17732295682544" lon="14.637972248016364"><ele>562.8</ele><time>2026-05-02T13:34:39Z</time></trkpt><trkpt lat="41.17730601715588" lon="14.637864156955086"><ele>564.4</ele><time>2026-05-02T13:34:40Z</time></trkpt><trkpt lat="41.177261094124304" lon="14.637779133554833"><ele>566.0</ele><time>2026-05-02T13:34:41Z</time></trkpt><trkpt lat="41.17720357284146" lon="14.637708477919247"><ele>560.8</ele><time>2026-05-02T13:34:42Z</time></trkpt><trkpt lat="41.177127182343995" lon="14.637684631501154"><ele>555.6</ele><time>2026-05-02T13:34:43Z</time></trkpt><trkpt lat="41.17704812002925" lon="14.6377665329247"><ele>550.4</ele><time>2026-05-02T13:34:45Z</time></trkpt><trkpt lat="41.177037004648405" lon="14.637879108088784"><ele>545.2</ele><time>2026-05-02T13:34:46Z</time></trkpt><trkpt lat="41.17701883695267" lon="14.638015888285327"><ele>540.0</ele><time>2026-05-02T13:34:47Z</time></trkpt><trkpt lat="41.17700107516283" lon="14.63815326717311"><ele>539.75</ele><time>2026-05-02T13:34:48Z</time></trkpt><trkpt lat="41.17696925575396" lon="14.638312411754358"><ele>539.5</ele><time>2026-05-02T13:34:49Z</time></trkpt><trkpt lat="41.176934390906986" lon="14.63847442974409"><ele>539.25</ele><time>2026-05-02T13:34:50Z</time></trkpt><trkpt lat="41.17688854909912" lon="14.63862543712579"><ele>539.0</ele><time>2026-05-02T13:34:51Z</time></trkpt><trkpt lat="41.176830178029796" lon="14.638761274670372"><ele>539.0</ele><time>2026-05-02T13:34:52Z</time></trkpt><trkpt lat="41.176766948629734" lon="14.638884957828848"><ele>539.0</ele><time>2026-05-02T13:34:53Z</time></trkpt><trkpt lat="41.17669195575217" lon="14.638986587868795"><ele>539.0</ele><time>2026-05-02T13:34:54Z</time></trkpt><trkpt lat="41.17663692254408" lon="14.63909057235955"><ele>539.0</ele><time>2026-05-02T13:34:55Z</time></trkpt><trkpt lat="41.17658755201128" lon="14.63918786224797"><ele>539.0</ele><time>2026-05-02T13:34:56Z</time></trkpt><trkpt lat="41.17653349039175" lon="14.639290390196301"><ele>536.5</ele><time>2026-05-02T13:34:57Z</time></trkpt><trkpt lat="41.176492391160195" lon="14.63937960446304"><ele>534.0</ele><time>2026-05-02T13:34:58Z</time></trkpt><trkpt lat="41.17642611033541" lon="14.639490658595056"><ele>531.5</ele><time>2026-05-02T13:35:00Z</time></trkpt><trkpt lat="41.17637668493198" lon="14.63956875783457"><ele>529.0</ele><time>2026-05-02T13:35:01Z</time></trkpt><trkpt lat="41.17634131051986" lon="14.639653565966364"><ele>526.5</ele><time>2026-05-02T13:35:02Z</time></trkpt><trkpt lat="41.176286822289626" lon="14.639719352954048"><ele>524.0</ele><time>2026-05-02T13:35:03Z</time></trkpt><trkpt lat="41.17622753130574" lon="14.639804309779858"><ele>523.8333333333333</ele><time>2026-05-02T13:35:04Z</time></trkpt><trkpt lat="41.176180291485935" lon="14.639870327564605"><ele>523.6666666666666</ele><time>2026-05-02T13:35:05Z</time></trkpt><trkpt lat="41.176138180325914" lon="14.639934685629878"><ele>523.5</ele><time>2026-05-02T13:35:06Z</time></trkpt><trkpt lat="41.17604549858292" lon="14.640049403801994"><ele>523.3333333333334</ele><time>2026-05-02T13:35:08Z</time></trkpt><trkpt lat="41.17600488313748" lon="14.640115370419913"><ele>523.1666666666667</ele><time>2026-05-02T13:35:09Z</time></trkpt><trkpt lat="41.17596312007962" lon="14.640180432817033"><ele>523.0</ele><time>2026-05-02T13:35:10Z</time></trkpt><trkpt lat="41.17590667940024" lon="14.640272990447576"><ele>521.4</ele><time>2026-05-02T13:35:12Z</time></trkpt><trkpt lat="41.17584873410284" lon="14.640353370015994"><ele>519.8</ele><time>2026-05-02T13:35:14Z</time></trkpt><trkpt lat="41.1757711240943" lon="14.640441629404464"><ele>518.2</ele><time>2026-05-02T13:35:16Z</time></trkpt><trkpt lat="41.17571496773915" lon="14.640481815984717"><ele>516.6</ele><time>2026-05-02T13:35:17Z</time></trkpt><trkpt lat="41.175588487469284" lon="14.640501243953079"><ele>515.0</ele><time>2026-05-02T13:35:19Z</time></trkpt><trkpt lat="41.17551455498257" lon="14.640468366006502"><ele>513.3333333333333</ele><time>2026-05-02T13:35:20Z</time></trkpt><trkpt lat="41.17544053812032" lon="14.640344653759142"><ele>511.66666666666663</ele><time>2026-05-02T13:35:22Z</time></trkpt><trkpt lat="41.17540098038164" lon="14.640273127290413"><ele>510.0</ele><time>2026-05-02T13:35:23Z</time></trkpt><trkpt lat="41.17534888847889" lon="14.640223165181869"><ele>508.33333333333337</ele><time>2026-05-02T13:35:24Z</time></trkpt><trkpt lat="41.175254927144735" lon="14.640195639297064"><ele>506.6666666666667</ele><time>2026-05-02T13:35:26Z</time></trkpt><trkpt lat="41.17517864957235" lon="14.640204813949897"><ele>505.0</ele><time>2026-05-02T13:35:29Z</time></trkpt><trkpt lat="41.17517608646976" lon="14.64040787465079"><ele>504.2</ele><time>2026-05-02T13:35:38Z</time></trkpt><trkpt lat="41.17521574498532" lon="14.640530234272138"><ele>503.4</ele><time>2026-05-02T13:35:40Z</time></trkpt><trkpt lat="41.17526861088627" lon="14.640648879946546"><ele>502.6</ele><time>2026-05-02T13:35:42Z</time></trkpt><trkpt lat="41.17531141444053" lon="14.6407647353304"><ele>501.8</ele><time>2026-05-02T13:35:44Z</time></trkpt><trkpt lat="41.175360288088065" lon="14.640897021092368"><ele>501.0</ele><time>2026-05-02T13:35:46Z</time></trkpt><trkpt lat="41.17540461221429" lon="14.641007152178185"><ele>501.0</ele><time>2026-05-02T13:35:48Z</time></trkpt><trkpt lat="41.17544720971277" lon="14.641121401231942"><ele>501.0</ele><time>2026-05-02T13:35:50Z</time></trkpt><trkpt lat="41.175471687167814" lon="14.641266215818778"><ele>501.0</ele><time>2026-05-02T13:35:53Z</time></trkpt><trkpt lat="41.175475443260545" lon="14.64138052287094"><ele>501.0</ele><time>2026-05-02T13:35:55.001Z</time></trkpt><trkpt lat="41.175463494460686" lon="14.641491425377355"><ele>501.0</ele><time>2026-05-02T13:36:13.001Z</time></trkpt><trkpt lat="41.17558093709757" lon="14.64163173729949"><ele>499.8</ele><time>2026-05-02T13:36:26.001Z</time></trkpt><trkpt lat="41.175669202034946" lon="14.641743056923092"><ele>498.6</ele><time>2026-05-02T13:36:28.001Z</time></trkpt><trkpt lat="41.17573748638739" lon="14.641829968377994"><ele>497.4</ele><time>2026-05-02T13:36:29.001Z</time></trkpt><trkpt lat="41.17580227736728" lon="14.641892903304097"><ele>496.2</ele><time>2026-05-02T13:36:30.001Z</time></trkpt><trkpt lat="41.175857987733494" lon="14.641987306055999"><ele>495.0</ele><time>2026-05-02T13:36:31.001Z</time></trkpt><trkpt lat="41.17594148827348" lon="14.642077727298611"><ele>497.6</ele><time>2026-05-02T13:36:33.001Z</time></trkpt><trkpt lat="41.17599701633561" lon="14.642163868697928"><ele>500.2</ele><time>2026-05-02T13:36:35Z</time></trkpt><trkpt lat="41.17599814839944" lon="14.642278717056506"><ele>502.79999999999995</ele><time>2026-05-02T13:36:37Z</time></trkpt><trkpt lat="41.17601175855112" lon="14.642418339141972"><ele>505.4</ele><time>2026-05-02T13:36:39Z</time></trkpt><trkpt lat="41.17598518266191" lon="14.642557369115226"><ele>508.0</ele><time>2026-05-02T13:36:41Z</time></trkpt><trkpt lat="41.176041157729316" lon="14.64270445415029"><ele>508.00000000000006</ele><time>2026-05-02T13:36:43Z</time></trkpt><trkpt lat="41.17603605936081" lon="14.642788475774205"><ele>508.0</ele><time>2026-05-02T13:36:44Z</time></trkpt><trkpt lat="41.1760343943466" lon="14.642879445183583"><ele>508.0</ele><time>2026-05-02T13:36:45Z</time></trkpt><trkpt lat="41.17603840229319" lon="14.642977187712974"><ele>508.0</ele><time>2026-05-02T13:36:46Z</time></trkpt><trkpt lat="41.17600987752815" lon="14.643082755687908"><ele>508.00000000000006</ele><time>2026-05-02T13:36:47Z</time></trkpt><trkpt lat="41.17601402815993" lon="14.64319373051886"><ele>508.0</ele><time>2026-05-02T13:36:48Z</time></trkpt><trkpt lat="41.176018734682174" lon="14.643319568109488"><ele>507.0</ele><time>2026-05-02T13:36:49Z</time></trkpt><trkpt lat="41.17602308553017" lon="14.643435896064275"><ele>505.99999999999994</ele><time>2026-05-02T13:36:50Z</time></trkpt><trkpt lat="41.17604094378714" lon="14.643549867224419"><ele>504.99999999999994</ele><time>2026-05-02T13:36:51Z</time></trkpt><trkpt lat="41.17603538221548" lon="14.643663535768667"><ele>504.0</ele><time>2026-05-02T13:36:52Z</time></trkpt><trkpt lat="41.17604549819202" lon="14.643789478494167"><ele>503.0</ele><time>2026-05-02T13:36:53Z</time></trkpt><trkpt lat="41.176058177947255" lon="14.643913047101503"><ele>502.4</ele><time>2026-05-02T13:36:54Z</time></trkpt><trkpt lat="41.176074735545676" lon="14.644044156044249"><ele>501.79999999999995</ele><time>2026-05-02T13:36:55Z</time></trkpt><trkpt lat="41.1760941545642" lon="14.644173416972697"><ele>501.2</ele><time>2026-05-02T13:36:56Z</time></trkpt><trkpt lat="41.17611330671107" lon="14.64429022700254"><ele>500.6</ele><time>2026-05-02T13:36:57Z</time></trkpt><trkpt lat="41.176139406805405" lon="14.64441870985687"><ele>500.0</ele><time>2026-05-02T13:36:58Z</time></trkpt><trkpt lat="41.176157970348655" lon="14.644544867386708"><ele>498.8</ele><time>2026-05-02T13:36:59Z</time></trkpt><trkpt lat="41.17618163473149" lon="14.644677278248787"><ele>497.6</ele><time>2026-05-02T13:37:00Z</time></trkpt><trkpt lat="41.17620348543201" lon="14.644803653071873"><ele>496.4</ele><time>2026-05-02T13:37:01Z</time></trkpt><trkpt lat="41.17622895419099" lon="14.644925565640914"><ele>495.2</ele><time>2026-05-02T13:37:02Z</time></trkpt><trkpt lat="41.17624778965917" lon="14.645053112891194"><ele>494.0</ele><time>2026-05-02T13:37:03Z</time></trkpt><trkpt lat="41.1762709528345" lon="14.645177270054727"><ele>492.79999999999995</ele><time>2026-05-02T13:37:04Z</time></trkpt><trkpt lat="41.17629645299248" lon="14.64531031538594"><ele>491.59999999999997</ele><time>2026-05-02T13:37:05Z</time></trkpt><trkpt lat="41.17631709014932" lon="14.645443380308413"><ele>490.4</ele><time>2026-05-02T13:37:06Z</time></trkpt><trkpt lat="41.17632502850349" lon="14.645580348549531"><ele>489.2</ele><time>2026-05-02T13:37:07Z</time></trkpt><trkpt lat="41.176349483616185" lon="14.645708029660746"><ele>488.0</ele><time>2026-05-02T13:37:08Z</time></trkpt><trkpt lat="41.176374498863005" lon="14.64583743810803"><ele>488.0</ele><time>2026-05-02T13:37:09Z</time></trkpt><trkpt lat="41.17639804358051" lon="14.645965326372336"><ele>487.99999999999994</ele><time>2026-05-02T13:37:10Z</time></trkpt><trkpt lat="41.176418810138735" lon="14.646095344439631"><ele>487.99999999999994</ele><time>2026-05-02T13:37:11Z</time></trkpt><trkpt lat="41.176439722968006" lon="14.646222154949282"><ele>488.0</ele><time>2026-05-02T13:37:12Z</time></trkpt><trkpt lat="41.17645961443898" lon="14.646347697614807"><ele>488.0</ele><time>2026-05-02T13:37:13Z</time></trkpt><trkpt lat="41.17648313441134" lon="14.646475343553423"><ele>486.79999999999995</ele><time>2026-05-02T13:37:14Z</time></trkpt><trkpt lat="41.17650271645928" lon="14.646605971230462"><ele>485.59999999999997</ele><time>2026-05-02T13:37:15Z</time></trkpt><trkpt lat="41.17651697238418" lon="14.64674085200493"><ele>484.40000000000003</ele><time>2026-05-02T13:37:16Z</time></trkpt><trkpt lat="41.176530768179305" lon="14.6468736692607"><ele>483.20000000000005</ele><time>2026-05-02T13:37:17Z</time></trkpt><trkpt lat="41.17654361302734" lon="14.64700619361994"><ele>482.0</ele><time>2026-05-02T13:37:18Z</time></trkpt><trkpt lat="41.17655478286276" lon="14.647140266748567"><ele>483.40000000000003</ele><time>2026-05-02T13:37:19Z</time></trkpt><trkpt lat="41.17655978431097" lon="14.64726897711389"><ele>484.80000000000007</ele><time>2026-05-02T13:37:20Z</time></trkpt><trkpt lat="41.176567842989904" lon="14.64740417867442"><ele>486.2</ele><time>2026-05-02T13:37:21Z</time></trkpt><trkpt lat="41.17657774650352" lon="14.647539996622339"><ele>487.6</ele><time>2026-05-02T13:37:22Z</time></trkpt><trkpt lat="41.176583197598724" lon="14.647677626762839"><ele>489.0</ele><time>2026-05-02T13:37:23Z</time></trkpt><trkpt lat="41.176595272867324" lon="14.647815304370296"><ele>489.0</ele><time>2026-05-02T13:37:24Z</time></trkpt><trkpt lat="41.17659710846814" lon="14.64795189665921"><ele>489.0</ele><time>2026-05-02T13:37:25Z</time></trkpt><trkpt lat="41.17660130208411" lon="14.648088895906685"><ele>489.0</ele><time>2026-05-02T13:37:26Z</time></trkpt><trkpt lat="41.17661131953495" lon="14.648223679396693"><ele>489.0</ele><time>2026-05-02T13:37:27Z</time></trkpt><trkpt lat="41.17661661852407" lon="14.648358507901493"><ele>489.0</ele><time>2026-05-02T13:37:28Z</time></trkpt><trkpt lat="41.176623595081445" lon="14.648494146246886"><ele>488.6</ele><time>2026-05-02T13:37:29Z</time></trkpt><trkpt lat="41.17662250179298" lon="14.648628977122986"><ele>488.2</ele><time>2026-05-02T13:37:30Z</time></trkpt><trkpt lat="41.17661605235316" lon="14.6487663138332"><ele>487.80000000000007</ele><time>2026-05-02T13:37:31Z</time></trkpt><trkpt lat="41.17660109483115" lon="14.648902634264827"><ele>487.40000000000003</ele><time>2026-05-02T13:37:32Z</time></trkpt><trkpt lat="41.17658181106339" lon="14.649035964205204"><ele>487.0</ele><time>2026-05-02T13:37:33Z</time></trkpt><trkpt lat="41.17655032679957" lon="14.64917208743855"><ele>483.6</ele><time>2026-05-02T13:37:34Z</time></trkpt><trkpt lat="41.1765070016282" lon="14.649304203265217"><ele>480.20000000000005</ele><time>2026-05-02T13:37:35Z</time></trkpt><trkpt lat="41.17646186901149" lon="14.649430367611474"><ele>476.8</ele><time>2026-05-02T13:37:36Z</time></trkpt><trkpt lat="41.1764056644675" lon="14.649558960331353"><ele>473.4</ele><time>2026-05-02T13:37:37Z</time></trkpt><trkpt lat="41.17635447670084" lon="14.649685816654648"><ele>470.0</ele><time>2026-05-02T13:37:38Z</time></trkpt><trkpt lat="41.1763053255312" lon="14.649817059859693"><ele>470.0</ele><time>2026-05-02T13:37:39Z</time></trkpt><trkpt lat="41.176252195078895" lon="14.649945933213626"><ele>470.0</ele><time>2026-05-02T13:37:40Z</time></trkpt><trkpt lat="41.17619827585645" lon="14.650080145855455"><ele>470.0</ele><time>2026-05-02T13:37:41Z</time></trkpt><trkpt lat="41.176144263803224" lon="14.650217654438565"><ele>470.0</ele><time>2026-05-02T13:37:42Z</time></trkpt><trkpt lat="41.17608567948922" lon="14.650356570258"><ele>471.75</ele><time>2026-05-02T13:37:43Z</time></trkpt><trkpt lat="41.17602749067782" lon="14.650486713417198"><ele>473.5</ele><time>2026-05-02T13:37:44Z</time></trkpt><trkpt lat="41.175968564335186" lon="14.650615903237092"><ele>475.25</ele><time>2026-05-02T13:37:45Z</time></trkpt><trkpt lat="41.17590623603129" lon="14.650746832266863"><ele>477.0</ele><time>2026-05-02T13:37:46Z</time></trkpt><trkpt lat="41.175843218973114" lon="14.65087337665764"><ele>477.0</ele><time>2026-05-02T13:37:47Z</time></trkpt><trkpt lat="41.17578117232591" lon="14.650994483822267"><ele>477.00000000000006</ele><time>2026-05-02T13:37:48Z</time></trkpt><trkpt lat="41.17571958187132" lon="14.651111981799447"><ele>477.00000000000006</ele><time>2026-05-02T13:37:49Z</time></trkpt><trkpt lat="41.1756675483112" lon="14.65121686446582"><ele>477.0</ele><time>2026-05-02T13:37:50Z</time></trkpt><trkpt lat="41.175617284865034" lon="14.651318861358675"><ele>477.0</ele><time>2026-05-02T13:37:51Z</time></trkpt><trkpt lat="41.17556642564302" lon="14.651412530567969"><ele>473.6</ele><time>2026-05-02T13:37:52Z</time></trkpt><trkpt lat="41.17550880502327" lon="14.651499400646518"><ele>470.20000000000005</ele><time>2026-05-02T13:37:53Z</time></trkpt><trkpt lat="41.17545140610515" lon="14.651574367026205"><ele>466.8</ele><time>2026-05-02T13:37:54Z</time></trkpt><trkpt lat="41.17537542524758" lon="14.65165902322074"><ele>463.4</ele><time>2026-05-02T13:37:55Z</time></trkpt><trkpt lat="41.17528238813386" lon="14.65175123703275"><ele>460.0</ele><time>2026-05-02T13:37:56Z</time></trkpt><trkpt lat="41.17520458779901" lon="14.651848295890884"><ele>460.0</ele><time>2026-05-02T13:37:57Z</time></trkpt><trkpt lat="41.17513655357501" lon="14.651942253761188"><ele>460.0</ele><time>2026-05-02T13:37:58Z</time></trkpt><trkpt lat="41.17507702523941" lon="14.652030901192552"><ele>460.0</ele><time>2026-05-02T13:37:59.001Z</time></trkpt><trkpt lat="41.17502067523728" lon="14.652121828881084"><ele>460.0</ele><time>2026-05-02T13:38:00.001Z</time></trkpt><trkpt lat="41.17496839505998" lon="14.652224818430385"><ele>460.0</ele><time>2026-05-02T13:38:01.001Z</time></trkpt><trkpt lat="41.17492537776034" lon="14.652333737256761"><ele>461.0</ele><time>2026-05-02T13:38:02.001Z</time></trkpt><trkpt lat="41.174897836990674" lon="14.652454669668476"><ele>462.0</ele><time>2026-05-02T13:38:03.001Z</time></trkpt><trkpt lat="41.17487022090688" lon="14.652590113606193"><ele>463.0</ele><time>2026-05-02T13:38:04.001Z</time></trkpt><trkpt lat="41.17484888854186" lon="14.652729737652482"><ele>464.0</ele><time>2026-05-02T13:38:05.001Z</time></trkpt><trkpt lat="41.17483782986447" lon="14.652864587650205"><ele>465.0</ele><time>2026-05-02T13:38:06.001Z</time></trkpt><trkpt lat="41.174827069150005" lon="14.652999813339056"><ele>461.0</ele><time>2026-05-02T13:38:07.001Z</time></trkpt><trkpt lat="41.1748151837175" lon="14.653140296437051"><ele>457.0</ele><time>2026-05-02T13:38:08.001Z</time></trkpt><trkpt lat="41.174802679651656" lon="14.653282603977289"><ele>453.0</ele><time>2026-05-02T13:38:09.001Z</time></trkpt><trkpt lat="41.17479171073067" lon="14.653431823606542"><ele>449.0</ele><time>2026-05-02T13:38:10.001Z</time></trkpt><trkpt lat="41.17478343218363" lon="14.65357595336498"><ele>445.0</ele><time>2026-05-02T13:38:11.001Z</time></trkpt><trkpt lat="41.17477469815797" lon="14.653714379328859"><ele>445.0</ele><time>2026-05-02T13:38:12.001Z</time></trkpt><trkpt lat="41.174767318100095" lon="14.653846783443678"><ele>445.0</ele><time>2026-05-02T13:38:13.001Z</time></trkpt><trkpt lat="41.174753169599065" lon="14.653974011739287"><ele>445.0</ele><time>2026-05-02T13:38:14.001Z</time></trkpt><trkpt lat="41.174743173599815" lon="14.65409650029133"><ele>445.0</ele><time>2026-05-02T13:38:15.001Z</time></trkpt><trkpt lat="41.174711967048445" lon="14.654206877662228"><ele>445.0</ele><time>2026-05-02T13:38:16.001Z</time></trkpt><trkpt lat="41.17465594803551" lon="14.6542855883848"><ele>445.00000000000006</ele><time>2026-05-02T13:38:17.001Z</time></trkpt><trkpt lat="41.17458393402706" lon="14.654345683460795"><ele>445.0</ele><time>2026-05-02T13:38:18.001Z</time></trkpt><trkpt lat="41.17449143433126" lon="14.65439249127266"><ele>445.0</ele><time>2026-05-02T13:38:19.001Z</time></trkpt><trkpt lat="41.17440070806647" lon="14.654378668103353"><ele>445.0</ele><time>2026-05-02T13:38:20.001Z</time></trkpt><trkpt lat="41.174325415977066" lon="14.65433752529578"><ele>445.00000000000006</ele><time>2026-05-02T13:38:21.001Z</time></trkpt><trkpt lat="41.174259602756976" lon="14.654252627621897"><ele>445.0</ele><time>2026-05-02T13:38:22.001Z</time></trkpt><trkpt lat="41.174206645196136" lon="14.654135394858956"><ele>445.0</ele><time>2026-05-02T13:38:23.001Z</time></trkpt><trkpt lat="41.17417073224503" lon="14.653994473623904"><ele>445.0</ele><time>2026-05-02T13:38:24.001Z</time></trkpt><trkpt lat="41.17416437808105" lon="14.65385360268507"><ele>445.0</ele><time>2026-05-02T13:38:25.001Z</time></trkpt><trkpt lat="41.17417392513353" lon="14.65370894467003"><ele>445.0</ele><time>2026-05-02T13:38:26.001Z</time></trkpt><trkpt lat="41.17417418612305" lon="14.653558766169386"><ele>445.0</ele><time>2026-05-02T13:38:27.001Z</time></trkpt><trkpt lat="41.17416844954001" lon="14.653414952226008"><ele>445.0</ele><time>2026-05-02T13:38:28.001Z</time></trkpt><trkpt lat="41.17416174692917" lon="14.653276040666073"><ele>445.0</ele><time>2026-05-02T13:38:29.001Z</time></trkpt><trkpt lat="41.1741468035757" lon="14.653135420012623"><ele>445.0</ele><time>2026-05-02T13:38:30.001Z</time></trkpt><trkpt lat="41.17413233718705" lon="14.65298880828993"><ele>445.0</ele><time>2026-05-02T13:38:31.001Z</time></trkpt><trkpt lat="41.17412292347737" lon="14.652839891718747"><ele>445.0</ele><time>2026-05-02T13:38:32.001Z</time></trkpt><trkpt lat="41.17411475292228" lon="14.652695483551359"><ele>445.4</ele><time>2026-05-02T13:38:33.001Z</time></trkpt><trkpt lat="41.17410315846105" lon="14.65255007929741"><ele>445.8</ele><time>2026-05-02T13:38:34.001Z</time></trkpt><trkpt lat="41.17409930231179" lon="14.652407050922191"><ele>446.20000000000005</ele><time>2026-05-02T13:38:35.001Z</time></trkpt><trkpt lat="41.174094628234805" lon="14.652267359964886"><ele>446.6</ele><time>2026-05-02T13:38:36.001Z</time></trkpt><trkpt lat="41.17408331641902" lon="14.652127288309151"><ele>447.0</ele><time>2026-05-02T13:38:37.001Z</time></trkpt><trkpt lat="41.1740783059388" lon="14.651984220372356"><ele>446.0</ele><time>2026-05-02T13:38:38.001Z</time></trkpt><trkpt lat="41.17407220019704" lon="14.65184935885994"><ele>445.00000000000006</ele><time>2026-05-02T13:38:39.001Z</time></trkpt><trkpt lat="41.17405251112691" lon="14.651721594269995"><ele>444.00000000000006</ele><time>2026-05-02T13:38:40.001Z</time></trkpt><trkpt lat="41.17403736836557" lon="14.651601032419238"><ele>443.0</ele><time>2026-05-02T13:38:41Z</time></trkpt><trkpt lat="41.17401983783014" lon="14.651485345477827"><ele>442.0</ele><time>2026-05-02T13:38:42Z</time></trkpt><trkpt lat="41.17398617737642" lon="14.651373098050392"><ele>437.6</ele><time>2026-05-02T13:38:43Z</time></trkpt><trkpt lat="41.173925401214056" lon="14.651267513175814"><ele>433.20000000000005</ele><time>2026-05-02T13:38:44Z</time></trkpt><trkpt lat="41.173847535733636" lon="14.651185344266768"><ele>428.8</ele><time>2026-05-02T13:38:45Z</time></trkpt><trkpt lat="41.173760134343524" lon="14.651122181853104"><ele>424.4</ele><time>2026-05-02T13:38:46Z</time></trkpt><trkpt lat="41.17366175843559" lon="14.651088487636452"><ele>420.0</ele><time>2026-05-02T13:38:47Z</time></trkpt><trkpt lat="41.173557924317805" lon="14.651092681021465"><ele>420.0</ele><time>2026-05-02T13:38:48Z</time></trkpt><trkpt lat="41.173455610239536" lon="14.65113942170986"><ele>420.0</ele><time>2026-05-02T13:38:49Z</time></trkpt><trkpt lat="41.173377526463916" lon="14.651222993531874"><ele>420.0</ele><time>2026-05-02T13:38:50Z</time></trkpt><trkpt lat="41.17330743775673" lon="14.651328079146877"><ele>420.0</ele><time>2026-05-02T13:38:51Z</time></trkpt><trkpt lat="41.173257395807326" lon="14.651452179006572"><ele>420.0</ele><time>2026-05-02T13:38:52Z</time></trkpt><trkpt lat="41.17322973461976" lon="14.651593240446957"><ele>420.0</ele><time>2026-05-02T13:38:53Z</time></trkpt><trkpt lat="41.17321512522167" lon="14.651740336641405"><ele>420.0</ele><time>2026-05-02T13:38:54Z</time></trkpt><trkpt lat="41.17320347032651" lon="14.651894957660431"><ele>420.0</ele><time>2026-05-02T13:38:55Z</time></trkpt><trkpt lat="41.17319139749091" lon="14.652051019026029"><ele>420.0</ele><time>2026-05-02T13:38:56Z</time></trkpt><trkpt lat="41.173175981467125" lon="14.652214695389507"><ele>416.75</ele><time>2026-05-02T13:38:57Z</time></trkpt><trkpt lat="41.173156040090035" lon="14.652379609873964"><ele>413.5</ele><time>2026-05-02T13:38:58Z</time></trkpt><trkpt lat="41.17312653776215" lon="14.652545557551885"><ele>410.25</ele><time>2026-05-02T13:38:59Z</time></trkpt><trkpt lat="41.1730904928453" lon="14.652703998076522"><ele>407.0</ele><time>2026-05-02T13:39:00Z</time></trkpt><trkpt lat="41.1730427497693" lon="14.652859607720684"><ele>407.0</ele><time>2026-05-02T13:39:01Z</time></trkpt><trkpt lat="41.17299906628747" lon="14.653006396403743"><ele>407.0</ele><time>2026-05-02T13:39:02Z</time></trkpt><trkpt lat="41.17295077714261" lon="14.653148561486217"><ele>407.0</ele><time>2026-05-02T13:39:03Z</time></trkpt><trkpt lat="41.17290433931578" lon="14.653284597479452"><ele>407.0</ele><time>2026-05-02T13:39:04Z</time></trkpt><trkpt lat="41.17285881441401" lon="14.653418583825705"><ele>407.0</ele><time>2026-05-02T13:39:05Z</time></trkpt><trkpt lat="41.17281437714141" lon="14.65355245654323"><ele>407.0</ele><time>2026-05-02T13:39:06Z</time></trkpt><trkpt lat="41.17277071174347" lon="14.653677351854023"><ele>407.0</ele><time>2026-05-02T13:39:07Z</time></trkpt><trkpt lat="41.17273009116218" lon="14.653806312136396"><ele>407.0</ele><time>2026-05-02T13:39:08Z</time></trkpt><trkpt lat="41.172690471445925" lon="14.653928366705514"><ele>407.0</ele><time>2026-05-02T13:39:09Z</time></trkpt><trkpt lat="41.17265007646169" lon="14.654052040485267"><ele>406.8333333333333</ele><time>2026-05-02T13:39:10Z</time></trkpt><trkpt lat="41.17260467782358" lon="14.654174658090806"><ele>406.66666666666663</ele><time>2026-05-02T13:39:11Z</time></trkpt><trkpt lat="41.172564961475324" lon="14.654290527123184"><ele>406.5</ele><time>2026-05-02T13:39:12Z</time></trkpt><trkpt lat="41.17252413859923" lon="14.654392769826497"><ele>406.33333333333337</ele><time>2026-05-02T13:39:13Z</time></trkpt><trkpt lat="41.17248969075009" lon="14.654487405345908"><ele>406.1666666666667</ele><time>2026-05-02T13:39:14Z</time></trkpt><trkpt lat="41.17245973540725" lon="14.654570996487617"><ele>406.0</ele><time>2026-05-02T13:39:15Z</time></trkpt><trkpt lat="41.17243025940234" lon="14.654648810505078"><ele>405.4</ele><time>2026-05-02T13:39:16Z</time></trkpt><trkpt lat="41.172377805525464" lon="14.654755753296106"><ele>404.8</ele><time>2026-05-02T13:39:18Z</time></trkpt><trkpt lat="41.17231200172472" lon="14.654788317469304"><ele>404.2</ele><time>2026-05-02T13:39:20Z</time></trkpt><trkpt lat="41.172232947791095" lon="14.654803889989548"><ele>403.59999999999997</ele><time>2026-05-02T13:39:23Z</time></trkpt><trkpt lat="41.172159901727284" lon="14.65478314452616"><ele>403.0</ele><time>2026-05-02T13:39:25Z</time></trkpt><trkpt lat="41.17211591437043" lon="14.654609413006762"><ele>400.4</ele><time>2026-05-02T13:39:27Z</time></trkpt><trkpt lat="41.1721065902797" lon="14.65447068872444"><ele>397.79999999999995</ele><time>2026-05-02T13:39:29Z</time></trkpt><trkpt lat="41.17209857035874" lon="14.654327040894128"><ele>395.2</ele><time>2026-05-02T13:39:31Z</time></trkpt><trkpt lat="41.17210048180526" lon="14.654193276547426"><ele>392.6</ele><time>2026-05-02T13:39:33Z</time></trkpt><trkpt lat="41.17210013662007" lon="14.654047210823355"><ele>390.0</ele><time>2026-05-02T13:39:35Z</time></trkpt><trkpt lat="41.172105539776894" lon="14.653878569413004"><ele>390.0</ele><time>2026-05-02T13:39:37Z</time></trkpt><trkpt lat="41.172119870451" lon="14.653790573914542"><ele>390.0</ele><time>2026-05-02T13:39:38Z</time></trkpt><trkpt lat="41.172147211858636" lon="14.653705601981878"><ele>390.0</ele><time>2026-05-02T13:39:39Z</time></trkpt><trkpt lat="41.17217195957765" lon="14.653604580605117"><ele>390.0</ele><time>2026-05-02T13:39:40Z</time></trkpt><trkpt lat="41.17219830378648" lon="14.653505085474805"><ele>390.0</ele><time>2026-05-02T13:39:41Z</time></trkpt><trkpt lat="41.172227240935946" lon="14.653411254682531"><ele>390.0</ele><time>2026-05-02T13:39:42Z</time></trkpt><trkpt lat="41.17224886252084" lon="14.653310565103064"><ele>390.1666666666667</ele><time>2026-05-02T13:39:43Z</time></trkpt><trkpt lat="41.17226845566031" lon="14.653222835002365"><ele>390.33333333333337</ele><time>2026-05-02T13:39:44Z</time></trkpt><trkpt lat="41.17227426032843" lon="14.653134578395699"><ele>390.5</ele><time>2026-05-02T13:39:45Z</time></trkpt><trkpt lat="41.17231544569294" lon="14.652996174993342"><ele>390.6666666666667</ele><time>2026-05-02T13:39:47Z</time></trkpt><trkpt lat="41.17236081942521" lon="14.652887794289333"><ele>390.83333333333337</ele><time>2026-05-02T13:39:49Z</time></trkpt><trkpt lat="41.172416883675375" lon="14.652775078842765"><ele>391.0</ele><time>2026-05-02T13:39:51Z</time></trkpt><trkpt lat="41.1724858889166" lon="14.652637931979646"><ele>393.6666666666667</ele><time>2026-05-02T13:39:53Z</time></trkpt><trkpt lat="41.172526504055384" lon="14.652566407982823"><ele>396.33333333333337</ele><time>2026-05-02T13:39:54Z</time></trkpt><trkpt lat="41.17256553933298" lon="14.652490714895"><ele>399.0</ele><time>2026-05-02T13:39:55Z</time></trkpt><trkpt lat="41.17261189620649" lon="14.652410154896007"><ele>401.66666666666663</ele><time>2026-05-02T13:39:56Z</time></trkpt><trkpt lat="41.172646513523475" lon="14.652319519397487"><ele>404.3333333333333</ele><time>2026-05-02T13:39:57Z</time></trkpt><trkpt lat="41.172673447618614" lon="14.652215881692507"><ele>407.0</ele><time>2026-05-02T13:39:58Z</time></trkpt><trkpt lat="41.17270148403769" lon="14.65211515182267"><ele>406.99999999999994</ele><time>2026-05-02T13:39:59Z</time></trkpt><trkpt lat="41.172729489207796" lon="14.652012242416852"><ele>407.0</ele><time>2026-05-02T13:40:00Z</time></trkpt><trkpt lat="41.17275667294664" lon="14.651915016512442"><ele>407.0</ele><time>2026-05-02T13:40:01Z</time></trkpt><trkpt lat="41.17278389514435" lon="14.651815399508605"><ele>407.0</ele><time>2026-05-02T13:40:02.001Z</time></trkpt><trkpt lat="41.17280439349632" lon="14.651718581555736"><ele>406.99999999999994</ele><time>2026-05-02T13:40:03.001Z</time></trkpt><trkpt lat="41.172827038646915" lon="14.651611012457217"><ele>407.0</ele><time>2026-05-02T13:40:04.001Z</time></trkpt><trkpt lat="41.17285496409851" lon="14.651512267642449"><ele>406.99999999999994</ele><time>2026-05-02T13:40:05.001Z</time></trkpt><trkpt lat="41.17288155259603" lon="14.651412366123651"><ele>407.0</ele><time>2026-05-02T13:40:06.001Z</time></trkpt><trkpt lat="41.172910725357625" lon="14.651312555724356"><ele>407.0</ele><time>2026-05-02T13:40:07.001Z</time></trkpt><trkpt lat="41.17293540039309" lon="14.651206721356834"><ele>407.0</ele><time>2026-05-02T13:40:08.001Z</time></trkpt><trkpt lat="41.172957697084776" lon="14.651098835019704"><ele>406.99999999999994</ele><time>2026-05-02T13:40:09.001Z</time></trkpt><trkpt lat="41.1729860015047" lon="14.650997912317633"><ele>407.0</ele><time>2026-05-02T13:40:10.001Z</time></trkpt><trkpt lat="41.17301675950817" lon="14.650901184591104"><ele>406.49999999999994</ele><time>2026-05-02T13:40:11.001Z</time></trkpt><trkpt lat="41.173075925206895" lon="14.650765610017613"><ele>406.0</ele><time>2026-05-02T13:40:13.001Z</time></trkpt><trkpt lat="41.17312266540232" lon="14.650693784495104"><ele>405.5</ele><time>2026-05-02T13:40:14.001Z</time></trkpt><trkpt lat="41.17315835293313" lon="14.650617571752761"><ele>405.0</ele><time>2026-05-02T13:40:15.001Z</time></trkpt><trkpt lat="41.173197847454766" lon="14.650542956803184"><ele>404.49999999999994</ele><time>2026-05-02T13:40:16.001Z</time></trkpt><trkpt lat="41.173240735504706" lon="14.6504656251676"><ele>404.0</ele><time>2026-05-02T13:40:17.001Z</time></trkpt><trkpt lat="41.173283130061186" lon="14.650382609916127"><ele>405.8333333333333</ele><time>2026-05-02T13:40:18.001Z</time></trkpt><trkpt lat="41.17333034559952" lon="14.650303348311398"><ele>407.66666666666663</ele><time>2026-05-02T13:40:19.001Z</time></trkpt><trkpt lat="41.17337820786709" lon="14.65022007903381"><ele>409.5</ele><time>2026-05-02T13:40:20.001Z</time></trkpt><trkpt lat="41.17342706319231" lon="14.65014102392006"><ele>411.33333333333337</ele><time>2026-05-02T13:40:21.001Z</time></trkpt><trkpt lat="41.173468563686676" lon="14.650062512616037"><ele>413.1666666666667</ele><time>2026-05-02T13:40:22.001Z</time></trkpt><trkpt lat="41.17354280512776" lon="14.649910576454205"><ele>415.0</ele><time>2026-05-02T13:40:24.001Z</time></trkpt><trkpt lat="41.17357596895985" lon="14.649825361229679"><ele>415.0</ele><time>2026-05-02T13:40:25.001Z</time></trkpt><trkpt lat="41.173603771395875" lon="14.64974252331834"><ele>415.0</ele><time>2026-05-02T13:40:26.001Z</time></trkpt><trkpt lat="41.17363731075556" lon="14.64965727110134"><ele>415.0</ele><time>2026-05-02T13:40:27.001Z</time></trkpt><trkpt lat="41.17367028255721" lon="14.649572113305767"><ele>415.0</ele><time>2026-05-02T13:40:28.001Z</time></trkpt><trkpt lat="41.173702142716614" lon="14.649480083780674"><ele>415.0</ele><time>2026-05-02T13:40:29.001Z</time></trkpt><trkpt lat="41.173731136502624" lon="14.64938983338817"><ele>415.0</ele><time>2026-05-02T13:40:30.001Z</time></trkpt><trkpt lat="41.17375845042574" lon="14.649297126256648"><ele>415.0</ele><time>2026-05-02T13:40:31.001Z</time></trkpt><trkpt lat="41.17380478406095" lon="14.649212159548712"><ele>415.14285714285717</ele><time>2026-05-02T13:40:32.001Z</time></trkpt><trkpt lat="41.17383847761189" lon="14.649121837430886"><ele>415.28571428571433</ele><time>2026-05-02T13:40:33.001Z</time></trkpt><trkpt lat="41.17387549886056" lon="14.64903462843325"><ele>415.42857142857144</ele><time>2026-05-02T13:40:34.001Z</time></trkpt><trkpt lat="41.17391070456706" lon="14.648944100833413"><ele>415.57142857142856</ele><time>2026-05-02T13:40:35.001Z</time></trkpt><trkpt lat="41.1739529368793" lon="14.648857788278967"><ele>415.7142857142857</ele><time>2026-05-02T13:40:36.001Z</time></trkpt><trkpt lat="41.17397890503287" lon="14.64877291750104"><ele>415.85714285714283</ele><time>2026-05-02T13:40:37.001Z</time></trkpt><trkpt lat="41.17399670625124" lon="14.648685586546781"><ele>416.0</ele><time>2026-05-02T13:40:38.001Z</time></trkpt><trkpt lat="41.17401488327925" lon="14.648597269650471"><ele>418.1428571428571</ele><time>2026-05-02T13:40:39.001Z</time></trkpt><trkpt lat="41.174029122990284" lon="14.648509156702287"><ele>420.28571428571433</ele><time>2026-05-02T13:40:40.001Z</time></trkpt><trkpt lat="41.174042465450526" lon="14.648415150555719"><ele>422.42857142857144</ele><time>2026-05-02T13:40:41.001Z</time></trkpt><trkpt lat="41.17404955011013" lon="14.648319944894498"><ele>424.57142857142856</ele><time>2026-05-02T13:40:42.001Z</time></trkpt><trkpt lat="41.17405706749242" lon="14.648223750153088"><ele>426.71428571428567</ele><time>2026-05-02T13:40:43.001Z</time></trkpt><trkpt lat="41.174068843892655" lon="14.648124734473702"><ele>428.8571428571429</ele><time>2026-05-02T13:40:44.001Z</time></trkpt><trkpt lat="41.17407856719958" lon="14.648024501891141"><ele>431.0</ele><time>2026-05-02T13:40:45.001Z</time></trkpt><trkpt lat="41.17408876572735" lon="14.64792210573311"><ele>431.0</ele><time>2026-05-02T13:40:46.001Z</time></trkpt><trkpt lat="41.17409963512687" lon="14.64782677121723"><ele>431.0</ele><time>2026-05-02T13:40:47Z</time></trkpt><trkpt lat="41.17410821703006" lon="14.647735427565435"><ele>431.0</ele><time>2026-05-02T13:40:48Z</time></trkpt><trkpt lat="41.17412174084286" lon="14.647636529096564"><ele>431.0</ele><time>2026-05-02T13:40:49Z</time></trkpt><trkpt lat="41.17413432873233" lon="14.647543537352929"><ele>431.0</ele><time>2026-05-02T13:40:50Z</time></trkpt><trkpt lat="41.174131739726036" lon="14.64743932780101"><ele>431.0</ele><time>2026-05-02T13:40:51Z</time></trkpt><trkpt lat="41.17413887097954" lon="14.64733675378037"><ele>431.0</ele><time>2026-05-02T13:40:52Z</time></trkpt><trkpt lat="41.17415147202585" lon="14.64722481726664"><ele>432.49999999999994</ele><time>2026-05-02T13:40:53Z</time></trkpt><trkpt lat="41.174149002404164" lon="14.647112698791883"><ele>434.0</ele><time>2026-05-02T13:40:54Z</time></trkpt><trkpt lat="41.17414619036932" lon="14.647006529731886"><ele>435.5</ele><time>2026-05-02T13:40:55Z</time></trkpt><trkpt lat="41.1741423652929" lon="14.646905588285813"><ele>437.0</ele><time>2026-05-02T13:40:56Z</time></trkpt><trkpt lat="41.17413413341691" lon="14.64680376276881"><ele>438.49999999999994</ele><time>2026-05-02T13:40:57Z</time></trkpt><trkpt lat="41.174132278728656" lon="14.646700595197009"><ele>440.0</ele><time>2026-05-02T13:40:58Z</time></trkpt><trkpt lat="41.17413483747396" lon="14.646597659853866"><ele>441.3333333333333</ele><time>2026-05-02T13:40:59Z</time></trkpt><trkpt lat="41.1741362962365" lon="14.646502494456056"><ele>442.66666666666663</ele><time>2026-05-02T13:41:00Z</time></trkpt><trkpt lat="41.174134021464916" lon="14.646400720349737"><ele>444.0</ele><time>2026-05-02T13:41:01Z</time></trkpt><trkpt lat="41.17412897245064" lon="14.646309687786209"><ele>445.33333333333337</ele><time>2026-05-02T13:41:02Z</time></trkpt><trkpt lat="41.17413399169772" lon="14.646225503832165"><ele>446.6666666666667</ele><time>2026-05-02T13:41:03Z</time></trkpt><trkpt lat="41.1741230342102" lon="14.646138034538325"><ele>448.0</ele><time>2026-05-02T13:41:04Z</time></trkpt><trkpt lat="41.174093186065086" lon="14.645978912265129"><ele>449.33333333333337</ele><time>2026-05-02T13:41:06Z</time></trkpt><trkpt lat="41.17406249064547" lon="14.645853729335446"><ele>450.6666666666667</ele><time>2026-05-02T13:41:08Z</time></trkpt><trkpt lat="41.174050611793" lon="14.645770079964997"><ele>452.0</ele><time>2026-05-02T13:41:09Z</time></trkpt><trkpt lat="41.17400534234059" lon="14.645645998425662"><ele>453.33333333333337</ele><time>2026-05-02T13:41:11Z</time></trkpt><trkpt lat="41.17396946755465" lon="14.645565876825865"><ele>454.6666666666667</ele><time>2026-05-02T13:41:13Z</time></trkpt><trkpt lat="41.173934941526106" lon="14.645480718793785"><ele>456.0</ele><time>2026-05-02T13:41:22Z</time></trkpt><trkpt lat="41.173895325047845" lon="14.645597141666565"><ele>456.0</ele><time>2026-05-02T13:42:49.001Z</time></trkpt><trkpt lat="41.17399557884632" lon="14.645487363382347"><ele>456.0</ele><time>2026-05-02T13:46:07Z</time></trkpt><trkpt lat="41.17393092955857" lon="14.645410698941978"><ele>456.0</ele><time>2026-05-02T13:52:57.001Z</time></trkpt><trkpt lat="41.17388670067468" lon="14.645333956210873"><ele>456.0</ele><time>2026-05-02T13:53:00.001Z</time></trkpt><trkpt lat="41.17394236188163" lon="14.64525447335073"><ele>456.0</ele><time>2026-05-02T13:53:03.001Z</time></trkpt><trkpt lat="41.17402582796164" lon="14.6452957052366"><ele>456.0</ele><time>2026-05-02T13:53:07.001Z</time></trkpt><trkpt lat="41.174087903323276" lon="14.645279383521832"><ele>456.0</ele><time>2026-05-02T13:53:09.001Z</time></trkpt><trkpt lat="41.1741402323787" lon="14.645374393692613"><ele>456.0</ele><time>2026-05-02T13:53:11.001Z</time></trkpt><trkpt lat="41.17420413424072" lon="14.645471019831348"><ele>456.0</ele><time>2026-05-02T13:53:14.001Z</time></trkpt><trkpt lat="41.174226944127774" lon="14.645558171980397"><ele>456.0</ele><time>2026-05-02T13:53:16.001Z</time></trkpt><trkpt lat="41.17427983144677" lon="14.645632743836916"><ele>456.0</ele><time>2026-05-02T13:53:18.001Z</time></trkpt><trkpt lat="41.17436130060681" lon="14.645669026100078"><ele>456.0</ele><time>2026-05-02T13:53:21.001Z</time></trkpt><trkpt lat="41.17443333723243" lon="14.645633494501231"><ele>456.0</ele><time>2026-05-02T13:53:24.001Z</time></trkpt><trkpt lat="41.17451034356152" lon="14.645571647519024"><ele>456.0</ele><time>2026-05-02T13:53:26.001Z</time></trkpt><trkpt lat="41.174554607026685" lon="14.645474822176244"><ele>456.0</ele><time>2026-05-02T13:53:28.001Z</time></trkpt><trkpt lat="41.17462241325504" lon="14.645414874540739"><ele>456.0</ele><time>2026-05-02T13:53:30.001Z</time></trkpt><trkpt lat="41.17467829779086" lon="14.64533891481192"><ele>456.0</ele><time>2026-05-02T13:53:32.001Z</time></trkpt><trkpt lat="41.174698951376726" lon="14.64523313430973"><ele>457.20000000000005</ele><time>2026-05-02T13:53:34.001Z</time></trkpt><trkpt lat="41.17466160292845" lon="14.645109653359158"><ele>458.40000000000003</ele><time>2026-05-02T13:53:36.001Z</time></trkpt><trkpt lat="41.17461954382322" lon="14.64500878739915"><ele>459.6</ele><time>2026-05-02T13:53:38.001Z</time></trkpt><trkpt lat="41.17459193756696" lon="14.644890033865753"><ele>460.8</ele><time>2026-05-02T13:53:40.001Z</time></trkpt><trkpt lat="41.17453598282295" lon="14.64480135130405"><ele>462.0</ele><time>2026-05-02T13:53:42.001Z</time></trkpt><trkpt lat="41.174478086474366" lon="14.644623397652914"><ele>462.0</ele><time>2026-05-02T13:53:44.001Z</time></trkpt><trkpt lat="41.17446439768481" lon="14.644527857225787"><ele>462.0</ele><time>2026-05-02T13:53:45.001Z</time></trkpt><trkpt lat="41.17448497341058" lon="14.64441383246807"><ele>462.0</ele><time>2026-05-02T13:53:46.001Z</time></trkpt><trkpt lat="41.17446224969628" lon="14.644324330609177"><ele>462.0</ele><time>2026-05-02T13:53:47.001Z</time></trkpt><trkpt lat="41.17441913118076" lon="14.644204808576909"><ele>462.0</ele><time>2026-05-02T13:53:49.001Z</time></trkpt><trkpt lat="41.17442632326776" lon="14.64411793340812"><ele>462.0</ele><time>2026-05-02T13:53:52.001Z</time></trkpt><trkpt lat="41.17444928781529" lon="14.64420265623473"><ele>462.0</ele><time>2026-05-02T13:53:56.001Z</time></trkpt><trkpt lat="41.17447086430488" lon="14.644307865556678"><ele>462.0</ele><time>2026-05-02T13:53:58.001Z</time></trkpt><trkpt lat="41.17450414473357" lon="14.644420133244749"><ele>462.0</ele><time>2026-05-02T13:54:00.001Z</time></trkpt><trkpt lat="41.17452587239436" lon="14.644505710961278"><ele>462.0</ele><time>2026-05-02T13:54:02.001Z</time></trkpt><trkpt lat="41.174550822102404" lon="14.644603980198408"><ele>462.0</ele><time>2026-05-02T13:54:04.001Z</time></trkpt><trkpt lat="41.17458657179374" lon="14.644744787483782"><ele>462.0</ele><time>2026-05-02T13:54:06.001Z</time></trkpt><trkpt lat="41.17460803985438" lon="14.644829344724801"><ele>462.0</ele><time>2026-05-02T13:54:07.002Z</time></trkpt><trkpt lat="41.17462891324933" lon="14.64491156001626"><ele>462.0</ele><time>2026-05-02T13:54:08.002Z</time></trkpt><trkpt lat="41.1746501304677" lon="14.64499512955104"><ele>462.0</ele><time>2026-05-02T13:54:09.002Z</time></trkpt><trkpt lat="41.17468781233509" lon="14.64514354939861"><ele>462.0</ele><time>2026-05-02T13:54:11.002Z</time></trkpt><trkpt lat="41.1749151287117" lon="14.645121865944967"><ele>463.6</ele><time>2026-05-02T13:54:12.002Z</time></trkpt><trkpt lat="41.17500029437164" lon="14.645197983089222"><ele>465.20000000000005</ele><time>2026-05-02T13:54:13.002Z</time></trkpt><trkpt lat="41.175077461360544" lon="14.645241664487832"><ele>466.8</ele><time>2026-05-02T13:54:14.002Z</time></trkpt><trkpt lat="41.17513758607047" lon="14.64526699619642"><ele>468.4</ele><time>2026-05-02T13:54:15.002Z</time></trkpt><trkpt lat="41.17520486412554" lon="14.64528293724299"><ele>470.0</ele><time>2026-05-02T13:54:16.002Z</time></trkpt><trkpt lat="41.1753500992994" lon="14.645340381655783"><ele>470.0</ele><time>2026-05-02T13:54:18.002Z</time></trkpt><trkpt lat="41.17541280858466" lon="14.645382000216534"><ele>469.99999999999994</ele><time>2026-05-02T13:54:19.002Z</time></trkpt><trkpt lat="41.17547618101268" lon="14.64541376947736"><ele>470.0</ele><time>2026-05-02T13:54:20.002Z</time></trkpt><trkpt lat="41.17554119908789" lon="14.645443240707786"><ele>470.0</ele><time>2026-05-02T13:54:21.002Z</time></trkpt><trkpt lat="41.175604564503814" lon="14.645470322579152"><ele>469.99999999999994</ele><time>2026-05-02T13:54:22.002Z</time></trkpt><trkpt lat="41.17567949737826" lon="14.645496733619336"><ele>470.0</ele><time>2026-05-02T13:54:23Z</time></trkpt><trkpt lat="41.17575003648146" lon="14.645525309946349"><ele>470.0</ele><time>2026-05-02T13:54:24Z</time></trkpt><trkpt lat="41.17583563964747" lon="14.64556201750113"><ele>473.6</ele><time>2026-05-02T13:54:25Z</time></trkpt><trkpt lat="41.17593689769664" lon="14.645614139041507"><ele>477.2</ele><time>2026-05-02T13:54:26Z</time></trkpt><trkpt lat="41.17602787915527" lon="14.645679800851859"><ele>480.79999999999995</ele><time>2026-05-02T13:54:27Z</time></trkpt><trkpt lat="41.17611942648427" lon="14.645738279051397"><ele>484.4</ele><time>2026-05-02T13:54:28Z</time></trkpt><trkpt lat="41.17619320103099" lon="14.64578803072705"><ele>488.0</ele><time>2026-05-02T13:54:29Z</time></trkpt><trkpt lat="41.17628147291825" lon="14.645858467084022"><ele>488.0</ele><time>2026-05-02T13:54:30Z</time></trkpt><trkpt lat="41.17635619404817" lon="14.645957822748109"><ele>487.99999999999994</ele><time>2026-05-02T13:54:32Z</time></trkpt><trkpt lat="41.17639040417819" lon="14.646035301417612"><ele>487.99999999999994</ele><time>2026-05-02T13:54:34Z</time></trkpt><trkpt lat="41.17646384607205" lon="14.646126277933783"><ele>488.0</ele><time>2026-05-02T13:54:36Z</time></trkpt><trkpt lat="41.176448882597775" lon="14.646293605657885"><ele>488.0</ele><time>2026-05-02T13:54:37Z</time></trkpt><trkpt lat="41.176467884942454" lon="14.646409109251934"><ele>486.5</ele><time>2026-05-02T13:54:38Z</time></trkpt><trkpt lat="41.17648633538202" lon="14.646544693063815"><ele>485.0</ele><time>2026-05-02T13:54:39Z</time></trkpt><trkpt lat="41.17651222598874" lon="14.646690846372408"><ele>483.5</ele><time>2026-05-02T13:54:40Z</time></trkpt><trkpt lat="41.1765221348453" lon="14.646851315076843"><ele>482.0</ele><time>2026-05-02T13:54:41Z</time></trkpt><trkpt lat="41.176531616503176" lon="14.64701068597806"><ele>485.25</ele><time>2026-05-02T13:54:42Z</time></trkpt><trkpt lat="41.1765618942956" lon="14.64717750848077"><ele>488.5</ele><time>2026-05-02T13:54:43Z</time></trkpt><trkpt lat="41.176561267888296" lon="14.647346482667906"><ele>491.75</ele><time>2026-05-02T13:54:44Z</time></trkpt><trkpt lat="41.17657076886461" lon="14.647508070868009"><ele>495.0</ele><time>2026-05-02T13:54:45Z</time></trkpt><trkpt lat="41.17658305375932" lon="14.647688723462823"><ele>493.5</ele><time>2026-05-02T13:54:46Z</time></trkpt><trkpt lat="41.17658932547289" lon="14.647876518616762"><ele>492.0</ele><time>2026-05-02T13:54:47Z</time></trkpt><trkpt lat="41.176599134566004" lon="14.648050876482896"><ele>490.5</ele><time>2026-05-02T13:54:48Z</time></trkpt><trkpt lat="41.17660916503324" lon="14.648217150639985"><ele>489.0</ele><time>2026-05-02T13:54:49Z</time></trkpt><trkpt lat="41.176616672262895" lon="14.648388551717218"><ele>489.0</ele><time>2026-05-02T13:54:50Z</time></trkpt><trkpt lat="41.17661644152873" lon="14.648556706397303"><ele>489.0</ele><time>2026-05-02T13:54:51Z</time></trkpt><trkpt lat="41.17661708976065" lon="14.648736854027941"><ele>489.0</ele><time>2026-05-02T13:54:52Z</time></trkpt><trkpt lat="41.17661854467488" lon="14.648908179087785"><ele>489.0</ele><time>2026-05-02T13:54:53Z</time></trkpt><trkpt lat="41.17659223606219" lon="14.64907394212235"><ele>488.5</ele><time>2026-05-02T13:54:54Z</time></trkpt><trkpt lat="41.17652745411133" lon="14.649227438089538"><ele>488.0</ele><time>2026-05-02T13:54:55Z</time></trkpt><trkpt lat="41.1764709031963" lon="14.64939014475161"><ele>487.5</ele><time>2026-05-02T13:54:56Z</time></trkpt><trkpt lat="41.17642304006631" lon="14.649565396540588"><ele>487.0</ele><time>2026-05-02T13:54:57Z</time></trkpt><trkpt lat="41.17635933923524" lon="14.649728404757623"><ele>484.5</ele><time>2026-05-02T13:54:58Z</time></trkpt><trkpt lat="41.176291577091064" lon="14.64990551513904"><ele>482.0</ele><time>2026-05-02T13:54:59Z</time></trkpt><trkpt lat="41.176224544742475" lon="14.650063219541037"><ele>479.5</ele><time>2026-05-02T13:55:00Z</time></trkpt><trkpt lat="41.17615868233687" lon="14.650218643220944"><ele>477.0</ele><time>2026-05-02T13:55:01Z</time></trkpt><trkpt lat="41.17609576263912" lon="14.650362431230244"><ele>477.0</ele><time>2026-05-02T13:55:02Z</time></trkpt><trkpt lat="41.17602748450874" lon="14.650488236418587"><ele>477.00000000000006</ele><time>2026-05-02T13:55:03Z</time></trkpt><trkpt lat="41.17597157662345" lon="14.65061337018151"><ele>477.00000000000006</ele><time>2026-05-02T13:55:04Z</time></trkpt><trkpt lat="41.17591799038502" lon="14.65072338950468"><ele>477.0</ele><time>2026-05-02T13:55:05Z</time></trkpt><trkpt lat="41.17585759774247" lon="14.650827033660063"><ele>477.0</ele><time>2026-05-02T13:55:06Z</time></trkpt><trkpt lat="41.17578686523883" lon="14.65090305748103"><ele>477.0</ele><time>2026-05-02T13:55:07Z</time></trkpt><trkpt lat="41.17575568691352" lon="14.650984761524441"><ele>477.0</ele><time>2026-05-02T13:55:08Z</time></trkpt><trkpt lat="41.175677057461264" lon="14.651030798596778"><ele>477.0</ele><time>2026-05-02T13:55:09Z</time></trkpt><trkpt lat="41.17562253748051" lon="14.651108127775817"><ele>477.0</ele><time>2026-05-02T13:55:10Z</time></trkpt><trkpt lat="41.17557886061406" lon="14.651178191261316"><ele>477.0</ele><time>2026-05-02T13:55:11Z</time></trkpt><trkpt lat="41.17553441557751" lon="14.651257386717308"><ele>477.0</ele><time>2026-05-02T13:55:12Z</time></trkpt><trkpt lat="41.17555493852119" lon="14.651362546870836"><ele>473.6</ele><time>2026-05-02T13:55:13Z</time></trkpt><trkpt lat="41.17550502048188" lon="14.651448995613736"><ele>470.20000000000005</ele><time>2026-05-02T13:55:15Z</time></trkpt><trkpt lat="41.1753901042221" lon="14.651419702811193"><ele>466.8</ele><time>2026-05-02T13:55:16.001Z</time></trkpt><trkpt lat="41.175271884468806" lon="14.651374366966412"><ele>463.4</ele><time>2026-05-02T13:55:18.001Z</time></trkpt><trkpt lat="41.17520245568514" lon="14.65135883658859"><ele>460.0</ele><time>2026-05-02T13:55:19.001Z</time></trkpt><trkpt lat="41.175121084768335" lon="14.651337218009731"><ele>460.00000000000006</ele><time>2026-05-02T13:55:20.001Z</time></trkpt><trkpt lat="41.1750542500852" lon="14.651318778042244"><ele>460.0</ele><time>2026-05-02T13:55:21.001Z</time></trkpt><trkpt lat="41.174988329408215" lon="14.651299184799143"><ele>460.0</ele><time>2026-05-02T13:55:22.001Z</time></trkpt><trkpt lat="41.174920587403875" lon="14.651275322089091"><ele>460.0</ele><time>2026-05-02T13:55:23.001Z</time></trkpt><trkpt lat="41.17485047221407" lon="14.651238807894265"><ele>460.00000000000006</ele><time>2026-05-02T13:55:24.001Z</time></trkpt><trkpt lat="41.17477200572364" lon="14.651191648000038"><ele>460.0</ele><time>2026-05-02T13:55:25.001Z</time></trkpt><trkpt lat="41.17469415502937" lon="14.651142580387924"><ele>455.6666666666667</ele><time>2026-05-02T13:55:26.001Z</time></trkpt><trkpt lat="41.174613164416854" lon="14.651095682611695"><ele>451.33333333333337</ele><time>2026-05-02T13:55:27.001Z</time></trkpt><trkpt lat="41.174534605080524" lon="14.651046648634017"><ele>447.0</ele><time>2026-05-02T13:55:28.001Z</time></trkpt><trkpt lat="41.17446271995374" lon="14.65100346050331"><ele>442.66666666666663</ele><time>2026-05-02T13:55:29.001Z</time></trkpt><trkpt lat="41.17439453299116" lon="14.65096507257359"><ele>438.3333333333333</ele><time>2026-05-02T13:55:30.001Z</time></trkpt><trkpt lat="41.174333445573524" lon="14.650935587366872"><ele>434.0</ele><time>2026-05-02T13:55:31.001Z</time></trkpt><trkpt lat="41.1742219312125" lon="14.65088516965644"><ele>434.0</ele><time>2026-05-02T13:55:33.001Z</time></trkpt><trkpt lat="41.17412700773595" lon="14.650922885845013"><ele>434.0</ele><time>2026-05-02T13:55:35.001Z</time></trkpt><trkpt lat="41.17403912418724" lon="14.650997314905283"><ele>434.0</ele><time>2026-05-02T13:55:37.001Z</time></trkpt><trkpt lat="41.1739821085417" lon="14.65110898589096"><ele>434.0</ele><time>2026-05-02T13:55:39.001Z</time></trkpt><trkpt lat="41.1739095177617" lon="14.651190968812491"><ele>434.0</ele><time>2026-05-02T13:55:41.001Z</time></trkpt><trkpt lat="41.17379943427933" lon="14.65101294651267"><ele>431.2</ele><time>2026-05-02T13:55:43.001Z</time></trkpt><trkpt lat="41.17370296325154" lon="14.651125951915272"><ele>428.4</ele><time>2026-05-02T13:55:44.001Z</time></trkpt><trkpt lat="41.17363873813976" lon="14.65109907809626"><ele>425.6</ele><time>2026-05-02T13:55:45.001Z</time></trkpt><trkpt lat="41.17356071070913" lon="14.651101881812844"><ele>422.8</ele><time>2026-05-02T13:55:46.001Z</time></trkpt><trkpt lat="41.17348053758681" lon="14.651136821001852"><ele>420.0</ele><time>2026-05-02T13:55:47.001Z</time></trkpt><trkpt lat="41.173397580694925" lon="14.65120527819313"><ele>420.0</ele><time>2026-05-02T13:55:48.001Z</time></trkpt><trkpt lat="41.17332774271309" lon="14.651299885016764"><ele>420.0</ele><time>2026-05-02T13:55:49.001Z</time></trkpt><trkpt lat="41.17327117629343" lon="14.651426623908977"><ele>420.0</ele><time>2026-05-02T13:55:50.001Z</time></trkpt><trkpt lat="41.173238138072705" lon="14.651578111743659"><ele>420.0</ele><time>2026-05-02T13:55:51.001Z</time></trkpt><trkpt lat="41.173216940171976" lon="14.651755944835488"><ele>420.0</ele><time>2026-05-02T13:55:52.001Z</time></trkpt><trkpt lat="41.17319767469512" lon="14.651939767366244"><ele>420.0</ele><time>2026-05-02T13:55:53.001Z</time></trkpt><trkpt lat="41.17318256262973" lon="14.652138955856762"><ele>420.0</ele><time>2026-05-02T13:55:54.001Z</time></trkpt><trkpt lat="41.17317692446791" lon="14.65235042251789"><ele>415.66666666666663</ele><time>2026-05-02T13:55:55.001Z</time></trkpt><trkpt lat="41.1731424954537" lon="14.652564499881224"><ele>411.3333333333333</ele><time>2026-05-02T13:55:56.001Z</time></trkpt><trkpt lat="41.173085549050285" lon="14.6527832883575"><ele>407.0</ele><time>2026-05-02T13:55:57.001Z</time></trkpt><trkpt lat="41.17301840484043" lon="14.65299771308658"><ele>407.0</ele><time>2026-05-02T13:55:58.001Z</time></trkpt><trkpt lat="41.172951893372286" lon="14.653198965414765"><ele>407.0</ele><time>2026-05-02T13:55:59.001Z</time></trkpt><trkpt lat="41.17288945238764" lon="14.653379210225177"><ele>407.0</ele><time>2026-05-02T13:56:00.001Z</time></trkpt><trkpt lat="41.172828051768334" lon="14.653563311514542"><ele>406.75</ele><time>2026-05-02T13:56:01.001Z</time></trkpt><trkpt lat="41.17276718661813" lon="14.653726338978883"><ele>406.5</ele><time>2026-05-02T13:56:02.001Z</time></trkpt><trkpt lat="41.17271089496317" lon="14.653891844681311"><ele>406.25</ele><time>2026-05-02T13:56:03.001Z</time></trkpt><trkpt lat="41.172657254200885" lon="14.654046682690524"><ele>406.0</ele><time>2026-05-02T13:56:04.001Z</time></trkpt><trkpt lat="41.172601126385146" lon="14.65417282135652"><ele>406.00000000000006</ele><time>2026-05-02T13:56:05.001Z</time></trkpt><trkpt lat="41.172554683691274" lon="14.654304158183024"><ele>406.0</ele><time>2026-05-02T13:56:06.001Z</time></trkpt><trkpt lat="41.17251498847608" lon="14.654419406801717"><ele>406.0</ele><time>2026-05-02T13:56:07.001Z</time></trkpt><trkpt lat="41.17248472643347" lon="14.654514060211271"><ele>406.0</ele><time>2026-05-02T13:56:08.001Z</time></trkpt><trkpt lat="41.17243132671308" lon="14.654603111914467"><ele>406.00000000000006</ele><time>2026-05-02T13:56:09.001Z</time></trkpt><trkpt lat="41.17239054905763" lon="14.654678043222901"><ele>406.0</ele><time>2026-05-02T13:56:10.001Z</time></trkpt><trkpt lat="41.172330683023816" lon="14.654760095883123"><ele>402.20000000000005</ele><time>2026-05-02T13:56:12.001Z</time></trkpt><trkpt lat="41.17224778414837" lon="14.654787520741467"><ele>398.40000000000003</ele><time>2026-05-02T13:56:14.001Z</time></trkpt><trkpt lat="41.17212364246925" lon="14.654805111523382"><ele>394.6</ele><time>2026-05-02T13:56:16.001Z</time></trkpt><trkpt lat="41.171997701076634" lon="14.654827724444813"><ele>390.8</ele><time>2026-05-02T13:56:18.001Z</time></trkpt><trkpt lat="41.17191741845433" lon="14.654823889460793"><ele>387.0</ele><time>2026-05-02T13:56:19.001Z</time></trkpt><trkpt lat="41.171839113334045" lon="14.65485643841081"><ele>387.0</ele><time>2026-05-02T13:56:20.001Z</time></trkpt><trkpt lat="41.17173954887928" lon="14.654711833457943"><ele>387.0</ele><time>2026-05-02T13:56:21.001Z</time></trkpt><trkpt lat="41.171656161658376" lon="14.654618667768084"><ele>387.0</ele><time>2026-05-02T13:56:22.001Z</time></trkpt><trkpt lat="41.171572052776824" lon="14.654514595446175"><ele>387.0</ele><time>2026-05-02T13:56:23.001Z</time></trkpt><trkpt lat="41.171484816414335" lon="14.654423551738235"><ele>383.75</ele><time>2026-05-02T13:56:24.001Z</time></trkpt><trkpt lat="41.171400162803465" lon="14.654326402674995"><ele>380.5</ele><time>2026-05-02T13:56:25.001Z</time></trkpt><trkpt lat="41.17131034879451" lon="14.654232135253482"><ele>377.25</ele><time>2026-05-02T13:56:26.001Z</time></trkpt><trkpt lat="41.17123018186621" lon="14.65410848340949"><ele>374.0</ele><time>2026-05-02T13:56:27.001Z</time></trkpt><trkpt lat="41.17116174205763" lon="14.65398266833736"><ele>374.0</ele><time>2026-05-02T13:56:28.001Z</time></trkpt><trkpt lat="41.171100198184725" lon="14.653857346616899"><ele>374.0</ele><time>2026-05-02T13:56:29Z</time></trkpt><trkpt lat="41.171037727743986" lon="14.653742909767201"><ele>374.0</ele><time>2026-05-02T13:56:30Z</time></trkpt><trkpt lat="41.17097849364874" lon="14.653619779048144"><ele>374.0</ele><time>2026-05-02T13:56:31Z</time></trkpt><trkpt lat="41.17093427065168" lon="14.653495403707092"><ele>374.0</ele><time>2026-05-02T13:56:32Z</time></trkpt><trkpt lat="41.170910326383975" lon="14.653349435128629"><ele>374.0</ele><time>2026-05-02T13:56:33Z</time></trkpt><trkpt lat="41.17088110555066" lon="14.653214096143163"><ele>374.0</ele><time>2026-05-02T13:56:34Z</time></trkpt><trkpt lat="41.170856428875204" lon="14.653077778508125"><ele>374.0</ele><time>2026-05-02T13:56:35Z</time></trkpt><trkpt lat="41.17083867400209" lon="14.652936580896975"><ele>374.0</ele><time>2026-05-02T13:56:36Z</time></trkpt><trkpt lat="41.17081797041535" lon="14.652804325198158"><ele>374.0</ele><time>2026-05-02T13:56:37Z</time></trkpt><trkpt lat="41.170784312931616" lon="14.652687757071021"><ele>373.83333333333337</ele><time>2026-05-02T13:56:38Z</time></trkpt><trkpt lat="41.170773363305166" lon="14.652558497114581"><ele>373.6666666666667</ele><time>2026-05-02T13:56:39Z</time></trkpt><trkpt lat="41.17075784979536" lon="14.652467532345534"><ele>373.5</ele><time>2026-05-02T13:56:40Z</time></trkpt><trkpt lat="41.17073006690588" lon="14.652391523664388"><ele>373.3333333333333</ele><time>2026-05-02T13:56:41Z</time></trkpt><trkpt lat="41.17064667425007" lon="14.652295983256307"><ele>373.16666666666663</ele><time>2026-05-02T13:56:43Z</time></trkpt><trkpt lat="41.17057317953754" lon="14.65231770191979"><ele>373.0</ele><time>2026-05-02T13:56:44Z</time></trkpt><trkpt lat="41.17051219517763" lon="14.652360549605627"><ele>370.2</ele><time>2026-05-02T13:56:45Z</time></trkpt><trkpt lat="41.17046915577218" lon="14.652447466810738"><ele>367.4</ele><time>2026-05-02T13:56:46Z</time></trkpt><trkpt lat="41.17040441404179" lon="14.652521931309172"><ele>364.59999999999997</ele><time>2026-05-02T13:56:47Z</time></trkpt><trkpt lat="41.17034157593927" lon="14.65261789618793"><ele>361.79999999999995</ele><time>2026-05-02T13:56:48Z</time></trkpt><trkpt lat="41.17026642802335" lon="14.65272763652493"><ele>359.0</ele><time>2026-05-02T13:56:49Z</time></trkpt><trkpt lat="41.17019442642276" lon="14.652834557928976"><ele>359.0</ele><time>2026-05-02T13:56:50Z</time></trkpt><trkpt lat="41.1701298070173" lon="14.65293965660044"><ele>359.0</ele><time>2026-05-02T13:56:51Z</time></trkpt><trkpt lat="41.1700521995276" lon="14.653069613279948"><ele>359.0</ele><time>2026-05-02T13:56:52Z</time></trkpt><trkpt lat="41.16997457044229" lon="14.653211419382554"><ele>359.0</ele><time>2026-05-02T13:56:53Z</time></trkpt><trkpt lat="41.169899626359836" lon="14.65334604792585"><ele>355.25</ele><time>2026-05-02T13:56:54Z</time></trkpt><trkpt lat="41.16982346618121" lon="14.653505980310506"><ele>351.5</ele><time>2026-05-02T13:56:55Z</time></trkpt><trkpt lat="41.169757675498495" lon="14.653686109139223"><ele>347.75</ele><time>2026-05-02T13:56:56Z</time></trkpt><trkpt lat="41.1697058754473" lon="14.653860775925128"><ele>344.0</ele><time>2026-05-02T13:56:57Z</time></trkpt><trkpt lat="41.16964735722839" lon="14.65404062075068"><ele>343.5</ele><time>2026-05-02T13:56:58Z</time></trkpt><trkpt lat="41.1696042163167" lon="14.654200767434398"><ele>343.0</ele><time>2026-05-02T13:56:59Z</time></trkpt><trkpt lat="41.16955526110113" lon="14.654363335719468"><ele>342.5</ele><time>2026-05-02T13:57:00Z</time></trkpt><trkpt lat="41.169511902826024" lon="14.654502547171617"><ele>342.0</ele><time>2026-05-02T13:57:01Z</time></trkpt><trkpt lat="41.1694761660121" lon="14.654629862105539"><ele>342.0</ele><time>2026-05-02T13:57:02Z</time></trkpt><trkpt lat="41.16942494769984" lon="14.654763312594534"><ele>342.0</ele><time>2026-05-02T13:57:03Z</time></trkpt><trkpt lat="41.16935894442254" lon="14.654847453119528"><ele>342.0</ele><time>2026-05-02T13:57:04Z</time></trkpt><trkpt lat="41.1692987587034" lon="14.654960543609588"><ele>342.0</ele><time>2026-05-02T13:57:05Z</time></trkpt><trkpt lat="41.16922586821525" lon="14.655063422182922"><ele>342.0</ele><time>2026-05-02T13:57:06Z</time></trkpt><trkpt lat="41.1691622474402" lon="14.65515483838819"><ele>342.0</ele><time>2026-05-02T13:57:07Z</time></trkpt><trkpt lat="41.16910933708352" lon="14.655242091361199"><ele>342.0</ele><time>2026-05-02T13:57:08Z</time></trkpt><trkpt lat="41.169046109764075" lon="14.65533509027966"><ele>342.0</ele><time>2026-05-02T13:57:09Z</time></trkpt><trkpt lat="41.16899310421619" lon="14.655411682109957"><ele>342.0</ele><time>2026-05-02T13:57:10Z</time></trkpt><trkpt lat="41.16894500917184" lon="14.655477989259794"><ele>342.0</ele><time>2026-05-02T13:57:11Z</time></trkpt><trkpt lat="41.168868220088825" lon="14.655564628575876"><ele>342.0</ele><time>2026-05-02T13:57:13Z</time></trkpt><trkpt lat="41.168804981402424" lon="14.655600557492724"><ele>340.5</ele><time>2026-05-02T13:57:15Z</time></trkpt><trkpt lat="41.168715886173594" lon="14.655584154055044"><ele>339.0</ele><time>2026-05-02T13:57:17Z</time></trkpt><trkpt lat="41.16863258127729" lon="14.655517991760329"><ele>337.5</ele><time>2026-05-02T13:57:19Z</time></trkpt><trkpt lat="41.16865870672916" lon="14.6553727435245"><ele>336.0</ele><time>2026-05-02T13:57:20Z</time></trkpt><trkpt lat="41.168665647042125" lon="14.65527761952717"><ele>334.5</ele><time>2026-05-02T13:57:21Z</time></trkpt><trkpt lat="41.16866995130038" lon="14.655182051878832"><ele>333.0</ele><time>2026-05-02T13:57:22Z</time></trkpt><trkpt lat="41.168666779652376" lon="14.655093443508571"><ele>332.59999999999997</ele><time>2026-05-02T13:57:23Z</time></trkpt><trkpt lat="41.16866907135197" lon="14.654949374064994"><ele>332.2</ele><time>2026-05-02T13:57:25Z</time></trkpt><trkpt lat="41.16867186392095" lon="14.654850171861344"><ele>331.8</ele><time>2026-05-02T13:57:28Z</time></trkpt><trkpt lat="41.168546820481836" lon="14.65498094096"><ele>331.4</ele><time>2026-05-02T13:57:31.001Z</time></trkpt><trkpt lat="41.16844192228861" lon="14.65500976985563"><ele>331.0</ele><time>2026-05-02T13:57:33.001Z</time></trkpt><trkpt lat="41.16832196334704" lon="14.655059325873394"><ele>331.0</ele><time>2026-05-02T13:57:35.001Z</time></trkpt><trkpt lat="41.168231912616406" lon="14.655097316551318"><ele>331.0</ele><time>2026-05-02T13:57:36.001Z</time></trkpt><trkpt lat="41.16814324048766" lon="14.65513555628811"><ele>331.0</ele><time>2026-05-02T13:57:37.001Z</time></trkpt><trkpt lat="41.16805588295123" lon="14.655175507212096"><ele>331.0</ele><time>2026-05-02T13:57:38.001Z</time></trkpt><trkpt lat="41.16795705065087" lon="14.65521402326234"><ele>331.0</ele><time>2026-05-02T13:57:39.001Z</time></trkpt><trkpt lat="41.16786842392129" lon="14.655252691475251"><ele>329.4</ele><time>2026-05-02T13:57:40.001Z</time></trkpt><trkpt lat="41.16777515012663" lon="14.655300813274048"><ele>327.8</ele><time>2026-05-02T13:57:41.001Z</time></trkpt><trkpt lat="41.16767511846583" lon="14.655340539981973"><ele>326.2</ele><time>2026-05-02T13:57:42.001Z</time></trkpt><trkpt lat="41.16757311845359" lon="14.655381446183108"><ele>324.59999999999997</ele><time>2026-05-02T13:57:43.001Z</time></trkpt><trkpt lat="41.16745899743198" lon="14.655429504941692"><ele>323.0</ele><time>2026-05-02T13:57:44.001Z</time></trkpt><trkpt lat="41.16734539930543" lon="14.655486784000226"><ele>320.5</ele><time>2026-05-02T13:57:45.001Z</time></trkpt><trkpt lat="41.167226973374625" lon="14.65555159394141"><ele>318.0</ele><time>2026-05-02T13:57:46.001Z</time></trkpt><trkpt lat="41.167110609886535" lon="14.655613595831907"><ele>315.5</ele><time>2026-05-02T13:57:47.001Z</time></trkpt><trkpt lat="41.16698527179686" lon="14.655674741495325"><ele>313.0</ele><time>2026-05-02T13:57:48.001Z</time></trkpt><trkpt lat="41.166859859165264" lon="14.655744565605476"><ele>313.0</ele><time>2026-05-02T13:57:49.001Z</time></trkpt><trkpt lat="41.16672919766062" lon="14.655813361233587"><ele>313.0</ele><time>2026-05-02T13:57:50.001Z</time></trkpt><trkpt lat="41.166595880740516" lon="14.655881866904902"><ele>313.0</ele><time>2026-05-02T13:57:51.001Z</time></trkpt><trkpt lat="41.1664593106001" lon="14.655950590492404"><ele>313.0</ele><time>2026-05-02T13:57:52.001Z</time></trkpt><trkpt lat="41.16632267427399" lon="14.656013029397936"><ele>311.25</ele><time>2026-05-02T13:57:53.001Z</time></trkpt><trkpt lat="41.16618670717936" lon="14.656079447375221"><ele>309.5</ele><time>2026-05-02T13:57:54.001Z</time></trkpt><trkpt lat="41.16605332399489" lon="14.656134443457514"><ele>307.75</ele><time>2026-05-02T13:57:55.001Z</time></trkpt><trkpt lat="41.165906981259866" lon="14.656205159968781"><ele>306.0</ele><time>2026-05-02T13:57:56.001Z</time></trkpt><trkpt lat="41.16576945120959" lon="14.656265460503622"><ele>304.25</ele><time>2026-05-02T13:57:57.001Z</time></trkpt><trkpt lat="41.165631162033726" lon="14.656338532471572"><ele>302.5</ele><time>2026-05-02T13:57:58.001Z</time></trkpt><trkpt lat="41.16549305543476" lon="14.656405367407459"><ele>300.75</ele><time>2026-05-02T13:57:59.001Z</time></trkpt><trkpt lat="41.165357199379216" lon="14.656462578168446"><ele>299.0</ele><time>2026-05-02T13:58:00.001Z</time></trkpt><trkpt lat="41.165223582747466" lon="14.656508609006021"><ele>299.0</ele><time>2026-05-02T13:58:01.001Z</time></trkpt><trkpt lat="41.16508803885498" lon="14.656546903721965"><ele>299.0</ele><time>2026-05-02T13:58:02.001Z</time></trkpt><trkpt lat="41.16495053344136" lon="14.656576039040557"><ele>299.0</ele><time>2026-05-02T13:58:03.001Z</time></trkpt><trkpt lat="41.16481684029803" lon="14.656602711803204"><ele>299.0</ele><time>2026-05-02T13:58:04.001Z</time></trkpt><trkpt lat="41.164675537073414" lon="14.656641633631422"><ele>297.25</ele><time>2026-05-02T13:58:05.001Z</time></trkpt><trkpt lat="41.16453878278859" lon="14.656680169008547"><ele>295.5</ele><time>2026-05-02T13:58:06.001Z</time></trkpt><trkpt lat="41.164403025251474" lon="14.656727577271875"><ele>293.75</ele><time>2026-05-02T13:58:07.001Z</time></trkpt><trkpt lat="41.16425657070136" lon="14.656779065330781"><ele>292.0</ele><time>2026-05-02T13:58:08.001Z</time></trkpt><trkpt lat="41.16410785915501" lon="14.656834653898253"><ele>289.66666666666663</ele><time>2026-05-02T13:58:09.001Z</time></trkpt><trkpt lat="41.16395932372495" lon="14.656884171228732"><ele>287.3333333333333</ele><time>2026-05-02T13:58:10.001Z</time></trkpt><trkpt lat="41.163799072237914" lon="14.656942466755103"><ele>285.0</ele><time>2026-05-02T13:58:11.001Z</time></trkpt><trkpt lat="41.1636455887887" lon="14.656982409209826"><ele>284.3333333333333</ele><time>2026-05-02T13:58:12.001Z</time></trkpt><trkpt lat="41.16348624956276" lon="14.657032707452933"><ele>283.66666666666663</ele><time>2026-05-02T13:58:13.001Z</time></trkpt><trkpt lat="41.16332592941014" lon="14.65708529437062"><ele>283.0</ele><time>2026-05-02T13:58:14.001Z</time></trkpt><trkpt lat="41.1631661480375" lon="14.657136437189024"><ele>281.0</ele><time>2026-05-02T13:58:15.001Z</time></trkpt><trkpt lat="41.163008105126586" lon="14.657190617781279"><ele>279.0</ele><time>2026-05-02T13:58:16.001Z</time></trkpt><trkpt lat="41.162835226762496" lon="14.657253799090947"><ele>277.0</ele><time>2026-05-02T13:58:17.001Z</time></trkpt><trkpt lat="41.16267406065003" lon="14.657320384428726"><ele>277.0</ele><time>2026-05-02T13:58:18.001Z</time></trkpt><trkpt lat="41.16252612635059" lon="14.657378371291566"><ele>277.0</ele><time>2026-05-02T13:58:19.001Z</time></trkpt><trkpt lat="41.16238007797846" lon="14.657442421384726"><ele>277.0</ele><time>2026-05-02T13:58:20.001Z</time></trkpt><trkpt lat="41.16222574465872" lon="14.657515854275792"><ele>275.0</ele><time>2026-05-02T13:58:21.001Z</time></trkpt><trkpt lat="41.16207476070629" lon="14.657579921821794"><ele>273.0</ele><time>2026-05-02T13:58:22.001Z</time></trkpt><trkpt lat="41.16192380489498" lon="14.657648899939915"><ele>271.0</ele><time>2026-05-02T13:58:23.001Z</time></trkpt><trkpt lat="41.161771217205406" lon="14.657718622861573"><ele>270.3333333333333</ele><time>2026-05-02T13:58:24.001Z</time></trkpt><trkpt lat="41.16161976794498" lon="14.65778926641011"><ele>269.6666666666667</ele><time>2026-05-02T13:58:25.001Z</time></trkpt><trkpt lat="41.16146900186976" lon="14.657858090273335"><ele>269.0</ele><time>2026-05-02T13:58:26.001Z</time></trkpt><trkpt lat="41.161329608182385" lon="14.657912627624247"><ele>268.0</ele><time>2026-05-02T13:58:27.001Z</time></trkpt><trkpt lat="41.16119176354468" lon="14.657982082831289"><ele>267.0</ele><time>2026-05-02T13:58:28.001Z</time></trkpt><trkpt lat="41.161057058928385" lon="14.658051312099982"><ele>266.0</ele><time>2026-05-02T13:58:29.001Z</time></trkpt><trkpt lat="41.16092760185732" lon="14.658117942984806"><ele>265.0</ele><time>2026-05-02T13:58:30.001Z</time></trkpt><trkpt lat="41.16079876875402" lon="14.658179580417759"><ele>263.75</ele><time>2026-05-02T13:58:31.001Z</time></trkpt><trkpt lat="41.16067725938238" lon="14.658234264277068"><ele>262.5</ele><time>2026-05-02T13:58:32.001Z</time></trkpt><trkpt lat="41.16056262583828" lon="14.65827535654719"><ele>261.25</ele><time>2026-05-02T13:58:33.001Z</time></trkpt><trkpt lat="41.16045743660683" lon="14.658323974505933"><ele>260.0</ele><time>2026-05-02T13:58:34.001Z</time></trkpt><trkpt lat="41.16036137966389" lon="14.65837237978717"><ele>260.0</ele><time>2026-05-02T13:58:35Z</time></trkpt><trkpt lat="41.16027712627546" lon="14.658411177481172"><ele>260.0</ele><time>2026-05-02T13:58:36Z</time></trkpt><trkpt lat="41.160195120494215" lon="14.658446516646276"><ele>260.0</ele><time>2026-05-02T13:58:37Z</time></trkpt><trkpt lat="41.160121745339914" lon="14.658482643219267"><ele>260.0</ele><time>2026-05-02T13:58:38Z</time></trkpt><trkpt lat="41.160046498594944" lon="14.658510009056142"><ele>260.0</ele><time>2026-05-02T13:58:39Z</time></trkpt><trkpt lat="41.15996670027753" lon="14.658517547093489"><ele>260.0</ele><time>2026-05-02T13:58:40Z</time></trkpt><trkpt lat="41.15988402827379" lon="14.658500917567725"><ele>259.33333333333337</ele><time>2026-05-02T13:58:41Z</time></trkpt><trkpt lat="41.15979979386595" lon="14.658465101668126"><ele>258.6666666666667</ele><time>2026-05-02T13:58:42Z</time></trkpt><trkpt lat="41.15971919075209" lon="14.658426181963508"><ele>258.0</ele><time>2026-05-02T13:58:43Z</time></trkpt><trkpt lat="41.159636179907224" lon="14.658384925879623"><ele>257.3333333333333</ele><time>2026-05-02T13:58:44Z</time></trkpt><trkpt lat="41.159548828948694" lon="14.65835304024786"><ele>256.66666666666663</ele><time>2026-05-02T13:58:45Z</time></trkpt><trkpt lat="41.15947809377173" lon="14.658338497319688"><ele>256.0</ele><time>2026-05-02T13:58:46Z</time></trkpt><trkpt lat="41.159411841070664" lon="14.658326524673992"><ele>256.0</ele><time>2026-05-02T13:58:47Z</time></trkpt><trkpt lat="41.15928693669934" lon="14.658299603526158"><ele>256.0</ele><time>2026-05-02T13:58:49Z</time></trkpt><trkpt lat="41.15917448679811" lon="14.658345212293247"><ele>256.0</ele><time>2026-05-02T13:58:51Z</time></trkpt><trkpt lat="41.15910644287575" lon="14.658497262688568"><ele>256.0</ele><time>2026-05-02T13:58:53Z</time></trkpt><trkpt lat="41.15908695279599" lon="14.658577501634012"><ele>256.0</ele><time>2026-05-02T13:58:54Z</time></trkpt><trkpt lat="41.15900194920114" lon="14.658713497511028"><ele>255.8</ele><time>2026-05-02T13:58:56Z</time></trkpt><trkpt lat="41.15894510901165" lon="14.658784381131"><ele>255.60000000000002</ele><time>2026-05-02T13:58:57Z</time></trkpt><trkpt lat="41.158883413444585" lon="14.658864037876608"><ele>255.4</ele><time>2026-05-02T13:58:58Z</time></trkpt><trkpt lat="41.15881813948233" lon="14.65893677725654"><ele>255.2</ele><time>2026-05-02T13:58:59Z</time></trkpt><trkpt lat="41.15874713412015" lon="14.659022729411198"><ele>255.0</ele><time>2026-05-02T13:59:00Z</time></trkpt><trkpt lat="41.158651860105884" lon="14.659109228695566"><ele>255.0</ele><time>2026-05-02T13:59:01Z</time></trkpt><trkpt lat="41.15857237688346" lon="14.659201752554202"><ele>255.0</ele><time>2026-05-02T13:59:02Z</time></trkpt><trkpt lat="41.15847154432252" lon="14.659292730455832"><ele>255.0</ele><time>2026-05-02T13:59:03Z</time></trkpt><trkpt lat="41.15837459477354" lon="14.659390775304095"><ele>255.0</ele><time>2026-05-02T13:59:04Z</time></trkpt><trkpt lat="41.15828585911855" lon="14.659505416065848"><ele>253.75</ele><time>2026-05-02T13:59:05Z</time></trkpt><trkpt lat="41.15820070421761" lon="14.659628853324326"><ele>252.5</ele><time>2026-05-02T13:59:06Z</time></trkpt><trkpt lat="41.15811688915011" lon="14.659768011653266"><ele>251.25</ele><time>2026-05-02T13:59:07Z</time></trkpt><trkpt lat="41.15803659550094" lon="14.659913201422395"><ele>250.0</ele><time>2026-05-02T13:59:08Z</time></trkpt><trkpt lat="41.15795180016647" lon="14.660055415809609"><ele>250.0</ele><time>2026-05-02T13:59:09Z</time></trkpt><trkpt lat="41.15787751174164" lon="14.660181559139513"><ele>250.0</ele><time>2026-05-02T13:59:10Z</time></trkpt><trkpt lat="41.157813703987934" lon="14.660289637438238"><ele>250.0</ele><time>2026-05-02T13:59:11Z</time></trkpt><trkpt lat="41.157737944964246" lon="14.660409513772942"><ele>250.0</ele><time>2026-05-02T13:59:12Z</time></trkpt><trkpt lat="41.15766583382249" lon="14.660520898925096"><ele>248.5</ele><time>2026-05-02T13:59:13Z</time></trkpt><trkpt lat="41.157584414141276" lon="14.660648722674804"><ele>247.0</ele><time>2026-05-02T13:59:14Z</time></trkpt><trkpt lat="41.157499960321545" lon="14.66076468166041"><ele>245.5</ele><time>2026-05-02T13:59:15Z</time></trkpt><trkpt lat="41.157412573773456" lon="14.660890925002128"><ele>244.0</ele><time>2026-05-02T13:59:16Z</time></trkpt><trkpt lat="41.15732667623183" lon="14.66103473399975"><ele>240.5</ele><time>2026-05-02T13:59:17Z</time></trkpt><trkpt lat="41.15723743854364" lon="14.661171764741956"><ele>237.0</ele><time>2026-05-02T13:59:18Z</time></trkpt><trkpt lat="41.15714881449368" lon="14.661304459963649"><ele>233.5</ele><time>2026-05-02T13:59:19Z</time></trkpt><trkpt lat="41.157064779437135" lon="14.661429851092397"><ele>230.0</ele><time>2026-05-02T13:59:20Z</time></trkpt><trkpt lat="41.1569723968915" lon="14.661568780555736"><ele>230.0</ele><time>2026-05-02T13:59:21Z</time></trkpt><trkpt lat="41.1568847423792" lon="14.661710458181952"><ele>230.0</ele><time>2026-05-02T13:59:22Z</time></trkpt><trkpt lat="41.156795661334385" lon="14.661849936447616"><ele>230.0</ele><time>2026-05-02T13:59:23Z</time></trkpt><trkpt lat="41.15670228719625" lon="14.661992802543974"><ele>230.0</ele><time>2026-05-02T13:59:24Z</time></trkpt><trkpt lat="41.15660734846795" lon="14.662132864139249"><ele>228.5</ele><time>2026-05-02T13:59:25Z</time></trkpt><trkpt lat="41.15650776044169" lon="14.662275943919784"><ele>227.0</ele><time>2026-05-02T13:59:26Z</time></trkpt><trkpt lat="41.156403861712484" lon="14.66241712423093"><ele>225.5</ele><time>2026-05-02T13:59:27Z</time></trkpt><trkpt lat="41.15630241525159" lon="14.662559811523312"><ele>224.0</ele><time>2026-05-02T13:59:28Z</time></trkpt><trkpt lat="41.15618277110877" lon="14.662708382666251"><ele>225.66666666666669</ele><time>2026-05-02T13:59:29Z</time></trkpt><trkpt lat="41.15606205739577" lon="14.662827196522628"><ele>227.33333333333331</ele><time>2026-05-02T13:59:30Z</time></trkpt><trkpt lat="41.155923324278945" lon="14.66293660423633"><ele>229.0</ele><time>2026-05-02T13:59:31Z</time></trkpt><trkpt lat="41.155781813223165" lon="14.66302292446372"><ele>229.0</ele><time>2026-05-02T13:59:32Z</time></trkpt><trkpt lat="41.15563943295398" lon="14.663092965949154"><ele>229.0</ele><time>2026-05-02T13:59:33.001Z</time></trkpt><trkpt lat="41.15548362283745" lon="14.663181892406476"><ele>229.0</ele><time>2026-05-02T13:59:34.001Z</time></trkpt><trkpt lat="41.15534197142537" lon="14.663250248223036"><ele>229.0</ele><time>2026-05-02T13:59:35.001Z</time></trkpt><trkpt lat="41.155178750528336" lon="14.663321658013997"><ele>229.0</ele><time>2026-05-02T13:59:36.001Z</time></trkpt><trkpt lat="41.15501802362493" lon="14.663399460063376"><ele>229.0</ele><time>2026-05-02T13:59:37.001Z</time></trkpt><trkpt lat="41.154858138821105" lon="14.663471498630447"><ele>228.66666666666666</ele><time>2026-05-02T13:59:38.001Z</time></trkpt><trkpt lat="41.154693675733014" lon="14.663528291741445"><ele>228.33333333333331</ele><time>2026-05-02T13:59:39.001Z</time></trkpt><trkpt lat="41.154525231077024" lon="14.663573596375628"><ele>228.0</ele><time>2026-05-02T13:59:40.001Z</time></trkpt><trkpt lat="41.15436259488982" lon="14.66358450948258"><ele>228.0</ele><time>2026-05-02T13:59:41.001Z</time></trkpt><trkpt lat="41.15419858467017" lon="14.663575518664715"><ele>228.0</ele><time>2026-05-02T13:59:42.001Z</time></trkpt><trkpt lat="41.15403154546025" lon="14.663545385437663"><ele>228.0</ele><time>2026-05-02T13:59:43.001Z</time></trkpt><trkpt lat="41.15387486337413" lon="14.663504684534736"><ele>226.75</ele><time>2026-05-02T13:59:44.001Z</time></trkpt><trkpt lat="41.15372893681447" lon="14.66346155211878"><ele>225.5</ele><time>2026-05-02T13:59:45.001Z</time></trkpt><trkpt lat="41.153582257854914" lon="14.663454326341393"><ele>224.25</ele><time>2026-05-02T13:59:46.001Z</time></trkpt><trkpt lat="41.153442164123284" lon="14.663440300960177"><ele>223.0</ele><time>2026-05-02T13:59:47.001Z</time></trkpt><trkpt lat="41.153308411764165" lon="14.663442288090248"><ele>221.75</ele><time>2026-05-02T13:59:48.001Z</time></trkpt><trkpt lat="41.15317754163418" lon="14.66345582044649"><ele>220.5</ele><time>2026-05-02T13:59:49.001Z</time></trkpt><trkpt lat="41.153057736767494" lon="14.663510837475664"><ele>219.25</ele><time>2026-05-02T13:59:50.001Z</time></trkpt><trkpt lat="41.152929154777176" lon="14.663595514815011"><ele>218.0</ele><time>2026-05-02T13:59:51.001Z</time></trkpt><trkpt lat="41.152802936468" lon="14.663733872529912"><ele>218.0</ele><time>2026-05-02T13:59:52.001Z</time></trkpt><trkpt lat="41.15267512247217" lon="14.66389073657655"><ele>218.0</ele><time>2026-05-02T13:59:53.001Z</time></trkpt><trkpt lat="41.15255050637924" lon="14.664045446079788"><ele>218.0</ele><time>2026-05-02T13:59:54.001Z</time></trkpt><trkpt lat="41.152424353248584" lon="14.664219824406292"><ele>218.33333333333334</ele><time>2026-05-02T13:59:55.001Z</time></trkpt><trkpt lat="41.15230497253203" lon="14.664382994426425"><ele>218.66666666666669</ele><time>2026-05-02T13:59:56.001Z</time></trkpt><trkpt lat="41.152196668157494" lon="14.664542943511298"><ele>219.0</ele><time>2026-05-02T13:59:57.001Z</time></trkpt><trkpt lat="41.152103368570444" lon="14.664704724147803"><ele>219.0</ele><time>2026-05-02T13:59:58.001Z</time></trkpt><trkpt lat="41.15202606845199" lon="14.664877909784865"><ele>219.0</ele><time>2026-05-02T13:59:59.001Z</time></trkpt><trkpt lat="41.1519900629062" lon="14.665049068246361"><ele>219.0</ele><time>2026-05-02T14:00:00.001Z</time></trkpt><trkpt lat="41.151973642536014" lon="14.665228591388933"><ele>219.0</ele><time>2026-05-02T14:00:01.001Z</time></trkpt><trkpt lat="41.15198269801745" lon="14.665411798104573"><ele>221.0</ele><time>2026-05-02T14:00:02.001Z</time></trkpt><trkpt lat="41.152016449518136" lon="14.665599865250583"><ele>223.0</ele><time>2026-05-02T14:00:03.001Z</time></trkpt><trkpt lat="41.15203552337212" lon="14.66579437847838"><ele>225.0</ele><time>2026-05-02T14:00:04.001Z</time></trkpt><trkpt lat="41.15207060353815" lon="14.665989536664325"><ele>227.0</ele><time>2026-05-02T14:00:05.001Z</time></trkpt><trkpt lat="41.152095162755636" lon="14.666195357885272"><ele>229.33333333333334</ele><time>2026-05-02T14:00:06.001Z</time></trkpt><trkpt lat="41.15209828554697" lon="14.666395436047372"><ele>231.66666666666669</ele><time>2026-05-02T14:00:07.001Z</time></trkpt><trkpt lat="41.15208984479706" lon="14.666607322831075"><ele>234.0</ele><time>2026-05-02T14:00:08.001Z</time></trkpt><trkpt lat="41.152078443931735" lon="14.666823720070344"><ele>235.66666666666669</ele><time>2026-05-02T14:00:09.001Z</time></trkpt><trkpt lat="41.152066442717626" lon="14.667047724011523"><ele>237.33333333333334</ele><time>2026-05-02T14:00:10.001Z</time></trkpt><trkpt lat="41.15205518789149" lon="14.667278052949966"><ele>239.0</ele><time>2026-05-02T14:00:11.001Z</time></trkpt><trkpt lat="41.15204539266207" lon="14.667492935826393"><ele>239.0</ele><time>2026-05-02T14:00:12.001Z</time></trkpt><trkpt lat="41.15203450016295" lon="14.667711898988873"><ele>239.0</ele><time>2026-05-02T14:00:13.001Z</time></trkpt><trkpt lat="41.15202161359552" lon="14.667910237678951"><ele>239.0</ele><time>2026-05-02T14:00:14.001Z</time></trkpt><trkpt lat="41.15200871194804" lon="14.668090550785031"><ele>240.5</ele><time>2026-05-02T14:00:15.001Z</time></trkpt><trkpt lat="41.15199777529442" lon="14.668243401110502"><ele>242.0</ele><time>2026-05-02T14:00:16.001Z</time></trkpt><trkpt lat="41.15198373090921" lon="14.668373231315382"><ele>243.5</ele><time>2026-05-02T14:00:17.001Z</time></trkpt><trkpt lat="41.15195795393186" lon="14.66854759373827"><ele>245.0</ele><time>2026-05-02T14:00:18.001Z</time></trkpt><trkpt lat="41.15188488004344" lon="14.668688446951238"><ele>244.5</ele><time>2026-05-02T14:00:19.001Z</time></trkpt><trkpt lat="41.151803180919885" lon="14.668827429363075"><ele>244.0</ele><time>2026-05-02T14:00:20.001Z</time></trkpt><trkpt lat="41.151709936031686" lon="14.668959701600105"><ele>243.5</ele><time>2026-05-02T14:00:21.001Z</time></trkpt><trkpt lat="41.1516125833075" lon="14.66911119267616"><ele>243.0</ele><time>2026-05-02T14:00:22.001Z</time></trkpt><trkpt lat="41.1515163332097" lon="14.66927025896993"><ele>243.0</ele><time>2026-05-02T14:00:23.001Z</time></trkpt><trkpt lat="41.15141645594054" lon="14.669407412658074"><ele>243.0</ele><time>2026-05-02T14:00:24.001Z</time></trkpt><trkpt lat="41.15132372531652" lon="14.669541835440477"><ele>243.0</ele><time>2026-05-02T14:00:25.001Z</time></trkpt><trkpt lat="41.15123943074035" lon="14.669678086509137"><ele>243.0</ele><time>2026-05-02T14:00:26.001Z</time></trkpt><trkpt lat="41.151174636056275" lon="14.66978456863805"><ele>244.4</ele><time>2026-05-02T14:00:27.001Z</time></trkpt><trkpt lat="41.15111815136087" lon="14.66986997872394"><ele>245.8</ele><time>2026-05-02T14:00:28.001Z</time></trkpt><trkpt lat="41.15108527546728" lon="14.669976704259875"><ele>247.2</ele><time>2026-05-02T14:00:29.001Z</time></trkpt><trkpt lat="41.15100418982146" lon="14.670075212058007"><ele>248.6</ele><time>2026-05-02T14:00:31.001Z</time></trkpt><trkpt lat="41.15094583857632" lon="14.67011495930476"><ele>250.0</ele><time>2026-05-02T14:00:32.001Z</time></trkpt><trkpt lat="41.15082817583599" lon="14.67003393266901"><ele>250.0</ele><time>2026-05-02T14:00:33.001Z</time></trkpt><trkpt lat="41.150737219158486" lon="14.670004483249569"><ele>250.0</ele><time>2026-05-02T14:00:34.001Z</time></trkpt><trkpt lat="41.15064220276382" lon="14.669981726227308"><ele>250.0</ele><time>2026-05-02T14:00:35.001Z</time></trkpt><trkpt lat="41.1505368072389" lon="14.669958372700629"><ele>250.0</ele><time>2026-05-02T14:00:36.001Z</time></trkpt><trkpt lat="41.15042261810297" lon="14.669940416524287"><ele>250.0</ele><time>2026-05-02T14:00:37.001Z</time></trkpt><trkpt lat="41.15030955133887" lon="14.66992086924568"><ele>247.5</ele><time>2026-05-02T14:00:38.001Z</time></trkpt><trkpt lat="41.15018904697398" lon="14.669902357782801"><ele>245.0</ele><time>2026-05-02T14:00:39.001Z</time></trkpt><trkpt lat="41.15007185270202" lon="14.669876122771653"><ele>242.5</ele><time>2026-05-02T14:00:40.001Z</time></trkpt><trkpt lat="41.149953549059866" lon="14.669849091038163"><ele>240.0</ele><time>2026-05-02T14:00:41Z</time></trkpt><trkpt lat="41.1498338375966" lon="14.669823587747343"><ele>236.5</ele><time>2026-05-02T14:00:42Z</time></trkpt><trkpt lat="41.14972247104356" lon="14.669798876012699"><ele>233.0</ele><time>2026-05-02T14:00:43Z</time></trkpt><trkpt lat="41.1495992870718" lon="14.669777453794941"><ele>229.5</ele><time>2026-05-02T14:00:44Z</time></trkpt><trkpt lat="41.1494772784343" lon="14.669742083673327"><ele>226.0</ele><time>2026-05-02T14:00:45Z</time></trkpt><trkpt lat="41.14936186998595" lon="14.669707194956045"><ele>226.0</ele><time>2026-05-02T14:00:46Z</time></trkpt><trkpt lat="41.149240010140296" lon="14.669672721161877"><ele>226.0</ele><time>2026-05-02T14:00:47Z</time></trkpt><trkpt lat="41.14911925113915" lon="14.669654540849363"><ele>226.0</ele><time>2026-05-02T14:00:48Z</time></trkpt><trkpt lat="41.1490024494812" lon="14.669642167594825"><ele>226.0</ele><time>2026-05-02T14:00:49Z</time></trkpt><trkpt lat="41.148879209736144" lon="14.669638824689475"><ele>223.0</ele><time>2026-05-02T14:00:50Z</time></trkpt><trkpt lat="41.1487516182836" lon="14.669626617636007"><ele>220.0</ele><time>2026-05-02T14:00:51Z</time></trkpt><trkpt lat="41.14862063396027" lon="14.669603414379752"><ele>217.0</ele><time>2026-05-02T14:00:52Z</time></trkpt><trkpt lat="41.14849075562704" lon="14.669573281677941"><ele>214.0</ele><time>2026-05-02T14:00:53Z</time></trkpt><trkpt lat="41.148351032969174" lon="14.669544128697606"><ele>214.0</ele><time>2026-05-02T14:00:54Z</time></trkpt><trkpt lat="41.14822846268117" lon="14.6695216294841"><ele>214.0</ele><time>2026-05-02T14:00:55Z</time></trkpt><trkpt lat="41.14810717714124" lon="14.669503322784095"><ele>214.0</ele><time>2026-05-02T14:00:56Z</time></trkpt><trkpt lat="41.147978046958194" lon="14.669483694439537"><ele>214.0</ele><time>2026-05-02T14:00:57Z</time></trkpt><trkpt lat="41.14784429696871" lon="14.6694735166555"><ele>210.75</ele><time>2026-05-02T14:00:58Z</time></trkpt><trkpt lat="41.14771950507329" lon="14.669460692333734"><ele>207.5</ele><time>2026-05-02T14:00:59Z</time></trkpt><trkpt lat="41.147602900008366" lon="14.669467957025667"><ele>204.25</ele><time>2026-05-02T14:01:00Z</time></trkpt><trkpt lat="41.147484390772675" lon="14.66946018051425"><ele>201.0</ele><time>2026-05-02T14:01:01Z</time></trkpt><trkpt lat="41.147369941550856" lon="14.66945587080784"><ele>198.60000000000002</ele><time>2026-05-02T14:01:02Z</time></trkpt><trkpt lat="41.14726110277236" lon="14.669451011352397"><ele>196.2</ele><time>2026-05-02T14:01:03Z</time></trkpt><trkpt lat="41.147161579231465" lon="14.6694420506385"><ele>193.8</ele><time>2026-05-02T14:01:04Z</time></trkpt><trkpt lat="41.1470649913198" lon="14.669433351143027"><ele>191.39999999999998</ele><time>2026-05-02T14:01:05Z</time></trkpt><trkpt lat="41.14697100990282" lon="14.669393143317532"><ele>189.0</ele><time>2026-05-02T14:01:06Z</time></trkpt><trkpt lat="41.14686645335453" lon="14.66937019069866"><ele>189.0</ele><time>2026-05-02T14:01:07Z</time></trkpt><trkpt lat="41.146764319849915" lon="14.669346699326448"><ele>189.0</ele><time>2026-05-02T14:01:08Z</time></trkpt><trkpt lat="41.14663759654921" lon="14.669317613386118"><ele>189.0</ele><time>2026-05-02T14:01:09Z</time></trkpt><trkpt lat="41.1465126436524" lon="14.669288414017693"><ele>189.0</ele><time>2026-05-02T14:01:10Z</time></trkpt><trkpt lat="41.14638851521204" lon="14.669256809930562"><ele>187.5</ele><time>2026-05-02T14:01:11Z</time></trkpt><trkpt lat="41.146252484694116" lon="14.669221131172142"><ele>186.0</ele><time>2026-05-02T14:01:12Z</time></trkpt><trkpt lat="41.14611777810845" lon="14.669199778823845"><ele>184.5</ele><time>2026-05-02T14:01:13Z</time></trkpt><trkpt lat="41.14597518580056" lon="14.669192563233494"><ele>183.0</ele><time>2026-05-02T14:01:14Z</time></trkpt><trkpt lat="41.14583209457499" lon="14.669197090843229"><ele>180.75</ele><time>2026-05-02T14:01:15Z</time></trkpt><trkpt lat="41.145701116011736" lon="14.669209133722633"><ele>178.5</ele><time>2026-05-02T14:01:16Z</time></trkpt><trkpt lat="41.145579346085746" lon="14.66922481670155"><ele>176.25</ele><time>2026-05-02T14:01:17Z</time></trkpt><trkpt lat="41.14545626630507" lon="14.669240668238537"><ele>174.0</ele><time>2026-05-02T14:01:18Z</time></trkpt><trkpt lat="41.145333382398064" lon="14.669256494533448"><ele>174.0</ele><time>2026-05-02T14:01:19Z</time></trkpt><trkpt lat="41.14521030167043" lon="14.669272346176296"><ele>174.0</ele><time>2026-05-02T14:01:20Z</time></trkpt><trkpt lat="41.14509549887714" lon="14.669321128697558"><ele>174.0</ele><time>2026-05-02T14:01:21Z</time></trkpt><trkpt lat="41.14498115285758" lon="14.669334628398216"><ele>174.0</ele><time>2026-05-02T14:01:22Z</time></trkpt><trkpt lat="41.1448691921981" lon="14.669343659008298"><ele>173.0</ele><time>2026-05-02T14:01:23Z</time></trkpt><trkpt lat="41.14477180779953" lon="14.669358355913579"><ele>172.0</ele><time>2026-05-02T14:01:24Z</time></trkpt><trkpt lat="41.14467714883876" lon="14.669354469905622"><ele>171.0</ele><time>2026-05-02T14:01:25Z</time></trkpt><trkpt lat="41.14459570809727" lon="14.66932802158262"><ele>170.0</ele><time>2026-05-02T14:01:26Z</time></trkpt><trkpt lat="41.1445212425932" lon="14.66928078672501"><ele>169.0</ele><time>2026-05-02T14:01:27Z</time></trkpt><trkpt lat="41.14444508160774" lon="14.669195394951979"><ele>169.0</ele><time>2026-05-02T14:01:28Z</time></trkpt><trkpt lat="41.1443672474256" lon="14.66909332352169"><ele>169.0</ele><time>2026-05-02T14:01:29Z</time></trkpt><trkpt lat="41.144285399692805" lon="14.668988423742094"><ele>169.0</ele><time>2026-05-02T14:01:30Z</time></trkpt><trkpt lat="41.14418779177045" lon="14.668875548764163"><ele>169.0</ele><time>2026-05-02T14:01:31Z</time></trkpt><trkpt lat="41.14406713682169" lon="14.668748435891532"><ele>168.5</ele><time>2026-05-02T14:01:32Z</time></trkpt><trkpt lat="41.143958801676725" lon="14.668615626809487"><ele>168.0</ele><time>2026-05-02T14:01:33Z</time></trkpt><trkpt lat="41.143849593426964" lon="14.668485893781947"><ele>167.5</ele><time>2026-05-02T14:01:34Z</time></trkpt><trkpt lat="41.14373761839538" lon="14.668360911035167"><ele>167.0</ele><time>2026-05-02T14:01:35Z</time></trkpt><trkpt lat="41.143636302550476" lon="14.668244514174818"><ele>167.0</ele><time>2026-05-02T14:01:36Z</time></trkpt><trkpt lat="41.14353153392825" lon="14.668141101273989"><ele>167.0</ele><time>2026-05-02T14:01:37Z</time></trkpt><trkpt lat="41.14343870691394" lon="14.668054750256648"><ele>167.0</ele><time>2026-05-02T14:01:38.001Z</time></trkpt><trkpt lat="41.14335591819112" lon="14.667994274543535"><ele>167.0</ele><time>2026-05-02T14:01:39.001Z</time></trkpt><trkpt lat="41.14326453472433" lon="14.667977527226569"><ele>167.0</ele><time>2026-05-02T14:01:40.001Z</time></trkpt><trkpt lat="41.14316603522233" lon="14.66799331735693"><ele>168.0</ele><time>2026-05-02T14:01:41.001Z</time></trkpt><trkpt lat="41.14306960054766" lon="14.668004039297418"><ele>169.0</ele><time>2026-05-02T14:01:42.001Z</time></trkpt><trkpt lat="41.14296934029354" lon="14.66801836933641"><ele>170.0</ele><time>2026-05-02T14:01:43.001Z</time></trkpt><trkpt lat="41.14283362057341" lon="14.668042657510226"><ele>171.0</ele><time>2026-05-02T14:01:44.001Z</time></trkpt><trkpt lat="41.14270907320753" lon="14.668072588229323"><ele>171.0</ele><time>2026-05-02T14:01:45.001Z</time></trkpt><trkpt lat="41.14258534743923" lon="14.668107619690604"><ele>171.0</ele><time>2026-05-02T14:01:46.001Z</time></trkpt><trkpt lat="41.14246760738715" lon="14.668155612837461"><ele>171.0</ele><time>2026-05-02T14:01:47.001Z</time></trkpt><trkpt lat="41.14235396580041" lon="14.668224979263888"><ele>171.0</ele><time>2026-05-02T14:01:48.001Z</time></trkpt><trkpt lat="41.14224614454997" lon="14.668308410126622"><ele>170.75</ele><time>2026-05-02T14:01:49.001Z</time></trkpt><trkpt lat="41.142147719644875" lon="14.66840491486498"><ele>170.5</ele><time>2026-05-02T14:01:50.001Z</time></trkpt><trkpt lat="41.14206370185648" lon="14.668488323910193"><ele>170.25</ele><time>2026-05-02T14:01:51.001Z</time></trkpt><trkpt lat="41.141962082752045" lon="14.66855453257653"><ele>170.0</ele><time>2026-05-02T14:01:52.001Z</time></trkpt><trkpt lat="41.141871611690355" lon="14.668639877975181"><ele>168.25</ele><time>2026-05-02T14:01:53.001Z</time></trkpt><trkpt lat="41.1417542267827" lon="14.668687468807315"><ele>166.5</ele><time>2026-05-02T14:01:54.001Z</time></trkpt><trkpt lat="41.14163329218179" lon="14.66871793063074"><ele>164.75</ele><time>2026-05-02T14:01:55.001Z</time></trkpt><trkpt lat="41.14148908595473" lon="14.66873463867309"><ele>163.0</ele><time>2026-05-02T14:01:56.001Z</time></trkpt><trkpt lat="41.141353085444386" lon="14.668723736765983"><ele>162.66666666666669</ele><time>2026-05-02T14:01:57.001Z</time></trkpt><trkpt lat="41.14120578051937" lon="14.668713340291843"><ele>162.33333333333334</ele><time>2026-05-02T14:01:58.001Z</time></trkpt><trkpt lat="41.14104665313213" lon="14.668717071151127"><ele>162.0</ele><time>2026-05-02T14:01:59.001Z</time></trkpt><trkpt lat="41.14089542146316" lon="14.668715436757264"><ele>162.0</ele><time>2026-05-02T14:02:00.001Z</time></trkpt><trkpt lat="41.14075230371739" lon="14.66872678477045"><ele>162.0</ele><time>2026-05-02T14:02:01.001Z</time></trkpt><trkpt lat="41.14062316633859" lon="14.668749118740967"><ele>162.0</ele><time>2026-05-02T14:02:02.001Z</time></trkpt><trkpt lat="41.14050852732053" lon="14.6687929705671"><ele>162.0</ele><time>2026-05-02T14:02:03.001Z</time></trkpt><trkpt lat="41.14040071607147" lon="14.668870567000786"><ele>163.0</ele><time>2026-05-02T14:02:04.001Z</time></trkpt><trkpt lat="41.14029151520224" lon="14.668978423996274"><ele>164.0</ele><time>2026-05-02T14:02:05.001Z</time></trkpt><trkpt lat="41.14018017920266" lon="14.669104463241556"><ele>165.0</ele><time>2026-05-02T14:02:06.001Z</time></trkpt><trkpt lat="41.14006785058015" lon="14.669210309973158"><ele>166.0</ele><time>2026-05-02T14:02:07.001Z</time></trkpt><trkpt lat="41.13994122344749" lon="14.669340995618455"><ele>169.75</ele><time>2026-05-02T14:02:08.001Z</time></trkpt><trkpt lat="41.139821359638226" lon="14.669449678673788"><ele>173.5</ele><time>2026-05-02T14:02:09.001Z</time></trkpt><trkpt lat="41.13971592830272" lon="14.669525120275658"><ele>177.25</ele><time>2026-05-02T14:02:10.001Z</time></trkpt><trkpt lat="41.1396021663798" lon="14.669605520212587"><ele>181.0</ele><time>2026-05-02T14:02:11.001Z</time></trkpt><trkpt lat="41.13948132299165" lon="14.669697275055963"><ele>181.0</ele><time>2026-05-02T14:02:12.001Z</time></trkpt><trkpt lat="41.13936183253151" lon="14.669783784096587"><ele>181.0</ele><time>2026-05-02T14:02:13.001Z</time></trkpt><trkpt lat="41.13922980450999" lon="14.669843826975415"><ele>181.0</ele><time>2026-05-02T14:02:14.001Z</time></trkpt><trkpt lat="41.139084914566176" lon="14.66989212769054"><ele>181.0</ele><time>2026-05-02T14:02:15.001Z</time></trkpt><trkpt lat="41.13894570941345" lon="14.669926654670958"><ele>182.5</ele><time>2026-05-02T14:02:16.001Z</time></trkpt><trkpt lat="41.138806090975216" lon="14.669960757187717"><ele>184.0</ele><time>2026-05-02T14:02:17.001Z</time></trkpt><trkpt lat="41.138661843907485" lon="14.669993313450787"><ele>185.5</ele><time>2026-05-02T14:02:18.001Z</time></trkpt><trkpt lat="41.138517427631854" lon="14.670021990367927"><ele>187.0</ele><time>2026-05-02T14:02:19.001Z</time></trkpt><trkpt lat="41.13837053035965" lon="14.670051499960145"><ele>187.0</ele><time>2026-05-02T14:02:20.001Z</time></trkpt><trkpt lat="41.138221429933104" lon="14.670089307890201"><ele>187.0</ele><time>2026-05-02T14:02:21.001Z</time></trkpt><trkpt lat="41.13807244205442" lon="14.670122992402742"><ele>187.0</ele><time>2026-05-02T14:02:22.001Z</time></trkpt><trkpt lat="41.137920842600735" lon="14.670146365764108"><ele>187.66666666666669</ele><time>2026-05-02T14:02:23.001Z</time></trkpt><trkpt lat="41.137765280175316" lon="14.67017479428792"><ele>188.33333333333334</ele><time>2026-05-02T14:02:24.001Z</time></trkpt><trkpt lat="41.137606751851195" lon="14.670194942395048"><ele>189.0</ele><time>2026-05-02T14:02:25.001Z</time></trkpt><trkpt lat="41.1374473405796" lon="14.670212552591579"><ele>189.0</ele><time>2026-05-02T14:02:26.001Z</time></trkpt><trkpt lat="41.13728526962795" lon="14.670240552574795"><ele>189.0</ele><time>2026-05-02T14:02:27.001Z</time></trkpt><trkpt lat="41.13712804637922" lon="14.670268731341013"><ele>189.0</ele><time>2026-05-02T14:02:28.001Z</time></trkpt><trkpt lat="41.13697755256493" lon="14.67029677112748"><ele>191.25</ele><time>2026-05-02T14:02:29.001Z</time></trkpt><trkpt lat="41.13683919273278" lon="14.670322452503024"><ele>193.5</ele><time>2026-05-02T14:02:30.001Z</time></trkpt><trkpt lat="41.13670875681703" lon="14.67034464018397"><ele>195.75</ele><time>2026-05-02T14:02:31.001Z</time></trkpt><trkpt lat="41.13657670250339" lon="14.670364777949708"><ele>198.0</ele><time>2026-05-02T14:02:32.001Z</time></trkpt><trkpt lat="41.13644518412397" lon="14.670383262006768"><ele>198.75</ele><time>2026-05-02T14:02:33.001Z</time></trkpt><trkpt lat="41.136317353662356" lon="14.670400641489762"><ele>199.5</ele><time>2026-05-02T14:02:34.001Z</time></trkpt><trkpt lat="41.136191041321005" lon="14.670422715998788"><ele>200.25</ele><time>2026-05-02T14:02:35.001Z</time></trkpt><trkpt lat="41.13606332891741" lon="14.670444339979248"><ele>201.0</ele><time>2026-05-02T14:02:36.001Z</time></trkpt><trkpt lat="41.13593496652441" lon="14.67046218605043"><ele>201.0</ele><time>2026-05-02T14:02:37.001Z</time></trkpt><trkpt lat="41.135802530332946" lon="14.670487831741278"><ele>201.0</ele><time>2026-05-02T14:02:38.001Z</time></trkpt><trkpt lat="41.13566966604148" lon="14.670516999863551"><ele>201.0</ele><time>2026-05-02T14:02:39.001Z</time></trkpt><trkpt lat="41.13553205936691" lon="14.670558113364194"><ele>201.0</ele><time>2026-05-02T14:02:40.001Z</time></trkpt><trkpt lat="41.135394785960074" lon="14.670617597852155"><ele>200.33333333333331</ele><time>2026-05-02T14:02:41.001Z</time></trkpt><trkpt lat="41.13524575360766" lon="14.670684156042457"><ele>199.66666666666666</ele><time>2026-05-02T14:02:42.001Z</time></trkpt><trkpt lat="41.13509799985945" lon="14.67078032730194"><ele>199.0</ele><time>2026-05-02T14:02:43.001Z</time></trkpt><trkpt lat="41.134953845526425" lon="14.670887010647961"><ele>200.66666666666666</ele><time>2026-05-02T14:02:44.001Z</time></trkpt><trkpt lat="41.13480542423685" lon="14.671001642127754"><ele>202.33333333333331</ele><time>2026-05-02T14:02:45.001Z</time></trkpt><trkpt lat="41.13468304198457" lon="14.671097512358093"><ele>204.0</ele><time>2026-05-02T14:02:46.001Z</time></trkpt><trkpt lat="41.13456367828115" lon="14.671193816165333"><ele>204.0</ele><time>2026-05-02T14:02:46.999Z</time></trkpt><trkpt lat="41.134463004131305" lon="14.671285305626364"><ele>204.0</ele><time>2026-05-02T14:02:47.999Z</time></trkpt><trkpt lat="41.1343577562649" lon="14.671381138329362"><ele>204.0</ele><time>2026-05-02T14:02:48.999Z</time></trkpt><trkpt lat="41.134259390952046" lon="14.671462604517684"><ele>204.0</ele><time>2026-05-02T14:02:49.999Z</time></trkpt><trkpt lat="41.13415618552719" lon="14.671535729191381"><ele>204.0</ele><time>2026-05-02T14:02:50.999Z</time></trkpt><trkpt lat="41.13406852743222" lon="14.671566205719811"><ele>204.0</ele><time>2026-05-02T14:02:51.999Z</time></trkpt><trkpt lat="41.13396766432989" lon="14.671567850799132"><ele>204.0</ele><time>2026-05-02T14:02:52.999Z</time></trkpt><trkpt lat="41.13386555220844" lon="14.67154434751383"><ele>204.0</ele><time>2026-05-02T14:02:53.999Z</time></trkpt><trkpt lat="41.133740787185346" lon="14.671514718826801"><ele>204.0</ele><time>2026-05-02T14:02:54.999Z</time></trkpt><trkpt lat="41.13359883946795" lon="14.671481504635556"><ele>204.0</ele><time>2026-05-02T14:02:55.999Z</time></trkpt><trkpt lat="41.133454303886744" lon="14.671448537116335"><ele>204.0</ele><time>2026-05-02T14:02:56.999Z</time></trkpt><trkpt lat="41.13329244225928" lon="14.67141161763849"><ele>204.0</ele><time>2026-05-02T14:02:57.999Z</time></trkpt><trkpt lat="41.133138015232" lon="14.671374516104832"><ele>202.0</ele><time>2026-05-02T14:02:58.999Z</time></trkpt><trkpt lat="41.13297785380461" lon="14.671344647547878"><ele>200.0</ele><time>2026-05-02T14:02:59.999Z</time></trkpt><trkpt lat="41.13281958222143" lon="14.671312729315229"><ele>198.0</ele><time>2026-05-02T14:03:00.999Z</time></trkpt><trkpt lat="41.132663543162586" lon="14.67127801861626"><ele>198.0</ele><time>2026-05-02T14:03:02Z</time></trkpt><trkpt lat="41.13250815512505" lon="14.671244635245776"><ele>198.0</ele><time>2026-05-02T14:03:03Z</time></trkpt><trkpt lat="41.132354820467" lon="14.671210884817759"><ele>198.0</ele><time>2026-05-02T14:03:04Z</time></trkpt><trkpt lat="41.132194235819334" lon="14.671184405127612"><ele>199.33333333333331</ele><time>2026-05-02T14:03:05Z</time></trkpt><trkpt lat="41.13203109721842" lon="14.671141431023413"><ele>200.66666666666666</ele><time>2026-05-02T14:03:06Z</time></trkpt><trkpt lat="41.13187461022585" lon="14.67109758693821"><ele>202.0</ele><time>2026-05-02T14:03:07Z</time></trkpt><trkpt lat="41.131720196187494" lon="14.671040250996748"><ele>202.0</ele><time>2026-05-02T14:03:08Z</time></trkpt><trkpt lat="41.13156854029545" lon="14.670963657246299"><ele>202.0</ele><time>2026-05-02T14:03:09Z</time></trkpt><trkpt lat="41.13142286071469" lon="14.670880807527015"><ele>202.0</ele><time>2026-05-02T14:03:10Z</time></trkpt><trkpt lat="41.131278487870254" lon="14.670769256222648"><ele>205.33333333333331</ele><time>2026-05-02T14:03:11Z</time></trkpt><trkpt lat="41.13113047322587" lon="14.670653915544333"><ele>208.66666666666669</ele><time>2026-05-02T14:03:12Z</time></trkpt><trkpt lat="41.1309889594516" lon="14.670529445313502"><ele>212.0</ele><time>2026-05-02T14:03:13Z</time></trkpt><trkpt lat="41.13084488862885" lon="14.670413157699233"><ele>215.66666666666669</ele><time>2026-05-02T14:03:14Z</time></trkpt><trkpt lat="41.13070127501186" lon="14.670294423013393"><ele>219.33333333333331</ele><time>2026-05-02T14:03:15Z</time></trkpt><trkpt lat="41.130567679588424" lon="14.670187780730823"><ele>223.0</ele><time>2026-05-02T14:03:16Z</time></trkpt><trkpt lat="41.13042639121435" lon="14.67007985702668"><ele>223.0</ele><time>2026-05-02T14:03:17Z</time></trkpt><trkpt lat="41.130297863481516" lon="14.669983473130713"><ele>223.0</ele><time>2026-05-02T14:03:18Z</time></trkpt><trkpt lat="41.130170175607844" lon="14.669875557390311"><ele>223.0</ele><time>2026-05-02T14:03:19Z</time></trkpt><trkpt lat="41.13003745291729" lon="14.669770689213141"><ele>223.0</ele><time>2026-05-02T14:03:20Z</time></trkpt><trkpt lat="41.129905612483846" lon="14.669662991191785"><ele>223.0</ele><time>2026-05-02T14:03:21Z</time></trkpt><trkpt lat="41.12976667288066" lon="14.669577421505913"><ele>223.0</ele><time>2026-05-02T14:03:22Z</time></trkpt><trkpt lat="41.12963032224976" lon="14.669486254563315"><ele>224.25</ele><time>2026-05-02T14:03:23Z</time></trkpt><trkpt lat="41.12948919411638" lon="14.669402871789652"><ele>225.5</ele><time>2026-05-02T14:03:24Z</time></trkpt><trkpt lat="41.12936268488917" lon="14.669326181489804"><ele>226.75</ele><time>2026-05-02T14:03:25Z</time></trkpt><trkpt lat="41.12925189280163" lon="14.669257431531308"><ele>228.0</ele><time>2026-05-02T14:03:26Z</time></trkpt><trkpt lat="41.12915259847894" lon="14.669196483948387"><ele>229.5</ele><time>2026-05-02T14:03:27Z</time></trkpt><trkpt lat="41.12904094592986" lon="14.669163109507632"><ele>231.0</ele><time>2026-05-02T14:03:28Z</time></trkpt><trkpt lat="41.12891822288027" lon="14.669148782156835"><ele>232.5</ele><time>2026-05-02T14:03:29Z</time></trkpt><trkpt lat="41.12877393318585" lon="14.669153763442798"><ele>234.0</ele><time>2026-05-02T14:03:30Z</time></trkpt><trkpt lat="41.12860637583659" lon="14.669176382141595"><ele>234.0</ele><time>2026-05-02T14:03:31Z</time></trkpt><trkpt lat="41.12843732246502" lon="14.669193355630371"><ele>234.0</ele><time>2026-05-02T14:03:32Z</time></trkpt><trkpt lat="41.12827204790486" lon="14.669201045524956"><ele>234.0</ele><time>2026-05-02T14:03:33Z</time></trkpt><trkpt lat="41.12810719610043" lon="14.66921169324595"><ele>234.66666666666669</ele><time>2026-05-02T14:03:34Z</time></trkpt><trkpt lat="41.127943480321285" lon="14.669221932984662"><ele>235.33333333333334</ele><time>2026-05-02T14:03:35Z</time></trkpt><trkpt lat="41.12777893945374" lon="14.669231850250029"><ele>236.0</ele><time>2026-05-02T14:03:36Z</time></trkpt><trkpt lat="41.12761689792527" lon="14.669233216458052"><ele>236.0</ele><time>2026-05-02T14:03:37Z</time></trkpt><trkpt lat="41.12744549254594" lon="14.669247756068167"><ele>236.0</ele><time>2026-05-02T14:03:38Z</time></trkpt><trkpt lat="41.12728321469946" lon="14.669270137125997"><ele>236.0</ele><time>2026-05-02T14:03:39Z</time></trkpt><trkpt lat="41.127117598820995" lon="14.669284418632609"><ele>238.0</ele><time>2026-05-02T14:03:40Z</time></trkpt><trkpt lat="41.12695462263223" lon="14.669295279126938"><ele>240.0</ele><time>2026-05-02T14:03:41Z</time></trkpt><trkpt lat="41.12679572804835" lon="14.669306200822653"><ele>242.0</ele><time>2026-05-02T14:03:42Z</time></trkpt><trkpt lat="41.126637957877215" lon="14.669310514948616"><ele>243.33333333333334</ele><time>2026-05-02T14:03:43Z</time></trkpt><trkpt lat="41.126481786444366" lon="14.669327659562137"><ele>244.66666666666669</ele><time>2026-05-02T14:03:44Z</time></trkpt><trkpt lat="41.12633184067716" lon="14.669339514189279"><ele>246.0</ele><time>2026-05-02T14:03:45Z</time></trkpt><trkpt lat="41.126180679333565" lon="14.669365347420403"><ele>246.0</ele><time>2026-05-02T14:03:46Z</time></trkpt><trkpt lat="41.1260346552672" lon="14.669387131572375"><ele>246.0</ele><time>2026-05-02T14:03:47Z</time></trkpt><trkpt lat="41.12589612845132" lon="14.669410235992736"><ele>246.0</ele><time>2026-05-02T14:03:48Z</time></trkpt><trkpt lat="41.12576306226118" lon="14.669434402716222"><ele>246.0</ele><time>2026-05-02T14:03:49Z</time></trkpt><trkpt lat="41.12564813183049" lon="14.669461571711434"><ele>248.5</ele><time>2026-05-02T14:03:50Z</time></trkpt><trkpt lat="41.12555560299761" lon="14.669486092989379"><ele>251.0</ele><time>2026-05-02T14:03:51Z</time></trkpt><trkpt lat="41.125476668568524" lon="14.669511153609983"><ele>253.5</ele><time>2026-05-02T14:03:52Z</time></trkpt><trkpt lat="41.12539815336135" lon="14.669530044812278"><ele>256.0</ele><time>2026-05-02T14:03:54Z</time></trkpt><trkpt lat="41.12531842042536" lon="14.669513961939519"><ele>258.5</ele><time>2026-05-02T14:03:57Z</time></trkpt><trkpt lat="41.12526433290842" lon="14.669637255881323"><ele>261.0</ele><time>2026-05-02T14:03:58Z</time></trkpt><trkpt lat="41.12520812136046" lon="14.669786794981242"><ele>261.0</ele><time>2026-05-02T14:04:00.001Z</time></trkpt><trkpt lat="41.125166001968104" lon="14.669860416332112"><ele>261.0</ele><time>2026-05-02T14:04:01.001Z</time></trkpt><trkpt lat="41.12511516770142" lon="14.669941754240664"><ele>261.0</ele><time>2026-05-02T14:04:02.001Z</time></trkpt><trkpt lat="41.12505475636267" lon="14.670026990025544"><ele>261.0</ele><time>2026-05-02T14:04:03.001Z</time></trkpt><trkpt lat="41.124999505489725" lon="14.670106303945564"><ele>261.0</ele><time>2026-05-02T14:04:04.001Z</time></trkpt><trkpt lat="41.12494164893844" lon="14.67016852924266"><ele>261.0</ele><time>2026-05-02T14:04:05.001Z</time></trkpt><trkpt lat="41.124884262449804" lon="14.670226685563708"><ele>263.0</ele><time>2026-05-02T14:04:06.001Z</time></trkpt><trkpt lat="41.12484032958035" lon="14.670290234273489"><ele>265.0</ele><time>2026-05-02T14:04:07.001Z</time></trkpt><trkpt lat="41.12477726299749" lon="14.670448316177923"><ele>267.0</ele><time>2026-05-02T14:04:09.001Z</time></trkpt><trkpt lat="41.1247377251198" lon="14.670549801233019"><ele>269.0</ele><time>2026-05-02T14:04:10.001Z</time></trkpt><trkpt lat="41.124688643801946" lon="14.670650353599093"><ele>271.0</ele><time>2026-05-02T14:04:11.001Z</time></trkpt><trkpt lat="41.124641237043186" lon="14.67073555140544"><ele>271.0</ele><time>2026-05-02T14:04:12.001Z</time></trkpt><trkpt lat="41.12459488585356" lon="14.670836338768504"><ele>271.0</ele><time>2026-05-02T14:04:14.001Z</time></trkpt><trkpt lat="41.12449597401692" lon="14.67080920624437"><ele>271.0</ele><time>2026-05-02T14:04:15.001Z</time></trkpt><trkpt lat="41.124370029740774" lon="14.670808466316101"><ele>271.0</ele><time>2026-05-02T14:04:17.001Z</time></trkpt><trkpt lat="41.124289745015865" lon="14.670793779756139"><ele>271.0</ele><time>2026-05-02T14:04:18.001Z</time></trkpt><trkpt lat="41.12420278394817" lon="14.670803453916538"><ele>271.0</ele><time>2026-05-02T14:04:19.001Z</time></trkpt><trkpt lat="41.12412368824299" lon="14.670834360186769"><ele>271.0</ele><time>2026-05-02T14:04:20.001Z</time></trkpt><trkpt lat="41.12404217972629" lon="14.67089199106782"><ele>271.0</ele><time>2026-05-02T14:04:21.001Z</time></trkpt><trkpt lat="41.1239667541914" lon="14.670952917808874"><ele>271.0</ele><time>2026-05-02T14:04:22.001Z</time></trkpt><trkpt lat="41.12389715358455" lon="14.670986507368255"><ele>271.0</ele><time>2026-05-02T14:04:23.001Z</time></trkpt><trkpt lat="41.12382060806913" lon="14.670985869952165"><ele>271.0</ele><time>2026-05-02T14:04:24.001Z</time></trkpt><trkpt lat="41.123738297415045" lon="14.670980920156282"><ele>271.8333333333333</ele><time>2026-05-02T14:04:25.001Z</time></trkpt><trkpt lat="41.12365543742128" lon="14.6709650611855"><ele>272.66666666666663</ele><time>2026-05-02T14:04:26.001Z</time></trkpt><trkpt lat="41.123568699732964" lon="14.670938196388231"><ele>273.5</ele><time>2026-05-02T14:04:27.001Z</time></trkpt><trkpt lat="41.12349411840732" lon="14.670885417809853"><ele>274.3333333333333</ele><time>2026-05-02T14:04:28.001Z</time></trkpt><trkpt lat="41.123409012702965" lon="14.670830660561062"><ele>275.1666666666667</ele><time>2026-05-02T14:04:29.001Z</time></trkpt><trkpt lat="41.12331384981026" lon="14.670817991642062"><ele>276.0</ele><time>2026-05-02T14:04:30.001Z</time></trkpt><trkpt lat="41.123248544965115" lon="14.670811781984673"><ele>276.6</ele><time>2026-05-02T14:04:31.001Z</time></trkpt><trkpt lat="41.12318391530631" lon="14.670804629125385"><ele>277.20000000000005</ele><time>2026-05-02T14:04:32.001Z</time></trkpt><trkpt lat="41.12308493443529" lon="14.670850985862781"><ele>277.79999999999995</ele><time>2026-05-02T14:04:34.001Z</time></trkpt><trkpt lat="41.12304462173591" lon="14.671016294969041"><ele>278.4</ele><time>2026-05-02T14:04:36.001Z</time></trkpt><trkpt lat="41.12302163646425" lon="14.67112890099651"><ele>279.0</ele><time>2026-05-02T14:04:37.001Z</time></trkpt><trkpt lat="41.12301669266826" lon="14.671261946861739"><ele>281.59999999999997</ele><time>2026-05-02T14:04:38.001Z</time></trkpt><trkpt lat="41.12301255631219" lon="14.671413049985098"><ele>284.2</ele><time>2026-05-02T14:04:39.001Z</time></trkpt><trkpt lat="41.1230114425489" lon="14.671547715290185"><ele>286.79999999999995</ele><time>2026-05-02T14:04:40.001Z</time></trkpt><trkpt lat="41.12300904348466" lon="14.671656918441236"><ele>289.4</ele><time>2026-05-02T14:04:41.001Z</time></trkpt><trkpt lat="41.12298960208897" lon="14.671805794904518"><ele>292.0</ele><time>2026-05-02T14:04:43.001Z</time></trkpt><trkpt lat="41.122928123482026" lon="14.671827636455633"><ele>292.0</ele><time>2026-05-02T14:04:44.001Z</time></trkpt><trkpt lat="41.12280494664306" lon="14.67177084796289"><ele>292.0</ele><time>2026-05-02T14:04:46.001Z</time></trkpt><trkpt lat="41.12272252529102" lon="14.67175880764252"><ele>292.0</ele><time>2026-05-02T14:04:47.001Z</time></trkpt><trkpt lat="41.12263241678854" lon="14.671748797684021"><ele>292.0</ele><time>2026-05-02T14:04:48.001Z</time></trkpt><trkpt lat="41.122528006434685" lon="14.67173723807504"><ele>292.0</ele><time>2026-05-02T14:04:49.001Z</time></trkpt><trkpt lat="41.122421919055206" lon="14.671717578753078"><ele>291.0</ele><time>2026-05-02T14:04:50.001Z</time></trkpt><trkpt lat="41.122329051405146" lon="14.671687878662238"><ele>290.0</ele><time>2026-05-02T14:04:51.001Z</time></trkpt><trkpt lat="41.12223567910423" lon="14.671657610509037"><ele>289.0</ele><time>2026-05-02T14:04:52.001Z</time></trkpt><trkpt lat="41.12215271537181" lon="14.671607366158737"><ele>288.0</ele><time>2026-05-02T14:04:53Z</time></trkpt><trkpt lat="41.12208024395226" lon="14.6715574454537"><ele>287.0</ele><time>2026-05-02T14:04:54Z</time></trkpt><trkpt lat="41.12199930505863" lon="14.671518560517734"><ele>287.0</ele><time>2026-05-02T14:04:55Z</time></trkpt><trkpt lat="41.121919984370784" lon="14.67146741764854"><ele>287.0</ele><time>2026-05-02T14:04:56Z</time></trkpt><trkpt lat="41.121852329361104" lon="14.671415275285883"><ele>287.0</ele><time>2026-05-02T14:04:57Z</time></trkpt><trkpt lat="41.12178364262879" lon="14.67137863273507"><ele>287.0</ele><time>2026-05-02T14:04:58Z</time></trkpt><trkpt lat="41.121709353018936" lon="14.671346053370533"><ele>287.0</ele><time>2026-05-02T14:04:59Z</time></trkpt><trkpt lat="41.12160294353161" lon="14.67130554211235"><ele>287.0</ele><time>2026-05-02T14:05:01Z</time></trkpt><trkpt lat="41.12156771101089" lon="14.671211927122764"><ele>284.6</ele><time>2026-05-02T14:05:03Z</time></trkpt><trkpt lat="41.12161767183231" lon="14.671052787242374"><ele>282.2</ele><time>2026-05-02T14:05:05Z</time></trkpt><trkpt lat="41.12166884294741" lon="14.67095854920229"><ele>279.8</ele><time>2026-05-02T14:05:06Z</time></trkpt><trkpt lat="41.12170147908376" lon="14.670845298270272"><ele>277.4</ele><time>2026-05-02T14:05:07Z</time></trkpt><trkpt lat="41.1217090288545" lon="14.670721231971912"><ele>275.0</ele><time>2026-05-02T14:05:08Z</time></trkpt><trkpt lat="41.121725523229955" lon="14.670596842120752"><ele>275.0</ele><time>2026-05-02T14:05:09Z</time></trkpt><trkpt lat="41.12172125724581" lon="14.670474798098175"><ele>275.0</ele><time>2026-05-02T14:05:10Z</time></trkpt><trkpt lat="41.12169425301029" lon="14.670358663854092"><ele>275.0</ele><time>2026-05-02T14:05:11Z</time></trkpt><trkpt lat="41.121665408326976" lon="14.67022209203185"><ele>275.0</ele><time>2026-05-02T14:05:12Z</time></trkpt><trkpt lat="41.12163506181308" lon="14.670088551710693"><ele>275.0</ele><time>2026-05-02T14:05:13Z</time></trkpt><trkpt lat="41.12161347283879" lon="14.669951218743208"><ele>272.6666666666667</ele><time>2026-05-02T14:05:14Z</time></trkpt><trkpt lat="41.12157667451999" lon="14.669837179456826"><ele>270.33333333333337</ele><time>2026-05-02T14:05:15Z</time></trkpt><trkpt lat="41.12158463114811" lon="14.669732324132188"><ele>268.0</ele><time>2026-05-02T14:05:16Z</time></trkpt><trkpt lat="41.12159102620881" lon="14.669646009177377"><ele>265.6666666666667</ele><time>2026-05-02T14:05:17Z</time></trkpt><trkpt lat="41.12163291794616" lon="14.669498418091704"><ele>263.3333333333333</ele><time>2026-05-02T14:05:19Z</time></trkpt><trkpt lat="41.12166709571546" lon="14.669414359888314"><ele>261.0</ele><time>2026-05-02T14:05:20Z</time></trkpt><trkpt lat="41.12169437130268" lon="14.669314630087205"><ele>258.6</ele><time>2026-05-02T14:05:21Z</time></trkpt><trkpt lat="41.12176545534694" lon="14.669190181666163"><ele>256.20000000000005</ele><time>2026-05-02T14:05:23Z</time></trkpt><trkpt lat="41.121853124171984" lon="14.669093283992016"><ele>253.79999999999998</ele><time>2026-05-02T14:05:25Z</time></trkpt><trkpt lat="41.12196329583747" lon="14.669054011278263"><ele>251.39999999999998</ele><time>2026-05-02T14:05:27Z</time></trkpt><trkpt lat="41.12205264343848" lon="14.668989855268915"><ele>249.0</ele><time>2026-05-02T14:05:29Z</time></trkpt><trkpt lat="41.122068307717534" lon="14.6689066882288"><ele>249.0</ele><time>2026-05-02T14:05:30Z</time></trkpt><trkpt lat="41.122094629409766" lon="14.668815802725701"><ele>248.99999999999997</ele><time>2026-05-02T14:05:31Z</time></trkpt><trkpt lat="41.12206896346637" lon="14.668729323177335"><ele>249.0</ele><time>2026-05-02T14:05:32Z</time></trkpt><trkpt lat="41.12206074035537" lon="14.66864452610118"><ele>249.0</ele><time>2026-05-02T14:05:33Z</time></trkpt><trkpt lat="41.12201481668576" lon="14.668556807850749"><ele>248.99999999999997</ele><time>2026-05-02T14:05:34Z</time></trkpt><trkpt lat="41.121949824657136" lon="14.66849075006034"><ele>249.0</ele><time>2026-05-02T14:05:35Z</time></trkpt><trkpt lat="41.12188970181696" lon="14.668426348876677"><ele>249.0</ele><time>2026-05-02T14:05:36Z</time></trkpt><trkpt lat="41.12184133481877" lon="14.668352977055795"><ele>247.16666666666666</ele><time>2026-05-02T14:05:37Z</time></trkpt><trkpt lat="41.12182378174802" lon="14.668261320836166"><ele>245.33333333333331</ele><time>2026-05-02T14:05:38Z</time></trkpt><trkpt lat="41.12180176887256" lon="14.668137954817"><ele>243.5</ele><time>2026-05-02T14:05:39Z</time></trkpt><trkpt lat="41.12178486477785" lon="14.66803337674748"><ele>241.66666666666666</ele><time>2026-05-02T14:05:40Z</time></trkpt><trkpt lat="41.121779062674456" lon="14.667901951975173"><ele>239.83333333333331</ele><time>2026-05-02T14:05:41Z</time></trkpt><trkpt lat="41.12179117174932" lon="14.667768728303681"><ele>238.0</ele><time>2026-05-02T14:05:42Z</time></trkpt><trkpt lat="41.121797804252694" lon="14.66762868723058"><ele>235.8</ele><time>2026-05-02T14:05:43Z</time></trkpt><trkpt lat="41.121795686820484" lon="14.667477853194866"><ele>233.60000000000002</ele><time>2026-05-02T14:05:44Z</time></trkpt><trkpt lat="41.121793509318906" lon="14.667340183622319"><ele>231.39999999999998</ele><time>2026-05-02T14:05:45Z</time></trkpt><trkpt lat="41.121786850426915" lon="14.667242358962206"><ele>229.2</ele><time>2026-05-02T14:05:46Z</time></trkpt><trkpt lat="41.12178864261129" lon="14.66710874827152"><ele>227.0</ele><time>2026-05-02T14:05:47Z</time></trkpt><trkpt lat="41.121757891245146" lon="14.666993483513735"><ele>227.00000000000003</ele><time>2026-05-02T14:05:48Z</time></trkpt><trkpt lat="41.12174210873762" lon="14.666897090719678"><ele>227.0</ele><time>2026-05-02T14:05:49Z</time></trkpt><trkpt lat="41.12171073006444" lon="14.666782644104865"><ele>227.0</ele><time>2026-05-02T14:05:51Z</time></trkpt><trkpt lat="41.12167046023655" lon="14.666683189724505"><ele>227.0</ele><time>2026-05-02T14:05:53.001Z</time></trkpt><trkpt lat="41.12160147226157" lon="14.6666480444505"><ele>227.00000000000003</ele><time>2026-05-02T14:05:54.001Z</time></trkpt><trkpt lat="41.1215428562612" lon="14.66660906266348"><ele>227.0</ele><time>2026-05-02T14:05:55.001Z</time></trkpt><trkpt lat="41.12146257114078" lon="14.666578664298113"><ele>228.5</ele><time>2026-05-02T14:05:56.001Z</time></trkpt><trkpt lat="41.12133899499745" lon="14.66654848745887"><ele>230.0</ele><time>2026-05-02T14:05:57.001Z</time></trkpt><trkpt lat="41.121225222498744" lon="14.66653074413203"><ele>231.5</ele><time>2026-05-02T14:05:58.001Z</time></trkpt><trkpt lat="41.12108542300027" lon="14.666500943204502"><ele>233.0</ele><time>2026-05-02T14:05:59.001Z</time></trkpt><trkpt lat="41.12095166375274" lon="14.666489673685533"><ele>233.0</ele><time>2026-05-02T14:06:00.001Z</time></trkpt><trkpt lat="41.12082927344466" lon="14.666474208965596"><ele>233.0</ele><time>2026-05-02T14:06:01.001Z</time></trkpt><trkpt lat="41.120708976726476" lon="14.666441724239917"><ele>233.0</ele><time>2026-05-02T14:06:02.001Z</time></trkpt><trkpt lat="41.12058630065581" lon="14.66641595773001"><ele>233.0</ele><time>2026-05-02T14:06:03.001Z</time></trkpt><trkpt lat="41.1204680652006" lon="14.666400663168524"><ele>234.4</ele><time>2026-05-02T14:06:04.001Z</time></trkpt><trkpt lat="41.120365441440164" lon="14.666379434276045"><ele>235.8</ele><time>2026-05-02T14:06:05.001Z</time></trkpt><trkpt lat="41.12027091079762" lon="14.666351544505877"><ele>237.2</ele><time>2026-05-02T14:06:06.001Z</time></trkpt><trkpt lat="41.12014854657505" lon="14.666335506135256"><ele>238.6</ele><time>2026-05-02T14:06:07.001Z</time></trkpt><trkpt lat="41.12003098685647" lon="14.666281315323243"><ele>240.0</ele><time>2026-05-02T14:06:08.001Z</time></trkpt><trkpt lat="41.1199203878822" lon="14.666203921119543"><ele>241.75</ele><time>2026-05-02T14:06:09.001Z</time></trkpt><trkpt lat="41.11979913730999" lon="14.666108897959225"><ele>243.5</ele><time>2026-05-02T14:06:10.001Z</time></trkpt><trkpt lat="41.11968212879737" lon="14.666014002633881"><ele>245.25</ele><time>2026-05-02T14:06:11.001Z</time></trkpt><trkpt lat="41.11958103498907" lon="14.665954920062473"><ele>247.0</ele><time>2026-05-02T14:06:12.001Z</time></trkpt><trkpt lat="41.11948205124995" lon="14.665913808196542"><ele>247.0</ele><time>2026-05-02T14:06:13.001Z</time></trkpt><trkpt lat="41.11936845997217" lon="14.665912102818695"><ele>247.0</ele><time>2026-05-02T14:06:14.001Z</time></trkpt><trkpt lat="41.11925932716763" lon="14.665901405649821"><ele>247.0</ele><time>2026-05-02T14:06:15.001Z</time></trkpt><trkpt lat="41.11915057292914" lon="14.665896694067778"><ele>247.0</ele><time>2026-05-02T14:06:16.001Z</time></trkpt><trkpt lat="41.119038770968544" lon="14.665897912680913"><ele>247.0</ele><time>2026-05-02T14:06:17.001Z</time></trkpt><trkpt lat="41.11891773076205" lon="14.66591574155439"><ele>249.5</ele><time>2026-05-02T14:06:18.001Z</time></trkpt><trkpt lat="41.11880140628875" lon="14.66594131067278"><ele>252.0</ele><time>2026-05-02T14:06:19.001Z</time></trkpt><trkpt lat="41.11868494009945" lon="14.665979366161649"><ele>254.5</ele><time>2026-05-02T14:06:20.001Z</time></trkpt><trkpt lat="41.11856675667404" lon="14.666010870608659"><ele>257.0</ele><time>2026-05-02T14:06:21.001Z</time></trkpt><trkpt lat="41.11844747357602" lon="14.666050769440833"><ele>257.0</ele><time>2026-05-02T14:06:22.001Z</time></trkpt><trkpt lat="41.11832564621955" lon="14.666077922164373"><ele>257.0</ele><time>2026-05-02T14:06:23.001Z</time></trkpt><trkpt lat="41.11820585138616" lon="14.666052806219138"><ele>257.0</ele><time>2026-05-02T14:06:24.001Z</time></trkpt><trkpt lat="41.11809331929768" lon="14.666028916273845"><ele>257.0</ele><time>2026-05-02T14:06:25.001Z</time></trkpt><trkpt lat="41.11798261468365" lon="14.666005603956672"><ele>259.2</ele><time>2026-05-02T14:06:26.001Z</time></trkpt><trkpt lat="41.117879450746535" lon="14.665974669939395"><ele>261.4</ele><time>2026-05-02T14:06:27.001Z</time></trkpt><trkpt lat="41.11778274984976" lon="14.6659301803392"><ele>263.6</ele><time>2026-05-02T14:06:28.001Z</time></trkpt><trkpt lat="41.11770539692676" lon="14.665903308006813"><ele>265.8</ele><time>2026-05-02T14:06:29.001Z</time></trkpt><trkpt lat="41.11762839280169" lon="14.665889073128067"><ele>268.0</ele><time>2026-05-02T14:06:30.001Z</time></trkpt><trkpt lat="41.11753558598849" lon="14.66592060033696"><ele>268.0</ele><time>2026-05-02T14:06:31.001Z</time></trkpt><trkpt lat="41.117465384034354" lon="14.6659901005963"><ele>268.0</ele><time>2026-05-02T14:06:32.001Z</time></trkpt><trkpt lat="41.11741082786232" lon="14.666060794594447"><ele>268.0</ele><time>2026-05-02T14:06:33.001Z</time></trkpt><trkpt lat="41.117342126152224" lon="14.6661544202476"><ele>268.0</ele><time>2026-05-02T14:06:34.001Z</time></trkpt><trkpt lat="41.117261468335286" lon="14.66623513271196"><ele>268.0</ele><time>2026-05-02T14:06:35.001Z</time></trkpt><trkpt lat="41.117194052613996" lon="14.666290846614555"><ele>268.0</ele><time>2026-05-02T14:06:36.001Z</time></trkpt><trkpt lat="41.117073155739355" lon="14.666352665489546"><ele>271.6</ele><time>2026-05-02T14:06:37.001Z</time></trkpt><trkpt lat="41.116981161374326" lon="14.666372180982213"><ele>275.20000000000005</ele><time>2026-05-02T14:06:38.001Z</time></trkpt><trkpt lat="41.11688357573593" lon="14.66637793108273"><ele>278.8</ele><time>2026-05-02T14:06:39.001Z</time></trkpt><trkpt lat="41.116777840670615" lon="14.666385716363703"><ele>282.40000000000003</ele><time>2026-05-02T14:06:40.001Z</time></trkpt><trkpt lat="41.116657244319335" lon="14.666394595906285"><ele>286.0</ele><time>2026-05-02T14:06:41.001Z</time></trkpt><trkpt lat="41.11653142907207" lon="14.666427911303549"><ele>288.5</ele><time>2026-05-02T14:06:42.001Z</time></trkpt><trkpt lat="41.116417347013474" lon="14.66643418765475"><ele>291.0</ele><time>2026-05-02T14:06:43.001Z</time></trkpt><trkpt lat="41.11629795827479" lon="14.66645602240621"><ele>293.5</ele><time>2026-05-02T14:06:44.001Z</time></trkpt><trkpt lat="41.11617312414418" lon="14.666488671300362"><ele>296.0</ele><time>2026-05-02T14:06:45.001Z</time></trkpt><trkpt lat="41.116041639393565" lon="14.666531750157185"><ele>296.0</ele><time>2026-05-02T14:06:46.001Z</time></trkpt><trkpt lat="41.11589989447612" lon="14.666571828853733"><ele>296.0</ele><time>2026-05-02T14:06:47.001Z</time></trkpt><trkpt lat="41.1157527500845" lon="14.66661915480279"><ele>296.0</ele><time>2026-05-02T14:06:48.001Z</time></trkpt><trkpt lat="41.11561173123986" lon="14.666673611814998"><ele>296.0</ele><time>2026-05-02T14:06:49.001Z</time></trkpt><trkpt lat="41.11547525561013" lon="14.666717046998315"><ele>297.75</ele><time>2026-05-02T14:06:50.001Z</time></trkpt><trkpt lat="41.11535029433933" lon="14.66674632921862"><ele>299.5</ele><time>2026-05-02T14:06:51.001Z</time></trkpt><trkpt lat="41.115233385376435" lon="14.666777180703091"><ele>301.25</ele><time>2026-05-02T14:06:52.001Z</time></trkpt><trkpt lat="41.115111416415395" lon="14.666842580071046"><ele>303.0</ele><time>2026-05-02T14:06:53.001Z</time></trkpt><trkpt lat="41.114996972663576" lon="14.66691466465211"><ele>307.5</ele><time>2026-05-02T14:06:54.001Z</time></trkpt><trkpt lat="41.114878452891006" lon="14.66700353815235"><ele>312.0</ele><time>2026-05-02T14:06:55.001Z</time></trkpt><trkpt lat="41.114745813356436" lon="14.667091926007643"><ele>316.5</ele><time>2026-05-02T14:06:56.002Z</time></trkpt><trkpt lat="41.11461979286609" lon="14.667173862847326"><ele>321.0</ele><time>2026-05-02T14:06:57.002Z</time></trkpt><trkpt lat="41.11448940525783" lon="14.6672461912555"><ele>321.0</ele><time>2026-05-02T14:06:58.002Z</time></trkpt><trkpt lat="41.114375875182795" lon="14.667294873576145"><ele>321.0</ele><time>2026-05-02T14:06:59Z</time></trkpt><trkpt lat="41.11427089691499" lon="14.66734423661501"><ele>321.0</ele><time>2026-05-02T14:07:00Z</time></trkpt><trkpt lat="41.11417180423637" lon="14.66740440889071"><ele>321.0</ele><time>2026-05-02T14:07:01Z</time></trkpt><trkpt lat="41.11408384066135" lon="14.667484514244665"><ele>321.0</ele><time>2026-05-02T14:07:02Z</time></trkpt><trkpt lat="41.1140106274746" lon="14.667555485383259"><ele>322.3333333333333</ele><time>2026-05-02T14:07:03Z</time></trkpt><trkpt lat="41.113943964091035" lon="14.667614261268623"><ele>323.6666666666667</ele><time>2026-05-02T14:07:04Z</time></trkpt><trkpt lat="41.11388228689231" lon="14.667645695647"><ele>325.0</ele><time>2026-05-02T14:07:05Z</time></trkpt><trkpt lat="41.11378404341734" lon="14.667620909580387"><ele>326.33333333333337</ele><time>2026-05-02T14:07:07Z</time></trkpt><trkpt lat="41.11377185190945" lon="14.667537403970128"><ele>327.6666666666667</ele><time>2026-05-02T14:07:08Z</time></trkpt><trkpt lat="41.113730834344565" lon="14.667448124106333"><ele>329.0</ele><time>2026-05-02T14:07:09Z</time></trkpt><trkpt lat="41.11371445942831" lon="14.667333362487295"><ele>329.0</ele><time>2026-05-02T14:07:10Z</time></trkpt><trkpt lat="41.11369572386188" lon="14.667210396176559"><ele>329.0</ele><time>2026-05-02T14:07:11Z</time></trkpt><trkpt lat="41.11366675567876" lon="14.667087619836527"><ele>329.0</ele><time>2026-05-02T14:07:12Z</time></trkpt><trkpt lat="41.11365635007257" lon="14.666942593767438"><ele>329.0</ele><time>2026-05-02T14:07:13Z</time></trkpt><trkpt lat="41.11365959544148" lon="14.666818693549407"><ele>329.0</ele><time>2026-05-02T14:07:14Z</time></trkpt><trkpt lat="41.11363854066991" lon="14.666703714532401"><ele>329.6</ele><time>2026-05-02T14:07:15Z</time></trkpt><trkpt lat="41.1136043405823" lon="14.666588180077596"><ele>330.2</ele><time>2026-05-02T14:07:16Z</time></trkpt><trkpt lat="41.11356271301744" lon="14.666457984852528"><ele>330.8</ele><time>2026-05-02T14:07:17Z</time></trkpt><trkpt lat="41.11350787798091" lon="14.666326380509405"><ele>331.40000000000003</ele><time>2026-05-02T14:07:18Z</time></trkpt><trkpt lat="41.11344827688785" lon="14.66621224399808"><ele>332.0</ele><time>2026-05-02T14:07:19Z</time></trkpt><trkpt lat="41.11339055836546" lon="14.666118064598765"><ele>331.1666666666667</ele><time>2026-05-02T14:07:20Z</time></trkpt><trkpt lat="41.11334030571211" lon="14.666043281117723"><ele>330.33333333333337</ele><time>2026-05-02T14:07:21Z</time></trkpt><trkpt lat="41.113285907319096" lon="14.66597334748232"><ele>329.5</ele><time>2026-05-02T14:07:22Z</time></trkpt><trkpt lat="41.113221664579754" lon="14.665917821376176"><ele>328.6666666666667</ele><time>2026-05-02T14:07:23Z</time></trkpt><trkpt lat="41.11314950088374" lon="14.665872501760983"><ele>327.8333333333333</ele><time>2026-05-02T14:07:24Z</time></trkpt><trkpt lat="41.113068151073435" lon="14.665836026549869"><ele>327.0</ele><time>2026-05-02T14:07:25Z</time></trkpt><trkpt lat="41.11298215876059" lon="14.665814028295252"><ele>326.6</ele><time>2026-05-02T14:07:26Z</time></trkpt><trkpt lat="41.11288547990331" lon="14.665793874995773"><ele>326.20000000000005</ele><time>2026-05-02T14:07:27Z</time></trkpt><trkpt lat="41.11278929127317" lon="14.665842997602635"><ele>325.8</ele><time>2026-05-02T14:07:28Z</time></trkpt><trkpt lat="41.11268946381738" lon="14.665870922020554"><ele>325.4</ele><time>2026-05-02T14:07:29Z</time></trkpt><trkpt lat="41.112578953370445" lon="14.665903851750775"><ele>325.0</ele><time>2026-05-02T14:07:30Z</time></trkpt><trkpt lat="41.11246565266038" lon="14.66592126247469"><ele>325.8</ele><time>2026-05-02T14:07:31Z</time></trkpt><trkpt lat="41.112356354398194" lon="14.665930474370985"><ele>326.6</ele><time>2026-05-02T14:07:32Z</time></trkpt><trkpt lat="41.11224634816226" lon="14.665942107788643"><ele>327.4</ele><time>2026-05-02T14:07:33Z</time></trkpt><trkpt lat="41.112146258037995" lon="14.665953847304445"><ele>328.2</ele><time>2026-05-02T14:07:34Z</time></trkpt><trkpt lat="41.112050613576145" lon="14.665963585049429"><ele>329.0</ele><time>2026-05-02T14:07:35Z</time></trkpt><trkpt lat="41.111960321949766" lon="14.665976019227053"><ele>329.0</ele><time>2026-05-02T14:07:36Z</time></trkpt><trkpt lat="41.111883198529675" lon="14.665989345175255"><ele>329.0</ele><time>2026-05-02T14:07:37Z</time></trkpt><trkpt lat="41.11181939182698" lon="14.665978910386094"><ele>329.0</ele><time>2026-05-02T14:07:38Z</time></trkpt><trkpt lat="41.111720943137584" lon="14.665882027574483"><ele>329.0</ele><time>2026-05-02T14:07:40Z</time></trkpt><trkpt lat="41.11168322344237" lon="14.665812240467337"><ele>329.0</ele><time>2026-05-02T14:07:41Z</time></trkpt><trkpt lat="41.11164398307377" lon="14.66571979696645"><ele>329.0</ele><time>2026-05-02T14:07:42Z</time></trkpt><trkpt lat="41.11158815650244" lon="14.665637766968263"><ele>330.33333333333337</ele><time>2026-05-02T14:07:43.001Z</time></trkpt><trkpt lat="41.11152262350123" lon="14.665566521706848"><ele>331.6666666666667</ele><time>2026-05-02T14:07:44.001Z</time></trkpt><trkpt lat="41.11144832344315" lon="14.665516475283278"><ele>333.0</ele><time>2026-05-02T14:07:45.001Z</time></trkpt><trkpt lat="41.11135873087678" lon="14.665466301198705"><ele>334.3333333333333</ele><time>2026-05-02T14:07:46.001Z</time></trkpt><trkpt lat="41.1112769156045" lon="14.665422983360594"><ele>335.66666666666663</ele><time>2026-05-02T14:07:47.001Z</time></trkpt><trkpt lat="41.11119797135973" lon="14.665385138271816"><ele>337.0</ele><time>2026-05-02T14:07:48.001Z</time></trkpt><trkpt lat="41.11111225637572" lon="14.66533620273247"><ele>337.0</ele><time>2026-05-02T14:07:49.001Z</time></trkpt><trkpt lat="41.1110192571922" lon="14.66530859225445"><ele>337.0</ele><time>2026-05-02T14:07:50.001Z</time></trkpt><trkpt lat="41.110930831471705" lon="14.665278928033961"><ele>337.0</ele><time>2026-05-02T14:07:51.001Z</time></trkpt><trkpt lat="41.11084893359799" lon="14.665247841089522"><ele>337.0</ele><time>2026-05-02T14:07:52.001Z</time></trkpt><trkpt lat="41.11075736179341" lon="14.665218370140996"><ele>337.0</ele><time>2026-05-02T14:07:53.001Z</time></trkpt><trkpt lat="41.110660673829074" lon="14.66519338615472"><ele>338.75</ele><time>2026-05-02T14:07:54.001Z</time></trkpt><trkpt lat="41.11055852569056" lon="14.665166093257936"><ele>340.5</ele><time>2026-05-02T14:07:55.001Z</time></trkpt><trkpt lat="41.11045382995037" lon="14.665124227052774"><ele>342.25</ele><time>2026-05-02T14:07:56.001Z</time></trkpt><trkpt lat="41.11034713901861" lon="14.665071722702605"><ele>344.0</ele><time>2026-05-02T14:07:57.001Z</time></trkpt><trkpt lat="41.110225371653485" lon="14.665020367763512"><ele>344.0</ele><time>2026-05-02T14:07:58.001Z</time></trkpt><trkpt lat="41.110097059752825" lon="14.664944346461917"><ele>344.0</ele><time>2026-05-02T14:07:59.001Z</time></trkpt><trkpt lat="41.109977068112975" lon="14.664908406450392"><ele>344.0</ele><time>2026-05-02T14:08:00.001Z</time></trkpt><trkpt lat="41.109838567561155" lon="14.664895483421127"><ele>344.0</ele><time>2026-05-02T14:08:01.001Z</time></trkpt><trkpt lat="41.109710879814585" lon="14.664845225211872"><ele>345.75</ele><time>2026-05-02T14:08:02.001Z</time></trkpt><trkpt lat="41.10957333761545" lon="14.664782754241852"><ele>347.5</ele><time>2026-05-02T14:08:03.001Z</time></trkpt><trkpt lat="41.10944368166408" lon="14.664719066133191"><ele>349.25</ele><time>2026-05-02T14:08:04.001Z</time></trkpt><trkpt lat="41.109322643625255" lon="14.664665575041369"><ele>351.0</ele><time>2026-05-02T14:08:05.001Z</time></trkpt><trkpt lat="41.109185327751916" lon="14.664602593854728"><ele>353.4</ele><time>2026-05-02T14:08:06.001Z</time></trkpt><trkpt lat="41.109065785007424" lon="14.664547559465115"><ele>355.8</ele><time>2026-05-02T14:08:07.001Z</time></trkpt><trkpt lat="41.10895749511727" lon="14.664512686074014"><ele>358.2</ele><time>2026-05-02T14:08:08.001Z</time></trkpt><trkpt lat="41.108861046383225" lon="14.66449950137836"><ele>360.59999999999997</ele><time>2026-05-02T14:08:09.001Z</time></trkpt><trkpt lat="41.10875671541089" lon="14.66448781757035"><ele>363.0</ele><time>2026-05-02T14:08:10.001Z</time></trkpt><trkpt lat="41.10863832453909" lon="14.66446811911162"><ele>362.5</ele><time>2026-05-02T14:08:11.001Z</time></trkpt><trkpt lat="41.108522583130025" lon="14.66444444999072"><ele>362.0</ele><time>2026-05-02T14:08:12.001Z</time></trkpt><trkpt lat="41.10840652129705" lon="14.664402925330249"><ele>361.5</ele><time>2026-05-02T14:08:13.001Z</time></trkpt><trkpt lat="41.10829315449332" lon="14.664332952527547"><ele>361.0</ele><time>2026-05-02T14:08:14.001Z</time></trkpt><trkpt lat="41.10818397035635" lon="14.664253487739586"><ele>363.75</ele><time>2026-05-02T14:08:15.001Z</time></trkpt><trkpt lat="41.10807134983585" lon="14.664177306323115"><ele>366.5</ele><time>2026-05-02T14:08:16.001Z</time></trkpt><trkpt lat="41.10796196550949" lon="14.664092478037125"><ele>369.25</ele><time>2026-05-02T14:08:17.001Z</time></trkpt><trkpt lat="41.10784195841285" lon="14.664019362053175"><ele>372.0</ele><time>2026-05-02T14:08:18.001Z</time></trkpt><trkpt lat="41.10770855259804" lon="14.663942037031704"><ele>372.0</ele><time>2026-05-02T14:08:19.001Z</time></trkpt><trkpt lat="41.107585267780024" lon="14.663899756840353"><ele>372.0</ele><time>2026-05-02T14:08:20.001Z</time></trkpt><trkpt lat="41.10746054667581" lon="14.663866117583925"><ele>372.0</ele><time>2026-05-02T14:08:21.001Z</time></trkpt><trkpt lat="41.10734746135299" lon="14.663836028284297"><ele>372.0</ele><time>2026-05-02T14:08:22.001Z</time></trkpt><trkpt lat="41.10724764292565" lon="14.663798530067265"><ele>374.20000000000005</ele><time>2026-05-02T14:08:23.001Z</time></trkpt><trkpt lat="41.10715910618724" lon="14.663772367729814"><ele>376.4</ele><time>2026-05-02T14:08:24.001Z</time></trkpt><trkpt lat="41.1070771444548" lon="14.66373426968469"><ele>378.6</ele><time>2026-05-02T14:08:25.001Z</time></trkpt><trkpt lat="41.10700412438895" lon="14.663663924573617"><ele>380.79999999999995</ele><time>2026-05-02T14:08:26.001Z</time></trkpt><trkpt lat="41.10693351817722" lon="14.663572253201387"><ele>383.0</ele><time>2026-05-02T14:08:27.001Z</time></trkpt><trkpt lat="41.10683819055162" lon="14.663459083218058"><ele>383.0</ele><time>2026-05-02T14:08:28.001Z</time></trkpt><trkpt lat="41.106745893173176" lon="14.663366621444508"><ele>383.0</ele><time>2026-05-02T14:08:29.001Z</time></trkpt><trkpt lat="41.106664059635094" lon="14.663314158930254"><ele>383.0</ele><time>2026-05-02T14:08:30.001Z</time></trkpt><trkpt lat="41.10657661494582" lon="14.663280434225669"><ele>383.0</ele><time>2026-05-02T14:08:31.001Z</time></trkpt><trkpt lat="41.106480632154344" lon="14.663286498013525"><ele>383.0</ele><time>2026-05-02T14:08:32.001Z</time></trkpt><trkpt lat="41.1063632062084" lon="14.663285137557892"><ele>384.79999999999995</ele><time>2026-05-02T14:08:33.001Z</time></trkpt><trkpt lat="41.10623405391538" lon="14.663264030431739"><ele>386.6</ele><time>2026-05-02T14:08:34.001Z</time></trkpt><trkpt lat="41.10612701677816" lon="14.663250176242762"><ele>388.4</ele><time>2026-05-02T14:08:35.001Z</time></trkpt><trkpt lat="41.1060234434201" lon="14.663250058782868"><ele>390.20000000000005</ele><time>2026-05-02T14:08:36.001Z</time></trkpt><trkpt lat="41.10591722507006" lon="14.663240819740434"><ele>392.0</ele><time>2026-05-02T14:08:37.001Z</time></trkpt><trkpt lat="41.10581523763374" lon="14.663217741549838"><ele>395.25</ele><time>2026-05-02T14:08:38.001Z</time></trkpt><trkpt lat="41.10570122326554" lon="14.663162819842844"><ele>398.5</ele><time>2026-05-02T14:08:39.001Z</time></trkpt><trkpt lat="41.105583197801785" lon="14.663088852804393"><ele>401.75</ele><time>2026-05-02T14:08:40.001Z</time></trkpt><trkpt lat="41.10547236117791" lon="14.663001541806288"><ele>405.0</ele><time>2026-05-02T14:08:41.001Z</time></trkpt><trkpt lat="41.10536994912256" lon="14.662924814983885"><ele>405.0</ele><time>2026-05-02T14:08:42.001Z</time></trkpt><trkpt lat="41.10527113633034" lon="14.662861766699091"><ele>405.0</ele><time>2026-05-02T14:08:43.001Z</time></trkpt><trkpt lat="41.10516963464898" lon="14.662822275273138"><ele>405.0</ele><time>2026-05-02T14:08:44.001Z</time></trkpt><trkpt lat="41.10506522840666" lon="14.662781094574845"><ele>405.0</ele><time>2026-05-02T14:08:45.001Z</time></trkpt><trkpt lat="41.104966535345525" lon="14.662714259432757"><ele>405.0</ele><time>2026-05-02T14:08:46.002Z</time></trkpt><trkpt lat="41.10487924074698" lon="14.662669032374342"><ele>407.6</ele><time>2026-05-02T14:08:47.002Z</time></trkpt><trkpt lat="41.104795693962444" lon="14.66261635197759"><ele>410.2</ele><time>2026-05-02T14:08:48.002Z</time></trkpt><trkpt lat="41.10470235738517" lon="14.662604739925483"><ele>412.79999999999995</ele><time>2026-05-02T14:08:49.002Z</time></trkpt><trkpt lat="41.10460375091966" lon="14.662585690692094"><ele>415.4</ele><time>2026-05-02T14:08:50.002Z</time></trkpt><trkpt lat="41.104490681452674" lon="14.662570234512511"><ele>418.0</ele><time>2026-05-02T14:08:51.002Z</time></trkpt><trkpt lat="41.104377024207494" lon="14.662535442735987"><ele>418.0</ele><time>2026-05-02T14:08:52.002Z</time></trkpt><trkpt lat="41.10426421258124" lon="14.662548738285988"><ele>418.0</ele><time>2026-05-02T14:08:53.002Z</time></trkpt><trkpt lat="41.104155922468415" lon="14.662556536849129"><ele>418.0</ele><time>2026-05-02T14:08:54.002Z</time></trkpt><trkpt lat="41.10404593592086" lon="14.662557233156289"><ele>418.0</ele><time>2026-05-02T14:08:55.002Z</time></trkpt><trkpt lat="41.10394037420687" lon="14.66255857259923"><ele>418.0</ele><time>2026-05-02T14:08:56.002Z</time></trkpt><trkpt lat="41.10385340634462" lon="14.662578842401091"><ele>421.0</ele><time>2026-05-02T14:08:57.002Z</time></trkpt><trkpt lat="41.10373416916583" lon="14.662578778478181"><ele>424.0</ele><time>2026-05-02T14:08:59.002Z</time></trkpt><trkpt lat="41.10363236583979" lon="14.662505729908593"><ele>426.99999999999994</ele><time>2026-05-02T14:09:01.002Z</time></trkpt><trkpt lat="41.1035336918375" lon="14.662432140263851"><ele>430.0</ele><time>2026-05-02T14:09:03.002Z</time></trkpt><trkpt lat="41.103462101572696" lon="14.662373521783861"><ele>433.0</ele><time>2026-05-02T14:09:04.002Z</time></trkpt><trkpt lat="41.10339797004016" lon="14.66232092473983"><ele>433.0</ele><time>2026-05-02T14:09:05Z</time></trkpt><trkpt lat="41.103324629062755" lon="14.662260774571207"><ele>433.0</ele><time>2026-05-02T14:09:06Z</time></trkpt><trkpt lat="41.10324103959253" lon="14.66219135666742"><ele>433.0</ele><time>2026-05-02T14:09:07Z</time></trkpt><trkpt lat="41.10312451470218" lon="14.662094728010741"><ele>433.0</ele><time>2026-05-02T14:09:08Z</time></trkpt><trkpt lat="41.10299182928072" lon="14.66199363943105"><ele>437.25</ele><time>2026-05-02T14:09:09Z</time></trkpt><trkpt lat="41.10286975140429" lon="14.661900632372063"><ele>441.5</ele><time>2026-05-02T14:09:10Z</time></trkpt><trkpt lat="41.10275931827993" lon="14.661816637368737"><ele>445.75</ele><time>2026-05-02T14:09:11Z</time></trkpt><trkpt lat="41.10265375735151" lon="14.661732119571324"><ele>450.0</ele><time>2026-05-02T14:09:12Z</time></trkpt><trkpt lat="41.1025539835342" lon="14.66164890824301"><ele>450.0</ele><time>2026-05-02T14:09:13Z</time></trkpt><trkpt lat="41.10246337039389" lon="14.661551486925017"><ele>450.0</ele><time>2026-05-02T14:09:14Z</time></trkpt><trkpt lat="41.102384404758524" lon="14.66146688473499"><ele>450.0</ele><time>2026-05-02T14:09:15Z</time></trkpt><trkpt lat="41.10228604471322" lon="14.661418369431134"><ele>450.0</ele><time>2026-05-02T14:09:16Z</time></trkpt><trkpt lat="41.10219811414385" lon="14.661360428052486"><ele>450.0</ele><time>2026-05-02T14:09:17Z</time></trkpt><trkpt lat="41.102123536816194" lon="14.661310442267455"><ele>451.8</ele><time>2026-05-02T14:09:18Z</time></trkpt><trkpt lat="41.10203591365825" lon="14.661246422967226"><ele>453.6</ele><time>2026-05-02T14:09:19Z</time></trkpt><trkpt lat="41.10193379362074" lon="14.66117774752716"><ele>455.4</ele><time>2026-05-02T14:09:20Z</time></trkpt><trkpt lat="41.101834395310036" lon="14.66111699103893"><ele>457.2</ele><time>2026-05-02T14:09:21Z</time></trkpt><trkpt lat="41.10175195893619" lon="14.66107042088248"><ele>459.0</ele><time>2026-05-02T14:09:22Z</time></trkpt><trkpt lat="41.101688477958696" lon="14.66102788354352"><ele>460.2</ele><time>2026-05-02T14:09:23Z</time></trkpt><trkpt lat="41.10161947176107" lon="14.660948881453688"><ele>461.4</ele><time>2026-05-02T14:09:24Z</time></trkpt><trkpt lat="41.10154882626972" lon="14.660857214672472"><ele>462.6</ele><time>2026-05-02T14:09:25Z</time></trkpt><trkpt lat="41.10147336041258" lon="14.660733360289251"><ele>463.8</ele><time>2026-05-02T14:09:26Z</time></trkpt><trkpt lat="41.1014085898568" lon="14.660623221793859"><ele>465.0</ele><time>2026-05-02T14:09:27Z</time></trkpt><trkpt lat="41.10134487131986" lon="14.660554337762411"><ele>467.0</ele><time>2026-05-02T14:09:28Z</time></trkpt><trkpt lat="41.10127199161935" lon="14.660515144577996"><ele>469.0</ele><time>2026-05-02T14:09:29Z</time></trkpt><trkpt lat="41.101175810212936" lon="14.660491829645467"><ele>471.0</ele><time>2026-05-02T14:09:30Z</time></trkpt><trkpt lat="41.10106729711384" lon="14.660481031842309"><ele>473.0</ele><time>2026-05-02T14:09:31Z</time></trkpt><trkpt lat="41.10095400048823" lon="14.660456030889707"><ele>475.0</ele><time>2026-05-02T14:09:32Z</time></trkpt><trkpt lat="41.1008601007698" lon="14.660439746487498"><ele>475.0</ele><time>2026-05-02T14:09:33Z</time></trkpt><trkpt lat="41.100786173990315" lon="14.660429693726279"><ele>475.0</ele><time>2026-05-02T14:09:34Z</time></trkpt><trkpt lat="41.10070001251449" lon="14.660390647247398"><ele>475.0</ele><time>2026-05-02T14:09:36Z</time></trkpt><trkpt lat="41.10053831298821" lon="14.660389092109204"><ele>475.0</ele><time>2026-05-02T14:09:38Z</time></trkpt><trkpt lat="41.10045130051628" lon="14.660388695711044"><ele>475.0</ele><time>2026-05-02T14:09:39Z</time></trkpt><trkpt lat="41.10035609874444" lon="14.660388357871867"><ele>477.2</ele><time>2026-05-02T14:09:40Z</time></trkpt><trkpt lat="41.10026744718906" lon="14.66038714448533"><ele>479.4</ele><time>2026-05-02T14:09:41Z</time></trkpt><trkpt lat="41.10017976926338" lon="14.660363493094605"><ele>481.6</ele><time>2026-05-02T14:09:42Z</time></trkpt><trkpt lat="41.10008524836898" lon="14.660350934851165"><ele>483.8</ele><time>2026-05-02T14:09:43Z</time></trkpt><trkpt lat="41.09999459369253" lon="14.660340620130409"><ele>486.0</ele><time>2026-05-02T14:09:44Z</time></trkpt><trkpt lat="41.09990468551838" lon="14.660331726655587"><ele>486.3333333333333</ele><time>2026-05-02T14:09:45Z</time></trkpt><trkpt lat="41.09982107459375" lon="14.660314966386967"><ele>486.66666666666663</ele><time>2026-05-02T14:09:46Z</time></trkpt><trkpt lat="41.099738816345145" lon="14.66030034804825"><ele>487.0</ele><time>2026-05-02T14:09:47Z</time></trkpt><trkpt lat="41.099671891912166" lon="14.660292542727285"><ele>487.3333333333333</ele><time>2026-05-02T14:09:48Z</time></trkpt><trkpt lat="41.09960405433894" lon="14.660287946124926"><ele>487.66666666666663</ele><time>2026-05-02T14:09:49Z</time></trkpt><trkpt lat="41.099540010471806" lon="14.660270677359394"><ele>488.0</ele><time>2026-05-02T14:09:50Z</time></trkpt><trkpt lat="41.099434083595476" lon="14.660197956308942"><ele>487.99999999999994</ele><time>2026-05-02T14:09:52.001Z</time></trkpt><trkpt lat="41.09938735189548" lon="14.660124730363362"><ele>488.0</ele><time>2026-05-02T14:09:53.001Z</time></trkpt><trkpt lat="41.09934970105531" lon="14.660041021589446"><ele>488.0</ele><time>2026-05-02T14:09:54.001Z</time></trkpt><trkpt lat="41.09931363363501" lon="14.659941508534445"><ele>488.0</ele><time>2026-05-02T14:09:55.001Z</time></trkpt><trkpt lat="41.09927918600668" lon="14.65982326869607"><ele>487.99999999999994</ele><time>2026-05-02T14:09:56.001Z</time></trkpt><trkpt lat="41.09925534624967" lon="14.659689346336565"><ele>488.0</ele><time>2026-05-02T14:09:57.001Z</time></trkpt><trkpt lat="41.09922999079011" lon="14.659543367612622"><ele>487.25</ele><time>2026-05-02T14:09:58.001Z</time></trkpt><trkpt lat="41.099180776813405" lon="14.659392908583271"><ele>486.5</ele><time>2026-05-02T14:09:59.001Z</time></trkpt><trkpt lat="41.09911950744451" lon="14.65924250518589"><ele>485.75</ele><time>2026-05-02T14:10:00.001Z</time></trkpt><trkpt lat="41.09904409820732" lon="14.659094607202013"><ele>485.0</ele><time>2026-05-02T14:10:01.001Z</time></trkpt><trkpt lat="41.09898371764932" lon="14.65898454505526"><ele>485.49999999999994</ele><time>2026-05-02T14:10:02.001Z</time></trkpt><trkpt lat="41.098934966544306" lon="14.658895597011576"><ele>486.0</ele><time>2026-05-02T14:10:03.001Z</time></trkpt><trkpt lat="41.098891685299094" lon="14.658804485771833"><ele>486.5</ele><time>2026-05-02T14:10:04.001Z</time></trkpt><trkpt lat="41.09886493711459" lon="14.658694258430543"><ele>487.0</ele><time>2026-05-02T14:10:05.001Z</time></trkpt><trkpt lat="41.09887692857218" lon="14.658576853027812"><ele>487.49999999999994</ele><time>2026-05-02T14:10:06.001Z</time></trkpt><trkpt lat="41.09890055303308" lon="14.658441591286273"><ele>488.0</ele><time>2026-05-02T14:10:07.001Z</time></trkpt><trkpt lat="41.09891763058945" lon="14.658292269686317"><ele>488.0</ele><time>2026-05-02T14:10:08.001Z</time></trkpt><trkpt lat="41.09893711944084" lon="14.658152324367352"><ele>487.99999999999994</ele><time>2026-05-02T14:10:09.001Z</time></trkpt><trkpt lat="41.098945264483696" lon="14.65801583928106"><ele>487.99999999999994</ele><time>2026-05-02T14:10:10.001Z</time></trkpt><trkpt lat="41.098937283476715" lon="14.657879834796814"><ele>488.0</ele><time>2026-05-02T14:10:11.001Z</time></trkpt><trkpt lat="41.09891684134968" lon="14.657760081962145"><ele>488.0</ele><time>2026-05-02T14:10:12.001Z</time></trkpt><trkpt lat="41.0988788332797" lon="14.657623387059127"><ele>486.2</ele><time>2026-05-02T14:10:13.001Z</time></trkpt><trkpt lat="41.098844799764564" lon="14.657493240205039"><ele>484.4</ele><time>2026-05-02T14:10:14.001Z</time></trkpt><trkpt lat="41.09880887985074" lon="14.657358732497444"><ele>482.59999999999997</ele><time>2026-05-02T14:10:15.001Z</time></trkpt><trkpt lat="41.09879356218921" lon="14.657215159921233"><ele>480.79999999999995</ele><time>2026-05-02T14:10:16.001Z</time></trkpt><trkpt lat="41.09879141126147" lon="14.657063934409779"><ele>479.0</ele><time>2026-05-02T14:10:17.001Z</time></trkpt><trkpt lat="41.09878685585742" lon="14.656906852062638"><ele>477.75</ele><time>2026-05-02T14:10:18.001Z</time></trkpt><trkpt lat="41.098778037189476" lon="14.656724252082551"><ele>476.5</ele><time>2026-05-02T14:10:19.001Z</time></trkpt><trkpt lat="41.09877129624798" lon="14.656524162685397"><ele>475.25</ele><time>2026-05-02T14:10:20.001Z</time></trkpt><trkpt lat="41.0987623351989" lon="14.656312949916819"><ele>474.0</ele><time>2026-05-02T14:10:21.001Z</time></trkpt><trkpt lat="41.098755187995486" lon="14.656112531990905"><ele>473.75</ele><time>2026-05-02T14:10:22.001Z</time></trkpt><trkpt lat="41.09874412910295" lon="14.655927790498396"><ele>473.5</ele><time>2026-05-02T14:10:23.001Z</time></trkpt><trkpt lat="41.09873870740332" lon="14.655767125974663"><ele>473.25</ele><time>2026-05-02T14:10:24.001Z</time></trkpt><trkpt lat="41.09873565304038" lon="14.655619200346937"><ele>473.0</ele><time>2026-05-02T14:10:25.001Z</time></trkpt><trkpt lat="41.098722799659384" lon="14.655482922432405"><ele>473.0</ele><time>2026-05-02T14:10:26.001Z</time></trkpt><trkpt lat="41.09869593698105" lon="14.655363766176437"><ele>472.99999999999994</ele><time>2026-05-02T14:10:27.001Z</time></trkpt><trkpt lat="41.09865315871027" lon="14.655267272268551"><ele>472.99999999999994</ele><time>2026-05-02T14:10:28.001Z</time></trkpt><trkpt lat="41.09858666785998" lon="14.655197166512162"><ele>473.0</ele><time>2026-05-02T14:10:29.001Z</time></trkpt><trkpt lat="41.09849071826099" lon="14.655140621848558"><ele>473.0</ele><time>2026-05-02T14:10:30.001Z</time></trkpt><trkpt lat="41.09837592838009" lon="14.655111155383516"><ele>474.0</ele><time>2026-05-02T14:10:31.001Z</time></trkpt><trkpt lat="41.098249585740604" lon="14.655094526258946"><ele>475.0</ele><time>2026-05-02T14:10:32.001Z</time></trkpt><trkpt lat="41.098126980468095" lon="14.655087178837032"><ele>476.0</ele><time>2026-05-02T14:10:33.001Z</time></trkpt><trkpt lat="41.09800909836804" lon="14.655069381395576"><ele>477.0</ele><time>2026-05-02T14:10:34.001Z</time></trkpt><trkpt lat="41.097889079382" lon="14.65504518967467"><ele>477.0</ele><time>2026-05-02T14:10:35.001Z</time></trkpt><trkpt lat="41.0977712972208" lon="14.655007538477586"><ele>477.00000000000006</ele><time>2026-05-02T14:10:36.001Z</time></trkpt><trkpt lat="41.0976737181862" lon="14.654957088912775"><ele>477.00000000000006</ele><time>2026-05-02T14:10:37.001Z</time></trkpt><trkpt lat="41.09759338731176" lon="14.65490381411271"><ele>477.0</ele><time>2026-05-02T14:10:38.001Z</time></trkpt><trkpt lat="41.09752043021548" lon="14.654856356905942"><ele>477.0</ele><time>2026-05-02T14:10:39.001Z</time></trkpt><trkpt lat="41.09745768968125" lon="14.654795764884877"><ele>477.0</ele><time>2026-05-02T14:10:40.001Z</time></trkpt><trkpt lat="41.097419536255" lon="14.654715538856559"><ele>477.0</ele><time>2026-05-02T14:10:41.001Z</time></trkpt><trkpt lat="41.09739054107665" lon="14.654631276361938"><ele>477.0</ele><time>2026-05-02T14:10:42.001Z</time></trkpt><trkpt lat="41.09736733870701" lon="14.654545608957214"><ele>477.0</ele><time>2026-05-02T14:10:43.001Z</time></trkpt><trkpt lat="41.097328921245044" lon="14.654464610346318"><ele>477.0</ele><time>2026-05-02T14:10:44.001Z</time></trkpt><trkpt lat="41.097279730372584" lon="14.654373206992213"><ele>477.0</ele><time>2026-05-02T14:10:45.001Z</time></trkpt><trkpt lat="41.09723198790328" lon="14.654234341620505"><ele>480.0</ele><time>2026-05-02T14:10:46.001Z</time></trkpt><trkpt lat="41.09715471506065" lon="14.654082776269979"><ele>483.0</ele><time>2026-05-02T14:10:47.001Z</time></trkpt><trkpt lat="41.09706873483267" lon="14.653926635997824"><ele>486.0</ele><time>2026-05-02T14:10:48.001Z</time></trkpt><trkpt lat="41.09698428069641" lon="14.653789463251599"><ele>489.0</ele><time>2026-05-02T14:10:49.001Z</time></trkpt><trkpt lat="41.09690663497631" lon="14.653652498456047"><ele>489.25</ele><time>2026-05-02T14:10:50.001Z</time></trkpt><trkpt lat="41.096836474267235" lon="14.653489175561603"><ele>489.5</ele><time>2026-05-02T14:10:51.002Z</time></trkpt><trkpt lat="41.09679936167762" lon="14.65332645650198"><ele>489.75</ele><time>2026-05-02T14:10:52.002Z</time></trkpt><trkpt lat="41.096761229938494" lon="14.653204860482154"><ele>490.0</ele><time>2026-05-02T14:10:53.002Z</time></trkpt><trkpt lat="41.096720204703466" lon="14.653085182652168"><ele>490.0</ele><time>2026-05-02T14:10:54.002Z</time></trkpt><trkpt lat="41.09668220243781" lon="14.652972496778823"><ele>490.0</ele><time>2026-05-02T14:10:55.002Z</time></trkpt><trkpt lat="41.09664170982434" lon="14.652853129584527"><ele>490.0</ele><time>2026-05-02T14:10:56.002Z</time></trkpt><trkpt lat="41.09658896136189" lon="14.652725975388787"><ele>490.0</ele><time>2026-05-02T14:10:57.002Z</time></trkpt><trkpt lat="41.09652943045342" lon="14.652598119946438"><ele>490.0</ele><time>2026-05-02T14:10:58.002Z</time></trkpt><trkpt lat="41.09647926927625" lon="14.65249242784022"><ele>491.6666666666667</ele><time>2026-05-02T14:10:59.002Z</time></trkpt><trkpt lat="41.09644520994587" lon="14.652414540844457"><ele>493.33333333333337</ele><time>2026-05-02T14:11:00.002Z</time></trkpt><trkpt lat="41.09642077063056" lon="14.652310818501372"><ele>495.0</ele><time>2026-05-02T14:11:01.002Z</time></trkpt><trkpt lat="41.09644036597815" lon="14.652208349262576"><ele>496.66666666666663</ele><time>2026-05-02T14:11:02.002Z</time></trkpt><trkpt lat="41.096487869031506" lon="14.65212679034041"><ele>498.3333333333333</ele><time>2026-05-02T14:11:03.002Z</time></trkpt><trkpt lat="41.09653375017934" lon="14.652015554025198"><ele>500.0</ele><time>2026-05-02T14:11:04.002Z</time></trkpt><trkpt lat="41.096571908426235" lon="14.651910929196248"><ele>498.8333333333333</ele><time>2026-05-02T14:11:05.002Z</time></trkpt><trkpt lat="41.09659437402782" lon="14.651776224007705"><ele>497.66666666666663</ele><time>2026-05-02T14:11:06.002Z</time></trkpt><trkpt lat="41.096608146206655" lon="14.651646626180757"><ele>496.5</ele><time>2026-05-02T14:11:07.002Z</time></trkpt><trkpt lat="41.09663669443096" lon="14.651546806168849"><ele>495.33333333333337</ele><time>2026-05-02T14:11:08.002Z</time></trkpt><trkpt lat="41.096673817333446" lon="14.651475399771954"><ele>494.1666666666667</ele><time>2026-05-02T14:11:09.002Z</time></trkpt><trkpt lat="41.096735411620884" lon="14.651420462060859"><ele>493.0</ele><time>2026-05-02T14:11:10.002Z</time></trkpt><trkpt lat="41.09682108932887" lon="14.651328814835917"><ele>493.0</ele><time>2026-05-02T14:11:11Z</time></trkpt><trkpt lat="41.09688504686203" lon="14.651219825112797"><ele>492.99999999999994</ele><time>2026-05-02T14:11:12Z</time></trkpt><trkpt lat="41.09691823942047" lon="14.651112941382008"><ele>492.99999999999994</ele><time>2026-05-02T14:11:13Z</time></trkpt><trkpt lat="41.09691513427" lon="14.650985791273882"><ele>493.0</ele><time>2026-05-02T14:11:14Z</time></trkpt><trkpt lat="41.09690552615902" lon="14.650868074174662"><ele>493.0</ele><time>2026-05-02T14:11:15Z</time></trkpt><trkpt lat="41.09688396294853" lon="14.65073689660535"><ele>495.5</ele><time>2026-05-02T14:11:16Z</time></trkpt><trkpt lat="41.09684687883627" lon="14.650618806403145"><ele>498.0</ele><time>2026-05-02T14:11:17Z</time></trkpt><trkpt lat="41.09678747067841" lon="14.650464771843096"><ele>500.5</ele><time>2026-05-02T14:11:18Z</time></trkpt><trkpt lat="41.09671043168846" lon="14.650318955161017"><ele>503.0</ele><time>2026-05-02T14:11:19Z</time></trkpt><trkpt lat="41.09663670308712" lon="14.650157983495522"><ele>505.79999999999995</ele><time>2026-05-02T14:11:20Z</time></trkpt><trkpt lat="41.09656147605846" lon="14.650004314291236"><ele>508.59999999999997</ele><time>2026-05-02T14:11:21Z</time></trkpt><trkpt lat="41.09645498476741" lon="14.64989896284905"><ele>511.40000000000003</ele><time>2026-05-02T14:11:22Z</time></trkpt><trkpt lat="41.09640816866017" lon="14.64980033413008"><ele>514.2</ele><time>2026-05-02T14:11:23Z</time></trkpt><trkpt lat="41.09637958417254" lon="14.64970854947715"><ele>517.0</ele><time>2026-05-02T14:11:24Z</time></trkpt><trkpt lat="41.09635346279709" lon="14.649628596886355"><ele>517.0</ele><time>2026-05-02T14:11:25Z</time></trkpt><trkpt lat="41.09635210205395" lon="14.649535734419011"><ele>517.0</ele><time>2026-05-02T14:11:26Z</time></trkpt><trkpt lat="41.09637598405106" lon="14.649449179979763"><ele>517.0</ele><time>2026-05-02T14:11:27Z</time></trkpt><trkpt lat="41.096423268911046" lon="14.649357236825766"><ele>517.0</ele><time>2026-05-02T14:11:28Z</time></trkpt><trkpt lat="41.09645718128433" lon="14.649245716398768"><ele>517.0</ele><time>2026-05-02T14:11:29Z</time></trkpt><trkpt lat="41.09646816947337" lon="14.6491212398179"><ele>517.0</ele><time>2026-05-02T14:11:30Z</time></trkpt><trkpt lat="41.096449801964866" lon="14.648987292696287"><ele>520.2</ele><time>2026-05-02T14:11:31Z</time></trkpt><trkpt lat="41.09641408581254" lon="14.648856797243027"><ele>523.4000000000001</ele><time>2026-05-02T14:11:32Z</time></trkpt><trkpt lat="41.09637098846358" lon="14.648748205367324"><ele>526.5999999999999</ele><time>2026-05-02T14:11:33Z</time></trkpt><trkpt lat="41.09630287004127" lon="14.648642042773599"><ele>529.8</ele><time>2026-05-02T14:11:34Z</time></trkpt><trkpt lat="41.096199525096345" lon="14.648550766198456"><ele>533.0</ele><time>2026-05-02T14:11:35Z</time></trkpt><trkpt lat="41.09607768842995" lon="14.648464451632613"><ele>534.0</ele><time>2026-05-02T14:11:36Z</time></trkpt><trkpt lat="41.09594291690128" lon="14.648396884964727"><ele>535.0</ele><time>2026-05-02T14:11:37Z</time></trkpt><trkpt lat="41.095794292730815" lon="14.648326886853"><ele>536.0</ele><time>2026-05-02T14:11:38Z</time></trkpt><trkpt lat="41.09564659520984" lon="14.648256701166897"><ele>541.0</ele><time>2026-05-02T14:11:39Z</time></trkpt><trkpt lat="41.095496942841265" lon="14.648191014946189"><ele>546.0</ele><time>2026-05-02T14:11:40Z</time></trkpt><trkpt lat="41.09536744081884" lon="14.648142187818067"><ele>551.0</ele><time>2026-05-02T14:11:41Z</time></trkpt><trkpt lat="41.09526202028703" lon="14.648087818086113"><ele>556.0</ele><time>2026-05-02T14:11:42Z</time></trkpt><trkpt lat="41.09515842451714" lon="14.64802083195881"><ele>556.0</ele><time>2026-05-02T14:11:43Z</time></trkpt><trkpt lat="41.09505099675047" lon="14.64793524670283"><ele>556.0</ele><time>2026-05-02T14:11:44Z</time></trkpt><trkpt lat="41.094937711111804" lon="14.647827522796396"><ele>556.0</ele><time>2026-05-02T14:11:45Z</time></trkpt><trkpt lat="41.094813753109854" lon="14.647729776611326"><ele>556.0</ele><time>2026-05-02T14:11:46Z</time></trkpt><trkpt lat="41.09469369357845" lon="14.647670580280643"><ele>558.0</ele><time>2026-05-02T14:11:47Z</time></trkpt><trkpt lat="41.09458695870639" lon="14.647619899149474"><ele>560.0</ele><time>2026-05-02T14:11:48Z</time></trkpt><trkpt lat="41.094462928116144" lon="14.647596108056193"><ele>562.0</ele><time>2026-05-02T14:11:49Z</time></trkpt><trkpt lat="41.09433123317967" lon="14.64760674431281"><ele>564.0</ele><time>2026-05-02T14:11:50Z</time></trkpt><trkpt lat="41.09421044538363" lon="14.647627749435408"><ele>564.0</ele><time>2026-05-02T14:11:51Z</time></trkpt><trkpt lat="41.09410478518595" lon="14.647634285716332"><ele>564.0</ele><time>2026-05-02T14:11:52Z</time></trkpt><trkpt lat="41.09402314803966" lon="14.647642500151518"><ele>564.0</ele><time>2026-05-02T14:11:53Z</time></trkpt><trkpt lat="41.09394645911459" lon="14.647625315900031"><ele>564.0</ele><time>2026-05-02T14:11:54Z</time></trkpt><trkpt lat="41.0938723900576" lon="14.647595515605408"><ele>564.0</ele><time>2026-05-02T14:11:55Z</time></trkpt><trkpt lat="41.093814620261526" lon="14.647559443079148"><ele>564.0</ele><time>2026-05-02T14:11:56Z</time></trkpt><trkpt lat="41.09372215513659" lon="14.647521477314806"><ele>564.4</ele><time>2026-05-02T14:11:58.001Z</time></trkpt><trkpt lat="41.09362363978435" lon="14.647485401829831"><ele>564.8</ele><time>2026-05-02T14:12:00.001Z</time></trkpt><trkpt lat="41.093528383739965" lon="14.647441817796011"><ele>565.2</ele><time>2026-05-02T14:12:02.001Z</time></trkpt><trkpt lat="41.0934316661147" lon="14.647383042013878"><ele>565.6</ele><time>2026-05-02T14:12:04.001Z</time></trkpt><trkpt lat="41.09335006721553" lon="14.64733223001128"><ele>566.0</ele><time>2026-05-02T14:12:06.001Z</time></trkpt><trkpt lat="41.093284686398974" lon="14.647326053678174"><ele>565.1666666666666</ele><time>2026-05-02T14:12:09.001Z</time></trkpt><trkpt lat="41.09324038615347" lon="14.647448202560545"><ele>564.3333333333333</ele><time>2026-05-02T14:12:11.001Z</time></trkpt><trkpt lat="41.093218746132" lon="14.647530755030418"><ele>563.5</ele><time>2026-05-02T14:12:12.001Z</time></trkpt><trkpt lat="41.09316886931854" lon="14.647600360118522"><ele>562.6666666666666</ele><time>2026-05-02T14:12:13.001Z</time></trkpt><trkpt lat="41.09309897221273" lon="14.647644828887731"><ele>561.8333333333334</ele><time>2026-05-02T14:12:14.001Z</time></trkpt><trkpt lat="41.093015461773525" lon="14.647660044603741"><ele>561.0</ele><time>2026-05-02T14:12:15.001Z</time></trkpt><trkpt lat="41.092931203709256" lon="14.647627293182246"><ele>561.0</ele><time>2026-05-02T14:12:16.001Z</time></trkpt><trkpt lat="41.09285270385659" lon="14.64757464420851"><ele>561.0</ele><time>2026-05-02T14:12:17.001Z</time></trkpt><trkpt lat="41.09277827456413" lon="14.647504277481707"><ele>561.0</ele><time>2026-05-02T14:12:18.001Z</time></trkpt><trkpt lat="41.09270009350869" lon="14.647447879379015"><ele>561.0</ele><time>2026-05-02T14:12:19.001Z</time></trkpt><trkpt lat="41.09261635045767" lon="14.647414073292436"><ele>561.0</ele><time>2026-05-02T14:12:20.001Z</time></trkpt><trkpt lat="41.09253575721657" lon="14.647401236681175"><ele>561.0</ele><time>2026-05-02T14:12:21.001Z</time></trkpt><trkpt lat="41.09246109898382" lon="14.64744253734558"><ele>559.2</ele><time>2026-05-02T14:12:22.001Z</time></trkpt><trkpt lat="41.09240540560548" lon="14.647526637191657"><ele>557.4000000000001</ele><time>2026-05-02T14:12:23.001Z</time></trkpt><trkpt lat="41.09238119438701" lon="14.647652637851333"><ele>555.6</ele><time>2026-05-02T14:12:24.001Z</time></trkpt><trkpt lat="41.09236226699344" lon="14.647787301945565"><ele>553.8000000000001</ele><time>2026-05-02T14:12:25.001Z</time></trkpt><trkpt lat="41.0923681632675" lon="14.647959538371131"><ele>552.0</ele><time>2026-05-02T14:12:26.001Z</time></trkpt><trkpt lat="41.092383888313144" lon="14.648129225158772"><ele>552.0</ele><time>2026-05-02T14:12:27.001Z</time></trkpt><trkpt lat="41.09239756311937" lon="14.648285460383832"><ele>552.0</ele><time>2026-05-02T14:12:28.001Z</time></trkpt><trkpt lat="41.09240742061221" lon="14.648425783435595"><ele>552.0</ele><time>2026-05-02T14:12:29.001Z</time></trkpt><trkpt lat="41.092422532300446" lon="14.648548809032288"><ele>552.0</ele><time>2026-05-02T14:12:30.001Z</time></trkpt><trkpt lat="41.09241037188925" lon="14.648670562774244"><ele>552.0</ele><time>2026-05-02T14:12:31.001Z</time></trkpt><trkpt lat="41.09236642011722" lon="14.64878138360698"><ele>554.2</ele><time>2026-05-02T14:12:32.001Z</time></trkpt><trkpt lat="41.09229261191188" lon="14.648871512299184"><ele>556.4000000000001</ele><time>2026-05-02T14:12:33.001Z</time></trkpt><trkpt lat="41.092199800681264" lon="14.648934308856596"><ele>558.5999999999999</ele><time>2026-05-02T14:12:34.001Z</time></trkpt><trkpt lat="41.09209078993752" lon="14.64894652812159"><ele>560.8</ele><time>2026-05-02T14:12:35.001Z</time></trkpt><trkpt lat="41.09197608132577" lon="14.648912791326559"><ele>563.0</ele><time>2026-05-02T14:12:36.001Z</time></trkpt><trkpt lat="41.091870806506925" lon="14.648836792388968"><ele>563.0</ele><time>2026-05-02T14:12:37.001Z</time></trkpt><trkpt lat="41.091786206858536" lon="14.648750785098297"><ele>563.0</ele><time>2026-05-02T14:12:38.001Z</time></trkpt><trkpt lat="41.09168659242252" lon="14.648719153627788"><ele>563.0</ele><time>2026-05-02T14:12:39.001Z</time></trkpt><trkpt lat="41.09155811218289" lon="14.648747769935332"><ele>563.0</ele><time>2026-05-02T14:12:40.001Z</time></trkpt><trkpt lat="41.09143500028978" lon="14.648816666483734"><ele>559.75</ele><time>2026-05-02T14:12:41.001Z</time></trkpt><trkpt lat="41.09130911677226" lon="14.648908436196777"><ele>556.5</ele><time>2026-05-02T14:12:42.001Z</time></trkpt><trkpt lat="41.09119790776801" lon="14.648993851615247"><ele>553.25</ele><time>2026-05-02T14:12:43.001Z</time></trkpt><trkpt lat="41.09110551657949" lon="14.649080115047024"><ele>550.0</ele><time>2026-05-02T14:12:44.001Z</time></trkpt><trkpt lat="41.09102766215143" lon="14.649206658713041"><ele>550.0</ele><time>2026-05-02T14:12:45.001Z</time></trkpt><trkpt lat="41.0909748612788" lon="14.649373840184456"><ele>550.0</ele><time>2026-05-02T14:12:46.001Z</time></trkpt><trkpt lat="41.09093698224015" lon="14.649525966769502"><ele>550.0</ele><time>2026-05-02T14:12:47.001Z</time></trkpt><trkpt lat="41.090901069202815" lon="14.649668442423545"><ele>550.0</ele><time>2026-05-02T14:12:48.001Z</time></trkpt><trkpt lat="41.090844421862286" lon="14.649780453123057"><ele>551.5</ele><time>2026-05-02T14:12:49.001Z</time></trkpt><trkpt lat="41.09076124266938" lon="14.64986434960764"><ele>553.0</ele><time>2026-05-02T14:12:50.001Z</time></trkpt><trkpt lat="41.0906657543532" lon="14.64992639953262"><ele>554.5</ele><time>2026-05-02T14:12:51.001Z</time></trkpt><trkpt lat="41.090548227069256" lon="14.6499685701144"><ele>556.0</ele><time>2026-05-02T14:12:52.001Z</time></trkpt><trkpt lat="41.090412902992014" lon="14.649990382030404"><ele>556.0</ele><time>2026-05-02T14:12:53.001Z</time></trkpt><trkpt lat="41.09024449012015" lon="14.650009311905375"><ele>556.0</ele><time>2026-05-02T14:12:54.001Z</time></trkpt><trkpt lat="41.090064759328406" lon="14.650018970486206"><ele>556.0</ele><time>2026-05-02T14:12:55.001Z</time></trkpt><trkpt lat="41.08988628191812" lon="14.650044415235163"><ele>554.6666666666667</ele><time>2026-05-02T14:12:56.001Z</time></trkpt><trkpt lat="41.08970346774267" lon="14.65007267315175"><ele>553.3333333333334</ele><time>2026-05-02T14:12:57.002Z</time></trkpt><trkpt lat="41.08951951462607" lon="14.650097320032803"><ele>552.0</ele><time>2026-05-02T14:12:58.002Z</time></trkpt><trkpt lat="41.089335407281744" lon="14.650112293060722"><ele>552.0</ele><time>2026-05-02T14:12:59.002Z</time></trkpt><trkpt lat="41.089151950046244" lon="14.650129498083022"><ele>552.0</ele><time>2026-05-02T14:13:00.002Z</time></trkpt><trkpt lat="41.088981281371765" lon="14.650152476385953"><ele>552.0</ele><time>2026-05-02T14:13:01.002Z</time></trkpt><trkpt lat="41.0888331694247" lon="14.650158959510334"><ele>552.0</ele><time>2026-05-02T14:13:02.002Z</time></trkpt><trkpt lat="41.08870771173613" lon="14.650180640322986"><ele>552.0</ele><time>2026-05-02T14:13:03.002Z</time></trkpt><trkpt lat="41.08859728992833" lon="14.650192771808285"><ele>552.0</ele><time>2026-05-02T14:13:04.002Z</time></trkpt><trkpt lat="41.088492060733685" lon="14.650233505263522"><ele>552.0</ele><time>2026-05-02T14:13:05.002Z</time></trkpt><trkpt lat="41.08839421460988" lon="14.650316760711746"><ele>552.0</ele><time>2026-05-02T14:13:06.002Z</time></trkpt><trkpt lat="41.08832601687358" lon="14.650429997428098"><ele>552.0</ele><time>2026-05-02T14:13:07.002Z</time></trkpt><trkpt lat="41.088291299495864" lon="14.650572780114915"><ele>552.0</ele><time>2026-05-02T14:13:08.002Z</time></trkpt><trkpt lat="41.08827212313487" lon="14.65074587230914"><ele>552.0</ele><time>2026-05-02T14:13:09.002Z</time></trkpt><trkpt lat="41.088296719846134" lon="14.650970659390836"><ele>552.0</ele><time>2026-05-02T14:13:10.002Z</time></trkpt><trkpt lat="41.0883031019849" lon="14.65118334709824"><ele>552.0</ele><time>2026-05-02T14:13:11.002Z</time></trkpt><trkpt lat="41.08830725063334" lon="14.65141886935584"><ele>552.0</ele><time>2026-05-02T14:13:12.002Z</time></trkpt><trkpt lat="41.0883065716286" lon="14.651653302448954"><ele>552.0</ele><time>2026-05-02T14:13:13.002Z</time></trkpt><trkpt lat="41.08834806557214" lon="14.651868840544621"><ele>552.0</ele><time>2026-05-02T14:13:14.002Z</time></trkpt><trkpt lat="41.08836055588214" lon="14.652048581200381"><ele>552.0</ele><time>2026-05-02T14:13:15.002Z</time></trkpt><trkpt lat="41.08836916297069" lon="14.65222261282323"><ele>552.0</ele><time>2026-05-02T14:13:16.002Z</time></trkpt><trkpt lat="41.08835563121104" lon="14.652397809049415"><ele>551.75</ele><time>2026-05-02T14:13:16.999Z</time></trkpt><trkpt lat="41.08832547730955" lon="14.652565390289917"><ele>551.5</ele><time>2026-05-02T14:13:17.999Z</time></trkpt><trkpt lat="41.08829642819761" lon="14.652703393633958"><ele>551.25</ele><time>2026-05-02T14:13:18.999Z</time></trkpt><trkpt lat="41.08827565443816" lon="14.652848023941884"><ele>551.0</ele><time>2026-05-02T14:13:19.999Z</time></trkpt><trkpt lat="41.08821901862218" lon="14.652979985706546"><ele>550.75</ele><time>2026-05-02T14:13:20.999Z</time></trkpt><trkpt lat="41.08811995230911" lon="14.653080079156553"><ele>550.5</ele><time>2026-05-02T14:13:21.999Z</time></trkpt><trkpt lat="41.08802019288371" lon="14.653166907351544"><ele>550.25</ele><time>2026-05-02T14:13:22.999Z</time></trkpt><trkpt lat="41.087907935074966" lon="14.653249102658148"><ele>550.0</ele><time>2026-05-02T14:13:23.999Z</time></trkpt><trkpt lat="41.08776445693792" lon="14.653312212893262"><ele>550.0</ele><time>2026-05-02T14:13:25Z</time></trkpt><trkpt lat="41.08763813310306" lon="14.653333415759258"><ele>550.0</ele><time>2026-05-02T14:13:26Z</time></trkpt><trkpt lat="41.08752170265768" lon="14.653359934724511"><ele>550.0</ele><time>2026-05-02T14:13:27Z</time></trkpt><trkpt lat="41.08741773734802" lon="14.653393563835113"><ele>550.0</ele><time>2026-05-02T14:13:28Z</time></trkpt><trkpt lat="41.08731748945283" lon="14.653452704874583"><ele>549.0</ele><time>2026-05-02T14:13:29Z</time></trkpt><trkpt lat="41.087222652923884" lon="14.653567214465781"><ele>548.0</ele><time>2026-05-02T14:13:30Z</time></trkpt><trkpt lat="41.08713504130537" lon="14.65370459461543"><ele>547.0</ele><time>2026-05-02T14:13:31Z</time></trkpt><trkpt lat="41.0870425191476" lon="14.65385976896512"><ele>546.0</ele><time>2026-05-02T14:13:32Z</time></trkpt><trkpt lat="41.086936305873124" lon="14.654016461796191"><ele>546.0</ele><time>2026-05-02T14:13:33Z</time></trkpt><trkpt lat="41.08683707934823" lon="14.654169441344138"><ele>546.0</ele><time>2026-05-02T14:13:34Z</time></trkpt><trkpt lat="41.086731441068686" lon="14.654330629216169"><ele>546.0</ele><time>2026-05-02T14:13:35Z</time></trkpt><trkpt lat="41.08663550942785" lon="14.654457948880973"><ele>546.0</ele><time>2026-05-02T14:13:36Z</time></trkpt><trkpt lat="41.08653530879661" lon="14.654584684195806"><ele>545.75</ele><time>2026-05-02T14:13:37Z</time></trkpt><trkpt lat="41.08644940863863" lon="14.6546885099822"><ele>545.5</ele><time>2026-05-02T14:13:38Z</time></trkpt><trkpt lat="41.08635596287545" lon="14.654795166417605"><ele>545.25</ele><time>2026-05-02T14:13:39Z</time></trkpt><trkpt lat="41.08626842200321" lon="14.654902234778367"><ele>545.0</ele><time>2026-05-02T14:13:40Z</time></trkpt><trkpt lat="41.08617980169874" lon="14.655010763759483"><ele>545.0</ele><time>2026-05-02T14:13:41Z</time></trkpt><trkpt lat="41.08609411652616" lon="14.655108347304248"><ele>545.0</ele><time>2026-05-02T14:13:42Z</time></trkpt><trkpt lat="41.085993693712936" lon="14.655192318024634"><ele>545.0</ele><time>2026-05-02T14:13:43Z</time></trkpt><trkpt lat="41.08590417500101" lon="14.65526758388691"><ele>545.0</ele><time>2026-05-02T14:13:44Z</time></trkpt><trkpt lat="41.08581661785089" lon="14.655313659028995"><ele>545.0</ele><time>2026-05-02T14:13:45Z</time></trkpt><trkpt lat="41.08573317526585" lon="14.655353913391197"><ele>544.8333333333333</ele><time>2026-05-02T14:13:46Z</time></trkpt><trkpt lat="41.08564520647183" lon="14.655386733422597"><ele>544.6666666666666</ele><time>2026-05-02T14:13:47Z</time></trkpt><trkpt lat="41.085563543489656" lon="14.655406967948423"><ele>544.5</ele><time>2026-05-02T14:13:48Z</time></trkpt><trkpt lat="41.08547838600794" lon="14.655416305454837"><ele>544.3333333333334</ele><time>2026-05-02T14:13:49Z</time></trkpt><trkpt lat="41.085386760632105" lon="14.655424436494654"><ele>544.1666666666667</ele><time>2026-05-02T14:13:50Z</time></trkpt><trkpt lat="41.08529572983247" lon="14.655437151068652"><ele>544.0</ele><time>2026-05-02T14:13:51Z</time></trkpt><trkpt lat="41.08520328623409" lon="14.655450778631511"><ele>544.0</ele><time>2026-05-02T14:13:52Z</time></trkpt><trkpt lat="41.08510441762675" lon="14.655461762244526"><ele>544.0</ele><time>2026-05-02T14:13:53Z</time></trkpt><trkpt lat="41.08499371884696" lon="14.655507962623165"><ele>544.0</ele><time>2026-05-02T14:13:54Z</time></trkpt><trkpt lat="41.08487699218427" lon="14.655586229627676"><ele>544.0</ele><time>2026-05-02T14:13:55Z</time></trkpt><trkpt lat="41.08475846583418" lon="14.655702106682044"><ele>542.75</ele><time>2026-05-02T14:13:56Z</time></trkpt><trkpt lat="41.08464780148462" lon="14.655825782586746"><ele>541.5</ele><time>2026-05-02T14:13:57Z</time></trkpt><trkpt lat="41.08453032195625" lon="14.655949299585677"><ele>540.25</ele><time>2026-05-02T14:13:58Z</time></trkpt><trkpt lat="41.084414480149164" lon="14.656061527589321"><ele>539.0</ele><time>2026-05-02T14:13:59Z</time></trkpt><trkpt lat="41.08429973021416" lon="14.656159837812545"><ele>539.0</ele><time>2026-05-02T14:14:00Z</time></trkpt><trkpt lat="41.08418701414502" lon="14.656245722926174"><ele>539.0</ele><time>2026-05-02T14:14:01Z</time></trkpt><trkpt lat="41.084074152108464" lon="14.656328372646163"><ele>539.0</ele><time>2026-05-02T14:14:02Z</time></trkpt><trkpt lat="41.08395889760384" lon="14.656391747275027"><ele>539.0</ele><time>2026-05-02T14:14:03Z</time></trkpt><trkpt lat="41.08381818467724" lon="14.656441386361683"><ele>539.25</ele><time>2026-05-02T14:14:04Z</time></trkpt><trkpt lat="41.083672107389745" lon="14.65647353435933"><ele>539.5</ele><time>2026-05-02T14:14:05Z</time></trkpt><trkpt lat="41.08351738295433" lon="14.65651015169172"><ele>539.75</ele><time>2026-05-02T14:14:06Z</time></trkpt><trkpt lat="41.083376112182606" lon="14.656530479424864"><ele>540.0</ele><time>2026-05-02T14:14:07Z</time></trkpt><trkpt lat="41.083250404682545" lon="14.656563767886958"><ele>538.25</ele><time>2026-05-02T14:14:08Z</time></trkpt><trkpt lat="41.083112117339084" lon="14.656598306064428"><ele>536.5</ele><time>2026-05-02T14:14:09Z</time></trkpt><trkpt lat="41.0829675989028" lon="14.656634817073028"><ele>534.75</ele><time>2026-05-02T14:14:10.001Z</time></trkpt><trkpt lat="41.08282259153589" lon="14.65664780926269"><ele>533.0</ele><time>2026-05-02T14:14:11.001Z</time></trkpt><trkpt lat="41.08269321141988" lon="14.656672628059393"><ele>533.0</ele><time>2026-05-02T14:14:12.001Z</time></trkpt><trkpt lat="41.08257118825042" lon="14.656685637367335"><ele>533.0</ele><time>2026-05-02T14:14:13.001Z</time></trkpt><trkpt lat="41.08245716979675" lon="14.656736186104322"><ele>533.0</ele><time>2026-05-02T14:14:14.001Z</time></trkpt><trkpt lat="41.08235607445707" lon="14.656767863617588"><ele>533.0</ele><time>2026-05-02T14:14:15.001Z</time></trkpt><trkpt lat="41.08229028298071" lon="14.656789649708843"><ele>533.0</ele><time>2026-05-02T14:14:16.001Z</time></trkpt><trkpt lat="41.08222177534198" lon="14.65682959317928"><ele>531.8</ele><time>2026-05-02T14:14:17.001Z</time></trkpt><trkpt lat="41.08214443966976" lon="14.656890573228644"><ele>530.5999999999999</ele><time>2026-05-02T14:14:18.001Z</time></trkpt><trkpt lat="41.08208439197235" lon="14.657023942411286"><ele>529.4000000000001</ele><time>2026-05-02T14:14:19.001Z</time></trkpt><trkpt lat="41.082022803485394" lon="14.657166545460294"><ele>528.2</ele><time>2026-05-02T14:14:20.001Z</time></trkpt><trkpt lat="41.0819658777804" lon="14.657291668320198"><ele>527.0</ele><time>2026-05-02T14:14:21.001Z</time></trkpt><trkpt lat="41.08189393707933" lon="14.657465594506899"><ele>527.0</ele><time>2026-05-02T14:14:22.001Z</time></trkpt><trkpt lat="41.08181159951205" lon="14.657607025032338"><ele>527.0</ele><time>2026-05-02T14:14:23.001Z</time></trkpt><trkpt lat="41.08172412003643" lon="14.65770556409128"><ele>527.0</ele><time>2026-05-02T14:14:24.001Z</time></trkpt><trkpt lat="41.08162715551715" lon="14.65777578906525"><ele>527.0</ele><time>2026-05-02T14:14:25.001Z</time></trkpt><trkpt lat="41.08152467300572" lon="14.657833269795306"><ele>526.0</ele><time>2026-05-02T14:14:26.001Z</time></trkpt><trkpt lat="41.08141788798571" lon="14.65788828671648"><ele>525.0</ele><time>2026-05-02T14:14:27.001Z</time></trkpt><trkpt lat="41.08129088895724" lon="14.657920917453504"><ele>524.0</ele><time>2026-05-02T14:14:28.001Z</time></trkpt><trkpt lat="41.08118462807011" lon="14.657938629412277"><ele>523.0</ele><time>2026-05-02T14:14:29.001Z</time></trkpt><trkpt lat="41.08105436879677" lon="14.657921365219067"><ele>523.0</ele><time>2026-05-02T14:14:30.001Z</time></trkpt><trkpt lat="41.08088177555251" lon="14.657890785936045"><ele>523.0</ele><time>2026-05-02T14:14:31.001Z</time></trkpt><trkpt lat="41.08073178566767" lon="14.657857235764748"><ele>523.0</ele><time>2026-05-02T14:14:32.001Z</time></trkpt><trkpt lat="41.080594189694196" lon="14.657833210787004"><ele>522.5</ele><time>2026-05-02T14:14:33.001Z</time></trkpt><trkpt lat="41.0804563097814" lon="14.657809946171106"><ele>522.0</ele><time>2026-05-02T14:14:34.001Z</time></trkpt><trkpt lat="41.08030009993557" lon="14.657790871223279"><ele>521.5</ele><time>2026-05-02T14:14:35.001Z</time></trkpt><trkpt lat="41.08015143146214" lon="14.65775815774521"><ele>521.0</ele><time>2026-05-02T14:14:36.001Z</time></trkpt><trkpt lat="41.07999891384722" lon="14.657738917663634"><ele>518.0</ele><time>2026-05-02T14:14:37.001Z</time></trkpt><trkpt lat="41.07985945794991" lon="14.657721007148103"><ele>515.0</ele><time>2026-05-02T14:14:38.001Z</time></trkpt><trkpt lat="41.07971886233455" lon="14.657707364459382"><ele>512.0</ele><time>2026-05-02T14:14:39.001Z</time></trkpt><trkpt lat="41.07959430174395" lon="14.657662773428571"><ele>509.0</ele><time>2026-05-02T14:14:40.001Z</time></trkpt><trkpt lat="41.07946019090765" lon="14.6575874185567"><ele>509.0</ele><time>2026-05-02T14:14:41.001Z</time></trkpt><trkpt lat="41.079337621412975" lon="14.657480750615896"><ele>509.0</ele><time>2026-05-02T14:14:42.001Z</time></trkpt><trkpt lat="41.079213227347566" lon="14.657376553422885"><ele>509.0</ele><time>2026-05-02T14:14:43.001Z</time></trkpt><trkpt lat="41.07909174126512" lon="14.657309911978917"><ele>509.0</ele><time>2026-05-02T14:14:44.001Z</time></trkpt><trkpt lat="41.07896313027172" lon="14.657262771079006"><ele>507.79999999999995</ele><time>2026-05-02T14:14:45.001Z</time></trkpt><trkpt lat="41.07885679126754" lon="14.65723990083472"><ele>506.59999999999997</ele><time>2026-05-02T14:14:46.001Z</time></trkpt><trkpt lat="41.078781574240324" lon="14.657258790656796"><ele>505.4</ele><time>2026-05-02T14:14:47.001Z</time></trkpt><trkpt lat="41.07871162367298" lon="14.657280246151103"><ele>504.2</ele><time>2026-05-02T14:14:48.001Z</time></trkpt><trkpt lat="41.078624975543825" lon="14.657401575317541"><ele>503.0</ele><time>2026-05-02T14:14:50.001Z</time></trkpt><trkpt lat="41.07861616447788" lon="14.657501263092902"><ele>503.0</ele><time>2026-05-02T14:14:51.001Z</time></trkpt><trkpt lat="41.078635440027334" lon="14.65759758448042"><ele>502.99999999999994</ele><time>2026-05-02T14:14:52.001Z</time></trkpt><trkpt lat="41.07872526597903" lon="14.657704232462411"><ele>502.99999999999994</ele><time>2026-05-02T14:14:53.001Z</time></trkpt><trkpt lat="41.07880193111817" lon="14.657818570355168"><ele>503.0</ele><time>2026-05-02T14:14:54.001Z</time></trkpt><trkpt lat="41.078888336764535" lon="14.65792803883042"><ele>503.0</ele><time>2026-05-02T14:14:55.001Z</time></trkpt><trkpt lat="41.078932697762745" lon="14.658050667943773"><ele>500.75</ele><time>2026-05-02T14:14:56.001Z</time></trkpt><trkpt lat="41.07896167692745" lon="14.658199426734841"><ele>498.5</ele><time>2026-05-02T14:14:57.001Z</time></trkpt><trkpt lat="41.078975478664766" lon="14.65837690867199"><ele>496.25</ele><time>2026-05-02T14:14:58.001Z</time></trkpt><trkpt lat="41.078956672620265" lon="14.658562857003284"><ele>494.0</ele><time>2026-05-02T14:14:59.001Z</time></trkpt><trkpt lat="41.078934135104724" lon="14.65879634168799"><ele>492.0</ele><time>2026-05-02T14:15:00.001Z</time></trkpt><trkpt lat="41.07890998159372" lon="14.659022088547907"><ele>490.0</ele><time>2026-05-02T14:15:01.001Z</time></trkpt><trkpt lat="41.07888759378981" lon="14.659242593508298"><ele>488.0</ele><time>2026-05-02T14:15:02.001Z</time></trkpt><trkpt lat="41.07887220955137" lon="14.659469505044232"><ele>486.66666666666663</ele><time>2026-05-02T14:15:03.001Z</time></trkpt><trkpt lat="41.078855436129835" lon="14.65970490747966"><ele>485.33333333333337</ele><time>2026-05-02T14:15:04.002Z</time></trkpt><trkpt lat="41.078837357700884" lon="14.659943902032424"><ele>484.0</ele><time>2026-05-02T14:15:05.002Z</time></trkpt><trkpt lat="41.07881652419164" lon="14.660170086808732"><ele>484.6666666666667</ele><time>2026-05-02T14:15:06.002Z</time></trkpt><trkpt lat="41.078795199495296" lon="14.660389220666056"><ele>485.33333333333337</ele><time>2026-05-02T14:15:07.002Z</time></trkpt><trkpt lat="41.07877100093537" lon="14.66061415334599"><ele>486.0</ele><time>2026-05-02T14:15:08.002Z</time></trkpt><trkpt lat="41.07874940846791" lon="14.660835162113992"><ele>486.0</ele><time>2026-05-02T14:15:09.002Z</time></trkpt><trkpt lat="41.07872600437833" lon="14.66105613043983"><ele>486.0</ele><time>2026-05-02T14:15:10.002Z</time></trkpt><trkpt lat="41.07870309647635" lon="14.66127939305903"><ele>486.0</ele><time>2026-05-02T14:15:11.002Z</time></trkpt><trkpt lat="41.07867658620918" lon="14.661500976910672"><ele>486.5</ele><time>2026-05-02T14:15:12.002Z</time></trkpt><trkpt lat="41.07865427841938" lon="14.661713476856546"><ele>487.0</ele><time>2026-05-02T14:15:13.002Z</time></trkpt><trkpt lat="41.078640477848516" lon="14.661910065020413"><ele>487.5</ele><time>2026-05-02T14:15:14.002Z</time></trkpt><trkpt lat="41.07862768206276" lon="14.662093070971347"><ele>488.0</ele><time>2026-05-02T14:15:15.002Z</time></trkpt><trkpt lat="41.07862006129229" lon="14.662259015469655"><ele>488.0</ele><time>2026-05-02T14:15:16.002Z</time></trkpt><trkpt lat="41.078602944927525" lon="14.662418369451245"><ele>488.0</ele><time>2026-05-02T14:15:17.002Z</time></trkpt><trkpt lat="41.078579491021586" lon="14.662578582769"><ele>488.0</ele><time>2026-05-02T14:15:18.002Z</time></trkpt><trkpt lat="41.07852855801603" lon="14.662722213222885"><ele>488.0</ele><time>2026-05-02T14:15:19.002Z</time></trkpt><trkpt lat="41.07848625709452" lon="14.662862024903095"><ele>486.4</ele><time>2026-05-02T14:15:20.002Z</time></trkpt><trkpt lat="41.07842657459485" lon="14.662986376347963"><ele>484.79999999999995</ele><time>2026-05-02T14:15:21.002Z</time></trkpt><trkpt lat="41.078354458125126" lon="14.663088065422471"><ele>483.2</ele><time>2026-05-02T14:15:22.002Z</time></trkpt><trkpt lat="41.07826832022948" lon="14.663151403712144"><ele>481.6</ele><time>2026-05-02T14:15:23Z</time></trkpt><trkpt lat="41.078192610832716" lon="14.663207272555296"><ele>480.0</ele><time>2026-05-02T14:15:24Z</time></trkpt><trkpt lat="41.07804242010636" lon="14.66320754486568"><ele>477.75</ele><time>2026-05-02T14:15:26Z</time></trkpt><trkpt lat="41.07793993325348" lon="14.663160622190913"><ele>475.5</ele><time>2026-05-02T14:15:27Z</time></trkpt><trkpt lat="41.07782113239921" lon="14.663100845855704"><ele>473.25</ele><time>2026-05-02T14:15:28Z</time></trkpt><trkpt lat="41.07769496164451" lon="14.663016219095084"><ele>471.0</ele><time>2026-05-02T14:15:29Z</time></trkpt><trkpt lat="41.07757797758747" lon="14.662937056021201"><ele>471.0</ele><time>2026-05-02T14:15:30Z</time></trkpt><trkpt lat="41.077482448672995" lon="14.662858500476561"><ele>471.0</ele><time>2026-05-02T14:15:31Z</time></trkpt><trkpt lat="41.077382144320666" lon="14.662808466337657"><ele>471.0</ele><time>2026-05-02T14:15:32Z</time></trkpt><trkpt lat="41.07728394713821" lon="14.662771764639489"><ele>471.0</ele><time>2026-05-02T14:15:33Z</time></trkpt><trkpt lat="41.07716866748857" lon="14.662786119301241"><ele>471.0</ele><time>2026-05-02T14:15:34Z</time></trkpt><trkpt lat="41.07703386901146" lon="14.66285112236771"><ele>470.75</ele><time>2026-05-02T14:15:35Z</time></trkpt><trkpt lat="41.0769204692551" lon="14.662952546909068"><ele>470.5</ele><time>2026-05-02T14:15:36Z</time></trkpt><trkpt lat="41.07683235708386" lon="14.66307433938297"><ele>470.25</ele><time>2026-05-02T14:15:37Z</time></trkpt><trkpt lat="41.07677706878615" lon="14.663243074231433"><ele>470.0</ele><time>2026-05-02T14:15:38Z</time></trkpt><trkpt lat="41.07675201466102" lon="14.663391306122175"><ele>470.0</ele><time>2026-05-02T14:15:39Z</time></trkpt><trkpt lat="41.07672906414807" lon="14.66354857356075"><ele>470.0</ele><time>2026-05-02T14:15:40Z</time></trkpt><trkpt lat="41.076729037993466" lon="14.663690093839058"><ele>470.0</ele><time>2026-05-02T14:15:41Z</time></trkpt><trkpt lat="41.07672446982946" lon="14.663794896325918"><ele>470.0</ele><time>2026-05-02T14:15:42Z</time></trkpt><trkpt lat="41.07670953139381" lon="14.663888720414127"><ele>470.0</ele><time>2026-05-02T14:15:43Z</time></trkpt><trkpt lat="41.07659817957782" lon="14.663962247732815"><ele>466.5</ele><time>2026-05-02T14:15:45Z</time></trkpt><trkpt lat="41.07651753879902" lon="14.663914839287083"><ele>463.0</ele><time>2026-05-02T14:15:46Z</time></trkpt><trkpt lat="41.076425092057434" lon="14.663851059654407"><ele>459.5</ele><time>2026-05-02T14:15:47Z</time></trkpt><trkpt lat="41.07631559633775" lon="14.663755197605798"><ele>456.0</ele><time>2026-05-02T14:15:48Z</time></trkpt><trkpt lat="41.076209169643846" lon="14.663640423456142"><ele>457.5</ele><time>2026-05-02T14:15:49Z</time></trkpt><trkpt lat="41.0761257411379" lon="14.663489072857748"><ele>459.0</ele><time>2026-05-02T14:15:50Z</time></trkpt><trkpt lat="41.07606943161855" lon="14.663334106667945"><ele>460.5</ele><time>2026-05-02T14:15:51Z</time></trkpt><trkpt lat="41.07600697959387" lon="14.663195261361894"><ele>462.0</ele><time>2026-05-02T14:15:52Z</time></trkpt><trkpt lat="41.075939077983165" lon="14.66307686333536"><ele>462.0</ele><time>2026-05-02T14:15:53Z</time></trkpt><trkpt lat="41.07583529706456" lon="14.662993276041826"><ele>462.0</ele><time>2026-05-02T14:15:54Z</time></trkpt><trkpt lat="41.07569624075767" lon="14.66296028687076"><ele>462.0</ele><time>2026-05-02T14:15:55Z</time></trkpt><trkpt lat="41.075531619037164" lon="14.66292296988072"><ele>462.0</ele><time>2026-05-02T14:15:56Z</time></trkpt><trkpt lat="41.07534743661419" lon="14.662931474147614"><ele>459.0</ele><time>2026-05-02T14:15:57Z</time></trkpt><trkpt lat="41.075153605228074" lon="14.662944368695628"><ele>456.0</ele><time>2026-05-02T14:15:58Z</time></trkpt><trkpt lat="41.074954128037994" lon="14.662968094071301"><ele>453.0</ele><time>2026-05-02T14:15:59Z</time></trkpt><trkpt lat="41.07476094217976" lon="14.663004707768279"><ele>453.0</ele><time>2026-05-02T14:16:00Z</time></trkpt><trkpt lat="41.074589897438265" lon="14.66304708092787"><ele>453.0</ele><time>2026-05-02T14:16:01Z</time></trkpt><trkpt lat="41.074436057465405" lon="14.663104011453703"><ele>453.0</ele><time>2026-05-02T14:16:02Z</time></trkpt><trkpt lat="41.07427608122643" lon="14.663179240165155"><ele>453.0</ele><time>2026-05-02T14:16:03Z</time></trkpt><trkpt lat="41.07411065737264" lon="14.663289359339803"><ele>453.0</ele><time>2026-05-02T14:16:04Z</time></trkpt><trkpt lat="41.07394384701681" lon="14.66339537832794"><ele>453.0</ele><time>2026-05-02T14:16:05Z</time></trkpt><trkpt lat="41.07380785778204" lon="14.663508763141067"><ele>450.0</ele><time>2026-05-02T14:16:06Z</time></trkpt><trkpt lat="41.07368664362932" lon="14.663643349021948"><ele>447.0</ele><time>2026-05-02T14:16:07.001Z</time></trkpt><trkpt lat="41.07354923830439" lon="14.663786546284422"><ele>444.0</ele><time>2026-05-02T14:16:08.001Z</time></trkpt><trkpt lat="41.0734227808319" lon="14.663932149392744"><ele>444.0</ele><time>2026-05-02T14:16:09.001Z</time></trkpt><trkpt lat="41.07331358010633" lon="14.664088365390091"><ele>444.0</ele><time>2026-05-02T14:16:10.001Z</time></trkpt><trkpt lat="41.073220831029595" lon="14.664242614304868"><ele>444.0</ele><time>2026-05-02T14:16:11.001Z</time></trkpt><trkpt lat="41.07314860875304" lon="14.664382788972375"><ele>444.0</ele><time>2026-05-02T14:16:12.001Z</time></trkpt><trkpt lat="41.07308556078987" lon="14.664513192615198"><ele>443.75</ele><time>2026-05-02T14:16:13.001Z</time></trkpt><trkpt lat="41.073064834003596" lon="14.664638173150866"><ele>443.5</ele><time>2026-05-02T14:16:14.001Z</time></trkpt><trkpt lat="41.073054980453485" lon="14.664795585177815"><ele>443.25</ele><time>2026-05-02T14:16:15.001Z</time></trkpt><trkpt lat="41.07306879413592" lon="14.664957850012103"><ele>443.0</ele><time>2026-05-02T14:16:16.001Z</time></trkpt><trkpt lat="41.073097928776264" lon="14.66510506693122"><ele>443.0</ele><time>2026-05-02T14:16:17.001Z</time></trkpt><trkpt lat="41.073116783517584" lon="14.66523095659723"><ele>442.99999999999994</ele><time>2026-05-02T14:16:18.001Z</time></trkpt><trkpt lat="41.073123527840885" lon="14.66536629927844"><ele>442.99999999999994</ele><time>2026-05-02T14:16:19.001Z</time></trkpt><trkpt lat="41.073102343047566" lon="14.665509724279417"><ele>443.0</ele><time>2026-05-02T14:16:20.001Z</time></trkpt><trkpt lat="41.07306629614856" lon="14.665650799654191"><ele>443.0</ele><time>2026-05-02T14:16:21.001Z</time></trkpt><trkpt lat="41.073010671458434" lon="14.665771037852267"><ele>442.25</ele><time>2026-05-02T14:16:22.001Z</time></trkpt><trkpt lat="41.07292071394282" lon="14.665878042510313"><ele>441.5</ele><time>2026-05-02T14:16:23.001Z</time></trkpt><trkpt lat="41.07282271698396" lon="14.665976204555566"><ele>440.75</ele><time>2026-05-02T14:16:24.001Z</time></trkpt><trkpt lat="41.07271165241924" lon="14.666019179525604"><ele>440.0</ele><time>2026-05-02T14:16:25.001Z</time></trkpt><trkpt lat="41.07261734221859" lon="14.666052746106836"><ele>440.0</ele><time>2026-05-02T14:16:26.001Z</time></trkpt><trkpt lat="41.07250637914357" lon="14.666062242131584"><ele>440.0</ele><time>2026-05-02T14:16:27.001Z</time></trkpt><trkpt lat="41.07241543907035" lon="14.666013357057452"><ele>440.0</ele><time>2026-05-02T14:16:28.001Z</time></trkpt><trkpt lat="41.07233744336691" lon="14.665976128606179"><ele>440.0</ele><time>2026-05-02T14:16:29.001Z</time></trkpt><trkpt lat="41.07223835826978" lon="14.665901242488117"><ele>440.0</ele><time>2026-05-02T14:16:30.001Z</time></trkpt><trkpt lat="41.07214145017098" lon="14.665807261633702"><ele>438.4</ele><time>2026-05-02T14:16:31.001Z</time></trkpt><trkpt lat="41.07204328562586" lon="14.665694759030899"><ele>436.8</ele><time>2026-05-02T14:16:32.001Z</time></trkpt><trkpt lat="41.071971240163606" lon="14.665590880137193"><ele>435.20000000000005</ele><time>2026-05-02T14:16:33.001Z</time></trkpt><trkpt lat="41.07191515013398" lon="14.665485241895436"><ele>433.6</ele><time>2026-05-02T14:16:34.001Z</time></trkpt><trkpt lat="41.07188451632026" lon="14.66538806324641"><ele>432.0</ele><time>2026-05-02T14:16:35.001Z</time></trkpt><trkpt lat="41.07187983637106" lon="14.665242511026063"><ele>432.0</ele><time>2026-05-02T14:16:36.001Z</time></trkpt><trkpt lat="41.071889472285676" lon="14.665097840884291"><ele>432.00000000000006</ele><time>2026-05-02T14:16:37.001Z</time></trkpt><trkpt lat="41.071939132433535" lon="14.664983052881391"><ele>432.00000000000006</ele><time>2026-05-02T14:16:38.001Z</time></trkpt><trkpt lat="41.07199545891308" lon="14.664848634886258"><ele>432.0</ele><time>2026-05-02T14:16:39.001Z</time></trkpt><trkpt lat="41.072040277429146" lon="14.66473412194006"><ele>432.0</ele><time>2026-05-02T14:16:40.001Z</time></trkpt><trkpt lat="41.072103205312935" lon="14.664619767892148"><ele>432.0</ele><time>2026-05-02T14:16:41.001Z</time></trkpt><trkpt lat="41.072143676529834" lon="14.664499406200541"><ele>432.0</ele><time>2026-05-02T14:16:42.001Z</time></trkpt><trkpt lat="41.0721760114125" lon="14.664323984715423"><ele>432.0</ele><time>2026-05-02T14:16:43.001Z</time></trkpt><trkpt lat="41.072214138770825" lon="14.664169222310782"><ele>432.0</ele><time>2026-05-02T14:16:44.001Z</time></trkpt><trkpt lat="41.07220827315568" lon="14.664012118684196"><ele>431.0</ele><time>2026-05-02T14:16:45.001Z</time></trkpt><trkpt lat="41.07221734878288" lon="14.663889754355639"><ele>430.00000000000006</ele><time>2026-05-02T14:16:46.001Z</time></trkpt><trkpt lat="41.07220358823033" lon="14.663746898812766"><ele>429.00000000000006</ele><time>2026-05-02T14:16:47.001Z</time></trkpt><trkpt lat="41.07218278368437" lon="14.663611976515547"><ele>428.0</ele><time>2026-05-02T14:16:48.001Z</time></trkpt><trkpt lat="41.07214281344765" lon="14.663458882677698"><ele>427.0</ele><time>2026-05-02T14:16:49.001Z</time></trkpt><trkpt lat="41.07208963627096" lon="14.663301936334364"><ele>426.6</ele><time>2026-05-02T14:16:50.001Z</time></trkpt><trkpt lat="41.07202683583171" lon="14.663178348271403"><ele>426.20000000000005</ele><time>2026-05-02T14:16:51.001Z</time></trkpt><trkpt lat="41.071962101190714" lon="14.663062523344278"><ele>425.8</ele><time>2026-05-02T14:16:52.001Z</time></trkpt><trkpt lat="41.071889404411806" lon="14.662963763679956"><ele>425.4</ele><time>2026-05-02T14:16:53.001Z</time></trkpt><trkpt lat="41.07181770420259" lon="14.662883039949653"><ele>425.0</ele><time>2026-05-02T14:16:54.001Z</time></trkpt><trkpt lat="41.07174990823852" lon="14.662790006235502"><ele>425.8</ele><time>2026-05-02T14:16:55.001Z</time></trkpt><trkpt lat="41.0716739211745" lon="14.662701443057419"><ele>426.6</ele><time>2026-05-02T14:16:56.001Z</time></trkpt><trkpt lat="41.071622894787666" lon="14.662598657306237"><ele>427.4</ele><time>2026-05-02T14:16:57.001Z</time></trkpt><trkpt lat="41.071588845394736" lon="14.66245383163223"><ele>428.2</ele><time>2026-05-02T14:16:58.002Z</time></trkpt><trkpt lat="41.07155755410781" lon="14.662292961436016"><ele>429.0</ele><time>2026-05-02T14:16:59.002Z</time></trkpt><trkpt lat="41.07152931056446" lon="14.662113558991699"><ele>425.0</ele><time>2026-05-02T14:17:00.002Z</time></trkpt><trkpt lat="41.07152513318186" lon="14.66192661980646"><ele>421.0</ele><time>2026-05-02T14:17:01.002Z</time></trkpt><trkpt lat="41.0715317221747" lon="14.661734896849644"><ele>417.0</ele><time>2026-05-02T14:17:02.002Z</time></trkpt><trkpt lat="41.07152981448536" lon="14.661564622851946"><ele>413.0</ele><time>2026-05-02T14:17:03.002Z</time></trkpt><trkpt lat="41.071521380775856" lon="14.661396014761982"><ele>413.0</ele><time>2026-05-02T14:17:04.002Z</time></trkpt><trkpt lat="41.0715074480928" lon="14.661224414691896"><ele>413.0</ele><time>2026-05-02T14:17:05.002Z</time></trkpt><trkpt lat="41.07148495984035" lon="14.661051914502085"><ele>413.0</ele><time>2026-05-02T14:17:06.002Z</time></trkpt><trkpt lat="41.07144194735836" lon="14.660879547511609"><ele>413.0</ele><time>2026-05-02T14:17:07.002Z</time></trkpt><trkpt lat="41.07136781982254" lon="14.660698045014607"><ele>413.3333333333333</ele><time>2026-05-02T14:17:08.002Z</time></trkpt><trkpt lat="41.07126409055356" lon="14.660515477008582"><ele>413.66666666666663</ele><time>2026-05-02T14:17:09.002Z</time></trkpt><trkpt lat="41.071126640298274" lon="14.660355208963804"><ele>414.0</ele><time>2026-05-02T14:17:10.002Z</time></trkpt><trkpt lat="41.07101663225104" lon="14.66022118913851"><ele>414.0</ele><time>2026-05-02T14:17:11.002Z</time></trkpt><trkpt lat="41.07089978356026" lon="14.660074961533892"><ele>414.0</ele><time>2026-05-02T14:17:12.002Z</time></trkpt><trkpt lat="41.070800045726926" lon="14.659947385550549"><ele>414.0</ele><time>2026-05-02T14:17:13.002Z</time></trkpt><trkpt lat="41.07073841620452" lon="14.659843387777862"><ele>414.0</ele><time>2026-05-02T14:17:14.002Z</time></trkpt><trkpt lat="41.070681443847995" lon="14.659734733676514"><ele>413.1666666666667</ele><time>2026-05-02T14:17:15.002Z</time></trkpt><trkpt lat="41.07064265104591" lon="14.659655409228115"><ele>412.33333333333337</ele><time>2026-05-02T14:17:16.002Z</time></trkpt><trkpt lat="41.07067474977967" lon="14.659582862926321"><ele>411.5</ele><time>2026-05-02T14:17:17.002Z</time></trkpt><trkpt lat="41.07071860656857" lon="14.659478563982995"><ele>410.6666666666667</ele><time>2026-05-02T14:17:18.002Z</time></trkpt><trkpt lat="41.07077480900623" lon="14.659373579577142"><ele>409.83333333333337</ele><time>2026-05-02T14:17:19.002Z</time></trkpt><trkpt lat="41.070860410561885" lon="14.65926902648922"><ele>409.0</ele><time>2026-05-02T14:17:20.002Z</time></trkpt><trkpt lat="41.070970354145416" lon="14.659170448499989"><ele>409.0</ele><time>2026-05-02T14:17:21.002Z</time></trkpt><trkpt lat="41.071088459301244" lon="14.659073323049556"><ele>409.0</ele><time>2026-05-02T14:17:22.002Z</time></trkpt><trkpt lat="41.07122105284233" lon="14.658979790420661"><ele>409.0</ele><time>2026-05-02T14:17:23.002Z</time></trkpt><trkpt lat="41.07137012627069" lon="14.658896896272541"><ele>409.0</ele><time>2026-05-02T14:17:24.002Z</time></trkpt><trkpt lat="41.07150297448082" lon="14.658832440081543"><ele>409.0</ele><time>2026-05-02T14:17:25.002Z</time></trkpt><trkpt lat="41.07163411421014" lon="14.658777518024406"><ele>409.0</ele><time>2026-05-02T14:17:26.002Z</time></trkpt><trkpt lat="41.07175604035787" lon="14.658726686657031"><ele>409.0</ele><time>2026-05-02T14:17:27.002Z</time></trkpt><trkpt lat="41.07186691665018" lon="14.65865027712845"><ele>407.0</ele><time>2026-05-02T14:17:28.002Z</time></trkpt><trkpt lat="41.07196159017215" lon="14.658572990689185"><ele>405.0</ele><time>2026-05-02T14:17:29Z</time></trkpt><trkpt lat="41.07204868336802" lon="14.658495610836495"><ele>403.0</ele><time>2026-05-02T14:17:30Z</time></trkpt><trkpt lat="41.07211449713954" lon="14.65838271319356"><ele>401.0</ele><time>2026-05-02T14:17:31Z</time></trkpt><trkpt lat="41.072169704270465" lon="14.658265175679551"><ele>399.0</ele><time>2026-05-02T14:17:32Z</time></trkpt><trkpt lat="41.07223667947037" lon="14.658138401636478"><ele>399.0</ele><time>2026-05-02T14:17:33Z</time></trkpt><trkpt lat="41.07227810201312" lon="14.657998971432859"><ele>399.0</ele><time>2026-05-02T14:17:34Z</time></trkpt><trkpt lat="41.0723116596204" lon="14.657858700551254"><ele>399.0</ele><time>2026-05-02T14:17:35Z</time></trkpt><trkpt lat="41.07231793625811" lon="14.657700792596463"><ele>399.0</ele><time>2026-05-02T14:17:36Z</time></trkpt><trkpt lat="41.07230566577572" lon="14.657551237026512"><ele>397.25</ele><time>2026-05-02T14:17:37Z</time></trkpt><trkpt lat="41.07225383834316" lon="14.6574133734733"><ele>395.5</ele><time>2026-05-02T14:17:38Z</time></trkpt><trkpt lat="41.07219867265628" lon="14.657246100730404"><ele>393.75</ele><time>2026-05-02T14:17:39Z</time></trkpt><trkpt lat="41.072147545296104" lon="14.657067886759195"><ele>392.0</ele><time>2026-05-02T14:17:40Z</time></trkpt><trkpt lat="41.07208586302669" lon="14.65689365309664"><ele>391.75</ele><time>2026-05-02T14:17:41Z</time></trkpt><trkpt lat="41.07203329478026" lon="14.656709089068807"><ele>391.5</ele><time>2026-05-02T14:17:42Z</time></trkpt><trkpt lat="41.072003239299775" lon="14.656555981390085"><ele>391.25</ele><time>2026-05-02T14:17:43Z</time></trkpt><trkpt lat="41.071939172515926" lon="14.656412435983313"><ele>391.0</ele><time>2026-05-02T14:17:44Z</time></trkpt><trkpt lat="41.07185817025647" lon="14.656270102678885"><ele>391.6666666666667</ele><time>2026-05-02T14:17:45Z</time></trkpt><trkpt lat="41.071771030197596" lon="14.656119747292664"><ele>392.33333333333337</ele><time>2026-05-02T14:17:46Z</time></trkpt><trkpt lat="41.071658833338134" lon="14.655981308740538"><ele>393.0</ele><time>2026-05-02T14:17:47Z</time></trkpt><trkpt lat="41.07153121207953" lon="14.655845210163875"><ele>390.0</ele><time>2026-05-02T14:17:48Z</time></trkpt><trkpt lat="41.07140175369161" lon="14.655718927424422"><ele>387.0</ele><time>2026-05-02T14:17:49Z</time></trkpt><trkpt lat="41.071279874279796" lon="14.65560151090134"><ele>384.0</ele><time>2026-05-02T14:17:50Z</time></trkpt><trkpt lat="41.07115742585068" lon="14.65547662276062"><ele>384.0</ele><time>2026-05-02T14:17:51Z</time></trkpt><trkpt lat="41.07104815109234" lon="14.655365763327008"><ele>384.0</ele><time>2026-05-02T14:17:52Z</time></trkpt><trkpt lat="41.07095920793143" lon="14.655255209154051"><ele>384.0</ele><time>2026-05-02T14:17:53Z</time></trkpt><trkpt lat="41.07086337177754" lon="14.655132077645586"><ele>384.0</ele><time>2026-05-02T14:17:54Z</time></trkpt><trkpt lat="41.070779299489494" lon="14.655008983141185"><ele>381.5</ele><time>2026-05-02T14:17:55Z</time></trkpt><trkpt lat="41.07071566936691" lon="14.654914235767075"><ele>379.0</ele><time>2026-05-02T14:17:56Z</time></trkpt><trkpt lat="41.070661444578185" lon="14.654842668047461"><ele>376.5</ele><time>2026-05-02T14:17:57Z</time></trkpt><trkpt lat="41.070631176144076" lon="14.654759394062598"><ele>374.0</ele><time>2026-05-02T14:17:58Z</time></trkpt><trkpt lat="41.07062471604651" lon="14.654667247550456"><ele>371.5</ele><time>2026-05-02T14:17:59Z</time></trkpt><trkpt lat="41.07065810700301" lon="14.654586738088364"><ele>369.0</ele><time>2026-05-02T14:18:00Z</time></trkpt><trkpt lat="41.07071210507712" lon="14.654515256436673"><ele>372.5</ele><time>2026-05-02T14:18:01Z</time></trkpt><trkpt lat="41.07078983220176" lon="14.654482095559825"><ele>376.0</ele><time>2026-05-02T14:18:02Z</time></trkpt><trkpt lat="41.07090671580318" lon="14.654497330019463"><ele>379.5</ele><time>2026-05-02T14:18:03Z</time></trkpt><trkpt lat="41.0710467239939" lon="14.654502051766988"><ele>383.0</ele><time>2026-05-02T14:18:04.001Z</time></trkpt><trkpt lat="41.071198448595105" lon="14.654509460711749"><ele>383.0</ele><time>2026-05-02T14:18:05.001Z</time></trkpt><trkpt lat="41.07133149637613" lon="14.65452418038037"><ele>383.0</ele><time>2026-05-02T14:18:06.001Z</time></trkpt><trkpt lat="41.071445025907884" lon="14.654519292128313"><ele>383.0</ele><time>2026-05-02T14:18:07.001Z</time></trkpt><trkpt lat="41.07155413357889" lon="14.654478754569132"><ele>383.0</ele><time>2026-05-02T14:18:08.001Z</time></trkpt><trkpt lat="41.07166540954256" lon="14.654401902460815"><ele>382.0</ele><time>2026-05-02T14:18:09.001Z</time></trkpt><trkpt lat="41.0717700021567" lon="14.654306132760517"><ele>381.0</ele><time>2026-05-02T14:18:10.001Z</time></trkpt><trkpt lat="41.07185246041829" lon="14.654174129722433"><ele>380.0</ele><time>2026-05-02T14:18:11.001Z</time></trkpt><trkpt lat="41.07190372396725" lon="14.654042924496467"><ele>379.0</ele><time>2026-05-02T14:18:12.001Z</time></trkpt><trkpt lat="41.07193941885997" lon="14.653895369674512"><ele>379.0</ele><time>2026-05-02T14:18:13.001Z</time></trkpt><trkpt lat="41.0719488302345" lon="14.653762693050282"><ele>379.0</ele><time>2026-05-02T14:18:14.001Z</time></trkpt><trkpt lat="41.071935643558305" lon="14.653634636624059"><ele>379.0</ele><time>2026-05-02T14:18:15.001Z</time></trkpt><trkpt lat="41.071909857082574" lon="14.653498474268329"><ele>379.0</ele><time>2026-05-02T14:18:16.001Z</time></trkpt><trkpt lat="41.07185465320823" lon="14.653409439236228"><ele>379.0</ele><time>2026-05-02T14:18:17.001Z</time></trkpt><trkpt lat="41.07175551068714" lon="14.653316339287693"><ele>377.75</ele><time>2026-05-02T14:18:18.001Z</time></trkpt><trkpt lat="41.07165429022041" lon="14.653214132143933"><ele>376.5</ele><time>2026-05-02T14:18:19.001Z</time></trkpt><trkpt lat="41.071562205872034" lon="14.653105342401604"><ele>375.25</ele><time>2026-05-02T14:18:20.001Z</time></trkpt><trkpt lat="41.07145916699948" lon="14.653025487303346"><ele>374.0</ele><time>2026-05-02T14:18:21.001Z</time></trkpt><trkpt lat="41.0713713651134" lon="14.652908325990055"><ele>371.0</ele><time>2026-05-02T14:18:22.001Z</time></trkpt><trkpt lat="41.07129516778498" lon="14.652772363569401"><ele>368.0</ele><time>2026-05-02T14:18:23.001Z</time></trkpt><trkpt lat="41.07122768127324" lon="14.652626236894255"><ele>365.0</ele><time>2026-05-02T14:18:24.001Z</time></trkpt><trkpt lat="41.071172314064604" lon="14.652482927900364"><ele>362.0</ele><time>2026-05-02T14:18:25.001Z</time></trkpt><trkpt lat="41.07111058496971" lon="14.652330398412069"><ele>362.0</ele><time>2026-05-02T14:18:26.001Z</time></trkpt><trkpt lat="41.0710411348764" lon="14.652174418061026"><ele>362.0</ele><time>2026-05-02T14:18:27.001Z</time></trkpt><trkpt lat="41.07097828373314" lon="14.65204327479226"><ele>362.0</ele><time>2026-05-02T14:18:28.001Z</time></trkpt><trkpt lat="41.07092602604551" lon="14.651915077115596"><ele>362.0</ele><time>2026-05-02T14:18:29.001Z</time></trkpt><trkpt lat="41.07088510583281" lon="14.65178407216374"><ele>362.25</ele><time>2026-05-02T14:18:30.001Z</time></trkpt><trkpt lat="41.07085724817986" lon="14.651643606554984"><ele>362.5</ele><time>2026-05-02T14:18:31.001Z</time></trkpt><trkpt lat="41.070846994489216" lon="14.651489575314011"><ele>362.75</ele><time>2026-05-02T14:18:32.001Z</time></trkpt><trkpt lat="41.070855480170195" lon="14.651336621958407"><ele>363.0</ele><time>2026-05-02T14:18:33.001Z</time></trkpt><trkpt lat="41.070874202534625" lon="14.651175335507116"><ele>362.79999999999995</ele><time>2026-05-02T14:18:34.001Z</time></trkpt><trkpt lat="41.07089056463377" lon="14.651031664297264"><ele>362.6</ele><time>2026-05-02T14:18:35.001Z</time></trkpt><trkpt lat="41.07091187696641" lon="14.650902033902728"><ele>362.4</ele><time>2026-05-02T14:18:36.001Z</time></trkpt><trkpt lat="41.07091114536851" lon="14.650764620297998"><ele>362.20000000000005</ele><time>2026-05-02T14:18:37.001Z</time></trkpt><trkpt lat="41.070873344404625" lon="14.650612810673012"><ele>362.0</ele><time>2026-05-02T14:18:38.001Z</time></trkpt><trkpt lat="41.07081258672399" lon="14.650460095446808"><ele>360.25</ele><time>2026-05-02T14:18:39.001Z</time></trkpt><trkpt lat="41.07073389705003" lon="14.650324910522153"><ele>358.5</ele><time>2026-05-02T14:18:40.001Z</time></trkpt><trkpt lat="41.070644343312935" lon="14.650185595850493"><ele>356.75</ele><time>2026-05-02T14:18:41.001Z</time></trkpt><trkpt lat="41.07052175220113" lon="14.650096356444044"><ele>355.0</ele><time>2026-05-02T14:18:42.001Z</time></trkpt><trkpt lat="41.070396084443026" lon="14.650009374762222"><ele>355.0</ele><time>2026-05-02T14:18:43.001Z</time></trkpt><trkpt lat="41.07025278949953" lon="14.64992700487425"><ele>355.0</ele><time>2026-05-02T14:18:44.001Z</time></trkpt><trkpt lat="41.07010327424341" lon="14.649862811336051"><ele>355.0</ele><time>2026-05-02T14:18:45.001Z</time></trkpt><trkpt lat="41.06995463220626" lon="14.649826310303277"><ele>352.5</ele><time>2026-05-02T14:18:46.001Z</time></trkpt><trkpt lat="41.06981454450783" lon="14.649783636495535"><ele>350.0</ele><time>2026-05-02T14:18:47.001Z</time></trkpt><trkpt lat="41.069682742852144" lon="14.649741941438052"><ele>347.5</ele><time>2026-05-02T14:18:48.001Z</time></trkpt><trkpt lat="41.06955242759639" lon="14.649702439762377"><ele>345.0</ele><time>2026-05-02T14:18:49.001Z</time></trkpt><trkpt lat="41.06942863487689" lon="14.64964229297628"><ele>345.0</ele><time>2026-05-02T14:18:50.001Z</time></trkpt><trkpt lat="41.06931519010223" lon="14.649570956776511"><ele>345.0</ele><time>2026-05-02T14:18:51.001Z</time></trkpt><trkpt lat="41.069208940185895" lon="14.64947216156775"><ele>345.0</ele><time>2026-05-02T14:18:52.001Z</time></trkpt><trkpt lat="41.06912222837588" lon="14.649352273801341"><ele>345.0</ele><time>2026-05-02T14:18:53.001Z</time></trkpt><trkpt lat="41.06905351571194" lon="14.64924845300858"><ele>343.5</ele><time>2026-05-02T14:18:54.001Z</time></trkpt><trkpt lat="41.06901393909754" lon="14.649121345307837"><ele>342.0</ele><time>2026-05-02T14:18:55.001Z</time></trkpt><trkpt lat="41.06899148017455" lon="14.648981164839185"><ele>340.5</ele><time>2026-05-02T14:18:56.001Z</time></trkpt><trkpt lat="41.06901616049441" lon="14.648809242069076"><ele>339.0</ele><time>2026-05-02T14:18:57.002Z</time></trkpt><trkpt lat="41.06902566349652" lon="14.648623635228041"><ele>337.6666666666667</ele><time>2026-05-02T14:18:58.002Z</time></trkpt><trkpt lat="41.06905691606495" lon="14.648401960848759"><ele>336.33333333333337</ele><time>2026-05-02T14:18:59.002Z</time></trkpt><trkpt lat="41.06910573432559" lon="14.648196300488669"><ele>335.0</ele><time>2026-05-02T14:19:00.002Z</time></trkpt><trkpt lat="41.0691470716848" lon="14.647992545954565"><ele>337.0</ele><time>2026-05-02T14:19:01.002Z</time></trkpt><trkpt lat="41.069207337129846" lon="14.647800300573284"><ele>339.0</ele><time>2026-05-02T14:19:02.002Z</time></trkpt><trkpt lat="41.06927283085364" lon="14.647599583823519"><ele>341.0</ele><time>2026-05-02T14:19:03.002Z</time></trkpt><trkpt lat="41.06933757976132" lon="14.647411328990492"><ele>341.0</ele><time>2026-05-02T14:19:04.002Z</time></trkpt><trkpt lat="41.06938988283064" lon="14.647250135119291"><ele>341.0</ele><time>2026-05-02T14:19:05.002Z</time></trkpt><trkpt lat="41.06944703588414" lon="14.647112585488175"><ele>341.0</ele><time>2026-05-02T14:19:06.002Z</time></trkpt><trkpt lat="41.06948206548873" lon="14.646976688736386"><ele>341.0</ele><time>2026-05-02T14:19:07.002Z</time></trkpt><trkpt lat="41.06949913910062" lon="14.646857695649175"><ele>340.8</ele><time>2026-05-02T14:19:08.002Z</time></trkpt><trkpt lat="41.069486670889525" lon="14.64671997525739"><ele>340.6</ele><time>2026-05-02T14:19:09.002Z</time></trkpt><trkpt lat="41.06944093665691" lon="14.64662408112641"><ele>340.4</ele><time>2026-05-02T14:19:10.002Z</time></trkpt><trkpt lat="41.069403990641284" lon="14.646538404859582"><ele>340.2</ele><time>2026-05-02T14:19:11.002Z</time></trkpt><trkpt lat="41.06932288344651" lon="14.64647891886015"><ele>340.0</ele><time>2026-05-02T14:19:12.002Z</time></trkpt><trkpt lat="41.06921691110445" lon="14.646446751187597"><ele>337.0</ele><time>2026-05-02T14:19:13.002Z</time></trkpt><trkpt lat="41.069103066485006" lon="14.64642093304983"><ele>334.0</ele><time>2026-05-02T14:19:14.002Z</time></trkpt><trkpt lat="41.068972883347726" lon="14.646381666301345"><ele>331.0</ele><time>2026-05-02T14:19:15.002Z</time></trkpt><trkpt lat="41.06882660439466" lon="14.6463597666464"><ele>328.0</ele><time>2026-05-02T14:19:16.002Z</time></trkpt><trkpt lat="41.06865184673436" lon="14.64633805022674"><ele>328.0</ele><time>2026-05-02T14:19:17.002Z</time></trkpt><trkpt lat="41.06847965145233" lon="14.64630970527516"><ele>328.0</ele><time>2026-05-02T14:19:18.002Z</time></trkpt><trkpt lat="41.06831981076401" lon="14.646278788985551"><ele>328.0</ele><time>2026-05-02T14:19:19.002Z</time></trkpt><trkpt lat="41.06815017135138" lon="14.64624390915554"><ele>327.3333333333333</ele><time>2026-05-02T14:19:20.002Z</time></trkpt><trkpt lat="41.06800043438443" lon="14.646226871024668"><ele>326.6666666666667</ele><time>2026-05-02T14:19:21.002Z</time></trkpt><trkpt lat="41.067847482994075" lon="14.646224915753857"><ele>326.0</ele><time>2026-05-02T14:19:22.002Z</time></trkpt><trkpt lat="41.06768460920724" lon="14.64621158794864"><ele>326.0</ele><time>2026-05-02T14:19:23.002Z</time></trkpt><trkpt lat="41.06751338642279" lon="14.646250638249496"><ele>326.0</ele><time>2026-05-02T14:19:24.002Z</time></trkpt><trkpt lat="41.06734377833523" lon="14.646279999296702"><ele>326.0</ele><time>2026-05-02T14:19:25.002Z</time></trkpt><trkpt lat="41.06717356895038" lon="14.646317205666486"><ele>325.33333333333337</ele><time>2026-05-02T14:19:26.002Z</time></trkpt><trkpt lat="41.06701059748787" lon="14.646405982440388"><ele>324.6666666666667</ele><time>2026-05-02T14:19:27.002Z</time></trkpt><trkpt lat="41.06684073564235" lon="14.646459171794874"><ele>324.0</ele><time>2026-05-02T14:19:28.002Z</time></trkpt><trkpt lat="41.06668938692972" lon="14.646547550615272"><ele>322.5</ele><time>2026-05-02T14:19:29.002Z</time></trkpt><trkpt lat="41.066549034739715" lon="14.646607690094587"><ele>321.0</ele><time>2026-05-02T14:19:30.002Z</time></trkpt><trkpt lat="41.066426669434286" lon="14.6466579605217"><ele>319.5</ele><time>2026-05-02T14:19:31.002Z</time></trkpt><trkpt lat="41.06631485537205" lon="14.64669778048758"><ele>318.0</ele><time>2026-05-02T14:19:32.002Z</time></trkpt><trkpt lat="41.066200922653195" lon="14.646708869940861"><ele>318.0</ele><time>2026-05-02T14:19:33.002Z</time></trkpt><trkpt lat="41.066098388393605" lon="14.646751071109279"><ele>318.0</ele><time>2026-05-02T14:19:34.002Z</time></trkpt><trkpt lat="41.06598779362244" lon="14.646758204907671"><ele>318.0</ele><time>2026-05-02T14:19:35Z</time></trkpt><trkpt lat="41.0658808825605" lon="14.64675826071662"><ele>318.0</ele><time>2026-05-02T14:19:36Z</time></trkpt><trkpt lat="41.065779016273176" lon="14.646742332851492"><ele>318.0</ele><time>2026-05-02T14:19:37Z</time></trkpt><trkpt lat="41.06567042871263" lon="14.646700523730892"><ele>317.0</ele><time>2026-05-02T14:19:38Z</time></trkpt><trkpt lat="41.06555831721209" lon="14.646650628536664"><ele>316.0</ele><time>2026-05-02T14:19:39Z</time></trkpt><trkpt lat="41.06545092768873" lon="14.646594974781243"><ele>315.0</ele><time>2026-05-02T14:19:40Z</time></trkpt><trkpt lat="41.0653502187209" lon="14.646528371854659"><ele>314.0</ele><time>2026-05-02T14:19:41Z</time></trkpt><trkpt lat="41.06525257882901" lon="14.646450510474336"><ele>314.0</ele><time>2026-05-02T14:19:42Z</time></trkpt><trkpt lat="41.0651574032318" lon="14.646357774116249"><ele>314.0</ele><time>2026-05-02T14:19:43Z</time></trkpt><trkpt lat="41.06507953484265" lon="14.646236696742337"><ele>314.0</ele><time>2026-05-02T14:19:44Z</time></trkpt><trkpt lat="41.06499714427415" lon="14.646117708810802"><ele>314.0</ele><time>2026-05-02T14:19:45Z</time></trkpt><trkpt lat="41.06491617177363" lon="14.645993252098092"><ele>313.0</ele><time>2026-05-02T14:19:46Z</time></trkpt><trkpt lat="41.064829455457044" lon="14.645863223230903"><ele>312.0</ele><time>2026-05-02T14:19:47Z</time></trkpt><trkpt lat="41.064744846743174" lon="14.64572801001596"><ele>311.0</ele><time>2026-05-02T14:19:48Z</time></trkpt><trkpt lat="41.064656181944116" lon="14.645600633704838"><ele>310.0</ele><time>2026-05-02T14:19:49Z</time></trkpt><trkpt lat="41.06458742141779" lon="14.645482485169422"><ele>310.0</ele><time>2026-05-02T14:19:50Z</time></trkpt><trkpt lat="41.06451610902863" lon="14.645390861047401"><ele>310.0</ele><time>2026-05-02T14:19:51Z</time></trkpt><trkpt lat="41.0644545445373" lon="14.645296173247182"><ele>310.0</ele><time>2026-05-02T14:19:52Z</time></trkpt><trkpt lat="41.06439648111325" lon="14.645219745634828"><ele>310.0</ele><time>2026-05-02T14:19:53Z</time></trkpt><trkpt lat="41.06435008204955" lon="14.645146732568977"><ele>310.0</ele><time>2026-05-02T14:19:54Z</time></trkpt><trkpt lat="41.06430428857186" lon="14.645078739835942"><ele>310.0</ele><time>2026-05-02T14:19:55Z</time></trkpt><trkpt lat="41.06420545917846" lon="14.644963962026111"><ele>310.16666666666663</ele><time>2026-05-02T14:19:57Z</time></trkpt><trkpt lat="41.06415469552785" lon="14.644899500082273"><ele>310.3333333333333</ele><time>2026-05-02T14:19:58Z</time></trkpt><trkpt lat="41.064127893002095" lon="14.64482056563734"><ele>310.5</ele><time>2026-05-02T14:19:59Z</time></trkpt><trkpt lat="41.06408026182075" lon="14.644758058154416"><ele>310.6666666666667</ele><time>2026-05-02T14:20:00Z</time></trkpt><trkpt lat="41.064034008900265" lon="14.64469987756169"><ele>310.83333333333337</ele><time>2026-05-02T14:20:01.001Z</time></trkpt><trkpt lat="41.06395873369278" lon="14.644567368376268"><ele>311.0</ele><time>2026-05-02T14:20:03.001Z</time></trkpt><trkpt lat="41.06389611265649" lon="14.644470021755694"><ele>309.83333333333337</ele><time>2026-05-02T14:20:05.001Z</time></trkpt><trkpt lat="41.06387355947509" lon="14.644372397048496"><ele>308.6666666666667</ele><time>2026-05-02T14:20:07.001Z</time></trkpt><trkpt lat="41.06391650664204" lon="14.644210749970066"><ele>307.5</ele><time>2026-05-02T14:20:10.001Z</time></trkpt><trkpt lat="41.06389881180281" lon="14.64408826812053"><ele>306.3333333333333</ele><time>2026-05-02T14:20:12.001Z</time></trkpt><trkpt lat="41.06386752765222" lon="14.644006424695332"><ele>305.16666666666663</ele><time>2026-05-02T14:20:13.001Z</time></trkpt><trkpt lat="41.063832939440665" lon="14.6439188262225"><ele>304.0</ele><time>2026-05-02T14:20:14.001Z</time></trkpt><trkpt lat="41.063787507775764" lon="14.643836769303695"><ele>304.0</ele><time>2026-05-02T14:20:15.001Z</time></trkpt><trkpt lat="41.06376803089621" lon="14.643744075799587"><ele>304.0</ele><time>2026-05-02T14:20:16.001Z</time></trkpt><trkpt lat="41.06372800450143" lon="14.64363912455843"><ele>304.0</ele><time>2026-05-02T14:20:17.001Z</time></trkpt><trkpt lat="41.0636792157479" lon="14.643558863103715"><ele>304.0</ele><time>2026-05-02T14:20:18.001Z</time></trkpt><trkpt lat="41.063645329687354" lon="14.643473698949485"><ele>304.0</ele><time>2026-05-02T14:20:19.001Z</time></trkpt><trkpt lat="41.063612579710316" lon="14.643389914591133"><ele>304.0</ele><time>2026-05-02T14:20:20.001Z</time></trkpt><trkpt lat="41.06359076804639" lon="14.64328979831361"><ele>303.8</ele><time>2026-05-02T14:20:21.001Z</time></trkpt><trkpt lat="41.06354429938036" lon="14.643195124972388"><ele>303.59999999999997</ele><time>2026-05-02T14:20:22.001Z</time></trkpt><trkpt lat="41.0634978304643" lon="14.64304706341941"><ele>303.4</ele><time>2026-05-02T14:20:24.001Z</time></trkpt><trkpt lat="41.063482335966306" lon="14.64291291701269"><ele>303.2</ele><time>2026-05-02T14:20:26.001Z</time></trkpt><trkpt lat="41.063453560799985" lon="14.642783701276464"><ele>303.0</ele><time>2026-05-02T14:20:28.001Z</time></trkpt><trkpt lat="41.063417037135316" lon="14.642696103887976"><ele>302.6666666666667</ele><time>2026-05-02T14:20:30.001Z</time></trkpt><trkpt lat="41.063387325299296" lon="14.642608145902521"><ele>302.3333333333333</ele><time>2026-05-02T14:20:32.001Z</time></trkpt><trkpt lat="41.063348124662404" lon="14.642513459564244"><ele>302.0</ele><time>2026-05-02T14:20:34.001Z</time></trkpt><trkpt lat="41.063306735164424" lon="14.642422674073234"><ele>301.66666666666663</ele><time>2026-05-02T14:20:36.001Z</time></trkpt><trkpt lat="41.063261124756394" lon="14.642355483600223"><ele>301.3333333333333</ele><time>2026-05-02T14:20:38.001Z</time></trkpt><trkpt lat="41.06321626168988" lon="14.64227891250022"><ele>301.0</ele><time>2026-05-02T14:20:40.001Z</time></trkpt><trkpt lat="41.06318957024924" lon="14.642178614238691"><ele>300.6</ele><time>2026-05-02T14:20:42.001Z</time></trkpt><trkpt lat="41.0631347567599" lon="14.642071782216087"><ele>300.20000000000005</ele><time>2026-05-02T14:20:45.001Z</time></trkpt><trkpt lat="41.06302408460214" lon="14.642050164754927"><ele>299.79999999999995</ele><time>2026-05-02T14:20:48.001Z</time></trkpt><trkpt lat="41.06294661319044" lon="14.642045996721746"><ele>299.4</ele><time>2026-05-02T14:20:50.001Z</time></trkpt><trkpt lat="41.06285454708584" lon="14.642094944303164"><ele>299.0</ele><time>2026-05-02T14:20:52.001Z</time></trkpt><trkpt lat="41.0627710088571" lon="14.642082456644701"><ele>299.0</ele><time>2026-05-02T14:20:54.001Z</time></trkpt><trkpt lat="41.06268555955288" lon="14.64210917347692"><ele>299.0</ele><time>2026-05-02T14:20:56.001Z</time></trkpt><trkpt lat="41.0626071088757" lon="14.642115782409142"><ele>299.0</ele><time>2026-05-02T14:20:58.001Z</time></trkpt><trkpt lat="41.06252716784928" lon="14.642121135163356"><ele>299.0</ele><time>2026-05-02T14:21:00.001Z</time></trkpt><trkpt lat="41.06246017338482" lon="14.642110188057053"><ele>299.0</ele><time>2026-05-02T14:21:06.002Z</time></trkpt><trkpt lat="41.062397320422335" lon="14.642124058013703"><ele>299.0</ele><time>2026-05-02T14:21:08.002Z</time></trkpt><trkpt lat="41.062324128255796" lon="14.642168254727558"><ele>298.6666666666667</ele><time>2026-05-02T14:21:18.002Z</time></trkpt><trkpt lat="41.062257663194956" lon="14.642186580534265"><ele>298.33333333333337</ele><time>2026-05-02T14:21:20.002Z</time></trkpt><trkpt lat="41.0621686272594" lon="14.642211068210969"><ele>298.0</ele><time>2026-05-02T14:21:23.002Z</time></trkpt><trkpt lat="41.06208189820184" lon="14.642199597304351"><ele>297.6666666666667</ele><time>2026-05-02T14:21:25.002Z</time></trkpt><trkpt lat="41.061980876282746" lon="14.642198064706976"><ele>297.3333333333333</ele><time>2026-05-02T14:21:27.002Z</time></trkpt><trkpt lat="41.061891941757" lon="14.642195838562978"><ele>297.0</ele><time>2026-05-02T14:21:29.002Z</time></trkpt><trkpt lat="41.06179921028326" lon="14.642192376466804"><ele>297.0</ele><time>2026-05-02T14:21:31.002Z</time></trkpt><trkpt lat="41.06173102503622" lon="14.64218944024268"><ele>297.0</ele><time>2026-05-02T14:21:34.002Z</time></trkpt><trkpt lat="41.061977604101976" lon="14.64149850794586"><ele>295.0</ele><time>2026-05-02T14:21:51Z</time></trkpt><trkpt lat="41.062263769789446" lon="14.640717824778676"><ele>295.0</ele><time>2026-05-02T14:22:05Z</time></trkpt><trkpt lat="41.06231980061011" lon="14.640608817820315"><ele>295.0</ele><time>2026-05-02T14:22:07Z</time></trkpt><trkpt lat="41.06237485061497" lon="14.64049887718726"><ele>295.0</ele><time>2026-05-02T14:22:08Z</time></trkpt><trkpt lat="41.062421523394725" lon="14.64041797674086"><ele>295.0</ele><time>2026-05-02T14:22:09Z</time></trkpt><trkpt lat="41.0624584264862" lon="14.640343560654875"><ele>295.0</ele><time>2026-05-02T14:22:10Z</time></trkpt><trkpt lat="41.06249531241032" lon="14.640267047102176"><ele>295.0</ele><time>2026-05-02T14:22:11Z</time></trkpt><trkpt lat="41.062530822615415" lon="14.640183301351895"><ele>295.14285714285717</ele><time>2026-05-02T14:22:12Z</time></trkpt><trkpt lat="41.06257081551305" lon="14.640098803357477"><ele>295.2857142857143</ele><time>2026-05-02T14:22:13Z</time></trkpt><trkpt lat="41.062605440229596" lon="14.640011860626048"><ele>295.42857142857144</ele><time>2026-05-02T14:22:14Z</time></trkpt><trkpt lat="41.06264084316575" lon="14.639922074372986"><ele>295.57142857142856</ele><time>2026-05-02T14:22:15Z</time></trkpt><trkpt lat="41.06267359045982" lon="14.639842280929258"><ele>295.7142857142857</ele><time>2026-05-02T14:22:16Z</time></trkpt><trkpt lat="41.06270882785007" lon="14.639733913443797"><ele>295.8571428571429</ele><time>2026-05-02T14:22:18.001Z</time></trkpt><trkpt lat="41.06274261507758" lon="14.639661815424821"><ele>296.0</ele><time>2026-05-02T14:22:23.001Z</time></trkpt><trkpt lat="41.062764685594246" lon="14.639582518222431"><ele>296.0</ele><time>2026-05-02T14:22:24.001Z</time></trkpt><trkpt lat="41.06279622559707" lon="14.639492047566092"><ele>296.0</ele><time>2026-05-02T14:22:25.001Z</time></trkpt><trkpt lat="41.06283789287258" lon="14.639374555960334"><ele>296.0</ele><time>2026-05-02T14:22:26.001Z</time></trkpt><trkpt lat="41.06287338428889" lon="14.639267370055627"><ele>296.0</ele><time>2026-05-02T14:22:27.001Z</time></trkpt><trkpt lat="41.06290792225026" lon="14.63916431648861"><ele>296.0</ele><time>2026-05-02T14:22:28.001Z</time></trkpt><trkpt lat="41.06294001114583" lon="14.639078684735038"><ele>296.0</ele><time>2026-05-02T14:22:29.001Z</time></trkpt><trkpt lat="41.06297353518338" lon="14.639001831152484"><ele>296.0</ele><time>2026-05-02T14:22:30.001Z</time></trkpt><trkpt lat="41.06301974231274" lon="14.638880739620467"><ele>296.0</ele><time>2026-05-02T14:22:32.001Z</time></trkpt><trkpt lat="41.06307616792995" lon="14.63873974574922"><ele>296.0</ele><time>2026-05-02T14:22:34.001Z</time></trkpt><trkpt lat="41.06313532931051" lon="14.638600285414425"><ele>296.0</ele><time>2026-05-02T14:22:36.001Z</time></trkpt><trkpt lat="41.063183240436025" lon="14.6384564377919"><ele>296.0</ele><time>2026-05-02T14:22:38.001Z</time></trkpt><trkpt lat="41.063223307379616" lon="14.638298381030882"><ele>296.0</ele><time>2026-05-02T14:22:40.001Z</time></trkpt><trkpt lat="41.063264542714194" lon="14.638147161412562"><ele>296.0</ele><time>2026-05-02T14:22:42.001Z</time></trkpt><trkpt lat="41.06329747701781" lon="14.638027612266152"><ele>296.0</ele><time>2026-05-02T14:22:44.001Z</time></trkpt><trkpt lat="41.063332813708165" lon="14.637905066263906"><ele>296.0</ele><time>2026-05-02T14:22:46.001Z</time></trkpt><trkpt lat="41.063321967641315" lon="14.637775238693537"><ele>295.5</ele><time>2026-05-02T14:22:48.001Z</time></trkpt><trkpt lat="41.06327725012681" lon="14.637657559967197"><ele>295.0</ele><time>2026-05-02T14:22:50.001Z</time></trkpt><trkpt lat="41.063199286503234" lon="14.637549099369467"><ele>294.5</ele><time>2026-05-02T14:22:52.001Z</time></trkpt><trkpt lat="41.06314658782185" lon="14.637481628931607"><ele>294.0</ele><time>2026-05-02T14:22:53.001Z</time></trkpt><trkpt lat="41.06311701208797" lon="14.63740200369115"><ele>293.5</ele><time>2026-05-02T14:22:54.001Z</time></trkpt><trkpt lat="41.06306301337348" lon="14.63732254635514"><ele>293.0</ele><time>2026-05-02T14:22:55.001Z</time></trkpt><trkpt lat="41.063006360749114" lon="14.637240631367474"><ele>293.0</ele><time>2026-05-02T14:22:56.001Z</time></trkpt><trkpt lat="41.06294901003955" lon="14.637158732771724"><ele>293.0</ele><time>2026-05-02T14:22:57.001Z</time></trkpt><trkpt lat="41.06289371116965" lon="14.637079764219484"><ele>293.0</ele><time>2026-05-02T14:22:58.001Z</time></trkpt><trkpt lat="41.06282399433179" lon="14.637012059168276"><ele>293.0</ele><time>2026-05-02T14:22:59.001Z</time></trkpt><trkpt lat="41.062769713829056" lon="14.636924896516328"><ele>293.0</ele><time>2026-05-02T14:23:00.001Z</time></trkpt><trkpt lat="41.06271350459646" lon="14.636848128985628"><ele>293.0</ele><time>2026-05-02T14:23:01.001Z</time></trkpt><trkpt lat="41.06265936292794" lon="14.636760926418892"><ele>292.8</ele><time>2026-05-02T14:23:02.001Z</time></trkpt><trkpt lat="41.06260925873207" lon="14.6366740850187"><ele>292.6</ele><time>2026-05-02T14:23:03.001Z</time></trkpt><trkpt lat="41.0625425942728" lon="14.636575065823497"><ele>292.4</ele><time>2026-05-02T14:23:05.001Z</time></trkpt><trkpt lat="41.06245300030469" lon="14.636468869884945"><ele>292.2</ele><time>2026-05-02T14:23:07.001Z</time></trkpt><trkpt lat="41.06239353820304" lon="14.636357663440856"><ele>292.0</ele><time>2026-05-02T14:23:08.001Z</time></trkpt><trkpt lat="41.06232191808153" lon="14.636236403248306"><ele>291.5</ele><time>2026-05-02T14:23:09.001Z</time></trkpt><trkpt lat="41.06224533137895" lon="14.636120257690717"><ele>291.0</ele><time>2026-05-02T14:23:10.001Z</time></trkpt><trkpt lat="41.062155874889626" lon="14.635986778786492"><ele>290.5</ele><time>2026-05-02T14:23:11.001Z</time></trkpt><trkpt lat="41.06205086559896" lon="14.635889207702602"><ele>290.0</ele><time>2026-05-02T14:23:12.001Z</time></trkpt><trkpt lat="41.061965575553515" lon="14.635765936662189"><ele>290.0</ele><time>2026-05-02T14:23:13.001Z</time></trkpt><trkpt lat="41.06187551234146" lon="14.635647138844051"><ele>290.0</ele><time>2026-05-02T14:23:14.002Z</time></trkpt><trkpt lat="41.06177946978637" lon="14.635521682599467"><ele>290.0</ele><time>2026-05-02T14:23:15.002Z</time></trkpt><trkpt lat="41.061711251140935" lon="14.635358637386968"><ele>290.0</ele><time>2026-05-02T14:23:16.002Z</time></trkpt><trkpt lat="41.06160915964467" lon="14.635219390409585"><ele>289.5</ele><time>2026-05-02T14:23:17.002Z</time></trkpt><trkpt lat="41.06150787807517" lon="14.63507931351673"><ele>289.0</ele><time>2026-05-02T14:23:18.002Z</time></trkpt><trkpt lat="41.06140943095106" lon="14.634934383653766"><ele>288.5</ele><time>2026-05-02T14:23:19.002Z</time></trkpt><trkpt lat="41.06131951944673" lon="14.634800359901773"><ele>288.0</ele><time>2026-05-02T14:23:20.002Z</time></trkpt><trkpt lat="41.06123546977374" lon="14.63467794252845"><ele>288.0</ele><time>2026-05-02T14:23:21.002Z</time></trkpt><trkpt lat="41.06115153926407" lon="14.634565588358047"><ele>288.0</ele><time>2026-05-02T14:23:22.002Z</time></trkpt><trkpt lat="41.06108100331654" lon="14.634463380043405"><ele>288.0</ele><time>2026-05-02T14:23:23.002Z</time></trkpt><trkpt lat="41.0610139792637" lon="14.634346204116632"><ele>288.0</ele><time>2026-05-02T14:23:24.002Z</time></trkpt><trkpt lat="41.06096031783434" lon="14.634253146778846"><ele>288.0</ele><time>2026-05-02T14:23:25.002Z</time></trkpt><trkpt lat="41.06090417862962" lon="14.634173038381256"><ele>288.0</ele><time>2026-05-02T14:23:26.002Z</time></trkpt><trkpt lat="41.06086059697706" lon="14.634105568998905"><ele>288.0</ele><time>2026-05-02T14:23:27.002Z</time></trkpt><trkpt lat="41.06082008115048" lon="14.634034530838838"><ele>288.0</ele><time>2026-05-02T14:23:28.002Z</time></trkpt><trkpt lat="41.06072672272827" lon="14.63388881757634"><ele>288.0</ele><time>2026-05-02T14:23:30.002Z</time></trkpt><trkpt lat="41.060625236461924" lon="14.633797879725947"><ele>288.0</ele><time>2026-05-02T14:23:31.002Z</time></trkpt><trkpt lat="41.06052666118388" lon="14.63366855273204"><ele>287.0</ele><time>2026-05-02T14:23:32.002Z</time></trkpt><trkpt lat="41.06043893134424" lon="14.633542008991705"><ele>286.0</ele><time>2026-05-02T14:23:33.002Z</time></trkpt><trkpt lat="41.06035514772961" lon="14.633425763152195"><ele>285.0</ele><time>2026-05-02T14:23:34.002Z</time></trkpt><trkpt lat="41.060278838824054" lon="14.63331056851676"><ele>284.0</ele><time>2026-05-02T14:23:35.002Z</time></trkpt><trkpt lat="41.0601855428667" lon="14.633222712268285"><ele>284.0</ele><time>2026-05-02T14:23:36.002Z</time></trkpt><trkpt lat="41.06010867620764" lon="14.633117673298198"><ele>284.0</ele><time>2026-05-02T14:23:37.002Z</time></trkpt><trkpt lat="41.06003282199247" lon="14.633017908914187"><ele>284.0</ele><time>2026-05-02T14:23:38.002Z</time></trkpt><trkpt lat="41.05996799305471" lon="14.63291660026341"><ele>284.0</ele><time>2026-05-02T14:23:39.002Z</time></trkpt><trkpt lat="41.059895533066026" lon="14.632804483621976"><ele>284.0</ele><time>2026-05-02T14:23:40.002Z</time></trkpt><trkpt lat="41.05981849353649" lon="14.632712744973752"><ele>284.2</ele><time>2026-05-02T14:23:41.002Z</time></trkpt><trkpt lat="41.05974079334342" lon="14.632618229448662"><ele>284.4</ele><time>2026-05-02T14:23:42.002Z</time></trkpt><trkpt lat="41.05966533734463" lon="14.632503999333187"><ele>284.6</ele><time>2026-05-02T14:23:43.002Z</time></trkpt><trkpt lat="41.059585179686984" lon="14.632396527886945"><ele>284.8</ele><time>2026-05-02T14:23:44.002Z</time></trkpt><trkpt lat="41.059515478335605" lon="14.632289356603453"><ele>285.0</ele><time>2026-05-02T14:23:45.002Z</time></trkpt><trkpt lat="41.059439400871376" lon="14.63217299898652"><ele>285.0</ele><time>2026-05-02T14:23:46.002Z</time></trkpt><trkpt lat="41.05937298006637" lon="14.6320899442392"><ele>285.0</ele><time>2026-05-02T14:23:47Z</time></trkpt><trkpt lat="41.0592993505253" lon="14.631989928371945"><ele>285.0</ele><time>2026-05-02T14:23:48Z</time></trkpt><trkpt lat="41.05921489128422" lon="14.631882891591486"><ele>285.0</ele><time>2026-05-02T14:23:49Z</time></trkpt><trkpt lat="41.05912180443993" lon="14.63176206622289"><ele>285.0</ele><time>2026-05-02T14:23:50Z</time></trkpt><trkpt lat="41.059022782887745" lon="14.631620309204896"><ele>284.6666666666667</ele><time>2026-05-02T14:23:51Z</time></trkpt><trkpt lat="41.05891290278724" lon="14.631456335984847"><ele>284.33333333333337</ele><time>2026-05-02T14:23:52Z</time></trkpt><trkpt lat="41.05880316486612" lon="14.631290241572666"><ele>284.0</ele><time>2026-05-02T14:23:53Z</time></trkpt><trkpt lat="41.05869753983812" lon="14.631118188183324"><ele>284.0</ele><time>2026-05-02T14:23:54Z</time></trkpt><trkpt lat="41.05858815699299" lon="14.63095331397068"><ele>284.0</ele><time>2026-05-02T14:23:55Z</time></trkpt><trkpt lat="41.05847680914418" lon="14.630798090574297"><ele>284.0</ele><time>2026-05-02T14:23:56Z</time></trkpt><trkpt lat="41.058375330048584" lon="14.630654061689523"><ele>283.75</ele><time>2026-05-02T14:23:57Z</time></trkpt><trkpt lat="41.05827514385745" lon="14.630524262069889"><ele>283.5</ele><time>2026-05-02T14:23:58Z</time></trkpt><trkpt lat="41.05820093044435" lon="14.630374756287692"><ele>283.25</ele><time>2026-05-02T14:23:59Z</time></trkpt><trkpt lat="41.05810045461472" lon="14.630259424916867"><ele>283.0</ele><time>2026-05-02T14:24:00Z</time></trkpt><trkpt lat="41.058009585715425" lon="14.630121446182372"><ele>283.0</ele><time>2026-05-02T14:24:01Z</time></trkpt><trkpt lat="41.057925580056484" lon="14.629968027442825"><ele>283.0</ele><time>2026-05-02T14:24:02Z</time></trkpt><trkpt lat="41.05784689570177" lon="14.629851956755925"><ele>283.0</ele><time>2026-05-02T14:24:03Z</time></trkpt><trkpt lat="41.05777270731228" lon="14.629742013841497"><ele>283.0</ele><time>2026-05-02T14:24:04Z</time></trkpt><trkpt lat="41.057707934753346" lon="14.629627489638633"><ele>283.0</ele><time>2026-05-02T14:24:05Z</time></trkpt><trkpt lat="41.057653232376225" lon="14.6295102118213"><ele>283.0</ele><time>2026-05-02T14:24:06Z</time></trkpt><trkpt lat="41.05759311520187" lon="14.629394870870215"><ele>283.0</ele><time>2026-05-02T14:24:07Z</time></trkpt><trkpt lat="41.05752039145833" lon="14.629267986567136"><ele>283.0</ele><time>2026-05-02T14:24:08Z</time></trkpt><trkpt lat="41.05745134532346" lon="14.629141800884286"><ele>283.0</ele><time>2026-05-02T14:24:09Z</time></trkpt><trkpt lat="41.05738539802933" lon="14.628992126228288"><ele>282.5</ele><time>2026-05-02T14:24:10Z</time></trkpt><trkpt lat="41.05732270732616" lon="14.628824000481192"><ele>282.0</ele><time>2026-05-02T14:24:11Z</time></trkpt><trkpt lat="41.05726345509929" lon="14.628646118633734"><ele>281.5</ele><time>2026-05-02T14:24:12Z</time></trkpt><trkpt lat="41.0572169356538" lon="14.628467547393663"><ele>281.0</ele><time>2026-05-02T14:24:13Z</time></trkpt><trkpt lat="41.057174478457895" lon="14.62829797024322"><ele>281.0</ele><time>2026-05-02T14:24:14Z</time></trkpt><trkpt lat="41.057118843086656" lon="14.628106119849841"><ele>281.0</ele><time>2026-05-02T14:24:15Z</time></trkpt><trkpt lat="41.05706475674615" lon="14.627918025360298"><ele>281.0</ele><time>2026-05-02T14:24:16Z</time></trkpt><trkpt lat="41.05700511530327" lon="14.627711810395"><ele>281.33333333333337</ele><time>2026-05-02T14:24:17Z</time></trkpt><trkpt lat="41.05695108722315" lon="14.62748312906898"><ele>281.6666666666667</ele><time>2026-05-02T14:24:18Z</time></trkpt><trkpt lat="41.056892308009125" lon="14.627271219980905"><ele>282.0</ele><time>2026-05-02T14:24:19Z</time></trkpt><trkpt lat="41.056824515457" lon="14.627059578000383"><ele>281.6666666666667</ele><time>2026-05-02T14:24:20Z</time></trkpt><trkpt lat="41.05676204140817" lon="14.626831488375451"><ele>281.33333333333337</ele><time>2026-05-02T14:24:21Z</time></trkpt><trkpt lat="41.05670219255739" lon="14.626600345087677"><ele>281.0</ele><time>2026-05-02T14:24:22Z</time></trkpt><trkpt lat="41.05663865475104" lon="14.626376806574154"><ele>280.6666666666667</ele><time>2026-05-02T14:24:23Z</time></trkpt><trkpt lat="41.056577996228036" lon="14.626148410624056"><ele>280.3333333333333</ele><time>2026-05-02T14:24:24Z</time></trkpt><trkpt lat="41.05651945972428" lon="14.625922554678063"><ele>280.0</ele><time>2026-05-02T14:24:25.001Z</time></trkpt><trkpt lat="41.05646656794091" lon="14.625686812646807"><ele>280.0</ele><time>2026-05-02T14:24:26.001Z</time></trkpt><trkpt lat="41.05640703758315" lon="14.625451019126519"><ele>280.0</ele><time>2026-05-02T14:24:27.001Z</time></trkpt><trkpt lat="41.05635826279333" lon="14.625209971483676"><ele>280.0</ele><time>2026-05-02T14:24:28.001Z</time></trkpt><trkpt lat="41.05630951632102" lon="14.625015339774759"><ele>280.0</ele><time>2026-05-02T14:24:29.001Z</time></trkpt><trkpt lat="41.056260212823666" lon="14.624776447531147"><ele>280.0</ele><time>2026-05-02T14:24:30.001Z</time></trkpt><trkpt lat="41.05620332095944" lon="14.624541126644145"><ele>280.0</ele><time>2026-05-02T14:24:31.001Z</time></trkpt><trkpt lat="41.05615700764914" lon="14.624304821235006"><ele>279.3333333333333</ele><time>2026-05-02T14:24:32.001Z</time></trkpt><trkpt lat="41.05610165195786" lon="14.624099281840708"><ele>278.6666666666667</ele><time>2026-05-02T14:24:33.001Z</time></trkpt><trkpt lat="41.05604281852257" lon="14.623885197027363"><ele>278.0</ele><time>2026-05-02T14:24:34.001Z</time></trkpt><trkpt lat="41.055989753748634" lon="14.623661474486926"><ele>277.6666666666667</ele><time>2026-05-02T14:24:35.001Z</time></trkpt><trkpt lat="41.05593032247485" lon="14.62345580964978"><ele>277.3333333333333</ele><time>2026-05-02T14:24:36.001Z</time></trkpt><trkpt lat="41.05588134044039" lon="14.623236615972198"><ele>277.0</ele><time>2026-05-02T14:24:37.001Z</time></trkpt><trkpt lat="41.05583429586023" lon="14.623031513081795"><ele>277.0</ele><time>2026-05-02T14:24:38.001Z</time></trkpt><trkpt lat="41.05577249553406" lon="14.62285472661648"><ele>277.0</ele><time>2026-05-02T14:24:39.001Z</time></trkpt><trkpt lat="41.055725792359624" lon="14.622667643889999"><ele>277.0</ele><time>2026-05-02T14:24:40.001Z</time></trkpt><trkpt lat="41.055690174562464" lon="14.622494900348823"><ele>277.0</ele><time>2026-05-02T14:24:41.001Z</time></trkpt><trkpt lat="41.05564292943552" lon="14.622315686812435"><ele>277.0</ele><time>2026-05-02T14:24:42.001Z</time></trkpt><trkpt lat="41.055592561107936" lon="14.622169269661908"><ele>277.0</ele><time>2026-05-02T14:24:43.001Z</time></trkpt><trkpt lat="41.055548831362415" lon="14.622025235970542"><ele>277.0</ele><time>2026-05-02T14:24:44.001Z</time></trkpt><trkpt lat="41.05550298689528" lon="14.621865249930098"><ele>277.0</ele><time>2026-05-02T14:24:45.001Z</time></trkpt><trkpt lat="41.055453629360144" lon="14.621733772985253"><ele>276.66666666666663</ele><time>2026-05-02T14:24:46.001Z</time></trkpt><trkpt lat="41.05540061736319" lon="14.621608034195464"><ele>276.3333333333333</ele><time>2026-05-02T14:24:47.001Z</time></trkpt><trkpt lat="41.05535013947138" lon="14.621495385153867"><ele>276.0</ele><time>2026-05-02T14:24:48.001Z</time></trkpt><trkpt lat="41.055304109768144" lon="14.621409438146406"><ele>275.6666666666667</ele><time>2026-05-02T14:24:49.001Z</time></trkpt><trkpt lat="41.05526662356169" lon="14.621324548831248"><ele>275.33333333333337</ele><time>2026-05-02T14:24:50.001Z</time></trkpt><trkpt lat="41.05523291207446" lon="14.621232903143147"><ele>275.0</ele><time>2026-05-02T14:24:51.001Z</time></trkpt><trkpt lat="41.055205656979815" lon="14.621132876094242"><ele>275.0</ele><time>2026-05-02T14:24:52.001Z</time></trkpt><trkpt lat="41.05518675678783" lon="14.621023627371919"><ele>275.0</ele><time>2026-05-02T14:24:53.001Z</time></trkpt><trkpt lat="41.055230179022985" lon="14.620862383131758"><ele>275.0</ele><time>2026-05-02T14:24:54.001Z</time></trkpt><trkpt lat="41.05519341873941" lon="14.620728966235273"><ele>275.0</ele><time>2026-05-02T14:24:55.001Z</time></trkpt><trkpt lat="41.055183433586535" lon="14.620610277647302"><ele>275.0</ele><time>2026-05-02T14:24:56.001Z</time></trkpt><trkpt lat="41.05511460601949" lon="14.62047115684499"><ele>275.0</ele><time>2026-05-02T14:24:57.001Z</time></trkpt><trkpt lat="41.05509114489953" lon="14.620316869537213"><ele>275.0</ele><time>2026-05-02T14:24:58.001Z</time></trkpt><trkpt lat="41.05506080938384" lon="14.620155028035342"><ele>275.0</ele><time>2026-05-02T14:24:59.001Z</time></trkpt><trkpt lat="41.05501842647391" lon="14.620000424382678"><ele>275.0</ele><time>2026-05-02T14:25:00.001Z</time></trkpt><trkpt lat="41.05497918363473" lon="14.619839219981698"><ele>275.0</ele><time>2026-05-02T14:25:01.001Z</time></trkpt><trkpt lat="41.05494113123846" lon="14.619675170588446"><ele>275.0</ele><time>2026-05-02T14:25:02.001Z</time></trkpt><trkpt lat="41.05491021985297" lon="14.61950786810765"><ele>275.0</ele><time>2026-05-02T14:25:03.001Z</time></trkpt><trkpt lat="41.05487632215806" lon="14.619339783647096"><ele>275.0</ele><time>2026-05-02T14:25:04.001Z</time></trkpt><trkpt lat="41.05484149808037" lon="14.619170855021725"><ele>274.5</ele><time>2026-05-02T14:25:05.001Z</time></trkpt><trkpt lat="41.05480401202563" lon="14.619012222935112"><ele>274.0</ele><time>2026-05-02T14:25:06.001Z</time></trkpt><trkpt lat="41.0547486137134" lon="14.618827704453302"><ele>273.5</ele><time>2026-05-02T14:25:07.001Z</time></trkpt><trkpt lat="41.05468604242613" lon="14.61862910881021"><ele>273.0</ele><time>2026-05-02T14:25:08.001Z</time></trkpt><trkpt lat="41.05464214917335" lon="14.618463275019272"><ele>273.0</ele><time>2026-05-02T14:25:09.001Z</time></trkpt><trkpt lat="41.05459045260161" lon="14.618299376911725"><ele>273.0</ele><time>2026-05-02T14:25:10.001Z</time></trkpt><trkpt lat="41.05454932150002" lon="14.618122806879297"><ele>273.0</ele><time>2026-05-02T14:25:11.001Z</time></trkpt><trkpt lat="41.0545062917831" lon="14.617966097698375"><ele>273.0</ele><time>2026-05-02T14:25:12.001Z</time></trkpt><trkpt lat="41.05445848777838" lon="14.617807330716804"><ele>272.75</ele><time>2026-05-02T14:25:13.001Z</time></trkpt><trkpt lat="41.05441621493306" lon="14.617643903744028"><ele>272.5</ele><time>2026-05-02T14:25:14.001Z</time></trkpt><trkpt lat="41.05437515304834" lon="14.617479290651403"><ele>272.25</ele><time>2026-05-02T14:25:15.001Z</time></trkpt><trkpt lat="41.05433368143729" lon="14.61731251514136"><ele>272.0</ele><time>2026-05-02T14:25:16.001Z</time></trkpt><trkpt lat="41.05428212237003" lon="14.6171447192036"><ele>272.0</ele><time>2026-05-02T14:25:17.001Z</time></trkpt><trkpt lat="41.05423416629955" lon="14.616992227109153"><ele>272.0</ele><time>2026-05-02T14:25:18.001Z</time></trkpt><trkpt lat="41.05419590195836" lon="14.616826380789563"><ele>272.0</ele><time>2026-05-02T14:25:19.001Z</time></trkpt><trkpt lat="41.054148181634226" lon="14.616659863039326"><ele>272.0</ele><time>2026-05-02T14:25:20.001Z</time></trkpt><trkpt lat="41.05410232370318" lon="14.61650100269788"><ele>272.0</ele><time>2026-05-02T14:25:21.001Z</time></trkpt><trkpt lat="41.05406131457906" lon="14.616311688464114"><ele>272.0</ele><time>2026-05-02T14:25:22.002Z</time></trkpt><trkpt lat="41.054019623926266" lon="14.61613595996841"><ele>272.0</ele><time>2026-05-02T14:25:23.002Z</time></trkpt><trkpt lat="41.05397559404966" lon="14.615973317172113"><ele>272.0</ele><time>2026-05-02T14:25:24.002Z</time></trkpt><trkpt lat="41.05392618999152" lon="14.615812057843096"><ele>272.0</ele><time>2026-05-02T14:25:25.002Z</time></trkpt><trkpt lat="41.053880428210626" lon="14.615631940724734"><ele>272.0</ele><time>2026-05-02T14:25:26.002Z</time></trkpt><trkpt lat="41.0538321062427" lon="14.615452978604521"><ele>272.0</ele><time>2026-05-02T14:25:27.002Z</time></trkpt><trkpt lat="41.05378529855145" lon="14.615266675082015"><ele>272.0</ele><time>2026-05-02T14:25:28.002Z</time></trkpt><trkpt lat="41.05374324255664" lon="14.615091299729231"><ele>271.75</ele><time>2026-05-02T14:25:29.002Z</time></trkpt><trkpt lat="41.05369800604271" lon="14.614913342154576"><ele>271.5</ele><time>2026-05-02T14:25:30.002Z</time></trkpt><trkpt lat="41.05364976685457" lon="14.614729983831063"><ele>271.25</ele><time>2026-05-02T14:25:31.002Z</time></trkpt><trkpt lat="41.053607211902985" lon="14.614544518192734"><ele>271.0</ele><time>2026-05-02T14:25:32.002Z</time></trkpt><trkpt lat="41.053556376773436" lon="14.614363783852442"><ele>271.0</ele><time>2026-05-02T14:25:33.002Z</time></trkpt><trkpt lat="41.05350634615125" lon="14.614178121807685"><ele>271.0</ele><time>2026-05-02T14:25:34.002Z</time></trkpt><trkpt lat="41.05345256491067" lon="14.613999544863754"><ele>271.0</ele><time>2026-05-02T14:25:35.002Z</time></trkpt><trkpt lat="41.05340309520062" lon="14.613822611235499"><ele>271.0</ele><time>2026-05-02T14:25:36.002Z</time></trkpt><trkpt lat="41.053349994170354" lon="14.613639250834071"><ele>271.25</ele><time>2026-05-02T14:25:37.002Z</time></trkpt><trkpt lat="41.05331473777382" lon="14.613455225469425"><ele>271.5</ele><time>2026-05-02T14:25:38.002Z</time></trkpt><trkpt lat="41.05326642109592" lon="14.613271376692374"><ele>271.75</ele><time>2026-05-02T14:25:39.002Z</time></trkpt><trkpt lat="41.05321952796835" lon="14.613093810206232"><ele>272.0</ele><time>2026-05-02T14:25:40.002Z</time></trkpt><trkpt lat="41.05317469642329" lon="14.612918285968382"><ele>271.75</ele><time>2026-05-02T14:25:41.002Z</time></trkpt><trkpt lat="41.05313199423138" lon="14.612737208005909"><ele>271.5</ele><time>2026-05-02T14:25:42.002Z</time></trkpt><trkpt lat="41.05309430863663" lon="14.612564905625513"><ele>271.25</ele><time>2026-05-02T14:25:43.002Z</time></trkpt><trkpt lat="41.05305299343117" lon="14.612380612828796"><ele>271.0</ele><time>2026-05-02T14:25:44.002Z</time></trkpt><trkpt lat="41.05300455713418" lon="14.612199827604888"><ele>271.0</ele><time>2026-05-02T14:25:45.002Z</time></trkpt><trkpt lat="41.05295826909463" lon="14.612020234982126"><ele>271.0</ele><time>2026-05-02T14:25:46.002Z</time></trkpt><trkpt lat="41.05291089099638" lon="14.61183511824305"><ele>271.0</ele><time>2026-05-02T14:25:47.002Z</time></trkpt><trkpt lat="41.052867164664576" lon="14.611649784356436"><ele>271.0</ele><time>2026-05-02T14:25:48.002Z</time></trkpt><trkpt lat="41.05281991504081" lon="14.611470504499827"><ele>271.0</ele><time>2026-05-02T14:25:49.002Z</time></trkpt><trkpt lat="41.05277851504463" lon="14.611288433609602"><ele>271.0</ele><time>2026-05-02T14:25:50.002Z</time></trkpt><trkpt lat="41.05272815084916" lon="14.611103999178665"><ele>271.0</ele><time>2026-05-02T14:25:51.002Z</time></trkpt><trkpt lat="41.05267990022143" lon="14.610908552491527"><ele>271.0</ele><time>2026-05-02T14:25:52.002Z</time></trkpt><trkpt lat="41.052630431136855" lon="14.610725904572504"><ele>270.5</ele><time>2026-05-02T14:25:53Z</time></trkpt><trkpt lat="41.05258365292382" lon="14.610543557106595"><ele>270.0</ele><time>2026-05-02T14:25:54Z</time></trkpt><trkpt lat="41.05253663163875" lon="14.610357277986102"><ele>269.5</ele><time>2026-05-02T14:25:55Z</time></trkpt><trkpt lat="41.05249240342636" lon="14.610171200354868"><ele>269.0</ele><time>2026-05-02T14:25:56Z</time></trkpt><trkpt lat="41.052443684313445" lon="14.609982291599213"><ele>269.0</ele><time>2026-05-02T14:25:57Z</time></trkpt><trkpt lat="41.05239726929527" lon="14.609794584692729"><ele>269.0</ele><time>2026-05-02T14:25:58Z</time></trkpt><trkpt lat="41.052348412011526" lon="14.609607519074224"><ele>269.0</ele><time>2026-05-02T14:25:59Z</time></trkpt><trkpt lat="41.052302549075904" lon="14.609411863728518"><ele>268.6666666666667</ele><time>2026-05-02T14:26:00Z</time></trkpt><trkpt lat="41.05225631896696" lon="14.609216241572007"><ele>268.3333333333333</ele><time>2026-05-02T14:26:01Z</time></trkpt><trkpt lat="41.05220201154783" lon="14.609027674852273"><ele>268.0</ele><time>2026-05-02T14:26:02Z</time></trkpt><trkpt lat="41.05215335073226" lon="14.608836999574978"><ele>267.75</ele><time>2026-05-02T14:26:03Z</time></trkpt><trkpt lat="41.05210435812933" lon="14.608648699721774"><ele>267.5</ele><time>2026-05-02T14:26:04Z</time></trkpt><trkpt lat="41.052056968829135" lon="14.608468695490753"><ele>267.25</ele><time>2026-05-02T14:26:05Z</time></trkpt><trkpt lat="41.052008123147985" lon="14.608277483627242"><ele>267.0</ele><time>2026-05-02T14:26:06Z</time></trkpt><trkpt lat="41.051958858813215" lon="14.60809022853652"><ele>267.0</ele><time>2026-05-02T14:26:07Z</time></trkpt><trkpt lat="41.0519133242596" lon="14.607905564048052"><ele>267.0</ele><time>2026-05-02T14:26:08Z</time></trkpt><trkpt lat="41.05187583039582" lon="14.607715199799216"><ele>267.0</ele><time>2026-05-02T14:26:09Z</time></trkpt><trkpt lat="41.051826890486424" lon="14.60752091183265"><ele>267.0</ele><time>2026-05-02T14:26:10Z</time></trkpt><trkpt lat="41.051773249160554" lon="14.607317720646208"><ele>267.0</ele><time>2026-05-02T14:26:11Z</time></trkpt><trkpt lat="41.05172383049721" lon="14.607117354590832"><ele>267.0</ele><time>2026-05-02T14:26:12Z</time></trkpt><trkpt lat="41.05167646813453" lon="14.60691714048424"><ele>267.0</ele><time>2026-05-02T14:26:13Z</time></trkpt><trkpt lat="41.05162035411965" lon="14.606717217719162"><ele>266.6666666666667</ele><time>2026-05-02T14:26:14Z</time></trkpt><trkpt lat="41.0515691649359" lon="14.606510205917381"><ele>266.33333333333337</ele><time>2026-05-02T14:26:15Z</time></trkpt><trkpt lat="41.05151827730474" lon="14.606302570480855"><ele>266.0</ele><time>2026-05-02T14:26:16Z</time></trkpt><trkpt lat="41.051465766825444" lon="14.606091647653002"><ele>266.0</ele><time>2026-05-02T14:26:17Z</time></trkpt><trkpt lat="41.0514133897445" lon="14.60589179777709"><ele>266.0</ele><time>2026-05-02T14:26:18Z</time></trkpt><trkpt lat="41.05135747298894" lon="14.605671383977471"><ele>266.0</ele><time>2026-05-02T14:26:19Z</time></trkpt><trkpt lat="41.05130520512445" lon="14.605463043382514"><ele>266.33333333333337</ele><time>2026-05-02T14:26:20Z</time></trkpt><trkpt lat="41.05125102033658" lon="14.605243157074325"><ele>266.6666666666667</ele><time>2026-05-02T14:26:21Z</time></trkpt><trkpt lat="41.05120570648892" lon="14.605039959795988"><ele>267.0</ele><time>2026-05-02T14:26:22Z</time></trkpt><trkpt lat="41.051150987131905" lon="14.604826179870877"><ele>267.0</ele><time>2026-05-02T14:26:23Z</time></trkpt><trkpt lat="41.051098732935166" lon="14.604617769161592"><ele>267.0</ele><time>2026-05-02T14:26:24Z</time></trkpt><trkpt lat="41.05104373652325" lon="14.604415488754531"><ele>267.0</ele><time>2026-05-02T14:26:25Z</time></trkpt><trkpt lat="41.05098617078031" lon="14.604210858828573"><ele>267.0</ele><time>2026-05-02T14:26:26Z</time></trkpt><trkpt lat="41.05093067603963" lon="14.603997634132085"><ele>267.0</ele><time>2026-05-02T14:26:27Z</time></trkpt><trkpt lat="41.05087971721648" lon="14.603788427185469"><ele>267.0</ele><time>2026-05-02T14:26:28Z</time></trkpt><trkpt lat="41.05081931651532" lon="14.603578632814296"><ele>266.0</ele><time>2026-05-02T14:26:29Z</time></trkpt><trkpt lat="41.050760733808495" lon="14.603369230079032"><ele>265.0</ele><time>2026-05-02T14:26:30Z</time></trkpt><trkpt lat="41.050708286583635" lon="14.60314643929529"><ele>264.0</ele><time>2026-05-02T14:26:31Z</time></trkpt><trkpt lat="41.05065698249623" lon="14.602934506485758"><ele>264.6666666666667</ele><time>2026-05-02T14:26:32Z</time></trkpt><trkpt lat="41.05060262771522" lon="14.60272793795503"><ele>265.33333333333337</ele><time>2026-05-02T14:26:33Z</time></trkpt><trkpt lat="41.05055803616956" lon="14.602546802391098"><ele>266.0</ele><time>2026-05-02T14:26:34Z</time></trkpt><trkpt lat="41.05050168533806" lon="14.602340063629791"><ele>266.0</ele><time>2026-05-02T14:26:35Z</time></trkpt><trkpt lat="41.05046393573459" lon="14.602147595807194"><ele>266.0</ele><time>2026-05-02T14:26:36Z</time></trkpt><trkpt lat="41.050415045663335" lon="14.60197270878998"><ele>266.0</ele><time>2026-05-02T14:26:37Z</time></trkpt><trkpt lat="41.050370318646955" lon="14.6017875012362"><ele>266.0</ele><time>2026-05-02T14:26:38Z</time></trkpt><trkpt lat="41.05033042450704" lon="14.601625715098697"><ele>266.0</ele><time>2026-05-02T14:26:39.001Z</time></trkpt><trkpt lat="41.050277927809894" lon="14.601436377909733"><ele>266.0</ele><time>2026-05-02T14:26:40.001Z</time></trkpt><trkpt lat="41.05022753872231" lon="14.601241514815186"><ele>266.0</ele><time>2026-05-02T14:26:41.001Z</time></trkpt><trkpt lat="41.05017715236399" lon="14.601043024853306"><ele>265.6666666666667</ele><time>2026-05-02T14:26:42.001Z</time></trkpt><trkpt lat="41.05013393946416" lon="14.600839147116831"><ele>265.3333333333333</ele><time>2026-05-02T14:26:43.001Z</time></trkpt><trkpt lat="41.050085498403384" lon="14.600632177259923"><ele>265.0</ele><time>2026-05-02T14:26:44.001Z</time></trkpt><trkpt lat="41.05003810813788" lon="14.600426202686426"><ele>265.0</ele><time>2026-05-02T14:26:45.001Z</time></trkpt><trkpt lat="41.049984945222" lon="14.600230264868701"><ele>265.0</ele><time>2026-05-02T14:26:46.001Z</time></trkpt><trkpt lat="41.049935324083044" lon="14.60003236865705"><ele>265.0</ele><time>2026-05-02T14:26:47.001Z</time></trkpt><trkpt lat="41.04988879978914" lon="14.599845130148386"><ele>264.75</ele><time>2026-05-02T14:26:48.001Z</time></trkpt><trkpt lat="41.04984510987173" lon="14.599655543895595"><ele>264.5</ele><time>2026-05-02T14:26:49.001Z</time></trkpt><trkpt lat="41.04980124242525" lon="14.59947239219344"><ele>264.25</ele><time>2026-05-02T14:26:50.001Z</time></trkpt><trkpt lat="41.049761132869364" lon="14.599294635244117"><ele>264.0</ele><time>2026-05-02T14:26:51.001Z</time></trkpt><trkpt lat="41.04971145006978" lon="14.599118537361596"><ele>264.0</ele><time>2026-05-02T14:26:52.001Z</time></trkpt><trkpt lat="41.04965985605209" lon="14.598934842200359"><ele>264.0</ele><time>2026-05-02T14:26:53.001Z</time></trkpt><trkpt lat="41.04961311402068" lon="14.598760955065696"><ele>264.0</ele><time>2026-05-02T14:26:54.001Z</time></trkpt><trkpt lat="41.04956573974044" lon="14.598574710749396"><ele>264.0</ele><time>2026-05-02T14:26:55.001Z</time></trkpt><trkpt lat="41.049520448516446" lon="14.598390941068333"><ele>264.0</ele><time>2026-05-02T14:26:56.001Z</time></trkpt><trkpt lat="41.04947943481214" lon="14.598196847532996"><ele>264.0</ele><time>2026-05-02T14:26:57.001Z</time></trkpt><trkpt lat="41.04943919170841" lon="14.598013430580764"><ele>264.0</ele><time>2026-05-02T14:26:58.001Z</time></trkpt><trkpt lat="41.0493964322731" lon="14.597843342351688"><ele>264.0</ele><time>2026-05-02T14:26:59.001Z</time></trkpt><trkpt lat="41.04935177991595" lon="14.597678312055132"><ele>264.25</ele><time>2026-05-02T14:27:00.001Z</time></trkpt><trkpt lat="41.049307727216366" lon="14.597513122513801"><ele>264.5</ele><time>2026-05-02T14:27:01.001Z</time></trkpt><trkpt lat="41.049268330139114" lon="14.597345411666316"><ele>264.75</ele><time>2026-05-02T14:27:02.001Z</time></trkpt><trkpt lat="41.04922753605092" lon="14.597184596629141"><ele>265.0</ele><time>2026-05-02T14:27:03.001Z</time></trkpt><trkpt lat="41.04918151389076" lon="14.597014711123018"><ele>265.0</ele><time>2026-05-02T14:27:04.001Z</time></trkpt><trkpt lat="41.04914198841135" lon="14.596860411289828"><ele>265.0</ele><time>2026-05-02T14:27:05.001Z</time></trkpt><trkpt lat="41.04910435336446" lon="14.596713929246429"><ele>265.0</ele><time>2026-05-02T14:27:06.001Z</time></trkpt><trkpt lat="41.0490707169009" lon="14.59659078202122"><ele>265.0</ele><time>2026-05-02T14:27:07.001Z</time></trkpt><trkpt lat="41.04903542602177" lon="14.596441334024668"><ele>264.8</ele><time>2026-05-02T14:27:08.001Z</time></trkpt><trkpt lat="41.04900578952584" lon="14.59630824298943"><ele>264.6</ele><time>2026-05-02T14:27:09.001Z</time></trkpt><trkpt lat="41.04897651659547" lon="14.59617795593505"><ele>264.4</ele><time>2026-05-02T14:27:10.001Z</time></trkpt><trkpt lat="41.048948417658636" lon="14.596044300109606"><ele>264.2</ele><time>2026-05-02T14:27:11.001Z</time></trkpt><trkpt lat="41.04891524811813" lon="14.595924957160927"><ele>264.0</ele><time>2026-05-02T14:27:12.001Z</time></trkpt><trkpt lat="41.04888251471283" lon="14.595802802363359"><ele>263.8333333333333</ele><time>2026-05-02T14:27:13.001Z</time></trkpt><trkpt lat="41.04885647197176" lon="14.595685499758458"><ele>263.6666666666667</ele><time>2026-05-02T14:27:14.001Z</time></trkpt><trkpt lat="41.04882559275209" lon="14.595578886392397"><ele>263.5</ele><time>2026-05-02T14:27:15.001Z</time></trkpt><trkpt lat="41.04879943034231" lon="14.595474216391057"><ele>263.33333333333337</ele><time>2026-05-02T14:27:16.001Z</time></trkpt><trkpt lat="41.04878563076264" lon="14.595375277396672"><ele>263.1666666666667</ele><time>2026-05-02T14:27:17.001Z</time></trkpt><trkpt lat="41.04877209290815" lon="14.595259816771529"><ele>263.0</ele><time>2026-05-02T14:27:19.001Z</time></trkpt><trkpt lat="41.048734424299106" lon="14.595163899194729"><ele>263.4</ele><time>2026-05-02T14:30:18Z</time></trkpt><trkpt lat="41.04868643069669" lon="14.595050295164825"><ele>263.8</ele><time>2026-05-02T14:30:20Z</time></trkpt><trkpt lat="41.04866520347343" lon="14.59495858315059"><ele>264.2</ele><time>2026-05-02T14:30:21Z</time></trkpt><trkpt lat="41.048628348806695" lon="14.594857121167747"><ele>264.6</ele><time>2026-05-02T14:30:22Z</time></trkpt><trkpt lat="41.04859574917582" lon="14.594728988043451"><ele>265.0</ele><time>2026-05-02T14:30:23Z</time></trkpt><trkpt lat="41.04857237539945" lon="14.594593401768751"><ele>264.5</ele><time>2026-05-02T14:30:24Z</time></trkpt><trkpt lat="41.04853212087792" lon="14.594450977072889"><ele>264.0</ele><time>2026-05-02T14:30:25Z</time></trkpt><trkpt lat="41.04848522321184" lon="14.59429117074311"><ele>263.5</ele><time>2026-05-02T14:30:26Z</time></trkpt><trkpt lat="41.04843850602072" lon="14.59412722488971"><ele>263.0</ele><time>2026-05-02T14:30:27Z</time></trkpt><trkpt lat="41.0484176132348" lon="14.593962263988612"><ele>263.0</ele><time>2026-05-02T14:30:28Z</time></trkpt><trkpt lat="41.04836397557225" lon="14.593794700829415"><ele>263.0</ele><time>2026-05-02T14:30:29Z</time></trkpt><trkpt lat="41.0483222677546" lon="14.593644418473604"><ele>263.0</ele><time>2026-05-02T14:30:30Z</time></trkpt><trkpt lat="41.048269921365275" lon="14.593489543468236"><ele>263.0</ele><time>2026-05-02T14:30:31Z</time></trkpt><trkpt lat="41.04822792596999" lon="14.59333178157091"><ele>263.0</ele><time>2026-05-02T14:30:32Z</time></trkpt><trkpt lat="41.0481915424569" lon="14.59317575328744"><ele>263.0</ele><time>2026-05-02T14:30:33Z</time></trkpt><trkpt lat="41.04814027250151" lon="14.592994743238528"><ele>263.0</ele><time>2026-05-02T14:30:34Z</time></trkpt><trkpt lat="41.04810640557243" lon="14.592812161797537"><ele>263.0</ele><time>2026-05-02T14:30:35Z</time></trkpt><trkpt lat="41.0480581732301" lon="14.592620505290432"><ele>262.5</ele><time>2026-05-02T14:30:36Z</time></trkpt><trkpt lat="41.04801022096984" lon="14.592444691369003"><ele>262.0</ele><time>2026-05-02T14:30:37Z</time></trkpt><trkpt lat="41.047963398833886" lon="14.592272312213003"><ele>261.5</ele><time>2026-05-02T14:30:38Z</time></trkpt><trkpt lat="41.04791648486034" lon="14.59208715926202"><ele>261.0</ele><time>2026-05-02T14:30:39Z</time></trkpt><trkpt lat="41.047869461250514" lon="14.591891712648076"><ele>261.0</ele><time>2026-05-02T14:30:40Z</time></trkpt><trkpt lat="41.04781397710978" lon="14.59169001960044"><ele>261.0</ele><time>2026-05-02T14:30:41Z</time></trkpt><trkpt lat="41.047762054167144" lon="14.59148542195723"><ele>261.0</ele><time>2026-05-02T14:30:42Z</time></trkpt><trkpt lat="41.04770755475233" lon="14.591276455662014"><ele>261.3333333333333</ele><time>2026-05-02T14:30:43Z</time></trkpt><trkpt lat="41.04765676153495" lon="14.591060187523679"><ele>261.66666666666663</ele><time>2026-05-02T14:30:44Z</time></trkpt><trkpt lat="41.047602230353796" lon="14.590836769636697"><ele>262.0</ele><time>2026-05-02T14:30:45Z</time></trkpt><trkpt lat="41.04755222208023" lon="14.590627118081102"><ele>262.0</ele><time>2026-05-02T14:30:46Z</time></trkpt><trkpt lat="41.04749299669558" lon="14.59040661412534"><ele>262.0</ele><time>2026-05-02T14:30:47Z</time></trkpt><trkpt lat="41.0474428123389" lon="14.590178517308088"><ele>262.0</ele><time>2026-05-02T14:30:48Z</time></trkpt><trkpt lat="41.047392646977706" lon="14.589958268255076"><ele>261.66666666666663</ele><time>2026-05-02T14:30:49.001Z</time></trkpt><trkpt lat="41.04734524163653" lon="14.589738665901935"><ele>261.3333333333333</ele><time>2026-05-02T14:30:50.001Z</time></trkpt><trkpt lat="41.04728406196612" lon="14.5894993812602"><ele>261.0</ele><time>2026-05-02T14:30:51.001Z</time></trkpt><trkpt lat="41.04722778695454" lon="14.589264168323671"><ele>261.0</ele><time>2026-05-02T14:30:52.001Z</time></trkpt><trkpt lat="41.04717269451344" lon="14.589028463580181"><ele>261.0</ele><time>2026-05-02T14:30:53.001Z</time></trkpt><trkpt lat="41.047118129185776" lon="14.588797614503244"><ele>261.0</ele><time>2026-05-02T14:30:54.001Z</time></trkpt><trkpt lat="41.04706103665029" lon="14.5885855803873"><ele>261.3333333333333</ele><time>2026-05-02T14:30:55.001Z</time></trkpt><trkpt lat="41.0470130856662" lon="14.588389634273291"><ele>261.66666666666663</ele><time>2026-05-02T14:30:56.001Z</time></trkpt><trkpt lat="41.04696746765286" lon="14.588204463644624"><ele>262.0</ele><time>2026-05-02T14:30:57.001Z</time></trkpt><trkpt lat="41.04690761305359" lon="14.587998141539046"><ele>262.3333333333333</ele><time>2026-05-02T14:30:58.001Z</time></trkpt><trkpt lat="41.046857919406214" lon="14.587807648647546"><ele>262.6666666666667</ele><time>2026-05-02T14:30:59.001Z</time></trkpt><trkpt lat="41.046807298144486" lon="14.58760658787024"><ele>263.0</ele><time>2026-05-02T14:31:00.001Z</time></trkpt><trkpt lat="41.046758294277545" lon="14.587411352686392"><ele>263.0</ele><time>2026-05-02T14:31:01.001Z</time></trkpt><trkpt lat="41.046712718449584" lon="14.587218175643702"><ele>263.0</ele><time>2026-05-02T14:31:02.001Z</time></trkpt><trkpt lat="41.046669254629705" lon="14.587029735449768"><ele>263.0</ele><time>2026-05-02T14:31:03.001Z</time></trkpt><trkpt lat="41.046619972309365" lon="14.58683149329074"><ele>262.0</ele><time>2026-05-02T14:31:04.001Z</time></trkpt><trkpt lat="41.04656880705686" lon="14.586625901587153"><ele>261.0</ele><time>2026-05-02T14:31:05.001Z</time></trkpt><trkpt lat="41.04653457550722" lon="14.586440402537473"><ele>260.0</ele><time>2026-05-02T14:31:06.001Z</time></trkpt><trkpt lat="41.046494321693494" lon="14.586268952296106"><ele>259.0</ele><time>2026-05-02T14:31:07.001Z</time></trkpt><trkpt lat="41.046456041670396" lon="14.586111911121705"><ele>258.8</ele><time>2026-05-02T14:31:08.001Z</time></trkpt><trkpt lat="41.046410756159474" lon="14.585960193684706"><ele>258.59999999999997</ele><time>2026-05-02T14:31:09.001Z</time></trkpt><trkpt lat="41.04636657160269" lon="14.585808462120593"><ele>258.4</ele><time>2026-05-02T14:31:10.001Z</time></trkpt><trkpt lat="41.04633699879631" lon="14.585670326206344"><ele>258.2</ele><time>2026-05-02T14:31:11.001Z</time></trkpt><trkpt lat="41.04631266548746" lon="14.585567035013558"><ele>258.0</ele><time>2026-05-02T14:31:12.001Z</time></trkpt><trkpt lat="41.04629338814351" lon="14.585484920630904"><ele>258.0</ele><time>2026-05-02T14:31:13.001Z</time></trkpt><trkpt lat="41.04625501299882" lon="14.585340656595323"><ele>258.0</ele><time>2026-05-02T14:31:15.001Z</time></trkpt><trkpt lat="41.046219484796524" lon="14.5852461646155"><ele>258.0</ele><time>2026-05-02T14:31:16.001Z</time></trkpt><trkpt lat="41.04619066757878" lon="14.585142259462057"><ele>258.0</ele><time>2026-05-02T14:31:17.001Z</time></trkpt><trkpt lat="41.046155867121975" lon="14.585025621570397"><ele>258.0</ele><time>2026-05-02T14:31:18.001Z</time></trkpt><trkpt lat="41.046122725146766" lon="14.584901168084432"><ele>258.0</ele><time>2026-05-02T14:31:19.001Z</time></trkpt><trkpt lat="41.04608478204272" lon="14.584764092002068"><ele>258.0</ele><time>2026-05-02T14:31:20.001Z</time></trkpt><trkpt lat="41.04605120968562" lon="14.584613552855531"><ele>258.0</ele><time>2026-05-02T14:31:21.001Z</time></trkpt><trkpt lat="41.046017850650195" lon="14.584456023437204"><ele>258.0</ele><time>2026-05-02T14:31:22.001Z</time></trkpt><trkpt lat="41.04598648006531" lon="14.584291025125172"><ele>257.8</ele><time>2026-05-02T14:31:23.001Z</time></trkpt><trkpt lat="41.045965515546435" lon="14.584147691039439"><ele>257.6</ele><time>2026-05-02T14:31:24.001Z</time></trkpt><trkpt lat="41.04596084930514" lon="14.584006291808294"><ele>257.4</ele><time>2026-05-02T14:31:25.001Z</time></trkpt><trkpt lat="41.04596157677778" lon="14.583862900056909"><ele>257.2</ele><time>2026-05-02T14:31:26.001Z</time></trkpt><trkpt lat="41.045978588283916" lon="14.583723396443766"><ele>257.0</ele><time>2026-05-02T14:31:27.001Z</time></trkpt><trkpt lat="41.04601587306501" lon="14.58358423923505"><ele>256.6</ele><time>2026-05-02T14:31:28.001Z</time></trkpt><trkpt lat="41.04606473687654" lon="14.583459186085152"><ele>256.2</ele><time>2026-05-02T14:31:29.001Z</time></trkpt><trkpt lat="41.0461262494283" lon="14.583347597815997"><ele>255.8</ele><time>2026-05-02T14:31:30.001Z</time></trkpt><trkpt lat="41.04620000405614" lon="14.58327284929904"><ele>255.4</ele><time>2026-05-02T14:31:31.001Z</time></trkpt><trkpt lat="41.046276956481314" lon="14.583194747576416"><ele>255.0</ele><time>2026-05-02T14:31:32.001Z</time></trkpt><trkpt lat="41.04635774167085" lon="14.583119212762533"><ele>255.0</ele><time>2026-05-02T14:31:33.001Z</time></trkpt><trkpt lat="41.04642225221285" lon="14.583031935028854"><ele>255.0</ele><time>2026-05-02T14:31:34.001Z</time></trkpt><trkpt lat="41.04647373432462" lon="14.582918963020894"><ele>255.0</ele><time>2026-05-02T14:31:35.001Z</time></trkpt><trkpt lat="41.04652292552145" lon="14.582800034874946"><ele>255.0</ele><time>2026-05-02T14:31:36.001Z</time></trkpt><trkpt lat="41.046556504920886" lon="14.58267083115131"><ele>255.0</ele><time>2026-05-02T14:31:37.001Z</time></trkpt><trkpt lat="41.04657081166119" lon="14.58252904179496"><ele>255.0</ele><time>2026-05-02T14:31:38.001Z</time></trkpt><trkpt lat="41.046566460559355" lon="14.58239172986172"><ele>255.0</ele><time>2026-05-02T14:31:39.001Z</time></trkpt><trkpt lat="41.046543274719724" lon="14.582262000650758"><ele>255.0</ele><time>2026-05-02T14:31:40.001Z</time></trkpt><trkpt lat="41.04648805292452" lon="14.582109010801608"><ele>255.0</ele><time>2026-05-02T14:31:41.001Z</time></trkpt><trkpt lat="41.04644376189675" lon="14.58198822172464"><ele>255.0</ele><time>2026-05-02T14:31:42.002Z</time></trkpt><trkpt lat="41.04637781859804" lon="14.58189031655553"><ele>255.0</ele><time>2026-05-02T14:31:43.002Z</time></trkpt><trkpt lat="41.04629227431016" lon="14.581805114214113"><ele>255.0</ele><time>2026-05-02T14:31:44.002Z</time></trkpt><trkpt lat="41.04619182435079" lon="14.581740964336435"><ele>255.0</ele><time>2026-05-02T14:31:45.002Z</time></trkpt><trkpt lat="41.04609059731432" lon="14.581701904763372"><ele>255.0</ele><time>2026-05-02T14:31:46.002Z</time></trkpt><trkpt lat="41.04599227083126" lon="14.581690435738608"><ele>255.0</ele><time>2026-05-02T14:31:47.002Z</time></trkpt><trkpt lat="41.04590364401025" lon="14.581687284642552"><ele>255.0</ele><time>2026-05-02T14:31:48.002Z</time></trkpt><trkpt lat="41.04582542896996" lon="14.581619310784493"><ele>255.0</ele><time>2026-05-02T14:31:49.002Z</time></trkpt><trkpt lat="41.0457649779908" lon="14.581526997992981"><ele>255.0</ele><time>2026-05-02T14:31:50.002Z</time></trkpt><trkpt lat="41.04570261815187" lon="14.581439746271094"><ele>255.0</ele><time>2026-05-02T14:31:51.002Z</time></trkpt><trkpt lat="41.04568022966901" lon="14.581271254867286"><ele>255.0</ele><time>2026-05-02T14:31:52.002Z</time></trkpt><trkpt lat="41.04566343188106" lon="14.58112171622768"><ele>254.25</ele><time>2026-05-02T14:31:53.002Z</time></trkpt><trkpt lat="41.0456668605687" lon="14.580971993395929"><ele>253.5</ele><time>2026-05-02T14:31:54.002Z</time></trkpt><trkpt lat="41.04569442534345" lon="14.580809749711674"><ele>252.75</ele><time>2026-05-02T14:31:55.002Z</time></trkpt><trkpt lat="41.0457438914677" lon="14.580644177675515"><ele>252.0</ele><time>2026-05-02T14:31:56.002Z</time></trkpt><trkpt lat="41.04581854853965" lon="14.580492748518619"><ele>252.0</ele><time>2026-05-02T14:31:57.002Z</time></trkpt><trkpt lat="41.045914419267824" lon="14.580364399841955"><ele>252.0</ele><time>2026-05-02T14:31:58.002Z</time></trkpt><trkpt lat="41.04601996378438" lon="14.580240323867525"><ele>252.0</ele><time>2026-05-02T14:31:59.002Z</time></trkpt><trkpt lat="41.046141919218606" lon="14.580150588299341"><ele>252.0</ele><time>2026-05-02T14:32:00.002Z</time></trkpt><trkpt lat="41.04627240135598" lon="14.580102170227311"><ele>251.75</ele><time>2026-05-02T14:32:01.002Z</time></trkpt><trkpt lat="41.04640702723329" lon="14.580043489947977"><ele>251.5</ele><time>2026-05-02T14:32:02.002Z</time></trkpt><trkpt lat="41.04654259121106" lon="14.579967294012242"><ele>251.25</ele><time>2026-05-02T14:32:03.002Z</time></trkpt><trkpt lat="41.0466691513635" lon="14.579873771109956"><ele>251.0</ele><time>2026-05-02T14:32:04.002Z</time></trkpt><trkpt lat="41.04678761765242" lon="14.579754093184633"><ele>251.0</ele><time>2026-05-02T14:32:05.002Z</time></trkpt><trkpt lat="41.04690356632678" lon="14.579606875939854"><ele>251.0</ele><time>2026-05-02T14:32:06.002Z</time></trkpt><trkpt lat="41.047002379310875" lon="14.579422714300456"><ele>251.0</ele><time>2026-05-02T14:32:07.002Z</time></trkpt><trkpt lat="41.04706693783918" lon="14.579202530275726"><ele>250.66666666666669</ele><time>2026-05-02T14:32:08.002Z</time></trkpt><trkpt lat="41.04715509344179" lon="14.578955041309717"><ele>250.33333333333331</ele><time>2026-05-02T14:32:09.002Z</time></trkpt><trkpt lat="41.04724698935629" lon="14.57872103224099"><ele>250.0</ele><time>2026-05-02T14:32:10.002Z</time></trkpt><trkpt lat="41.04732548626305" lon="14.578512102219316"><ele>249.66666666666666</ele><time>2026-05-02T14:32:10.999Z</time></trkpt><trkpt lat="41.04740405424703" lon="14.578290736062318"><ele>249.33333333333331</ele><time>2026-05-02T14:32:11.999Z</time></trkpt><trkpt lat="41.04753900041434" lon="14.578106205521344"><ele>249.0</ele><time>2026-05-02T14:32:12.999Z</time></trkpt><trkpt lat="41.04766904512248" lon="14.57790271586797"><ele>249.0</ele><time>2026-05-02T14:32:13.999Z</time></trkpt><trkpt lat="41.047809871209395" lon="14.577686704276031"><ele>249.0</ele><time>2026-05-02T14:32:14.999Z</time></trkpt><trkpt lat="41.04795544048081" lon="14.577468487056175"><ele>249.0</ele><time>2026-05-02T14:32:15.999Z</time></trkpt><trkpt lat="41.04811634501328" lon="14.577252974546438"><ele>249.0</ele><time>2026-05-02T14:32:16.999Z</time></trkpt><trkpt lat="41.04829206028671" lon="14.577030234930472"><ele>249.0</ele><time>2026-05-02T14:32:17.999Z</time></trkpt><trkpt lat="41.048483576174014" lon="14.576828682516446"><ele>249.0</ele><time>2026-05-02T14:32:19Z</time></trkpt><trkpt lat="41.04866950093925" lon="14.576627422608622"><ele>249.0</ele><time>2026-05-02T14:32:19.999Z</time></trkpt><trkpt lat="41.04886244864689" lon="14.576432355215385"><ele>249.0</ele><time>2026-05-02T14:32:20.999Z</time></trkpt><trkpt lat="41.049060219500745" lon="14.576245698696624"><ele>249.0</ele><time>2026-05-02T14:32:22Z</time></trkpt><trkpt lat="41.049254161850754" lon="14.57607101652776"><ele>248.5</ele><time>2026-05-02T14:32:23Z</time></trkpt><trkpt lat="41.04945055571576" lon="14.575924809065762"><ele>248.0</ele><time>2026-05-02T14:32:24Z</time></trkpt><trkpt lat="41.049663804107105" lon="14.575772438680977"><ele>248.0</ele><time>2026-05-02T14:32:25Z</time></trkpt><trkpt lat="41.04987704152258" lon="14.575614926834016"><ele>248.0</ele><time>2026-05-02T14:32:26Z</time></trkpt><trkpt lat="41.05009722579898" lon="14.575469623413722"><ele>248.0</ele><time>2026-05-02T14:32:27Z</time></trkpt><trkpt lat="41.050319606788975" lon="14.575334703779554"><ele>248.0</ele><time>2026-05-02T14:32:28Z</time></trkpt><trkpt lat="41.05056365159372" lon="14.575214562605439"><ele>248.0</ele><time>2026-05-02T14:32:29Z</time></trkpt><trkpt lat="41.050864850924626" lon="14.575035083433397"><ele>248.0</ele><time>2026-05-02T14:32:30Z</time></trkpt><trkpt lat="41.05111906303278" lon="14.574912446198832"><ele>248.0</ele><time>2026-05-02T14:32:31Z</time></trkpt><trkpt lat="41.051370340024555" lon="14.574769900029075"><ele>248.0</ele><time>2026-05-02T14:32:32Z</time></trkpt><trkpt lat="41.05160660437788" lon="14.574628513264637"><ele>247.5</ele><time>2026-05-02T14:32:33Z</time></trkpt><trkpt lat="41.051843329770406" lon="14.57448340038473"><ele>247.0</ele><time>2026-05-02T14:32:34Z</time></trkpt><trkpt lat="41.052081846620666" lon="14.574345178482737"><ele>247.0</ele><time>2026-05-02T14:32:35Z</time></trkpt><trkpt lat="41.05232022037794" lon="14.574212378446123"><ele>247.0</ele><time>2026-05-02T14:32:36Z</time></trkpt><trkpt lat="41.0525541232345" lon="14.574075668483786"><ele>247.0</ele><time>2026-05-02T14:32:37Z</time></trkpt><trkpt lat="41.05278399869351" lon="14.573945013518978"><ele>247.0</ele><time>2026-05-02T14:32:38Z</time></trkpt><trkpt lat="41.05300527165908" lon="14.57382698007323"><ele>247.0</ele><time>2026-05-02T14:32:39Z</time></trkpt><trkpt lat="41.05323007688193" lon="14.573700136764652"><ele>247.0</ele><time>2026-05-02T14:32:40Z</time></trkpt><trkpt lat="41.05343820145803" lon="14.573564742294835"><ele>247.33333333333331</ele><time>2026-05-02T14:32:41Z</time></trkpt><trkpt lat="41.05364033876354" lon="14.573461116093078"><ele>247.66666666666669</ele><time>2026-05-02T14:32:42Z</time></trkpt><trkpt lat="41.05384328510306" lon="14.573358185483828"><ele>248.0</ele><time>2026-05-02T14:32:43Z</time></trkpt><trkpt lat="41.0540480880454" lon="14.573254809579643"><ele>248.0</ele><time>2026-05-02T14:32:44Z</time></trkpt><trkpt lat="41.054248417156685" lon="14.573124277214191"><ele>248.0</ele><time>2026-05-02T14:32:45Z</time></trkpt><trkpt lat="41.054445014993256" lon="14.57297954452372"><ele>248.0</ele><time>2026-05-02T14:32:46Z</time></trkpt><trkpt lat="41.05463919001852" lon="14.57284964850508"><ele>248.0</ele><time>2026-05-02T14:32:47Z</time></trkpt><trkpt lat="41.05481452798039" lon="14.572746799602232"><ele>248.0</ele><time>2026-05-02T14:32:48Z</time></trkpt><trkpt lat="41.05498994134503" lon="14.5726338665246"><ele>248.0</ele><time>2026-05-02T14:32:49Z</time></trkpt><trkpt lat="41.05520080017481" lon="14.572525464077145"><ele>247.0</ele><time>2026-05-02T14:32:50Z</time></trkpt><trkpt lat="41.05541941406214" lon="14.572415606684086"><ele>246.0</ele><time>2026-05-02T14:32:51Z</time></trkpt><trkpt lat="41.05562511619012" lon="14.572301675716096"><ele>246.33333333333331</ele><time>2026-05-02T14:32:52Z</time></trkpt><trkpt lat="41.05580452492362" lon="14.572179078577324"><ele>246.66666666666666</ele><time>2026-05-02T14:32:53Z</time></trkpt><trkpt lat="41.05600696938522" lon="14.572062113939175"><ele>247.0</ele><time>2026-05-02T14:32:54Z</time></trkpt><trkpt lat="41.056200110419425" lon="14.571942338682375"><ele>247.0</ele><time>2026-05-02T14:32:55Z</time></trkpt><trkpt lat="41.056401796728856" lon="14.571812090775797"><ele>247.0</ele><time>2026-05-02T14:32:56Z</time></trkpt><trkpt lat="41.056611569583204" lon="14.571673864504854"><ele>247.0</ele><time>2026-05-02T14:32:57Z</time></trkpt><trkpt lat="41.056834015325876" lon="14.571540444522416"><ele>247.0</ele><time>2026-05-02T14:32:58Z</time></trkpt><trkpt lat="41.057050595660115" lon="14.57138184425527"><ele>247.0</ele><time>2026-05-02T14:32:59Z</time></trkpt><trkpt lat="41.05728872786638" lon="14.571242617395608"><ele>247.0</ele><time>2026-05-02T14:33:00Z</time></trkpt><trkpt lat="41.0575031505239" lon="14.57110395240561"><ele>247.0</ele><time>2026-05-02T14:33:01Z</time></trkpt><trkpt lat="41.05769881624818" lon="14.570847507183524"><ele>247.0</ele><time>2026-05-02T14:33:02Z</time></trkpt><trkpt lat="41.05790918071862" lon="14.570651287153474"><ele>247.0</ele><time>2026-05-02T14:33:03.001Z</time></trkpt><trkpt lat="41.05812357480182" lon="14.570462712220825"><ele>247.0</ele><time>2026-05-02T14:33:04.001Z</time></trkpt><trkpt lat="41.05834258173204" lon="14.570292119559682"><ele>246.5</ele><time>2026-05-02T14:33:05.001Z</time></trkpt><trkpt lat="41.058555244383186" lon="14.570139852569001"><ele>246.0</ele><time>2026-05-02T14:33:06.001Z</time></trkpt><trkpt lat="41.05878728349931" lon="14.56998477797474"><ele>246.0</ele><time>2026-05-02T14:33:07.001Z</time></trkpt><trkpt lat="41.05901359044102" lon="14.569863028098222"><ele>246.0</ele><time>2026-05-02T14:33:08.001Z</time></trkpt><trkpt lat="41.05925549989729" lon="14.56976129537791"><ele>247.0</ele><time>2026-05-02T14:33:09.001Z</time></trkpt><trkpt lat="41.0595118921654" lon="14.569674231166912"><ele>248.0</ele><time>2026-05-02T14:33:10.001Z</time></trkpt><trkpt lat="41.05975106797889" lon="14.569603977503277"><ele>248.0</ele><time>2026-05-02T14:33:11.001Z</time></trkpt><trkpt lat="41.0600130243212" lon="14.56954206781805"><ele>248.0</ele><time>2026-05-02T14:33:12.001Z</time></trkpt><trkpt lat="41.06026092086686" lon="14.569488141169868"><ele>248.0</ele><time>2026-05-02T14:33:13.001Z</time></trkpt><trkpt lat="41.06049286627199" lon="14.56944001375502"><ele>248.0</ele><time>2026-05-02T14:33:14.001Z</time></trkpt><trkpt lat="41.060743476363214" lon="14.569387813110497"><ele>246.5</ele><time>2026-05-02T14:33:15.001Z</time></trkpt><trkpt lat="41.0609901646055" lon="14.569330172745849"><ele>245.0</ele><time>2026-05-02T14:33:16.001Z</time></trkpt><trkpt lat="41.06122689170979" lon="14.569275279264179"><ele>245.0</ele><time>2026-05-02T14:33:17.001Z</time></trkpt><trkpt lat="41.06146389938188" lon="14.569223411465972"><ele>245.0</ele><time>2026-05-02T14:33:18.001Z</time></trkpt><trkpt lat="41.061671586977" lon="14.569176951295063"><ele>245.33333333333334</ele><time>2026-05-02T14:33:19.001Z</time></trkpt><trkpt lat="41.06188010301034" lon="14.569125184147728"><ele>245.66666666666669</ele><time>2026-05-02T14:33:20.001Z</time></trkpt><trkpt lat="41.06208432735996" lon="14.56907464231857"><ele>246.0</ele><time>2026-05-02T14:33:21.001Z</time></trkpt><trkpt lat="41.06228624891472" lon="14.569024727977158"><ele>246.33333333333331</ele><time>2026-05-02T14:33:22.001Z</time></trkpt><trkpt lat="41.06248288893774" lon="14.568979745102718"><ele>246.66666666666666</ele><time>2026-05-02T14:33:23.001Z</time></trkpt><trkpt lat="41.06268277262522" lon="14.568952211932528"><ele>247.0</ele><time>2026-05-02T14:33:24.001Z</time></trkpt><trkpt lat="41.062881652478495" lon="14.568938549897974"><ele>247.0</ele><time>2026-05-02T14:33:25.001Z</time></trkpt><trkpt lat="41.06306661096564" lon="14.568957345287442"><ele>247.0</ele><time>2026-05-02T14:33:26.001Z</time></trkpt><trkpt lat="41.063263413380504" lon="14.56898883827488"><ele>247.0</ele><time>2026-05-02T14:33:27.001Z</time></trkpt><trkpt lat="41.06347163764505" lon="14.569042393546637"><ele>246.66666666666666</ele><time>2026-05-02T14:33:28.001Z</time></trkpt><trkpt lat="41.063674976802986" lon="14.56910010048751"><ele>246.33333333333331</ele><time>2026-05-02T14:33:29.001Z</time></trkpt><trkpt lat="41.06387345314612" lon="14.56914519201747"><ele>246.0</ele><time>2026-05-02T14:33:30.001Z</time></trkpt><trkpt lat="41.064068015338755" lon="14.569172816308916"><ele>246.0</ele><time>2026-05-02T14:33:31.001Z</time></trkpt><trkpt lat="41.06428638647885" lon="14.569175653551442"><ele>246.0</ele><time>2026-05-02T14:33:32.001Z</time></trkpt><trkpt lat="41.06449499011264" lon="14.569158916273082"><ele>246.0</ele><time>2026-05-02T14:33:33.001Z</time></trkpt><trkpt lat="41.064685965562155" lon="14.569102106715834"><ele>246.0</ele><time>2026-05-02T14:33:34.001Z</time></trkpt><trkpt lat="41.06490640017642" lon="14.569045041971906"><ele>246.0</ele><time>2026-05-02T14:33:35.001Z</time></trkpt><trkpt lat="41.065105944436816" lon="14.5689542402861"><ele>246.0</ele><time>2026-05-02T14:33:36.001Z</time></trkpt><trkpt lat="41.0653017063364" lon="14.568841445829563"><ele>246.33333333333331</ele><time>2026-05-02T14:33:37.001Z</time></trkpt><trkpt lat="41.0654848142327" lon="14.568711509331758"><ele>246.66666666666666</ele><time>2026-05-02T14:33:38.001Z</time></trkpt><trkpt lat="41.06565479103099" lon="14.56855177179288"><ele>247.0</ele><time>2026-05-02T14:33:39.001Z</time></trkpt><trkpt lat="41.06582386623908" lon="14.568378391148201"><ele>249.66666666666666</ele><time>2026-05-02T14:33:40.001Z</time></trkpt><trkpt lat="41.06597920498913" lon="14.568190147457855"><ele>252.33333333333331</ele><time>2026-05-02T14:33:41.001Z</time></trkpt><trkpt lat="41.06612964964043" lon="14.567987935159296"><ele>255.0</ele><time>2026-05-02T14:33:42.001Z</time></trkpt><trkpt lat="41.06627935573925" lon="14.567792831012722"><ele>257.0</ele><time>2026-05-02T14:33:43.001Z</time></trkpt><trkpt lat="41.06643390859373" lon="14.567576324285728"><ele>259.0</ele><time>2026-05-02T14:33:44.001Z</time></trkpt><trkpt lat="41.066594709225825" lon="14.5673458226617"><ele>262.5</ele><time>2026-05-02T14:33:45.015Z</time></trkpt><trkpt lat="41.066758035895994" lon="14.567113320098548"><ele>266.0</ele><time>2026-05-02T14:33:46.014Z</time></trkpt><trkpt lat="41.066923665998736" lon="14.566873773660403"><ele>268.5</ele><time>2026-05-02T14:33:47.014Z</time></trkpt><trkpt lat="41.06709104114386" lon="14.566628675103326"><ele>271.0</ele><time>2026-05-02T14:33:48.014Z</time></trkpt><trkpt lat="41.06725846449578" lon="14.566387692702474"><ele>250.0</ele><time>2026-05-02T14:33:49.013Z</time></trkpt><trkpt lat="41.06849325358967" lon="14.564593518166397"><ele>250.5</ele><time>2026-05-02T14:33:56.002Z</time></trkpt><trkpt lat="41.068670174744014" lon="14.56434186657229"><ele>251.0</ele><time>2026-05-02T14:33:57.002Z</time></trkpt><trkpt lat="41.068917595610266" lon="14.56410671948957"><ele>251.0</ele><time>2026-05-02T14:33:58.002Z</time></trkpt><trkpt lat="41.069087273618095" lon="14.563862726401494"><ele>251.0</ele><time>2026-05-02T14:33:59.002Z</time></trkpt><trkpt lat="41.06924676485511" lon="14.563632614263739"><ele>251.5</ele><time>2026-05-02T14:34:00.002Z</time></trkpt><trkpt lat="41.06941805621732" lon="14.563386176978717"><ele>252.0</ele><time>2026-05-02T14:34:01.002Z</time></trkpt><trkpt lat="41.069584491774485" lon="14.56316445427866"><ele>252.0</ele><time>2026-05-02T14:34:02.002Z</time></trkpt><trkpt lat="41.06975672352267" lon="14.562929070390721"><ele>252.0</ele><time>2026-05-02T14:34:03.002Z</time></trkpt><trkpt lat="41.06991362803501" lon="14.562723773188065"><ele>250.66666666666669</ele><time>2026-05-02T14:34:04.002Z</time></trkpt><trkpt lat="41.07005684985588" lon="14.56253786805019"><ele>249.33333333333334</ele><time>2026-05-02T14:34:05.002Z</time></trkpt><trkpt lat="41.07019819624639" lon="14.562359355341705"><ele>248.0</ele><time>2026-05-02T14:34:06.002Z</time></trkpt><trkpt lat="41.07033919370733" lon="14.56219670334391"><ele>248.0</ele><time>2026-05-02T14:34:07.002Z</time></trkpt><trkpt lat="41.07048369330334" lon="14.562032287620163"><ele>248.0</ele><time>2026-05-02T14:34:08.002Z</time></trkpt><trkpt lat="41.07063663451209" lon="14.561877238102067"><ele>248.0</ele><time>2026-05-02T14:34:09.002Z</time></trkpt><trkpt lat="41.07078914296299" lon="14.561751882002493"><ele>247.0</ele><time>2026-05-02T14:34:10.002Z</time></trkpt><trkpt lat="41.070938662255685" lon="14.561636109957323"><ele>246.0</ele><time>2026-05-02T14:34:11.002Z</time></trkpt><trkpt lat="41.071096976726814" lon="14.561551708958248"><ele>245.0</ele><time>2026-05-02T14:34:12.002Z</time></trkpt><trkpt lat="41.07124763763983" lon="14.561486242446446"><ele>245.0</ele><time>2026-05-02T14:34:13.002Z</time></trkpt><trkpt lat="41.07140320706094" lon="14.561428050411331"><ele>245.0</ele><time>2026-05-02T14:34:14.002Z</time></trkpt><trkpt lat="41.07156147153931" lon="14.561378152585677"><ele>245.0</ele><time>2026-05-02T14:34:15.002Z</time></trkpt><trkpt lat="41.07171649909496" lon="14.561358716153713"><ele>244.0</ele><time>2026-05-02T14:34:16.002Z</time></trkpt><trkpt lat="41.07185151203149" lon="14.561348159177099"><ele>243.0</ele><time>2026-05-02T14:34:17Z</time></trkpt><trkpt lat="41.07198051458852" lon="14.56135914667178"><ele>242.0</ele><time>2026-05-02T14:34:18Z</time></trkpt><trkpt lat="41.07209099773907" lon="14.561378785846106"><ele>241.0</ele><time>2026-05-02T14:34:19Z</time></trkpt><trkpt lat="41.072188373982335" lon="14.561381543041135"><ele>241.0</ele><time>2026-05-02T14:34:20Z</time></trkpt><trkpt lat="41.07227571338637" lon="14.561476431343"><ele>241.00000000000003</ele><time>2026-05-02T14:34:21Z</time></trkpt><trkpt lat="41.07235466716919" lon="14.56156820542033"><ele>241.00000000000003</ele><time>2026-05-02T14:34:22Z</time></trkpt><trkpt lat="41.072409281141674" lon="14.561687262528386"><ele>241.0</ele><time>2026-05-02T14:34:23Z</time></trkpt><trkpt lat="41.072442455588345" lon="14.561829381356533"><ele>241.0</ele><time>2026-05-02T14:34:24Z</time></trkpt><trkpt lat="41.072461501939955" lon="14.561973511612859"><ele>240.33333333333331</ele><time>2026-05-02T14:34:25Z</time></trkpt><trkpt lat="41.07249370566375" lon="14.562108760387462"><ele>239.66666666666666</ele><time>2026-05-02T14:34:26Z</time></trkpt><trkpt lat="41.072534090727004" lon="14.562216242103133"><ele>239.0</ele><time>2026-05-02T14:34:27Z</time></trkpt><trkpt lat="41.07256969375183" lon="14.562295831079958"><ele>238.33333333333331</ele><time>2026-05-02T14:34:28Z</time></trkpt><trkpt lat="41.072607723890805" lon="14.562382800001082"><ele>237.66666666666666</ele><time>2026-05-02T14:34:30Z</time></trkpt><trkpt lat="41.07266141502983" lon="14.562439980658938"><ele>237.0</ele><time>2026-05-02T14:34:34Z</time></trkpt><trkpt lat="41.07279123635951" lon="14.562387568332396"><ele>237.0</ele><time>2026-05-02T14:34:37Z</time></trkpt><trkpt lat="41.072835455293266" lon="14.56231069542201"><ele>237.0</ele><time>2026-05-02T14:34:38Z</time></trkpt><trkpt lat="41.072895971294244" lon="14.562222053384394"><ele>237.0</ele><time>2026-05-02T14:34:39Z</time></trkpt><trkpt lat="41.07295803480712" lon="14.562117142607224"><ele>237.0</ele><time>2026-05-02T14:34:40Z</time></trkpt><trkpt lat="41.07302628689388" lon="14.561978889517958"><ele>237.0</ele><time>2026-05-02T14:34:41Z</time></trkpt><trkpt lat="41.073076344680445" lon="14.561823489597051"><ele>237.5</ele><time>2026-05-02T14:34:42Z</time></trkpt><trkpt lat="41.07310552856621" lon="14.56166692333235"><ele>238.0</ele><time>2026-05-02T14:34:43Z</time></trkpt><trkpt lat="41.073135645559205" lon="14.561505889548418"><ele>238.5</ele><time>2026-05-02T14:34:44Z</time></trkpt><trkpt lat="41.07317376291343" lon="14.56135279326117"><ele>239.0</ele><time>2026-05-02T14:34:45Z</time></trkpt><trkpt lat="41.07322995152427" lon="14.561211522573565"><ele>238.75</ele><time>2026-05-02T14:34:46Z</time></trkpt><trkpt lat="41.073285296973495" lon="14.561046186328728"><ele>238.5</ele><time>2026-05-02T14:34:47Z</time></trkpt><trkpt lat="41.07336484334859" lon="14.560948203253254"><ele>238.25</ele><time>2026-05-02T14:34:48Z</time></trkpt><trkpt lat="41.07348028857588" lon="14.560869456835837"><ele>238.0</ele><time>2026-05-02T14:34:49Z</time></trkpt><trkpt lat="41.073577330892036" lon="14.560781335751331"><ele>238.0</ele><time>2026-05-02T14:34:50Z</time></trkpt><trkpt lat="41.073692008154765" lon="14.560678106161328"><ele>238.0</ele><time>2026-05-02T14:34:51Z</time></trkpt><trkpt lat="41.07381040521226" lon="14.560561777046559"><ele>238.0</ele><time>2026-05-02T14:34:52Z</time></trkpt><trkpt lat="41.073930491002805" lon="14.560416718968414"><ele>238.0</ele><time>2026-05-02T14:34:53Z</time></trkpt><trkpt lat="41.074072758666496" lon="14.560277505907438"><ele>239.0</ele><time>2026-05-02T14:34:54Z</time></trkpt><trkpt lat="41.07426513984222" lon="14.560155739465806"><ele>240.0</ele><time>2026-05-02T14:34:55Z</time></trkpt><trkpt lat="41.07443123269457" lon="14.559979530251205"><ele>241.0</ele><time>2026-05-02T14:34:56Z</time></trkpt><trkpt lat="41.074581001050014" lon="14.559795109297356"><ele>241.0</ele><time>2026-05-02T14:34:57Z</time></trkpt><trkpt lat="41.07473171107194" lon="14.559609528799243"><ele>241.0</ele><time>2026-05-02T14:34:58Z</time></trkpt><trkpt lat="41.074851875356934" lon="14.559436970848916"><ele>241.0</ele><time>2026-05-02T14:34:59Z</time></trkpt><trkpt lat="41.074994129449394" lon="14.559296600089644"><ele>242.66666666666666</ele><time>2026-05-02T14:35:00Z</time></trkpt><trkpt lat="41.0751511089503" lon="14.559186972205037"><ele>244.33333333333331</ele><time>2026-05-02T14:35:01.001Z</time></trkpt><trkpt lat="41.07528730191186" lon="14.559057688586629"><ele>246.0</ele><time>2026-05-02T14:35:02.001Z</time></trkpt><trkpt lat="41.075385067409584" lon="14.558889960914161"><ele>246.0</ele><time>2026-05-02T14:35:03.001Z</time></trkpt><trkpt lat="41.075450614864984" lon="14.558713103219034"><ele>246.0</ele><time>2026-05-02T14:35:04.001Z</time></trkpt><trkpt lat="41.07552058155864" lon="14.55854713785126"><ele>246.0</ele><time>2026-05-02T14:35:05.001Z</time></trkpt><trkpt lat="41.07557883750166" lon="14.558378813400738"><ele>246.0</ele><time>2026-05-02T14:35:06.001Z</time></trkpt><trkpt lat="41.07564988685019" lon="14.558214626421636"><ele>246.75</ele><time>2026-05-02T14:35:07.001Z</time></trkpt><trkpt lat="41.075694282844005" lon="14.55804452344232"><ele>247.5</ele><time>2026-05-02T14:35:08.001Z</time></trkpt><trkpt lat="41.07573335809006" lon="14.557874896854418"><ele>248.25</ele><time>2026-05-02T14:35:09.001Z</time></trkpt><trkpt lat="41.07575814063453" lon="14.557693619182492"><ele>249.0</ele><time>2026-05-02T14:35:10.001Z</time></trkpt><trkpt lat="41.07580949999464" lon="14.557544467654267"><ele>251.33333333333331</ele><time>2026-05-02T14:35:11.001Z</time></trkpt><trkpt lat="41.075853956279616" lon="14.557379510472872"><ele>253.66666666666666</ele><time>2026-05-02T14:35:12.001Z</time></trkpt><trkpt lat="41.07589600812398" lon="14.5571820167858"><ele>256.0</ele><time>2026-05-02T14:35:13.001Z</time></trkpt><trkpt lat="41.075947710644414" lon="14.556972248558704"><ele>256.66666666666663</ele><time>2026-05-02T14:35:14.001Z</time></trkpt><trkpt lat="41.07601005450028" lon="14.55673720735165"><ele>257.3333333333333</ele><time>2026-05-02T14:35:15.001Z</time></trkpt><trkpt lat="41.07607716306005" lon="14.55650561500512"><ele>258.0</ele><time>2026-05-02T14:35:16.001Z</time></trkpt><trkpt lat="41.07614674760942" lon="14.556293921205471"><ele>258.0</ele><time>2026-05-02T14:35:17.001Z</time></trkpt><trkpt lat="41.07620980251939" lon="14.556063446449325"><ele>258.0</ele><time>2026-05-02T14:35:18.001Z</time></trkpt><trkpt lat="41.076263530479835" lon="14.555867062970478"><ele>258.0</ele><time>2026-05-02T14:35:19.001Z</time></trkpt><trkpt lat="41.076315709897585" lon="14.555684840423647"><ele>258.0</ele><time>2026-05-02T14:35:20.001Z</time></trkpt><trkpt lat="41.076369849268616" lon="14.555495997133047"><ele>258.0</ele><time>2026-05-02T14:35:21.001Z</time></trkpt><trkpt lat="41.076420188416016" lon="14.555313900711248"><ele>258.0</ele><time>2026-05-02T14:35:22.001Z</time></trkpt><trkpt lat="41.07647131979293" lon="14.555119960500589"><ele>258.0</ele><time>2026-05-02T14:35:23.001Z</time></trkpt><trkpt lat="41.07651190347735" lon="14.554938425819822"><ele>258.0</ele><time>2026-05-02T14:35:24.001Z</time></trkpt><trkpt lat="41.07654537207549" lon="14.554757271717424"><ele>258.0</ele><time>2026-05-02T14:35:25.001Z</time></trkpt><trkpt lat="41.076586988962674" lon="14.554575301465364"><ele>258.0</ele><time>2026-05-02T14:35:26.001Z</time></trkpt><trkpt lat="41.076622263607725" lon="14.554381331700624"><ele>259.0</ele><time>2026-05-02T14:35:27.001Z</time></trkpt><trkpt lat="41.0766635647393" lon="14.554195612716951"><ele>260.0</ele><time>2026-05-02T14:35:28.001Z</time></trkpt><trkpt lat="41.076705603999024" lon="14.553985455540237"><ele>261.0</ele><time>2026-05-02T14:35:29.001Z</time></trkpt><trkpt lat="41.076754496290334" lon="14.553773794166057"><ele>261.0</ele><time>2026-05-02T14:35:30.001Z</time></trkpt><trkpt lat="41.076809664495364" lon="14.553558046346698"><ele>261.0</ele><time>2026-05-02T14:35:31.001Z</time></trkpt><trkpt lat="41.076880201301776" lon="14.553342033030471"><ele>261.0</ele><time>2026-05-02T14:35:32.001Z</time></trkpt><trkpt lat="41.07695065430507" lon="14.553139966887882"><ele>261.0</ele><time>2026-05-02T14:35:33.001Z</time></trkpt><trkpt lat="41.077019328386314" lon="14.552953789066434"><ele>261.0</ele><time>2026-05-02T14:35:34.001Z</time></trkpt><trkpt lat="41.07708078086396" lon="14.552770993349785"><ele>261.0</ele><time>2026-05-02T14:35:35.001Z</time></trkpt><trkpt lat="41.07713771654187" lon="14.552587790740318"><ele>261.5</ele><time>2026-05-02T14:35:36.001Z</time></trkpt><trkpt lat="41.07718994517932" lon="14.552405982283132"><ele>262.0</ele><time>2026-05-02T14:35:37.001Z</time></trkpt><trkpt lat="41.07724796152256" lon="14.55223281350481"><ele>262.5</ele><time>2026-05-02T14:35:38.001Z</time></trkpt><trkpt lat="41.07730832427059" lon="14.552058459936864"><ele>263.0</ele><time>2026-05-02T14:35:39.001Z</time></trkpt><trkpt lat="41.07734823191666" lon="14.551879924874518"><ele>263.0</ele><time>2026-05-02T14:35:40.001Z</time></trkpt><trkpt lat="41.07737507613455" lon="14.551702922181027"><ele>263.0</ele><time>2026-05-02T14:35:41.001Z</time></trkpt><trkpt lat="41.07740159772301" lon="14.551546120255574"><ele>263.0</ele><time>2026-05-02T14:35:42.001Z</time></trkpt><trkpt lat="41.07742752538576" lon="14.551396163783373"><ele>263.0</ele><time>2026-05-02T14:35:43.001Z</time></trkpt><trkpt lat="41.077446940542" lon="14.551276571396603"><ele>263.0</ele><time>2026-05-02T14:35:44.001Z</time></trkpt><trkpt lat="41.077469150704026" lon="14.551170354164238"><ele>263.0</ele><time>2026-05-02T14:35:45.001Z</time></trkpt><trkpt lat="41.07753217653729" lon="14.551082583116957"><ele>263.0</ele><time>2026-05-02T14:35:46.001Z</time></trkpt><trkpt lat="41.07758472321425" lon="14.550974654270199"><ele>263.0</ele><time>2026-05-02T14:35:47.002Z</time></trkpt><trkpt lat="41.07775841728071" lon="14.550939238819922"><ele>263.0</ele><time>2026-05-02T14:35:48.002Z</time></trkpt><trkpt lat="41.07788335631478" lon="14.55083768118699"><ele>263.0</ele><time>2026-05-02T14:35:49.002Z</time></trkpt><trkpt lat="41.07802504988262" lon="14.55076921483857"><ele>263.0</ele><time>2026-05-02T14:35:50.002Z</time></trkpt><trkpt lat="41.07816532752255" lon="14.550656508229766"><ele>263.0</ele><time>2026-05-02T14:35:51.002Z</time></trkpt><trkpt lat="41.07830689796396" lon="14.550526760918666"><ele>262.6666666666667</ele><time>2026-05-02T14:35:52.002Z</time></trkpt><trkpt lat="41.07844023768523" lon="14.550423000385306"><ele>262.3333333333333</ele><time>2026-05-02T14:35:53.002Z</time></trkpt><trkpt lat="41.078580099473776" lon="14.550311715981573"><ele>262.0</ele><time>2026-05-02T14:35:54.002Z</time></trkpt><trkpt lat="41.07872268684611" lon="14.550202128122576"><ele>262.0</ele><time>2026-05-02T14:35:55.002Z</time></trkpt><trkpt lat="41.078874457567544" lon="14.550097998027097"><ele>262.0</ele><time>2026-05-02T14:35:56.002Z</time></trkpt><trkpt lat="41.07902568902545" lon="14.549990831885832"><ele>262.0</ele><time>2026-05-02T14:35:57.002Z</time></trkpt><trkpt lat="41.079169072271206" lon="14.549882149582167"><ele>261.66666666666663</ele><time>2026-05-02T14:35:58.002Z</time></trkpt><trkpt lat="41.079319334788565" lon="14.549770937407908"><ele>261.3333333333333</ele><time>2026-05-02T14:35:59.002Z</time></trkpt><trkpt lat="41.079478672364914" lon="14.549659223934556"><ele>261.0</ele><time>2026-05-02T14:36:00.002Z</time></trkpt><trkpt lat="41.07962951468788" lon="14.54954549527347"><ele>261.0</ele><time>2026-05-02T14:36:01.002Z</time></trkpt><trkpt lat="41.07977778740888" lon="14.549426021930726"><ele>261.0</ele><time>2026-05-02T14:36:02.002Z</time></trkpt><trkpt lat="41.07992970527052" lon="14.549313766070524"><ele>261.0</ele><time>2026-05-02T14:36:03.002Z</time></trkpt><trkpt lat="41.08008282334681" lon="14.5492025032472"><ele>261.3333333333333</ele><time>2026-05-02T14:36:04.002Z</time></trkpt><trkpt lat="41.08024295101347" lon="14.549062040933585"><ele>261.66666666666663</ele><time>2026-05-02T14:36:05.002Z</time></trkpt><trkpt lat="41.080399531125195" lon="14.548940761545909"><ele>262.0</ele><time>2026-05-02T14:36:06.002Z</time></trkpt><trkpt lat="41.080545360799" lon="14.548832447845884"><ele>262.0</ele><time>2026-05-02T14:36:07.002Z</time></trkpt><trkpt lat="41.08069176504155" lon="14.548728160934076"><ele>262.0</ele><time>2026-05-02T14:36:08.002Z</time></trkpt><trkpt lat="41.080847578533294" lon="14.548612286935029"><ele>262.0</ele><time>2026-05-02T14:36:09.002Z</time></trkpt><trkpt lat="41.08099774578784" lon="14.548492549445104"><ele>261.66666666666663</ele><time>2026-05-02T14:36:10.002Z</time></trkpt><trkpt lat="41.081141529554024" lon="14.548382009536187"><ele>261.3333333333333</ele><time>2026-05-02T14:36:11.002Z</time></trkpt><trkpt lat="41.081285026974754" lon="14.548256445803931"><ele>261.0</ele><time>2026-05-02T14:36:12.002Z</time></trkpt><trkpt lat="41.08142693329248" lon="14.548146382992938"><ele>261.0</ele><time>2026-05-02T14:36:13.002Z</time></trkpt><trkpt lat="41.08157695856426" lon="14.548028700641716"><ele>261.0</ele><time>2026-05-02T14:36:14.002Z</time></trkpt><trkpt lat="41.08172236075111" lon="14.547906999846857"><ele>261.0</ele><time>2026-05-02T14:36:15.002Z</time></trkpt><trkpt lat="41.081872454386136" lon="14.54778074800233"><ele>261.0</ele><time>2026-05-02T14:36:16.002Z</time></trkpt><trkpt lat="41.082012132806646" lon="14.547652260909569"><ele>261.0</ele><time>2026-05-02T14:36:17.002Z</time></trkpt><trkpt lat="41.0821549300512" lon="14.547501207217042"><ele>261.0</ele><time>2026-05-02T14:36:18.002Z</time></trkpt><trkpt lat="41.08228270681566" lon="14.5473516483939"><ele>261.0</ele><time>2026-05-02T14:36:19.002Z</time></trkpt><trkpt lat="41.0823813239042" lon="14.547220872320331"><ele>261.0</ele><time>2026-05-02T14:36:20.002Z</time></trkpt><trkpt lat="41.082451810475646" lon="14.547125479293914"><ele>261.0</ele><time>2026-05-02T14:36:21.002Z</time></trkpt><trkpt lat="41.082513595158474" lon="14.547038918452227"><ele>261.0</ele><time>2026-05-02T14:36:22.002Z</time></trkpt><trkpt lat="41.082580629240404" lon="14.546943680273621"><ele>261.0</ele><time>2026-05-02T14:36:23Z</time></trkpt><trkpt lat="41.08264075543939" lon="14.546849536972978"><ele>260.8333333333333</ele><time>2026-05-02T14:36:24Z</time></trkpt><trkpt lat="41.082682423607395" lon="14.546742291699216"><ele>260.6666666666667</ele><time>2026-05-02T14:36:25Z</time></trkpt><trkpt lat="41.0827257277848" lon="14.54666503172822"><ele>260.5</ele><time>2026-05-02T14:36:26Z</time></trkpt><trkpt lat="41.08280050373929" lon="14.546628814456385"><ele>260.33333333333337</ele><time>2026-05-02T14:36:27Z</time></trkpt><trkpt lat="41.08283544497863" lon="14.546522551452407"><ele>260.1666666666667</ele><time>2026-05-02T14:36:28Z</time></trkpt><trkpt lat="41.082863179474316" lon="14.546398961538385"><ele>260.0</ele><time>2026-05-02T14:36:29Z</time></trkpt><trkpt lat="41.08288385001423" lon="14.546270213887475"><ele>260.25</ele><time>2026-05-02T14:36:30Z</time></trkpt><trkpt lat="41.08290932228352" lon="14.546134063671799"><ele>260.5</ele><time>2026-05-02T14:36:31Z</time></trkpt><trkpt lat="41.08294563180519" lon="14.545981827495044"><ele>260.75</ele><time>2026-05-02T14:36:32Z</time></trkpt><trkpt lat="41.08298396679526" lon="14.5458210907778"><ele>261.0</ele><time>2026-05-02T14:36:33Z</time></trkpt><trkpt lat="41.08302665315404" lon="14.545659613812191"><ele>261.0</ele><time>2026-05-02T14:36:34Z</time></trkpt><trkpt lat="41.08306143601804" lon="14.545486164471024"><ele>261.0</ele><time>2026-05-02T14:36:35Z</time></trkpt><trkpt lat="41.08309462789187" lon="14.545296068207861"><ele>261.0</ele><time>2026-05-02T14:36:36Z</time></trkpt><trkpt lat="41.08311497809014" lon="14.545083102198173"><ele>261.0</ele><time>2026-05-02T14:36:37Z</time></trkpt><trkpt lat="41.083129969320474" lon="14.544864046134443"><ele>261.6666666666667</ele><time>2026-05-02T14:36:38Z</time></trkpt><trkpt lat="41.08313087175514" lon="14.544644540153337"><ele>262.33333333333337</ele><time>2026-05-02T14:36:39Z</time></trkpt><trkpt lat="41.083143815539465" lon="14.544418600876533"><ele>263.0</ele><time>2026-05-02T14:36:40Z</time></trkpt><trkpt lat="41.08313743448029" lon="14.544170754639458"><ele>263.0</ele><time>2026-05-02T14:36:41Z</time></trkpt><trkpt lat="41.08312382699272" lon="14.54390669452254"><ele>263.0</ele><time>2026-05-02T14:36:42Z</time></trkpt><trkpt lat="41.08310654920894" lon="14.543666296139476"><ele>263.0</ele><time>2026-05-02T14:36:43Z</time></trkpt><trkpt lat="41.08309528752996" lon="14.543448031715961"><ele>263.0</ele><time>2026-05-02T14:36:44Z</time></trkpt><trkpt lat="41.08308603336714" lon="14.543242128582106"><ele>263.0</ele><time>2026-05-02T14:36:45Z</time></trkpt><trkpt lat="41.083086384320296" lon="14.543072552321865"><ele>263.0</ele><time>2026-05-02T14:36:46Z</time></trkpt><trkpt lat="41.08308632708669" lon="14.542935521832613"><ele>263.0</ele><time>2026-05-02T14:36:47Z</time></trkpt><trkpt lat="41.08308738666415" lon="14.542820520076145"><ele>263.0</ele><time>2026-05-02T14:36:48Z</time></trkpt><trkpt lat="41.08308746029725" lon="14.542706497775956"><ele>263.0</ele><time>2026-05-02T14:36:49Z</time></trkpt><trkpt lat="41.08310571071868" lon="14.54262500148508"><ele>263.0</ele><time>2026-05-02T14:36:50Z</time></trkpt><trkpt lat="41.0830902239238" lon="14.542479158359862"><ele>263.0</ele><time>2026-05-02T14:36:52Z</time></trkpt><trkpt lat="41.083253311375536" lon="14.542364651376284"><ele>263.0</ele><time>2026-05-02T14:36:53Z</time></trkpt><trkpt lat="41.083335871430194" lon="14.542297434748038"><ele>262.75</ele><time>2026-05-02T14:36:54Z</time></trkpt><trkpt lat="41.08343918510487" lon="14.542259187575807"><ele>262.5</ele><time>2026-05-02T14:36:55Z</time></trkpt><trkpt lat="41.083564101820976" lon="14.542243750100607"><ele>262.25</ele><time>2026-05-02T14:36:56Z</time></trkpt><trkpt lat="41.08369420816268" lon="14.542211889128358"><ele>262.0</ele><time>2026-05-02T14:36:57Z</time></trkpt><trkpt lat="41.083835157061486" lon="14.54224525239052"><ele>262.0</ele><time>2026-05-02T14:36:58.001Z</time></trkpt><trkpt lat="41.083997952931135" lon="14.542208620188822"><ele>262.0</ele><time>2026-05-02T14:36:59.001Z</time></trkpt><trkpt lat="41.084179664577704" lon="14.542164155051525"><ele>262.0</ele><time>2026-05-02T14:37:00.001Z</time></trkpt><trkpt lat="41.08438684625366" lon="14.542078346416286"><ele>262.0</ele><time>2026-05-02T14:37:01.001Z</time></trkpt><trkpt lat="41.08455904859734" lon="14.542043044304304"><ele>262.0</ele><time>2026-05-02T14:37:02.001Z</time></trkpt><trkpt lat="41.08471598264046" lon="14.542003691492535"><ele>262.0</ele><time>2026-05-02T14:37:03.001Z</time></trkpt><trkpt lat="41.084876090797486" lon="14.541972987964257"><ele>261.0</ele><time>2026-05-02T14:37:04.001Z</time></trkpt><trkpt lat="41.08503954651146" lon="14.541943031888527"><ele>260.0</ele><time>2026-05-02T14:37:05.001Z</time></trkpt><trkpt lat="41.085201355873366" lon="14.541913099426473"><ele>259.0</ele><time>2026-05-02T14:37:06.001Z</time></trkpt><trkpt lat="41.08538579368815" lon="14.541866919454502"><ele>259.0</ele><time>2026-05-02T14:37:07.001Z</time></trkpt><trkpt lat="41.08554865181516" lon="14.541833752710549"><ele>259.0</ele><time>2026-05-02T14:37:08.001Z</time></trkpt><trkpt lat="41.08568900849986" lon="14.541788456863705"><ele>259.0</ele><time>2026-05-02T14:37:09.001Z</time></trkpt><trkpt lat="41.085822286674244" lon="14.541771171088758"><ele>259.0</ele><time>2026-05-02T14:37:10.001Z</time></trkpt><trkpt lat="41.08595028608791" lon="14.541735574261356"><ele>259.5</ele><time>2026-05-02T14:37:11.001Z</time></trkpt><trkpt lat="41.08608839848545" lon="14.541786360664503"><ele>260.0</ele><time>2026-05-02T14:37:12.001Z</time></trkpt><trkpt lat="41.08621197565912" lon="14.541851041847531"><ele>260.5</ele><time>2026-05-02T14:37:13.001Z</time></trkpt><trkpt lat="41.0863359849302" lon="14.541894640292753"><ele>261.0</ele><time>2026-05-02T14:37:14.001Z</time></trkpt><trkpt lat="41.08647907439523" lon="14.541910141447008"><ele>262.75</ele><time>2026-05-02T14:37:15.001Z</time></trkpt><trkpt lat="41.08662276051044" lon="14.541879039760238"><ele>264.5</ele><time>2026-05-02T14:37:16.001Z</time></trkpt><trkpt lat="41.08674806663459" lon="14.541800674824218"><ele>266.25</ele><time>2026-05-02T14:37:17.001Z</time></trkpt><trkpt lat="41.08686099993108" lon="14.54170605260743"><ele>268.0</ele><time>2026-05-02T14:37:18.001Z</time></trkpt><trkpt lat="41.08697758802263" lon="14.541649086784911"><ele>268.0</ele><time>2026-05-02T14:37:19.001Z</time></trkpt><trkpt lat="41.087083898095074" lon="14.541652515156576"><ele>268.0</ele><time>2026-05-02T14:37:20.001Z</time></trkpt><trkpt lat="41.087205072765855" lon="14.541702604019756"><ele>268.0</ele><time>2026-05-02T14:37:21.001Z</time></trkpt><trkpt lat="41.087358728869646" lon="14.541742540838385"><ele>268.0</ele><time>2026-05-02T14:37:22.001Z</time></trkpt><trkpt lat="41.08752784832187" lon="14.541754169402315"><ele>270.0</ele><time>2026-05-02T14:37:23.001Z</time></trkpt><trkpt lat="41.087690544435944" lon="14.541733016697545"><ele>272.0</ele><time>2026-05-02T14:37:24.001Z</time></trkpt><trkpt lat="41.08784015467381" lon="14.541742060046833"><ele>274.0</ele><time>2026-05-02T14:37:25.001Z</time></trkpt><trkpt lat="41.087981885243124" lon="14.541806646225435"><ele>274.0</ele><time>2026-05-02T14:37:26.001Z</time></trkpt><trkpt lat="41.08814672170654" lon="14.541881707743046"><ele>274.0</ele><time>2026-05-02T14:37:27.001Z</time></trkpt><trkpt lat="41.088310335810014" lon="14.541958863849546"><ele>274.0</ele><time>2026-05-02T14:37:28.001Z</time></trkpt><trkpt lat="41.08847832242901" lon="14.542035400726444"><ele>265.66666666666663</ele><time>2026-05-02T14:37:29.001Z</time></trkpt><trkpt lat="41.08866079285513" lon="14.54209233742254"><ele>257.3333333333333</ele><time>2026-05-02T14:37:30.001Z</time></trkpt><trkpt lat="41.08884191501976" lon="14.542132690334673"><ele>249.0</ele><time>2026-05-02T14:37:31.001Z</time></trkpt><trkpt lat="41.089000187477424" lon="14.54216221373695"><ele>250.33333333333331</ele><time>2026-05-02T14:37:32.001Z</time></trkpt><trkpt lat="41.089157498903575" lon="14.542167616678622"><ele>251.66666666666666</ele><time>2026-05-02T14:37:33.001Z</time></trkpt><trkpt lat="41.089308832905274" lon="14.542162008066748"><ele>253.0</ele><time>2026-05-02T14:37:34.001Z</time></trkpt><trkpt lat="41.08945667259845" lon="14.542133279830097"><ele>253.0</ele><time>2026-05-02T14:37:35.001Z</time></trkpt><trkpt lat="41.08960381034315" lon="14.54210657846642"><ele>253.0</ele><time>2026-05-02T14:37:36.001Z</time></trkpt><trkpt lat="41.089750429074265" lon="14.54205972122134"><ele>253.0</ele><time>2026-05-02T14:37:37.001Z</time></trkpt><trkpt lat="41.08989943887506" lon="14.541990614830263"><ele>262.0</ele><time>2026-05-02T14:37:38.001Z</time></trkpt><trkpt lat="41.09002827685064" lon="14.5419135830366"><ele>271.0</ele><time>2026-05-02T14:37:39.001Z</time></trkpt><trkpt lat="41.090160055564795" lon="14.541802837791257"><ele>280.0</ele><time>2026-05-02T14:37:40.001Z</time></trkpt><trkpt lat="41.090293165719736" lon="14.541681476011073"><ele>280.0</ele><time>2026-05-02T14:37:41.001Z</time></trkpt><trkpt lat="41.09041880132571" lon="14.541519622105605"><ele>280.0</ele><time>2026-05-02T14:37:42.001Z</time></trkpt><trkpt lat="41.09055839984086" lon="14.541370896628699"><ele>280.0</ele><time>2026-05-02T14:37:43.001Z</time></trkpt><trkpt lat="41.09067641883467" lon="14.541211704952394"><ele>278.3333333333333</ele><time>2026-05-02T14:37:44.001Z</time></trkpt><trkpt lat="41.09078327308174" lon="14.541049821169562"><ele>276.6666666666667</ele><time>2026-05-02T14:37:45.001Z</time></trkpt><trkpt lat="41.0908705807183" lon="14.540863055540825"><ele>275.0</ele><time>2026-05-02T14:37:46.001Z</time></trkpt><trkpt lat="41.09096678933797" lon="14.540679406150318"><ele>275.0</ele><time>2026-05-02T14:37:47.001Z</time></trkpt><trkpt lat="41.09105594622835" lon="14.540481240740476"><ele>275.0</ele><time>2026-05-02T14:37:48.001Z</time></trkpt><trkpt lat="41.09113783881762" lon="14.540263970921025"><ele>275.0</ele><time>2026-05-02T14:37:49.002Z</time></trkpt><trkpt lat="41.09121072312737" lon="14.540046713833927"><ele>280.0</ele><time>2026-05-02T14:37:50.002Z</time></trkpt><trkpt lat="41.091264647750904" lon="14.539827407780614"><ele>285.0</ele><time>2026-05-02T14:37:51.002Z</time></trkpt><trkpt lat="41.09130643320509" lon="14.539605879029276"><ele>290.0</ele><time>2026-05-02T14:37:52.002Z</time></trkpt><trkpt lat="41.09133633238858" lon="14.539375396139691"><ele>292.6666666666667</ele><time>2026-05-02T14:37:53.002Z</time></trkpt><trkpt lat="41.09134998342476" lon="14.539144967118025"><ele>295.3333333333333</ele><time>2026-05-02T14:37:54.002Z</time></trkpt><trkpt lat="41.09134263107339" lon="14.538912284313218"><ele>298.0</ele><time>2026-05-02T14:37:55.002Z</time></trkpt><trkpt lat="41.0913423589074" lon="14.538672483644568"><ele>299.3333333333333</ele><time>2026-05-02T14:37:56.002Z</time></trkpt><trkpt lat="41.09136071471751" lon="14.538449118803006"><ele>300.6666666666667</ele><time>2026-05-02T14:37:57.002Z</time></trkpt><trkpt lat="41.09139104069825" lon="14.538245769690839"><ele>302.0</ele><time>2026-05-02T14:37:58.002Z</time></trkpt><trkpt lat="41.091432322662186" lon="14.538073236074444"><ele>302.0</ele><time>2026-05-02T14:37:59.002Z</time></trkpt><trkpt lat="41.091455138437226" lon="14.537912454685983"><ele>302.0</ele><time>2026-05-02T14:38:00.002Z</time></trkpt><trkpt lat="41.09146230589739" lon="14.537729338580943"><ele>302.0</ele><time>2026-05-02T14:38:01.002Z</time></trkpt><trkpt lat="41.09143596329605" lon="14.537549568357456"><ele>302.0</ele><time>2026-05-02T14:38:02.002Z</time></trkpt><trkpt lat="41.09139743328125" lon="14.537369782287286"><ele>302.8</ele><time>2026-05-02T14:38:03.002Z</time></trkpt><trkpt lat="41.09135713864352" lon="14.537217178508625"><ele>303.6</ele><time>2026-05-02T14:38:04.002Z</time></trkpt><trkpt lat="41.091326104831616" lon="14.537087599039538"><ele>304.40000000000003</ele><time>2026-05-02T14:38:05.002Z</time></trkpt><trkpt lat="41.091306802238606" lon="14.536964504606285"><ele>305.2</ele><time>2026-05-02T14:38:06.002Z</time></trkpt><trkpt lat="41.09135585442992" lon="14.53684083056929"><ele>306.0</ele><time>2026-05-02T14:38:07.002Z</time></trkpt><trkpt lat="41.09141179479837" lon="14.536732298955885"><ele>306.5</ele><time>2026-05-02T14:38:08.002Z</time></trkpt><trkpt lat="41.09151650287801" lon="14.536698677612012"><ele>307.0</ele><time>2026-05-02T14:38:09.002Z</time></trkpt><trkpt lat="41.091633837484345" lon="14.536656275971"><ele>307.5</ele><time>2026-05-02T14:38:10.002Z</time></trkpt><trkpt lat="41.09175267000292" lon="14.536588257045581"><ele>308.0</ele><time>2026-05-02T14:38:11.002Z</time></trkpt><trkpt lat="41.09187483651875" lon="14.536498105283096"><ele>304.0</ele><time>2026-05-02T14:38:12.002Z</time></trkpt><trkpt lat="41.091991642730605" lon="14.53639255304279"><ele>300.0</ele><time>2026-05-02T14:38:13.002Z</time></trkpt><trkpt lat="41.09209611772551" lon="14.536214814528334"><ele>296.0</ele><time>2026-05-02T14:38:14.002Z</time></trkpt><trkpt lat="41.092206283415045" lon="14.536009953894569"><ele>296.0</ele><time>2026-05-02T14:38:15.002Z</time></trkpt><trkpt lat="41.09230985648784" lon="14.535755018922002"><ele>296.0</ele><time>2026-05-02T14:38:16.002Z</time></trkpt><trkpt lat="41.09241014133817" lon="14.53551639584135"><ele>296.0</ele><time>2026-05-02T14:38:17.002Z</time></trkpt><trkpt lat="41.09249989144551" lon="14.53527402596055"><ele>290.6666666666667</ele><time>2026-05-02T14:38:18.002Z</time></trkpt><trkpt lat="41.09263151985999" lon="14.5350741402893"><ele>285.3333333333333</ele><time>2026-05-02T14:38:19.002Z</time></trkpt><trkpt lat="41.09274968206276" lon="14.534871305441815"><ele>280.0</ele><time>2026-05-02T14:38:20.002Z</time></trkpt><trkpt lat="41.09287172005379" lon="14.534656315903502"><ele>285.3333333333333</ele><time>2026-05-02T14:38:21.002Z</time></trkpt><trkpt lat="41.09299555545856" lon="14.534438159936261"><ele>290.6666666666667</ele><time>2026-05-02T14:38:22.002Z</time></trkpt><trkpt lat="41.09304991017278" lon="14.534150895714502"><ele>296.0</ele><time>2026-05-02T14:38:23.002Z</time></trkpt><trkpt lat="41.09313009922913" lon="14.533871020640614"><ele>299.33333333333337</ele><time>2026-05-02T14:38:24.002Z</time></trkpt><trkpt lat="41.093211114173364" lon="14.533596413800375"><ele>302.6666666666667</ele><time>2026-05-02T14:38:25.002Z</time></trkpt><trkpt lat="41.093280882818476" lon="14.533345901277274"><ele>306.0</ele><time>2026-05-02T14:38:26.002Z</time></trkpt><trkpt lat="41.09335770716087" lon="14.533118742642193"><ele>297.6666666666667</ele><time>2026-05-02T14:38:27.002Z</time></trkpt><trkpt lat="41.09339670982059" lon="14.532887192051296"><ele>289.33333333333337</ele><time>2026-05-02T14:38:28.002Z</time></trkpt><trkpt lat="41.09342170305856" lon="14.532664795520276"><ele>281.0</ele><time>2026-05-02T14:38:29Z</time></trkpt><trkpt lat="41.093437392685985" lon="14.53243732834715"><ele>281.0</ele><time>2026-05-02T14:38:30Z</time></trkpt><trkpt lat="41.093473563167656" lon="14.532212033562242"><ele>281.0</ele><time>2026-05-02T14:38:31Z</time></trkpt><trkpt lat="41.093557256610865" lon="14.531992748095156"><ele>281.0</ele><time>2026-05-02T14:38:32Z</time></trkpt><trkpt lat="41.09366797563877" lon="14.531799040616692"><ele>283.6666666666667</ele><time>2026-05-02T14:38:33Z</time></trkpt><trkpt lat="41.09376129366563" lon="14.531612647313167"><ele>286.3333333333333</ele><time>2026-05-02T14:38:34Z</time></trkpt><trkpt lat="41.09383513661973" lon="14.531412766343053"><ele>289.0</ele><time>2026-05-02T14:38:35Z</time></trkpt><trkpt lat="41.093879239986144" lon="14.531232153496976"><ele>288.75</ele><time>2026-05-02T14:38:36Z</time></trkpt><trkpt lat="41.09390048498464" lon="14.531059203675614"><ele>288.5</ele><time>2026-05-02T14:38:37Z</time></trkpt><trkpt lat="41.09389547169801" lon="14.530902229335412"><ele>288.25</ele><time>2026-05-02T14:38:38Z</time></trkpt><trkpt lat="41.093849994403335" lon="14.530720629581735"><ele>288.0</ele><time>2026-05-02T14:38:39Z</time></trkpt><trkpt lat="41.09375521428008" lon="14.530535365704484"><ele>282.3333333333333</ele><time>2026-05-02T14:38:40Z</time></trkpt><trkpt lat="41.09364921486593" lon="14.530354330027034"><ele>276.66666666666663</ele><time>2026-05-02T14:38:41Z</time></trkpt><trkpt lat="41.093543606614205" lon="14.530200472843715"><ele>271.0</ele><time>2026-05-02T14:38:42Z</time></trkpt><trkpt lat="41.093433217462504" lon="14.530053284316914"><ele>271.0</ele><time>2026-05-02T14:38:43Z</time></trkpt><trkpt lat="41.09329285513437" lon="14.529926054541914"><ele>271.0</ele><time>2026-05-02T14:38:44Z</time></trkpt><trkpt lat="41.093140672338855" lon="14.529825653431354"><ele>271.0</ele><time>2026-05-02T14:38:45Z</time></trkpt><trkpt lat="41.092978143517456" lon="14.529750949815103"><ele>275.5</ele><time>2026-05-02T14:38:46Z</time></trkpt><trkpt lat="41.09282570135498" lon="14.529698303366526"><ele>280.0</ele><time>2026-05-02T14:38:47Z</time></trkpt><trkpt lat="41.09268783841965" lon="14.529676909413256"><ele>284.5</ele><time>2026-05-02T14:38:48Z</time></trkpt><trkpt lat="41.09257185113146" lon="14.52966162655923"><ele>289.0</ele><time>2026-05-02T14:38:49Z</time></trkpt><trkpt lat="41.092506679963016" lon="14.529631911981602"><ele>287.59999999999997</ele><time>2026-05-02T14:38:50Z</time></trkpt><trkpt lat="41.09242797324595" lon="14.529518024664087"><ele>286.2</ele><time>2026-05-02T14:38:52Z</time></trkpt><trkpt lat="41.09244212699689" lon="14.529427572228682"><ele>284.79999999999995</ele><time>2026-05-02T14:38:53.001Z</time></trkpt><trkpt lat="41.09248487989958" lon="14.529311673754421"><ele>283.4</ele><time>2026-05-02T14:38:54.001Z</time></trkpt><trkpt lat="41.09255444733681" lon="14.52917673168585"><ele>282.0</ele><time>2026-05-02T14:38:55.001Z</time></trkpt><trkpt lat="41.09264595178716" lon="14.529053444642628"><ele>282.0</ele><time>2026-05-02T14:38:56.001Z</time></trkpt><trkpt lat="41.09271419375728" lon="14.528869751583878"><ele>282.0</ele><time>2026-05-02T14:38:57.001Z</time></trkpt><trkpt lat="41.09272116091818" lon="14.528690029204741"><ele>282.0</ele><time>2026-05-02T14:38:58.001Z</time></trkpt><trkpt lat="41.092705830498" lon="14.528514504551516"><ele>282.0</ele><time>2026-05-02T14:38:59.001Z</time></trkpt><trkpt lat="41.09266825025787" lon="14.528375327265955"><ele>280.5</ele><time>2026-05-02T14:39:00.001Z</time></trkpt><trkpt lat="41.09259651493434" lon="14.528255069698378"><ele>279.0</ele><time>2026-05-02T14:39:01.001Z</time></trkpt><trkpt lat="41.09250374854016" lon="14.52816323450458"><ele>277.5</ele><time>2026-05-02T14:39:02.001Z</time></trkpt><trkpt lat="41.09237459081768" lon="14.52809557539072"><ele>276.0</ele><time>2026-05-02T14:39:03.001Z</time></trkpt><trkpt lat="41.092259847416784" lon="14.52803470190442"><ele>280.0</ele><time>2026-05-02T14:39:04.001Z</time></trkpt><trkpt lat="41.09218671109921" lon="14.527947561261517"><ele>284.0</ele><time>2026-05-02T14:39:05.001Z</time></trkpt><trkpt lat="41.09213667848894" lon="14.52784122902138"><ele>288.0</ele><time>2026-05-02T14:39:06.001Z</time></trkpt><trkpt lat="41.09211332848728" lon="14.527705446164212"><ele>292.0</ele><time>2026-05-02T14:39:07.001Z</time></trkpt><trkpt lat="41.09212716922002" lon="14.527522817496777"><ele>296.0</ele><time>2026-05-02T14:39:08.001Z</time></trkpt><trkpt lat="41.092143911668806" lon="14.527311960710236"><ele>296.0</ele><time>2026-05-02T14:39:09.001Z</time></trkpt><trkpt lat="41.09212296824473" lon="14.527094111401984"><ele>296.0</ele><time>2026-05-02T14:39:10.001Z</time></trkpt><trkpt lat="41.092073941853585" lon="14.526860572006575"><ele>296.0</ele><time>2026-05-02T14:39:11.001Z</time></trkpt><trkpt lat="41.09200240576756" lon="14.5266045220379"><ele>293.5</ele><time>2026-05-02T14:39:12.001Z</time></trkpt><trkpt lat="41.09195703395347" lon="14.526424891582478"><ele>291.0</ele><time>2026-05-02T14:39:13.001Z</time></trkpt><trkpt lat="41.09191836018929" lon="14.526265387142328"><ele>288.5</ele><time>2026-05-02T14:39:14.001Z</time></trkpt><trkpt lat="41.0918705017372" lon="14.526136380290733"><ele>286.0</ele><time>2026-05-02T14:39:15.001Z</time></trkpt><trkpt lat="41.0917762108467" lon="14.526025918136478"><ele>286.66666666666663</ele><time>2026-05-02T14:39:16.001Z</time></trkpt><trkpt lat="41.09161461094023" lon="14.525902247998756"><ele>287.3333333333333</ele><time>2026-05-02T14:39:17.001Z</time></trkpt><trkpt lat="41.09145394243893" lon="14.525813662064195"><ele>288.0</ele><time>2026-05-02T14:39:18.001Z</time></trkpt><trkpt lat="41.09131609477612" lon="14.525724304433053"><ele>288.0</ele><time>2026-05-02T14:39:19.001Z</time></trkpt><trkpt lat="41.09122254139903" lon="14.525642877589952"><ele>288.0</ele><time>2026-05-02T14:39:20.001Z</time></trkpt><trkpt lat="41.09116928616963" lon="14.525549567194831"><ele>288.0</ele><time>2026-05-02T14:39:21.001Z</time></trkpt><trkpt lat="41.09114754652006" lon="14.525456577632859"><ele>288.0</ele><time>2026-05-02T14:39:22.001Z</time></trkpt><trkpt lat="41.091159091439614" lon="14.525357546855638"><ele>288.0</ele><time>2026-05-02T14:39:23.001Z</time></trkpt><trkpt lat="41.091212678929395" lon="14.525238935024639"><ele>288.6</ele><time>2026-05-02T14:39:24.001Z</time></trkpt><trkpt lat="41.0912783593023" lon="14.52509962982562"><ele>289.20000000000005</ele><time>2026-05-02T14:39:25.001Z</time></trkpt><trkpt lat="41.09134677497514" lon="14.524959080301642"><ele>289.8</ele><time>2026-05-02T14:39:26.001Z</time></trkpt><trkpt lat="41.09143033665554" lon="14.524859816477205"><ele>290.40000000000003</ele><time>2026-05-02T14:39:27.001Z</time></trkpt><trkpt lat="41.09149555567129" lon="14.524824787662892"><ele>291.0</ele><time>2026-05-02T14:39:28.001Z</time></trkpt><trkpt lat="41.09160572076955" lon="14.524826044936841"><ele>287.0</ele><time>2026-05-02T14:39:29.001Z</time></trkpt><trkpt lat="41.09174561932074" lon="14.524839314480737"><ele>283.0</ele><time>2026-05-02T14:39:30.001Z</time></trkpt><trkpt lat="41.091884258556895" lon="14.524851604029402"><ele>279.0</ele><time>2026-05-02T14:39:31.001Z</time></trkpt><trkpt lat="41.09201640776084" lon="14.524862978312143"><ele>275.0</ele><time>2026-05-02T14:39:32.001Z</time></trkpt><trkpt lat="41.09214013123243" lon="14.524889797346935"><ele>275.0</ele><time>2026-05-02T14:39:33.001Z</time></trkpt><trkpt lat="41.09226056613797" lon="14.524958929253678"><ele>275.0</ele><time>2026-05-02T14:39:34.001Z</time></trkpt><trkpt lat="41.092370896062064" lon="14.525065290626769"><ele>275.0</ele><time>2026-05-02T14:39:35.001Z</time></trkpt><trkpt lat="41.09246296118735" lon="14.525223373742856"><ele>275.0</ele><time>2026-05-02T14:39:36.001Z</time></trkpt><trkpt lat="41.092559397327776" lon="14.525406245319557"><ele>272.6666666666667</ele><time>2026-05-02T14:39:37.001Z</time></trkpt><trkpt lat="41.09265015632786" lon="14.525584336310443"><ele>270.3333333333333</ele><time>2026-05-02T14:39:38.001Z</time></trkpt><trkpt lat="41.0927318445985" lon="14.525738011025725"><ele>268.0</ele><time>2026-05-02T14:39:39.001Z</time></trkpt><trkpt lat="41.092817088160885" lon="14.525896562751441"><ele>268.0</ele><time>2026-05-02T14:39:40.001Z</time></trkpt><trkpt lat="41.0929205548695" lon="14.52604680599433"><ele>268.0</ele><time>2026-05-02T14:39:41.001Z</time></trkpt><trkpt lat="41.09305232670697" lon="14.52619192066709"><ele>268.0</ele><time>2026-05-02T14:39:42.001Z</time></trkpt><trkpt lat="41.09320481368524" lon="14.526337796042645"><ele>267.0</ele><time>2026-05-02T14:39:43.001Z</time></trkpt><trkpt lat="41.09335990200162" lon="14.526465433121372"><ele>266.0</ele><time>2026-05-02T14:39:44.001Z</time></trkpt><trkpt lat="41.09352047123834" lon="14.526582973616312"><ele>265.0</ele><time>2026-05-02T14:39:45.001Z</time></trkpt><trkpt lat="41.09368855128711" lon="14.526693876919703"><ele>265.0</ele><time>2026-05-02T14:39:46.001Z</time></trkpt><trkpt lat="41.09387148736818" lon="14.526799049946924"><ele>265.0</ele><time>2026-05-02T14:39:47.001Z</time></trkpt><trkpt lat="41.09406863331627" lon="14.526895324159703"><ele>265.0</ele><time>2026-05-02T14:39:48.002Z</time></trkpt><trkpt lat="41.09427979873159" lon="14.526980677401891"><ele>259.5</ele><time>2026-05-02T14:39:49.002Z</time></trkpt><trkpt lat="41.09449473222723" lon="14.52707070036462"><ele>254.0</ele><time>2026-05-02T14:39:50.002Z</time></trkpt><trkpt lat="41.09471175071209" lon="14.52716008527961"><ele>254.0</ele><time>2026-05-02T14:39:51.002Z</time></trkpt><trkpt lat="41.09490692224073" lon="14.527238955287105"><ele>254.0</ele><time>2026-05-02T14:39:52.002Z</time></trkpt><trkpt lat="41.09508211588753" lon="14.52731528865185"><ele>254.0</ele><time>2026-05-02T14:39:53.002Z</time></trkpt><trkpt lat="41.0952442512797" lon="14.527389807869005"><ele>256.75</ele><time>2026-05-02T14:39:54.002Z</time></trkpt><trkpt lat="41.09539539256198" lon="14.527448082539797"><ele>259.5</ele><time>2026-05-02T14:39:55.002Z</time></trkpt><trkpt lat="41.09553342225193" lon="14.527494757726329"><ele>262.25</ele><time>2026-05-02T14:39:56.002Z</time></trkpt><trkpt lat="41.09567193275894" lon="14.527525870730477"><ele>265.0</ele><time>2026-05-02T14:39:57.002Z</time></trkpt><trkpt lat="41.09581945122169" lon="14.527523154299164"><ele>265.66666666666663</ele><time>2026-05-02T14:39:58.002Z</time></trkpt><trkpt lat="41.095971353689805" lon="14.527489550761725"><ele>266.3333333333333</ele><time>2026-05-02T14:39:59.002Z</time></trkpt><trkpt lat="41.096125163949466" lon="14.5274319657462"><ele>267.0</ele><time>2026-05-02T14:40:00.002Z</time></trkpt><trkpt lat="41.09628405149917" lon="14.527360756053282"><ele>267.0</ele><time>2026-05-02T14:40:01.002Z</time></trkpt><trkpt lat="41.09643508760073" lon="14.527284655524909"><ele>267.0</ele><time>2026-05-02T14:40:02.002Z</time></trkpt><trkpt lat="41.096582986895726" lon="14.527161514037546"><ele>267.0</ele><time>2026-05-02T14:40:03.002Z</time></trkpt><trkpt lat="41.096719743456404" lon="14.527051932522838"><ele>269.3333333333333</ele><time>2026-05-02T14:40:04.002Z</time></trkpt><trkpt lat="41.09684227739348" lon="14.526915845714441"><ele>271.66666666666663</ele><time>2026-05-02T14:40:05.002Z</time></trkpt><trkpt lat="41.0969546990376" lon="14.526784921097397"><ele>274.0</ele><time>2026-05-02T14:40:06.002Z</time></trkpt><trkpt lat="41.09703455287063" lon="14.52663018167527"><ele>274.0</ele><time>2026-05-02T14:40:07.002Z</time></trkpt><trkpt lat="41.09708559272976" lon="14.526468629030203"><ele>274.0</ele><time>2026-05-02T14:40:08.002Z</time></trkpt><trkpt lat="41.09713030031706" lon="14.52628788470233"><ele>274.0</ele><time>2026-05-02T14:40:09.002Z</time></trkpt><trkpt lat="41.09714956433177" lon="14.526111952518747"><ele>274.0</ele><time>2026-05-02T14:40:10.002Z</time></trkpt><trkpt lat="41.09714312814825" lon="14.525964652810035"><ele>276.75</ele><time>2026-05-02T14:40:11.002Z</time></trkpt><trkpt lat="41.09714965720124" lon="14.52583072061363"><ele>279.5</ele><time>2026-05-02T14:40:12.002Z</time></trkpt><trkpt lat="41.097192773541494" lon="14.525685551111826"><ele>282.25</ele><time>2026-05-02T14:40:13.002Z</time></trkpt><trkpt lat="41.09727232332983" lon="14.525543622031886"><ele>285.0</ele><time>2026-05-02T14:40:14.002Z</time></trkpt><trkpt lat="41.0973653760241" lon="14.52538590711747"><ele>283.5</ele><time>2026-05-02T14:40:15.002Z</time></trkpt><trkpt lat="41.09750562416213" lon="14.525284120170308"><ele>282.0</ele><time>2026-05-02T14:40:16.002Z</time></trkpt><trkpt lat="41.09761690445067" lon="14.525293731669096"><ele>280.5</ele><time>2026-05-02T14:40:17.002Z</time></trkpt><trkpt lat="41.09773664620603" lon="14.525313001857976"><ele>279.0</ele><time>2026-05-02T14:40:18.002Z</time></trkpt><trkpt lat="41.09788064955165" lon="14.52532007205572"><ele>279.0</ele><time>2026-05-02T14:40:19.002Z</time></trkpt><trkpt lat="41.09799327206925" lon="14.525331218277605"><ele>279.0</ele><time>2026-05-02T14:40:20.002Z</time></trkpt><trkpt lat="41.09812348181082" lon="14.525313066728804"><ele>279.0</ele><time>2026-05-02T14:40:21.002Z</time></trkpt><trkpt lat="41.09830045766875" lon="14.525260560246839"><ele>279.0</ele><time>2026-05-02T14:40:22.002Z</time></trkpt><trkpt lat="41.09845903959601" lon="14.525210358690575"><ele>275.6666666666667</ele><time>2026-05-02T14:40:23.002Z</time></trkpt><trkpt lat="41.098615905716294" lon="14.525180361585711"><ele>272.33333333333337</ele><time>2026-05-02T14:40:24.002Z</time></trkpt><trkpt lat="41.09882683535893" lon="14.525157146319554"><ele>269.0</ele><time>2026-05-02T14:40:25.002Z</time></trkpt><trkpt lat="41.09906464680798" lon="14.525154347326604"><ele>264.5</ele><time>2026-05-02T14:40:26.002Z</time></trkpt><trkpt lat="41.09931999456783" lon="14.525174624995067"><ele>260.0</ele><time>2026-05-02T14:40:27.002Z</time></trkpt><trkpt lat="41.099542461972284" lon="14.52518807654576"><ele>260.0</ele><time>2026-05-02T14:40:28.002Z</time></trkpt><trkpt lat="41.09971231313114" lon="14.525206511494629"><ele>260.0</ele><time>2026-05-02T14:40:29.002Z</time></trkpt><trkpt lat="41.09986339860823" lon="14.525201813766314"><ele>260.0</ele><time>2026-05-02T14:40:30.002Z</time></trkpt><trkpt lat="41.09999682976797" lon="14.525220892235476"><ele>258.6</ele><time>2026-05-02T14:40:31.002Z</time></trkpt><trkpt lat="41.10011967460873" lon="14.525229890900432"><ele>257.2</ele><time>2026-05-02T14:40:32.002Z</time></trkpt><trkpt lat="41.10020999330232" lon="14.52520808825485"><ele>255.8</ele><time>2026-05-02T14:40:33.002Z</time></trkpt><trkpt lat="41.10030364104461" lon="14.525164047116295"><ele>254.4</ele><time>2026-05-02T14:40:34.002Z</time></trkpt><trkpt lat="41.10039257716307" lon="14.52509504150869"><ele>253.0</ele><time>2026-05-02T14:40:35.001Z</time></trkpt><trkpt lat="41.10046961293806" lon="14.524990904300106"><ele>253.0</ele><time>2026-05-02T14:40:36.001Z</time></trkpt><trkpt lat="41.10051855523772" lon="14.524876297378905"><ele>253.0</ele><time>2026-05-02T14:40:37.001Z</time></trkpt><trkpt lat="41.10053618606738" lon="14.524753234999121"><ele>253.0</ele><time>2026-05-02T14:40:38.001Z</time></trkpt><trkpt lat="41.10051894310734" lon="14.524626044534743"><ele>253.0</ele><time>2026-05-02T14:40:39.001Z</time></trkpt><trkpt lat="41.10045496033705" lon="14.524495158726591"><ele>253.0</ele><time>2026-05-02T14:40:40.001Z</time></trkpt><trkpt lat="41.10037855906707" lon="14.524366945838617"><ele>252.0</ele><time>2026-05-02T14:40:41.001Z</time></trkpt><trkpt lat="41.10025320777468" lon="14.524248468638051"><ele>251.0</ele><time>2026-05-02T14:40:42.001Z</time></trkpt><trkpt lat="41.10012381988189" lon="14.52413424580073"><ele>250.0</ele><time>2026-05-02T14:40:43.001Z</time></trkpt><trkpt lat="41.099997438937955" lon="14.523963457644939"><ele>256.0</ele><time>2026-05-02T14:40:44.001Z</time></trkpt><trkpt lat="41.0999059308569" lon="14.523785350973174"><ele>262.0</ele><time>2026-05-02T14:40:45.001Z</time></trkpt><trkpt lat="41.09982304424578" lon="14.523567991112294"><ele>268.0</ele><time>2026-05-02T14:40:46.001Z</time></trkpt><trkpt lat="41.099746033961715" lon="14.523340234061425"><ele>268.0</ele><time>2026-05-02T14:40:47.001Z</time></trkpt><trkpt lat="41.09967472992037" lon="14.523095681118532"><ele>268.0</ele><time>2026-05-02T14:40:48.001Z</time></trkpt><trkpt lat="41.09960486542341" lon="14.522839693209143"><ele>268.0</ele><time>2026-05-02T14:40:49.001Z</time></trkpt><trkpt lat="41.09952813967127" lon="14.522588564110787"><ele>263.3333333333333</ele><time>2026-05-02T14:40:50.001Z</time></trkpt><trkpt lat="41.09947704016888" lon="14.522333370509426"><ele>258.6666666666667</ele><time>2026-05-02T14:40:51.001Z</time></trkpt><trkpt lat="41.099377088695505" lon="14.522083141020946"><ele>254.0</ele><time>2026-05-02T14:40:52.001Z</time></trkpt><trkpt lat="41.09930834901846" lon="14.521855778594361"><ele>248.33333333333334</ele><time>2026-05-02T14:40:53.001Z</time></trkpt><trkpt lat="41.099246448106655" lon="14.521635723780047"><ele>242.66666666666669</ele><time>2026-05-02T14:40:54.001Z</time></trkpt><trkpt lat="41.099182759159326" lon="14.521420490583829"><ele>237.0</ele><time>2026-05-02T14:40:55.001Z</time></trkpt><trkpt lat="41.09912184729379" lon="14.52121737454099"><ele>241.33333333333331</ele><time>2026-05-02T14:40:56.001Z</time></trkpt><trkpt lat="41.09904537086294" lon="14.521026722626615"><ele>245.66666666666666</ele><time>2026-05-02T14:40:57.001Z</time></trkpt><trkpt lat="41.09895859870667" lon="14.520829110210999"><ele>250.0</ele><time>2026-05-02T14:40:58.001Z</time></trkpt><trkpt lat="41.098833104315226" lon="14.520609122675662"><ele>250.0</ele><time>2026-05-02T14:40:59.001Z</time></trkpt><trkpt lat="41.098721549907324" lon="14.520412683395566"><ele>250.0</ele><time>2026-05-02T14:41:00.001Z</time></trkpt><trkpt lat="41.09861794635907" lon="14.520248962880267"><ele>250.0</ele><time>2026-05-02T14:41:01.001Z</time></trkpt><trkpt lat="41.098516401581435" lon="14.52010702547936"><ele>246.5</ele><time>2026-05-02T14:41:02.001Z</time></trkpt><trkpt lat="41.09841570561742" lon="14.519973491463805"><ele>243.0</ele><time>2026-05-02T14:41:03.001Z</time></trkpt><trkpt lat="41.09829422125715" lon="14.519900922383243"><ele>239.5</ele><time>2026-05-02T14:41:04.001Z</time></trkpt><trkpt lat="41.098156528956046" lon="14.519803496763135"><ele>236.0</ele><time>2026-05-02T14:41:05.001Z</time></trkpt><trkpt lat="41.098001679509416" lon="14.519707233388926"><ele>236.0</ele><time>2026-05-02T14:41:06.001Z</time></trkpt><trkpt lat="41.09782625310183" lon="14.51962831220962"><ele>236.0</ele><time>2026-05-02T14:41:07.001Z</time></trkpt><trkpt lat="41.097650346202656" lon="14.519559993254921"><ele>236.0</ele><time>2026-05-02T14:41:08.001Z</time></trkpt><trkpt lat="41.09747086732889" lon="14.519496182872908"><ele>226.33333333333334</ele><time>2026-05-02T14:41:09.001Z</time></trkpt><trkpt lat="41.097309882160175" lon="14.519451526106096"><ele>216.66666666666669</ele><time>2026-05-02T14:41:10.001Z</time></trkpt><trkpt lat="41.097154914912196" lon="14.519416541094404"><ele>207.0</ele><time>2026-05-02T14:41:11.001Z</time></trkpt><trkpt lat="41.0970052588311" lon="14.519380119812046"><ele>207.0</ele><time>2026-05-02T14:41:12.001Z</time></trkpt><trkpt lat="41.096839207869515" lon="14.519385179911481"><ele>207.0</ele><time>2026-05-02T14:41:13.001Z</time></trkpt><trkpt lat="41.096691287397725" lon="14.519405772729911"><ele>207.0</ele><time>2026-05-02T14:41:14.001Z</time></trkpt><trkpt lat="41.09656484320544" lon="14.519431840990709"><ele>207.0</ele><time>2026-05-02T14:41:15.001Z</time></trkpt><trkpt lat="41.09645435735587" lon="14.519449277011494"><ele>206.5</ele><time>2026-05-02T14:41:16.001Z</time></trkpt><trkpt lat="41.09634287513648" lon="14.519445385046417"><ele>206.0</ele><time>2026-05-02T14:41:17.001Z</time></trkpt><trkpt lat="41.0962341122776" lon="14.51941106966794"><ele>205.5</ele><time>2026-05-02T14:41:18.001Z</time></trkpt><trkpt lat="41.09611486044264" lon="14.51935715088098"><ele>205.0</ele><time>2026-05-02T14:41:19.001Z</time></trkpt><trkpt lat="41.09601288021721" lon="14.519278775242134"><ele>205.0</ele><time>2026-05-02T14:41:20.001Z</time></trkpt><trkpt lat="41.09589863939163" lon="14.519219847068452"><ele>205.0</ele><time>2026-05-02T14:41:21.001Z</time></trkpt><trkpt lat="41.09578114747696" lon="14.519199708965969"><ele>205.0</ele><time>2026-05-02T14:41:22.001Z</time></trkpt><trkpt lat="41.09564223314306" lon="14.519193967715491"><ele>205.0</ele><time>2026-05-02T14:41:23.001Z</time></trkpt><trkpt lat="41.09550842803054" lon="14.519246106444896"><ele>204.5</ele><time>2026-05-02T14:41:24.001Z</time></trkpt><trkpt lat="41.09540234221151" lon="14.519308729713948"><ele>204.0</ele><time>2026-05-02T14:41:25.001Z</time></trkpt><trkpt lat="41.09531529365418" lon="14.519399398968947"><ele>203.5</ele><time>2026-05-02T14:41:26.001Z</time></trkpt><trkpt lat="41.09525928426374" lon="14.51954508615571"><ele>203.0</ele><time>2026-05-02T14:41:27.001Z</time></trkpt><trkpt lat="41.09522295791882" lon="14.519714388907596"><ele>203.0</ele><time>2026-05-02T14:41:28.001Z</time></trkpt><trkpt lat="41.09519077037723" lon="14.519881012748153"><ele>203.0</ele><time>2026-05-02T14:41:29.001Z</time></trkpt><trkpt lat="41.09516275992498" lon="14.520056729849001"><ele>203.0</ele><time>2026-05-02T14:41:30.001Z</time></trkpt><trkpt lat="41.095140922484525" lon="14.520206662278564"><ele>203.0</ele><time>2026-05-02T14:41:31.001Z</time></trkpt><trkpt lat="41.09512536940043" lon="14.520330672187379"><ele>206.0</ele><time>2026-05-02T14:41:32.001Z</time></trkpt><trkpt lat="41.09510025742052" lon="14.520423397537863"><ele>209.0</ele><time>2026-05-02T14:41:33.001Z</time></trkpt><trkpt lat="41.09505952448656" lon="14.520519899508777"><ele>212.0</ele><time>2026-05-02T14:41:34.001Z</time></trkpt><trkpt lat="41.0949588343557" lon="14.520565841790546"><ele>215.0</ele><time>2026-05-02T14:41:35.001Z</time></trkpt><trkpt lat="41.09484834078895" lon="14.520577904322286"><ele>218.0</ele><time>2026-05-02T14:41:36.001Z</time></trkpt><trkpt lat="41.09473635193926" lon="14.520559590358273"><ele>216.75</ele><time>2026-05-02T14:41:37.002Z</time></trkpt><trkpt lat="41.094624060275756" lon="14.520495481949647"><ele>215.5</ele><time>2026-05-02T14:41:38.002Z</time></trkpt><trkpt lat="41.09452914411011" lon="14.520396435379952"><ele>214.25</ele><time>2026-05-02T14:41:39.002Z</time></trkpt><trkpt lat="41.09443944881927" lon="14.520251312069643"><ele>213.0</ele><time>2026-05-02T14:41:40.002Z</time></trkpt><trkpt lat="41.09434603841084" lon="14.52005996709772"><ele>213.0</ele><time>2026-05-02T14:41:41.002Z</time></trkpt><trkpt lat="41.09424246182998" lon="14.519858958808305"><ele>213.0</ele><time>2026-05-02T14:41:42.002Z</time></trkpt><trkpt lat="41.09413357437167" lon="14.51963663890252"><ele>213.0</ele><time>2026-05-02T14:41:43.002Z</time></trkpt><trkpt lat="41.09405449056291" lon="14.519372647354048"><ele>224.0</ele><time>2026-05-02T14:41:44.002Z</time></trkpt><trkpt lat="41.093958328318315" lon="14.51910526929617"><ele>235.0</ele><time>2026-05-02T14:41:45.002Z</time></trkpt><trkpt lat="41.09386131910628" lon="14.518830445226016"><ele>226.0</ele><time>2026-05-02T14:41:46.002Z</time></trkpt><trkpt lat="41.09376086290719" lon="14.518544478423463"><ele>217.0</ele><time>2026-05-02T14:41:47.002Z</time></trkpt><trkpt lat="41.09365973138296" lon="14.518256340902472"><ele>217.0</ele><time>2026-05-02T14:41:48.002Z</time></trkpt><trkpt lat="41.09355595655919" lon="14.517959991479962"><ele>217.0</ele><time>2026-05-02T14:41:49.002Z</time></trkpt><trkpt lat="41.09346008923514" lon="14.51768539263443"><ele>214.33333333333331</ele><time>2026-05-02T14:41:50.002Z</time></trkpt><trkpt lat="41.093354506874384" lon="14.517438183693603"><ele>211.66666666666669</ele><time>2026-05-02T14:41:51.002Z</time></trkpt><trkpt lat="41.0932686957115" lon="14.517207493015112"><ele>209.0</ele><time>2026-05-02T14:41:52.002Z</time></trkpt><trkpt lat="41.093198821314296" lon="14.517016145907053"><ele>209.0</ele><time>2026-05-02T14:41:53.002Z</time></trkpt><trkpt lat="41.09312312501893" lon="14.516835991475661"><ele>209.0</ele><time>2026-05-02T14:41:54.002Z</time></trkpt><trkpt lat="41.09302973002314" lon="14.51666544946149"><ele>209.0</ele><time>2026-05-02T14:41:55.002Z</time></trkpt><trkpt lat="41.0929143039923" lon="14.51650655859339"><ele>209.0</ele><time>2026-05-02T14:41:56.002Z</time></trkpt><trkpt lat="41.09277974881969" lon="14.516370890080852"><ele>209.0</ele><time>2026-05-02T14:41:57.002Z</time></trkpt><trkpt lat="41.09263925607134" lon="14.516279058585086"><ele>209.0</ele><time>2026-05-02T14:41:58.002Z</time></trkpt><trkpt lat="41.09246819000498" lon="14.516172187006292"><ele>207.66666666666669</ele><time>2026-05-02T14:41:59.002Z</time></trkpt><trkpt lat="41.09233723048984" lon="14.516091064394727"><ele>206.33333333333331</ele><time>2026-05-02T14:42:00.002Z</time></trkpt><trkpt lat="41.09219084374287" lon="14.516016026608355"><ele>205.0</ele><time>2026-05-02T14:42:01.002Z</time></trkpt><trkpt lat="41.092053550967655" lon="14.515910551684666"><ele>205.0</ele><time>2026-05-02T14:42:02.002Z</time></trkpt><trkpt lat="41.09192992643845" lon="14.515791142441751"><ele>205.0</ele><time>2026-05-02T14:42:03.002Z</time></trkpt><trkpt lat="41.091824678809786" lon="14.515608883963834"><ele>205.0</ele><time>2026-05-02T14:42:04.002Z</time></trkpt><trkpt lat="41.09171625544422" lon="14.515410162499105"><ele>209.0</ele><time>2026-05-02T14:42:05.002Z</time></trkpt><trkpt lat="41.09160647665914" lon="14.515213214965126"><ele>213.0</ele><time>2026-05-02T14:42:06.002Z</time></trkpt><trkpt lat="41.09148826940894" lon="14.515062782678177"><ele>217.0</ele><time>2026-05-02T14:42:07.002Z</time></trkpt><trkpt lat="41.091375274202534" lon="14.514914003787494"><ele>217.0</ele><time>2026-05-02T14:42:08.002Z</time></trkpt><trkpt lat="41.091268514678845" lon="14.514768659178428"><ele>217.0</ele><time>2026-05-02T14:42:09.002Z</time></trkpt><trkpt lat="41.09117338634921" lon="14.514585604873963"><ele>217.0</ele><time>2026-05-02T14:42:10.002Z</time></trkpt><trkpt lat="41.09110691857753" lon="14.51439339139837"><ele>210.0</ele><time>2026-05-02T14:42:11.002Z</time></trkpt><trkpt lat="41.09104186337137" lon="14.514206639048924"><ele>203.0</ele><time>2026-05-02T14:42:12.002Z</time></trkpt><trkpt lat="41.09097254814801" lon="14.514020784009565"><ele>196.0</ele><time>2026-05-02T14:42:13.002Z</time></trkpt><trkpt lat="41.09088093971614" lon="14.513823316825942"><ele>200.66666666666666</ele><time>2026-05-02T14:42:14.002Z</time></trkpt><trkpt lat="41.09076337456483" lon="14.513614263463223"><ele>205.33333333333331</ele><time>2026-05-02T14:42:15.002Z</time></trkpt><trkpt lat="41.09064124472987" lon="14.51340423411071"><ele>210.0</ele><time>2026-05-02T14:42:16.002Z</time></trkpt><trkpt lat="41.09050919818796" lon="14.513203772972924"><ele>210.0</ele><time>2026-05-02T14:42:17.002Z</time></trkpt><trkpt lat="41.09038290721358" lon="14.513016204965938"><ele>210.0</ele><time>2026-05-02T14:42:18.002Z</time></trkpt><trkpt lat="41.0902718656637" lon="14.512843968852293"><ele>210.0</ele><time>2026-05-02T14:42:19.002Z</time></trkpt><trkpt lat="41.090143656673526" lon="14.512683617302493"><ele>206.33333333333331</ele><time>2026-05-02T14:42:20.002Z</time></trkpt><trkpt lat="41.08999224100523" lon="14.512531895298604"><ele>202.66666666666666</ele><time>2026-05-02T14:42:21.002Z</time></trkpt><trkpt lat="41.089829606048625" lon="14.512383000835522"><ele>199.0</ele><time>2026-05-02T14:42:22.002Z</time></trkpt><trkpt lat="41.08967370751017" lon="14.512240899514246"><ele>199.0</ele><time>2026-05-02T14:42:23.002Z</time></trkpt><trkpt lat="41.0894947105232" lon="14.512106371126912"><ele>199.0</ele><time>2026-05-02T14:42:24.002Z</time></trkpt><trkpt lat="41.08933518419903" lon="14.51199532054078"><ele>199.0</ele><time>2026-05-02T14:42:25.002Z</time></trkpt><trkpt lat="41.089202776389556" lon="14.5119042611393"><ele>196.39999999999998</ele><time>2026-05-02T14:42:26.002Z</time></trkpt><trkpt lat="41.08907101968235" lon="14.511839665629688"><ele>193.8</ele><time>2026-05-02T14:42:27.002Z</time></trkpt><trkpt lat="41.08897223596255" lon="14.511790150165938"><ele>191.2</ele><time>2026-05-02T14:42:28.002Z</time></trkpt><trkpt lat="41.08889806178912" lon="14.511721593535201"><ele>188.60000000000002</ele><time>2026-05-02T14:42:29.002Z</time></trkpt><trkpt lat="41.08883112717259" lon="14.511655862820348"><ele>186.0</ele><time>2026-05-02T14:42:30.002Z</time></trkpt><trkpt lat="41.08878202037785" lon="14.511515815199385"><ele>186.0</ele><time>2026-05-02T14:42:31.003Z</time></trkpt><trkpt lat="41.0887442138752" lon="14.511343469581641"><ele>186.0</ele><time>2026-05-02T14:42:32.003Z</time></trkpt><trkpt lat="41.08873136924984" lon="14.511154033127273"><ele>186.0</ele><time>2026-05-02T14:42:33.003Z</time></trkpt><trkpt lat="41.088716787431075" lon="14.510976716657757"><ele>186.0</ele><time>2026-05-02T14:42:34.003Z</time></trkpt><trkpt lat="41.08868637143832" lon="14.510817059721072"><ele>183.0</ele><time>2026-05-02T14:42:35.003Z</time></trkpt><trkpt lat="41.088629664093595" lon="14.51064587266859"><ele>180.0</ele><time>2026-05-02T14:42:36.003Z</time></trkpt><trkpt lat="41.088525336784855" lon="14.5104427021736"><ele>177.0</ele><time>2026-05-02T14:42:37.003Z</time></trkpt><trkpt lat="41.08842327318242" lon="14.510238177207782"><ele>174.33333333333334</ele><time>2026-05-02T14:42:38.003Z</time></trkpt><trkpt lat="41.08829448569343" lon="14.510025659676026"><ele>171.66666666666669</ele><time>2026-05-02T14:42:39.003Z</time></trkpt><trkpt lat="41.088187449209215" lon="14.509841929174005"><ele>169.0</ele><time>2026-05-02T14:42:40.003Z</time></trkpt><trkpt lat="41.088093788078005" lon="14.509704113300707"><ele>172.0</ele><time>2026-05-02T14:42:41.001Z</time></trkpt><trkpt lat="41.08802483477196" lon="14.509560970276233"><ele>175.0</ele><time>2026-05-02T14:42:42.001Z</time></trkpt><trkpt lat="41.087973783374586" lon="14.509418172736586"><ele>178.0</ele><time>2026-05-02T14:42:43.001Z</time></trkpt><trkpt lat="41.087950352915506" lon="14.509267072543894"><ele>181.0</ele><time>2026-05-02T14:42:44.001Z</time></trkpt><trkpt lat="41.08795882733446" lon="14.509090508106924"><ele>181.0</ele><time>2026-05-02T14:42:45.001Z</time></trkpt><trkpt lat="41.087997991963086" lon="14.508935149699667"><ele>181.0</ele><time>2026-05-02T14:42:46.001Z</time></trkpt><trkpt lat="41.087995725248405" lon="14.50879846361598"><ele>181.0</ele><time>2026-05-02T14:42:47.001Z</time></trkpt><trkpt lat="41.08799889101865" lon="14.508665828044029"><ele>181.0</ele><time>2026-05-02T14:42:48.001Z</time></trkpt><trkpt lat="41.087949896332695" lon="14.508544912880357"><ele>181.0</ele><time>2026-05-02T14:42:49.001Z</time></trkpt><trkpt lat="41.087863321954565" lon="14.5084519288025"><ele>182.75</ele><time>2026-05-02T14:42:50.001Z</time></trkpt><trkpt lat="41.08777366629725" lon="14.50839048296211"><ele>184.5</ele><time>2026-05-02T14:42:51.001Z</time></trkpt><trkpt lat="41.08763228141078" lon="14.508348789833407"><ele>186.25</ele><time>2026-05-02T14:42:52.001Z</time></trkpt><trkpt lat="41.087521940470985" lon="14.50828204946859"><ele>188.0</ele><time>2026-05-02T14:42:53.001Z</time></trkpt><trkpt lat="41.08741956163385" lon="14.508167077781662"><ele>188.0</ele><time>2026-05-02T14:42:54.001Z</time></trkpt><trkpt lat="41.087348487040266" lon="14.508031867398536"><ele>188.0</ele><time>2026-05-02T14:42:55.001Z</time></trkpt><trkpt lat="41.08730810611494" lon="14.507846530536478"><ele>188.0</ele><time>2026-05-02T14:42:56.001Z</time></trkpt><trkpt lat="41.08727188729405" lon="14.507661056596541"><ele>188.0</ele><time>2026-05-02T14:42:57.001Z</time></trkpt><trkpt lat="41.087227015870745" lon="14.50749312059751"><ele>184.25</ele><time>2026-05-02T14:42:58.001Z</time></trkpt><trkpt lat="41.08715695073608" lon="14.50734720009745"><ele>180.5</ele><time>2026-05-02T14:42:59.001Z</time></trkpt><trkpt lat="41.087064843867296" lon="14.507217113314068"><ele>176.75</ele><time>2026-05-02T14:43:00.001Z</time></trkpt><trkpt lat="41.086955666023115" lon="14.507089635968702"><ele>173.0</ele><time>2026-05-02T14:43:01.001Z</time></trkpt><trkpt lat="41.08681716928054" lon="14.506925912398673"><ele>175.0</ele><time>2026-05-02T14:43:02.001Z</time></trkpt><trkpt lat="41.086691255143336" lon="14.506789284906768"><ele>177.0</ele><time>2026-05-02T14:43:03.001Z</time></trkpt><trkpt lat="41.08658706958708" lon="14.506650065312316"><ele>179.0</ele><time>2026-05-02T14:43:04.001Z</time></trkpt><trkpt lat="41.08649584683524" lon="14.506513924806018"><ele>181.0</ele><time>2026-05-02T14:43:05.001Z</time></trkpt><trkpt lat="41.086420870570336" lon="14.506357608220409"><ele>180.0</ele><time>2026-05-02T14:43:06.001Z</time></trkpt><trkpt lat="41.086361804173684" lon="14.50618221403941"><ele>179.0</ele><time>2026-05-02T14:43:07.001Z</time></trkpt><trkpt lat="41.086318903994325" lon="14.506007552230566"><ele>178.0</ele><time>2026-05-02T14:43:08.001Z</time></trkpt><trkpt lat="41.08627815426449" lon="14.505823355566235"><ele>177.0</ele><time>2026-05-02T14:43:09.001Z</time></trkpt><trkpt lat="41.08623380189146" lon="14.505624225107281"><ele>177.0</ele><time>2026-05-02T14:43:10.001Z</time></trkpt><trkpt lat="41.08619456554829" lon="14.505437932362094"><ele>177.0</ele><time>2026-05-02T14:43:11.001Z</time></trkpt><trkpt lat="41.08615141437593" lon="14.505272920530535"><ele>177.0</ele><time>2026-05-02T14:43:12.001Z</time></trkpt><trkpt lat="41.08611067575328" lon="14.505101144472421"><ele>177.0</ele><time>2026-05-02T14:43:13.001Z</time></trkpt><trkpt lat="41.08607831449036" lon="14.5049293789324"><ele>174.75</ele><time>2026-05-02T14:43:14.001Z</time></trkpt><trkpt lat="41.08604857656012" lon="14.504790157152808"><ele>172.5</ele><time>2026-05-02T14:43:15.001Z</time></trkpt><trkpt lat="41.08602205219552" lon="14.504652135296272"><ele>170.25</ele><time>2026-05-02T14:43:16.001Z</time></trkpt><trkpt lat="41.08597107630373" lon="14.504498517894103"><ele>168.0</ele><time>2026-05-02T14:43:17.001Z</time></trkpt><trkpt lat="41.08593316608311" lon="14.504364984289404"><ele>165.8</ele><time>2026-05-02T14:43:18.001Z</time></trkpt><trkpt lat="41.08587673527812" lon="14.504196222067925"><ele>163.60000000000002</ele><time>2026-05-02T14:43:19.001Z</time></trkpt><trkpt lat="41.08584004665488" lon="14.504083654216121"><ele>161.39999999999998</ele><time>2026-05-02T14:43:20.001Z</time></trkpt><trkpt lat="41.08581315117512" lon="14.503968708263105"><ele>159.2</ele><time>2026-05-02T14:43:21.001Z</time></trkpt><trkpt lat="41.08579325209008" lon="14.503840558946804"><ele>157.0</ele><time>2026-05-02T14:43:22.001Z</time></trkpt><trkpt lat="41.08578596500452" lon="14.503713788439176"><ele>155.5</ele><time>2026-05-02T14:43:23.001Z</time></trkpt><trkpt lat="41.08579361966847" lon="14.503603774584402"><ele>154.0</ele><time>2026-05-02T14:43:24.001Z</time></trkpt><trkpt lat="41.085810673872864" lon="14.503498054579588"><ele>152.5</ele><time>2026-05-02T14:43:25.001Z</time></trkpt><trkpt lat="41.08583211478963" lon="14.50339499201693"><ele>151.0</ele><time>2026-05-02T14:43:26.001Z</time></trkpt><trkpt lat="41.08587038630039" lon="14.503299357983689"><ele>149.5</ele><time>2026-05-02T14:43:27.001Z</time></trkpt><trkpt lat="41.085938927635176" lon="14.503174980423248"><ele>148.0</ele><time>2026-05-02T14:43:29.001Z</time></trkpt><trkpt lat="41.08601490603721" lon="14.503044101944859"><ele>148.0</ele><time>2026-05-02T14:43:31.001Z</time></trkpt><trkpt lat="41.0860575444628" lon="14.502979732094174"><ele>148.0</ele><time>2026-05-02T14:43:32.001Z</time></trkpt><trkpt lat="41.086123278604056" lon="14.502920707563527"><ele>148.0</ele><time>2026-05-02T14:43:34.001Z</time></trkpt><trkpt lat="41.086186744795185" lon="14.502860788758325"><ele>148.0</ele><time>2026-05-02T14:43:38.001Z</time></trkpt><trkpt lat="41.08625018670559" lon="14.502790225958528"><ele>148.0</ele><time>2026-05-02T14:43:41.001Z</time></trkpt><trkpt lat="41.0863336838123" lon="14.502715976265849"><ele>148.0</ele><time>2026-05-02T14:43:44.001Z</time></trkpt><trkpt lat="41.08640609649606" lon="14.502688435084405"><ele>148.20000000000002</ele><time>2026-05-02T14:43:46.001Z</time></trkpt><trkpt lat="41.08648785799443" lon="14.502654451921039"><ele>148.4</ele><time>2026-05-02T14:43:48.001Z</time></trkpt><trkpt lat="41.08657286918107" lon="14.502649615574192"><ele>148.60000000000002</ele><time>2026-05-02T14:43:51.001Z</time></trkpt><trkpt lat="41.08664454635485" lon="14.502584598827221"><ele>148.8</ele><time>2026-05-02T14:43:54.001Z</time></trkpt><trkpt lat="41.08674100253162" lon="14.502651465983277"><ele>149.0</ele><time>2026-05-02T14:43:56.001Z</time></trkpt><trkpt lat="41.0867990347961" lon="14.502745447800313"><ele>149.0</ele><time>2026-05-02T14:43:58.001Z</time></trkpt><trkpt lat="41.086876642028464" lon="14.502872618442513"><ele>149.0</ele><time>2026-05-02T14:44:00.001Z</time></trkpt><trkpt lat="41.086967628838906" lon="14.502997169989147"><ele>149.0</ele><time>2026-05-02T14:44:02.001Z</time></trkpt><trkpt lat="41.087012118405596" lon="14.503073024748176"><ele>149.0</ele><time>2026-05-02T14:44:03.001Z</time></trkpt><trkpt lat="41.08705559081174" lon="14.503141569709909"><ele>149.0</ele><time>2026-05-02T14:44:04.001Z</time></trkpt><trkpt lat="41.08710212613909" lon="14.503218213855233"><ele>148.85714285714286</ele><time>2026-05-02T14:44:05.001Z</time></trkpt><trkpt lat="41.08714223505176" lon="14.503287978146428"><ele>148.7142857142857</ele><time>2026-05-02T14:44:06.001Z</time></trkpt><trkpt lat="41.087193439291354" lon="14.503357131342042"><ele>148.57142857142856</ele><time>2026-05-02T14:44:07.002Z</time></trkpt><trkpt lat="41.087257123669524" lon="14.503413057119252"><ele>148.42857142857142</ele><time>2026-05-02T14:44:08.002Z</time></trkpt><trkpt lat="41.08732252858007" lon="14.503452170246963"><ele>148.28571428571428</ele><time>2026-05-02T14:44:09.002Z</time></trkpt><trkpt lat="41.087382863776725" lon="14.50347921661144"><ele>148.14285714285714</ele><time>2026-05-02T14:44:10.002Z</time></trkpt><trkpt lat="41.08744566534033" lon="14.503495161923125"><ele>148.0</ele><time>2026-05-02T14:44:11.002Z</time></trkpt><trkpt lat="41.08750985950033" lon="14.503511458447125"><ele>148.6</ele><time>2026-05-02T14:44:12.002Z</time></trkpt><trkpt lat="41.08756264106075" lon="14.503559309373374"><ele>149.20000000000002</ele><time>2026-05-02T14:44:13.002Z</time></trkpt><trkpt lat="41.08766264234777" lon="14.503588000091415"><ele>149.8</ele><time>2026-05-02T14:44:15.002Z</time></trkpt><trkpt lat="41.08775435579475" lon="14.503603699680236"><ele>150.4</ele><time>2026-05-02T14:44:17.002Z</time></trkpt><trkpt lat="41.08785132966877" lon="14.50363297883619"><ele>151.0</ele><time>2026-05-02T14:44:19.002Z</time></trkpt><trkpt lat="41.087949914579056" lon="14.503660712937478"><ele>151.0</ele><time>2026-05-02T14:44:21.002Z</time></trkpt><trkpt lat="41.088011082571725" lon="14.503687988235152"><ele>151.0</ele><time>2026-05-02T14:44:23.002Z</time></trkpt><trkpt lat="41.08808477006605" lon="14.503723348528982"><ele>151.0</ele><time>2026-05-02T14:44:25.002Z</time></trkpt><trkpt lat="41.08818284449785" lon="14.5037587753596"><ele>151.0</ele><time>2026-05-02T14:44:27.002Z</time></trkpt><trkpt lat="41.088246205553276" lon="14.503766119597225"><ele>151.0</ele><time>2026-05-02T14:44:28.002Z</time></trkpt><trkpt lat="41.088309191150074" lon="14.503767545608696"><ele>151.0</ele><time>2026-05-02T14:44:29.002Z</time></trkpt><trkpt lat="41.08842319266184" lon="14.503806606581703"><ele>151.2</ele><time>2026-05-02T14:44:31.002Z</time></trkpt><trkpt lat="41.08853033795911" lon="14.503847054334736"><ele>151.39999999999998</ele><time>2026-05-02T14:44:33.002Z</time></trkpt><trkpt lat="41.08859178739543" lon="14.503866780345206"><ele>151.6</ele><time>2026-05-02T14:44:34.002Z</time></trkpt><trkpt lat="41.08869678706933" lon="14.503844263279921"><ele>151.79999999999998</ele><time>2026-05-02T14:44:36.002Z</time></trkpt><trkpt lat="41.08876356918009" lon="14.503725221974888"><ele>152.0</ele><time>2026-05-02T14:44:38.002Z</time></trkpt><trkpt lat="41.08878763409504" lon="14.503624662217886"><ele>151.66666666666666</ele><time>2026-05-02T14:44:40.002Z</time></trkpt><trkpt lat="41.08881249099146" lon="14.503523828983147"><ele>151.33333333333331</ele><time>2026-05-02T14:44:42.002Z</time></trkpt><trkpt lat="41.08883914416315" lon="14.503404206581601"><ele>151.0</ele><time>2026-05-02T14:44:44.002Z</time></trkpt><trkpt lat="41.08885913787562" lon="14.50332141673946"><ele>150.66666666666666</ele><time>2026-05-02T14:44:46.002Z</time></trkpt><trkpt lat="41.08889805793063" lon="14.503203644601465"><ele>150.33333333333334</ele><time>2026-05-02T14:44:48Z</time></trkpt><trkpt lat="41.088916173495434" lon="14.503123128029053"><ele>150.0</ele><time>2026-05-02T14:44:50Z</time></trkpt><trkpt lat="41.088936574352324" lon="14.503031220615025"><ele>150.0</ele><time>2026-05-02T14:44:52Z</time></trkpt><trkpt lat="41.08895943627727" lon="14.50292822588464"><ele>150.0</ele><time>2026-05-02T14:44:54Z</time></trkpt><trkpt lat="41.08898433017395" lon="14.50281607699637"><ele>150.0</ele><time>2026-05-02T14:44:56Z</time></trkpt><trkpt lat="41.08900867073708" lon="14.502706420902637"><ele>150.0</ele><time>2026-05-02T14:44:58Z</time></trkpt><trkpt lat="41.089018018217246" lon="14.50259378781281"><ele>150.0</ele><time>2026-05-02T14:45:00Z</time></trkpt><trkpt lat="41.08905431909691" lon="14.502475579305404"><ele>150.0</ele><time>2026-05-02T14:45:02Z</time></trkpt><trkpt lat="41.08908288148664" lon="14.502361909688458"><ele>149.2</ele><time>2026-05-02T14:45:04Z</time></trkpt><trkpt lat="41.08911272733517" lon="14.502258265504265"><ele>148.4</ele><time>2026-05-02T14:45:06Z</time></trkpt><trkpt lat="41.089137903546074" lon="14.502142175688086"><ele>147.6</ele><time>2026-05-02T14:45:08Z</time></trkpt><trkpt lat="41.08917422241261" lon="14.50202843468244"><ele>146.8</ele><time>2026-05-02T14:45:10Z</time></trkpt><trkpt lat="41.089209260385495" lon="14.501891080099233"><ele>146.0</ele><time>2026-05-02T14:45:12Z</time></trkpt><trkpt lat="41.08924010085688" lon="14.501747687916652"><ele>147.8</ele><time>2026-05-02T14:45:14Z</time></trkpt><trkpt lat="41.089274489804524" lon="14.501599863915864"><ele>149.6</ele><time>2026-05-02T14:45:16.001Z</time></trkpt><trkpt lat="41.08930575680792" lon="14.501456904642762"><ele>151.4</ele><time>2026-05-02T14:45:18.001Z</time></trkpt><trkpt lat="41.08931676009465" lon="14.501373346696882"><ele>153.2</ele><time>2026-05-02T14:45:19.001Z</time></trkpt><trkpt lat="41.08935256549705" lon="14.50121997129754"><ele>155.0</ele><time>2026-05-02T14:45:21.001Z</time></trkpt><trkpt lat="41.089382462417014" lon="14.50107337660562"><ele>155.16666666666666</ele><time>2026-05-02T14:45:23.001Z</time></trkpt><trkpt lat="41.08942067019907" lon="14.500994049285007"><ele>155.33333333333331</ele><time>2026-05-02T14:45:25.001Z</time></trkpt><trkpt lat="41.089439032011946" lon="14.500887363835956"><ele>155.5</ele><time>2026-05-02T14:45:27.001Z</time></trkpt><trkpt lat="41.08945964907613" lon="14.50078065003354"><ele>155.66666666666666</ele><time>2026-05-02T14:45:29.001Z</time></trkpt><trkpt lat="41.089496299622674" lon="14.50065848148434"><ele>155.83333333333334</ele><time>2026-05-02T14:45:31.001Z</time></trkpt><trkpt lat="41.08951708833776" lon="14.500560450683283"><ele>156.0</ele><time>2026-05-02T14:45:33.001Z</time></trkpt><trkpt lat="41.089557894215034" lon="14.500431403245198"><ele>156.33333333333334</ele><time>2026-05-02T14:45:35.001Z</time></trkpt><trkpt lat="41.08957105120014" lon="14.500327363340324"><ele>156.66666666666666</ele><time>2026-05-02T14:45:37.001Z</time></trkpt><trkpt lat="41.08959776397785" lon="14.500238593964163"><ele>157.0</ele><time>2026-05-02T14:45:39.001Z</time></trkpt><trkpt lat="41.089610525244105" lon="14.500143430457422"><ele>157.33333333333331</ele><time>2026-05-02T14:45:41.001Z</time></trkpt><trkpt lat="41.08962060905627" lon="14.500036204920521"><ele>157.66666666666666</ele><time>2026-05-02T14:45:45.001Z</time></trkpt><trkpt lat="41.089648075413685" lon="14.499933553579382"><ele>158.0</ele><time>2026-05-02T14:45:48.001Z</time></trkpt><trkpt lat="41.08977506064547" lon="14.499923856124664"><ele>158.0</ele><time>2026-05-02T14:45:51.001Z</time></trkpt><trkpt lat="41.089879739970456" lon="14.499980348070638"><ele>158.0</ele><time>2026-05-02T14:45:53.001Z</time></trkpt><trkpt lat="41.08994258088119" lon="14.500005149029157"><ele>158.0</ele><time>2026-05-02T14:45:54.001Z</time></trkpt><trkpt lat="41.09001545406335" lon="14.500028480618527"><ele>158.0</ele><time>2026-05-02T14:45:55.001Z</time></trkpt><trkpt lat="41.09008903727077" lon="14.500064048768198"><ele>158.0</ele><time>2026-05-02T14:45:56.001Z</time></trkpt><trkpt lat="41.090171915888774" lon="14.500078241160827"><ele>158.0</ele><time>2026-05-02T14:45:57.001Z</time></trkpt><trkpt lat="41.090262354290985" lon="14.500079387068322"><ele>158.0</ele><time>2026-05-02T14:45:58.001Z</time></trkpt><trkpt lat="41.0903420111488" lon="14.500094481002044"><ele>158.0</ele><time>2026-05-02T14:45:59.001Z</time></trkpt><trkpt lat="41.090431709558615" lon="14.500110843153545"><ele>158.0</ele><time>2026-05-02T14:46:00.001Z</time></trkpt><trkpt lat="41.09050408425569" lon="14.50011560291425"><ele>158.0</ele><time>2026-05-02T14:46:01.001Z</time></trkpt><trkpt lat="41.090616037696755" lon="14.500119038099657"><ele>158.0</ele><time>2026-05-02T14:46:03.001Z</time></trkpt><trkpt lat="41.09068222716748" lon="14.500121817640801"><ele>158.0</ele><time>2026-05-02T14:46:04.001Z</time></trkpt><trkpt lat="41.09081924400537" lon="14.5001287503123"><ele>157.6</ele><time>2026-05-02T14:46:06.001Z</time></trkpt><trkpt lat="41.09091841520478" lon="14.500114509735095"><ele>157.20000000000002</ele><time>2026-05-02T14:46:07.001Z</time></trkpt><trkpt lat="41.09103416624071" lon="14.500136533136232"><ele>156.8</ele><time>2026-05-02T14:46:08.001Z</time></trkpt><trkpt lat="41.09114661373844" lon="14.500145677822333"><ele>156.4</ele><time>2026-05-02T14:46:09.001Z</time></trkpt><trkpt lat="41.091254270531614" lon="14.50015956862303"><ele>156.0</ele><time>2026-05-02T14:46:10.001Z</time></trkpt><trkpt lat="41.09136138447296" lon="14.500158778761284"><ele>156.0</ele><time>2026-05-02T14:46:11.001Z</time></trkpt><trkpt lat="41.09145261541771" lon="14.500139308900115"><ele>156.0</ele><time>2026-05-02T14:46:12.001Z</time></trkpt><trkpt lat="41.091546125514064" lon="14.50010088597496"><ele>156.0</ele><time>2026-05-02T14:46:13.001Z</time></trkpt><trkpt lat="41.09162505661501" lon="14.500054453411236"><ele>156.0</ele><time>2026-05-02T14:46:14.001Z</time></trkpt><trkpt lat="41.09169476470819" lon="14.500008890084262"><ele>156.0</ele><time>2026-05-02T14:46:15.001Z</time></trkpt><trkpt lat="41.09174904355689" lon="14.499954721681029"><ele>156.0</ele><time>2026-05-02T14:46:16.001Z</time></trkpt><trkpt lat="41.09180622892195" lon="14.499909134497557"><ele>156.0</ele><time>2026-05-02T14:46:17.001Z</time></trkpt><trkpt lat="41.09185870222037" lon="14.499852531131763"><ele>156.0</ele><time>2026-05-02T14:46:18.001Z</time></trkpt><trkpt lat="41.09192182194143" lon="14.499798766295545"><ele>156.0</ele><time>2026-05-02T14:46:19.001Z</time></trkpt><trkpt lat="41.09199584349527" lon="14.499719071637777"><ele>156.0</ele><time>2026-05-02T14:46:20.001Z</time></trkpt><trkpt lat="41.09207604086214" lon="14.499646296363931"><ele>156.0</ele><time>2026-05-02T14:46:21.001Z</time></trkpt><trkpt lat="41.09215293720474" lon="14.499586020264687"><ele>156.0</ele><time>2026-05-02T14:46:22.001Z</time></trkpt><trkpt lat="41.092220759530335" lon="14.499508229705071"><ele>156.0</ele><time>2026-05-02T14:46:23.001Z</time></trkpt><trkpt lat="41.092281553414566" lon="14.499400146786293"><ele>156.0</ele><time>2026-05-02T14:46:24.001Z</time></trkpt><trkpt lat="41.09233542141063" lon="14.49929264926869"><ele>156.0</ele><time>2026-05-02T14:46:25.001Z</time></trkpt><trkpt lat="41.09237038260064" lon="14.49917474446737"><ele>156.0</ele><time>2026-05-02T14:46:26.002Z</time></trkpt><trkpt lat="41.09239939040682" lon="14.499070495131079"><ele>156.0</ele><time>2026-05-02T14:46:27.002Z</time></trkpt><trkpt lat="41.09242355419357" lon="14.498978032775275"><ele>155.0</ele><time>2026-05-02T14:46:28.002Z</time></trkpt><trkpt lat="41.09245050113276" lon="14.498876113716229"><ele>154.0</ele><time>2026-05-02T14:46:29.002Z</time></trkpt><trkpt lat="41.09249173042678" lon="14.498775948266099"><ele>153.0</ele><time>2026-05-02T14:46:30.002Z</time></trkpt><trkpt lat="41.092519030438034" lon="14.498664398011996"><ele>152.0</ele><time>2026-05-02T14:46:31.002Z</time></trkpt><trkpt lat="41.09256986388888" lon="14.498531979061857"><ele>151.0</ele><time>2026-05-02T14:46:32.002Z</time></trkpt><trkpt lat="41.092621872581496" lon="14.498399050069889"><ele>151.0</ele><time>2026-05-02T14:46:33.002Z</time></trkpt><trkpt lat="41.092675614451146" lon="14.498263462352352"><ele>151.0</ele><time>2026-05-02T14:46:34.002Z</time></trkpt><trkpt lat="41.09272503939477" lon="14.498145435910262"><ele>151.0</ele><time>2026-05-02T14:46:35.002Z</time></trkpt><trkpt lat="41.092771249033156" lon="14.498041576250897"><ele>151.0</ele><time>2026-05-02T14:46:36.002Z</time></trkpt><trkpt lat="41.092823963738574" lon="14.497932472629591"><ele>151.0</ele><time>2026-05-02T14:46:37.002Z</time></trkpt><trkpt lat="41.0928673848795" lon="14.49783693265345"><ele>150.8</ele><time>2026-05-02T14:46:38.002Z</time></trkpt><trkpt lat="41.09290782600716" lon="14.49774948913253"><ele>150.6</ele><time>2026-05-02T14:46:39.002Z</time></trkpt><trkpt lat="41.09295115613785" lon="14.497663149644469"><ele>150.4</ele><time>2026-05-02T14:46:40.002Z</time></trkpt><trkpt lat="41.09299206144345" lon="14.49758321368473"><ele>150.2</ele><time>2026-05-02T14:46:41.002Z</time></trkpt><trkpt lat="41.093061737506574" lon="14.497453910951915"><ele>150.0</ele><time>2026-05-02T14:46:43.002Z</time></trkpt><trkpt lat="41.09314081516371" lon="14.497310349228762"><ele>150.0</ele><time>2026-05-02T14:46:45.002Z</time></trkpt><trkpt lat="41.09318582629241" lon="14.497224785693"><ele>150.0</ele><time>2026-05-02T14:46:46.002Z</time></trkpt><trkpt lat="41.093237009157015" lon="14.497113116277006"><ele>150.0</ele><time>2026-05-02T14:46:47.002Z</time></trkpt><trkpt lat="41.093277070426176" lon="14.496977522176337"><ele>150.0</ele><time>2026-05-02T14:46:48.002Z</time></trkpt><trkpt lat="41.09331488308663" lon="14.496829695881708"><ele>150.0</ele><time>2026-05-02T14:46:49.002Z</time></trkpt><trkpt lat="41.09335342020417" lon="14.496668453644435"><ele>148.75</ele><time>2026-05-02T14:46:50.002Z</time></trkpt><trkpt lat="41.093400939431504" lon="14.496497766783229"><ele>147.5</ele><time>2026-05-02T14:46:51.002Z</time></trkpt><trkpt lat="41.093452535313986" lon="14.496326733728807"><ele>146.25</ele><time>2026-05-02T14:46:52.002Z</time></trkpt><trkpt lat="41.093512920011065" lon="14.49614956075405"><ele>145.0</ele><time>2026-05-02T14:46:53Z</time></trkpt><trkpt lat="41.093568880553626" lon="14.495966496007675"><ele>144.66666666666669</ele><time>2026-05-02T14:46:54Z</time></trkpt><trkpt lat="41.09363884821825" lon="14.495769584821883"><ele>144.33333333333334</ele><time>2026-05-02T14:46:55Z</time></trkpt><trkpt lat="41.09369785654202" lon="14.49556486991392"><ele>144.0</ele><time>2026-05-02T14:46:56Z</time></trkpt><trkpt lat="41.09376115993438" lon="14.495376377236306"><ele>143.5</ele><time>2026-05-02T14:46:57Z</time></trkpt><trkpt lat="41.09382228568363" lon="14.495213089038344"><ele>143.0</ele><time>2026-05-02T14:46:58Z</time></trkpt><trkpt lat="41.09387472329326" lon="14.495063438344332"><ele>142.5</ele><time>2026-05-02T14:46:59Z</time></trkpt><trkpt lat="41.09392306520079" lon="14.494905068013868"><ele>142.0</ele><time>2026-05-02T14:47:00Z</time></trkpt><trkpt lat="41.093964159248245" lon="14.49475468477939"><ele>142.0</ele><time>2026-05-02T14:47:01Z</time></trkpt><trkpt lat="41.09400625518444" lon="14.494570694541094"><ele>142.0</ele><time>2026-05-02T14:47:02Z</time></trkpt><trkpt lat="41.094048910400474" lon="14.494379457347712"><ele>142.0</ele><time>2026-05-02T14:47:03Z</time></trkpt><trkpt lat="41.09411039867789" lon="14.494182588088773"><ele>141.33333333333334</ele><time>2026-05-02T14:47:04Z</time></trkpt><trkpt lat="41.09416132875391" lon="14.494000786895176"><ele>140.66666666666666</ele><time>2026-05-02T14:47:05Z</time></trkpt><trkpt lat="41.09421686223839" lon="14.493809225905887"><ele>140.0</ele><time>2026-05-02T14:47:06Z</time></trkpt><trkpt lat="41.094268760988214" lon="14.493617532116003"><ele>139.5</ele><time>2026-05-02T14:47:07Z</time></trkpt><trkpt lat="41.09432855969707" lon="14.493416098779432"><ele>139.0</ele><time>2026-05-02T14:47:08Z</time></trkpt><trkpt lat="41.094383189878194" lon="14.493233162788231"><ele>138.5</ele><time>2026-05-02T14:47:09Z</time></trkpt><trkpt lat="41.09440994179357" lon="14.493076041816316"><ele>138.0</ele><time>2026-05-02T14:47:10Z</time></trkpt><trkpt lat="41.09445659520533" lon="14.492936098805798"><ele>138.0</ele><time>2026-05-02T14:47:11Z</time></trkpt><trkpt lat="41.09449118390947" lon="14.492795664174453"><ele>138.0</ele><time>2026-05-02T14:47:12Z</time></trkpt><trkpt lat="41.09453151485659" lon="14.492641980364262"><ele>138.0</ele><time>2026-05-02T14:47:13Z</time></trkpt><trkpt lat="41.09457392902848" lon="14.492469691183688"><ele>138.0</ele><time>2026-05-02T14:47:14Z</time></trkpt><trkpt lat="41.09462098980154" lon="14.492288157314599"><ele>138.0</ele><time>2026-05-02T14:47:15Z</time></trkpt><trkpt lat="41.09466640334258" lon="14.492098428542906"><ele>138.0</ele><time>2026-05-02T14:47:16Z</time></trkpt><trkpt lat="41.094709811780824" lon="14.491900613467616"><ele>138.0</ele><time>2026-05-02T14:47:17Z</time></trkpt><trkpt lat="41.094757560171956" lon="14.491696956809252"><ele>137.33333333333334</ele><time>2026-05-02T14:47:18Z</time></trkpt><trkpt lat="41.09480930986265" lon="14.491489045533243"><ele>136.66666666666669</ele><time>2026-05-02T14:47:19Z</time></trkpt><trkpt lat="41.09486405218129" lon="14.491279483037228"><ele>136.0</ele><time>2026-05-02T14:47:20Z</time></trkpt><trkpt lat="41.0949172813801" lon="14.491056625079441"><ele>135.33333333333334</ele><time>2026-05-02T14:47:21Z</time></trkpt><trkpt lat="41.09498119277222" lon="14.490838845277098"><ele>134.66666666666666</ele><time>2026-05-02T14:47:22Z</time></trkpt><trkpt lat="41.09505551753459" lon="14.490622513238549"><ele>134.0</ele><time>2026-05-02T14:47:23Z</time></trkpt><trkpt lat="41.095140356215154" lon="14.490401135105785"><ele>133.66666666666666</ele><time>2026-05-02T14:47:24Z</time></trkpt><trkpt lat="41.095222434987015" lon="14.490193536127437"><ele>133.33333333333334</ele><time>2026-05-02T14:47:25Z</time></trkpt><trkpt lat="41.095320609438936" lon="14.489980055479798"><ele>133.0</ele><time>2026-05-02T14:47:26Z</time></trkpt><trkpt lat="41.09540999169555" lon="14.489772398003915"><ele>132.33333333333334</ele><time>2026-05-02T14:47:27Z</time></trkpt><trkpt lat="41.095494720911546" lon="14.489575112061743"><ele>131.66666666666666</ele><time>2026-05-02T14:47:28Z</time></trkpt><trkpt lat="41.0955766896483" lon="14.489370760415891"><ele>131.0</ele><time>2026-05-02T14:47:29Z</time></trkpt><trkpt lat="41.09565445291498" lon="14.489199358615139"><ele>131.0</ele><time>2026-05-02T14:47:30Z</time></trkpt><trkpt lat="41.095744594479754" lon="14.48902313626319"><ele>131.0</ele><time>2026-05-02T14:47:31Z</time></trkpt><trkpt lat="41.09583623915118" lon="14.488842966691582"><ele>131.0</ele><time>2026-05-02T14:47:32Z</time></trkpt><trkpt lat="41.09592572350398" lon="14.488654373717381"><ele>129.66666666666666</ele><time>2026-05-02T14:47:33Z</time></trkpt><trkpt lat="41.09601625266406" lon="14.488467014530704"><ele>128.33333333333334</ele><time>2026-05-02T14:47:34Z</time></trkpt><trkpt lat="41.096099630454695" lon="14.488244686452605"><ele>127.0</ele><time>2026-05-02T14:47:35Z</time></trkpt><trkpt lat="41.09619206877843" lon="14.488037014248915"><ele>126.33333333333334</ele><time>2026-05-02T14:47:36Z</time></trkpt><trkpt lat="41.09627719538203" lon="14.487842091657832"><ele>125.66666666666666</ele><time>2026-05-02T14:47:37.001Z</time></trkpt><trkpt lat="41.09637402353225" lon="14.48764725140694"><ele>125.0</ele><time>2026-05-02T14:47:38.001Z</time></trkpt><trkpt lat="41.096465635410915" lon="14.48746463314441"><ele>125.0</ele><time>2026-05-02T14:47:39.001Z</time></trkpt><trkpt lat="41.096559848274225" lon="14.48727325728738"><ele>125.0</ele><time>2026-05-02T14:47:40.001Z</time></trkpt><trkpt lat="41.09664443409709" lon="14.487080043194453"><ele>125.0</ele><time>2026-05-02T14:47:41.001Z</time></trkpt><trkpt lat="41.09672935776838" lon="14.486881044663168"><ele>124.66666666666666</ele><time>2026-05-02T14:47:42.001Z</time></trkpt><trkpt lat="41.09681824007442" lon="14.486675301220169"><ele>124.33333333333334</ele><time>2026-05-02T14:47:43.001Z</time></trkpt><trkpt lat="41.09692314398363" lon="14.486481955353996"><ele>124.0</ele><time>2026-05-02T14:47:44.001Z</time></trkpt><trkpt lat="41.09701886233922" lon="14.48626984618997"><ele>123.0</ele><time>2026-05-02T14:47:45.001Z</time></trkpt><trkpt lat="41.097118145799136" lon="14.486050516811103"><ele>122.0</ele><time>2026-05-02T14:47:46.001Z</time></trkpt><trkpt lat="41.09721820517944" lon="14.485830334814464"><ele>121.0</ele><time>2026-05-02T14:47:47.001Z</time></trkpt><trkpt lat="41.09731590450774" lon="14.48561555814836"><ele>120.66666666666667</ele><time>2026-05-02T14:47:48.001Z</time></trkpt><trkpt lat="41.09739785917494" lon="14.485394665851313"><ele>120.33333333333334</ele><time>2026-05-02T14:47:49.001Z</time></trkpt><trkpt lat="41.09749680040829" lon="14.485191250521545"><ele>120.0</ele><time>2026-05-02T14:47:50.001Z</time></trkpt><trkpt lat="41.09760142399154" lon="14.484988077770302"><ele>119.0</ele><time>2026-05-02T14:47:51.001Z</time></trkpt><trkpt lat="41.09770096216758" lon="14.484791846522093"><ele>118.0</ele><time>2026-05-02T14:47:52.001Z</time></trkpt><trkpt lat="41.097790488517724" lon="14.484607077993273"><ele>117.0</ele><time>2026-05-02T14:47:53.001Z</time></trkpt><trkpt lat="41.097874258100035" lon="14.484446665808495"><ele>117.0</ele><time>2026-05-02T14:47:54.001Z</time></trkpt><trkpt lat="41.09795101605866" lon="14.48428479118189"><ele>117.0</ele><time>2026-05-02T14:47:55.001Z</time></trkpt><trkpt lat="41.09801891429684" lon="14.48412829548903"><ele>117.0</ele><time>2026-05-02T14:47:56.001Z</time></trkpt><trkpt lat="41.09808637353812" lon="14.483979229178164"><ele>117.0</ele><time>2026-05-02T14:47:57.001Z</time></trkpt><trkpt lat="41.098170408833354" lon="14.483831906432787"><ele>116.5</ele><time>2026-05-02T14:47:58.001Z</time></trkpt><trkpt lat="41.09824790193601" lon="14.483675633857484"><ele>116.0</ele><time>2026-05-02T14:47:59.001Z</time></trkpt><trkpt lat="41.09832517032256" lon="14.48352083186073"><ele>115.5</ele><time>2026-05-02T14:48:00.001Z</time></trkpt><trkpt lat="41.09841262656847" lon="14.483365843448386"><ele>115.0</ele><time>2026-05-02T14:48:01.001Z</time></trkpt><trkpt lat="41.09849446836144" lon="14.48323441607292"><ele>113.5</ele><time>2026-05-02T14:48:02.001Z</time></trkpt><trkpt lat="41.09856226635929" lon="14.48310495235972"><ele>112.0</ele><time>2026-05-02T14:48:03.001Z</time></trkpt><trkpt lat="41.0986279877738" lon="14.482973565194872"><ele>110.5</ele><time>2026-05-02T14:48:04.001Z</time></trkpt><trkpt lat="41.09867108100416" lon="14.482825347616453"><ele>109.0</ele><time>2026-05-02T14:48:05.001Z</time></trkpt><trkpt lat="41.09869840447031" lon="14.482673341813772"><ele>109.0</ele><time>2026-05-02T14:48:06.001Z</time></trkpt><trkpt lat="41.09871259631144" lon="14.48252252405239"><ele>109.0</ele><time>2026-05-02T14:48:07.001Z</time></trkpt><trkpt lat="41.098725174843764" lon="14.482354153300026"><ele>109.0</ele><time>2026-05-02T14:48:08.001Z</time></trkpt><trkpt lat="41.09872375255499" lon="14.48219155932185"><ele>109.0</ele><time>2026-05-02T14:48:09.001Z</time></trkpt><trkpt lat="41.098720148487985" lon="14.482031706014078"><ele>109.0</ele><time>2026-05-02T14:48:10.001Z</time></trkpt><trkpt lat="41.09870048004429" lon="14.481880307199013"><ele>109.0</ele><time>2026-05-02T14:48:11.001Z</time></trkpt><trkpt lat="41.09867067206904" lon="14.48172955973047"><ele>109.0</ele><time>2026-05-02T14:48:12.001Z</time></trkpt><trkpt lat="41.098665001704084" lon="14.481574391594132"><ele>109.0</ele><time>2026-05-02T14:48:13.001Z</time></trkpt><trkpt lat="41.098651364029344" lon="14.481406936278207"><ele>108.75</ele><time>2026-05-02T14:48:14.001Z</time></trkpt><trkpt lat="41.09864271961154" lon="14.481242437895721"><ele>108.5</ele><time>2026-05-02T14:48:15.001Z</time></trkpt><trkpt lat="41.09865405242351" lon="14.481082357419574"><ele>108.25</ele><time>2026-05-02T14:48:16.001Z</time></trkpt><trkpt lat="41.09868278553142" lon="14.480905585643013"><ele>108.0</ele><time>2026-05-02T14:48:17.001Z</time></trkpt><trkpt lat="41.098710012385375" lon="14.480738621221771"><ele>108.0</ele><time>2026-05-02T14:48:18.001Z</time></trkpt><trkpt lat="41.098735149954656" lon="14.480576526891063"><ele>108.0</ele><time>2026-05-02T14:48:19.001Z</time></trkpt><trkpt lat="41.098755977324394" lon="14.480421162172894"><ele>108.0</ele><time>2026-05-02T14:48:20.001Z</time></trkpt><trkpt lat="41.098768226250044" lon="14.480287286963364"><ele>108.0</ele><time>2026-05-02T14:48:21.001Z</time></trkpt><trkpt lat="41.098787021314635" lon="14.480142794752997"><ele>107.60000000000001</ele><time>2026-05-02T14:48:22.001Z</time></trkpt><trkpt lat="41.09878862827344" lon="14.479993592426094"><ele>107.20000000000002</ele><time>2026-05-02T14:48:23.001Z</time></trkpt><trkpt lat="41.09876934978643" lon="14.479851413290874"><ele>106.8</ele><time>2026-05-02T14:48:24.001Z</time></trkpt><trkpt lat="41.09873270525207" lon="14.479719278205826"><ele>106.4</ele><time>2026-05-02T14:48:25.001Z</time></trkpt><trkpt lat="41.09868494674974" lon="14.479597455773641"><ele>106.0</ele><time>2026-05-02T14:48:26.001Z</time></trkpt><trkpt lat="41.09862136585687" lon="14.47949349437871"><ele>105.75</ele><time>2026-05-02T14:48:27.001Z</time></trkpt><trkpt lat="41.098542044789205" lon="14.479384686284174"><ele>105.5</ele><time>2026-05-02T14:48:28.001Z</time></trkpt><trkpt lat="41.09846377398297" lon="14.47928129559867"><ele>105.25</ele><time>2026-05-02T14:48:29.001Z</time></trkpt><trkpt lat="41.09838191915495" lon="14.479172282789234"><ele>105.0</ele><time>2026-05-02T14:48:30.001Z</time></trkpt><trkpt lat="41.09829859491444" lon="14.479064687269695"><ele>104.83333333333333</ele><time>2026-05-02T14:48:31.001Z</time></trkpt><trkpt lat="41.09823270873111" lon="14.47894235671702"><ele>104.66666666666666</ele><time>2026-05-02T14:48:32.001Z</time></trkpt><trkpt lat="41.098199228057645" lon="14.478816547440415"><ele>104.5</ele><time>2026-05-02T14:48:33.001Z</time></trkpt><trkpt lat="41.09816917227823" lon="14.478721855401764"><ele>104.33333333333333</ele><time>2026-05-02T14:48:34.001Z</time></trkpt><trkpt lat="41.098144065405684" lon="14.47862504816823"><ele>104.16666666666666</ele><time>2026-05-02T14:48:35.001Z</time></trkpt><trkpt lat="41.09812349027448" lon="14.478528360139604"><ele>104.0</ele><time>2026-05-02T14:48:36.001Z</time></trkpt><trkpt lat="41.09811068436013" lon="14.478428016237055"><ele>102.75</ele><time>2026-05-02T14:48:37.001Z</time></trkpt><trkpt lat="41.098086715355876" lon="14.478329696918626"><ele>101.5</ele><time>2026-05-02T14:48:38.001Z</time></trkpt><trkpt lat="41.09808547579834" lon="14.478195843795959"><ele>100.25</ele><time>2026-05-02T14:48:39.001Z</time></trkpt><trkpt lat="41.09810470225911" lon="14.478023332719468"><ele>99.0</ele><time>2026-05-02T14:48:40.001Z</time></trkpt><trkpt lat="41.09811499870007" lon="14.477826982478197"><ele>97.33333333333333</ele><time>2026-05-02T14:48:41.001Z</time></trkpt><trkpt lat="41.09813066763456" lon="14.477608386769148"><ele>95.66666666666666</ele><time>2026-05-02T14:48:42.001Z</time></trkpt><trkpt lat="41.09814627437971" lon="14.477346409285431"><ele>94.0</ele><time>2026-05-02T14:48:43.001Z</time></trkpt><trkpt lat="41.098194274141164" lon="14.477072837097854"><ele>93.5</ele><time>2026-05-02T14:48:44.001Z</time></trkpt><trkpt lat="41.09825753105028" lon="14.476793762806496"><ele>93.0</ele><time>2026-05-02T14:48:45.001Z</time></trkpt><trkpt lat="41.098327164330236" lon="14.476501626358475"><ele>93.5</ele><time>2026-05-02T14:48:46.001Z</time></trkpt><trkpt lat="41.09837541866477" lon="14.476195160180346"><ele>94.0</ele><time>2026-05-02T14:48:47.002Z</time></trkpt><trkpt lat="41.098409515452865" lon="14.475858617730605"><ele>94.0</ele><time>2026-05-02T14:48:48.002Z</time></trkpt><trkpt lat="41.09844084264113" lon="14.475513978945346"><ele>94.0</ele><time>2026-05-02T14:48:49.002Z</time></trkpt><trkpt lat="41.09847306060637" lon="14.475158845178102"><ele>94.5</ele><time>2026-05-02T14:48:50.002Z</time></trkpt><trkpt lat="41.0985067963621" lon="14.474817684301211"><ele>95.0</ele><time>2026-05-02T14:48:51.002Z</time></trkpt><trkpt lat="41.09853144223142" lon="14.474500789841379"><ele>94.0</ele><time>2026-05-02T14:48:52.002Z</time></trkpt><trkpt lat="41.09855719210032" lon="14.47417616083117"><ele>93.0</ele><time>2026-05-02T14:48:53.002Z</time></trkpt><trkpt lat="41.09858587214911" lon="14.473856114047756"><ele>91.5</ele><time>2026-05-02T14:48:54.002Z</time></trkpt><trkpt lat="41.09861276000234" lon="14.473539498029107"><ele>90.0</ele><time>2026-05-02T14:48:55.002Z</time></trkpt><trkpt lat="41.09863231994717" lon="14.473231749068937"><ele>90.0</ele><time>2026-05-02T14:48:56.002Z</time></trkpt><trkpt lat="41.098653128870936" lon="14.472944160485971"><ele>90.0</ele><time>2026-05-02T14:48:57.002Z</time></trkpt><trkpt lat="41.098674852100864" lon="14.472663355866267"><ele>90.0</ele><time>2026-05-02T14:48:58.002Z</time></trkpt><trkpt lat="41.09869692110812" lon="14.472374916138246"><ele>89.66666666666667</ele><time>2026-05-02T14:48:59Z</time></trkpt><trkpt lat="41.098728116957254" lon="14.472100992826245"><ele>89.33333333333334</ele><time>2026-05-02T14:49:00Z</time></trkpt><trkpt lat="41.09877755684867" lon="14.471825832702178"><ele>89.0</ele><time>2026-05-02T14:49:01Z</time></trkpt><trkpt lat="41.098824172705584" lon="14.471539769292841"><ele>87.66666666666667</ele><time>2026-05-02T14:49:02Z</time></trkpt><trkpt lat="41.09885534916993" lon="14.47125189936035"><ele>86.33333333333333</ele><time>2026-05-02T14:49:03Z</time></trkpt><trkpt lat="41.09887691165988" lon="14.470954452809256"><ele>85.0</ele><time>2026-05-02T14:49:04Z</time></trkpt><trkpt lat="41.098891300266516" lon="14.470652104080466"><ele>84.0</ele><time>2026-05-02T14:49:05Z</time></trkpt><trkpt lat="41.098906117814785" lon="14.470373579647852"><ele>83.0</ele><time>2026-05-02T14:49:06Z</time></trkpt><trkpt lat="41.0989235522047" lon="14.470093910289105"><ele>82.0</ele><time>2026-05-02T14:49:07Z</time></trkpt><trkpt lat="41.098947309194145" lon="14.469818224252908"><ele>81.0</ele><time>2026-05-02T14:49:08Z</time></trkpt><trkpt lat="41.09897894261331" lon="14.469540037963423"><ele>80.0</ele><time>2026-05-02T14:49:09Z</time></trkpt><trkpt lat="41.099017590778374" lon="14.46926613354086"><ele>79.0</ele><time>2026-05-02T14:49:10Z</time></trkpt><trkpt lat="41.099054647396585" lon="14.468985086128855"><ele>79.66666666666666</ele><time>2026-05-02T14:49:11Z</time></trkpt><trkpt lat="41.09909719338141" lon="14.46872056031068"><ele>80.33333333333333</ele><time>2026-05-02T14:49:12Z</time></trkpt><trkpt lat="41.099130129318134" lon="14.468473435785576"><ele>81.0</ele><time>2026-05-02T14:49:13Z</time></trkpt><trkpt lat="41.099167193373326" lon="14.468253132799118"><ele>81.0</ele><time>2026-05-02T14:49:14Z</time></trkpt><trkpt lat="41.099204498347824" lon="14.468062404156434"><ele>81.0</ele><time>2026-05-02T14:49:15Z</time></trkpt><trkpt lat="41.099223172553" lon="14.467870237192557"><ele>81.0</ele><time>2026-05-02T14:49:16Z</time></trkpt><trkpt lat="41.09920758967237" lon="14.467672579063079"><ele>81.0</ele><time>2026-05-02T14:49:17Z</time></trkpt><trkpt lat="41.09916431973571" lon="14.467478011110526"><ele>81.0</ele><time>2026-05-02T14:49:18Z</time></trkpt><trkpt lat="41.099088221395114" lon="14.467285646998391"><ele>81.0</ele><time>2026-05-02T14:49:19Z</time></trkpt><trkpt lat="41.09899416045472" lon="14.46714533756005"><ele>81.0</ele><time>2026-05-02T14:49:20Z</time></trkpt><trkpt lat="41.09891395050772" lon="14.467008156736162"><ele>81.0</ele><time>2026-05-02T14:49:21Z</time></trkpt><trkpt lat="41.0988512027334" lon="14.466858375296622"><ele>80.25</ele><time>2026-05-02T14:49:22Z</time></trkpt><trkpt lat="41.098810834760386" lon="14.466703504650631"><ele>79.5</ele><time>2026-05-02T14:49:23Z</time></trkpt><trkpt lat="41.098798177491716" lon="14.46652755709061"><ele>78.75</ele><time>2026-05-02T14:49:24Z</time></trkpt><trkpt lat="41.098791883868515" lon="14.466351330983388"><ele>78.0</ele><time>2026-05-02T14:49:25Z</time></trkpt><trkpt lat="41.098797910071355" lon="14.46612884331427"><ele>77.33333333333333</ele><time>2026-05-02T14:49:26Z</time></trkpt><trkpt lat="41.09883074590356" lon="14.465926911631115"><ele>76.66666666666666</ele><time>2026-05-02T14:49:27Z</time></trkpt><trkpt lat="41.09886430078893" lon="14.465707262261237"><ele>76.0</ele><time>2026-05-02T14:49:28Z</time></trkpt><trkpt lat="41.09889682750563" lon="14.465466312106477"><ele>73.66666666666666</ele><time>2026-05-02T14:49:29Z</time></trkpt><trkpt lat="41.098914926941575" lon="14.46517981667577"><ele>71.33333333333333</ele><time>2026-05-02T14:49:30Z</time></trkpt><trkpt lat="41.09894248421151" lon="14.464940891178923"><ele>69.0</ele><time>2026-05-02T14:49:31Z</time></trkpt><trkpt lat="41.0989606088444" lon="14.46472277851337"><ele>67.0</ele><time>2026-05-02T14:49:32Z</time></trkpt><trkpt lat="41.09898536383368" lon="14.464501349907515"><ele>65.0</ele><time>2026-05-02T14:49:33Z</time></trkpt><trkpt lat="41.09898062734099" lon="14.46428964045132"><ele>63.0</ele><time>2026-05-02T14:49:34Z</time></trkpt><trkpt lat="41.09895098767346" lon="14.46409176242215"><ele>63.0</ele><time>2026-05-02T14:49:35Z</time></trkpt><trkpt lat="41.09890344342963" lon="14.463892721358318"><ele>63.0</ele><time>2026-05-02T14:49:36Z</time></trkpt><trkpt lat="41.098844997129234" lon="14.463711672709762"><ele>63.0</ele><time>2026-05-02T14:49:37Z</time></trkpt><trkpt lat="41.09879433938607" lon="14.463555837145655"><ele>63.0</ele><time>2026-05-02T14:49:38Z</time></trkpt><trkpt lat="41.0987525744816" lon="14.463389789749746"><ele>63.25</ele><time>2026-05-02T14:49:39Z</time></trkpt><trkpt lat="41.09874569738914" lon="14.463211729225556"><ele>63.5</ele><time>2026-05-02T14:49:40Z</time></trkpt><trkpt lat="41.09876349860334" lon="14.46301593564715"><ele>63.75</ele><time>2026-05-02T14:49:41Z</time></trkpt><trkpt lat="41.09878108391419" lon="14.46281126816016"><ele>64.0</ele><time>2026-05-02T14:49:42Z</time></trkpt><trkpt lat="41.09879807439434" lon="14.462605095467248"><ele>64.0</ele><time>2026-05-02T14:49:43Z</time></trkpt><trkpt lat="41.098821300573746" lon="14.462423582438422"><ele>64.0</ele><time>2026-05-02T14:49:44Z</time></trkpt><trkpt lat="41.098855889134995" lon="14.462272296927692"><ele>64.0</ele><time>2026-05-02T14:49:45Z</time></trkpt><trkpt lat="41.098908844330374" lon="14.462115398630162"><ele>64.0</ele><time>2026-05-02T14:49:46Z</time></trkpt><trkpt lat="41.098988946633725" lon="14.461971612081046"><ele>63.5</ele><time>2026-05-02T14:49:47Z</time></trkpt><trkpt lat="41.0990748806076" lon="14.461865297098296"><ele>63.0</ele><time>2026-05-02T14:49:48.001Z</time></trkpt><trkpt lat="41.099162897077385" lon="14.461757384934582"><ele>62.5</ele><time>2026-05-02T14:49:49.001Z</time></trkpt><trkpt lat="41.09924382868115" lon="14.461658008304973"><ele>62.0</ele><time>2026-05-02T14:49:50.001Z</time></trkpt><trkpt lat="41.09930233259937" lon="14.461521145839198"><ele>61.75</ele><time>2026-05-02T14:49:51.001Z</time></trkpt><trkpt lat="41.0993434255528" lon="14.46134691085908"><ele>61.5</ele><time>2026-05-02T14:49:52.001Z</time></trkpt><trkpt lat="41.09937766958497" lon="14.46115065490251"><ele>61.25</ele><time>2026-05-02T14:49:53.001Z</time></trkpt><trkpt lat="41.09940791990461" lon="14.460945447347417"><ele>61.0</ele><time>2026-05-02T14:49:54.001Z</time></trkpt><trkpt lat="41.099454162894936" lon="14.460722379424142"><ele>61.0</ele><time>2026-05-02T14:49:55.001Z</time></trkpt><trkpt lat="41.099484135097896" lon="14.460504180559449"><ele>61.0</ele><time>2026-05-02T14:49:56.001Z</time></trkpt><trkpt lat="41.09951221402387" lon="14.46029505138026"><ele>61.0</ele><time>2026-05-02T14:49:57.001Z</time></trkpt><trkpt lat="41.09954314721651" lon="14.460083117142982"><ele>61.0</ele><time>2026-05-02T14:49:58.001Z</time></trkpt><trkpt lat="41.099572815209704" lon="14.459865630545883"><ele>61.0</ele><time>2026-05-02T14:49:59.001Z</time></trkpt><trkpt lat="41.09960521815152" lon="14.459653128256098"><ele>61.0</ele><time>2026-05-02T14:50:00.001Z</time></trkpt><trkpt lat="41.09963400013047" lon="14.459439539389836"><ele>61.0</ele><time>2026-05-02T14:50:01.001Z</time></trkpt><trkpt lat="41.09966368064096" lon="14.459225408768694"><ele>61.0</ele><time>2026-05-02T14:50:02.001Z</time></trkpt><trkpt lat="41.09968296814485" lon="14.459038778766333"><ele>61.0</ele><time>2026-05-02T14:50:03.001Z</time></trkpt><trkpt lat="41.09968430270529" lon="14.45884761338106"><ele>60.75</ele><time>2026-05-02T14:50:04.001Z</time></trkpt><trkpt lat="41.09969792641281" lon="14.458710742631983"><ele>60.5</ele><time>2026-05-02T14:50:05.001Z</time></trkpt><trkpt lat="41.09972497249575" lon="14.458563874944547"><ele>60.25</ele><time>2026-05-02T14:50:06.001Z</time></trkpt><trkpt lat="41.09976772964823" lon="14.458410385390446"><ele>60.0</ele><time>2026-05-02T14:50:07.001Z</time></trkpt><trkpt lat="41.09981017093801" lon="14.458236370655584"><ele>60.0</ele><time>2026-05-02T14:50:08.001Z</time></trkpt><trkpt lat="41.099851376944564" lon="14.45803731624147"><ele>60.0</ele><time>2026-05-02T14:50:09.001Z</time></trkpt><trkpt lat="41.09988601216863" lon="14.45781949399612"><ele>60.0</ele><time>2026-05-02T14:50:10.001Z</time></trkpt><trkpt lat="41.09992456183121" lon="14.45758567230275"><ele>60.66666666666667</ele><time>2026-05-02T14:50:11.001Z</time></trkpt><trkpt lat="41.09996610037209" lon="14.457342792277071"><ele>61.333333333333336</ele><time>2026-05-02T14:50:12.001Z</time></trkpt><trkpt lat="41.10001120285562" lon="14.457088241807423"><ele>62.0</ele><time>2026-05-02T14:50:13.001Z</time></trkpt><trkpt lat="41.100044635556024" lon="14.456824044021669"><ele>62.0</ele><time>2026-05-02T14:50:14.001Z</time></trkpt><trkpt lat="41.10008516466153" lon="14.45654463517048"><ele>62.0</ele><time>2026-05-02T14:50:15.001Z</time></trkpt><trkpt lat="41.10012884519782" lon="14.456253042791065"><ele>62.0</ele><time>2026-05-02T14:50:16.001Z</time></trkpt><trkpt lat="41.10017027469352" lon="14.45594854479923"><ele>62.0</ele><time>2026-05-02T14:50:17.001Z</time></trkpt><trkpt lat="41.100216639479974" lon="14.455644942983227"><ele>62.0</ele><time>2026-05-02T14:50:18.001Z</time></trkpt><trkpt lat="41.10026373467798" lon="14.455334886278468"><ele>63.5</ele><time>2026-05-02T14:50:19.001Z</time></trkpt><trkpt lat="41.10031349323367" lon="14.455022464996333"><ele>65.0</ele><time>2026-05-02T14:50:20.001Z</time></trkpt><trkpt lat="41.100354216841474" lon="14.454731028748826"><ele>65.0</ele><time>2026-05-02T14:50:21.001Z</time></trkpt><trkpt lat="41.100403691105896" lon="14.454437950544076"><ele>65.0</ele><time>2026-05-02T14:50:22.001Z</time></trkpt><trkpt lat="41.1004492847817" lon="14.45414965072605"><ele>65.0</ele><time>2026-05-02T14:50:23.001Z</time></trkpt><trkpt lat="41.100489796642584" lon="14.453884402772239"><ele>65.33333333333334</ele><time>2026-05-02T14:50:24.001Z</time></trkpt><trkpt lat="41.10052333603351" lon="14.453642344561754"><ele>65.66666666666667</ele><time>2026-05-02T14:50:25.001Z</time></trkpt><trkpt lat="41.10055955246021" lon="14.453411861770988"><ele>66.0</ele><time>2026-05-02T14:50:26.001Z</time></trkpt><trkpt lat="41.10060939414959" lon="14.453171976718115"><ele>66.0</ele><time>2026-05-02T14:50:27.001Z</time></trkpt><trkpt lat="41.100690382605414" lon="14.452918560234817"><ele>66.0</ele><time>2026-05-02T14:50:28.001Z</time></trkpt><trkpt lat="41.100762359957" lon="14.452655381371804"><ele>66.0</ele><time>2026-05-02T14:50:29.001Z</time></trkpt><trkpt lat="41.10083965188504" lon="14.452377044688776"><ele>65.0</ele><time>2026-05-02T14:50:30.001Z</time></trkpt><trkpt lat="41.100918219521304" lon="14.452089705081596"><ele>64.0</ele><time>2026-05-02T14:50:31.001Z</time></trkpt><trkpt lat="41.100993536423715" lon="14.451810829872015"><ele>64.0</ele><time>2026-05-02T14:50:32.001Z</time></trkpt><trkpt lat="41.10106736438071" lon="14.451537467765364"><ele>64.0</ele><time>2026-05-02T14:50:33.001Z</time></trkpt><trkpt lat="41.101134992456856" lon="14.451288739201472"><ele>64.0</ele><time>2026-05-02T14:50:34.001Z</time></trkpt><trkpt lat="41.10120151676305" lon="14.451047702512852"><ele>64.0</ele><time>2026-05-02T14:50:35.001Z</time></trkpt><trkpt lat="41.10126419602832" lon="14.450820597313111"><ele>64.0</ele><time>2026-05-02T14:50:36.001Z</time></trkpt><trkpt lat="41.10128192074169" lon="14.450602883288868"><ele>64.0</ele><time>2026-05-02T14:50:37.001Z</time></trkpt><trkpt lat="41.10134784824349" lon="14.450394549384491"><ele>63.33333333333333</ele><time>2026-05-02T14:50:38.001Z</time></trkpt><trkpt lat="41.10140523183071" lon="14.450210252449265"><ele>62.66666666666667</ele><time>2026-05-02T14:50:39.001Z</time></trkpt><trkpt lat="41.101492722889304" lon="14.450044621649305"><ele>62.0</ele><time>2026-05-02T14:50:40.001Z</time></trkpt><trkpt lat="41.10161246926873" lon="14.449871965986347"><ele>61.66666666666667</ele><time>2026-05-02T14:50:41.001Z</time></trkpt><trkpt lat="41.101749176770475" lon="14.449716112256533"><ele>61.33333333333333</ele><time>2026-05-02T14:50:42.001Z</time></trkpt><trkpt lat="41.10189317002402" lon="14.449546618498402"><ele>61.0</ele><time>2026-05-02T14:50:43.001Z</time></trkpt><trkpt lat="41.10202268738141" lon="14.449339451632772"><ele>60.0</ele><time>2026-05-02T14:50:44.001Z</time></trkpt><trkpt lat="41.102130435481875" lon="14.449103008232004"><ele>59.0</ele><time>2026-05-02T14:50:45.001Z</time></trkpt><trkpt lat="41.10220867556147" lon="14.448880839047183"><ele>58.0</ele><time>2026-05-02T14:50:46.001Z</time></trkpt><trkpt lat="41.10227539474919" lon="14.448675307063205"><ele>57.25</ele><time>2026-05-02T14:50:47.001Z</time></trkpt><trkpt lat="41.10234013141572" lon="14.448490216864347"><ele>56.5</ele><time>2026-05-02T14:50:48.001Z</time></trkpt><trkpt lat="41.1023992768974" lon="14.44833431494688"><ele>55.75</ele><time>2026-05-02T14:50:49.001Z</time></trkpt><trkpt lat="41.102475531118515" lon="14.448190647017675"><ele>55.0</ele><time>2026-05-02T14:50:50.001Z</time></trkpt><trkpt lat="41.102573327740295" lon="14.448070267119066"><ele>55.0</ele><time>2026-05-02T14:50:51.001Z</time></trkpt><trkpt lat="41.1026894025785" lon="14.447990644312771"><ele>55.0</ele><time>2026-05-02T14:50:52.001Z</time></trkpt><trkpt lat="41.10282875224765" lon="14.447920408425254"><ele>55.0</ele><time>2026-05-02T14:50:53.001Z</time></trkpt><trkpt lat="41.1029749334068" lon="14.447829475030543"><ele>55.0</ele><time>2026-05-02T14:50:54.001Z</time></trkpt><trkpt lat="41.103152640368364" lon="14.447789144462917"><ele>56.33333333333333</ele><time>2026-05-02T14:50:55.001Z</time></trkpt><trkpt lat="41.10332620914349" lon="14.447711339799692"><ele>57.66666666666667</ele><time>2026-05-02T14:50:56.001Z</time></trkpt><trkpt lat="41.10351986672869" lon="14.4476484141622"><ele>59.0</ele><time>2026-05-02T14:50:57.002Z</time></trkpt><trkpt lat="41.10369827110163" lon="14.447629336623972"><ele>59.0</ele><time>2026-05-02T14:50:58.002Z</time></trkpt><trkpt lat="41.103868544641635" lon="14.447614882835781"><ele>59.0</ele><time>2026-05-02T14:50:59.002Z</time></trkpt><trkpt lat="41.10401180483938" lon="14.44759108065738"><ele>59.0</ele><time>2026-05-02T14:51:00.002Z</time></trkpt><trkpt lat="41.104154014231064" lon="14.447539078079844"><ele>59.75</ele><time>2026-05-02T14:51:01.002Z</time></trkpt><trkpt lat="41.10430027927361" lon="14.447478101628649"><ele>60.5</ele><time>2026-05-02T14:51:02.002Z</time></trkpt><trkpt lat="41.10442391427028" lon="14.44738477398837"><ele>61.25</ele><time>2026-05-02T14:51:03.002Z</time></trkpt><trkpt lat="41.104537619828264" lon="14.447277689361721"><ele>62.0</ele><time>2026-05-02T14:51:04.002Z</time></trkpt><trkpt lat="41.104622981140515" lon="14.447163560151589"><ele>62.25</ele><time>2026-05-02T14:51:05Z</time></trkpt><trkpt lat="41.1046991675325" lon="14.447050105753622"><ele>62.5</ele><time>2026-05-02T14:51:06Z</time></trkpt><trkpt lat="41.10479584083498" lon="14.446944492820057"><ele>62.75</ele><time>2026-05-02T14:51:07Z</time></trkpt><trkpt lat="41.10490148541522" lon="14.446842112652691"><ele>63.0</ele><time>2026-05-02T14:51:08Z</time></trkpt><trkpt lat="41.1050239700982" lon="14.446751097755707"><ele>63.0</ele><time>2026-05-02T14:51:09Z</time></trkpt><trkpt lat="41.105142991394004" lon="14.446686328374728"><ele>63.0</ele><time>2026-05-02T14:51:10Z</time></trkpt><trkpt lat="41.10526344385249" lon="14.446640928105401"><ele>63.0</ele><time>2026-05-02T14:51:11Z</time></trkpt><trkpt lat="41.10538647282625" lon="14.4466142497114"><ele>63.0</ele><time>2026-05-02T14:51:12Z</time></trkpt><trkpt lat="41.105511546351536" lon="14.446602976457903"><ele>63.0</ele><time>2026-05-02T14:51:13Z</time></trkpt><trkpt lat="41.10563926282188" lon="14.446586640477882"><ele>63.0</ele><time>2026-05-02T14:51:14Z</time></trkpt><trkpt lat="41.10575118580409" lon="14.446607109866296"><ele>63.0</ele><time>2026-05-02T14:51:15Z</time></trkpt><trkpt lat="41.105870539774855" lon="14.446613833616011"><ele>63.0</ele><time>2026-05-02T14:51:16Z</time></trkpt><trkpt lat="41.10599569728878" lon="14.446624026654897"><ele>62.25</ele><time>2026-05-02T14:51:17Z</time></trkpt><trkpt lat="41.10611129332264" lon="14.446629195200732"><ele>61.5</ele><time>2026-05-02T14:51:18Z</time></trkpt><trkpt lat="41.10622731606872" lon="14.446635767737837"><ele>60.75</ele><time>2026-05-02T14:51:19Z</time></trkpt><trkpt lat="41.1063358692773" lon="14.446627749952524"><ele>60.0</ele><time>2026-05-02T14:51:20Z</time></trkpt><trkpt lat="41.10644192482344" lon="14.446589610874332"><ele>60.0</ele><time>2026-05-02T14:51:21Z</time></trkpt><trkpt lat="41.10654852284335" lon="14.4465047334758"><ele>60.0</ele><time>2026-05-02T14:51:22Z</time></trkpt><trkpt lat="41.10666172302392" lon="14.446397007289027"><ele>60.0</ele><time>2026-05-02T14:51:23Z</time></trkpt><trkpt lat="41.10676873488225" lon="14.44625602341738"><ele>60.0</ele><time>2026-05-02T14:51:24Z</time></trkpt><trkpt lat="41.10687810891423" lon="14.44609774418499"><ele>58.66666666666667</ele><time>2026-05-02T14:51:25Z</time></trkpt><trkpt lat="41.10699419950903" lon="14.445934421928454"><ele>57.333333333333336</ele><time>2026-05-02T14:51:26Z</time></trkpt><trkpt lat="41.107100782358806" lon="14.445773174513125"><ele>56.0</ele><time>2026-05-02T14:51:27Z</time></trkpt><trkpt lat="41.10720160900382" lon="14.445621489772762"><ele>56.0</ele><time>2026-05-02T14:51:28Z</time></trkpt><trkpt lat="41.10729638777499" lon="14.445471306633035"><ele>56.0</ele><time>2026-05-02T14:51:29Z</time></trkpt><trkpt lat="41.10736464861383" lon="14.445312840387777"><ele>56.0</ele><time>2026-05-02T14:51:30Z</time></trkpt><trkpt lat="41.10741887093677" lon="14.44515050160012"><ele>56.0</ele><time>2026-05-02T14:51:31Z</time></trkpt><trkpt lat="41.10745944862144" lon="14.444981459373711"><ele>58.333333333333336</ele><time>2026-05-02T14:51:32Z</time></trkpt><trkpt lat="41.107493593912196" lon="14.444783636886514"><ele>60.66666666666667</ele><time>2026-05-02T14:51:33Z</time></trkpt><trkpt lat="41.10751510541316" lon="14.444569517078225"><ele>63.0</ele><time>2026-05-02T14:51:34Z</time></trkpt><trkpt lat="41.10753874335259" lon="14.444323241470872"><ele>64.33333333333333</ele><time>2026-05-02T14:51:35Z</time></trkpt><trkpt lat="41.10754812499438" lon="14.444062693806138"><ele>65.66666666666666</ele><time>2026-05-02T14:51:36Z</time></trkpt><trkpt lat="41.10754935328632" lon="14.443818411315858"><ele>67.0</ele><time>2026-05-02T14:51:37Z</time></trkpt><trkpt lat="41.10755202635338" lon="14.443584078137336"><ele>67.33333333333333</ele><time>2026-05-02T14:51:38Z</time></trkpt><trkpt lat="41.10756559442924" lon="14.443361408101532"><ele>67.66666666666667</ele><time>2026-05-02T14:51:39Z</time></trkpt><trkpt lat="41.10756602250239" lon="14.44314897702502"><ele>68.0</ele><time>2026-05-02T14:51:40Z</time></trkpt><trkpt lat="41.10757243607143" lon="14.442947469554099"><ele>68.0</ele><time>2026-05-02T14:51:41Z</time></trkpt><trkpt lat="41.10758366764903" lon="14.442754013216309"><ele>68.0</ele><time>2026-05-02T14:51:42Z</time></trkpt><trkpt lat="41.1075921754349" lon="14.442554454264362"><ele>68.0</ele><time>2026-05-02T14:51:43Z</time></trkpt><trkpt lat="41.10760457489657" lon="14.442367136536268"><ele>68.0</ele><time>2026-05-02T14:51:44Z</time></trkpt><trkpt lat="41.10761746698635" lon="14.442199334781806"><ele>68.0</ele><time>2026-05-02T14:51:45Z</time></trkpt><trkpt lat="41.107627701666566" lon="14.442040212572072"><ele>68.0</ele><time>2026-05-02T14:51:46Z</time></trkpt><trkpt lat="41.10764736903285" lon="14.441877567208264"><ele>68.0</ele><time>2026-05-02T14:51:47Z</time></trkpt><trkpt lat="41.10767343530374" lon="14.441703000217158"><ele>68.0</ele><time>2026-05-02T14:51:48Z</time></trkpt><trkpt lat="41.107710780227094" lon="14.441529816138589"><ele>68.0</ele><time>2026-05-02T14:51:49Z</time></trkpt><trkpt lat="41.10775560956834" lon="14.441363870147349"><ele>68.0</ele><time>2026-05-02T14:51:50Z</time></trkpt><trkpt lat="41.107816422544715" lon="14.4412011351678"><ele>68.0</ele><time>2026-05-02T14:51:51Z</time></trkpt><trkpt lat="41.107881231528864" lon="14.441050834128676"><ele>68.0</ele><time>2026-05-02T14:51:52Z</time></trkpt><trkpt lat="41.10794466706739" lon="14.440887448637655"><ele>68.0</ele><time>2026-05-02T14:51:53Z</time></trkpt><trkpt lat="41.108003696225104" lon="14.440750348865619"><ele>68.0</ele><time>2026-05-02T14:51:54Z</time></trkpt><trkpt lat="41.10806491568607" lon="14.440652390826074"><ele>68.0</ele><time>2026-05-02T14:51:55Z</time></trkpt><trkpt lat="41.10813609817442" lon="14.44058437746182"><ele>68.0</ele><time>2026-05-02T14:51:56Z</time></trkpt><trkpt lat="41.10822041116772" lon="14.44055038138476"><ele>68.0</ele><time>2026-05-02T14:51:57.001Z</time></trkpt><trkpt lat="41.108314658134994" lon="14.440539553726627"><ele>68.0</ele><time>2026-05-02T14:51:58.001Z</time></trkpt><trkpt lat="41.1084135143661" lon="14.44055870769175"><ele>68.0</ele><time>2026-05-02T14:51:59.001Z</time></trkpt><trkpt lat="41.1085186684488" lon="14.440595987826876"><ele>68.0</ele><time>2026-05-02T14:52:00.001Z</time></trkpt><trkpt lat="41.10862834977477" lon="14.440661657369176"><ele>68.0</ele><time>2026-05-02T14:52:01.001Z</time></trkpt><trkpt lat="41.10875273461954" lon="14.44071353086462"><ele>68.0</ele><time>2026-05-02T14:52:02.001Z</time></trkpt><trkpt lat="41.10889408835601" lon="14.440784494063113"><ele>68.0</ele><time>2026-05-02T14:52:03.001Z</time></trkpt><trkpt lat="41.10902709314446" lon="14.440871286996144"><ele>68.0</ele><time>2026-05-02T14:52:04.001Z</time></trkpt><trkpt lat="41.10914079103896" lon="14.440970149637769"><ele>68.0</ele><time>2026-05-02T14:52:05.001Z</time></trkpt><trkpt lat="41.109238011854366" lon="14.441082641724197"><ele>67.75</ele><time>2026-05-02T14:52:06.001Z</time></trkpt><trkpt lat="41.10931879148034" lon="14.441228554702334"><ele>67.5</ele><time>2026-05-02T14:52:07.001Z</time></trkpt><trkpt lat="41.109392160034254" lon="14.441393933336721"><ele>67.25</ele><time>2026-05-02T14:52:08.001Z</time></trkpt><trkpt lat="41.1094680318767" lon="14.441555412619124"><ele>67.0</ele><time>2026-05-02T14:52:09.001Z</time></trkpt><trkpt lat="41.10955695406152" lon="14.441700382385434"><ele>67.0</ele><time>2026-05-02T14:52:10.001Z</time></trkpt><trkpt lat="41.10966255636971" lon="14.44181673368206"><ele>67.0</ele><time>2026-05-02T14:52:11.001Z</time></trkpt><trkpt lat="41.109779453232306" lon="14.441911619232576"><ele>67.0</ele><time>2026-05-02T14:52:12.001Z</time></trkpt><trkpt lat="41.10991140684492" lon="14.441988494792632"><ele>67.0</ele><time>2026-05-02T14:52:13.001Z</time></trkpt><trkpt lat="41.11008229398982" lon="14.442040804473315"><ele>67.0</ele><time>2026-05-02T14:52:14.001Z</time></trkpt><trkpt lat="41.11024463011948" lon="14.442113870101323"><ele>67.0</ele><time>2026-05-02T14:52:15.001Z</time></trkpt><trkpt lat="41.11040411591531" lon="14.442197013243552"><ele>67.0</ele><time>2026-05-02T14:52:16.001Z</time></trkpt><trkpt lat="41.11056320612561" lon="14.442293887316874"><ele>67.0</ele><time>2026-05-02T14:52:17.001Z</time></trkpt><trkpt lat="41.11071614509846" lon="14.442397306565"><ele>67.0</ele><time>2026-05-02T14:52:18.001Z</time></trkpt><trkpt lat="41.110861438258056" lon="14.442505052663092"><ele>67.0</ele><time>2026-05-02T14:52:19.001Z</time></trkpt><trkpt lat="41.110996626587365" lon="14.442607224708677"><ele>66.25</ele><time>2026-05-02T14:52:20.001Z</time></trkpt><trkpt lat="41.11111896901751" lon="14.44270393946207"><ele>65.5</ele><time>2026-05-02T14:52:21.001Z</time></trkpt><trkpt lat="41.111240350240514" lon="14.442792273815023"><ele>64.75</ele><time>2026-05-02T14:52:22.001Z</time></trkpt><trkpt lat="41.11136060515846" lon="14.442863219622103"><ele>64.0</ele><time>2026-05-02T14:52:23.001Z</time></trkpt><trkpt lat="41.111457937208115" lon="14.442954863034402"><ele>64.0</ele><time>2026-05-02T14:52:24.001Z</time></trkpt><trkpt lat="41.111554832081424" lon="14.443009282861185"><ele>64.0</ele><time>2026-05-02T14:52:25.001Z</time></trkpt><trkpt lat="41.111644204399944" lon="14.443079830979869"><ele>64.0</ele><time>2026-05-02T14:52:26.001Z</time></trkpt><trkpt lat="41.11172491366722" lon="14.44313505923735"><ele>64.0</ele><time>2026-05-02T14:52:27.001Z</time></trkpt><trkpt lat="41.11180730438374" lon="14.443186917367944"><ele>64.0</ele><time>2026-05-02T14:52:28.001Z</time></trkpt><trkpt lat="41.11188021408165" lon="14.443227453986083"><ele>63.83333333333333</ele><time>2026-05-02T14:52:29.001Z</time></trkpt><trkpt lat="41.11195247798446" lon="14.443282927479428"><ele>63.666666666666664</ele><time>2026-05-02T14:52:30.001Z</time></trkpt><trkpt lat="41.112032631268065" lon="14.443240550830357"><ele>63.5</ele><time>2026-05-02T14:52:31.001Z</time></trkpt><trkpt lat="41.11210130915717" lon="14.443213375066838"><ele>63.33333333333333</ele><time>2026-05-02T14:52:32.001Z</time></trkpt><trkpt lat="41.112197069389694" lon="14.443197265855368"><ele>63.166666666666664</ele><time>2026-05-02T14:52:35.001Z</time></trkpt><trkpt lat="41.112237391965984" lon="14.443112179663991"><ele>63.0</ele><time>2026-05-02T14:52:37.001Z</time></trkpt><trkpt lat="41.112231379576144" lon="14.442999577536808"><ele>63.0</ele><time>2026-05-02T14:52:38.001Z</time></trkpt><trkpt lat="41.112225842480015" lon="14.442883184188144"><ele>63.0</ele><time>2026-05-02T14:52:39.001Z</time></trkpt><trkpt lat="41.112250763016384" lon="14.442739870151499"><ele>63.0</ele><time>2026-05-02T14:52:40.001Z</time></trkpt><trkpt lat="41.11232656782981" lon="14.442558413972222"><ele>63.0</ele><time>2026-05-02T14:52:41.001Z</time></trkpt><trkpt lat="41.112391329678104" lon="14.442356735707467"><ele>62.0</ele><time>2026-05-02T14:52:42.001Z</time></trkpt><trkpt lat="41.112488899729684" lon="14.442150881685684"><ele>61.0</ele><time>2026-05-02T14:52:43.001Z</time></trkpt><trkpt lat="41.11260279639469" lon="14.441955853564442"><ele>60.0</ele><time>2026-05-02T14:52:44.001Z</time></trkpt><trkpt lat="41.11271703911034" lon="14.441758488141138"><ele>59.33333333333333</ele><time>2026-05-02T14:52:45.001Z</time></trkpt><trkpt lat="41.112823606018246" lon="14.441559675616933"><ele>58.666666666666664</ele><time>2026-05-02T14:52:46.001Z</time></trkpt><trkpt lat="41.11293114359807" lon="14.441350354494071"><ele>58.0</ele><time>2026-05-02T14:52:47.001Z</time></trkpt><trkpt lat="41.11303286223257" lon="14.44112309252064"><ele>58.0</ele><time>2026-05-02T14:52:48.001Z</time></trkpt><trkpt lat="41.11314900721831" lon="14.440903640506521"><ele>58.0</ele><time>2026-05-02T14:52:49.001Z</time></trkpt><trkpt lat="41.11324885890892" lon="14.440697785948942"><ele>58.0</ele><time>2026-05-02T14:52:50.001Z</time></trkpt><trkpt lat="41.11334754061266" lon="14.44049402925494"><ele>54.666666666666664</ele><time>2026-05-02T14:52:51.001Z</time></trkpt><trkpt lat="41.11346711979786" lon="14.440275478699972"><ele>51.33333333333333</ele><time>2026-05-02T14:52:52.001Z</time></trkpt><trkpt lat="41.113584639234766" lon="14.440112861574894"><ele>48.0</ele><time>2026-05-02T14:52:53.001Z</time></trkpt><trkpt lat="41.11373313283027" lon="14.439945265500425"><ele>48.0</ele><time>2026-05-02T14:52:54.001Z</time></trkpt><trkpt lat="41.11387407262019" lon="14.439796423853672"><ele>48.0</ele><time>2026-05-02T14:52:55.001Z</time></trkpt><trkpt lat="41.11398911680988" lon="14.439644703014693"><ele>48.0</ele><time>2026-05-02T14:52:56.001Z</time></trkpt><trkpt lat="41.11407504423627" lon="14.43946271336638"><ele>48.0</ele><time>2026-05-02T14:52:57.001Z</time></trkpt><trkpt lat="41.11414343608886" lon="14.4392298154872"><ele>48.0</ele><time>2026-05-02T14:52:58.001Z</time></trkpt><trkpt lat="41.11419289489365" lon="14.439008292496192"><ele>48.0</ele><time>2026-05-02T14:52:59.001Z</time></trkpt><trkpt lat="41.11424466306064" lon="14.438800736871798"><ele>48.0</ele><time>2026-05-02T14:53:00.001Z</time></trkpt><trkpt lat="41.114300627848834" lon="14.438618921349846"><ele>48.0</ele><time>2026-05-02T14:53:01.001Z</time></trkpt><trkpt lat="41.11437714267492" lon="14.438433238926338"><ele>48.0</ele><time>2026-05-02T14:53:02.002Z</time></trkpt><trkpt lat="41.11448895521746" lon="14.438287856202466"><ele>48.0</ele><time>2026-05-02T14:53:03.002Z</time></trkpt><trkpt lat="41.11460628456461" lon="14.438150395158582"><ele>48.0</ele><time>2026-05-02T14:53:04.002Z</time></trkpt><trkpt lat="41.11472445430512" lon="14.438000816038935"><ele>48.0</ele><time>2026-05-02T14:53:05.002Z</time></trkpt><trkpt lat="41.11485994234026" lon="14.437871808298542"><ele>47.0</ele><time>2026-05-02T14:53:06.002Z</time></trkpt><trkpt lat="41.11499410884865" lon="14.437747872809192"><ele>46.0</ele><time>2026-05-02T14:53:07.002Z</time></trkpt><trkpt lat="41.11514160365246" lon="14.437621825131915"><ele>45.0</ele><time>2026-05-02T14:53:08.002Z</time></trkpt><trkpt lat="41.115270612042934" lon="14.437501810720946"><ele>45.0</ele><time>2026-05-02T14:53:09.002Z</time></trkpt><trkpt lat="41.11539270652458" lon="14.437379469609503"><ele>45.0</ele><time>2026-05-02T14:53:10.002Z</time></trkpt><trkpt lat="41.11547826027909" lon="14.437239732407818"><ele>45.0</ele><time>2026-05-02T14:53:11Z</time></trkpt><trkpt lat="41.11554716672361" lon="14.437069677695261"><ele>45.0</ele><time>2026-05-02T14:53:12Z</time></trkpt><trkpt lat="41.11560575351637" lon="14.436877609467452"><ele>45.333333333333336</ele><time>2026-05-02T14:53:13Z</time></trkpt><trkpt lat="41.11566776845397" lon="14.43668863309875"><ele>45.66666666666667</ele><time>2026-05-02T14:53:14Z</time></trkpt><trkpt lat="41.1157090160113" lon="14.436473246105253"><ele>46.0</ele><time>2026-05-02T14:53:15Z</time></trkpt><trkpt lat="41.11572958989987" lon="14.43624454858915"><ele>46.0</ele><time>2026-05-02T14:53:16Z</time></trkpt><trkpt lat="41.1157812159957" lon="14.43603870754132"><ele>46.0</ele><time>2026-05-02T14:53:17Z</time></trkpt><trkpt lat="41.11583731957055" lon="14.43586601527584"><ele>46.0</ele><time>2026-05-02T14:53:18Z</time></trkpt><trkpt lat="41.11590070380066" lon="14.435721239888233"><ele>46.0</ele><time>2026-05-02T14:53:19Z</time></trkpt><trkpt lat="41.11597574679839" lon="14.43559902132638"><ele>46.0</ele><time>2026-05-02T14:53:20Z</time></trkpt><trkpt lat="41.11607059014428" lon="14.435512832982253"><ele>46.0</ele><time>2026-05-02T14:53:21Z</time></trkpt><trkpt lat="41.11619323119099" lon="14.435442267922037"><ele>46.0</ele><time>2026-05-02T14:53:22Z</time></trkpt><trkpt lat="41.1163363457713" lon="14.435375008979465"><ele>46.0</ele><time>2026-05-02T14:53:23Z</time></trkpt><trkpt lat="41.11648547811144" lon="14.43529968200798"><ele>45.66666666666667</ele><time>2026-05-02T14:53:24Z</time></trkpt><trkpt lat="41.11663253224052" lon="14.435220063082419"><ele>45.333333333333336</ele><time>2026-05-02T14:53:25Z</time></trkpt><trkpt lat="41.11678695346176" lon="14.43511741825427"><ele>45.0</ele><time>2026-05-02T14:53:26Z</time></trkpt><trkpt lat="41.116936245431496" lon="14.434992224466209"><ele>45.0</ele><time>2026-05-02T14:53:27Z</time></trkpt><trkpt lat="41.11708470878054" lon="14.434854321502755"><ele>45.0</ele><time>2026-05-02T14:53:28Z</time></trkpt><trkpt lat="41.11723054448064" lon="14.434720890873693"><ele>45.0</ele><time>2026-05-02T14:53:29Z</time></trkpt><trkpt lat="41.117366300355954" lon="14.434601452938347"><ele>45.0</ele><time>2026-05-02T14:53:30Z</time></trkpt><trkpt lat="41.117492536503676" lon="14.434486053246982"><ele>45.0</ele><time>2026-05-02T14:53:31Z</time></trkpt><trkpt lat="41.117618419133564" lon="14.434377306006555"><ele>45.0</ele><time>2026-05-02T14:53:32Z</time></trkpt><trkpt lat="41.11774128595613" lon="14.434261613627456"><ele>45.0</ele><time>2026-05-02T14:53:33Z</time></trkpt><trkpt lat="41.117866441250854" lon="14.434135787913844"><ele>45.0</ele><time>2026-05-02T14:53:34Z</time></trkpt><trkpt lat="41.11797861967126" lon="14.433990370513788"><ele>45.0</ele><time>2026-05-02T14:53:35Z</time></trkpt><trkpt lat="41.118086927323496" lon="14.433838776936936"><ele>45.0</ele><time>2026-05-02T14:53:36Z</time></trkpt><trkpt lat="41.1181796118374" lon="14.433660760343527"><ele>45.0</ele><time>2026-05-02T14:53:37Z</time></trkpt><trkpt lat="41.11827075327369" lon="14.43347015777279"><ele>45.0</ele><time>2026-05-02T14:53:38Z</time></trkpt><trkpt lat="41.118358175981314" lon="14.433273813703055"><ele>45.0</ele><time>2026-05-02T14:53:39Z</time></trkpt><trkpt lat="41.11845826562796" lon="14.433080430603184"><ele>45.0</ele><time>2026-05-02T14:53:40Z</time></trkpt><trkpt lat="41.11855668259692" lon="14.432882762532074"><ele>45.0</ele><time>2026-05-02T14:53:41Z</time></trkpt><trkpt lat="41.11866115803297" lon="14.432693669800818"><ele>45.25</ele><time>2026-05-02T14:53:42Z</time></trkpt><trkpt lat="41.1187641439713" lon="14.432521571600075"><ele>45.5</ele><time>2026-05-02T14:53:43Z</time></trkpt><trkpt lat="41.118856139329445" lon="14.432372984952268"><ele>45.75</ele><time>2026-05-02T14:53:44Z</time></trkpt><trkpt lat="41.118945481989854" lon="14.432243794442101"><ele>46.0</ele><time>2026-05-02T14:53:45Z</time></trkpt><trkpt lat="41.11903928857001" lon="14.432136176605773"><ele>45.5</ele><time>2026-05-02T14:53:46Z</time></trkpt><trkpt lat="41.119170168153616" lon="14.432040691051032"><ele>45.0</ele><time>2026-05-02T14:53:47Z</time></trkpt><trkpt lat="41.119313048337354" lon="14.4319772873235"><ele>44.5</ele><time>2026-05-02T14:53:48Z</time></trkpt><trkpt lat="41.11945242706497" lon="14.43192056258194"><ele>44.0</ele><time>2026-05-02T14:53:49Z</time></trkpt><trkpt lat="41.11956587921184" lon="14.431849544231822"><ele>44.0</ele><time>2026-05-02T14:53:50Z</time></trkpt><trkpt lat="41.11965356744426" lon="14.431739897408345"><ele>44.0</ele><time>2026-05-02T14:53:51Z</time></trkpt><trkpt lat="41.119749841844076" lon="14.431606343775448"><ele>44.0</ele><time>2026-05-02T14:53:52Z</time></trkpt><trkpt lat="41.11984139245674" lon="14.431437273861938"><ele>44.0</ele><time>2026-05-02T14:53:53Z</time></trkpt><trkpt lat="41.11994140753014" lon="14.431251396312703"><ele>43.666666666666664</ele><time>2026-05-02T14:53:54Z</time></trkpt><trkpt lat="41.120014633607596" lon="14.431023389793424"><ele>43.333333333333336</ele><time>2026-05-02T14:53:55Z</time></trkpt><trkpt lat="41.12013180935789" lon="14.430823013767682"><ele>43.0</ele><time>2026-05-02T14:53:56Z</time></trkpt><trkpt lat="41.12023675771927" lon="14.43063704152425"><ele>44.0</ele><time>2026-05-02T14:53:57Z</time></trkpt><trkpt lat="41.12034714038042" lon="14.43044928797481"><ele>45.0</ele><time>2026-05-02T14:53:58Z</time></trkpt><trkpt lat="41.12047474012391" lon="14.430285328285644"><ele>46.0</ele><time>2026-05-02T14:53:59Z</time></trkpt><trkpt lat="41.12057577722237" lon="14.430113790682613"><ele>46.0</ele><time>2026-05-02T14:54:00Z</time></trkpt><trkpt lat="41.12068491794933" lon="14.429949472041965"><ele>46.0</ele><time>2026-05-02T14:54:01Z</time></trkpt><trkpt lat="41.12082254628822" lon="14.429794485316924"><ele>46.0</ele><time>2026-05-02T14:54:02Z</time></trkpt><trkpt lat="41.120962533550575" lon="14.429638385835963"><ele>46.5</ele><time>2026-05-02T14:54:03.001Z</time></trkpt><trkpt lat="41.12109588381499" lon="14.429525435715007"><ele>47.0</ele><time>2026-05-02T14:54:04.001Z</time></trkpt><trkpt lat="41.12120857334473" lon="14.429417100144077"><ele>47.5</ele><time>2026-05-02T14:54:05.001Z</time></trkpt><trkpt lat="41.12130109352883" lon="14.429292635172793"><ele>48.0</ele><time>2026-05-02T14:54:06.001Z</time></trkpt><trkpt lat="41.12135747910831" lon="14.429157516503416"><ele>48.0</ele><time>2026-05-02T14:54:07.001Z</time></trkpt><trkpt lat="41.121379869400286" lon="14.428998357377562"><ele>48.0</ele><time>2026-05-02T14:54:08.001Z</time></trkpt><trkpt lat="41.12137714478148" lon="14.428794996785628"><ele>48.0</ele><time>2026-05-02T14:54:09.001Z</time></trkpt><trkpt lat="41.121389867720545" lon="14.428579031259039"><ele>48.0</ele><time>2026-05-02T14:54:10.001Z</time></trkpt><trkpt lat="41.1214053669185" lon="14.428357748451107"><ele>49.0</ele><time>2026-05-02T14:54:11.001Z</time></trkpt><trkpt lat="41.12144139552853" lon="14.428145252997162"><ele>50.0</ele><time>2026-05-02T14:54:12.001Z</time></trkpt><trkpt lat="41.12147465732779" lon="14.427955773319628"><ele>51.0</ele><time>2026-05-02T14:54:13.001Z</time></trkpt><trkpt lat="41.121506602651216" lon="14.42779087156662"><ele>52.0</ele><time>2026-05-02T14:54:14.001Z</time></trkpt><trkpt lat="41.12152429745352" lon="14.427624889515254"><ele>52.0</ele><time>2026-05-02T14:54:15.001Z</time></trkpt><trkpt lat="41.12156062440194" lon="14.427472754496064"><ele>52.0</ele><time>2026-05-02T14:54:16.001Z</time></trkpt><trkpt lat="41.121596292360245" lon="14.427331731345864"><ele>52.0</ele><time>2026-05-02T14:54:17.001Z</time></trkpt><trkpt lat="41.1216194018826" lon="14.427199048509484"><ele>52.0</ele><time>2026-05-02T14:54:18.001Z</time></trkpt><trkpt lat="41.12166025429241" lon="14.427066426773914"><ele>52.0</ele><time>2026-05-02T14:54:19.001Z</time></trkpt><trkpt lat="41.121704986414116" lon="14.4269413071877"><ele>50.2</ele><time>2026-05-02T14:54:20.001Z</time></trkpt><trkpt lat="41.12176489406298" lon="14.426815804172406"><ele>48.400000000000006</ele><time>2026-05-02T14:54:21.001Z</time></trkpt><trkpt lat="41.121834769833086" lon="14.426698808447751"><ele>46.599999999999994</ele><time>2026-05-02T14:54:22.001Z</time></trkpt><trkpt lat="41.12191237754638" lon="14.426590754502303"><ele>44.8</ele><time>2026-05-02T14:54:23.001Z</time></trkpt><trkpt lat="41.12199173057671" lon="14.426493705549817"><ele>43.0</ele><time>2026-05-02T14:54:24.001Z</time></trkpt><trkpt lat="41.12206065551895" lon="14.426409221680249"><ele>43.0</ele><time>2026-05-02T14:54:25.001Z</time></trkpt><trkpt lat="41.12212334019081" lon="14.426340722099878"><ele>43.0</ele><time>2026-05-02T14:54:26.001Z</time></trkpt><trkpt lat="41.12217722691013" lon="14.42629537258131"><ele>43.0</ele><time>2026-05-02T14:54:27.001Z</time></trkpt><trkpt lat="41.12225979132997" lon="14.426222603980031"><ele>43.0</ele><time>2026-05-02T14:54:29.001Z</time></trkpt><trkpt lat="41.12232790384062" lon="14.426171601289656"><ele>43.0</ele><time>2026-05-02T14:54:30.001Z</time></trkpt><trkpt lat="41.1224185438512" lon="14.426116311084634"><ele>43.0</ele><time>2026-05-02T14:54:31.001Z</time></trkpt><trkpt lat="41.12254912406229" lon="14.426047855388502"><ele>43.66666666666667</ele><time>2026-05-02T14:54:32.001Z</time></trkpt><trkpt lat="41.122699766635236" lon="14.42597482018895"><ele>44.333333333333336</ele><time>2026-05-02T14:54:33.001Z</time></trkpt><trkpt lat="41.122872153966796" lon="14.4258942746911"><ele>45.0</ele><time>2026-05-02T14:54:34.001Z</time></trkpt><trkpt lat="41.123054467270144" lon="14.425813341875068"><ele>45.0</ele><time>2026-05-02T14:54:35.001Z</time></trkpt><trkpt lat="41.123213875640815" lon="14.425700650953155"><ele>45.0</ele><time>2026-05-02T14:54:36.001Z</time></trkpt><trkpt lat="41.12334734354716" lon="14.425576560640216"><ele>45.0</ele><time>2026-05-02T14:54:37.001Z</time></trkpt><trkpt lat="41.12350255838958" lon="14.425489391480532"><ele>45.0</ele><time>2026-05-02T14:54:38.001Z</time></trkpt><trkpt lat="41.1236615725849" lon="14.425414729950958"><ele>45.0</ele><time>2026-05-02T14:54:39.001Z</time></trkpt><trkpt lat="41.12381562170543" lon="14.425352869706769"><ele>45.0</ele><time>2026-05-02T14:54:40.001Z</time></trkpt><trkpt lat="41.12394938253938" lon="14.425235173429424"><ele>44.25</ele><time>2026-05-02T14:54:41.001Z</time></trkpt><trkpt lat="41.124063391605304" lon="14.425120714898569"><ele>43.5</ele><time>2026-05-02T14:54:42.001Z</time></trkpt><trkpt lat="41.124180201188835" lon="14.425019939500038"><ele>42.75</ele><time>2026-05-02T14:54:43.001Z</time></trkpt><trkpt lat="41.12428897415445" lon="14.42493518256576"><ele>42.0</ele><time>2026-05-02T14:54:44.001Z</time></trkpt><trkpt lat="41.12441345942135" lon="14.424880420084886"><ele>42.0</ele><time>2026-05-02T14:54:45.001Z</time></trkpt><trkpt lat="41.12455388474948" lon="14.424864461910612"><ele>42.0</ele><time>2026-05-02T14:54:46.001Z</time></trkpt><trkpt lat="41.124705380902384" lon="14.424844040230951"><ele>42.0</ele><time>2026-05-02T14:54:47.001Z</time></trkpt><trkpt lat="41.1248693408066" lon="14.424824332364565"><ele>41.75</ele><time>2026-05-02T14:54:48.001Z</time></trkpt><trkpt lat="41.124981789559484" lon="14.42478511879912"><ele>41.5</ele><time>2026-05-02T14:54:49.001Z</time></trkpt><trkpt lat="41.12511869142812" lon="14.42475663088229"><ele>41.25</ele><time>2026-05-02T14:54:50.001Z</time></trkpt><trkpt lat="41.12527837851538" lon="14.424674867645386"><ele>41.0</ele><time>2026-05-02T14:54:51.001Z</time></trkpt><trkpt lat="41.12546237639975" lon="14.424571566603968"><ele>40.666666666666664</ele><time>2026-05-02T14:54:52.001Z</time></trkpt><trkpt lat="41.125655096582186" lon="14.424477934070463"><ele>40.333333333333336</ele><time>2026-05-02T14:54:53.001Z</time></trkpt><trkpt lat="41.12581912919401" lon="14.42437184897116"><ele>40.0</ele><time>2026-05-02T14:54:54.001Z</time></trkpt><trkpt lat="41.125972089269396" lon="14.424267656129967"><ele>39.66666666666667</ele><time>2026-05-02T14:54:55.001Z</time></trkpt><trkpt lat="41.12609914818064" lon="14.424155499936512"><ele>39.333333333333336</ele><time>2026-05-02T14:54:56.001Z</time></trkpt><trkpt lat="41.12621906156029" lon="14.424004842141933"><ele>39.0</ele><time>2026-05-02T14:54:57.001Z</time></trkpt><trkpt lat="41.12634400936029" lon="14.423815267326205"><ele>38.666666666666664</ele><time>2026-05-02T14:54:58.001Z</time></trkpt><trkpt lat="41.126451575793055" lon="14.423601399232092"><ele>38.33333333333333</ele><time>2026-05-02T14:54:59.001Z</time></trkpt><trkpt lat="41.12658545184181" lon="14.423414357486935"><ele>38.0</ele><time>2026-05-02T14:55:00.001Z</time></trkpt><trkpt lat="41.12673734872597" lon="14.423255656750623"><ele>38.0</ele><time>2026-05-02T14:55:01.001Z</time></trkpt><trkpt lat="41.12689690133121" lon="14.42311399993654"><ele>38.0</ele><time>2026-05-02T14:55:02.001Z</time></trkpt><trkpt lat="41.12706708966302" lon="14.422966399055214"><ele>38.0</ele><time>2026-05-02T14:55:03.002Z</time></trkpt><trkpt lat="41.12721688144125" lon="14.422805552028967"><ele>38.33333333333333</ele><time>2026-05-02T14:55:04.002Z</time></trkpt><trkpt lat="41.12738509265268" lon="14.422663808355352"><ele>38.666666666666664</ele><time>2026-05-02T14:55:05.002Z</time></trkpt><trkpt lat="41.12755367889561" lon="14.42250018351585"><ele>39.0</ele><time>2026-05-02T14:55:06.002Z</time></trkpt><trkpt lat="41.127719277884765" lon="14.422349774687026"><ele>39.0</ele><time>2026-05-02T14:55:07.002Z</time></trkpt><trkpt lat="41.1278627824824" lon="14.422221897407253"><ele>39.0</ele><time>2026-05-02T14:55:08.002Z</time></trkpt><trkpt lat="41.12799281986441" lon="14.422083389153475"><ele>39.0</ele><time>2026-05-02T14:55:09.002Z</time></trkpt><trkpt lat="41.128123309829846" lon="14.421931548327542"><ele>37.333333333333336</ele><time>2026-05-02T14:55:10.002Z</time></trkpt><trkpt lat="41.12824786293878" lon="14.42174212419966"><ele>35.66666666666667</ele><time>2026-05-02T14:55:11.002Z</time></trkpt><trkpt lat="41.12834842894659" lon="14.421548448663478"><ele>34.0</ele><time>2026-05-02T14:55:12.002Z</time></trkpt><trkpt lat="41.128431306321495" lon="14.42137182793617"><ele>34.0</ele><time>2026-05-02T14:55:13.002Z</time></trkpt><trkpt lat="41.12849260640483" lon="14.421181537587097"><ele>34.0</ele><time>2026-05-02T14:55:14.002Z</time></trkpt><trkpt lat="41.12854060059552" lon="14.420950937437953"><ele>34.0</ele><time>2026-05-02T14:55:15.002Z</time></trkpt><trkpt lat="41.128550694469574" lon="14.420701520448867"><ele>34.333333333333336</ele><time>2026-05-02T14:55:16.002Z</time></trkpt><trkpt lat="41.1285786575642" lon="14.420451106168015"><ele>34.666666666666664</ele><time>2026-05-02T14:55:17Z</time></trkpt><trkpt lat="41.12860028377163" lon="14.420210096828932"><ele>35.0</ele><time>2026-05-02T14:55:17.999Z</time></trkpt><trkpt lat="41.128640097056845" lon="14.419981709918666"><ele>35.0</ele><time>2026-05-02T14:55:19Z</time></trkpt><trkpt lat="41.128713140989795" lon="14.419769327968375"><ele>35.0</ele><time>2026-05-02T14:55:20Z</time></trkpt><trkpt lat="41.128773665990714" lon="14.419572357444805"><ele>35.0</ele><time>2026-05-02T14:55:21Z</time></trkpt><trkpt lat="41.12882676681012" lon="14.41940182275666"><ele>35.2</ele><time>2026-05-02T14:55:22Z</time></trkpt><trkpt lat="41.12886904412407" lon="14.419259508997953"><ele>35.4</ele><time>2026-05-02T14:55:23Z</time></trkpt><trkpt lat="41.12890504726324" lon="14.419136105639467"><ele>35.6</ele><time>2026-05-02T14:55:24Z</time></trkpt><trkpt lat="41.12894466320378" lon="14.419008852811938"><ele>35.8</ele><time>2026-05-02T14:55:25Z</time></trkpt><trkpt lat="41.12898128108542" lon="14.418877186358882"><ele>36.0</ele><time>2026-05-02T14:55:26Z</time></trkpt><trkpt lat="41.12900978190461" lon="14.418774118389722"><ele>36.0</ele><time>2026-05-02T14:55:27Z</time></trkpt><trkpt lat="41.12904977995342" lon="14.418660862444774"><ele>36.0</ele><time>2026-05-02T14:55:28Z</time></trkpt><trkpt lat="41.12907853889548" lon="14.41854805371077"><ele>36.0</ele><time>2026-05-02T14:55:29Z</time></trkpt><trkpt lat="41.12911678433624" lon="14.418423899358231"><ele>36.0</ele><time>2026-05-02T14:55:30Z</time></trkpt><trkpt lat="41.1291213143561" lon="14.418264043982324"><ele>36.0</ele><time>2026-05-02T14:55:31Z</time></trkpt><trkpt lat="41.12910294876377" lon="14.418077130935504"><ele>35.666666666666664</ele><time>2026-05-02T14:55:32Z</time></trkpt><trkpt lat="41.129072188834705" lon="14.417882945078476"><ele>35.33333333333333</ele><time>2026-05-02T14:55:33Z</time></trkpt><trkpt lat="41.12903191874358" lon="14.417661311193873"><ele>35.0</ele><time>2026-05-02T14:55:34Z</time></trkpt><trkpt lat="41.12899293178295" lon="14.417436015214442"><ele>35.666666666666664</ele><time>2026-05-02T14:55:35Z</time></trkpt><trkpt lat="41.12895061278228" lon="14.41720165563116"><ele>36.333333333333336</ele><time>2026-05-02T14:55:36Z</time></trkpt><trkpt lat="41.12889060146678" lon="14.416986198911458"><ele>37.0</ele><time>2026-05-02T14:55:37Z</time></trkpt><trkpt lat="41.12885332315449" lon="14.416791752823976"><ele>37.0</ele><time>2026-05-02T14:55:38Z</time></trkpt><trkpt lat="41.12880429595231" lon="14.416618786380662"><ele>37.0</ele><time>2026-05-02T14:55:39Z</time></trkpt><trkpt lat="41.12876183223899" lon="14.416470380365562"><ele>37.0</ele><time>2026-05-02T14:55:40Z</time></trkpt><trkpt lat="41.12872334298901" lon="14.416335569034663"><ele>37.0</ele><time>2026-05-02T14:55:41Z</time></trkpt><trkpt lat="41.12868889702226" lon="14.41620037012312"><ele>36.800000000000004</ele><time>2026-05-02T14:55:42Z</time></trkpt><trkpt lat="41.12866021075794" lon="14.416065063731024"><ele>36.6</ele><time>2026-05-02T14:55:43Z</time></trkpt><trkpt lat="41.12863788103942" lon="14.415914999770594"><ele>36.400000000000006</ele><time>2026-05-02T14:55:44Z</time></trkpt><trkpt lat="41.128634925582645" lon="14.415771600618578"><ele>36.2</ele><time>2026-05-02T14:55:45Z</time></trkpt><trkpt lat="41.12865494955491" lon="14.415631373840828"><ele>36.0</ele><time>2026-05-02T14:55:46Z</time></trkpt><trkpt lat="41.128712314003714" lon="14.415493804374757"><ele>36.0</ele><time>2026-05-02T14:55:47Z</time></trkpt><trkpt lat="41.128777955095046" lon="14.415365246219821"><ele>36.0</ele><time>2026-05-02T14:55:48Z</time></trkpt><trkpt lat="41.128857520348554" lon="14.415238044242711"><ele>36.0</ele><time>2026-05-02T14:55:49Z</time></trkpt><trkpt lat="41.12893775044791" lon="14.415113490606663"><ele>36.0</ele><time>2026-05-02T14:55:50Z</time></trkpt><trkpt lat="41.12899921388451" lon="14.41496909846239"><ele>36.0</ele><time>2026-05-02T14:55:51Z</time></trkpt><trkpt lat="41.1290775281695" lon="14.414850134547944"><ele>36.0</ele><time>2026-05-02T14:55:52Z</time></trkpt><trkpt lat="41.12911620839787" lon="14.414708795755809"><ele>36.0</ele><time>2026-05-02T14:55:53Z</time></trkpt><trkpt lat="41.12914850513805" lon="14.414559767025468"><ele>36.0</ele><time>2026-05-02T14:55:54Z</time></trkpt><trkpt lat="41.12915955749694" lon="14.414393217296022"><ele>36.5</ele><time>2026-05-02T14:55:55Z</time></trkpt><trkpt lat="41.129166881639506" lon="14.414230709186628"><ele>37.0</ele><time>2026-05-02T14:55:56Z</time></trkpt><trkpt lat="41.12916842045783" lon="14.414058363499288"><ele>37.5</ele><time>2026-05-02T14:55:57Z</time></trkpt><trkpt lat="41.12917346103141" lon="14.413884664710025"><ele>38.0</ele><time>2026-05-02T14:55:58Z</time></trkpt><trkpt lat="41.129189766160756" lon="14.413718082996642"><ele>38.25</ele><time>2026-05-02T14:55:59Z</time></trkpt><trkpt lat="41.12922618500571" lon="14.413557861123067"><ele>38.5</ele><time>2026-05-02T14:56:00Z</time></trkpt><trkpt lat="41.1292850506656" lon="14.413429566803933"><ele>38.75</ele><time>2026-05-02T14:56:01Z</time></trkpt><trkpt lat="41.129360688267276" lon="14.413315757401323"><ele>39.0</ele><time>2026-05-02T14:56:02Z</time></trkpt><trkpt lat="41.12948089666928" lon="14.413207520894895"><ele>39.0</ele><time>2026-05-02T14:56:03Z</time></trkpt><trkpt lat="41.129602344644255" lon="14.413117122719962"><ele>39.0</ele><time>2026-05-02T14:56:04Z</time></trkpt><trkpt lat="41.12970923839177" lon="14.41300776435387"><ele>39.0</ele><time>2026-05-02T14:56:05Z</time></trkpt><trkpt lat="41.12982203803721" lon="14.412926541697427"><ele>39.0</ele><time>2026-05-02T14:56:06Z</time></trkpt><trkpt lat="41.12993439526374" lon="14.412809555067119"><ele>39.0</ele><time>2026-05-02T14:56:07Z</time></trkpt><trkpt lat="41.13004548155247" lon="14.412695449503662"><ele>39.0</ele><time>2026-05-02T14:56:08Z</time></trkpt><trkpt lat="41.130151728567874" lon="14.412578027743042"><ele>39.0</ele><time>2026-05-02T14:56:09Z</time></trkpt><trkpt lat="41.130250832078595" lon="14.412450426171564"><ele>39.0</ele><time>2026-05-02T14:56:10Z</time></trkpt><trkpt lat="41.13034316783486" lon="14.412325108120868"><ele>39.0</ele><time>2026-05-02T14:56:11.001Z</time></trkpt><trkpt lat="41.13042627429419" lon="14.412183515334833"><ele>39.0</ele><time>2026-05-02T14:56:12.001Z</time></trkpt><trkpt lat="41.13051764543149" lon="14.412007053897163"><ele>39.0</ele><time>2026-05-02T14:56:13.001Z</time></trkpt><trkpt lat="41.130616284228736" lon="14.411812396787356"><ele>38.666666666666664</ele><time>2026-05-02T14:56:14.001Z</time></trkpt><trkpt lat="41.1307245644769" lon="14.411596481479219"><ele>38.33333333333333</ele><time>2026-05-02T14:56:15.001Z</time></trkpt><trkpt lat="41.130836042303386" lon="14.411375455669674"><ele>38.0</ele><time>2026-05-02T14:56:16.001Z</time></trkpt><trkpt lat="41.13094101205323" lon="14.41116759185274"><ele>38.0</ele><time>2026-05-02T14:56:17.001Z</time></trkpt><trkpt lat="41.13102865346523" lon="14.410965879321795"><ele>38.0</ele><time>2026-05-02T14:56:18.001Z</time></trkpt><trkpt lat="41.13114632327324" lon="14.410768593366514"><ele>38.0</ele><time>2026-05-02T14:56:19.001Z</time></trkpt><trkpt lat="41.1312393686798" lon="14.410585080514712"><ele>38.0</ele><time>2026-05-02T14:56:20.001Z</time></trkpt><trkpt lat="41.131327054219355" lon="14.410393541609166"><ele>38.0</ele><time>2026-05-02T14:56:21.001Z</time></trkpt><trkpt lat="41.13140587136505" lon="14.410199386647424"><ele>38.0</ele><time>2026-05-02T14:56:22.001Z</time></trkpt><trkpt lat="41.13147881615651" lon="14.410006126240397"><ele>38.0</ele><time>2026-05-02T14:56:23.001Z</time></trkpt><trkpt lat="41.13153704931192" lon="14.409821423582038"><ele>38.0</ele><time>2026-05-02T14:56:24.001Z</time></trkpt><trkpt lat="41.131589328824994" lon="14.409639307967018"><ele>38.0</ele><time>2026-05-02T14:56:25.001Z</time></trkpt><trkpt lat="41.13164121556754" lon="14.409465058118807"><ele>38.0</ele><time>2026-05-02T14:56:26.001Z</time></trkpt><trkpt lat="41.131691382109466" lon="14.409304794456014"><ele>37.75</ele><time>2026-05-02T14:56:27.001Z</time></trkpt><trkpt lat="41.13174393496996" lon="14.409157199423543"><ele>37.5</ele><time>2026-05-02T14:56:28.001Z</time></trkpt><trkpt lat="41.13179939265193" lon="14.409025336636864"><ele>37.25</ele><time>2026-05-02T14:56:29.001Z</time></trkpt><trkpt lat="41.13185871854267" lon="14.40891140703884"><ele>37.0</ele><time>2026-05-02T14:56:30.001Z</time></trkpt><trkpt lat="41.13191431216478" lon="14.408781641870682"><ele>37.5</ele><time>2026-05-02T14:56:31.001Z</time></trkpt><trkpt lat="41.131983381214106" lon="14.40863688402342"><ele>38.0</ele><time>2026-05-02T14:56:32.001Z</time></trkpt><trkpt lat="41.13205247392777" lon="14.408503296774638"><ele>38.5</ele><time>2026-05-02T14:56:33.001Z</time></trkpt><trkpt lat="41.13212693016555" lon="14.408377351933625"><ele>39.0</ele><time>2026-05-02T14:56:34.001Z</time></trkpt><trkpt lat="41.13223027328149" lon="14.40826781472845"><ele>39.0</ele><time>2026-05-02T14:56:35.001Z</time></trkpt><trkpt lat="41.13230302890799" lon="14.408164091077914"><ele>39.0</ele><time>2026-05-02T14:56:36.001Z</time></trkpt><trkpt lat="41.132379391207245" lon="14.408057870787182"><ele>39.0</ele><time>2026-05-02T14:56:37.001Z</time></trkpt><trkpt lat="41.13245077027947" lon="14.40795606324588"><ele>39.0</ele><time>2026-05-02T14:56:38.001Z</time></trkpt><trkpt lat="41.13253491012423" lon="14.407861851376984"><ele>39.0</ele><time>2026-05-02T14:56:39.001Z</time></trkpt><trkpt lat="41.13262749057663" lon="14.407774785894395"><ele>39.0</ele><time>2026-05-02T14:56:40.001Z</time></trkpt><trkpt lat="41.132725873300366" lon="14.407688415684541"><ele>39.0</ele><time>2026-05-02T14:56:41.001Z</time></trkpt><trkpt lat="41.13281710325375" lon="14.407598279053119"><ele>39.0</ele><time>2026-05-02T14:56:42.001Z</time></trkpt><trkpt lat="41.13292943618775" lon="14.407531889753416"><ele>39.0</ele><time>2026-05-02T14:56:43.001Z</time></trkpt><trkpt lat="41.13302712799328" lon="14.407426181286825"><ele>39.0</ele><time>2026-05-02T14:56:44.001Z</time></trkpt><trkpt lat="41.133126422274955" lon="14.407361617073192"><ele>39.0</ele><time>2026-05-02T14:56:45.001Z</time></trkpt><trkpt lat="41.13325272413064" lon="14.407280039732077"><ele>39.0</ele><time>2026-05-02T14:56:46.001Z</time></trkpt><trkpt lat="41.13337677458183" lon="14.407199185800428"><ele>39.0</ele><time>2026-05-02T14:56:47.001Z</time></trkpt><trkpt lat="41.13350233194283" lon="14.407121480572325"><ele>38.5</ele><time>2026-05-02T14:56:48.001Z</time></trkpt><trkpt lat="41.133627196704076" lon="14.407043450545354"><ele>38.0</ele><time>2026-05-02T14:56:49.001Z</time></trkpt><trkpt lat="41.13375355383883" lon="14.406979036557635"><ele>37.5</ele><time>2026-05-02T14:56:50.001Z</time></trkpt><trkpt lat="41.133876695500966" lon="14.406910113077783"><ele>37.0</ele><time>2026-05-02T14:56:51.001Z</time></trkpt><trkpt lat="41.13400129147379" lon="14.406845035253811"><ele>37.25</ele><time>2026-05-02T14:56:52.001Z</time></trkpt><trkpt lat="41.13412210638727" lon="14.406780622780717"><ele>37.5</ele><time>2026-05-02T14:56:53.001Z</time></trkpt><trkpt lat="41.13423230984306" lon="14.406725469857458"><ele>37.75</ele><time>2026-05-02T14:56:54.001Z</time></trkpt><trkpt lat="41.13433167652433" lon="14.406675058542382"><ele>38.0</ele><time>2026-05-02T14:56:55.001Z</time></trkpt><trkpt lat="41.13442071867607" lon="14.40662236082958"><ele>38.0</ele><time>2026-05-02T14:56:56.001Z</time></trkpt><trkpt lat="41.13451124377604" lon="14.406554104584782"><ele>38.0</ele><time>2026-05-02T14:56:57.001Z</time></trkpt><trkpt lat="41.13458774400543" lon="14.406454352403706"><ele>38.0</ele><time>2026-05-02T14:56:58.001Z</time></trkpt><trkpt lat="41.1346586183342" lon="14.406325596611817"><ele>38.0</ele><time>2026-05-02T14:56:59.001Z</time></trkpt><trkpt lat="41.13472166175752" lon="14.406191524689804"><ele>38.0</ele><time>2026-05-02T14:57:00.001Z</time></trkpt><trkpt lat="41.13478705954097" lon="14.406061263553722"><ele>38.0</ele><time>2026-05-02T14:57:01.001Z</time></trkpt><trkpt lat="41.134854738316214" lon="14.405928690737992"><ele>38.0</ele><time>2026-05-02T14:57:02.001Z</time></trkpt><trkpt lat="41.134920207123365" lon="14.405796631579644"><ele>38.0</ele><time>2026-05-02T14:57:03.001Z</time></trkpt><trkpt lat="41.13498311262848" lon="14.405666532269084"><ele>38.0</ele><time>2026-05-02T14:57:04.001Z</time></trkpt><trkpt lat="41.135050449676505" lon="14.405546797214933"><ele>38.0</ele><time>2026-05-02T14:57:05.001Z</time></trkpt><trkpt lat="41.135105748765135" lon="14.405426040372609"><ele>38.0</ele><time>2026-05-02T14:57:06.002Z</time></trkpt><trkpt lat="41.135159344708576" lon="14.405303295846892"><ele>38.0</ele><time>2026-05-02T14:57:07.002Z</time></trkpt><trkpt lat="41.135203998220874" lon="14.40519354611737"><ele>38.0</ele><time>2026-05-02T14:57:08.002Z</time></trkpt><trkpt lat="41.13526144238931" lon="14.405093436800799"><ele>38.33333333333333</ele><time>2026-05-02T14:57:09.002Z</time></trkpt><trkpt lat="41.13530017916779" lon="14.404977559136062"><ele>38.666666666666664</ele><time>2026-05-02T14:57:10.002Z</time></trkpt><trkpt lat="41.135322232661764" lon="14.404858541593839"><ele>39.0</ele><time>2026-05-02T14:57:11.002Z</time></trkpt><trkpt lat="41.13533131799611" lon="14.404754330189327"><ele>39.333333333333336</ele><time>2026-05-02T14:57:12.002Z</time></trkpt><trkpt lat="41.135343890834875" lon="14.404652844609233"><ele>39.66666666666667</ele><time>2026-05-02T14:57:13.002Z</time></trkpt><trkpt lat="41.13536135301036" lon="14.404553561850149"><ele>40.0</ele><time>2026-05-02T14:57:14.002Z</time></trkpt><trkpt lat="41.13538320647623" lon="14.404450540379779"><ele>40.0</ele><time>2026-05-02T14:57:15.002Z</time></trkpt><trkpt lat="41.135420355571654" lon="14.40435324707694"><ele>40.0</ele><time>2026-05-02T14:57:16.002Z</time></trkpt><trkpt lat="41.135482637310226" lon="14.404281289212006"><ele>40.0</ele><time>2026-05-02T14:57:17.002Z</time></trkpt><trkpt lat="41.13554387190172" lon="14.40420708846615"><ele>40.0</ele><time>2026-05-02T14:57:18.002Z</time></trkpt><trkpt lat="41.13561081783412" lon="14.404126144346684"><ele>40.0</ele><time>2026-05-02T14:57:19.002Z</time></trkpt><trkpt lat="41.13568070643387" lon="14.404039354015094"><ele>40.0</ele><time>2026-05-02T14:57:20.002Z</time></trkpt><trkpt lat="41.13574681552267" lon="14.403958039966462"><ele>40.0</ele><time>2026-05-02T14:57:21.002Z</time></trkpt><trkpt lat="41.13581873508911" lon="14.40387167921158"><ele>40.0</ele><time>2026-05-02T14:57:22.002Z</time></trkpt><trkpt lat="41.13589217448509" lon="14.403791539880563"><ele>40.0</ele><time>2026-05-02T14:57:23Z</time></trkpt><trkpt lat="41.13596317745209" lon="14.403712896568601"><ele>40.0</ele><time>2026-05-02T14:57:24Z</time></trkpt><trkpt lat="41.13602172609079" lon="14.403624410791828"><ele>40.0</ele><time>2026-05-02T14:57:25Z</time></trkpt><trkpt lat="41.136089688634215" lon="14.403550888354468"><ele>40.4</ele><time>2026-05-02T14:57:26Z</time></trkpt><trkpt lat="41.13615794063524" lon="14.403465968755736"><ele>40.8</ele><time>2026-05-02T14:57:27Z</time></trkpt><trkpt lat="41.13622049800205" lon="14.403367455833115"><ele>41.2</ele><time>2026-05-02T14:57:28Z</time></trkpt><trkpt lat="41.13627723659695" lon="14.40327232321485"><ele>41.6</ele><time>2026-05-02T14:57:29Z</time></trkpt><trkpt lat="41.136330068522945" lon="14.403177926002774"><ele>42.0</ele><time>2026-05-02T14:57:30Z</time></trkpt><trkpt lat="41.136379947164556" lon="14.403073363323742"><ele>41.75</ele><time>2026-05-02T14:57:31Z</time></trkpt><trkpt lat="41.136436239759696" lon="14.402951097682395"><ele>41.5</ele><time>2026-05-02T14:57:32Z</time></trkpt><trkpt lat="41.13648023674874" lon="14.402819695294234"><ele>41.25</ele><time>2026-05-02T14:57:33Z</time></trkpt><trkpt lat="41.13653468529474" lon="14.402673549818624"><ele>41.0</ele><time>2026-05-02T14:57:34Z</time></trkpt><trkpt lat="41.136597738106715" lon="14.402534554479999"><ele>41.0</ele><time>2026-05-02T14:57:35Z</time></trkpt><trkpt lat="41.136645748517466" lon="14.402395724705785"><ele>41.0</ele><time>2026-05-02T14:57:36Z</time></trkpt><trkpt lat="41.136698595456686" lon="14.402280379161992"><ele>41.0</ele><time>2026-05-02T14:57:37Z</time></trkpt><trkpt lat="41.13673618270065" lon="14.402163760659647"><ele>41.0</ele><time>2026-05-02T14:57:38Z</time></trkpt><trkpt lat="41.136769590894794" lon="14.402059231434388"><ele>41.0</ele><time>2026-05-02T14:57:39Z</time></trkpt><trkpt lat="41.13680424019823" lon="14.401949351588907"><ele>41.8</ele><time>2026-05-02T14:57:40Z</time></trkpt><trkpt lat="41.136822856319675" lon="14.401831404510679"><ele>42.599999999999994</ele><time>2026-05-02T14:57:41Z</time></trkpt><trkpt lat="41.1368642283289" lon="14.401724753234772"><ele>43.4</ele><time>2026-05-02T14:57:42Z</time></trkpt><trkpt lat="41.136910077676184" lon="14.401612837919576"><ele>44.2</ele><time>2026-05-02T14:57:43Z</time></trkpt><trkpt lat="41.136966142148765" lon="14.401504988875534"><ele>45.0</ele><time>2026-05-02T14:57:44Z</time></trkpt><trkpt lat="41.13705241386569" lon="14.401382612272737"><ele>44.25</ele><time>2026-05-02T14:57:45Z</time></trkpt><trkpt lat="41.13716610060118" lon="14.401251767556351"><ele>43.5</ele><time>2026-05-02T14:57:46Z</time></trkpt><trkpt lat="41.13726788089381" lon="14.40113073417434"><ele>42.75</ele><time>2026-05-02T14:57:47Z</time></trkpt><trkpt lat="41.13739447207035" lon="14.400998579000298"><ele>42.0</ele><time>2026-05-02T14:57:48Z</time></trkpt><trkpt lat="41.137540688634196" lon="14.400847195611458"><ele>42.0</ele><time>2026-05-02T14:57:49Z</time></trkpt><trkpt lat="41.13767262479685" lon="14.400701525137455"><ele>42.0</ele><time>2026-05-02T14:57:50Z</time></trkpt><trkpt lat="41.13781001819714" lon="14.400556783056476"><ele>42.0</ele><time>2026-05-02T14:57:51Z</time></trkpt><trkpt lat="41.1379292850896" lon="14.400450864492608"><ele>41.25</ele><time>2026-05-02T14:57:52Z</time></trkpt><trkpt lat="41.13805130544315" lon="14.400347074629275"><ele>40.5</ele><time>2026-05-02T14:57:53Z</time></trkpt><trkpt lat="41.138152862377545" lon="14.400237256577805"><ele>39.75</ele><time>2026-05-02T14:57:54Z</time></trkpt><trkpt lat="41.13823828941598" lon="14.400132270404884"><ele>39.0</ele><time>2026-05-02T14:57:55Z</time></trkpt><trkpt lat="41.13830207337244" lon="14.400047068281143"><ele>39.0</ele><time>2026-05-02T14:57:56Z</time></trkpt><trkpt lat="41.1383933879688" lon="14.399941113496837"><ele>39.0</ele><time>2026-05-02T14:57:57Z</time></trkpt><trkpt lat="41.13847371487891" lon="14.399855287417907"><ele>39.0</ele><time>2026-05-02T14:57:58Z</time></trkpt><trkpt lat="41.138555428768534" lon="14.399738154867682"><ele>39.0</ele><time>2026-05-02T14:57:59Z</time></trkpt><trkpt lat="41.13862350086824" lon="14.399626735437995"><ele>41.5</ele><time>2026-05-02T14:58:00Z</time></trkpt><trkpt lat="41.13869589126645" lon="14.39949000065616"><ele>44.0</ele><time>2026-05-02T14:58:01Z</time></trkpt><trkpt lat="41.1387744546299" lon="14.399346591180088"><ele>46.5</ele><time>2026-05-02T14:58:02Z</time></trkpt><trkpt lat="41.13883078009008" lon="14.399201276179983"><ele>49.0</ele><time>2026-05-02T14:58:03.001Z</time></trkpt><trkpt lat="41.13891402983249" lon="14.399031508317234"><ele>49.0</ele><time>2026-05-02T14:58:04.001Z</time></trkpt><trkpt lat="41.13896717808407" lon="14.398863615637998"><ele>49.0</ele><time>2026-05-02T14:58:05.001Z</time></trkpt><trkpt lat="41.13900760825183" lon="14.39873596981645"><ele>49.0</ele><time>2026-05-02T14:58:06.001Z</time></trkpt><trkpt lat="41.13907644981522" lon="14.39862521896217"><ele>49.0</ele><time>2026-05-02T14:58:07.001Z</time></trkpt><trkpt lat="41.139155573971024" lon="14.398512560332222"><ele>47.0</ele><time>2026-05-02T14:58:08.001Z</time></trkpt><trkpt lat="41.139253322025645" lon="14.398455944455051"><ele>45.0</ele><time>2026-05-02T14:58:09.001Z</time></trkpt><trkpt lat="41.13937261579861" lon="14.398360487178815"><ele>43.0</ele><time>2026-05-02T14:58:10.001Z</time></trkpt><trkpt lat="41.139482634362146" lon="14.398275338033054"><ele>41.0</ele><time>2026-05-02T14:58:11.001Z</time></trkpt><trkpt lat="41.1395789278655" lon="14.398200811123349"><ele>41.0</ele><time>2026-05-02T14:58:12.001Z</time></trkpt><trkpt lat="41.13967438918731" lon="14.398126928446729"><ele>41.0</ele><time>2026-05-02T14:58:13.001Z</time></trkpt><trkpt lat="41.13976422048608" lon="14.398059095065147"><ele>41.0</ele><time>2026-05-02T14:58:14.001Z</time></trkpt><trkpt lat="41.13987280320345" lon="14.397980134483745"><ele>41.0</ele><time>2026-05-02T14:58:15.001Z</time></trkpt><trkpt lat="41.1399740780632" lon="14.397899488414218"><ele>41.25</ele><time>2026-05-02T14:58:16.001Z</time></trkpt><trkpt lat="41.140078397633616" lon="14.39782844477843"><ele>41.5</ele><time>2026-05-02T14:58:17.001Z</time></trkpt><trkpt lat="41.140193103374536" lon="14.397768508067877"><ele>41.75</ele><time>2026-05-02T14:58:18.001Z</time></trkpt><trkpt lat="41.14031298056418" lon="14.397733474053759"><ele>42.0</ele><time>2026-05-02T14:58:19.001Z</time></trkpt><trkpt lat="41.14043053411219" lon="14.397689538781721"><ele>42.0</ele><time>2026-05-02T14:58:20.001Z</time></trkpt><trkpt lat="41.14054361686734" lon="14.397652587549116"><ele>42.0</ele><time>2026-05-02T14:58:21.001Z</time></trkpt><trkpt lat="41.140647143590876" lon="14.397618789910574"><ele>42.0</ele><time>2026-05-02T14:58:22.001Z</time></trkpt><trkpt lat="41.14073800559914" lon="14.397573920243634"><ele>42.0</ele><time>2026-05-02T14:58:23.001Z</time></trkpt><trkpt lat="41.14082584058893" lon="14.397500287216003"><ele>42.0</ele><time>2026-05-02T14:58:24.001Z</time></trkpt><trkpt lat="41.140898794719384" lon="14.397408530687043"><ele>42.0</ele><time>2026-05-02T14:58:25.001Z</time></trkpt><trkpt lat="41.14096337377093" lon="14.397286895190334"><ele>42.0</ele><time>2026-05-02T14:58:26.001Z</time></trkpt><trkpt lat="41.14102821477627" lon="14.397151458537987"><ele>42.0</ele><time>2026-05-02T14:58:27.001Z</time></trkpt><trkpt lat="41.14107913253563" lon="14.397016908828526"><ele>42.0</ele><time>2026-05-02T14:58:28.001Z</time></trkpt><trkpt lat="41.141121547124804" lon="14.396876585816319"><ele>42.0</ele><time>2026-05-02T14:58:29.001Z</time></trkpt><trkpt lat="41.141162507996754" lon="14.39673120725466"><ele>42.0</ele><time>2026-05-02T14:58:30.001Z</time></trkpt><trkpt lat="41.14118323532475" lon="14.39658968642171"><ele>42.0</ele><time>2026-05-02T14:58:31.001Z</time></trkpt><trkpt lat="41.14118356102771" lon="14.396451489576496"><ele>42.0</ele><time>2026-05-02T14:58:32.001Z</time></trkpt><trkpt lat="41.14119494372356" lon="14.396344109585126"><ele>42.0</ele><time>2026-05-02T14:58:33.001Z</time></trkpt><trkpt lat="41.141193594384895" lon="14.396224618721998"><ele>42.0</ele><time>2026-05-02T14:58:34.001Z</time></trkpt><trkpt lat="41.14120594048199" lon="14.396107783185697"><ele>42.0</ele><time>2026-05-02T14:58:35.001Z</time></trkpt><trkpt lat="41.141224012293385" lon="14.395981615732888"><ele>42.0</ele><time>2026-05-02T14:58:36.001Z</time></trkpt><trkpt lat="41.14122610433519" lon="14.395844199760287"><ele>42.0</ele><time>2026-05-02T14:58:37.001Z</time></trkpt><trkpt lat="41.1412365870622" lon="14.395707726330825"><ele>42.0</ele><time>2026-05-02T14:58:38.001Z</time></trkpt><trkpt lat="41.14125522841116" lon="14.395562831186753"><ele>42.75</ele><time>2026-05-02T14:58:39.001Z</time></trkpt><trkpt lat="41.14128178291338" lon="14.395409886144183"><ele>43.5</ele><time>2026-05-02T14:58:40.001Z</time></trkpt><trkpt lat="41.14130790908993" lon="14.395260132841607"><ele>44.25</ele><time>2026-05-02T14:58:41.001Z</time></trkpt><trkpt lat="41.1413378731416" lon="14.395110903817171"><ele>45.0</ele><time>2026-05-02T14:58:42.001Z</time></trkpt><trkpt lat="41.141367003008824" lon="14.39495255476526"><ele>45.0</ele><time>2026-05-02T14:58:43.001Z</time></trkpt><trkpt lat="41.14141555393807" lon="14.394823677314783"><ele>45.0</ele><time>2026-05-02T14:58:44.001Z</time></trkpt><trkpt lat="41.14145089434662" lon="14.394700586369328"><ele>45.0</ele><time>2026-05-02T14:58:45.001Z</time></trkpt><trkpt lat="41.14147535470394" lon="14.394586301118114"><ele>45.0</ele><time>2026-05-02T14:58:46.001Z</time></trkpt><trkpt lat="41.14151797782059" lon="14.394464346259966"><ele>45.0</ele><time>2026-05-02T14:58:47.001Z</time></trkpt><trkpt lat="41.14155328948946" lon="14.394360757168384"><ele>44.666666666666664</ele><time>2026-05-02T14:58:48.001Z</time></trkpt><trkpt lat="41.14157603672324" lon="14.394278876063952"><ele>44.333333333333336</ele><time>2026-05-02T14:58:49.001Z</time></trkpt><trkpt lat="41.141612794422116" lon="14.394177691578111"><ele>44.0</ele><time>2026-05-02T14:58:50.001Z</time></trkpt><trkpt lat="41.14162442043346" lon="14.394080744974591"><ele>43.66666666666667</ele><time>2026-05-02T14:58:51.001Z</time></trkpt><trkpt lat="41.141637543779545" lon="14.39391660382309"><ele>43.333333333333336</ele><time>2026-05-02T14:58:53.001Z</time></trkpt><trkpt lat="41.14164141972128" lon="14.39380929560684"><ele>43.0</ele><time>2026-05-02T14:58:54.001Z</time></trkpt><trkpt lat="41.14164492463298" lon="14.393694114633279"><ele>43.0</ele><time>2026-05-02T14:58:55.001Z</time></trkpt><trkpt lat="41.1416491305122" lon="14.393571350647926"><ele>43.0</ele><time>2026-05-02T14:58:56.001Z</time></trkpt><trkpt lat="41.14165321055941" lon="14.393453079579368"><ele>43.0</ele><time>2026-05-02T14:58:57.001Z</time></trkpt><trkpt lat="41.141657494045255" lon="14.39334302361491"><ele>43.0</ele><time>2026-05-02T14:58:58.001Z</time></trkpt><trkpt lat="41.141660857933864" lon="14.393251947832093"><ele>43.0</ele><time>2026-05-02T14:58:59.002Z</time></trkpt><trkpt lat="41.141668679861816" lon="14.393102841048051"><ele>43.0</ele><time>2026-05-02T14:59:01.002Z</time></trkpt><trkpt lat="41.14168430111448" lon="14.393014344773375"><ele>43.333333333333336</ele><time>2026-05-02T14:59:03.002Z</time></trkpt><trkpt lat="41.14168764734954" lon="14.392926873472412"><ele>43.66666666666667</ele><time>2026-05-02T14:59:06.002Z</time></trkpt><trkpt lat="41.1417455696379" lon="14.392892434506356"><ele>44.0</ele><time>2026-05-02T14:59:07.002Z</time></trkpt><trkpt lat="41.141779274682044" lon="14.392808732546063"><ele>44.333333333333336</ele><time>2026-05-02T14:59:08.002Z</time></trkpt><trkpt lat="41.14184090710758" lon="14.39275133367097"><ele>44.666666666666664</ele><time>2026-05-02T14:59:09.002Z</time></trkpt><trkpt lat="41.1419079377012" lon="14.392645483499646"><ele>45.0</ele><time>2026-05-02T14:59:10.002Z</time></trkpt><trkpt lat="41.141975510796705" lon="14.392533693003239"><ele>45.0</ele><time>2026-05-02T14:59:11.002Z</time></trkpt><trkpt lat="41.142031094937295" lon="14.392396997338277"><ele>45.0</ele><time>2026-05-02T14:59:12.002Z</time></trkpt><trkpt lat="41.14211292839392" lon="14.392281935193038"><ele>45.0</ele><time>2026-05-02T14:59:13.002Z</time></trkpt><trkpt lat="41.142181686375146" lon="14.392161861712568"><ele>45.0</ele><time>2026-05-02T14:59:14.002Z</time></trkpt><trkpt lat="41.142237665756554" lon="14.39202740206179"><ele>45.0</ele><time>2026-05-02T14:59:15.002Z</time></trkpt><trkpt lat="41.142305783550206" lon="14.391924012858563"><ele>45.0</ele><time>2026-05-02T14:59:16.002Z</time></trkpt><trkpt lat="41.1423772048295" lon="14.391825979076227"><ele>45.0</ele><time>2026-05-02T14:59:17.002Z</time></trkpt><trkpt lat="41.14246064550463" lon="14.391727378298372"><ele>45.0</ele><time>2026-05-02T14:59:18.002Z</time></trkpt><trkpt lat="41.14256103212117" lon="14.391657260334455"><ele>45.0</ele><time>2026-05-02T14:59:19.002Z</time></trkpt><trkpt lat="41.142680696297916" lon="14.391598183740765"><ele>44.5</ele><time>2026-05-02T14:59:20.002Z</time></trkpt><trkpt lat="41.142795572250066" lon="14.391550921023569"><ele>44.0</ele><time>2026-05-02T14:59:21.002Z</time></trkpt><trkpt lat="41.142888299393476" lon="14.391499559893651"><ele>43.5</ele><time>2026-05-02T14:59:22.002Z</time></trkpt><trkpt lat="41.14299262473974" lon="14.391435588379753"><ele>43.0</ele><time>2026-05-02T14:59:23.002Z</time></trkpt><trkpt lat="41.14310617341292" lon="14.391387440304532"><ele>43.4</ele><time>2026-05-02T14:59:24.002Z</time></trkpt><trkpt lat="41.14321637955163" lon="14.391323488381392"><ele>43.8</ele><time>2026-05-02T14:59:25.002Z</time></trkpt><trkpt lat="41.14331851074827" lon="14.391263213002796"><ele>44.2</ele><time>2026-05-02T14:59:26.002Z</time></trkpt><trkpt lat="41.14341629583973" lon="14.391205502664727"><ele>44.6</ele><time>2026-05-02T14:59:27.002Z</time></trkpt><trkpt lat="41.143503129550226" lon="14.391156287213692"><ele>45.0</ele><time>2026-05-02T14:59:28.002Z</time></trkpt><trkpt lat="41.143588680941946" lon="14.391108948497903"><ele>45.0</ele><time>2026-05-02T14:59:29Z</time></trkpt><trkpt lat="41.143663041322675" lon="14.391034459390632"><ele>45.0</ele><time>2026-05-02T14:59:30Z</time></trkpt><trkpt lat="41.14374210600176" lon="14.390997757937217"><ele>45.0</ele><time>2026-05-02T14:59:31Z</time></trkpt><trkpt lat="41.14380957003893" lon="14.390981567718958"><ele>45.0</ele><time>2026-05-02T14:59:32Z</time></trkpt><trkpt lat="41.14389095547385" lon="14.390928763756348"><ele>45.0</ele><time>2026-05-02T14:59:34Z</time></trkpt><trkpt lat="41.14400847651456" lon="14.39086288916356"><ele>45.4</ele><time>2026-05-02T14:59:36Z</time></trkpt><trkpt lat="41.14410230209577" lon="14.390754197836843"><ele>45.8</ele><time>2026-05-02T14:59:38Z</time></trkpt><trkpt lat="41.14415436615184" lon="14.390703815451978"><ele>46.2</ele><time>2026-05-02T14:59:39Z</time></trkpt><trkpt lat="41.14424004834927" lon="14.39059338739418"><ele>46.6</ele><time>2026-05-02T14:59:41Z</time></trkpt><trkpt lat="41.14429032303549" lon="14.39052868568545"><ele>47.0</ele><time>2026-05-02T14:59:42Z</time></trkpt><trkpt lat="41.14435787790908" lon="14.390445935878192"><ele>47.0</ele><time>2026-05-02T14:59:43Z</time></trkpt><trkpt lat="41.144454827702404" lon="14.3903746833671"><ele>47.0</ele><time>2026-05-02T14:59:44Z</time></trkpt><trkpt lat="41.14454295113635" lon="14.390284804572042"><ele>47.0</ele><time>2026-05-02T14:59:45Z</time></trkpt><trkpt lat="41.14461499491363" lon="14.39018397632466"><ele>47.0</ele><time>2026-05-02T14:59:46Z</time></trkpt><trkpt lat="41.14468615295397" lon="14.390119266001971"><ele>47.0</ele><time>2026-05-02T14:59:47Z</time></trkpt><trkpt lat="41.14474833528299" lon="14.390053075769607"><ele>47.0</ele><time>2026-05-02T14:59:48Z</time></trkpt><trkpt lat="41.14480328448259" lon="14.38999650838434"><ele>47.0</ele><time>2026-05-02T14:59:49Z</time></trkpt><trkpt lat="41.14485829320579" lon="14.389934293570269"><ele>47.0</ele><time>2026-05-02T14:59:50Z</time></trkpt><trkpt lat="41.14491183450263" lon="14.389877752244617"><ele>47.0</ele><time>2026-05-02T14:59:51Z</time></trkpt><trkpt lat="41.144966740175946" lon="14.389824382453233"><ele>47.0</ele><time>2026-05-02T14:59:52Z</time></trkpt><trkpt lat="41.14502638660542" lon="14.389761216662398"><ele>47.0</ele><time>2026-05-02T14:59:53Z</time></trkpt><trkpt lat="41.14508261567295" lon="14.389694834116572"><ele>47.0</ele><time>2026-05-02T14:59:54Z</time></trkpt><trkpt lat="41.145119971759776" lon="14.38961722888967"><ele>46.666666666666664</ele><time>2026-05-02T14:59:55Z</time></trkpt><trkpt lat="41.14515449656934" lon="14.389540805370066"><ele>46.33333333333333</ele><time>2026-05-02T14:59:56Z</time></trkpt><trkpt lat="41.14520827677373" lon="14.389475963237508"><ele>46.0</ele><time>2026-05-02T14:59:57Z</time></trkpt><trkpt lat="41.14524336297024" lon="14.389393130564299"><ele>45.666666666666664</ele><time>2026-05-02T14:59:58Z</time></trkpt><trkpt lat="41.14525338531551" lon="14.38930557788156"><ele>45.333333333333336</ele><time>2026-05-02T14:59:59Z</time></trkpt><trkpt lat="41.145309243873335" lon="14.389132876174534"><ele>45.0</ele><time>2026-05-02T15:00:01Z</time></trkpt><trkpt lat="41.14531249063848" lon="14.389032121682376"><ele>45.0</ele><time>2026-05-02T15:00:02Z</time></trkpt><trkpt lat="41.14530590162514" lon="14.388940444550503"><ele>45.0</ele><time>2026-05-02T15:00:03Z</time></trkpt><trkpt lat="41.14531973321612" lon="14.388813140014623"><ele>45.0</ele><time>2026-05-02T15:00:04Z</time></trkpt><trkpt lat="41.145316164639624" lon="14.388671302229213"><ele>45.0</ele><time>2026-05-02T15:00:05.001Z</time></trkpt><trkpt lat="41.145309717798185" lon="14.388516960769275"><ele>45.0</ele><time>2026-05-02T15:00:06.001Z</time></trkpt><trkpt lat="41.14530273115103" lon="14.388394149376158"><ele>44.833333333333336</ele><time>2026-05-02T15:00:07.001Z</time></trkpt><trkpt lat="41.14529710159255" lon="14.388276693241213"><ele>44.666666666666664</ele><time>2026-05-02T15:00:08.001Z</time></trkpt><trkpt lat="41.14529237483095" lon="14.388172072596777"><ele>44.5</ele><time>2026-05-02T15:00:09.001Z</time></trkpt><trkpt lat="41.14528910294288" lon="14.388084463929912"><ele>44.33333333333333</ele><time>2026-05-02T15:00:10.001Z</time></trkpt><trkpt lat="41.14528419999904" lon="14.387999298010843"><ele>44.166666666666664</ele><time>2026-05-02T15:00:11.001Z</time></trkpt><trkpt lat="41.14527753848006" lon="14.387842128278766"><ele>44.0</ele><time>2026-05-02T15:00:13.001Z</time></trkpt><trkpt lat="41.14526698731583" lon="14.387734114996125"><ele>44.0</ele><time>2026-05-02T15:00:15.001Z</time></trkpt><trkpt lat="41.14527019121032" lon="14.387628973057943"><ele>44.0</ele><time>2026-05-02T15:00:18.001Z</time></trkpt><trkpt lat="41.14526670857517" lon="14.387538009443798"><ele>44.0</ele><time>2026-05-02T15:00:23.001Z</time></trkpt><trkpt lat="41.14526325181203" lon="14.387442178658251"><ele>44.0</ele><time>2026-05-02T15:00:26.001Z</time></trkpt><trkpt lat="41.14525985958303" lon="14.38734727999837"><ele>44.0</ele><time>2026-05-02T15:00:32.001Z</time></trkpt><trkpt lat="41.14524192121232" lon="14.387242460858495"><ele>44.0</ele><time>2026-05-02T15:00:39.001Z</time></trkpt><trkpt lat="41.14525136387948" lon="14.387140326229904"><ele>44.0</ele><time>2026-05-02T15:00:50.001Z</time></trkpt><trkpt lat="41.14524750971399" lon="14.387049987505547"><ele>44.0</ele><time>2026-05-02T15:00:53.001Z</time></trkpt><trkpt lat="41.14524332869632" lon="14.38695516551813"><ele>44.0</ele><time>2026-05-02T15:00:58.001Z</time></trkpt><trkpt lat="41.14523216918447" lon="14.386860498620432"><ele>44.0</ele><time>2026-05-02T15:01:01.001Z</time></trkpt><trkpt lat="41.14522838229717" lon="14.386765144905537"><ele>44.0</ele><time>2026-05-02T15:01:03.002Z</time></trkpt><trkpt lat="41.145225911065275" lon="14.386652813149984"><ele>44.0</ele><time>2026-05-02T15:01:05.002Z</time></trkpt><trkpt lat="41.14521349488382" lon="14.386481354850913"><ele>44.0</ele><time>2026-05-02T15:01:07.002Z</time></trkpt><trkpt lat="41.14520581567915" lon="14.386376557373577"><ele>44.0</ele><time>2026-05-02T15:01:08.002Z</time></trkpt><trkpt lat="41.14520090331383" lon="14.386261274530357"><ele>44.0</ele><time>2026-05-02T15:01:09.002Z</time></trkpt><trkpt lat="41.14519352019127" lon="14.386132287170371"><ele>44.0</ele><time>2026-05-02T15:01:10.002Z</time></trkpt><trkpt lat="41.145189934484286" lon="14.386007880691812"><ele>44.0</ele><time>2026-05-02T15:01:11.002Z</time></trkpt><trkpt lat="41.145188199278415" lon="14.38586880639139"><ele>44.0</ele><time>2026-05-02T15:01:12.002Z</time></trkpt><trkpt lat="41.14518053960957" lon="14.385712915901147"><ele>44.0</ele><time>2026-05-02T15:01:13.002Z</time></trkpt><trkpt lat="41.14519379520185" lon="14.385543988547225"><ele>44.0</ele><time>2026-05-02T15:01:14.002Z</time></trkpt><trkpt lat="41.145180390126974" lon="14.385368069632182"><ele>44.0</ele><time>2026-05-02T15:01:15.002Z</time></trkpt><trkpt lat="41.14519761117791" lon="14.3851866145038"><ele>44.0</ele><time>2026-05-02T15:01:16.002Z</time></trkpt><trkpt lat="41.14523667975198" lon="14.38499286172236"><ele>44.0</ele><time>2026-05-02T15:01:17.002Z</time></trkpt><trkpt lat="41.145272729724795" lon="14.384815470919392"><ele>44.0</ele><time>2026-05-02T15:01:18.002Z</time></trkpt><trkpt lat="41.14531815185269" lon="14.384638763253392"><ele>44.0</ele><time>2026-05-02T15:01:19.002Z</time></trkpt><trkpt lat="41.14538826449772" lon="14.384475185240111"><ele>43.75</ele><time>2026-05-02T15:01:20.002Z</time></trkpt><trkpt lat="41.145445664660734" lon="14.384304247475963"><ele>43.5</ele><time>2026-05-02T15:01:21.002Z</time></trkpt><trkpt lat="41.14550299546216" lon="14.384133521942521"><ele>43.25</ele><time>2026-05-02T15:01:22.002Z</time></trkpt><trkpt lat="41.14556123336262" lon="14.383966135947366"><ele>43.0</ele><time>2026-05-02T15:01:23.002Z</time></trkpt><trkpt lat="41.14561345166759" lon="14.383808496287472"><ele>43.0</ele><time>2026-05-02T15:01:24.002Z</time></trkpt><trkpt lat="41.145662818131925" lon="14.38366288314618"><ele>43.0</ele><time>2026-05-02T15:01:25.002Z</time></trkpt><trkpt lat="41.14570492470983" lon="14.38351868881455"><ele>43.0</ele><time>2026-05-02T15:01:26.002Z</time></trkpt><trkpt lat="41.14577792711084" lon="14.383428046317974"><ele>43.0</ele><time>2026-05-02T15:01:27.002Z</time></trkpt><trkpt lat="41.14588026702581" lon="14.383361627020644"><ele>42.25</ele><time>2026-05-02T15:01:28.002Z</time></trkpt><trkpt lat="41.14597937725361" lon="14.38331062764559"><ele>41.5</ele><time>2026-05-02T15:01:29.002Z</time></trkpt><trkpt lat="41.146091242329526" lon="14.383272381973267"><ele>40.75</ele><time>2026-05-02T15:01:30.002Z</time></trkpt><trkpt lat="41.14620111054284" lon="14.383221654936142"><ele>40.0</ele><time>2026-05-02T15:01:31.002Z</time></trkpt><trkpt lat="41.1463266145015" lon="14.38317070559905"><ele>40.0</ele><time>2026-05-02T15:01:32.002Z</time></trkpt><trkpt lat="41.1464499597223" lon="14.383121318644719"><ele>40.0</ele><time>2026-05-02T15:01:33.002Z</time></trkpt><trkpt lat="41.14658284553121" lon="14.383068111788138"><ele>40.0</ele><time>2026-05-02T15:01:34.002Z</time></trkpt><trkpt lat="41.14671923584627" lon="14.383013501592709"><ele>40.0</ele><time>2026-05-02T15:01:35Z</time></trkpt><trkpt lat="41.1468530284458" lon="14.382959931552005"><ele>40.333333333333336</ele><time>2026-05-02T15:01:36Z</time></trkpt><trkpt lat="41.14699699856291" lon="14.382900432260978"><ele>40.666666666666664</ele><time>2026-05-02T15:01:37Z</time></trkpt><trkpt lat="41.14713815833532" lon="14.382840973502791"><ele>41.0</ele><time>2026-05-02T15:01:38Z</time></trkpt><trkpt lat="41.14728790645064" lon="14.382777897661086"><ele>40.0</ele><time>2026-05-02T15:01:39Z</time></trkpt><trkpt lat="41.14743094505183" lon="14.382717985958605"><ele>39.0</ele><time>2026-05-02T15:01:40Z</time></trkpt><trkpt lat="41.14757835163998" lon="14.382657901370203"><ele>38.0</ele><time>2026-05-02T15:01:41Z</time></trkpt><trkpt lat="41.147721220739385" lon="14.382599387970838"><ele>38.0</ele><time>2026-05-02T15:01:42Z</time></trkpt><trkpt lat="41.14785802993675" lon="14.38253380991181"><ele>38.0</ele><time>2026-05-02T15:01:43Z</time></trkpt><trkpt lat="41.14799721056624" lon="14.382436157126543"><ele>38.0</ele><time>2026-05-02T15:01:44Z</time></trkpt><trkpt lat="41.148116937226646" lon="14.382318805234924"><ele>37.75</ele><time>2026-05-02T15:01:45Z</time></trkpt><trkpt lat="41.148229231066054" lon="14.382199115213016"><ele>37.5</ele><time>2026-05-02T15:01:46Z</time></trkpt><trkpt lat="41.148332071973286" lon="14.382054563106365"><ele>37.25</ele><time>2026-05-02T15:01:47Z</time></trkpt><trkpt lat="41.14844131931214" lon="14.381927325816898"><ele>37.0</ele><time>2026-05-02T15:01:48Z</time></trkpt><trkpt lat="41.148555238745956" lon="14.381800935649032"><ele>37.0</ele><time>2026-05-02T15:01:49Z</time></trkpt><trkpt lat="41.148667127822385" lon="14.381687223266606"><ele>37.0</ele><time>2026-05-02T15:01:50Z</time></trkpt><trkpt lat="41.14877952694526" lon="14.38156571744821"><ele>37.0</ele><time>2026-05-02T15:01:51Z</time></trkpt><trkpt lat="41.14890125537609" lon="14.381457937434178"><ele>37.0</ele><time>2026-05-02T15:01:52Z</time></trkpt><trkpt lat="41.149014711831" lon="14.381351622492824"><ele>38.0</ele><time>2026-05-02T15:01:53Z</time></trkpt><trkpt lat="41.14914368143238" lon="14.38125756308448"><ele>39.0</ele><time>2026-05-02T15:01:54Z</time></trkpt><trkpt lat="41.14928396277429" lon="14.381184969471967"><ele>40.0</ele><time>2026-05-02T15:01:55Z</time></trkpt><trkpt lat="41.149432154308904" lon="14.381125385976304"><ele>40.0</ele><time>2026-05-02T15:01:56Z</time></trkpt><trkpt lat="41.149589329071794" lon="14.381071554587885"><ele>40.0</ele><time>2026-05-02T15:01:57Z</time></trkpt><trkpt lat="41.149745847180874" lon="14.381018414943602"><ele>40.0</ele><time>2026-05-02T15:01:58Z</time></trkpt><trkpt lat="41.149912585026534" lon="14.380953436193497"><ele>39.333333333333336</ele><time>2026-05-02T15:01:59Z</time></trkpt><trkpt lat="41.15007435641854" lon="14.380884212211107"><ele>38.666666666666664</ele><time>2026-05-02T15:02:00Z</time></trkpt><trkpt lat="41.150231402054" lon="14.380818695355623"><ele>38.0</ele><time>2026-05-02T15:02:01Z</time></trkpt><trkpt lat="41.15038737446324" lon="14.380752072479678"><ele>38.0</ele><time>2026-05-02T15:02:02Z</time></trkpt><trkpt lat="41.15053137374587" lon="14.380695010879405"><ele>38.0</ele><time>2026-05-02T15:02:03Z</time></trkpt><trkpt lat="41.15066860287684" lon="14.38062390582271"><ele>38.0</ele><time>2026-05-02T15:02:04.001Z</time></trkpt><trkpt lat="41.15079043678482" lon="14.380526568687028"><ele>38.0</ele><time>2026-05-02T15:02:05.001Z</time></trkpt><trkpt lat="41.15089808184706" lon="14.38039064790753"><ele>37.666666666666664</ele><time>2026-05-02T15:02:06.001Z</time></trkpt><trkpt lat="41.15098847523426" lon="14.380235119736005"><ele>37.333333333333336</ele><time>2026-05-02T15:02:07.001Z</time></trkpt><trkpt lat="41.151079690430464" lon="14.380071453586154"><ele>37.0</ele><time>2026-05-02T15:02:08.001Z</time></trkpt><trkpt lat="41.15118721691284" lon="14.379906497232152"><ele>37.0</ele><time>2026-05-02T15:02:09.001Z</time></trkpt><trkpt lat="41.151290693820904" lon="14.37973604616297"><ele>37.0</ele><time>2026-05-02T15:02:10.001Z</time></trkpt><trkpt lat="41.15139045248369" lon="14.37956234912959"><ele>37.0</ele><time>2026-05-02T15:02:11.001Z</time></trkpt><trkpt lat="41.1514881316235" lon="14.379389576847354"><ele>37.333333333333336</ele><time>2026-05-02T15:02:12.001Z</time></trkpt><trkpt lat="41.15159694509717" lon="14.379214401630652"><ele>37.666666666666664</ele><time>2026-05-02T15:02:13.001Z</time></trkpt><trkpt lat="41.15170719465818" lon="14.379043252145527"><ele>38.0</ele><time>2026-05-02T15:02:14.001Z</time></trkpt><trkpt lat="41.15182306261986" lon="14.378868805537172"><ele>39.0</ele><time>2026-05-02T15:02:15.001Z</time></trkpt><trkpt lat="41.151921198737234" lon="14.378697329139227"><ele>40.0</ele><time>2026-05-02T15:02:16.001Z</time></trkpt><trkpt lat="41.152037781895125" lon="14.378527265666754"><ele>41.0</ele><time>2026-05-02T15:02:17.001Z</time></trkpt><trkpt lat="41.15215156947421" lon="14.378387390110843"><ele>41.0</ele><time>2026-05-02T15:02:18.001Z</time></trkpt><trkpt lat="41.15227028521098" lon="14.378267768254673"><ele>41.0</ele><time>2026-05-02T15:02:19.001Z</time></trkpt><trkpt lat="41.15241134988639" lon="14.378169138865847"><ele>41.0</ele><time>2026-05-02T15:02:20.001Z</time></trkpt><trkpt lat="41.15255630123568" lon="14.378094488345573"><ele>41.0</ele><time>2026-05-02T15:02:21.001Z</time></trkpt><trkpt lat="41.15270075877234" lon="14.378028860214785"><ele>41.0</ele><time>2026-05-02T15:02:22.001Z</time></trkpt><trkpt lat="41.152848543624174" lon="14.37794594234331"><ele>41.0</ele><time>2026-05-02T15:02:23.001Z</time></trkpt><trkpt lat="41.15298857640264" lon="14.377874435561058"><ele>41.0</ele><time>2026-05-02T15:02:24.001Z</time></trkpt><trkpt lat="41.15312233018574" lon="14.377788896072074"><ele>41.0</ele><time>2026-05-02T15:02:25.001Z</time></trkpt><trkpt lat="41.15324051164986" lon="14.377672598165121"><ele>41.0</ele><time>2026-05-02T15:02:26.001Z</time></trkpt><trkpt lat="41.15334132881941" lon="14.377537384798291"><ele>41.0</ele><time>2026-05-02T15:02:27.001Z</time></trkpt><trkpt lat="41.15343327980882" lon="14.37737704590555"><ele>40.33333333333333</ele><time>2026-05-02T15:02:28.001Z</time></trkpt><trkpt lat="41.153503378798185" lon="14.377198456548525"><ele>39.666666666666664</ele><time>2026-05-02T15:02:29.001Z</time></trkpt><trkpt lat="41.153560964511584" lon="14.377010835636952"><ele>39.0</ele><time>2026-05-02T15:02:30.001Z</time></trkpt><trkpt lat="41.153629739732274" lon="14.376819226291975"><ele>39.0</ele><time>2026-05-02T15:02:31.001Z</time></trkpt><trkpt lat="41.15369375942324" lon="14.37662961167905"><ele>39.0</ele><time>2026-05-02T15:02:32.001Z</time></trkpt><trkpt lat="41.153760645534135" lon="14.37643266741296"><ele>39.0</ele><time>2026-05-02T15:02:33.001Z</time></trkpt><trkpt lat="41.15382753908718" lon="14.376244663691839"><ele>38.0</ele><time>2026-05-02T15:02:34.001Z</time></trkpt><trkpt lat="41.154460323000144" lon="14.37453253499739"><ele>36.0</ele><time>2026-05-02T15:02:44.416Z</time></trkpt><trkpt lat="41.15523396529365" lon="14.372104872031484"><ele>36.0</ele><time>2026-05-02T15:02:54.508Z</time></trkpt><trkpt lat="41.15494939968097" lon="14.371555103002462"><ele>36.0</ele><time>2026-05-02T15:02:55.51Z</time></trkpt><trkpt lat="41.15495836831737" lon="14.371359888477595"><ele>36.0</ele><time>2026-05-02T15:02:58.512Z</time></trkpt><trkpt lat="41.15481030199784" lon="14.371104491887959"><ele>36.0</ele><time>2026-05-02T15:02:59.512Z</time></trkpt><trkpt lat="41.15480707496512" lon="14.370945487184795"><ele>36.5</ele><time>2026-05-02T15:03:00.513Z</time></trkpt><trkpt lat="41.1548495712142" lon="14.370595794184478"><ele>37.0</ele><time>2026-05-02T15:03:01.512Z</time></trkpt><trkpt lat="41.15484630227196" lon="14.36998458580521"><ele>37.0</ele><time>2026-05-02T15:03:04Z</time></trkpt><trkpt lat="41.154902382091585" lon="14.369917501035555"><ele>37.0</ele><time>2026-05-02T15:03:05Z</time></trkpt><trkpt lat="41.15487031461341" lon="14.369700354411629"><ele>37.0</ele><time>2026-05-02T15:03:06Z</time></trkpt><trkpt lat="41.154842810862235" lon="14.369506484930838"><ele>37.0</ele><time>2026-05-02T15:03:07Z</time></trkpt><trkpt lat="41.15481634309996" lon="14.369319449254345"><ele>37.0</ele><time>2026-05-02T15:03:08Z</time></trkpt><trkpt lat="41.1548393035155" lon="14.36917588051565"><ele>37.0</ele><time>2026-05-02T15:03:09Z</time></trkpt><trkpt lat="41.15481729157693" lon="14.369010761373167"><ele>37.0</ele><time>2026-05-02T15:03:10Z</time></trkpt><trkpt lat="41.154792896340474" lon="14.368789138460057"><ele>37.0</ele><time>2026-05-02T15:03:11Z</time></trkpt><trkpt lat="41.15477337723404" lon="14.368565100251145"><ele>36.66666666666667</ele><time>2026-05-02T15:03:12Z</time></trkpt><trkpt lat="41.15475924384432" lon="14.368367233440669"><ele>36.333333333333336</ele><time>2026-05-02T15:03:13Z</time></trkpt><trkpt lat="41.154748374236775" lon="14.368141739895623"><ele>36.0</ele><time>2026-05-02T15:03:14Z</time></trkpt><trkpt lat="41.154741648247565" lon="14.367933599720212"><ele>36.0</ele><time>2026-05-02T15:03:15Z</time></trkpt><trkpt lat="41.15473548515294" lon="14.367723153942753"><ele>36.0</ele><time>2026-05-02T15:03:16Z</time></trkpt><trkpt lat="41.15474449121803" lon="14.367511613806004"><ele>36.0</ele><time>2026-05-02T15:03:17Z</time></trkpt><trkpt lat="41.15473081333625" lon="14.367290137152963"><ele>35.666666666666664</ele><time>2026-05-02T15:03:18Z</time></trkpt><trkpt lat="41.1547039397728" lon="14.367057538588696"><ele>35.33333333333333</ele><time>2026-05-02T15:03:19Z</time></trkpt><trkpt lat="41.15470111105177" lon="14.366824660048527"><ele>35.0</ele><time>2026-05-02T15:03:20Z</time></trkpt><trkpt lat="41.154688836303286" lon="14.366556405187277"><ele>35.0</ele><time>2026-05-02T15:03:21Z</time></trkpt><trkpt lat="41.15467639293494" lon="14.366246178076274"><ele>35.0</ele><time>2026-05-02T15:03:22Z</time></trkpt><trkpt lat="41.154667084246796" lon="14.36597862409849"><ele>35.0</ele><time>2026-05-02T15:03:23Z</time></trkpt><trkpt lat="41.15464421298642" lon="14.365697629035003"><ele>35.5</ele><time>2026-05-02T15:03:24Z</time></trkpt><trkpt lat="41.15464958158586" lon="14.36539171628613"><ele>36.0</ele><time>2026-05-02T15:03:25Z</time></trkpt><trkpt lat="41.154626310960055" lon="14.36508825183665"><ele>36.0</ele><time>2026-05-02T15:03:26Z</time></trkpt><trkpt lat="41.15459385963121" lon="14.364744835361403"><ele>36.0</ele><time>2026-05-02T15:03:27Z</time></trkpt><trkpt lat="41.15458241182151" lon="14.364449227765117"><ele>35.0</ele><time>2026-05-02T15:03:28Z</time></trkpt><trkpt lat="41.154571168237155" lon="14.364149521059822"><ele>34.0</ele><time>2026-05-02T15:03:29Z</time></trkpt><trkpt lat="41.154560542114744" lon="14.363849394343053"><ele>34.0</ele><time>2026-05-02T15:03:30Z</time></trkpt><trkpt lat="41.15454935716977" lon="14.36353348426691"><ele>34.0</ele><time>2026-05-02T15:03:31Z</time></trkpt><trkpt lat="41.154537488363836" lon="14.363206353546428"><ele>34.5</ele><time>2026-05-02T15:03:32Z</time></trkpt><trkpt lat="41.154525454096664" lon="14.362879889930618"><ele>35.0</ele><time>2026-05-02T15:03:33Z</time></trkpt><trkpt lat="41.15451339210229" lon="14.362552674106846"><ele>35.0</ele><time>2026-05-02T15:03:34Z</time></trkpt><trkpt lat="41.154501485040534" lon="14.362229661269152"><ele>35.0</ele><time>2026-05-02T15:03:35Z</time></trkpt><trkpt lat="41.154490912397215" lon="14.361914864634132"><ele>34.666666666666664</ele><time>2026-05-02T15:03:36Z</time></trkpt><trkpt lat="41.1544814306894" lon="14.361607856298926"><ele>34.333333333333336</ele><time>2026-05-02T15:03:37Z</time></trkpt><trkpt lat="41.15447261210573" lon="14.361322319257294"><ele>34.0</ele><time>2026-05-02T15:03:38Z</time></trkpt><trkpt lat="41.154464769697455" lon="14.361068389695655"><ele>34.0</ele><time>2026-05-02T15:03:39.001Z</time></trkpt><trkpt lat="41.15445205534855" lon="14.360806448304485"><ele>34.0</ele><time>2026-05-02T15:03:40.001Z</time></trkpt><trkpt lat="41.154403152763535" lon="14.3605539520255"><ele>34.0</ele><time>2026-05-02T15:03:41.001Z</time></trkpt><trkpt lat="41.15434449951287" lon="14.360299492820673"><ele>34.5</ele><time>2026-05-02T15:03:42.001Z</time></trkpt><trkpt lat="41.15424903766006" lon="14.360032657444469"><ele>35.0</ele><time>2026-05-02T15:03:43.001Z</time></trkpt><trkpt lat="41.15414848018981" lon="14.359755861208065"><ele>35.0</ele><time>2026-05-02T15:03:44.001Z</time></trkpt><trkpt lat="41.15404633448124" lon="14.35949095442757"><ele>35.0</ele><time>2026-05-02T15:03:45.001Z</time></trkpt><trkpt lat="41.15393609302188" lon="14.359205052045638"><ele>37.5</ele><time>2026-05-02T15:03:46.001Z</time></trkpt><trkpt lat="41.15382263864664" lon="14.358906882327153"><ele>40.0</ele><time>2026-05-02T15:03:47.001Z</time></trkpt><trkpt lat="41.15369529952304" lon="14.358617569783515"><ele>40.0</ele><time>2026-05-02T15:03:48.001Z</time></trkpt><trkpt lat="41.15360892177957" lon="14.3583392378787"><ele>40.0</ele><time>2026-05-02T15:03:49.001Z</time></trkpt><trkpt lat="41.15349850201178" lon="14.35808248905482"><ele>40.0</ele><time>2026-05-02T15:03:50.001Z</time></trkpt><trkpt lat="41.15341612673531" lon="14.357827163054479"><ele>39.333333333333336</ele><time>2026-05-02T15:03:51.001Z</time></trkpt><trkpt lat="41.153321196540126" lon="14.35757502296995"><ele>38.666666666666664</ele><time>2026-05-02T15:03:52.001Z</time></trkpt><trkpt lat="41.153228026356274" lon="14.35732026567695"><ele>38.0</ele><time>2026-05-02T15:03:53.001Z</time></trkpt><trkpt lat="41.15313596809114" lon="14.3570873904815"><ele>38.0</ele><time>2026-05-02T15:03:54.001Z</time></trkpt><trkpt lat="41.15303086566889" lon="14.356916779159558"><ele>38.0</ele><time>2026-05-02T15:03:55.001Z</time></trkpt><trkpt lat="41.15299542419625" lon="14.356785379383965"><ele>38.0</ele><time>2026-05-02T15:03:56.001Z</time></trkpt><trkpt lat="41.15292805039642" lon="14.356663259309967"><ele>38.0</ele><time>2026-05-02T15:03:57.001Z</time></trkpt><trkpt lat="41.152782721809515" lon="14.356536539743601"><ele>38.0</ele><time>2026-05-02T15:03:58.001Z</time></trkpt><trkpt lat="41.15262778305341" lon="14.356469062627854"><ele>38.0</ele><time>2026-05-02T15:03:59.001Z</time></trkpt><trkpt lat="41.15247893660082" lon="14.35642846746782"><ele>38.0</ele><time>2026-05-02T15:04:00.001Z</time></trkpt><trkpt lat="41.15235210980972" lon="14.356452856830423"><ele>38.0</ele><time>2026-05-02T15:04:01.001Z</time></trkpt><trkpt lat="41.152222052606334" lon="14.356491644970296"><ele>38.5</ele><time>2026-05-02T15:04:02.001Z</time></trkpt><trkpt lat="41.152029843664934" lon="14.356621282355198"><ele>39.0</ele><time>2026-05-02T15:04:03.001Z</time></trkpt><trkpt lat="41.151822688395484" lon="14.356784707208494"><ele>39.0</ele><time>2026-05-02T15:04:04.001Z</time></trkpt><trkpt lat="41.15163747306227" lon="14.35691175269608"><ele>39.0</ele><time>2026-05-02T15:04:05.001Z</time></trkpt><trkpt lat="41.15144988664083" lon="14.357021938872656"><ele>39.0</ele><time>2026-05-02T15:04:06.001Z</time></trkpt><trkpt lat="41.15125401179334" lon="14.357144960469697"><ele>40.0</ele><time>2026-05-02T15:04:07.001Z</time></trkpt><trkpt lat="41.151061952772615" lon="14.357272706250123"><ele>41.0</ele><time>2026-05-02T15:04:08.001Z</time></trkpt><trkpt lat="41.15086217837019" lon="14.35739063667501"><ele>42.0</ele><time>2026-05-02T15:04:09.001Z</time></trkpt><trkpt lat="41.15066480956205" lon="14.35753684700781"><ele>42.5</ele><time>2026-05-02T15:04:10.001Z</time></trkpt><trkpt lat="41.1504663254621" lon="14.357687272694868"><ele>43.0</ele><time>2026-05-02T15:04:11.001Z</time></trkpt><trkpt lat="41.15025960058678" lon="14.357848086909085"><ele>43.0</ele><time>2026-05-02T15:04:12.001Z</time></trkpt><trkpt lat="41.150058549683784" lon="14.358004831540924"><ele>43.0</ele><time>2026-05-02T15:04:13.001Z</time></trkpt><trkpt lat="41.14985141836318" lon="14.35816854123152"><ele>45.5</ele><time>2026-05-02T15:04:14.001Z</time></trkpt><trkpt lat="41.14965804324868" lon="14.358361514786845"><ele>48.0</ele><time>2026-05-02T15:04:15.001Z</time></trkpt><trkpt lat="41.14946421534287" lon="14.358525409018188"><ele>48.0</ele><time>2026-05-02T15:04:16.001Z</time></trkpt><trkpt lat="41.14929228765052" lon="14.35871081845766"><ele>48.0</ele><time>2026-05-02T15:04:17.001Z</time></trkpt><trkpt lat="41.149155710000066" lon="14.358879146501627"><ele>48.0</ele><time>2026-05-02T15:04:18.001Z</time></trkpt><trkpt lat="41.14901124346615" lon="14.359009276375676"><ele>50.0</ele><time>2026-05-02T15:04:19.001Z</time></trkpt><trkpt lat="41.148892116974864" lon="14.3591156362543"><ele>52.0</ele><time>2026-05-02T15:04:20.001Z</time></trkpt><trkpt lat="41.148744704563875" lon="14.35920860037066"><ele>54.0</ele><time>2026-05-02T15:04:21.001Z</time></trkpt><trkpt lat="41.14859158851149" lon="14.359270118040886"><ele>54.0</ele><time>2026-05-02T15:04:22.001Z</time></trkpt><trkpt lat="41.14842500153208" lon="14.359318549624218"><ele>54.0</ele><time>2026-05-02T15:04:23.001Z</time></trkpt><trkpt lat="41.148239522170115" lon="14.359370426843746"><ele>54.0</ele><time>2026-05-02T15:04:24.001Z</time></trkpt><trkpt lat="41.148044181185575" lon="14.359442224999897"><ele>53.33333333333333</ele><time>2026-05-02T15:04:25.001Z</time></trkpt><trkpt lat="41.14786165182808" lon="14.359487669844855"><ele>52.666666666666664</ele><time>2026-05-02T15:04:26.001Z</time></trkpt><trkpt lat="41.147690675844494" lon="14.35954437503608"><ele>52.0</ele><time>2026-05-02T15:04:27.001Z</time></trkpt><trkpt lat="41.14751238616874" lon="14.359621974529276"><ele>51.33333333333333</ele><time>2026-05-02T15:04:28.001Z</time></trkpt><trkpt lat="41.14732819220587" lon="14.359724759837224"><ele>50.66666666666667</ele><time>2026-05-02T15:04:29.001Z</time></trkpt><trkpt lat="41.14712305940827" lon="14.35985534512922"><ele>50.0</ele><time>2026-05-02T15:04:30.001Z</time></trkpt><trkpt lat="41.146911890376586" lon="14.359974435381302"><ele>50.0</ele><time>2026-05-02T15:04:31.001Z</time></trkpt><trkpt lat="41.146701106888365" lon="14.360071178576264"><ele>50.0</ele><time>2026-05-02T15:04:32.001Z</time></trkpt><trkpt lat="41.146511364166244" lon="14.360184535998055"><ele>50.0</ele><time>2026-05-02T15:04:33.001Z</time></trkpt><trkpt lat="41.146326138265444" lon="14.360319286062385"><ele>50.333333333333336</ele><time>2026-05-02T15:04:34.001Z</time></trkpt><trkpt lat="41.146131927949945" lon="14.360433513061905"><ele>50.66666666666667</ele><time>2026-05-02T15:04:35.001Z</time></trkpt><trkpt lat="41.145944670097855" lon="14.36054833025921"><ele>51.0</ele><time>2026-05-02T15:04:36.001Z</time></trkpt><trkpt lat="41.145762359143696" lon="14.360656967487902"><ele>51.33333333333333</ele><time>2026-05-02T15:04:37.001Z</time></trkpt><trkpt lat="41.145582679776865" lon="14.360765868797241"><ele>51.666666666666664</ele><time>2026-05-02T15:04:38.001Z</time></trkpt><trkpt lat="41.1454033601058" lon="14.360866547027213"><ele>52.0</ele><time>2026-05-02T15:04:39.001Z</time></trkpt><trkpt lat="41.14523745982223" lon="14.36098149129016"><ele>52.0</ele><time>2026-05-02T15:04:40.002Z</time></trkpt><trkpt lat="41.14507477914748" lon="14.36107384994915"><ele>52.0</ele><time>2026-05-02T15:04:41.002Z</time></trkpt><trkpt lat="41.14495874754324" lon="14.36119899370309"><ele>52.0</ele><time>2026-05-02T15:04:42.002Z</time></trkpt><trkpt lat="41.14482414947927" lon="14.361281849400497"><ele>52.75</ele><time>2026-05-02T15:04:43.002Z</time></trkpt><trkpt lat="41.144691010805715" lon="14.361388630752376"><ele>53.5</ele><time>2026-05-02T15:04:44.002Z</time></trkpt><trkpt lat="41.144587653800855" lon="14.361504882487653"><ele>54.25</ele><time>2026-05-02T15:04:45.002Z</time></trkpt><trkpt lat="41.144472492698114" lon="14.361596450804338"><ele>55.0</ele><time>2026-05-02T15:04:46.002Z</time></trkpt><trkpt lat="41.144376953488496" lon="14.361677110565202"><ele>55.0</ele><time>2026-05-02T15:04:47.002Z</time></trkpt><trkpt lat="41.144286074321194" lon="14.36175502352432"><ele>55.0</ele><time>2026-05-02T15:04:48.002Z</time></trkpt><trkpt lat="41.144197151527585" lon="14.361847868384388"><ele>55.0</ele><time>2026-05-02T15:04:49.002Z</time></trkpt><trkpt lat="41.14411729217296" lon="14.361948053022648"><ele>55.0</ele><time>2026-05-02T15:04:50.002Z</time></trkpt><trkpt lat="41.1441256604741" lon="14.36204420489839"><ele>55.0</ele><time>2026-05-02T15:04:51.002Z</time></trkpt><trkpt lat="41.14410156184909" lon="14.362167046460424"><ele>54.6</ele><time>2026-05-02T15:04:52.002Z</time></trkpt><trkpt lat="41.144125696962746" lon="14.362313757988865"><ele>54.2</ele><time>2026-05-02T15:04:53.002Z</time></trkpt><trkpt lat="41.144167060490794" lon="14.362453268145003"><ele>53.8</ele><time>2026-05-02T15:04:54.002Z</time></trkpt><trkpt lat="41.14417611559925" lon="14.362560850516388"><ele>53.4</ele><time>2026-05-02T15:04:56.002Z</time></trkpt><trkpt lat="41.14408825205707" lon="14.362650896552257"><ele>53.0</ele><time>2026-05-02T15:04:58.002Z</time></trkpt><trkpt lat="41.143940275184754" lon="14.362687107031604"><ele>53.0</ele><time>2026-05-02T15:05:00.002Z</time></trkpt><trkpt lat="41.143831731719914" lon="14.362724126353283"><ele>53.0</ele><time>2026-05-02T15:05:01.002Z</time></trkpt><trkpt lat="41.1437013406451" lon="14.362746697971884"><ele>53.0</ele><time>2026-05-02T15:05:02.002Z</time></trkpt><trkpt lat="41.14350786059547" lon="14.362815486344184"><ele>53.0</ele><time>2026-05-02T15:05:03.002Z</time></trkpt><trkpt lat="41.14332636175668" lon="14.36287785783436"><ele>52.66666666666667</ele><time>2026-05-02T15:05:04.002Z</time></trkpt><trkpt lat="41.14314152773915" lon="14.362935936148164"><ele>52.33333333333333</ele><time>2026-05-02T15:05:05.002Z</time></trkpt><trkpt lat="41.142968899175536" lon="14.362999680983915"><ele>52.0</ele><time>2026-05-02T15:05:06.002Z</time></trkpt><trkpt lat="41.142806819859416" lon="14.363057714928546"><ele>53.0</ele><time>2026-05-02T15:05:07.002Z</time></trkpt><trkpt lat="41.14263852607121" lon="14.363130527447135"><ele>54.0</ele><time>2026-05-02T15:05:08Z</time></trkpt><trkpt lat="41.14248130103927" lon="14.363142422959553"><ele>55.0</ele><time>2026-05-02T15:05:09Z</time></trkpt><trkpt lat="41.142340107341035" lon="14.363180230115452"><ele>56.2</ele><time>2026-05-02T15:05:10Z</time></trkpt><trkpt lat="41.14221020984075" lon="14.363195482573092"><ele>57.4</ele><time>2026-05-02T15:05:11Z</time></trkpt><trkpt lat="41.142092110502126" lon="14.36320661406767"><ele>58.599999999999994</ele><time>2026-05-02T15:05:12Z</time></trkpt><trkpt lat="41.14198586234846" lon="14.363205352632809"><ele>59.8</ele><time>2026-05-02T15:05:13Z</time></trkpt><trkpt lat="41.141895713582585" lon="14.363189452192072"><ele>61.0</ele><time>2026-05-02T15:05:14Z</time></trkpt><trkpt lat="41.14182564520344" lon="14.363170195471389"><ele>61.0</ele><time>2026-05-02T15:05:15Z</time></trkpt><trkpt lat="41.1417692057888" lon="14.363118454829202"><ele>60.99999999999999</ele><time>2026-05-02T15:05:16Z</time></trkpt><trkpt lat="41.14173477700289" lon="14.363021309178606"><ele>60.99999999999999</ele><time>2026-05-02T15:05:17Z</time></trkpt><trkpt lat="41.14171595863578" lon="14.362902045856114"><ele>61.0</ele><time>2026-05-02T15:05:18Z</time></trkpt><trkpt lat="41.141801210562356" lon="14.362802059283197"><ele>61.0</ele><time>2026-05-02T15:05:19Z</time></trkpt><trkpt lat="41.141831383662435" lon="14.362680409229913"><ele>61.199999999999996</ele><time>2026-05-02T15:05:20Z</time></trkpt><trkpt lat="41.14187139284328" lon="14.362539434801782"><ele>61.39999999999999</ele><time>2026-05-02T15:05:21Z</time></trkpt><trkpt lat="41.14190445655378" lon="14.362411746559227"><ele>61.6</ele><time>2026-05-02T15:05:22Z</time></trkpt><trkpt lat="41.14193503359517" lon="14.362277030659984"><ele>61.8</ele><time>2026-05-02T15:05:23Z</time></trkpt><trkpt lat="41.14194572247846" lon="14.362140245013988"><ele>62.0</ele><time>2026-05-02T15:05:24Z</time></trkpt><trkpt lat="41.14197236511" lon="14.361991062177133"><ele>62.2</ele><time>2026-05-02T15:05:25Z</time></trkpt><trkpt lat="41.14202093742194" lon="14.361813519400151"><ele>62.400000000000006</ele><time>2026-05-02T15:05:26Z</time></trkpt><trkpt lat="41.14204521491779" lon="14.361683337604362"><ele>62.599999999999994</ele><time>2026-05-02T15:05:27Z</time></trkpt><trkpt lat="41.14206539611932" lon="14.361555706827861"><ele>62.8</ele><time>2026-05-02T15:05:28Z</time></trkpt><trkpt lat="41.1420781926501" lon="14.361428957529247"><ele>63.0</ele><time>2026-05-02T15:05:29Z</time></trkpt><trkpt lat="41.142068809634615" lon="14.361273227359677"><ele>63.0</ele><time>2026-05-02T15:05:30Z</time></trkpt><trkpt lat="41.14207688089675" lon="14.361113514210198"><ele>63.0</ele><time>2026-05-02T15:05:31Z</time></trkpt><trkpt lat="41.14212359786736" lon="14.360918868224218"><ele>63.0</ele><time>2026-05-02T15:05:32Z</time></trkpt><trkpt lat="41.14212368242831" lon="14.360749966103796"><ele>63.0</ele><time>2026-05-02T15:05:33Z</time></trkpt><trkpt lat="41.14212188608708" lon="14.360591287189825"><ele>62.75</ele><time>2026-05-02T15:05:34Z</time></trkpt><trkpt lat="41.1421276542113" lon="14.360414215376485"><ele>62.5</ele><time>2026-05-02T15:05:35Z</time></trkpt><trkpt lat="41.142131233027044" lon="14.360238426175565"><ele>62.25</ele><time>2026-05-02T15:05:36Z</time></trkpt><trkpt lat="41.14213814025506" lon="14.360036291781348"><ele>62.0</ele><time>2026-05-02T15:05:37Z</time></trkpt><trkpt lat="41.14214844893816" lon="14.359817700939917"><ele>61.66666666666667</ele><time>2026-05-02T15:05:38Z</time></trkpt><trkpt lat="41.142152288649285" lon="14.359604569898238"><ele>61.33333333333333</ele><time>2026-05-02T15:05:39Z</time></trkpt><trkpt lat="41.14214165351603" lon="14.35940107503742"><ele>61.0</ele><time>2026-05-02T15:05:40Z</time></trkpt><trkpt lat="41.142125375422765" lon="14.359190230032356"><ele>61.0</ele><time>2026-05-02T15:05:41Z</time></trkpt><trkpt lat="41.1421082533759" lon="14.358993891661356"><ele>61.0</ele><time>2026-05-02T15:05:42Z</time></trkpt><trkpt lat="41.14204888036413" lon="14.358830506019096"><ele>61.0</ele><time>2026-05-02T15:05:43Z</time></trkpt><trkpt lat="41.14198281738805" lon="14.358627338862323"><ele>60.0</ele><time>2026-05-02T15:05:44Z</time></trkpt><trkpt lat="41.141883392316785" lon="14.358398979720983"><ele>59.0</ele><time>2026-05-02T15:05:45Z</time></trkpt><trkpt lat="41.141792556384495" lon="14.3581948559681"><ele>58.0</ele><time>2026-05-02T15:05:46.001Z</time></trkpt><trkpt lat="41.14169841013725" lon="14.357962356787992"><ele>58.0</ele><time>2026-05-02T15:05:47.001Z</time></trkpt><trkpt lat="41.14161988281044" lon="14.357746461001826"><ele>58.0</ele><time>2026-05-02T15:05:48.001Z</time></trkpt><trkpt lat="41.14154016697854" lon="14.357522631247367"><ele>58.0</ele><time>2026-05-02T15:05:49.001Z</time></trkpt><trkpt lat="41.14145155440001" lon="14.357296015039035"><ele>60.0</ele><time>2026-05-02T15:05:50.001Z</time></trkpt><trkpt lat="41.14138874540356" lon="14.357078819444922"><ele>62.0</ele><time>2026-05-02T15:05:51.001Z</time></trkpt><trkpt lat="41.14132134563683" lon="14.356853293431334"><ele>64.0</ele><time>2026-05-02T15:05:52.001Z</time></trkpt><trkpt lat="41.14125915293584" lon="14.356644431423831"><ele>64.0</ele><time>2026-05-02T15:05:53.001Z</time></trkpt><trkpt lat="41.141211806704774" lon="14.356441403166768"><ele>64.0</ele><time>2026-05-02T15:05:54.001Z</time></trkpt><trkpt lat="41.1411621817839" lon="14.356245864020497"><ele>64.0</ele><time>2026-05-02T15:05:55.001Z</time></trkpt><trkpt lat="41.14113677538777" lon="14.356003432711354"><ele>63.666666666666664</ele><time>2026-05-02T15:05:56.001Z</time></trkpt><trkpt lat="41.141119022504704" lon="14.355758621282737"><ele>63.33333333333333</ele><time>2026-05-02T15:05:57.001Z</time></trkpt><trkpt lat="41.14111753149062" lon="14.355499324067507"><ele>63.0</ele><time>2026-05-02T15:05:58.001Z</time></trkpt><trkpt lat="41.141130428005404" lon="14.355209285735938"><ele>62.33333333333333</ele><time>2026-05-02T15:05:59.001Z</time></trkpt><trkpt lat="41.14113117817242" lon="14.354915566363593"><ele>61.666666666666664</ele><time>2026-05-02T15:06:00.001Z</time></trkpt><trkpt lat="41.14113205798779" lon="14.354636475776179"><ele>61.0</ele><time>2026-05-02T15:06:01.001Z</time></trkpt><trkpt lat="41.14112838161761" lon="14.354352875411315"><ele>60.33333333333333</ele><time>2026-05-02T15:06:02.001Z</time></trkpt><trkpt lat="41.141125541867346" lon="14.354101218173595"><ele>59.66666666666667</ele><time>2026-05-02T15:06:03.001Z</time></trkpt><trkpt lat="41.14112397838732" lon="14.353860050796479"><ele>59.0</ele><time>2026-05-02T15:06:04.001Z</time></trkpt><trkpt lat="41.14110677553188" lon="14.35363812079047"><ele>59.0</ele><time>2026-05-02T15:06:05.001Z</time></trkpt><trkpt lat="41.14112063533781" lon="14.35340706613047"><ele>59.0</ele><time>2026-05-02T15:06:06.001Z</time></trkpt><trkpt lat="41.141118142923546" lon="14.353188617064333"><ele>59.0</ele><time>2026-05-02T15:06:07.001Z</time></trkpt><trkpt lat="41.141113043788565" lon="14.35297088270822"><ele>58.66666666666667</ele><time>2026-05-02T15:06:08.001Z</time></trkpt><trkpt lat="41.14109178009786" lon="14.352767754651158"><ele>58.33333333333333</ele><time>2026-05-02T15:06:09.001Z</time></trkpt><trkpt lat="41.14109028996592" lon="14.352557708304868"><ele>58.0</ele><time>2026-05-02T15:06:10.001Z</time></trkpt><trkpt lat="41.14109158082419" lon="14.352352790951633"><ele>57.666666666666664</ele><time>2026-05-02T15:06:11.001Z</time></trkpt><trkpt lat="41.141089143379546" lon="14.352128149357279"><ele>57.33333333333333</ele><time>2026-05-02T15:06:12.001Z</time></trkpt><trkpt lat="41.14109343068197" lon="14.351912136512745"><ele>57.0</ele><time>2026-05-02T15:06:13.001Z</time></trkpt><trkpt lat="41.141045587853114" lon="14.351650262219385"><ele>57.0</ele><time>2026-05-02T15:06:14.001Z</time></trkpt><trkpt lat="41.14103773391081" lon="14.35146759342395"><ele>57.0</ele><time>2026-05-02T15:06:15.001Z</time></trkpt><trkpt lat="41.14102209483708" lon="14.35125519727465"><ele>57.0</ele><time>2026-05-02T15:06:16.001Z</time></trkpt><trkpt lat="41.141012289163086" lon="14.351052970879648"><ele>55.66666666666667</ele><time>2026-05-02T15:06:17.001Z</time></trkpt><trkpt lat="41.14100120739133" lon="14.350831810770948"><ele>54.333333333333336</ele><time>2026-05-02T15:06:18.001Z</time></trkpt><trkpt lat="41.14098322373516" lon="14.3505975335819"><ele>53.0</ele><time>2026-05-02T15:06:19.001Z</time></trkpt><trkpt lat="41.14097153681694" lon="14.350340904925744"><ele>52.0</ele><time>2026-05-02T15:06:20.001Z</time></trkpt><trkpt lat="41.140965254532624" lon="14.350093577751387"><ele>51.0</ele><time>2026-05-02T15:06:21.001Z</time></trkpt><trkpt lat="41.140945976859555" lon="14.349839416033651"><ele>50.0</ele><time>2026-05-02T15:06:22.001Z</time></trkpt><trkpt lat="41.14092866735234" lon="14.349587899407457"><ele>48.333333333333336</ele><time>2026-05-02T15:06:23.001Z</time></trkpt><trkpt lat="41.14091059212598" lon="14.349315721963029"><ele>46.66666666666667</ele><time>2026-05-02T15:06:24.001Z</time></trkpt><trkpt lat="41.14088097216861" lon="14.349081097095343"><ele>45.0</ele><time>2026-05-02T15:06:25.001Z</time></trkpt><trkpt lat="41.14083089997545" lon="14.348826645628145"><ele>43.333333333333336</ele><time>2026-05-02T15:06:26.001Z</time></trkpt><trkpt lat="41.14078680559401" lon="14.348595274272737"><ele>41.66666666666667</ele><time>2026-05-02T15:06:27.001Z</time></trkpt><trkpt lat="41.14072003259137" lon="14.348342403318865"><ele>40.0</ele><time>2026-05-02T15:06:28.001Z</time></trkpt><trkpt lat="41.140672057726476" lon="14.348124402581123"><ele>43.333333333333336</ele><time>2026-05-02T15:06:29.001Z</time></trkpt><trkpt lat="41.14062870792847" lon="14.347910882270408"><ele>46.66666666666667</ele><time>2026-05-02T15:06:30.001Z</time></trkpt><trkpt lat="41.14056185808717" lon="14.347698546596352"><ele>50.0</ele><time>2026-05-02T15:06:31.001Z</time></trkpt><trkpt lat="41.14048276054271" lon="14.347489587383677"><ele>50.0</ele><time>2026-05-02T15:06:32.001Z</time></trkpt><trkpt lat="41.14040762514403" lon="14.347309920048202"><ele>50.0</ele><time>2026-05-02T15:06:33.001Z</time></trkpt><trkpt lat="41.14031475081266" lon="14.347122119740806"><ele>50.0</ele><time>2026-05-02T15:06:34.001Z</time></trkpt><trkpt lat="41.140214724558525" lon="14.346936274155894"><ele>48.333333333333336</ele><time>2026-05-02T15:06:35.001Z</time></trkpt><trkpt lat="41.14011791508523" lon="14.346759086421153"><ele>46.66666666666667</ele><time>2026-05-02T15:06:36.001Z</time></trkpt><trkpt lat="41.14000104463391" lon="14.346547557640015"><ele>45.0</ele><time>2026-05-02T15:06:37.001Z</time></trkpt><trkpt lat="41.139892254751416" lon="14.346351543192325"><ele>46.0</ele><time>2026-05-02T15:06:38.001Z</time></trkpt><trkpt lat="41.1397868937113" lon="14.346194063747408"><ele>47.0</ele><time>2026-05-02T15:06:39.001Z</time></trkpt><trkpt lat="41.13967141549587" lon="14.345996892553833"><ele>48.0</ele><time>2026-05-02T15:06:40.001Z</time></trkpt><trkpt lat="41.13958851553251" lon="14.345813259775815"><ele>48.0</ele><time>2026-05-02T15:06:41.001Z</time></trkpt><trkpt lat="41.1395132170145" lon="14.345664228593602"><ele>48.0</ele><time>2026-05-02T15:06:42.001Z</time></trkpt><trkpt lat="41.139439524243514" lon="14.345483144859724"><ele>48.0</ele><time>2026-05-02T15:06:43.001Z</time></trkpt><trkpt lat="41.13937360576954" lon="14.345296065119241"><ele>48.0</ele><time>2026-05-02T15:06:44.001Z</time></trkpt><trkpt lat="41.13930185801514" lon="14.345070800954932"><ele>46.0</ele><time>2026-05-02T15:06:45.001Z</time></trkpt><trkpt lat="41.139257444819336" lon="14.344834280419452"><ele>44.0</ele><time>2026-05-02T15:06:46.001Z</time></trkpt><trkpt lat="41.139208587449495" lon="14.344606229858458"><ele>42.0</ele><time>2026-05-02T15:06:47.001Z</time></trkpt><trkpt lat="41.139169361988635" lon="14.344369446698087"><ele>42.0</ele><time>2026-05-02T15:06:48.002Z</time></trkpt><trkpt lat="41.13914630019509" lon="14.34413053920767"><ele>42.0</ele><time>2026-05-02T15:06:49.002Z</time></trkpt><trkpt lat="41.13913001603825" lon="14.3438970717772"><ele>42.0</ele><time>2026-05-02T15:06:50.002Z</time></trkpt><trkpt lat="41.139119620652274" lon="14.343672606300835"><ele>43.25</ele><time>2026-05-02T15:06:51.002Z</time></trkpt><trkpt lat="41.1391353556181" lon="14.343475993196027"><ele>44.5</ele><time>2026-05-02T15:06:52.002Z</time></trkpt><trkpt lat="41.139152687648654" lon="14.343292094445593"><ele>45.75</ele><time>2026-05-02T15:06:53.002Z</time></trkpt><trkpt lat="41.13916942235614" lon="14.343108810297977"><ele>47.0</ele><time>2026-05-02T15:06:54.002Z</time></trkpt><trkpt lat="41.13917417257917" lon="14.342911993386462"><ele>51.0</ele><time>2026-05-02T15:06:55.002Z</time></trkpt><trkpt lat="41.13924342051984" lon="14.342715677497573"><ele>55.0</ele><time>2026-05-02T15:06:56.002Z</time></trkpt><trkpt lat="41.13932220679952" lon="14.342533650260446"><ele>59.0</ele><time>2026-05-02T15:06:57.002Z</time></trkpt><trkpt lat="41.13939310674642" lon="14.342377195553611"><ele>59.0</ele><time>2026-05-02T15:06:58.002Z</time></trkpt><trkpt lat="41.13944136171658" lon="14.342241808462095"><ele>59.0</ele><time>2026-05-02T15:06:59.002Z</time></trkpt><trkpt lat="41.139455290052645" lon="14.342075075852616"><ele>59.0</ele><time>2026-05-02T15:07:00.002Z</time></trkpt><trkpt lat="41.13944415996061" lon="14.341892592979443"><ele>59.0</ele><time>2026-05-02T15:07:01.002Z</time></trkpt><trkpt lat="41.13943455049332" lon="14.341719405863298"><ele>60.5</ele><time>2026-05-02T15:07:02.002Z</time></trkpt><trkpt lat="41.13944539062619" lon="14.341544032075811"><ele>62.0</ele><time>2026-05-02T15:07:03.002Z</time></trkpt><trkpt lat="41.13950982378597" lon="14.341420476498925"><ele>63.5</ele><time>2026-05-02T15:07:04.002Z</time></trkpt><trkpt lat="41.13961514654593" lon="14.341320471370896"><ele>65.0</ele><time>2026-05-02T15:07:05.002Z</time></trkpt><trkpt lat="41.139745432682034" lon="14.34123296367649"><ele>61.75</ele><time>2026-05-02T15:07:06.002Z</time></trkpt><trkpt lat="41.13989032678189" lon="14.341140787448454"><ele>58.5</ele><time>2026-05-02T15:07:07.002Z</time></trkpt><trkpt lat="41.13999116851022" lon="14.341042030192334"><ele>55.25</ele><time>2026-05-02T15:07:08.002Z</time></trkpt><trkpt lat="41.14007885701512" lon="14.340894434512855"><ele>52.0</ele><time>2026-05-02T15:07:09.002Z</time></trkpt><trkpt lat="41.14014649995472" lon="14.340719434930444"><ele>52.33333333333333</ele><time>2026-05-02T15:07:10.002Z</time></trkpt><trkpt lat="41.140184492727315" lon="14.34050362317172"><ele>52.66666666666667</ele><time>2026-05-02T15:07:11.002Z</time></trkpt><trkpt lat="41.14025803642794" lon="14.340288215206591"><ele>53.0</ele><time>2026-05-02T15:07:12.002Z</time></trkpt><trkpt lat="41.14035420231112" lon="14.340093793450249"><ele>53.0</ele><time>2026-05-02T15:07:13.002Z</time></trkpt><trkpt lat="41.14046226229404" lon="14.339925637078409"><ele>53.0</ele><time>2026-05-02T15:07:14Z</time></trkpt><trkpt lat="41.14052582330377" lon="14.339748686806836"><ele>53.0</ele><time>2026-05-02T15:07:15Z</time></trkpt><trkpt lat="41.140574044770005" lon="14.339547345505139"><ele>53.66666666666667</ele><time>2026-05-02T15:07:16Z</time></trkpt><trkpt lat="41.140603495251305" lon="14.339317967971336"><ele>54.33333333333333</ele><time>2026-05-02T15:07:17Z</time></trkpt><trkpt lat="41.140606162057324" lon="14.339083068321411"><ele>55.0</ele><time>2026-05-02T15:07:18Z</time></trkpt><trkpt lat="41.140614753022916" lon="14.338813115497555"><ele>55.0</ele><time>2026-05-02T15:07:19Z</time></trkpt><trkpt lat="41.14060831262882" lon="14.33855950454138"><ele>55.0</ele><time>2026-05-02T15:07:20Z</time></trkpt><trkpt lat="41.14059992929851" lon="14.33832824864032"><ele>55.0</ele><time>2026-05-02T15:07:21Z</time></trkpt><trkpt lat="41.140593720468054" lon="14.338102729280498"><ele>54.666666666666664</ele><time>2026-05-02T15:07:22Z</time></trkpt><trkpt lat="41.14060494768611" lon="14.33785678441925"><ele>54.33333333333333</ele><time>2026-05-02T15:07:23Z</time></trkpt><trkpt lat="41.140643609145044" lon="14.337619501152659"><ele>54.0</ele><time>2026-05-02T15:07:24Z</time></trkpt><trkpt lat="41.14068625171317" lon="14.33736375562514"><ele>48.333333333333336</ele><time>2026-05-02T15:07:25Z</time></trkpt><trkpt lat="41.14074608528741" lon="14.337104357617157"><ele>42.66666666666667</ele><time>2026-05-02T15:07:26Z</time></trkpt><trkpt lat="41.14079747338776" lon="14.336848497016048"><ele>37.0</ele><time>2026-05-02T15:07:27Z</time></trkpt><trkpt lat="41.14084185722053" lon="14.336605623133071"><ele>38.0</ele><time>2026-05-02T15:07:28Z</time></trkpt><trkpt lat="41.14087922291163" lon="14.336358407933687"><ele>39.0</ele><time>2026-05-02T15:07:29Z</time></trkpt><trkpt lat="41.140924769010155" lon="14.336104684316666"><ele>40.0</ele><time>2026-05-02T15:07:30Z</time></trkpt><trkpt lat="41.140964698322946" lon="14.335856258860682"><ele>40.0</ele><time>2026-05-02T15:07:31Z</time></trkpt><trkpt lat="41.141006266125174" lon="14.335612343375274"><ele>40.0</ele><time>2026-05-02T15:07:32Z</time></trkpt><trkpt lat="41.14106267531694" lon="14.335367145948313"><ele>40.0</ele><time>2026-05-02T15:07:33Z</time></trkpt><trkpt lat="41.14111154659292" lon="14.335124532386953"><ele>41.66666666666667</ele><time>2026-05-02T15:07:34Z</time></trkpt><trkpt lat="41.14116611607906" lon="14.334871780713529"><ele>43.333333333333336</ele><time>2026-05-02T15:07:35Z</time></trkpt><trkpt lat="41.14121411144249" lon="14.334630611407535"><ele>45.0</ele><time>2026-05-02T15:07:36Z</time></trkpt><trkpt lat="41.14125799562757" lon="14.334396206451347"><ele>48.33333333333333</ele><time>2026-05-02T15:07:37Z</time></trkpt><trkpt lat="41.14130524781875" lon="14.334162830503967"><ele>51.666666666666664</ele><time>2026-05-02T15:07:38Z</time></trkpt><trkpt lat="41.141354092295046" lon="14.333929508005038"><ele>55.0</ele><time>2026-05-02T15:07:39Z</time></trkpt><trkpt lat="41.14141489302826" lon="14.333702167220869"><ele>58.0</ele><time>2026-05-02T15:07:40Z</time></trkpt><trkpt lat="41.14146591563802" lon="14.333489060551614"><ele>61.0</ele><time>2026-05-02T15:07:41Z</time></trkpt><trkpt lat="41.14150012435618" lon="14.33326958967291"><ele>64.0</ele><time>2026-05-02T15:07:42Z</time></trkpt><trkpt lat="41.14151569232435" lon="14.33303278492128"><ele>64.0</ele><time>2026-05-02T15:07:43Z</time></trkpt><trkpt lat="41.14152510387566" lon="14.332793928670407"><ele>64.0</ele><time>2026-05-02T15:07:44Z</time></trkpt><trkpt lat="41.141527328543546" lon="14.332545647860321"><ele>64.0</ele><time>2026-05-02T15:07:45Z</time></trkpt><trkpt lat="41.14153345727094" lon="14.332295265383253"><ele>63.33333333333333</ele><time>2026-05-02T15:07:46Z</time></trkpt><trkpt lat="41.14150534145364" lon="14.332025611762509"><ele>62.66666666666667</ele><time>2026-05-02T15:07:47Z</time></trkpt><trkpt lat="41.14150124079802" lon="14.331748313933373"><ele>62.0</ele><time>2026-05-02T15:07:48Z</time></trkpt><trkpt lat="41.14149644062969" lon="14.331477205840645"><ele>59.0</ele><time>2026-05-02T15:07:49Z</time></trkpt><trkpt lat="41.14148211843414" lon="14.331196213392662"><ele>56.0</ele><time>2026-05-02T15:07:50Z</time></trkpt><trkpt lat="41.14148126569131" lon="14.33090641277733"><ele>53.0</ele><time>2026-05-02T15:07:51Z</time></trkpt><trkpt lat="41.14149616776909" lon="14.330601627605407"><ele>51.5</ele><time>2026-05-02T15:07:52Z</time></trkpt><trkpt lat="41.141495710852126" lon="14.33029966639423"><ele>50.0</ele><time>2026-05-02T15:07:53Z</time></trkpt><trkpt lat="41.14149635033566" lon="14.329982737585103"><ele>49.0</ele><time>2026-05-02T15:07:54.001Z</time></trkpt><trkpt lat="41.14149698053925" lon="14.329670409518206"><ele>48.0</ele><time>2026-05-02T15:07:55.001Z</time></trkpt><trkpt lat="41.14149763242813" lon="14.329347332409242"><ele>48.0</ele><time>2026-05-02T15:07:56.001Z</time></trkpt><trkpt lat="41.14149864490987" lon="14.329038494979903"><ele>48.0</ele><time>2026-05-02T15:07:57.001Z</time></trkpt><trkpt lat="41.14149964370107" lon="14.328738758130696"><ele>46.333333333333336</ele><time>2026-05-02T15:07:58.001Z</time></trkpt><trkpt lat="41.14148529717867" lon="14.328441387755284"><ele>44.66666666666667</ele><time>2026-05-02T15:07:59.001Z</time></trkpt><trkpt lat="41.14150432407495" lon="14.328164867335081"><ele>43.0</ele><time>2026-05-02T15:08:00.001Z</time></trkpt><trkpt lat="41.14148715679732" lon="14.327901642854226"><ele>41.0</ele><time>2026-05-02T15:08:01.001Z</time></trkpt><trkpt lat="41.14147507682378" lon="14.327651346901915"><ele>39.0</ele><time>2026-05-02T15:08:02.001Z</time></trkpt><trkpt lat="41.141443547978476" lon="14.327404711476694"><ele>37.0</ele><time>2026-05-02T15:08:03.001Z</time></trkpt><trkpt lat="41.141381804538746" lon="14.327162593080654"><ele>35.66666666666667</ele><time>2026-05-02T15:08:04.001Z</time></trkpt><trkpt lat="41.1412989278232" lon="14.326936880678215"><ele>34.333333333333336</ele><time>2026-05-02T15:08:05.001Z</time></trkpt><trkpt lat="41.14120367645974" lon="14.326707125089454"><ele>33.0</ele><time>2026-05-02T15:08:06.001Z</time></trkpt><trkpt lat="41.1410824281424" lon="14.326486720069461"><ele>33.0</ele><time>2026-05-02T15:08:07.001Z</time></trkpt><trkpt lat="41.140939181965315" lon="14.326273122499675"><ele>33.0</ele><time>2026-05-02T15:08:08.001Z</time></trkpt><trkpt lat="41.14080194841967" lon="14.326096824550499"><ele>33.0</ele><time>2026-05-02T15:08:09.001Z</time></trkpt><trkpt lat="41.14069067748497" lon="14.325947456361037"><ele>39.75</ele><time>2026-05-02T15:08:10.001Z</time></trkpt><trkpt lat="41.14059866821419" lon="14.325790056096928"><ele>46.5</ele><time>2026-05-02T15:08:11.001Z</time></trkpt><trkpt lat="41.14053806170473" lon="14.32563534960244"><ele>53.25</ele><time>2026-05-02T15:08:12.001Z</time></trkpt><trkpt lat="41.140489738211585" lon="14.325439599725883"><ele>60.0</ele><time>2026-05-02T15:08:13.001Z</time></trkpt><trkpt lat="41.1404395045219" lon="14.325218401179962"><ele>61.0</ele><time>2026-05-02T15:08:14.001Z</time></trkpt><trkpt lat="41.14039268906845" lon="14.324980242886598"><ele>62.0</ele><time>2026-05-02T15:08:15.001Z</time></trkpt><trkpt lat="41.14036065948472" lon="14.324715949531665"><ele>63.0</ele><time>2026-05-02T15:08:16.001Z</time></trkpt><trkpt lat="41.14030191754216" lon="14.324436322377084"><ele>60.0</ele><time>2026-05-02T15:08:17.001Z</time></trkpt><trkpt lat="41.140238393088204" lon="14.324146849838673"><ele>57.0</ele><time>2026-05-02T15:08:18.001Z</time></trkpt><trkpt lat="41.14017498689049" lon="14.323848680549803"><ele>52.0</ele><time>2026-05-02T15:08:19.001Z</time></trkpt><trkpt lat="41.14011533680834" lon="14.323555872225173"><ele>47.0</ele><time>2026-05-02T15:08:20.001Z</time></trkpt><trkpt lat="41.14006219522126" lon="14.32326266314662"><ele>46.0</ele><time>2026-05-02T15:08:21.001Z</time></trkpt><trkpt lat="41.14001340523078" lon="14.322975488782227"><ele>45.0</ele><time>2026-05-02T15:08:22.001Z</time></trkpt><trkpt lat="41.13996895260437" lon="14.322706878881913"><ele>44.0</ele><time>2026-05-02T15:08:23.001Z</time></trkpt><trkpt lat="41.13992856239005" lon="14.32243919277218"><ele>42.33333333333333</ele><time>2026-05-02T15:08:24.001Z</time></trkpt><trkpt lat="41.13989439258372" lon="14.322167920251731"><ele>40.666666666666664</ele><time>2026-05-02T15:08:25.001Z</time></trkpt><trkpt lat="41.13988455806471" lon="14.321897329078151"><ele>39.0</ele><time>2026-05-02T15:08:26.001Z</time></trkpt><trkpt lat="41.139881886051604" lon="14.321630894178233"><ele>55.66666666666667</ele><time>2026-05-02T15:08:27.001Z</time></trkpt><trkpt lat="41.13987395636684" lon="14.321389521877634"><ele>72.33333333333334</ele><time>2026-05-02T15:08:28.001Z</time></trkpt><trkpt lat="41.139865706568784" lon="14.321137383461906"><ele>89.0</ele><time>2026-05-02T15:08:29.001Z</time></trkpt><trkpt lat="41.13985654042531" lon="14.32090769345893"><ele>89.0</ele><time>2026-05-02T15:08:30.001Z</time></trkpt><trkpt lat="41.139842847457295" lon="14.320687746536654"><ele>89.0</ele><time>2026-05-02T15:08:31.001Z</time></trkpt><trkpt lat="41.13981444909968" lon="14.3204760465482"><ele>89.0</ele><time>2026-05-02T15:08:32.001Z</time></trkpt><trkpt lat="41.139771167956546" lon="14.320268693745508"><ele>85.25</ele><time>2026-05-02T15:08:33.001Z</time></trkpt><trkpt lat="41.139726253648575" lon="14.32010394319123"><ele>81.5</ele><time>2026-05-02T15:08:34.001Z</time></trkpt><trkpt lat="41.13967634802658" lon="14.319943921566722"><ele>77.75</ele><time>2026-05-02T15:08:35.001Z</time></trkpt><trkpt lat="41.139627526723" lon="14.319802525000041"><ele>74.0</ele><time>2026-05-02T15:08:36.001Z</time></trkpt><trkpt lat="41.13958174878967" lon="14.319674192177082"><ele>70.0</ele><time>2026-05-02T15:08:37.001Z</time></trkpt><trkpt lat="41.139537913375264" lon="14.319554138469435"><ele>66.0</ele><time>2026-05-02T15:08:38.001Z</time></trkpt><trkpt lat="41.13950633342967" lon="14.319468404056794"><ele>62.0</ele><time>2026-05-02T15:08:39.001Z</time></trkpt><trkpt lat="41.139467606564814" lon="14.319357503015377"><ele>58.0</ele><time>2026-05-02T15:08:41.001Z</time></trkpt><trkpt lat="41.13944315815706" lon="14.319276629250407"><ele>54.00000000000001</ele><time>2026-05-02T15:08:43.001Z</time></trkpt><trkpt lat="41.13942071550996" lon="14.319183491102613"><ele>50.0</ele><time>2026-05-02T15:08:44.001Z</time></trkpt><trkpt lat="41.13933451403338" lon="14.319084366371946"><ele>50.0</ele><time>2026-05-02T15:08:45.001Z</time></trkpt><trkpt lat="41.13925135886187" lon="14.318951972123562"><ele>50.0</ele><time>2026-05-02T15:08:46.001Z</time></trkpt><trkpt lat="41.139169396861305" lon="14.318806570395184"><ele>50.0</ele><time>2026-05-02T15:08:47.001Z</time></trkpt><trkpt lat="41.13906876182234" lon="14.318660643155233"><ele>50.0</ele><time>2026-05-02T15:08:48.001Z</time></trkpt><trkpt lat="41.138998708192894" lon="14.318506243375783"><ele>49.66666666666667</ele><time>2026-05-02T15:08:49.001Z</time></trkpt><trkpt lat="41.138916368685756" lon="14.318357847973695"><ele>49.33333333333333</ele><time>2026-05-02T15:08:50.001Z</time></trkpt><trkpt lat="41.138817193878985" lon="14.318196525971505"><ele>49.0</ele><time>2026-05-02T15:08:51.001Z</time></trkpt><trkpt lat="41.13871086498214" lon="14.318039598173648"><ele>44.33333333333333</ele><time>2026-05-02T15:08:52.001Z</time></trkpt><trkpt lat="41.13861783052169" lon="14.317887774250302"><ele>39.666666666666664</ele><time>2026-05-02T15:08:53.001Z</time></trkpt><trkpt lat="41.13850678577153" lon="14.317717009949673"><ele>35.0</ele><time>2026-05-02T15:08:54.001Z</time></trkpt><trkpt lat="41.138392176417256" lon="14.317543286606993"><ele>35.0</ele><time>2026-05-02T15:08:55.001Z</time></trkpt><trkpt lat="41.13828652332306" lon="14.317356071263857"><ele>35.0</ele><time>2026-05-02T15:08:56.001Z</time></trkpt><trkpt lat="41.1381645985781" lon="14.317200223455263"><ele>35.0</ele><time>2026-05-02T15:08:57.001Z</time></trkpt><trkpt lat="41.13803674112858" lon="14.317046084889876"><ele>34.0</ele><time>2026-05-02T15:08:58.002Z</time></trkpt><trkpt lat="41.13791067271042" lon="14.316888180619157"><ele>33.0</ele><time>2026-05-02T15:08:59.002Z</time></trkpt><trkpt lat="41.13778798863064" lon="14.316737660562627"><ele>32.0</ele><time>2026-05-02T15:09:00.002Z</time></trkpt><trkpt lat="41.13765705545824" lon="14.316583135705345"><ele>32.0</ele><time>2026-05-02T15:09:01.002Z</time></trkpt><trkpt lat="41.13751598571584" lon="14.316416309305968"><ele>32.0</ele><time>2026-05-02T15:09:02.002Z</time></trkpt><trkpt lat="41.13737673818679" lon="14.316246813738923"><ele>32.0</ele><time>2026-05-02T15:09:03.002Z</time></trkpt><trkpt lat="41.137240972628284" lon="14.31607376453967"><ele>32.0</ele><time>2026-05-02T15:09:04.002Z</time></trkpt><trkpt lat="41.13710360859918" lon="14.315909897267005"><ele>32.0</ele><time>2026-05-02T15:09:05.002Z</time></trkpt><trkpt lat="41.13695828271498" lon="14.315728806000326"><ele>32.0</ele><time>2026-05-02T15:09:06.002Z</time></trkpt><trkpt lat="41.13680985854663" lon="14.31556174704004"><ele>32.0</ele><time>2026-05-02T15:09:07.002Z</time></trkpt><trkpt lat="41.13667187620171" lon="14.315394937229726"><ele>32.0</ele><time>2026-05-02T15:09:08.002Z</time></trkpt><trkpt lat="41.13653318449594" lon="14.315218037985973"><ele>32.0</ele><time>2026-05-02T15:09:09.002Z</time></trkpt><trkpt lat="41.13638384458778" lon="14.315023854566526"><ele>32.0</ele><time>2026-05-02T15:09:10.002Z</time></trkpt><trkpt lat="41.136228126788204" lon="14.31483157150851"><ele>32.0</ele><time>2026-05-02T15:09:11.002Z</time></trkpt><trkpt lat="41.136061977340866" lon="14.314631619969717"><ele>32.0</ele><time>2026-05-02T15:09:12.002Z</time></trkpt><trkpt lat="41.13589360221624" lon="14.314421691181185"><ele>31.5</ele><time>2026-05-02T15:09:13.002Z</time></trkpt><trkpt lat="41.13572091071315" lon="14.31424626629776"><ele>31.0</ele><time>2026-05-02T15:09:14.002Z</time></trkpt><trkpt lat="41.1355430535085" lon="14.314043275002073"><ele>31.0</ele><time>2026-05-02T15:09:15.002Z</time></trkpt><trkpt lat="41.13536187078191" lon="14.313840526932005"><ele>31.0</ele><time>2026-05-02T15:09:16.002Z</time></trkpt><trkpt lat="41.135188479463345" lon="14.313627240894048"><ele>31.0</ele><time>2026-05-02T15:09:17.002Z</time></trkpt><trkpt lat="41.13501562118998" lon="14.31341846585107"><ele>31.0</ele><time>2026-05-02T15:09:18.002Z</time></trkpt><trkpt lat="41.134848579849454" lon="14.313216890971004"><ele>32.0</ele><time>2026-05-02T15:09:19.002Z</time></trkpt><trkpt lat="41.13467690453599" lon="14.313010175807632"><ele>33.0</ele><time>2026-05-02T15:09:20Z</time></trkpt><trkpt lat="41.13450309113425" lon="14.31280088631955"><ele>33.0</ele><time>2026-05-02T15:09:21Z</time></trkpt><trkpt lat="41.13431983605996" lon="14.312601344189648"><ele>33.0</ele><time>2026-05-02T15:09:22Z</time></trkpt><trkpt lat="41.1341500372288" lon="14.312391503809653"><ele>34.5</ele><time>2026-05-02T15:09:23Z</time></trkpt><trkpt lat="41.133983130956445" lon="14.312187615698422"><ele>36.0</ele><time>2026-05-02T15:09:24Z</time></trkpt><trkpt lat="41.13381044691754" lon="14.311978757199416"><ele>36.0</ele><time>2026-05-02T15:09:25Z</time></trkpt><trkpt lat="41.13364893151052" lon="14.311785043579752"><ele>36.0</ele><time>2026-05-02T15:09:26Z</time></trkpt><trkpt lat="41.13348453971067" lon="14.311581301396226"><ele>36.0</ele><time>2026-05-02T15:09:27Z</time></trkpt><trkpt lat="41.133325067256635" lon="14.311395144620978"><ele>36.0</ele><time>2026-05-02T15:09:28Z</time></trkpt><trkpt lat="41.13317176508614" lon="14.311217411940127"><ele>36.0</ele><time>2026-05-02T15:09:29Z</time></trkpt><trkpt lat="41.13303084098861" lon="14.311050860047974"><ele>36.0</ele><time>2026-05-02T15:09:30Z</time></trkpt><trkpt lat="41.13290880580405" lon="14.310898205169492"><ele>36.0</ele><time>2026-05-02T15:09:31Z</time></trkpt><trkpt lat="41.13278558529799" lon="14.310744085536502"><ele>36.0</ele><time>2026-05-02T15:09:32Z</time></trkpt><trkpt lat="41.1326727974567" lon="14.31059093269858"><ele>36.0</ele><time>2026-05-02T15:09:33Z</time></trkpt><trkpt lat="41.1325609013455" lon="14.310409721159786"><ele>35.666666666666664</ele><time>2026-05-02T15:09:34Z</time></trkpt><trkpt lat="41.13248690624522" lon="14.310209080368564"><ele>35.33333333333333</ele><time>2026-05-02T15:09:35Z</time></trkpt><trkpt lat="41.13242897683075" lon="14.309985771026208"><ele>35.0</ele><time>2026-05-02T15:09:36Z</time></trkpt><trkpt lat="41.132393760062335" lon="14.30974578747786"><ele>35.33333333333333</ele><time>2026-05-02T15:09:37Z</time></trkpt><trkpt lat="41.13237220000329" lon="14.309478312542923"><ele>35.666666666666664</ele><time>2026-05-02T15:09:38Z</time></trkpt><trkpt lat="41.13237704027314" lon="14.309194974666685"><ele>36.0</ele><time>2026-05-02T15:09:39Z</time></trkpt><trkpt lat="41.1323686159455" lon="14.308903604343946"><ele>36.0</ele><time>2026-05-02T15:09:40Z</time></trkpt><trkpt lat="41.13234402036804" lon="14.308614267139458"><ele>36.0</ele><time>2026-05-02T15:09:41Z</time></trkpt><trkpt lat="41.13234870165641" lon="14.308318976879724"><ele>36.0</ele><time>2026-05-02T15:09:42Z</time></trkpt><trkpt lat="41.1323255418157" lon="14.308035885460669"><ele>35.5</ele><time>2026-05-02T15:09:43Z</time></trkpt><trkpt lat="41.13233223713425" lon="14.307732071430715"><ele>35.0</ele><time>2026-05-02T15:09:44Z</time></trkpt><trkpt lat="41.1323212885259" lon="14.307432661522755"><ele>35.0</ele><time>2026-05-02T15:09:45Z</time></trkpt><trkpt lat="41.132312268578296" lon="14.307137314339261"><ele>35.0</ele><time>2026-05-02T15:09:46Z</time></trkpt><trkpt lat="41.13231022347827" lon="14.306835590943034"><ele>35.0</ele><time>2026-05-02T15:09:47Z</time></trkpt><trkpt lat="41.132318899759355" lon="14.306532336423961"><ele>35.0</ele><time>2026-05-02T15:09:48Z</time></trkpt><trkpt lat="41.13236117552504" lon="14.306225082691482"><ele>35.0</ele><time>2026-05-02T15:09:49Z</time></trkpt><trkpt lat="41.13240979792182" lon="14.305921918629176"><ele>35.0</ele><time>2026-05-02T15:09:50Z</time></trkpt><trkpt lat="41.13245355794717" lon="14.305616808605393"><ele>35.0</ele><time>2026-05-02T15:09:51Z</time></trkpt><trkpt lat="41.132485963714764" lon="14.30530550397434"><ele>35.0</ele><time>2026-05-02T15:09:52Z</time></trkpt><trkpt lat="41.13248986433008" lon="14.304998455636996"><ele>34.0</ele><time>2026-05-02T15:09:53Z</time></trkpt><trkpt lat="41.132479221198956" lon="14.304692513998168"><ele>33.0</ele><time>2026-05-02T15:09:54Z</time></trkpt><trkpt lat="41.13245443362013" lon="14.304394318096918"><ele>33.0</ele><time>2026-05-02T15:09:55Z</time></trkpt><trkpt lat="41.132417820052204" lon="14.304086701729608"><ele>33.0</ele><time>2026-05-02T15:09:56Z</time></trkpt><trkpt lat="41.13237985796801" lon="14.30377852084431"><ele>34.0</ele><time>2026-05-02T15:09:57Z</time></trkpt><trkpt lat="41.132342620695916" lon="14.303476224058237"><ele>35.0</ele><time>2026-05-02T15:09:58Z</time></trkpt><trkpt lat="41.13229950680821" lon="14.30318135261019"><ele>36.0</ele><time>2026-05-02T15:09:59Z</time></trkpt><trkpt lat="41.132063625356054" lon="14.302924060748555"><ele>37.0</ele><time>2026-05-02T15:10:00Z</time></trkpt><trkpt lat="41.131936196326215" lon="14.302649482288688"><ele>37.0</ele><time>2026-05-02T15:10:01Z</time></trkpt><trkpt lat="41.131821733939056" lon="14.302354606918907"><ele>37.0</ele><time>2026-05-02T15:10:02Z</time></trkpt><trkpt lat="41.13170351554908" lon="14.30206736261518"><ele>37.0</ele><time>2026-05-02T15:10:03.001Z</time></trkpt><trkpt lat="41.13160991600476" lon="14.301802421083377"><ele>37.0</ele><time>2026-05-02T15:10:04.001Z</time></trkpt><trkpt lat="41.13152235956808" lon="14.30159061085204"><ele>37.0</ele><time>2026-05-02T15:10:05.001Z</time></trkpt><trkpt lat="41.13142615866689" lon="14.301370737447126"><ele>37.0</ele><time>2026-05-02T15:10:06.001Z</time></trkpt><trkpt lat="41.131338104464135" lon="14.301163990383174"><ele>37.0</ele><time>2026-05-02T15:10:07.001Z</time></trkpt><trkpt lat="41.13123419054349" lon="14.300943957157866"><ele>37.0</ele><time>2026-05-02T15:10:08.001Z</time></trkpt><trkpt lat="41.13113166650546" lon="14.300718799535119"><ele>36.0</ele><time>2026-05-02T15:10:09.001Z</time></trkpt><trkpt lat="41.13103099524203" lon="14.300497129522238"><ele>35.0</ele><time>2026-05-02T15:10:10.001Z</time></trkpt><trkpt lat="41.13093140942732" lon="14.300259993894588"><ele>34.0</ele><time>2026-05-02T15:10:11.001Z</time></trkpt><trkpt lat="41.130830549589085" lon="14.300043671688517"><ele>34.0</ele><time>2026-05-02T15:10:12.001Z</time></trkpt><trkpt lat="41.13072735701442" lon="14.299821906120366"><ele>34.0</ele><time>2026-05-02T15:10:13.001Z</time></trkpt><trkpt lat="41.13063842268564" lon="14.2996043015998"><ele>34.0</ele><time>2026-05-02T15:10:14.001Z</time></trkpt><trkpt lat="41.130524527604386" lon="14.299374946971817"><ele>35.333333333333336</ele><time>2026-05-02T15:10:15.001Z</time></trkpt><trkpt lat="41.130415654468834" lon="14.299127212402924"><ele>36.666666666666664</ele><time>2026-05-02T15:10:16.001Z</time></trkpt><trkpt lat="41.130315060160996" lon="14.29888997780142"><ele>38.0</ele><time>2026-05-02T15:10:17.001Z</time></trkpt><trkpt lat="41.13022063119216" lon="14.298670537881522"><ele>38.0</ele><time>2026-05-02T15:10:18.001Z</time></trkpt><trkpt lat="41.130132162171854" lon="14.298461896315942"><ele>38.0</ele><time>2026-05-02T15:10:19.001Z</time></trkpt><trkpt lat="41.13004669531344" lon="14.298252121756517"><ele>38.0</ele><time>2026-05-02T15:10:20.001Z</time></trkpt><trkpt lat="41.1299609872398" lon="14.298043564611618"><ele>38.0</ele><time>2026-05-02T15:10:21.001Z</time></trkpt><trkpt lat="41.12987927355469" lon="14.29783550031492"><ele>38.0</ele><time>2026-05-02T15:10:22.001Z</time></trkpt><trkpt lat="41.129788678756626" lon="14.29763462972422"><ele>38.0</ele><time>2026-05-02T15:10:23.001Z</time></trkpt><trkpt lat="41.12969940299565" lon="14.297433548409888"><ele>37.666666666666664</ele><time>2026-05-02T15:10:24.001Z</time></trkpt><trkpt lat="41.12961180838314" lon="14.297233790513234"><ele>37.333333333333336</ele><time>2026-05-02T15:10:25.001Z</time></trkpt><trkpt lat="41.12952778254559" lon="14.29702972087684"><ele>37.0</ele><time>2026-05-02T15:10:26.001Z</time></trkpt><trkpt lat="41.12942597121486" lon="14.296821340079656"><ele>37.0</ele><time>2026-05-02T15:10:27.001Z</time></trkpt><trkpt lat="41.12931508647182" lon="14.296591804513676"><ele>37.0</ele><time>2026-05-02T15:10:28.001Z</time></trkpt><trkpt lat="41.129204766260955" lon="14.296356696333723"><ele>37.0</ele><time>2026-05-02T15:10:29.001Z</time></trkpt><trkpt lat="41.129096584865536" lon="14.29610481427423"><ele>37.0</ele><time>2026-05-02T15:10:30.001Z</time></trkpt><trkpt lat="41.12899036039119" lon="14.295845298338115"><ele>37.0</ele><time>2026-05-02T15:10:31.001Z</time></trkpt><trkpt lat="41.128880193030675" lon="14.29557746958985"><ele>37.0</ele><time>2026-05-02T15:10:32.001Z</time></trkpt><trkpt lat="41.128773170283345" lon="14.295306817746395"><ele>37.0</ele><time>2026-05-02T15:10:33.001Z</time></trkpt><trkpt lat="41.12865898684059" lon="14.295036929920412"><ele>37.0</ele><time>2026-05-02T15:10:34.001Z</time></trkpt><trkpt lat="41.128548416198804" lon="14.29478332557125"><ele>37.0</ele><time>2026-05-02T15:10:35.001Z</time></trkpt><trkpt lat="41.12844374086028" lon="14.294552891637682"><ele>37.0</ele><time>2026-05-02T15:10:36.001Z</time></trkpt><trkpt lat="41.12836388512941" lon="14.294339875237196"><ele>37.66666666666667</ele><time>2026-05-02T15:10:37.001Z</time></trkpt><trkpt lat="41.12828024414737" lon="14.294137151546964"><ele>38.333333333333336</ele><time>2026-05-02T15:10:38.001Z</time></trkpt><trkpt lat="41.128187155030325" lon="14.293944812667677"><ele>39.0</ele><time>2026-05-02T15:10:39.001Z</time></trkpt><trkpt lat="41.1281068473473" lon="14.29375837923655"><ele>40.5</ele><time>2026-05-02T15:10:40.001Z</time></trkpt><trkpt lat="41.12803789910182" lon="14.293587278151286"><ele>42.0</ele><time>2026-05-02T15:10:41.001Z</time></trkpt><trkpt lat="41.127966951705" lon="14.293437505290235"><ele>43.5</ele><time>2026-05-02T15:10:42.001Z</time></trkpt><trkpt lat="41.12790027849721" lon="14.293308540027018"><ele>45.0</ele><time>2026-05-02T15:10:43.001Z</time></trkpt><trkpt lat="41.12785321143617" lon="14.293183939343868"><ele>45.2</ele><time>2026-05-02T15:10:44.001Z</time></trkpt><trkpt lat="41.12784263300573" lon="14.2930736830732"><ele>45.4</ele><time>2026-05-02T15:10:45.001Z</time></trkpt><trkpt lat="41.1278599609271" lon="14.292925635219474"><ele>45.599999999999994</ele><time>2026-05-02T15:10:46.001Z</time></trkpt><trkpt lat="41.127877907369275" lon="14.292763377142103"><ele>45.8</ele><time>2026-05-02T15:10:47.001Z</time></trkpt><trkpt lat="41.127889743321276" lon="14.292612577004933"><ele>46.0</ele><time>2026-05-02T15:10:48.001Z</time></trkpt><trkpt lat="41.12791023442703" lon="14.292483506452202"><ele>46.0</ele><time>2026-05-02T15:10:49.001Z</time></trkpt><trkpt lat="41.12794138186682" lon="14.292368568986157"><ele>46.0</ele><time>2026-05-02T15:10:50.001Z</time></trkpt><trkpt lat="41.127985520603815" lon="14.292253125883772"><ele>46.0</ele><time>2026-05-02T15:10:51.001Z</time></trkpt><trkpt lat="41.128037259360354" lon="14.292132688425323"><ele>46.0</ele><time>2026-05-02T15:10:52.001Z</time></trkpt><trkpt lat="41.12807569938992" lon="14.292032124381498"><ele>46.0</ele><time>2026-05-02T15:10:53.001Z</time></trkpt><trkpt lat="41.12811246582589" lon="14.291934003469404"><ele>46.0</ele><time>2026-05-02T15:10:54.001Z</time></trkpt><trkpt lat="41.12814981991582" lon="14.291835657812095"><ele>46.0</ele><time>2026-05-02T15:10:55.001Z</time></trkpt><trkpt lat="41.128187221582564" lon="14.291734763106186"><ele>46.0</ele><time>2026-05-02T15:10:56.001Z</time></trkpt><trkpt lat="41.128223880796384" lon="14.291627589718853"><ele>46.0</ele><time>2026-05-02T15:10:57.001Z</time></trkpt><trkpt lat="41.12826371311399" lon="14.29151931207096"><ele>46.0</ele><time>2026-05-02T15:10:58.001Z</time></trkpt><trkpt lat="41.12829931736863" lon="14.291420319325537"><ele>46.0</ele><time>2026-05-02T15:10:59.001Z</time></trkpt><trkpt lat="41.12833702672828" lon="14.291314901898954"><ele>45.16666666666667</ele><time>2026-05-02T15:11:00.001Z</time></trkpt><trkpt lat="41.128374032979465" lon="14.291209380544784"><ele>44.333333333333336</ele><time>2026-05-02T15:11:01.001Z</time></trkpt><trkpt lat="41.1284145847207" lon="14.291101506277798"><ele>43.5</ele><time>2026-05-02T15:11:02.001Z</time></trkpt><trkpt lat="41.12845551979925" lon="14.290989557574598"><ele>42.666666666666664</ele><time>2026-05-02T15:11:03.001Z</time></trkpt><trkpt lat="41.128490520834646" lon="14.290887534611974"><ele>41.83333333333333</ele><time>2026-05-02T15:11:04.001Z</time></trkpt><trkpt lat="41.128525125823565" lon="14.290784524325002"><ele>41.0</ele><time>2026-05-02T15:11:05.001Z</time></trkpt><trkpt lat="41.12856258345923" lon="14.290680345512722"><ele>40.8</ele><time>2026-05-02T15:11:06.002Z</time></trkpt><trkpt lat="41.12860214456305" lon="14.290568059199206"><ele>40.599999999999994</ele><time>2026-05-02T15:11:07.002Z</time></trkpt><trkpt lat="41.128640744066736" lon="14.290453094103551"><ele>40.4</ele><time>2026-05-02T15:11:08.002Z</time></trkpt><trkpt lat="41.128684621680485" lon="14.29033169971542"><ele>40.2</ele><time>2026-05-02T15:11:09.002Z</time></trkpt><trkpt lat="41.128723239376576" lon="14.290229225647721"><ele>40.0</ele><time>2026-05-02T15:11:10.002Z</time></trkpt><trkpt lat="41.12876431121979" lon="14.290128111077692"><ele>40.0</ele><time>2026-05-02T15:11:11.002Z</time></trkpt><trkpt lat="41.12880272400232" lon="14.290032078594361"><ele>40.0</ele><time>2026-05-02T15:11:12.002Z</time></trkpt><trkpt lat="41.12884322429142" lon="14.289926904785405"><ele>40.0</ele><time>2026-05-02T15:11:13.002Z</time></trkpt><trkpt lat="41.12888660590071" lon="14.289804490642458"><ele>40.0</ele><time>2026-05-02T15:11:14.002Z</time></trkpt><trkpt lat="41.128932857377514" lon="14.289694636685113"><ele>40.0</ele><time>2026-05-02T15:11:15.002Z</time></trkpt><trkpt lat="41.128971618296525" lon="14.289586851481381"><ele>39.833333333333336</ele><time>2026-05-02T15:11:16.002Z</time></trkpt><trkpt lat="41.12900558771781" lon="14.289486096825877"><ele>39.66666666666667</ele><time>2026-05-02T15:11:17.002Z</time></trkpt><trkpt lat="41.12905864340908" lon="14.289392680560296"><ele>39.5</ele><time>2026-05-02T15:11:18.002Z</time></trkpt><trkpt lat="41.12910018846805" lon="14.289282038992143"><ele>39.333333333333336</ele><time>2026-05-02T15:11:19.002Z</time></trkpt><trkpt lat="41.12914025580371" lon="14.289175332754365"><ele>39.166666666666664</ele><time>2026-05-02T15:11:20.002Z</time></trkpt><trkpt lat="41.129164821527084" lon="14.289061149441684"><ele>39.0</ele><time>2026-05-02T15:11:21.002Z</time></trkpt><trkpt lat="41.12921931542476" lon="14.28895560666163"><ele>40.0</ele><time>2026-05-02T15:11:22.002Z</time></trkpt><trkpt lat="41.12926037608577" lon="14.288844502667294"><ele>41.0</ele><time>2026-05-02T15:11:23.002Z</time></trkpt><trkpt lat="41.129303153061194" lon="14.28873150576207"><ele>42.0</ele><time>2026-05-02T15:11:24.002Z</time></trkpt><trkpt lat="41.129343507061826" lon="14.288625357300779"><ele>43.0</ele><time>2026-05-02T15:11:25.002Z</time></trkpt><trkpt lat="41.12938881351345" lon="14.288511027698597"><ele>44.0</ele><time>2026-05-02T15:11:26Z</time></trkpt><trkpt lat="41.12943393287178" lon="14.288394702873234"><ele>44.0</ele><time>2026-05-02T15:11:27Z</time></trkpt><trkpt lat="41.12947948299153" lon="14.288284450829687"><ele>44.0</ele><time>2026-05-02T15:11:28Z</time></trkpt><trkpt lat="41.129522053378196" lon="14.288169834660241"><ele>44.0</ele><time>2026-05-02T15:11:29Z</time></trkpt><trkpt lat="41.12957176459391" lon="14.288050997186089"><ele>44.0</ele><time>2026-05-02T15:11:30Z</time></trkpt><trkpt lat="41.129612006302104" lon="14.287927138730549"><ele>44.0</ele><time>2026-05-02T15:11:31Z</time></trkpt><trkpt lat="41.12965440094582" lon="14.287810341428136"><ele>44.400000000000006</ele><time>2026-05-02T15:11:32Z</time></trkpt><trkpt lat="41.1296944328196" lon="14.287686886282978"><ele>44.8</ele><time>2026-05-02T15:11:33Z</time></trkpt><trkpt lat="41.12973947947076" lon="14.287559552006421"><ele>45.2</ele><time>2026-05-02T15:11:34Z</time></trkpt><trkpt lat="41.129782580210076" lon="14.287444168941223"><ele>45.599999999999994</ele><time>2026-05-02T15:11:35Z</time></trkpt><trkpt lat="41.12982832316337" lon="14.287325172468723"><ele>46.0</ele><time>2026-05-02T15:11:36Z</time></trkpt><trkpt lat="41.12989181217581" lon="14.287198283313732"><ele>45.0</ele><time>2026-05-02T15:11:37Z</time></trkpt><trkpt lat="41.12992805674817" lon="14.287053293972406"><ele>44.0</ele><time>2026-05-02T15:11:38Z</time></trkpt><trkpt lat="41.12997820239267" lon="14.286920381965354"><ele>43.0</ele><time>2026-05-02T15:11:39Z</time></trkpt><trkpt lat="41.13004672247513" lon="14.286777991658113"><ele>42.0</ele><time>2026-05-02T15:11:40Z</time></trkpt><trkpt lat="41.130106311637505" lon="14.286609821667463"><ele>43.666666666666664</ele><time>2026-05-02T15:11:41Z</time></trkpt><trkpt lat="41.130174673164696" lon="14.286425207617498"><ele>45.33333333333333</ele><time>2026-05-02T15:11:42Z</time></trkpt><trkpt lat="41.13024414212968" lon="14.286236700832733"><ele>47.0</ele><time>2026-05-02T15:11:43Z</time></trkpt><trkpt lat="41.13032365282749" lon="14.286022688539928"><ele>47.0</ele><time>2026-05-02T15:11:44Z</time></trkpt><trkpt lat="41.13040732968855" lon="14.285798400794715"><ele>47.0</ele><time>2026-05-02T15:11:45Z</time></trkpt><trkpt lat="41.13049886781591" lon="14.285564650707693"><ele>47.0</ele><time>2026-05-02T15:11:46Z</time></trkpt><trkpt lat="41.13058139311038" lon="14.285316463363204"><ele>44.0</ele><time>2026-05-02T15:11:47Z</time></trkpt><trkpt lat="41.130674197492944" lon="14.285082912498716"><ele>41.0</ele><time>2026-05-02T15:11:48Z</time></trkpt><trkpt lat="41.13076808725961" lon="14.28482366741752"><ele>38.0</ele><time>2026-05-02T15:11:49Z</time></trkpt><trkpt lat="41.13086712441317" lon="14.284564199497309"><ele>38.0</ele><time>2026-05-02T15:11:50Z</time></trkpt><trkpt lat="41.130967212459566" lon="14.284303605159735"><ele>38.0</ele><time>2026-05-02T15:11:51Z</time></trkpt><trkpt lat="41.13106708334265" lon="14.284040375065196"><ele>38.0</ele><time>2026-05-02T15:11:52Z</time></trkpt><trkpt lat="41.131161917030035" lon="14.283791430515565"><ele>38.0</ele><time>2026-05-02T15:11:53Z</time></trkpt><trkpt lat="41.131265981638734" lon="14.283535052340776"><ele>38.0</ele><time>2026-05-02T15:11:54Z</time></trkpt><trkpt lat="41.13135826786162" lon="14.283282098709028"><ele>38.0</ele><time>2026-05-02T15:11:55Z</time></trkpt><trkpt lat="41.1314333402713" lon="14.283050098381883"><ele>38.33333333333333</ele><time>2026-05-02T15:11:56Z</time></trkpt><trkpt lat="41.131494045533024" lon="14.28281236826741"><ele>38.666666666666664</ele><time>2026-05-02T15:11:57Z</time></trkpt><trkpt lat="41.13153801566175" lon="14.282545852001531"><ele>39.0</ele><time>2026-05-02T15:11:58Z</time></trkpt><trkpt lat="41.13157204627735" lon="14.282274938522253"><ele>37.0</ele><time>2026-05-02T15:11:59Z</time></trkpt><trkpt lat="41.131585132612905" lon="14.28200419823732"><ele>35.0</ele><time>2026-05-02T15:12:00Z</time></trkpt><trkpt lat="41.13158699291965" lon="14.281735731098138"><ele>33.0</ele><time>2026-05-02T15:12:01Z</time></trkpt><trkpt lat="41.131593692437626" lon="14.28142753067884"><ele>33.0</ele><time>2026-05-02T15:12:02Z</time></trkpt><trkpt lat="41.131605227204915" lon="14.281171423041169"><ele>33.0</ele><time>2026-05-02T15:12:03Z</time></trkpt><trkpt lat="41.131613076801194" lon="14.280914932054188"><ele>33.0</ele><time>2026-05-02T15:12:04Z</time></trkpt><trkpt lat="41.131624343142654" lon="14.280666621485828"><ele>33.0</ele><time>2026-05-02T15:12:05Z</time></trkpt><trkpt lat="41.13163084607547" lon="14.280431209657056"><ele>33.0</ele><time>2026-05-02T15:12:06Z</time></trkpt><trkpt lat="41.13162874625128" lon="14.280199028050165"><ele>33.0</ele><time>2026-05-02T15:12:07Z</time></trkpt><trkpt lat="41.13162505633329" lon="14.279956972260049"><ele>33.0</ele><time>2026-05-02T15:12:08Z</time></trkpt><trkpt lat="41.13163182808823" lon="14.279727782249614"><ele>33.0</ele><time>2026-05-02T15:12:09.001Z</time></trkpt><trkpt lat="41.13164455051443" lon="14.279537496062796"><ele>33.0</ele><time>2026-05-02T15:12:10.001Z</time></trkpt><trkpt lat="41.131633798457976" lon="14.279353050300859"><ele>33.0</ele><time>2026-05-02T15:12:11.001Z</time></trkpt><trkpt lat="41.1316460795592" lon="14.279192076307762"><ele>33.0</ele><time>2026-05-02T15:12:12.001Z</time></trkpt><trkpt lat="41.13167339101573" lon="14.279033348295368"><ele>33.0</ele><time>2026-05-02T15:12:13.001Z</time></trkpt><trkpt lat="41.131711532974904" lon="14.27890282785797"><ele>33.0</ele><time>2026-05-02T15:12:14.001Z</time></trkpt><trkpt lat="41.131732821420925" lon="14.27878139212249"><ele>33.0</ele><time>2026-05-02T15:12:15.001Z</time></trkpt><trkpt lat="41.1316886456924" lon="14.278689585080643"><ele>32.8</ele><time>2026-05-02T15:12:16.001Z</time></trkpt><trkpt lat="41.13165908942989" lon="14.27860524141113"><ele>32.599999999999994</ele><time>2026-05-02T15:12:17.001Z</time></trkpt><trkpt lat="41.1315006220739" lon="14.278566884473664"><ele>32.400000000000006</ele><time>2026-05-02T15:12:19.001Z</time></trkpt><trkpt lat="41.13138666379847" lon="14.278546422379781"><ele>32.2</ele><time>2026-05-02T15:12:20.001Z</time></trkpt><trkpt lat="41.1313019085462" lon="14.278502147110434"><ele>32.0</ele><time>2026-05-02T15:12:21.001Z</time></trkpt><trkpt lat="41.13123982296888" lon="14.278403909679756"><ele>34.400000000000006</ele><time>2026-05-02T15:12:22.001Z</time></trkpt><trkpt lat="41.13121935382382" lon="14.278275667778919"><ele>36.800000000000004</ele><time>2026-05-02T15:12:23.001Z</time></trkpt><trkpt lat="41.131268002284564" lon="14.278143755716336"><ele>39.2</ele><time>2026-05-02T15:12:24.001Z</time></trkpt><trkpt lat="41.131319402040525" lon="14.278031027460102"><ele>41.6</ele><time>2026-05-02T15:12:25.001Z</time></trkpt><trkpt lat="41.13139901461717" lon="14.27790727113185"><ele>44.0</ele><time>2026-05-02T15:12:26.001Z</time></trkpt><trkpt lat="41.13147334325438" lon="14.27778323826216"><ele>44.5</ele><time>2026-05-02T15:12:27.001Z</time></trkpt><trkpt lat="41.13154332790652" lon="14.27763216265597"><ele>45.0</ele><time>2026-05-02T15:12:28.001Z</time></trkpt><trkpt lat="41.131610728032555" lon="14.277459029899356"><ele>45.5</ele><time>2026-05-02T15:12:29.001Z</time></trkpt><trkpt lat="41.131668432340376" lon="14.277256581063394"><ele>46.0</ele><time>2026-05-02T15:12:30.001Z</time></trkpt><trkpt lat="41.131689389525135" lon="14.277024427059114"><ele>41.333333333333336</ele><time>2026-05-02T15:12:31.001Z</time></trkpt><trkpt lat="41.13169395154434" lon="14.276770856168296"><ele>36.666666666666664</ele><time>2026-05-02T15:12:32.001Z</time></trkpt><trkpt lat="41.13170171315612" lon="14.27650761048997"><ele>32.0</ele><time>2026-05-02T15:12:33.001Z</time></trkpt><trkpt lat="41.131687603962845" lon="14.27627112644654"><ele>31.666666666666664</ele><time>2026-05-02T15:12:34.001Z</time></trkpt><trkpt lat="41.13168996536177" lon="14.275996703516402"><ele>31.333333333333336</ele><time>2026-05-02T15:12:35.001Z</time></trkpt><trkpt lat="41.13170913902683" lon="14.275711468952718"><ele>31.0</ele><time>2026-05-02T15:12:36.001Z</time></trkpt><trkpt lat="41.13171801236004" lon="14.275419569915211"><ele>31.0</ele><time>2026-05-02T15:12:37.001Z</time></trkpt><trkpt lat="41.13173391691508" lon="14.27513080512937"><ele>31.0</ele><time>2026-05-02T15:12:38.001Z</time></trkpt><trkpt lat="41.13173132689522" lon="14.274845749742381"><ele>31.0</ele><time>2026-05-02T15:12:39.001Z</time></trkpt><trkpt lat="41.131746447566734" lon="14.274558192537997"><ele>31.0</ele><time>2026-05-02T15:12:40.001Z</time></trkpt><trkpt lat="41.13173793897403" lon="14.274275029351783"><ele>31.0</ele><time>2026-05-02T15:12:41.001Z</time></trkpt><trkpt lat="41.131742403577526" lon="14.27399062695893"><ele>31.0</ele><time>2026-05-02T15:12:42.001Z</time></trkpt><trkpt lat="41.13174119134987" lon="14.273716997996262"><ele>31.0</ele><time>2026-05-02T15:12:43.001Z</time></trkpt><trkpt lat="41.13174341652343" lon="14.27345282784267"><ele>31.0</ele><time>2026-05-02T15:12:44.001Z</time></trkpt><trkpt lat="41.13175443434521" lon="14.273197125454624"><ele>31.0</ele><time>2026-05-02T15:12:45.001Z</time></trkpt><trkpt lat="41.13175895408999" lon="14.27295221413767"><ele>31.0</ele><time>2026-05-02T15:12:46.001Z</time></trkpt><trkpt lat="41.131759378524016" lon="14.272711568915657"><ele>31.0</ele><time>2026-05-02T15:12:47.001Z</time></trkpt><trkpt lat="41.13174499746674" lon="14.272484647509478"><ele>31.0</ele><time>2026-05-02T15:12:48.001Z</time></trkpt><trkpt lat="41.13171830876007" lon="14.272267144637214"><ele>30.666666666666668</ele><time>2026-05-02T15:12:49.001Z</time></trkpt><trkpt lat="41.13166145878348" lon="14.272053899754896"><ele>30.333333333333336</ele><time>2026-05-02T15:12:50.001Z</time></trkpt><trkpt lat="41.13161828223494" lon="14.271846283642635"><ele>30.0</ele><time>2026-05-02T15:12:51.001Z</time></trkpt><trkpt lat="41.13157248030441" lon="14.27164437864571"><ele>34.0</ele><time>2026-05-02T15:12:52.001Z</time></trkpt><trkpt lat="41.13152999548884" lon="14.271437691601548"><ele>38.0</ele><time>2026-05-02T15:12:53.001Z</time></trkpt><trkpt lat="41.131492500019924" lon="14.27121992990775"><ele>42.0</ele><time>2026-05-02T15:12:54.001Z</time></trkpt><trkpt lat="41.131452283824125" lon="14.271007264447226"><ele>42.0</ele><time>2026-05-02T15:12:55.001Z</time></trkpt><trkpt lat="41.13142382951198" lon="14.270784614908896"><ele>42.0</ele><time>2026-05-02T15:12:56.001Z</time></trkpt><trkpt lat="41.131391304113535" lon="14.270568628429029"><ele>42.0</ele><time>2026-05-02T15:12:57.001Z</time></trkpt><trkpt lat="41.13137167446805" lon="14.270352228694081"><ele>41.333333333333336</ele><time>2026-05-02T15:12:58.001Z</time></trkpt><trkpt lat="41.13135048995355" lon="14.270140731720472"><ele>40.66666666666667</ele><time>2026-05-02T15:12:59.001Z</time></trkpt><trkpt lat="41.13132609320082" lon="14.269921648684663"><ele>40.0</ele><time>2026-05-02T15:13:00.001Z</time></trkpt><trkpt lat="41.131303333486294" lon="14.269696854167899"><ele>40.0</ele><time>2026-05-02T15:13:01.001Z</time></trkpt><trkpt lat="41.13127118682074" lon="14.269478480256863"><ele>40.0</ele><time>2026-05-02T15:13:02.001Z</time></trkpt><trkpt lat="41.13123728490504" lon="14.269254084117664"><ele>40.0</ele><time>2026-05-02T15:13:03.001Z</time></trkpt><trkpt lat="41.131212900896" lon="14.269029460767557"><ele>38.333333333333336</ele><time>2026-05-02T15:13:04.001Z</time></trkpt><trkpt lat="41.131167419784056" lon="14.268790215768266"><ele>36.666666666666664</ele><time>2026-05-02T15:13:05.001Z</time></trkpt><trkpt lat="41.13113077465221" lon="14.268552515397541"><ele>35.0</ele><time>2026-05-02T15:13:06.001Z</time></trkpt><trkpt lat="41.13110034432295" lon="14.268316649997004"><ele>33.666666666666664</ele><time>2026-05-02T15:13:07.001Z</time></trkpt><trkpt lat="41.131080603505396" lon="14.268102350047165"><ele>32.333333333333336</ele><time>2026-05-02T15:13:08.001Z</time></trkpt><trkpt lat="41.131056812757386" lon="14.267868760567785"><ele>31.0</ele><time>2026-05-02T15:13:09.001Z</time></trkpt><trkpt lat="41.131040469665066" lon="14.267673984294982"><ele>31.0</ele><time>2026-05-02T15:13:10.001Z</time></trkpt><trkpt lat="41.1310335817036" lon="14.267502821653716"><ele>31.0</ele><time>2026-05-02T15:13:11.001Z</time></trkpt><trkpt lat="41.13101110167285" lon="14.26732188154587"><ele>31.0</ele><time>2026-05-02T15:13:12.001Z</time></trkpt><trkpt lat="41.13098736312677" lon="14.267114735091031"><ele>31.0</ele><time>2026-05-02T15:13:13.002Z</time></trkpt><trkpt lat="41.13095665531697" lon="14.266897160589355"><ele>31.0</ele><time>2026-05-02T15:13:14.002Z</time></trkpt><trkpt lat="41.13092214692612" lon="14.266657370777923"><ele>31.0</ele><time>2026-05-02T15:13:15.002Z</time></trkpt><trkpt lat="41.13090206443583" lon="14.26643418713381"><ele>31.0</ele><time>2026-05-02T15:13:16.002Z</time></trkpt><trkpt lat="41.13089830628158" lon="14.266189725361325"><ele>31.0</ele><time>2026-05-02T15:13:17.002Z</time></trkpt><trkpt lat="41.13089849843989" lon="14.26592424058558"><ele>31.0</ele><time>2026-05-02T15:13:18.002Z</time></trkpt><trkpt lat="41.130899401600544" lon="14.265652093773635"><ele>31.0</ele><time>2026-05-02T15:13:19.002Z</time></trkpt><trkpt lat="41.13090742745036" lon="14.265382968423221"><ele>30.666666666666668</ele><time>2026-05-02T15:13:20.002Z</time></trkpt><trkpt lat="41.130912301564386" lon="14.265116201111127"><ele>30.333333333333336</ele><time>2026-05-02T15:13:21.002Z</time></trkpt><trkpt lat="41.13091042017357" lon="14.26486417917575"><ele>30.0</ele><time>2026-05-02T15:13:22.002Z</time></trkpt><trkpt lat="41.13091661007076" lon="14.26461827525391"><ele>29.333333333333336</ele><time>2026-05-02T15:13:23.002Z</time></trkpt><trkpt lat="41.130916617330236" lon="14.264385053214923"><ele>28.666666666666668</ele><time>2026-05-02T15:13:24.002Z</time></trkpt><trkpt lat="41.13090270644297" lon="14.264153839965298"><ele>28.0</ele><time>2026-05-02T15:13:25.002Z</time></trkpt><trkpt lat="41.130879395198846" lon="14.26394048778317"><ele>28.0</ele><time>2026-05-02T15:13:26.002Z</time></trkpt><trkpt lat="41.13082621941375" lon="14.26372938839883"><ele>28.0</ele><time>2026-05-02T15:13:27.002Z</time></trkpt><trkpt lat="41.1307426107487" lon="14.263524367665644"><ele>28.0</ele><time>2026-05-02T15:13:28.002Z</time></trkpt><trkpt lat="41.13063735147487" lon="14.263322598609012"><ele>29.666666666666668</ele><time>2026-05-02T15:13:29.002Z</time></trkpt><trkpt lat="41.13051598190607" lon="14.26311410940856"><ele>31.333333333333336</ele><time>2026-05-02T15:13:30.002Z</time></trkpt><trkpt lat="41.13039468522664" lon="14.262908287611364"><ele>33.0</ele><time>2026-05-02T15:13:31.002Z</time></trkpt><trkpt lat="41.13028382447746" lon="14.262714147676103"><ele>33.0</ele><time>2026-05-02T15:13:32Z</time></trkpt><trkpt lat="41.130179942826615" lon="14.262532796867697"><ele>33.0</ele><time>2026-05-02T15:13:33Z</time></trkpt><trkpt lat="41.13009784596869" lon="14.262343048606962"><ele>33.0</ele><time>2026-05-02T15:13:34Z</time></trkpt><trkpt lat="41.13003379979796" lon="14.262134040278703"><ele>33.0</ele><time>2026-05-02T15:13:35Z</time></trkpt><trkpt lat="41.12999046035114" lon="14.261917134623173"><ele>33.0</ele><time>2026-05-02T15:13:36Z</time></trkpt><trkpt lat="41.12996494218756" lon="14.261680885135169"><ele>33.0</ele><time>2026-05-02T15:13:37Z</time></trkpt><trkpt lat="41.1299431015221" lon="14.261433232113655"><ele>33.333333333333336</ele><time>2026-05-02T15:13:38Z</time></trkpt><trkpt lat="41.12991903589451" lon="14.261198855420254"><ele>33.66666666666667</ele><time>2026-05-02T15:13:39Z</time></trkpt><trkpt lat="41.129911598039875" lon="14.260990096295549"><ele>34.0</ele><time>2026-05-02T15:13:40Z</time></trkpt><trkpt lat="41.129899388477234" lon="14.260797368911499"><ele>34.25</ele><time>2026-05-02T15:13:41Z</time></trkpt><trkpt lat="41.12989368664962" lon="14.260611284971617"><ele>34.5</ele><time>2026-05-02T15:13:42Z</time></trkpt><trkpt lat="41.12988026751551" lon="14.260442262949109"><ele>34.75</ele><time>2026-05-02T15:13:43Z</time></trkpt><trkpt lat="41.12986949570295" lon="14.260297199261968"><ele>35.0</ele><time>2026-05-02T15:13:44Z</time></trkpt><trkpt lat="41.12985843780332" lon="14.260166408979806"><ele>35.75</ele><time>2026-05-02T15:13:45Z</time></trkpt><trkpt lat="41.12984490185527" lon="14.260028342968248"><ele>36.5</ele><time>2026-05-02T15:13:46Z</time></trkpt><trkpt lat="41.12982584517454" lon="14.259887369700456"><ele>37.25</ele><time>2026-05-02T15:13:47Z</time></trkpt><trkpt lat="41.12979737791136" lon="14.25973741097676"><ele>38.0</ele><time>2026-05-02T15:13:48Z</time></trkpt><trkpt lat="41.129778563219894" lon="14.259557852907413"><ele>38.0</ele><time>2026-05-02T15:13:49Z</time></trkpt><trkpt lat="41.12974309470885" lon="14.259343252145088"><ele>38.0</ele><time>2026-05-02T15:13:50Z</time></trkpt><trkpt lat="41.129700712765334" lon="14.259114932713192"><ele>38.0</ele><time>2026-05-02T15:13:51Z</time></trkpt><trkpt lat="41.12965577745624" lon="14.258874901442804"><ele>38.0</ele><time>2026-05-02T15:13:52Z</time></trkpt><trkpt lat="41.12960155774806" lon="14.258627922717663"><ele>38.0</ele><time>2026-05-02T15:13:53Z</time></trkpt><trkpt lat="41.129558303806625" lon="14.25835606265323"><ele>38.0</ele><time>2026-05-02T15:13:54Z</time></trkpt><trkpt lat="41.12951614182085" lon="14.258094685898834"><ele>38.33333333333333</ele><time>2026-05-02T15:13:55Z</time></trkpt><trkpt lat="41.12948038852038" lon="14.257855020585591"><ele>38.666666666666664</ele><time>2026-05-02T15:13:56Z</time></trkpt><trkpt lat="41.12944149399186" lon="14.257625928830787"><ele>39.0</ele><time>2026-05-02T15:13:57Z</time></trkpt><trkpt lat="41.129397668759225" lon="14.257389526810764"><ele>39.0</ele><time>2026-05-02T15:13:58Z</time></trkpt><trkpt lat="41.12935621874184" lon="14.257155620192783"><ele>39.0</ele><time>2026-05-02T15:13:59Z</time></trkpt><trkpt lat="41.12931721561336" lon="14.256934406260262"><ele>39.0</ele><time>2026-05-02T15:14:00Z</time></trkpt><trkpt lat="41.12927900586756" lon="14.256719713330812"><ele>39.0</ele><time>2026-05-02T15:14:01Z</time></trkpt><trkpt lat="41.129237529545044" lon="14.256507447177324"><ele>39.0</ele><time>2026-05-02T15:14:02Z</time></trkpt><trkpt lat="41.12919429948779" lon="14.256316793350717"><ele>39.0</ele><time>2026-05-02T15:14:03Z</time></trkpt><trkpt lat="41.12914981317729" lon="14.256119803277436"><ele>39.25</ele><time>2026-05-02T15:14:04Z</time></trkpt><trkpt lat="41.129096431753226" lon="14.255937963071172"><ele>39.5</ele><time>2026-05-02T15:14:05Z</time></trkpt><trkpt lat="41.129032751082434" lon="14.255766273092188"><ele>39.75</ele><time>2026-05-02T15:14:06Z</time></trkpt><trkpt lat="41.12896258470844" lon="14.255613126084182"><ele>40.0</ele><time>2026-05-02T15:14:07Z</time></trkpt><trkpt lat="41.12889587670138" lon="14.255456067082376"><ele>40.75</ele><time>2026-05-02T15:14:08Z</time></trkpt><trkpt lat="41.128826658532105" lon="14.255300677330746"><ele>41.5</ele><time>2026-05-02T15:14:09Z</time></trkpt><trkpt lat="41.128758817807395" lon="14.255159836558997"><ele>42.25</ele><time>2026-05-02T15:14:10Z</time></trkpt><trkpt lat="41.12869581507189" lon="14.255022692166353"><ele>43.0</ele><time>2026-05-02T15:14:11Z</time></trkpt><trkpt lat="41.128633719082906" lon="14.25488264741963"><ele>42.75</ele><time>2026-05-02T15:14:12Z</time></trkpt><trkpt lat="41.12856848556519" lon="14.254742072031016"><ele>42.5</ele><time>2026-05-02T15:14:13Z</time></trkpt><trkpt lat="41.12849702085099" lon="14.254593041765062"><ele>42.25</ele><time>2026-05-02T15:14:14Z</time></trkpt><trkpt lat="41.12842258524473" lon="14.254448586717627"><ele>42.0</ele><time>2026-05-02T15:14:15Z</time></trkpt><trkpt lat="41.12834994138797" lon="14.254301377271418"><ele>42.0</ele><time>2026-05-02T15:14:16Z</time></trkpt><trkpt lat="41.1282532242503" lon="14.254175146915495"><ele>42.0</ele><time>2026-05-02T15:14:17.001Z</time></trkpt><trkpt lat="41.128166249632905" lon="14.254039220112125"><ele>42.0</ele><time>2026-05-02T15:14:18.001Z</time></trkpt><trkpt lat="41.128076078541476" lon="14.25390109654837"><ele>42.0</ele><time>2026-05-02T15:14:19.001Z</time></trkpt><trkpt lat="41.127982421221965" lon="14.2537601727081"><ele>42.25</ele><time>2026-05-02T15:14:20.001Z</time></trkpt><trkpt lat="41.12789024218548" lon="14.253625919099578"><ele>42.5</ele><time>2026-05-02T15:14:21.001Z</time></trkpt><trkpt lat="41.12779804283466" lon="14.253494497092312"><ele>42.75</ele><time>2026-05-02T15:14:22.001Z</time></trkpt><trkpt lat="41.12770618769205" lon="14.253365428123459"><ele>43.0</ele><time>2026-05-02T15:14:23.001Z</time></trkpt><trkpt lat="41.12761611106347" lon="14.253242073011949"><ele>43.0</ele><time>2026-05-02T15:14:24.001Z</time></trkpt><trkpt lat="41.12753599707145" lon="14.253136046947557"><ele>43.0</ele><time>2026-05-02T15:14:25.001Z</time></trkpt><trkpt lat="41.12744258354496" lon="14.253015953651941"><ele>43.0</ele><time>2026-05-02T15:14:26.001Z</time></trkpt><trkpt lat="41.12732905625306" lon="14.252885187524988"><ele>43.0</ele><time>2026-05-02T15:14:27.001Z</time></trkpt><trkpt lat="41.12720582542237" lon="14.252757705315489"><ele>44.333333333333336</ele><time>2026-05-02T15:14:28.001Z</time></trkpt><trkpt lat="41.12707539288393" lon="14.252613645154483"><ele>45.666666666666664</ele><time>2026-05-02T15:14:29.001Z</time></trkpt><trkpt lat="41.12695511493466" lon="14.252474023347807"><ele>47.0</ele><time>2026-05-02T15:14:30.001Z</time></trkpt><trkpt lat="41.12683994441389" lon="14.25236137043359"><ele>46.5</ele><time>2026-05-02T15:14:31.001Z</time></trkpt><trkpt lat="41.12671815543984" lon="14.252259820729662"><ele>46.0</ele><time>2026-05-02T15:14:32.001Z</time></trkpt><trkpt lat="41.12659446084022" lon="14.252174223355189"><ele>45.5</ele><time>2026-05-02T15:14:33.001Z</time></trkpt><trkpt lat="41.126482500390715" lon="14.252099669511376"><ele>45.0</ele><time>2026-05-02T15:14:34.001Z</time></trkpt><trkpt lat="41.12638468288394" lon="14.251995460089972"><ele>46.0</ele><time>2026-05-02T15:14:35.001Z</time></trkpt><trkpt lat="41.12628294328315" lon="14.251932369535119"><ele>47.0</ele><time>2026-05-02T15:14:36.001Z</time></trkpt><trkpt lat="41.12617793867713" lon="14.251871791270275"><ele>48.0</ele><time>2026-05-02T15:14:37.001Z</time></trkpt><trkpt lat="41.12606945313617" lon="14.251812682335617"><ele>49.0</ele><time>2026-05-02T15:14:38.001Z</time></trkpt><trkpt lat="41.12596487700573" lon="14.251759527089408"><ele>49.0</ele><time>2026-05-02T15:14:39.001Z</time></trkpt><trkpt lat="41.12586461088781" lon="14.251709252252331"><ele>49.0</ele><time>2026-05-02T15:14:40.001Z</time></trkpt><trkpt lat="41.12577035627228" lon="14.251661991691714"><ele>49.0</ele><time>2026-05-02T15:14:41.001Z</time></trkpt><trkpt lat="41.12568614819415" lon="14.251618349829611"><ele>49.0</ele><time>2026-05-02T15:14:42.001Z</time></trkpt><trkpt lat="41.12560993235751" lon="14.251577254635219"><ele>49.0</ele><time>2026-05-02T15:14:43.001Z</time></trkpt><trkpt lat="41.125522413464246" lon="14.25153015664078"><ele>49.166666666666664</ele><time>2026-05-02T15:14:44.001Z</time></trkpt><trkpt lat="41.12543508636511" lon="14.251486601267962"><ele>49.33333333333333</ele><time>2026-05-02T15:14:45.001Z</time></trkpt><trkpt lat="41.125351592675734" lon="14.251447988321823"><ele>49.5</ele><time>2026-05-02T15:14:46.001Z</time></trkpt><trkpt lat="41.12526620812892" lon="14.251408217099913"><ele>49.66666666666667</ele><time>2026-05-02T15:14:47.001Z</time></trkpt><trkpt lat="41.12518512154059" lon="14.251373520173896"><ele>49.833333333333336</ele><time>2026-05-02T15:14:48.001Z</time></trkpt><trkpt lat="41.125103228820635" lon="14.251339077577319"><ele>50.0</ele><time>2026-05-02T15:14:49.001Z</time></trkpt><trkpt lat="41.12499326082706" lon="14.251312503424126"><ele>49.5</ele><time>2026-05-02T15:14:50.001Z</time></trkpt><trkpt lat="41.12489279157184" lon="14.251299369462947"><ele>49.0</ele><time>2026-05-02T15:14:51.001Z</time></trkpt><trkpt lat="41.12478459088997" lon="14.251292460702611"><ele>48.5</ele><time>2026-05-02T15:14:52.001Z</time></trkpt><trkpt lat="41.124665922899005" lon="14.251299599295388"><ele>48.0</ele><time>2026-05-02T15:14:53.001Z</time></trkpt><trkpt lat="41.124540211298246" lon="14.25125863544045"><ele>48.0</ele><time>2026-05-02T15:14:54.001Z</time></trkpt><trkpt lat="41.12442138945458" lon="14.25123999526259"><ele>48.0</ele><time>2026-05-02T15:14:55.001Z</time></trkpt><trkpt lat="41.124316677189" lon="14.251231616213015"><ele>48.0</ele><time>2026-05-02T15:14:56.001Z</time></trkpt><trkpt lat="41.12422423800609" lon="14.251228171807618"><ele>48.0</ele><time>2026-05-02T15:14:57.001Z</time></trkpt><trkpt lat="41.12413290454355" lon="14.251215421218332"><ele>48.0</ele><time>2026-05-02T15:14:58.001Z</time></trkpt><trkpt lat="41.12404146550024" lon="14.25120051266808"><ele>48.2</ele><time>2026-05-02T15:14:59.001Z</time></trkpt><trkpt lat="41.12394625577167" lon="14.251193119870857"><ele>48.4</ele><time>2026-05-02T15:15:00.001Z</time></trkpt><trkpt lat="41.12385162138589" lon="14.251185808742642"><ele>48.6</ele><time>2026-05-02T15:15:01.001Z</time></trkpt><trkpt lat="41.12375543307879" lon="14.251170430493161"><ele>48.800000000000004</ele><time>2026-05-02T15:15:02.001Z</time></trkpt><trkpt lat="41.12365964029691" lon="14.251154977345953"><ele>49.0</ele><time>2026-05-02T15:15:03.001Z</time></trkpt><trkpt lat="41.12356136150475" lon="14.251136544015548"><ele>49.0</ele><time>2026-05-02T15:15:04.001Z</time></trkpt><trkpt lat="41.12345952390023" lon="14.251124030661929"><ele>49.0</ele><time>2026-05-02T15:15:05.001Z</time></trkpt><trkpt lat="41.123359528170056" lon="14.251111390984223"><ele>49.0</ele><time>2026-05-02T15:15:06.001Z</time></trkpt><trkpt lat="41.12326491711941" lon="14.251096289899587"><ele>49.0</ele><time>2026-05-02T15:15:07.001Z</time></trkpt><trkpt lat="41.12317186549218" lon="14.251075987036462"><ele>49.0</ele><time>2026-05-02T15:15:08.001Z</time></trkpt><trkpt lat="41.12307864474611" lon="14.251060976162844"><ele>48.83333333333333</ele><time>2026-05-02T15:15:09.001Z</time></trkpt><trkpt lat="41.12298725337455" lon="14.251041951152644"><ele>48.666666666666664</ele><time>2026-05-02T15:15:10.001Z</time></trkpt><trkpt lat="41.12290382351547" lon="14.251041305850743"><ele>48.5</ele><time>2026-05-02T15:15:11.001Z</time></trkpt><trkpt lat="41.122813488432875" lon="14.251026912826859"><ele>48.33333333333333</ele><time>2026-05-02T15:15:12.001Z</time></trkpt><trkpt lat="41.1227255590737" lon="14.251011009656592"><ele>48.166666666666664</ele><time>2026-05-02T15:15:13.001Z</time></trkpt><trkpt lat="41.12264426088642" lon="14.25100594058121"><ele>48.0</ele><time>2026-05-02T15:15:14.001Z</time></trkpt><trkpt lat="41.12256661546431" lon="14.251008721656907"><ele>48.0</ele><time>2026-05-02T15:15:15.001Z</time></trkpt><trkpt lat="41.12248673267838" lon="14.25099622208602"><ele>48.0</ele><time>2026-05-02T15:15:16.001Z</time></trkpt><trkpt lat="41.12240265578891" lon="14.250992290904016"><ele>48.0</ele><time>2026-05-02T15:15:17.001Z</time></trkpt><trkpt lat="41.122318396892005" lon="14.250983838650646"><ele>48.0</ele><time>2026-05-02T15:15:18.001Z</time></trkpt><trkpt lat="41.12223231244324" lon="14.250962454151441"><ele>48.0</ele><time>2026-05-02T15:15:19.002Z</time></trkpt><trkpt lat="41.122150912755565" lon="14.250952504748012"><ele>48.0</ele><time>2026-05-02T15:15:20.002Z</time></trkpt><trkpt lat="41.1220711719172" lon="14.250943118986287"><ele>48.0</ele><time>2026-05-02T15:15:21.002Z</time></trkpt><trkpt lat="41.12199166823275" lon="14.250936864067773"><ele>48.0</ele><time>2026-05-02T15:15:22.002Z</time></trkpt><trkpt lat="41.12191552287112" lon="14.25093257957296"><ele>48.0</ele><time>2026-05-02T15:15:23.002Z</time></trkpt><trkpt lat="41.12184338701551" lon="14.250921184011833"><ele>48.0</ele><time>2026-05-02T15:15:24.002Z</time></trkpt><trkpt lat="41.12177623055961" lon="14.250908922807685"><ele>48.0</ele><time>2026-05-02T15:15:25.002Z</time></trkpt><trkpt lat="41.12171123068735" lon="14.250894732153736"><ele>48.0</ele><time>2026-05-02T15:15:26.002Z</time></trkpt><trkpt lat="41.12158139733123" lon="14.250884749512576"><ele>47.833333333333336</ele><time>2026-05-02T15:15:28.002Z</time></trkpt><trkpt lat="41.12151153277558" lon="14.25087516943506"><ele>47.666666666666664</ele><time>2026-05-02T15:15:29.002Z</time></trkpt><trkpt lat="41.121440409519984" lon="14.250867750250352"><ele>47.5</ele><time>2026-05-02T15:15:30.002Z</time></trkpt><trkpt lat="41.121361847967584" lon="14.250854486846505"><ele>47.33333333333333</ele><time>2026-05-02T15:15:31.002Z</time></trkpt><trkpt lat="41.121274877701616" lon="14.250846158405892"><ele>47.166666666666664</ele><time>2026-05-02T15:15:32.002Z</time></trkpt><trkpt lat="41.121189380822905" lon="14.250831238207622"><ele>47.0</ele><time>2026-05-02T15:15:33.002Z</time></trkpt><trkpt lat="41.12111136069869" lon="14.250818883884932"><ele>47.0</ele><time>2026-05-02T15:15:34.002Z</time></trkpt><trkpt lat="41.1210334502267" lon="14.250813008010839"><ele>47.0</ele><time>2026-05-02T15:15:35.002Z</time></trkpt><trkpt lat="41.12096166781154" lon="14.25080055191581"><ele>47.0</ele><time>2026-05-02T15:15:36.002Z</time></trkpt><trkpt lat="41.12088727034981" lon="14.25079268891665"><ele>47.0</ele><time>2026-05-02T15:15:37.002Z</time></trkpt><trkpt lat="41.12081054292793" lon="14.250786350713577"><ele>47.0</ele><time>2026-05-02T15:15:38Z</time></trkpt><trkpt lat="41.12073356394246" lon="14.250773061118712"><ele>47.0</ele><time>2026-05-02T15:15:39Z</time></trkpt><trkpt lat="41.120654990779556" lon="14.250763752679042"><ele>47.166666666666664</ele><time>2026-05-02T15:15:40Z</time></trkpt><trkpt lat="41.120581160569635" lon="14.250757681785435"><ele>47.33333333333333</ele><time>2026-05-02T15:15:41Z</time></trkpt><trkpt lat="41.120516150318686" lon="14.250750875947157"><ele>47.5</ele><time>2026-05-02T15:15:42Z</time></trkpt><trkpt lat="41.12045194169106" lon="14.250745948320642"><ele>47.666666666666664</ele><time>2026-05-02T15:15:43Z</time></trkpt><trkpt lat="41.12034233021445" lon="14.25072398652789"><ele>47.833333333333336</ele><time>2026-05-02T15:15:45Z</time></trkpt><trkpt lat="41.12027334681128" lon="14.250709934853528"><ele>48.0</ele><time>2026-05-02T15:15:46Z</time></trkpt><trkpt lat="41.120160471297105" lon="14.25069917734086"><ele>48.0</ele><time>2026-05-02T15:15:48Z</time></trkpt><trkpt lat="41.120050035723494" lon="14.2506923181394"><ele>48.0</ele><time>2026-05-02T15:15:50Z</time></trkpt><trkpt lat="41.119974119692806" lon="14.250660258042133"><ele>48.0</ele><time>2026-05-02T15:15:52Z</time></trkpt><trkpt lat="41.1198916383233" lon="14.250621547561867"><ele>48.0</ele><time>2026-05-02T15:15:55Z</time></trkpt><trkpt lat="41.11980515952856" lon="14.250604257407856"><ele>48.0</ele><time>2026-05-02T15:15:57Z</time></trkpt><trkpt lat="41.11970953273176" lon="14.250592464797066"><ele>47.833333333333336</ele><time>2026-05-02T15:15:59Z</time></trkpt><trkpt lat="41.11960229120559" lon="14.250577366151902"><ele>47.666666666666664</ele><time>2026-05-02T15:16:01Z</time></trkpt><trkpt lat="41.11948021940149" lon="14.250570507037088"><ele>47.5</ele><time>2026-05-02T15:16:03Z</time></trkpt><trkpt lat="41.11941608729239" lon="14.25055780371514"><ele>47.33333333333333</ele><time>2026-05-02T15:16:04Z</time></trkpt><trkpt lat="41.119349541631806" lon="14.250559698553486"><ele>47.166666666666664</ele><time>2026-05-02T15:16:05Z</time></trkpt><trkpt lat="41.11927818765574" lon="14.250561746879566"><ele>47.0</ele><time>2026-05-02T15:16:06Z</time></trkpt><trkpt lat="41.11920679122069" lon="14.250553559508003"><ele>47.0</ele><time>2026-05-02T15:16:07Z</time></trkpt><trkpt lat="41.11913274257032" lon="14.250542158103212"><ele>47.0</ele><time>2026-05-02T15:16:08Z</time></trkpt><trkpt lat="41.11905565875423" lon="14.250522732115506"><ele>47.0</ele><time>2026-05-02T15:16:09Z</time></trkpt><trkpt lat="41.11897510554822" lon="14.250508486247005"><ele>47.0</ele><time>2026-05-02T15:16:10Z</time></trkpt><trkpt lat="41.11888353536012" lon="14.250502322636345"><ele>47.0</ele><time>2026-05-02T15:16:11Z</time></trkpt><trkpt lat="41.11880370790627" lon="14.25049101573339"><ele>47.0</ele><time>2026-05-02T15:16:12Z</time></trkpt><trkpt lat="41.11872144484909" lon="14.250476152480587"><ele>46.5</ele><time>2026-05-02T15:16:13Z</time></trkpt><trkpt lat="41.11864174574552" lon="14.25047054918977"><ele>46.0</ele><time>2026-05-02T15:16:14Z</time></trkpt><trkpt lat="41.11855981230913" lon="14.25047338005952"><ele>45.5</ele><time>2026-05-02T15:16:15Z</time></trkpt><trkpt lat="41.11847979701655" lon="14.250471418503372"><ele>45.0</ele><time>2026-05-02T15:16:16Z</time></trkpt><trkpt lat="41.1183978957336" lon="14.25047651087301"><ele>44.5</ele><time>2026-05-02T15:16:17Z</time></trkpt><trkpt lat="41.118315018776016" lon="14.250476404863663"><ele>44.0</ele><time>2026-05-02T15:16:18Z</time></trkpt><trkpt lat="41.118227469450446" lon="14.250479117355109"><ele>43.6</ele><time>2026-05-02T15:16:19Z</time></trkpt><trkpt lat="41.11813869388293" lon="14.2504881057805"><ele>43.2</ele><time>2026-05-02T15:16:20.001Z</time></trkpt><trkpt lat="41.11804623986519" lon="14.250499758698378"><ele>42.800000000000004</ele><time>2026-05-02T15:16:21.001Z</time></trkpt><trkpt lat="41.11795607450323" lon="14.2505093039442"><ele>42.400000000000006</ele><time>2026-05-02T15:16:22.001Z</time></trkpt><trkpt lat="41.11786393889469" lon="14.250522722465103"><ele>42.0</ele><time>2026-05-02T15:16:23.001Z</time></trkpt><trkpt lat="41.117770988978684" lon="14.250532882503427"><ele>42.0</ele><time>2026-05-02T15:16:24.001Z</time></trkpt><trkpt lat="41.11767568356777" lon="14.250550781915207"><ele>42.0</ele><time>2026-05-02T15:16:25.001Z</time></trkpt><trkpt lat="41.11758220290846" lon="14.250560758449643"><ele>42.0</ele><time>2026-05-02T15:16:26.001Z</time></trkpt><trkpt lat="41.117488889815846" lon="14.250570371789536"><ele>42.0</ele><time>2026-05-02T15:16:27.001Z</time></trkpt><trkpt lat="41.11739284908466" lon="14.250580764316677"><ele>42.0</ele><time>2026-05-02T15:16:28.001Z</time></trkpt><trkpt lat="41.117301670107956" lon="14.250600227970232"><ele>41.8</ele><time>2026-05-02T15:16:29.001Z</time></trkpt><trkpt lat="41.117207881400454" lon="14.25061624423517"><ele>41.6</ele><time>2026-05-02T15:16:30.001Z</time></trkpt><trkpt lat="41.117112690787614" lon="14.250627509716612"><ele>41.4</ele><time>2026-05-02T15:16:31.001Z</time></trkpt><trkpt lat="41.11701388952881" lon="14.250636247447774"><ele>41.199999999999996</ele><time>2026-05-02T15:16:32.001Z</time></trkpt><trkpt lat="41.11690607892671" lon="14.250652257840448"><ele>41.0</ele><time>2026-05-02T15:16:33.001Z</time></trkpt><trkpt lat="41.116802978048995" lon="14.250668617699919"><ele>41.0</ele><time>2026-05-02T15:16:34.001Z</time></trkpt><trkpt lat="41.11669962514328" lon="14.250679550804314"><ele>41.0</ele><time>2026-05-02T15:16:35.001Z</time></trkpt><trkpt lat="41.11659985234913" lon="14.250678778890164"><ele>41.0</ele><time>2026-05-02T15:16:36.001Z</time></trkpt><trkpt lat="41.116504738680426" lon="14.250686756330696"><ele>41.0</ele><time>2026-05-02T15:16:37.001Z</time></trkpt><trkpt lat="41.11641498863917" lon="14.25069552747129"><ele>41.0</ele><time>2026-05-02T15:16:38.001Z</time></trkpt><trkpt lat="41.11633213601965" lon="14.250715444698184"><ele>41.33333333333333</ele><time>2026-05-02T15:16:39.001Z</time></trkpt><trkpt lat="41.11625391015033" lon="14.250723759250493"><ele>41.666666666666664</ele><time>2026-05-02T15:16:40.001Z</time></trkpt><trkpt lat="41.11618621846794" lon="14.250731502381036"><ele>42.0</ele><time>2026-05-02T15:16:41.001Z</time></trkpt><trkpt lat="41.11612035253193" lon="14.250742180662705"><ele>42.333333333333336</ele><time>2026-05-02T15:16:42.001Z</time></trkpt><trkpt lat="41.116052944563336" lon="14.250751700283068"><ele>42.66666666666667</ele><time>2026-05-02T15:16:43.001Z</time></trkpt><trkpt lat="41.11592949368751" lon="14.25076903917875"><ele>43.0</ele><time>2026-05-02T15:16:45.001Z</time></trkpt><trkpt lat="41.11580703708722" lon="14.250781244152053"><ele>43.2</ele><time>2026-05-02T15:16:47.001Z</time></trkpt><trkpt lat="41.11568895224428" lon="14.25078572425562"><ele>43.4</ele><time>2026-05-02T15:16:49.001Z</time></trkpt><trkpt lat="41.11557703400666" lon="14.250783683364512"><ele>43.6</ele><time>2026-05-02T15:16:51.001Z</time></trkpt><trkpt lat="41.11548583563403" lon="14.250808936773526"><ele>43.800000000000004</ele><time>2026-05-02T15:16:53.001Z</time></trkpt><trkpt lat="41.11537881579566" lon="14.250822797697829"><ele>44.0</ele><time>2026-05-02T15:16:55.001Z</time></trkpt><trkpt lat="41.11529695121481" lon="14.250847488615161"><ele>44.0</ele><time>2026-05-02T15:16:57.001Z</time></trkpt><trkpt lat="41.11520306648934" lon="14.250844955491933"><ele>44.0</ele><time>2026-05-02T15:16:59.001Z</time></trkpt><trkpt lat="41.115102587094256" lon="14.250844776625195"><ele>44.0</ele><time>2026-05-02T15:17:01.001Z</time></trkpt><trkpt lat="41.11502566652296" lon="14.250853293109556"><ele>44.0</ele><time>2026-05-02T15:17:03.001Z</time></trkpt><trkpt lat="41.11493212305011" lon="14.250874427912247"><ele>44.0</ele><time>2026-05-02T15:17:05.001Z</time></trkpt><trkpt lat="41.11482367566032" lon="14.250899015583041"><ele>44.0</ele><time>2026-05-02T15:17:07.001Z</time></trkpt><trkpt lat="41.114754292818674" lon="14.250909151393333"><ele>44.0</ele><time>2026-05-02T15:17:08.001Z</time></trkpt><trkpt lat="41.11468487390865" lon="14.250922270200599"><ele>44.0</ele><time>2026-05-02T15:17:09.001Z</time></trkpt><trkpt lat="41.11461008547146" lon="14.250923802615006"><ele>44.0</ele><time>2026-05-02T15:17:10.001Z</time></trkpt><trkpt lat="41.11453543713267" lon="14.25093526815029"><ele>44.0</ele><time>2026-05-02T15:17:11.001Z</time></trkpt><trkpt lat="41.11444842653186" lon="14.250931914701999"><ele>44.0</ele><time>2026-05-02T15:17:12.001Z</time></trkpt><trkpt lat="41.11436553091095" lon="14.25094109027282"><ele>44.0</ele><time>2026-05-02T15:17:13.001Z</time></trkpt><trkpt lat="41.11428912870801" lon="14.250965857028527"><ele>44.0</ele><time>2026-05-02T15:17:14.001Z</time></trkpt><trkpt lat="41.11421024971656" lon="14.250969108289857"><ele>44.0</ele><time>2026-05-02T15:17:15.001Z</time></trkpt><trkpt lat="41.114135297648915" lon="14.250963320410479"><ele>44.0</ele><time>2026-05-02T15:17:16.001Z</time></trkpt><trkpt lat="41.11405682571515" lon="14.250972133988036"><ele>44.0</ele><time>2026-05-02T15:17:17.001Z</time></trkpt><trkpt lat="41.11397034534053" lon="14.250979789910447"><ele>44.0</ele><time>2026-05-02T15:17:18.001Z</time></trkpt><trkpt lat="41.11388887960892" lon="14.25098682725447"><ele>43.83333333333333</ele><time>2026-05-02T15:17:19.001Z</time></trkpt><trkpt lat="41.113800698780175" lon="14.251002440840036"><ele>43.666666666666664</ele><time>2026-05-02T15:17:20.001Z</time></trkpt><trkpt lat="41.11371803813023" lon="14.251029052662998"><ele>43.5</ele><time>2026-05-02T15:17:21.001Z</time></trkpt><trkpt lat="41.113636996800636" lon="14.251040322475108"><ele>43.333333333333336</ele><time>2026-05-02T15:17:22.001Z</time></trkpt><trkpt lat="41.11356087790807" lon="14.251045922620795"><ele>43.16666666666667</ele><time>2026-05-02T15:17:23.001Z</time></trkpt><trkpt lat="41.11349407859448" lon="14.251047687483004"><ele>43.0</ele><time>2026-05-02T15:17:24.001Z</time></trkpt><trkpt lat="41.113425483101814" lon="14.251060926566193"><ele>43.0</ele><time>2026-05-02T15:17:25.002Z</time></trkpt><trkpt lat="41.11335382054086" lon="14.251070403647086"><ele>43.0</ele><time>2026-05-02T15:17:26.002Z</time></trkpt><trkpt lat="41.113270090145804" lon="14.251043423806014"><ele>43.0</ele><time>2026-05-02T15:17:27.002Z</time></trkpt><trkpt lat="41.113190969710026" lon="14.251051099152914"><ele>43.0</ele><time>2026-05-02T15:17:28.002Z</time></trkpt><trkpt lat="41.1131094032815" lon="14.251061311525012"><ele>43.0</ele><time>2026-05-02T15:17:29.002Z</time></trkpt><trkpt lat="41.113039177643216" lon="14.251073067443382"><ele>43.0</ele><time>2026-05-02T15:17:30.002Z</time></trkpt><trkpt lat="41.112966101118616" lon="14.251087483900466"><ele>42.833333333333336</ele><time>2026-05-02T15:17:31.002Z</time></trkpt><trkpt lat="41.11289249432815" lon="14.251093886188572"><ele>42.66666666666667</ele><time>2026-05-02T15:17:32.002Z</time></trkpt><trkpt lat="41.112817596312716" lon="14.251099705393031"><ele>42.5</ele><time>2026-05-02T15:17:33.002Z</time></trkpt><trkpt lat="41.112743935079486" lon="14.251115318494142"><ele>42.333333333333336</ele><time>2026-05-02T15:17:34.002Z</time></trkpt><trkpt lat="41.112666064965566" lon="14.251131249467447"><ele>42.166666666666664</ele><time>2026-05-02T15:17:35.002Z</time></trkpt><trkpt lat="41.11259525409798" lon="14.251151039210455"><ele>42.0</ele><time>2026-05-02T15:17:36.002Z</time></trkpt><trkpt lat="41.11251598074838" lon="14.25115691115731"><ele>42.0</ele><time>2026-05-02T15:17:37.002Z</time></trkpt><trkpt lat="41.112444210922284" lon="14.251159906381858"><ele>42.0</ele><time>2026-05-02T15:17:38.002Z</time></trkpt><trkpt lat="41.112326036699024" lon="14.251167873581364"><ele>42.0</ele><time>2026-05-02T15:17:40.002Z</time></trkpt><trkpt lat="41.11222752739395" lon="14.25118101143952"><ele>42.0</ele><time>2026-05-02T15:17:42.002Z</time></trkpt><trkpt lat="41.11212938670946" lon="14.251188716284025"><ele>42.0</ele><time>2026-05-02T15:17:44Z</time></trkpt><trkpt lat="41.11202692434976" lon="14.251196152913137"><ele>41.833333333333336</ele><time>2026-05-02T15:17:46Z</time></trkpt><trkpt lat="41.11189791827827" lon="14.251205003228808"><ele>41.666666666666664</ele><time>2026-05-02T15:17:48Z</time></trkpt><trkpt lat="41.11182644953883" lon="14.251214282150828"><ele>41.5</ele><time>2026-05-02T15:17:49Z</time></trkpt><trkpt lat="41.11175036881382" lon="14.251225895629023"><ele>41.33333333333333</ele><time>2026-05-02T15:17:50Z</time></trkpt><trkpt lat="41.11166903169636" lon="14.251241821620882"><ele>41.166666666666664</ele><time>2026-05-02T15:17:51Z</time></trkpt><trkpt lat="41.111588993050034" lon="14.251249705131384"><ele>41.0</ele><time>2026-05-02T15:17:52Z</time></trkpt><trkpt lat="41.111508413698886" lon="14.251264372152608"><ele>40.5</ele><time>2026-05-02T15:17:53Z</time></trkpt><trkpt lat="41.11142798875249" lon="14.251279760452618"><ele>40.0</ele><time>2026-05-02T15:17:54Z</time></trkpt><trkpt lat="41.11134206075348" lon="14.251278557501127"><ele>39.5</ele><time>2026-05-02T15:17:55Z</time></trkpt><trkpt lat="41.1112410182161" lon="14.251281033020295"><ele>39.0</ele><time>2026-05-02T15:17:56Z</time></trkpt><trkpt lat="41.11115397899086" lon="14.251299587129973"><ele>38.5</ele><time>2026-05-02T15:17:57Z</time></trkpt><trkpt lat="41.111067530838135" lon="14.251310747719867"><ele>38.0</ele><time>2026-05-02T15:17:58Z</time></trkpt><trkpt lat="41.11097523212304" lon="14.251313048032651"><ele>38.0</ele><time>2026-05-02T15:17:59Z</time></trkpt><trkpt lat="41.110887931908955" lon="14.251318771991107"><ele>38.0</ele><time>2026-05-02T15:18:00Z</time></trkpt><trkpt lat="41.11080409608767" lon="14.251326446456469"><ele>38.0</ele><time>2026-05-02T15:18:01Z</time></trkpt><trkpt lat="41.11071421176206" lon="14.251341504445843"><ele>38.0</ele><time>2026-05-02T15:18:02Z</time></trkpt><trkpt lat="41.11062449279532" lon="14.251355790162584"><ele>38.0</ele><time>2026-05-02T15:18:03Z</time></trkpt><trkpt lat="41.110538537902855" lon="14.251372309741141"><ele>38.0</ele><time>2026-05-02T15:18:04Z</time></trkpt><trkpt lat="41.11045894031943" lon="14.251378582505406"><ele>37.8</ele><time>2026-05-02T15:18:05Z</time></trkpt><trkpt lat="41.110334682354534" lon="14.251405870178617"><ele>37.599999999999994</ele><time>2026-05-02T15:18:07Z</time></trkpt><trkpt lat="41.11022276057279" lon="14.251393302444187"><ele>37.400000000000006</ele><time>2026-05-02T15:18:09Z</time></trkpt><trkpt lat="41.110129025135265" lon="14.251403351139405"><ele>37.2</ele><time>2026-05-02T15:18:11Z</time></trkpt><trkpt lat="41.11006331877946" lon="14.251409442240298"><ele>37.0</ele><time>2026-05-02T15:18:14Z</time></trkpt><trkpt lat="41.1101308964802" lon="14.251554697415132"><ele>40.0</ele><time>2026-05-02T15:19:36.002Z</time></trkpt><trkpt lat="41.110088815178955" lon="14.251485317636233"><ele>40.0</ele><time>2026-05-02T15:19:38.002Z</time></trkpt></trkseg></trk></gpx>